<?xml version="1.0" encoding="UTF-8" standalone="no" ?>
<gpx xmlns="http://www.topografix.com/GPX/1/1" xmlns:xsi="http://www.w3.org/2001/XMLSchema-instance" xsi:schemaLocation="http://www.topografix.com/GPX/1/1 http://www.topografix.com/GPX/1/1/gpx.xsd" version="1.1" creator="VisuGPX - https://www.visugpx.com">
  <metadata>
    <name>La gardonette 2023</name>
  </metadata>
  <trk>
    <name><![CDATA[La gardonette 2023_1]]></name>
    <trkseg>
      <trkpt lat="44.78324" lon="0.44817">
        <ele>148.8</ele>
        <time>2023-07-14T06:10:13Z</time>
      </trkpt>
      <trkpt lat="44.78322" lon="0.44821">
        <ele>148.8</ele>
        <time>2023-07-14T06:10:14Z</time>
      </trkpt>
      <trkpt lat="44.78321" lon="0.44825">
        <ele>148.8</ele>
        <time>2023-07-14T06:10:15Z</time>
      </trkpt>
      <trkpt lat="44.78318" lon="0.44833">
        <ele>148.7</ele>
        <time>2023-07-14T06:10:17Z</time>
      </trkpt>
      <trkpt lat="44.78316" lon="0.44842">
        <ele>148.7</ele>
        <time>2023-07-14T06:10:19Z</time>
      </trkpt>
      <trkpt lat="44.78314" lon="0.4485">
        <ele>148.7</ele>
        <time>2023-07-14T06:10:21Z</time>
      </trkpt>
      <trkpt lat="44.78311" lon="0.44858">
        <ele>148.7</ele>
        <time>2023-07-14T06:10:23Z</time>
      </trkpt>
      <trkpt lat="44.78309" lon="0.44866">
        <ele>148.6</ele>
        <time>2023-07-14T06:10:25Z</time>
      </trkpt>
      <trkpt lat="44.78306" lon="0.44874">
        <ele>148.5</ele>
        <time>2023-07-14T06:10:27Z</time>
      </trkpt>
      <trkpt lat="44.78303" lon="0.44881">
        <ele>148.5</ele>
        <time>2023-07-14T06:10:29Z</time>
      </trkpt>
      <trkpt lat="44.78301" lon="0.44889">
        <ele>148.4</ele>
        <time>2023-07-14T06:10:31Z</time>
      </trkpt>
      <trkpt lat="44.78298" lon="0.44897">
        <ele>148.3</ele>
        <time>2023-07-14T06:10:33Z</time>
      </trkpt>
      <trkpt lat="44.78296" lon="0.44905">
        <ele>148.2</ele>
        <time>2023-07-14T06:10:35Z</time>
      </trkpt>
      <trkpt lat="44.78294" lon="0.44913">
        <ele>148</ele>
        <time>2023-07-14T06:10:37Z</time>
      </trkpt>
      <trkpt lat="44.78291" lon="0.4492">
        <ele>147.9</ele>
        <time>2023-07-14T06:10:39Z</time>
      </trkpt>
      <trkpt lat="44.7829" lon="0.44924">
        <ele>147.8</ele>
        <time>2023-07-14T06:10:40Z</time>
      </trkpt>
      <trkpt lat="44.78288" lon="0.44928">
        <ele>147.7</ele>
        <time>2023-07-14T06:10:41Z</time>
      </trkpt>
      <trkpt lat="44.78287" lon="0.44933">
        <ele>147.6</ele>
        <time>2023-07-14T06:10:42Z</time>
      </trkpt>
      <trkpt lat="44.78286" lon="0.44937">
        <ele>147.6</ele>
        <time>2023-07-14T06:10:43Z</time>
      </trkpt>
      <trkpt lat="44.78283" lon="0.44946">
        <ele>147.3</ele>
        <time>2023-07-14T06:10:45Z</time>
      </trkpt>
      <trkpt lat="44.78281" lon="0.44955">
        <ele>147.1</ele>
        <time>2023-07-14T06:10:47Z</time>
      </trkpt>
      <trkpt lat="44.78278" lon="0.44964">
        <ele>146.9</ele>
        <time>2023-07-14T06:10:49Z</time>
      </trkpt>
      <trkpt lat="44.78275" lon="0.44973">
        <ele>146.7</ele>
        <time>2023-07-14T06:10:51Z</time>
      </trkpt>
      <trkpt lat="44.78273" lon="0.44981">
        <ele>146.4</ele>
        <time>2023-07-14T06:10:53Z</time>
      </trkpt>
      <trkpt lat="44.78268" lon="0.44988">
        <ele>146.2</ele>
        <time>2023-07-14T06:10:55Z</time>
      </trkpt>
      <trkpt lat="44.78261" lon="0.44991">
        <ele>145.9</ele>
        <time>2023-07-14T06:10:57Z</time>
      </trkpt>
      <trkpt lat="44.78257" lon="0.44991">
        <ele>145.7</ele>
        <time>2023-07-14T06:10:58Z</time>
      </trkpt>
      <trkpt lat="44.78253" lon="0.4499">
        <ele>145.5</ele>
        <time>2023-07-14T06:10:59Z</time>
      </trkpt>
      <trkpt lat="44.78249" lon="0.44987">
        <ele>145.4</ele>
        <time>2023-07-14T06:11:00Z</time>
      </trkpt>
      <trkpt lat="44.78245" lon="0.44983">
        <ele>145.2</ele>
        <time>2023-07-14T06:11:01Z</time>
      </trkpt>
      <trkpt lat="44.7824" lon="0.4498">
        <ele>145</ele>
        <time>2023-07-14T06:11:02Z</time>
      </trkpt>
      <trkpt lat="44.78236" lon="0.44979">
        <ele>144.8</ele>
        <time>2023-07-14T06:11:03Z</time>
      </trkpt>
      <trkpt lat="44.78233" lon="0.44981">
        <ele>144.7</ele>
        <time>2023-07-14T06:11:04Z</time>
      </trkpt>
      <trkpt lat="44.78231" lon="0.44985">
        <ele>144.6</ele>
        <time>2023-07-14T06:11:05Z</time>
      </trkpt>
      <trkpt lat="44.78229" lon="0.44989">
        <ele>144.5</ele>
        <time>2023-07-14T06:11:06Z</time>
      </trkpt>
      <trkpt lat="44.78226" lon="0.44991">
        <ele>144.4</ele>
        <time>2023-07-14T06:11:07Z</time>
      </trkpt>
      <trkpt lat="44.78223" lon="0.44991">
        <ele>144.3</ele>
        <time>2023-07-14T06:11:08Z</time>
      </trkpt>
      <trkpt lat="44.78219" lon="0.44989">
        <ele>144.1</ele>
        <time>2023-07-14T06:11:09Z</time>
      </trkpt>
      <trkpt lat="44.78213" lon="0.44984">
        <ele>144.2</ele>
        <time>2023-07-14T06:11:11Z</time>
      </trkpt>
      <trkpt lat="44.78208" lon="0.44978">
        <ele>144.4</ele>
        <time>2023-07-14T06:11:13Z</time>
      </trkpt>
      <trkpt lat="44.78207" lon="0.44975">
        <ele>144.5</ele>
        <time>2023-07-14T06:11:14Z</time>
      </trkpt>
      <trkpt lat="44.78207" lon="0.44972">
        <ele>144.6</ele>
        <time>2023-07-14T06:11:15Z</time>
      </trkpt>
      <trkpt lat="44.78209" lon="0.44964">
        <ele>144.8</ele>
        <time>2023-07-14T06:11:17Z</time>
      </trkpt>
      <trkpt lat="44.78211" lon="0.44957">
        <ele>145.1</ele>
        <time>2023-07-14T06:11:19Z</time>
      </trkpt>
      <trkpt lat="44.78213" lon="0.4495">
        <ele>145.3</ele>
        <time>2023-07-14T06:11:21Z</time>
      </trkpt>
      <trkpt lat="44.78217" lon="0.44944">
        <ele>145.6</ele>
        <time>2023-07-14T06:11:23Z</time>
      </trkpt>
      <trkpt lat="44.78219" lon="0.4494">
        <ele>145.7</ele>
        <time>2023-07-14T06:11:24Z</time>
      </trkpt>
      <trkpt lat="44.7822" lon="0.44937">
        <ele>145.9</ele>
        <time>2023-07-14T06:11:25Z</time>
      </trkpt>
      <trkpt lat="44.78222" lon="0.44929">
        <ele>146.2</ele>
        <time>2023-07-14T06:11:27Z</time>
      </trkpt>
      <trkpt lat="44.78223" lon="0.44925">
        <ele>146.3</ele>
        <time>2023-07-14T06:11:28Z</time>
      </trkpt>
      <trkpt lat="44.78225" lon="0.44922">
        <ele>146.4</ele>
        <time>2023-07-14T06:11:29Z</time>
      </trkpt>
      <trkpt lat="44.78226" lon="0.44918">
        <ele>146.5</ele>
        <time>2023-07-14T06:11:30Z</time>
      </trkpt>
      <trkpt lat="44.78227" lon="0.44915">
        <ele>146.7</ele>
        <time>2023-07-14T06:11:31Z</time>
      </trkpt>
      <trkpt lat="44.78229" lon="0.44908">
        <ele>146.9</ele>
        <time>2023-07-14T06:11:33Z</time>
      </trkpt>
      <trkpt lat="44.78231" lon="0.449">
        <ele>147.1</ele>
        <time>2023-07-14T06:11:35Z</time>
      </trkpt>
      <trkpt lat="44.78234" lon="0.44893">
        <ele>147.3</ele>
        <time>2023-07-14T06:11:37Z</time>
      </trkpt>
      <trkpt lat="44.78236" lon="0.44885">
        <ele>147.5</ele>
        <time>2023-07-14T06:11:39Z</time>
      </trkpt>
      <trkpt lat="44.78237" lon="0.44877">
        <ele>147.7</ele>
        <time>2023-07-14T06:11:41Z</time>
      </trkpt>
      <trkpt lat="44.7824" lon="0.4487">
        <ele>147.9</ele>
        <time>2023-07-14T06:11:43Z</time>
      </trkpt>
      <trkpt lat="44.78242" lon="0.44862">
        <ele>148.1</ele>
        <time>2023-07-14T06:11:45Z</time>
      </trkpt>
      <trkpt lat="44.78244" lon="0.44853">
        <ele>148.2</ele>
        <time>2023-07-14T06:11:47Z</time>
      </trkpt>
      <trkpt lat="44.78246" lon="0.44848">
        <ele>148.3</ele>
        <time>2023-07-14T06:11:48Z</time>
      </trkpt>
      <trkpt lat="44.78247" lon="0.44843">
        <ele>148.4</ele>
        <time>2023-07-14T06:11:49Z</time>
      </trkpt>
      <trkpt lat="44.7825" lon="0.44834">
        <ele>148.5</ele>
        <time>2023-07-14T06:11:51Z</time>
      </trkpt>
      <trkpt lat="44.78252" lon="0.44824">
        <ele>148.6</ele>
        <time>2023-07-14T06:11:53Z</time>
      </trkpt>
      <trkpt lat="44.78255" lon="0.44814">
        <ele>148.7</ele>
        <time>2023-07-14T06:11:55Z</time>
      </trkpt>
      <trkpt lat="44.7826" lon="0.44804">
        <ele>148.7</ele>
        <time>2023-07-14T06:11:57Z</time>
      </trkpt>
      <trkpt lat="44.78263" lon="0.44794">
        <ele>148.8</ele>
        <time>2023-07-14T06:11:59Z</time>
      </trkpt>
      <trkpt lat="44.78266" lon="0.44783">
        <ele>148.8</ele>
        <time>2023-07-14T06:12:01Z</time>
      </trkpt>
      <trkpt lat="44.78269" lon="0.44773">
        <ele>148.8</ele>
        <time>2023-07-14T06:12:03Z</time>
      </trkpt>
      <trkpt lat="44.78272" lon="0.44763">
        <ele>148.9</ele>
        <time>2023-07-14T06:12:05Z</time>
      </trkpt>
      <trkpt lat="44.78276" lon="0.44752">
        <ele>149.1</ele>
        <time>2023-07-14T06:12:07Z</time>
      </trkpt>
      <trkpt lat="44.78282" lon="0.44742">
        <ele>149.1</ele>
        <time>2023-07-14T06:12:09Z</time>
      </trkpt>
      <trkpt lat="44.78288" lon="0.44732">
        <ele>149.1</ele>
        <time>2023-07-14T06:12:11Z</time>
      </trkpt>
      <trkpt lat="44.78294" lon="0.44722">
        <ele>149.1</ele>
        <time>2023-07-14T06:12:13Z</time>
      </trkpt>
      <trkpt lat="44.78301" lon="0.44713">
        <ele>149.2</ele>
        <time>2023-07-14T06:12:15Z</time>
      </trkpt>
      <trkpt lat="44.78307" lon="0.44704">
        <ele>149.2</ele>
        <time>2023-07-14T06:12:17Z</time>
      </trkpt>
      <trkpt lat="44.7831" lon="0.447">
        <ele>149.3</ele>
        <time>2023-07-14T06:12:18Z</time>
      </trkpt>
      <trkpt lat="44.78314" lon="0.44695">
        <ele>149.3</ele>
        <time>2023-07-14T06:12:19Z</time>
      </trkpt>
      <trkpt lat="44.7832" lon="0.44686">
        <ele>149.4</ele>
        <time>2023-07-14T06:12:21Z</time>
      </trkpt>
      <trkpt lat="44.78327" lon="0.44677">
        <ele>149.5</ele>
        <time>2023-07-14T06:12:23Z</time>
      </trkpt>
      <trkpt lat="44.78334" lon="0.44668">
        <ele>149.6</ele>
        <time>2023-07-14T06:12:25Z</time>
      </trkpt>
      <trkpt lat="44.7834" lon="0.4466">
        <ele>149.7</ele>
        <time>2023-07-14T06:12:27Z</time>
      </trkpt>
      <trkpt lat="44.78347" lon="0.4465">
        <ele>149.7</ele>
        <time>2023-07-14T06:12:29Z</time>
      </trkpt>
      <trkpt lat="44.78353" lon="0.44642">
        <ele>149.9</ele>
        <time>2023-07-14T06:12:31Z</time>
      </trkpt>
      <trkpt lat="44.78356" lon="0.44638">
        <ele>149.9</ele>
        <time>2023-07-14T06:12:32Z</time>
      </trkpt>
      <trkpt lat="44.7836" lon="0.44635">
        <ele>150</ele>
        <time>2023-07-14T06:12:33Z</time>
      </trkpt>
      <trkpt lat="44.78364" lon="0.44633">
        <ele>150</ele>
        <time>2023-07-14T06:12:34Z</time>
      </trkpt>
      <trkpt lat="44.78368" lon="0.44633">
        <ele>150</ele>
        <time>2023-07-14T06:12:35Z</time>
      </trkpt>
      <trkpt lat="44.78373" lon="0.44633">
        <ele>150</ele>
        <time>2023-07-14T06:12:36Z</time>
      </trkpt>
      <trkpt lat="44.78378" lon="0.44635">
        <ele>150</ele>
        <time>2023-07-14T06:12:37Z</time>
      </trkpt>
      <trkpt lat="44.78383" lon="0.44637">
        <ele>149.9</ele>
        <time>2023-07-14T06:12:38Z</time>
      </trkpt>
      <trkpt lat="44.78387" lon="0.44638">
        <ele>149.8</ele>
        <time>2023-07-14T06:12:39Z</time>
      </trkpt>
      <trkpt lat="44.78398" lon="0.4464">
        <ele>149.6</ele>
        <time>2023-07-14T06:12:41Z</time>
      </trkpt>
      <trkpt lat="44.78409" lon="0.44642">
        <ele>149.3</ele>
        <time>2023-07-14T06:12:43Z</time>
      </trkpt>
      <trkpt lat="44.78421" lon="0.44645">
        <ele>148.9</ele>
        <time>2023-07-14T06:12:45Z</time>
      </trkpt>
      <trkpt lat="44.78433" lon="0.44647">
        <ele>148.6</ele>
        <time>2023-07-14T06:12:47Z</time>
      </trkpt>
      <trkpt lat="44.78445" lon="0.44649">
        <ele>148.2</ele>
        <time>2023-07-14T06:12:49Z</time>
      </trkpt>
      <trkpt lat="44.78457" lon="0.44651">
        <ele>147.9</ele>
        <time>2023-07-14T06:12:51Z</time>
      </trkpt>
      <trkpt lat="44.78469" lon="0.44653">
        <ele>147.5</ele>
        <time>2023-07-14T06:12:53Z</time>
      </trkpt>
      <trkpt lat="44.78475" lon="0.44653">
        <ele>147.3</ele>
        <time>2023-07-14T06:12:54Z</time>
      </trkpt>
      <trkpt lat="44.7848" lon="0.44653">
        <ele>147.1</ele>
        <time>2023-07-14T06:12:55Z</time>
      </trkpt>
      <trkpt lat="44.78492" lon="0.44654">
        <ele>146.6</ele>
        <time>2023-07-14T06:12:57Z</time>
      </trkpt>
      <trkpt lat="44.78504" lon="0.44655">
        <ele>146.2</ele>
        <time>2023-07-14T06:12:59Z</time>
      </trkpt>
      <trkpt lat="44.78516" lon="0.44656">
        <ele>145.9</ele>
        <time>2023-07-14T06:13:01Z</time>
      </trkpt>
      <trkpt lat="44.78526" lon="0.44657">
        <ele>145.5</ele>
        <time>2023-07-14T06:13:03Z</time>
      </trkpt>
      <trkpt lat="44.78536" lon="0.44656">
        <ele>145.1</ele>
        <time>2023-07-14T06:13:05Z</time>
      </trkpt>
      <trkpt lat="44.78543" lon="0.44655">
        <ele>144.7</ele>
        <time>2023-07-14T06:13:07Z</time>
      </trkpt>
      <trkpt lat="44.78547" lon="0.44655">
        <ele>144.5</ele>
        <time>2023-07-14T06:13:08Z</time>
      </trkpt>
      <trkpt lat="44.78551" lon="0.44654">
        <ele>144.3</ele>
        <time>2023-07-14T06:13:09Z</time>
      </trkpt>
      <trkpt lat="44.78561" lon="0.44654">
        <ele>143.9</ele>
        <time>2023-07-14T06:13:11Z</time>
      </trkpt>
      <trkpt lat="44.78572" lon="0.44654">
        <ele>143.5</ele>
        <time>2023-07-14T06:13:13Z</time>
      </trkpt>
      <trkpt lat="44.78584" lon="0.44652">
        <ele>143.1</ele>
        <time>2023-07-14T06:13:15Z</time>
      </trkpt>
      <trkpt lat="44.78593" lon="0.44644">
        <ele>142.6</ele>
        <time>2023-07-14T06:13:17Z</time>
      </trkpt>
      <trkpt lat="44.78601" lon="0.44633">
        <ele>142.2</ele>
        <time>2023-07-14T06:13:19Z</time>
      </trkpt>
      <trkpt lat="44.78611" lon="0.44623">
        <ele>141.7</ele>
        <time>2023-07-14T06:13:21Z</time>
      </trkpt>
      <trkpt lat="44.78622" lon="0.44612">
        <ele>141.2</ele>
        <time>2023-07-14T06:13:23Z</time>
      </trkpt>
      <trkpt lat="44.78633" lon="0.44603">
        <ele>140.7</ele>
        <time>2023-07-14T06:13:25Z</time>
      </trkpt>
      <trkpt lat="44.78639" lon="0.44599">
        <ele>140.4</ele>
        <time>2023-07-14T06:13:26Z</time>
      </trkpt>
      <trkpt lat="44.78645" lon="0.44595">
        <ele>140.2</ele>
        <time>2023-07-14T06:13:27Z</time>
      </trkpt>
      <trkpt lat="44.78657" lon="0.44586">
        <ele>139.7</ele>
        <time>2023-07-14T06:13:29Z</time>
      </trkpt>
      <trkpt lat="44.7867" lon="0.44579">
        <ele>139.3</ele>
        <time>2023-07-14T06:13:31Z</time>
      </trkpt>
      <trkpt lat="44.78676" lon="0.44575">
        <ele>139.2</ele>
        <time>2023-07-14T06:13:32Z</time>
      </trkpt>
      <trkpt lat="44.78681" lon="0.4457">
        <ele>139</ele>
        <time>2023-07-14T06:13:33Z</time>
      </trkpt>
      <trkpt lat="44.78685" lon="0.44565">
        <ele>138.9</ele>
        <time>2023-07-14T06:13:34Z</time>
      </trkpt>
      <trkpt lat="44.78688" lon="0.44559">
        <ele>138.8</ele>
        <time>2023-07-14T06:13:35Z</time>
      </trkpt>
      <trkpt lat="44.78691" lon="0.44552">
        <ele>138.6</ele>
        <time>2023-07-14T06:13:36Z</time>
      </trkpt>
      <trkpt lat="44.78694" lon="0.44544">
        <ele>138.4</ele>
        <time>2023-07-14T06:13:37Z</time>
      </trkpt>
      <trkpt lat="44.787" lon="0.44529">
        <ele>138.1</ele>
        <time>2023-07-14T06:13:39Z</time>
      </trkpt>
      <trkpt lat="44.78703" lon="0.44522">
        <ele>138</ele>
        <time>2023-07-14T06:13:40Z</time>
      </trkpt>
      <trkpt lat="44.78707" lon="0.44516">
        <ele>138</ele>
        <time>2023-07-14T06:13:41Z</time>
      </trkpt>
      <trkpt lat="44.78715" lon="0.44511">
        <ele>137.9</ele>
        <time>2023-07-14T06:13:43Z</time>
      </trkpt>
      <trkpt lat="44.78723" lon="0.44515">
        <ele>137.8</ele>
        <time>2023-07-14T06:13:45Z</time>
      </trkpt>
      <trkpt lat="44.78731" lon="0.44519">
        <ele>137.8</ele>
        <time>2023-07-14T06:13:47Z</time>
      </trkpt>
      <trkpt lat="44.78739" lon="0.44522">
        <ele>137.8</ele>
        <time>2023-07-14T06:13:49Z</time>
      </trkpt>
      <trkpt lat="44.78746" lon="0.44524">
        <ele>137.8</ele>
        <time>2023-07-14T06:13:51Z</time>
      </trkpt>
      <trkpt lat="44.78752" lon="0.4452">
        <ele>137.8</ele>
        <time>2023-07-14T06:13:53Z</time>
      </trkpt>
      <trkpt lat="44.78757" lon="0.44512">
        <ele>137.7</ele>
        <time>2023-07-14T06:13:55Z</time>
      </trkpt>
      <trkpt lat="44.78762" lon="0.44502">
        <ele>137.5</ele>
        <time>2023-07-14T06:13:57Z</time>
      </trkpt>
      <trkpt lat="44.78764" lon="0.44497">
        <ele>137.3</ele>
        <time>2023-07-14T06:13:58Z</time>
      </trkpt>
      <trkpt lat="44.78766" lon="0.44493">
        <ele>137.1</ele>
        <time>2023-07-14T06:13:59Z</time>
      </trkpt>
      <trkpt lat="44.78767" lon="0.44488">
        <ele>137</ele>
        <time>2023-07-14T06:14:00Z</time>
      </trkpt>
      <trkpt lat="44.78767" lon="0.44485">
        <ele>136.9</ele>
        <time>2023-07-14T06:14:01Z</time>
      </trkpt>
      <trkpt lat="44.78766" lon="0.44482">
        <ele>136.7</ele>
        <time>2023-07-14T06:14:02Z</time>
      </trkpt>
      <trkpt lat="44.78764" lon="0.44479">
        <ele>136.6</ele>
        <time>2023-07-14T06:14:03Z</time>
      </trkpt>
      <trkpt lat="44.78762" lon="0.44472">
        <ele>136.3</ele>
        <time>2023-07-14T06:14:05Z</time>
      </trkpt>
      <trkpt lat="44.78759" lon="0.44464">
        <ele>136</ele>
        <time>2023-07-14T06:14:07Z</time>
      </trkpt>
      <trkpt lat="44.78756" lon="0.44455">
        <ele>135.6</ele>
        <time>2023-07-14T06:14:09Z</time>
      </trkpt>
      <trkpt lat="44.78756" lon="0.4445">
        <ele>135.6</ele>
        <time>2023-07-14T06:14:10Z</time>
      </trkpt>
      <trkpt lat="44.78758" lon="0.44445">
        <ele>135.5</ele>
        <time>2023-07-14T06:14:11Z</time>
      </trkpt>
      <trkpt lat="44.78761" lon="0.44443">
        <ele>135.5</ele>
        <time>2023-07-14T06:14:12Z</time>
      </trkpt>
      <trkpt lat="44.78765" lon="0.44441">
        <ele>135.4</ele>
        <time>2023-07-14T06:14:13Z</time>
      </trkpt>
      <trkpt lat="44.78774" lon="0.44437">
        <ele>135.4</ele>
        <time>2023-07-14T06:14:15Z</time>
      </trkpt>
      <trkpt lat="44.78783" lon="0.44433">
        <ele>135.4</ele>
        <time>2023-07-14T06:14:17Z</time>
      </trkpt>
      <trkpt lat="44.78788" lon="0.44431">
        <ele>135.4</ele>
        <time>2023-07-14T06:14:18Z</time>
      </trkpt>
      <trkpt lat="44.78793" lon="0.4443">
        <ele>135.3</ele>
        <time>2023-07-14T06:14:19Z</time>
      </trkpt>
      <trkpt lat="44.78798" lon="0.44431">
        <ele>135.3</ele>
        <time>2023-07-14T06:14:20Z</time>
      </trkpt>
      <trkpt lat="44.78803" lon="0.44432">
        <ele>135.3</ele>
        <time>2023-07-14T06:14:21Z</time>
      </trkpt>
      <trkpt lat="44.78807" lon="0.44434">
        <ele>135.3</ele>
        <time>2023-07-14T06:14:22Z</time>
      </trkpt>
      <trkpt lat="44.78812" lon="0.44436">
        <ele>135.3</ele>
        <time>2023-07-14T06:14:23Z</time>
      </trkpt>
      <trkpt lat="44.78816" lon="0.44438">
        <ele>135.3</ele>
        <time>2023-07-14T06:14:24Z</time>
      </trkpt>
      <trkpt lat="44.78821" lon="0.44441">
        <ele>135.3</ele>
        <time>2023-07-14T06:14:25Z</time>
      </trkpt>
      <trkpt lat="44.7883" lon="0.44448">
        <ele>135.4</ele>
        <time>2023-07-14T06:14:27Z</time>
      </trkpt>
      <trkpt lat="44.78839" lon="0.44454">
        <ele>135.5</ele>
        <time>2023-07-14T06:14:29Z</time>
      </trkpt>
      <trkpt lat="44.78846" lon="0.44455">
        <ele>135.6</ele>
        <time>2023-07-14T06:14:31Z</time>
      </trkpt>
      <trkpt lat="44.78852" lon="0.4445">
        <ele>135.6</ele>
        <time>2023-07-14T06:14:33Z</time>
      </trkpt>
      <trkpt lat="44.78858" lon="0.44445">
        <ele>135.6</ele>
        <time>2023-07-14T06:14:35Z</time>
      </trkpt>
      <trkpt lat="44.78862" lon="0.44442">
        <ele>135.6</ele>
        <time>2023-07-14T06:14:36Z</time>
      </trkpt>
      <trkpt lat="44.78866" lon="0.4444">
        <ele>135.7</ele>
        <time>2023-07-14T06:14:37Z</time>
      </trkpt>
      <trkpt lat="44.7887" lon="0.44439">
        <ele>135.8</ele>
        <time>2023-07-14T06:14:38Z</time>
      </trkpt>
      <trkpt lat="44.78875" lon="0.44439">
        <ele>135.8</ele>
        <time>2023-07-14T06:14:39Z</time>
      </trkpt>
      <trkpt lat="44.78879" lon="0.44439">
        <ele>135.9</ele>
        <time>2023-07-14T06:14:40Z</time>
      </trkpt>
      <trkpt lat="44.78884" lon="0.4444">
        <ele>136</ele>
        <time>2023-07-14T06:14:41Z</time>
      </trkpt>
      <trkpt lat="44.78892" lon="0.44441">
        <ele>136.2</ele>
        <time>2023-07-14T06:14:43Z</time>
      </trkpt>
      <trkpt lat="44.78901" lon="0.44442">
        <ele>136.5</ele>
        <time>2023-07-14T06:14:45Z</time>
      </trkpt>
      <trkpt lat="44.78905" lon="0.44443">
        <ele>136.6</ele>
        <time>2023-07-14T06:14:46Z</time>
      </trkpt>
      <trkpt lat="44.78909" lon="0.44444">
        <ele>136.8</ele>
        <time>2023-07-14T06:14:47Z</time>
      </trkpt>
      <trkpt lat="44.78919" lon="0.44446">
        <ele>137.2</ele>
        <time>2023-07-14T06:14:49Z</time>
      </trkpt>
      <trkpt lat="44.78928" lon="0.44447">
        <ele>137.5</ele>
        <time>2023-07-14T06:14:51Z</time>
      </trkpt>
      <trkpt lat="44.78938" lon="0.4445">
        <ele>137.9</ele>
        <time>2023-07-14T06:14:53Z</time>
      </trkpt>
      <trkpt lat="44.78943" lon="0.44451">
        <ele>138.1</ele>
        <time>2023-07-14T06:14:54Z</time>
      </trkpt>
      <trkpt lat="44.78948" lon="0.44451">
        <ele>138.3</ele>
        <time>2023-07-14T06:14:55Z</time>
      </trkpt>
      <trkpt lat="44.78952" lon="0.44449">
        <ele>138.5</ele>
        <time>2023-07-14T06:14:56Z</time>
      </trkpt>
      <trkpt lat="44.78955" lon="0.44445">
        <ele>138.7</ele>
        <time>2023-07-14T06:14:57Z</time>
      </trkpt>
      <trkpt lat="44.78959" lon="0.4444">
        <ele>138.9</ele>
        <time>2023-07-14T06:14:58Z</time>
      </trkpt>
      <trkpt lat="44.78963" lon="0.44437">
        <ele>138.9</ele>
        <time>2023-07-14T06:14:59Z</time>
      </trkpt>
      <trkpt lat="44.78967" lon="0.44434">
        <ele>138.9</ele>
        <time>2023-07-14T06:15:00Z</time>
      </trkpt>
      <trkpt lat="44.78972" lon="0.44433">
        <ele>138.9</ele>
        <time>2023-07-14T06:15:01Z</time>
      </trkpt>
      <trkpt lat="44.78982" lon="0.44432">
        <ele>139</ele>
        <time>2023-07-14T06:15:03Z</time>
      </trkpt>
      <trkpt lat="44.78991" lon="0.4443">
        <ele>139</ele>
        <time>2023-07-14T06:15:05Z</time>
      </trkpt>
      <trkpt lat="44.79001" lon="0.44429">
        <ele>139</ele>
        <time>2023-07-14T06:15:07Z</time>
      </trkpt>
      <trkpt lat="44.79011" lon="0.44429">
        <ele>139</ele>
        <time>2023-07-14T06:15:09Z</time>
      </trkpt>
      <trkpt lat="44.79015" lon="0.44429">
        <ele>139</ele>
        <time>2023-07-14T06:15:10Z</time>
      </trkpt>
      <trkpt lat="44.7902" lon="0.44429">
        <ele>138.9</ele>
        <time>2023-07-14T06:15:11Z</time>
      </trkpt>
      <trkpt lat="44.7903" lon="0.4443">
        <ele>138.9</ele>
        <time>2023-07-14T06:15:13Z</time>
      </trkpt>
      <trkpt lat="44.79041" lon="0.44432">
        <ele>138.9</ele>
        <time>2023-07-14T06:15:15Z</time>
      </trkpt>
      <trkpt lat="44.79051" lon="0.44433">
        <ele>138.8</ele>
        <time>2023-07-14T06:15:17Z</time>
      </trkpt>
      <trkpt lat="44.79056" lon="0.44434">
        <ele>138.7</ele>
        <time>2023-07-14T06:15:18Z</time>
      </trkpt>
      <trkpt lat="44.79061" lon="0.44434">
        <ele>138.7</ele>
        <time>2023-07-14T06:15:19Z</time>
      </trkpt>
      <trkpt lat="44.79071" lon="0.44435">
        <ele>138.6</ele>
        <time>2023-07-14T06:15:21Z</time>
      </trkpt>
      <trkpt lat="44.79081" lon="0.44434">
        <ele>138.5</ele>
        <time>2023-07-14T06:15:23Z</time>
      </trkpt>
      <trkpt lat="44.79085" lon="0.44434">
        <ele>138.5</ele>
        <time>2023-07-14T06:15:24Z</time>
      </trkpt>
      <trkpt lat="44.79089" lon="0.44432">
        <ele>138.5</ele>
        <time>2023-07-14T06:15:25Z</time>
      </trkpt>
      <trkpt lat="44.79092" lon="0.44427">
        <ele>138.5</ele>
        <time>2023-07-14T06:15:26Z</time>
      </trkpt>
      <trkpt lat="44.79095" lon="0.44421">
        <ele>139</ele>
        <time>2023-07-14T06:15:27Z</time>
      </trkpt>
      <trkpt lat="44.79098" lon="0.44414">
        <ele>139.2</ele>
        <time>2023-07-14T06:15:28Z</time>
      </trkpt>
      <trkpt lat="44.79099" lon="0.44406">
        <ele>139.7</ele>
        <time>2023-07-14T06:15:29Z</time>
      </trkpt>
      <trkpt lat="44.79101" lon="0.4439">
        <ele>140.5</ele>
        <time>2023-07-14T06:15:31Z</time>
      </trkpt>
      <trkpt lat="44.79103" lon="0.44372">
        <ele>140.9</ele>
        <time>2023-07-14T06:15:33Z</time>
      </trkpt>
      <trkpt lat="44.79106" lon="0.44354">
        <ele>140.7</ele>
        <time>2023-07-14T06:15:35Z</time>
      </trkpt>
      <trkpt lat="44.79109" lon="0.44347">
        <ele>140.3</ele>
        <time>2023-07-14T06:15:36Z</time>
      </trkpt>
      <trkpt lat="44.79114" lon="0.44342">
        <ele>139.9</ele>
        <time>2023-07-14T06:15:37Z</time>
      </trkpt>
      <trkpt lat="44.79124" lon="0.44332">
        <ele>139.2</ele>
        <time>2023-07-14T06:15:39Z</time>
      </trkpt>
      <trkpt lat="44.79127" lon="0.44317">
        <ele>138.6</ele>
        <time>2023-07-14T06:15:41Z</time>
      </trkpt>
      <trkpt lat="44.79127" lon="0.44309">
        <ele>138.4</ele>
        <time>2023-07-14T06:15:42Z</time>
      </trkpt>
      <trkpt lat="44.79128" lon="0.44301">
        <ele>138.1</ele>
        <time>2023-07-14T06:15:43Z</time>
      </trkpt>
      <trkpt lat="44.79129" lon="0.44287">
        <ele>137.7</ele>
        <time>2023-07-14T06:15:45Z</time>
      </trkpt>
      <trkpt lat="44.79129" lon="0.4428">
        <ele>137.6</ele>
        <time>2023-07-14T06:15:46Z</time>
      </trkpt>
      <trkpt lat="44.7913" lon="0.44274">
        <ele>137.5</ele>
        <time>2023-07-14T06:15:47Z</time>
      </trkpt>
      <trkpt lat="44.79132" lon="0.44261">
        <ele>137</ele>
        <time>2023-07-14T06:15:49Z</time>
      </trkpt>
      <trkpt lat="44.79135" lon="0.44246">
        <ele>136.3</ele>
        <time>2023-07-14T06:15:51Z</time>
      </trkpt>
      <trkpt lat="44.79135" lon="0.44238">
        <ele>136</ele>
        <time>2023-07-14T06:15:52Z</time>
      </trkpt>
      <trkpt lat="44.79136" lon="0.4423">
        <ele>135.8</ele>
        <time>2023-07-14T06:15:53Z</time>
      </trkpt>
      <trkpt lat="44.79137" lon="0.44222">
        <ele>135.1</ele>
        <time>2023-07-14T06:15:54Z</time>
      </trkpt>
      <trkpt lat="44.7914" lon="0.44213">
        <ele>134.8</ele>
        <time>2023-07-14T06:15:55Z</time>
      </trkpt>
      <trkpt lat="44.79142" lon="0.44205">
        <ele>134.1</ele>
        <time>2023-07-14T06:15:56Z</time>
      </trkpt>
      <trkpt lat="44.79143" lon="0.44197">
        <ele>133.4</ele>
        <time>2023-07-14T06:15:57Z</time>
      </trkpt>
      <trkpt lat="44.79143" lon="0.44184">
        <ele>133</ele>
        <time>2023-07-14T06:15:59Z</time>
      </trkpt>
      <trkpt lat="44.79145" lon="0.4418">
        <ele>132.8</ele>
        <time>2023-07-14T06:16:00Z</time>
      </trkpt>
      <trkpt lat="44.79147" lon="0.44178">
        <ele>132.5</ele>
        <time>2023-07-14T06:16:01Z</time>
      </trkpt>
      <trkpt lat="44.7915" lon="0.44175">
        <ele>132</ele>
        <time>2023-07-14T06:16:02Z</time>
      </trkpt>
      <trkpt lat="44.79152" lon="0.4417">
        <ele>131.5</ele>
        <time>2023-07-14T06:16:03Z</time>
      </trkpt>
      <trkpt lat="44.79159" lon="0.4416">
        <ele>130.3</ele>
        <time>2023-07-14T06:16:05Z</time>
      </trkpt>
      <trkpt lat="44.79162" lon="0.44151">
        <ele>129.6</ele>
        <time>2023-07-14T06:16:07Z</time>
      </trkpt>
      <trkpt lat="44.79161" lon="0.44146">
        <ele>129.9</ele>
        <time>2023-07-14T06:16:08Z</time>
      </trkpt>
      <trkpt lat="44.79159" lon="0.44143">
        <ele>129.9</ele>
        <time>2023-07-14T06:16:09Z</time>
      </trkpt>
      <trkpt lat="44.79153" lon="0.44142">
        <ele>130.6</ele>
        <time>2023-07-14T06:16:11Z</time>
      </trkpt>
      <trkpt lat="44.79148" lon="0.44142">
        <ele>131.3</ele>
        <time>2023-07-14T06:16:13Z</time>
      </trkpt>
      <trkpt lat="44.79142" lon="0.44141">
        <ele>132</ele>
        <time>2023-07-14T06:16:15Z</time>
      </trkpt>
      <trkpt lat="44.79139" lon="0.44141">
        <ele>132.3</ele>
        <time>2023-07-14T06:16:16Z</time>
      </trkpt>
      <trkpt lat="44.79136" lon="0.44142">
        <ele>132.6</ele>
        <time>2023-07-14T06:16:17Z</time>
      </trkpt>
      <trkpt lat="44.79131" lon="0.44146">
        <ele>133.1</ele>
        <time>2023-07-14T06:16:19Z</time>
      </trkpt>
      <trkpt lat="44.79125" lon="0.44144">
        <ele>133.6</ele>
        <time>2023-07-14T06:16:21Z</time>
      </trkpt>
      <trkpt lat="44.79122" lon="0.44143">
        <ele>133.8</ele>
        <time>2023-07-14T06:16:22Z</time>
      </trkpt>
      <trkpt lat="44.79119" lon="0.44143">
        <ele>134.2</ele>
        <time>2023-07-14T06:16:23Z</time>
      </trkpt>
      <trkpt lat="44.79115" lon="0.44146">
        <ele>134.8</ele>
        <time>2023-07-14T06:16:25Z</time>
      </trkpt>
      <trkpt lat="44.79105" lon="0.44146">
        <ele>135.6</ele>
        <time>2023-07-14T06:16:27Z</time>
      </trkpt>
      <trkpt lat="44.791" lon="0.44147">
        <ele>136.1</ele>
        <time>2023-07-14T06:16:28Z</time>
      </trkpt>
      <trkpt lat="44.79096" lon="0.44148">
        <ele>136.4</ele>
        <time>2023-07-14T06:16:29Z</time>
      </trkpt>
      <trkpt lat="44.79087" lon="0.44148">
        <ele>136.7</ele>
        <time>2023-07-14T06:16:31Z</time>
      </trkpt>
      <trkpt lat="44.79083" lon="0.44148">
        <ele>136.8</ele>
        <time>2023-07-14T06:16:32Z</time>
      </trkpt>
      <trkpt lat="44.7908" lon="0.44148">
        <ele>136.8</ele>
        <time>2023-07-14T06:16:33Z</time>
      </trkpt>
      <trkpt lat="44.79078" lon="0.44148">
        <ele>136.8</ele>
        <time>2023-07-14T06:16:34Z</time>
      </trkpt>
      <trkpt lat="44.79075" lon="0.44148">
        <ele>136.8</ele>
        <time>2023-07-14T06:16:35Z</time>
      </trkpt>
      <trkpt lat="44.79072" lon="0.44148">
        <ele>136.7</ele>
        <time>2023-07-14T06:16:36Z</time>
      </trkpt>
      <trkpt lat="44.79068" lon="0.4415">
        <ele>136.6</ele>
        <time>2023-07-14T06:16:37Z</time>
      </trkpt>
      <trkpt lat="44.79061" lon="0.44153">
        <ele>136.5</ele>
        <time>2023-07-14T06:16:39Z</time>
      </trkpt>
      <trkpt lat="44.79053" lon="0.44154">
        <ele>136.3</ele>
        <time>2023-07-14T06:16:41Z</time>
      </trkpt>
      <trkpt lat="44.79049" lon="0.44156">
        <ele>136.3</ele>
        <time>2023-07-14T06:16:43Z</time>
      </trkpt>
      <trkpt lat="44.79043" lon="0.44156">
        <ele>136.1</ele>
        <time>2023-07-14T06:16:45Z</time>
      </trkpt>
      <trkpt lat="44.79041" lon="0.44156">
        <ele>136</ele>
        <time>2023-07-14T06:16:46Z</time>
      </trkpt>
      <trkpt lat="44.79039" lon="0.44155">
        <ele>135.7</ele>
        <time>2023-07-14T06:16:47Z</time>
      </trkpt>
      <trkpt lat="44.79034" lon="0.44155">
        <ele>135.6</ele>
        <time>2023-07-14T06:16:49Z</time>
      </trkpt>
      <trkpt lat="44.79033" lon="0.44155">
        <ele>135.4</ele>
        <time>2023-07-14T06:16:50Z</time>
      </trkpt>
      <trkpt lat="44.79028" lon="0.44155">
        <ele>135.3</ele>
        <time>2023-07-14T06:17:04Z</time>
      </trkpt>
      <trkpt lat="44.79025" lon="0.44155">
        <ele>135.2</ele>
        <time>2023-07-14T06:17:05Z</time>
      </trkpt>
      <trkpt lat="44.79023" lon="0.44154">
        <ele>135</ele>
        <time>2023-07-14T06:17:06Z</time>
      </trkpt>
      <trkpt lat="44.7902" lon="0.44151">
        <ele>134.8</ele>
        <time>2023-07-14T06:17:07Z</time>
      </trkpt>
      <trkpt lat="44.79017" lon="0.44149">
        <ele>134.7</ele>
        <time>2023-07-14T06:17:08Z</time>
      </trkpt>
      <trkpt lat="44.79014" lon="0.44148">
        <ele>134.6</ele>
        <time>2023-07-14T06:17:09Z</time>
      </trkpt>
      <trkpt lat="44.79008" lon="0.44146">
        <ele>134.3</ele>
        <time>2023-07-14T06:17:11Z</time>
      </trkpt>
      <trkpt lat="44.79006" lon="0.44143">
        <ele>134.2</ele>
        <time>2023-07-14T06:17:12Z</time>
      </trkpt>
      <trkpt lat="44.79004" lon="0.44139">
        <ele>134.1</ele>
        <time>2023-07-14T06:17:13Z</time>
      </trkpt>
      <trkpt lat="44.78998" lon="0.44133">
        <ele>133.7</ele>
        <time>2023-07-14T06:17:15Z</time>
      </trkpt>
      <trkpt lat="44.78991" lon="0.44128">
        <ele>133.4</ele>
        <time>2023-07-14T06:17:17Z</time>
      </trkpt>
      <trkpt lat="44.78988" lon="0.44126">
        <ele>133.4</ele>
        <time>2023-07-14T06:17:18Z</time>
      </trkpt>
      <trkpt lat="44.78985" lon="0.44125">
        <ele>133.2</ele>
        <time>2023-07-14T06:17:19Z</time>
      </trkpt>
      <trkpt lat="44.78978" lon="0.44123">
        <ele>132.8</ele>
        <time>2023-07-14T06:17:21Z</time>
      </trkpt>
      <trkpt lat="44.78973" lon="0.44118">
        <ele>132.6</ele>
        <time>2023-07-14T06:17:22Z</time>
      </trkpt>
      <trkpt lat="44.78968" lon="0.44113">
        <ele>132.2</ele>
        <time>2023-07-14T06:17:23Z</time>
      </trkpt>
      <trkpt lat="44.78962" lon="0.44108">
        <ele>131.7</ele>
        <time>2023-07-14T06:17:24Z</time>
      </trkpt>
      <trkpt lat="44.78957" lon="0.44103">
        <ele>131.4</ele>
        <time>2023-07-14T06:17:25Z</time>
      </trkpt>
      <trkpt lat="44.78951" lon="0.44099">
        <ele>131</ele>
        <time>2023-07-14T06:17:26Z</time>
      </trkpt>
      <trkpt lat="44.78946" lon="0.44095">
        <ele>130.7</ele>
        <time>2023-07-14T06:17:27Z</time>
      </trkpt>
      <trkpt lat="44.78936" lon="0.44086">
        <ele>129.7</ele>
        <time>2023-07-14T06:17:29Z</time>
      </trkpt>
      <trkpt lat="44.78928" lon="0.44074">
        <ele>129</ele>
        <time>2023-07-14T06:17:31Z</time>
      </trkpt>
      <trkpt lat="44.78925" lon="0.44068">
        <ele>128.5</ele>
        <time>2023-07-14T06:17:32Z</time>
      </trkpt>
      <trkpt lat="44.78923" lon="0.44062">
        <ele>128.1</ele>
        <time>2023-07-14T06:17:33Z</time>
      </trkpt>
      <trkpt lat="44.78917" lon="0.44048">
        <ele>126.2</ele>
        <time>2023-07-14T06:17:35Z</time>
      </trkpt>
      <trkpt lat="44.78916" lon="0.44044">
        <ele>126.2</ele>
        <time>2023-07-14T06:17:36Z</time>
      </trkpt>
      <trkpt lat="44.78915" lon="0.44039">
        <ele>125.5</ele>
        <time>2023-07-14T06:17:37Z</time>
      </trkpt>
      <trkpt lat="44.78915" lon="0.44035">
        <ele>125.2</ele>
        <time>2023-07-14T06:17:38Z</time>
      </trkpt>
      <trkpt lat="44.78917" lon="0.44032">
        <ele>125.2</ele>
        <time>2023-07-14T06:17:39Z</time>
      </trkpt>
      <trkpt lat="44.78922" lon="0.44024">
        <ele>125.3</ele>
        <time>2023-07-14T06:17:41Z</time>
      </trkpt>
      <trkpt lat="44.78926" lon="0.44014">
        <ele>124.7</ele>
        <time>2023-07-14T06:17:43Z</time>
      </trkpt>
      <trkpt lat="44.78928" lon="0.44012">
        <ele>125.1</ele>
        <time>2023-07-14T06:17:44Z</time>
      </trkpt>
      <trkpt lat="44.7893" lon="0.44012">
        <ele>125.4</ele>
        <time>2023-07-14T06:17:45Z</time>
      </trkpt>
      <trkpt lat="44.78932" lon="0.44012">
        <ele>125.4</ele>
        <time>2023-07-14T06:17:46Z</time>
      </trkpt>
      <trkpt lat="44.78934" lon="0.44009">
        <ele>125.5</ele>
        <time>2023-07-14T06:17:47Z</time>
      </trkpt>
      <trkpt lat="44.78936" lon="0.44008">
        <ele>125.5</ele>
        <time>2023-07-14T06:17:48Z</time>
      </trkpt>
      <trkpt lat="44.78938" lon="0.44008">
        <ele>125.8</ele>
        <time>2023-07-14T06:17:49Z</time>
      </trkpt>
      <trkpt lat="44.7894" lon="0.44006">
        <ele>126.1</ele>
        <time>2023-07-14T06:17:51Z</time>
      </trkpt>
      <trkpt lat="44.78942" lon="0.44006">
        <ele>126.1</ele>
        <time>2023-07-14T06:17:52Z</time>
      </trkpt>
      <trkpt lat="44.78945" lon="0.44005">
        <ele>126.3</ele>
        <time>2023-07-14T06:17:53Z</time>
      </trkpt>
      <trkpt lat="44.78955" lon="0.44004">
        <ele>126.9</ele>
        <time>2023-07-14T06:17:55Z</time>
      </trkpt>
      <trkpt lat="44.78963" lon="0.44001">
        <ele>126.9</ele>
        <time>2023-07-14T06:17:57Z</time>
      </trkpt>
      <trkpt lat="44.7897" lon="0.43999">
        <ele>127.3</ele>
        <time>2023-07-14T06:17:59Z</time>
      </trkpt>
      <trkpt lat="44.78977" lon="0.43995">
        <ele>127.2</ele>
        <time>2023-07-14T06:18:01Z</time>
      </trkpt>
      <trkpt lat="44.78981" lon="0.43993">
        <ele>127.3</ele>
        <time>2023-07-14T06:18:02Z</time>
      </trkpt>
      <trkpt lat="44.78985" lon="0.43993">
        <ele>127.3</ele>
        <time>2023-07-14T06:18:03Z</time>
      </trkpt>
      <trkpt lat="44.78992" lon="0.43993">
        <ele>127.1</ele>
        <time>2023-07-14T06:18:05Z</time>
      </trkpt>
      <trkpt lat="44.79001" lon="0.43991">
        <ele>126.5</ele>
        <time>2023-07-14T06:18:07Z</time>
      </trkpt>
      <trkpt lat="44.79009" lon="0.43991">
        <ele>126.2</ele>
        <time>2023-07-14T06:18:09Z</time>
      </trkpt>
      <trkpt lat="44.79013" lon="0.4399">
        <ele>125.9</ele>
        <time>2023-07-14T06:18:10Z</time>
      </trkpt>
      <trkpt lat="44.79019" lon="0.4399">
        <ele>125.6</ele>
        <time>2023-07-14T06:18:11Z</time>
      </trkpt>
      <trkpt lat="44.79028" lon="0.43991">
        <ele>125.2</ele>
        <time>2023-07-14T06:18:13Z</time>
      </trkpt>
      <trkpt lat="44.79032" lon="0.43989">
        <ele>125.1</ele>
        <time>2023-07-14T06:18:15Z</time>
      </trkpt>
      <trkpt lat="44.79038" lon="0.43987">
        <ele>124.6</ele>
        <time>2023-07-14T06:18:17Z</time>
      </trkpt>
      <trkpt lat="44.79042" lon="0.43983">
        <ele>124.2</ele>
        <time>2023-07-14T06:18:19Z</time>
      </trkpt>
      <trkpt lat="44.79041" lon="0.43978">
        <ele>124</ele>
        <time>2023-07-14T06:18:21Z</time>
      </trkpt>
      <trkpt lat="44.79038" lon="0.43973">
        <ele>123.9</ele>
        <time>2023-07-14T06:18:23Z</time>
      </trkpt>
      <trkpt lat="44.79034" lon="0.43969">
        <ele>123.8</ele>
        <time>2023-07-14T06:18:25Z</time>
      </trkpt>
      <trkpt lat="44.79031" lon="0.43968">
        <ele>123.9</ele>
        <time>2023-07-14T06:18:26Z</time>
      </trkpt>
      <trkpt lat="44.79027" lon="0.43967">
        <ele>124.1</ele>
        <time>2023-07-14T06:18:27Z</time>
      </trkpt>
      <trkpt lat="44.7902" lon="0.43967">
        <ele>124.4</ele>
        <time>2023-07-14T06:18:29Z</time>
      </trkpt>
      <trkpt lat="44.79011" lon="0.43966">
        <ele>124.7</ele>
        <time>2023-07-14T06:18:31Z</time>
      </trkpt>
      <trkpt lat="44.79003" lon="0.43967">
        <ele>125</ele>
        <time>2023-07-14T06:18:33Z</time>
      </trkpt>
      <trkpt lat="44.78996" lon="0.43961">
        <ele>125.1</ele>
        <time>2023-07-14T06:18:35Z</time>
      </trkpt>
      <trkpt lat="44.78988" lon="0.43962">
        <ele>125.3</ele>
        <time>2023-07-14T06:18:37Z</time>
      </trkpt>
      <trkpt lat="44.78978" lon="0.43966">
        <ele>125.6</ele>
        <time>2023-07-14T06:18:39Z</time>
      </trkpt>
      <trkpt lat="44.7897" lon="0.43969">
        <ele>125.7</ele>
        <time>2023-07-14T06:18:41Z</time>
      </trkpt>
      <trkpt lat="44.78964" lon="0.43967">
        <ele>125.5</ele>
        <time>2023-07-14T06:18:42Z</time>
      </trkpt>
      <trkpt lat="44.7896" lon="0.43964">
        <ele>125</ele>
        <time>2023-07-14T06:18:43Z</time>
      </trkpt>
      <trkpt lat="44.78951" lon="0.43957">
        <ele>124.1</ele>
        <time>2023-07-14T06:18:45Z</time>
      </trkpt>
      <trkpt lat="44.78945" lon="0.43949">
        <ele>122.7</ele>
        <time>2023-07-14T06:18:47Z</time>
      </trkpt>
      <trkpt lat="44.78942" lon="0.43944">
        <ele>121.9</ele>
        <time>2023-07-14T06:18:48Z</time>
      </trkpt>
      <trkpt lat="44.78936" lon="0.4394">
        <ele>120.8</ele>
        <time>2023-07-14T06:18:49Z</time>
      </trkpt>
      <trkpt lat="44.78929" lon="0.43936">
        <ele>119.8</ele>
        <time>2023-07-14T06:18:50Z</time>
      </trkpt>
      <trkpt lat="44.78923" lon="0.43931">
        <ele>118.7</ele>
        <time>2023-07-14T06:18:51Z</time>
      </trkpt>
      <trkpt lat="44.78911" lon="0.43921">
        <ele>116.2</ele>
        <time>2023-07-14T06:18:53Z</time>
      </trkpt>
      <trkpt lat="44.78899" lon="0.43917">
        <ele>113.9</ele>
        <time>2023-07-14T06:18:55Z</time>
      </trkpt>
      <trkpt lat="44.78887" lon="0.43917">
        <ele>112.1</ele>
        <time>2023-07-14T06:18:57Z</time>
      </trkpt>
      <trkpt lat="44.78882" lon="0.43914">
        <ele>110.8</ele>
        <time>2023-07-14T06:18:58Z</time>
      </trkpt>
      <trkpt lat="44.78877" lon="0.43909">
        <ele>109.8</ele>
        <time>2023-07-14T06:18:59Z</time>
      </trkpt>
      <trkpt lat="44.78869" lon="0.43894">
        <ele>109.3</ele>
        <time>2023-07-14T06:19:01Z</time>
      </trkpt>
      <trkpt lat="44.78862" lon="0.43878">
        <ele>108.8</ele>
        <time>2023-07-14T06:19:03Z</time>
      </trkpt>
      <trkpt lat="44.78855" lon="0.43863">
        <ele>109.2</ele>
        <time>2023-07-14T06:19:05Z</time>
      </trkpt>
      <trkpt lat="44.78849" lon="0.43848">
        <ele>109.4</ele>
        <time>2023-07-14T06:19:07Z</time>
      </trkpt>
      <trkpt lat="44.78843" lon="0.43833">
        <ele>109.6</ele>
        <time>2023-07-14T06:19:09Z</time>
      </trkpt>
      <trkpt lat="44.7884" lon="0.43826">
        <ele>109.6</ele>
        <time>2023-07-14T06:19:10Z</time>
      </trkpt>
      <trkpt lat="44.78835" lon="0.43822">
        <ele>109.4</ele>
        <time>2023-07-14T06:19:11Z</time>
      </trkpt>
      <trkpt lat="44.78829" lon="0.4382">
        <ele>109.2</ele>
        <time>2023-07-14T06:19:12Z</time>
      </trkpt>
      <trkpt lat="44.78824" lon="0.43821">
        <ele>109.1</ele>
        <time>2023-07-14T06:19:13Z</time>
      </trkpt>
      <trkpt lat="44.78819" lon="0.4382">
        <ele>108.9</ele>
        <time>2023-07-14T06:19:14Z</time>
      </trkpt>
      <trkpt lat="44.78814" lon="0.43818">
        <ele>108.7</ele>
        <time>2023-07-14T06:19:15Z</time>
      </trkpt>
      <trkpt lat="44.78809" lon="0.43817">
        <ele>108.7</ele>
        <time>2023-07-14T06:19:16Z</time>
      </trkpt>
      <trkpt lat="44.78803" lon="0.43817">
        <ele>108.7</ele>
        <time>2023-07-14T06:19:17Z</time>
      </trkpt>
      <trkpt lat="44.78793" lon="0.43817">
        <ele>108.7</ele>
        <time>2023-07-14T06:19:19Z</time>
      </trkpt>
      <trkpt lat="44.78784" lon="0.43819">
        <ele>108.8</ele>
        <time>2023-07-14T06:19:21Z</time>
      </trkpt>
      <trkpt lat="44.78779" lon="0.43819">
        <ele>108.9</ele>
        <time>2023-07-14T06:19:22Z</time>
      </trkpt>
      <trkpt lat="44.78774" lon="0.4382">
        <ele>109</ele>
        <time>2023-07-14T06:19:23Z</time>
      </trkpt>
      <trkpt lat="44.78766" lon="0.43821">
        <ele>109.1</ele>
        <time>2023-07-14T06:19:25Z</time>
      </trkpt>
      <trkpt lat="44.78758" lon="0.43821">
        <ele>109</ele>
        <time>2023-07-14T06:19:27Z</time>
      </trkpt>
      <trkpt lat="44.78753" lon="0.43822">
        <ele>109.1</ele>
        <time>2023-07-14T06:19:28Z</time>
      </trkpt>
      <trkpt lat="44.78749" lon="0.43822">
        <ele>109.2</ele>
        <time>2023-07-14T06:19:29Z</time>
      </trkpt>
      <trkpt lat="44.78741" lon="0.43824">
        <ele>109.4</ele>
        <time>2023-07-14T06:19:31Z</time>
      </trkpt>
      <trkpt lat="44.78738" lon="0.43824">
        <ele>109.6</ele>
        <time>2023-07-14T06:19:32Z</time>
      </trkpt>
      <trkpt lat="44.78733" lon="0.43825">
        <ele>109.7</ele>
        <time>2023-07-14T06:19:33Z</time>
      </trkpt>
      <trkpt lat="44.78725" lon="0.43825">
        <ele>109.8</ele>
        <time>2023-07-14T06:19:35Z</time>
      </trkpt>
      <trkpt lat="44.7872" lon="0.43825">
        <ele>110.2</ele>
        <time>2023-07-14T06:19:36Z</time>
      </trkpt>
      <trkpt lat="44.78715" lon="0.43824">
        <ele>110.5</ele>
        <time>2023-07-14T06:19:37Z</time>
      </trkpt>
      <trkpt lat="44.78711" lon="0.43823">
        <ele>110.6</ele>
        <time>2023-07-14T06:19:38Z</time>
      </trkpt>
      <trkpt lat="44.78706" lon="0.43823">
        <ele>111</ele>
        <time>2023-07-14T06:19:39Z</time>
      </trkpt>
      <trkpt lat="44.78698" lon="0.43822">
        <ele>111.4</ele>
        <time>2023-07-14T06:19:41Z</time>
      </trkpt>
      <trkpt lat="44.78694" lon="0.4382">
        <ele>111.8</ele>
        <time>2023-07-14T06:19:42Z</time>
      </trkpt>
      <trkpt lat="44.7869" lon="0.43818">
        <ele>111.9</ele>
        <time>2023-07-14T06:19:43Z</time>
      </trkpt>
      <trkpt lat="44.78682" lon="0.43812">
        <ele>112.7</ele>
        <time>2023-07-14T06:19:45Z</time>
      </trkpt>
      <trkpt lat="44.78679" lon="0.43809">
        <ele>112.8</ele>
        <time>2023-07-14T06:19:46Z</time>
      </trkpt>
      <trkpt lat="44.78675" lon="0.43805">
        <ele>113.1</ele>
        <time>2023-07-14T06:19:47Z</time>
      </trkpt>
      <trkpt lat="44.78666" lon="0.43799">
        <ele>113.6</ele>
        <time>2023-07-14T06:19:49Z</time>
      </trkpt>
      <trkpt lat="44.78657" lon="0.43793">
        <ele>113.8</ele>
        <time>2023-07-14T06:19:51Z</time>
      </trkpt>
      <trkpt lat="44.78653" lon="0.4379">
        <ele>113.9</ele>
        <time>2023-07-14T06:19:52Z</time>
      </trkpt>
      <trkpt lat="44.78649" lon="0.43787">
        <ele>113.9</ele>
        <time>2023-07-14T06:19:53Z</time>
      </trkpt>
      <trkpt lat="44.78642" lon="0.43782">
        <ele>114</ele>
        <time>2023-07-14T06:19:55Z</time>
      </trkpt>
      <trkpt lat="44.7864" lon="0.43779">
        <ele>114.1</ele>
        <time>2023-07-14T06:19:56Z</time>
      </trkpt>
      <trkpt lat="44.7864" lon="0.43776">
        <ele>114.2</ele>
        <time>2023-07-14T06:19:57Z</time>
      </trkpt>
      <trkpt lat="44.78642" lon="0.43767">
        <ele>114.3</ele>
        <time>2023-07-14T06:19:59Z</time>
      </trkpt>
      <trkpt lat="44.78646" lon="0.43754">
        <ele>114.5</ele>
        <time>2023-07-14T06:20:01Z</time>
      </trkpt>
      <trkpt lat="44.78652" lon="0.43742">
        <ele>114.6</ele>
        <time>2023-07-14T06:20:03Z</time>
      </trkpt>
      <trkpt lat="44.78659" lon="0.43729">
        <ele>114.7</ele>
        <time>2023-07-14T06:20:05Z</time>
      </trkpt>
      <trkpt lat="44.78663" lon="0.43722">
        <ele>114.7</ele>
        <time>2023-07-14T06:20:06Z</time>
      </trkpt>
      <trkpt lat="44.78666" lon="0.43715">
        <ele>114.7</ele>
        <time>2023-07-14T06:20:07Z</time>
      </trkpt>
      <trkpt lat="44.78669" lon="0.43707">
        <ele>114.7</ele>
        <time>2023-07-14T06:20:08Z</time>
      </trkpt>
      <trkpt lat="44.78673" lon="0.43699">
        <ele>114.7</ele>
        <time>2023-07-14T06:20:09Z</time>
      </trkpt>
      <trkpt lat="44.7868" lon="0.43688">
        <ele>114.6</ele>
        <time>2023-07-14T06:20:11Z</time>
      </trkpt>
      <trkpt lat="44.78682" lon="0.43687">
        <ele>114.5</ele>
        <time>2023-07-14T06:20:13Z</time>
      </trkpt>
      <trkpt lat="44.78684" lon="0.43687">
        <ele>114.5</ele>
        <time>2023-07-14T06:20:15Z</time>
      </trkpt>
      <trkpt lat="44.78684" lon="0.43687">
        <ele>114.5</ele>
        <time>2023-07-14T06:20:16Z</time>
      </trkpt>
      <trkpt lat="44.78685" lon="0.43686">
        <ele>114.5</ele>
        <time>2023-07-14T06:20:17Z</time>
      </trkpt>
      <trkpt lat="44.78687" lon="0.43688">
        <ele>114.5</ele>
        <time>2023-07-14T06:20:18Z</time>
      </trkpt>
      <trkpt lat="44.7869" lon="0.4369">
        <ele>114.5</ele>
        <time>2023-07-14T06:20:19Z</time>
      </trkpt>
      <trkpt lat="44.78694" lon="0.43695">
        <ele>114.5</ele>
        <time>2023-07-14T06:20:21Z</time>
      </trkpt>
      <trkpt lat="44.78697" lon="0.43703">
        <ele>114.4</ele>
        <time>2023-07-14T06:20:23Z</time>
      </trkpt>
      <trkpt lat="44.787" lon="0.4371">
        <ele>114.3</ele>
        <time>2023-07-14T06:20:25Z</time>
      </trkpt>
      <trkpt lat="44.78706" lon="0.43716">
        <ele>114.2</ele>
        <time>2023-07-14T06:20:27Z</time>
      </trkpt>
      <trkpt lat="44.78714" lon="0.43716">
        <ele>114.1</ele>
        <time>2023-07-14T06:20:29Z</time>
      </trkpt>
      <trkpt lat="44.78721" lon="0.43713">
        <ele>114</ele>
        <time>2023-07-14T06:20:31Z</time>
      </trkpt>
      <trkpt lat="44.78722" lon="0.4371">
        <ele>114</ele>
        <time>2023-07-14T06:20:32Z</time>
      </trkpt>
      <trkpt lat="44.78722" lon="0.43707">
        <ele>114</ele>
        <time>2023-07-14T06:20:33Z</time>
      </trkpt>
      <trkpt lat="44.78722" lon="0.437">
        <ele>114.1</ele>
        <time>2023-07-14T06:20:35Z</time>
      </trkpt>
      <trkpt lat="44.78727" lon="0.4369">
        <ele>114</ele>
        <time>2023-07-14T06:20:37Z</time>
      </trkpt>
      <trkpt lat="44.78729" lon="0.43682">
        <ele>114</ele>
        <time>2023-07-14T06:20:39Z</time>
      </trkpt>
      <trkpt lat="44.78728" lon="0.43677">
        <ele>114</ele>
        <time>2023-07-14T06:20:41Z</time>
      </trkpt>
      <trkpt lat="44.78725" lon="0.43675">
        <ele>114</ele>
        <time>2023-07-14T06:20:43Z</time>
      </trkpt>
      <trkpt lat="44.78724" lon="0.43673">
        <ele>114</ele>
        <time>2023-07-14T06:20:44Z</time>
      </trkpt>
      <trkpt lat="44.78722" lon="0.4367">
        <ele>114</ele>
        <time>2023-07-14T06:20:45Z</time>
      </trkpt>
      <trkpt lat="44.78722" lon="0.43668">
        <ele>114</ele>
        <time>2023-07-14T06:20:46Z</time>
      </trkpt>
      <trkpt lat="44.78721" lon="0.43664">
        <ele>113.9</ele>
        <time>2023-07-14T06:20:47Z</time>
      </trkpt>
      <trkpt lat="44.78719" lon="0.43656">
        <ele>113.8</ele>
        <time>2023-07-14T06:20:49Z</time>
      </trkpt>
      <trkpt lat="44.78717" lon="0.43647">
        <ele>113.7</ele>
        <time>2023-07-14T06:20:51Z</time>
      </trkpt>
      <trkpt lat="44.78716" lon="0.43643">
        <ele>113.6</ele>
        <time>2023-07-14T06:20:52Z</time>
      </trkpt>
      <trkpt lat="44.78716" lon="0.4364">
        <ele>113.5</ele>
        <time>2023-07-14T06:20:53Z</time>
      </trkpt>
      <trkpt lat="44.78718" lon="0.43636">
        <ele>113.4</ele>
        <time>2023-07-14T06:20:55Z</time>
      </trkpt>
      <trkpt lat="44.78719" lon="0.43635">
        <ele>113.4</ele>
        <time>2023-07-14T06:20:56Z</time>
      </trkpt>
      <trkpt lat="44.7872" lon="0.43635">
        <ele>113.5</ele>
        <time>2023-07-14T06:20:57Z</time>
      </trkpt>
      <trkpt lat="44.7872" lon="0.43637">
        <ele>113.5</ele>
        <time>2023-07-14T06:20:58Z</time>
      </trkpt>
      <trkpt lat="44.7872" lon="0.43638">
        <ele>113.5</ele>
        <time>2023-07-14T06:20:59Z</time>
      </trkpt>
      <trkpt lat="44.7872" lon="0.43639">
        <ele>113.5</ele>
        <time>2023-07-14T06:21:00Z</time>
      </trkpt>
      <trkpt lat="44.78721" lon="0.4364">
        <ele>113.5</ele>
        <time>2023-07-14T06:21:01Z</time>
      </trkpt>
      <trkpt lat="44.78721" lon="0.43641">
        <ele>113.6</ele>
        <time>2023-07-14T06:21:02Z</time>
      </trkpt>
      <trkpt lat="44.78723" lon="0.43641">
        <ele>113.6</ele>
        <time>2023-07-14T06:21:03Z</time>
      </trkpt>
      <trkpt lat="44.78727" lon="0.43638">
        <ele>113.5</ele>
        <time>2023-07-14T06:21:05Z</time>
      </trkpt>
      <trkpt lat="44.78732" lon="0.43635">
        <ele>113.5</ele>
        <time>2023-07-14T06:21:07Z</time>
      </trkpt>
      <trkpt lat="44.78734" lon="0.43635">
        <ele>113.5</ele>
        <time>2023-07-14T06:21:08Z</time>
      </trkpt>
      <trkpt lat="44.78735" lon="0.43635">
        <ele>113.5</ele>
        <time>2023-07-14T06:21:09Z</time>
      </trkpt>
      <trkpt lat="44.78737" lon="0.43638">
        <ele>113.5</ele>
        <time>2023-07-14T06:21:11Z</time>
      </trkpt>
      <trkpt lat="44.78737" lon="0.43638">
        <ele>113.5</ele>
        <time>2023-07-14T06:21:12Z</time>
      </trkpt>
      <trkpt lat="44.78742" lon="0.43637">
        <ele>113.5</ele>
        <time>2023-07-14T06:21:15Z</time>
      </trkpt>
      <trkpt lat="44.78741" lon="0.43634">
        <ele>113.5</ele>
        <time>2023-07-14T06:21:16Z</time>
      </trkpt>
      <trkpt lat="44.78743" lon="0.43632">
        <ele>113.5</ele>
        <time>2023-07-14T06:21:17Z</time>
      </trkpt>
      <trkpt lat="44.78744" lon="0.43629">
        <ele>113.4</ele>
        <time>2023-07-14T06:21:18Z</time>
      </trkpt>
      <trkpt lat="44.78744" lon="0.43625">
        <ele>113.3</ele>
        <time>2023-07-14T06:21:19Z</time>
      </trkpt>
      <trkpt lat="44.7875" lon="0.43623">
        <ele>113.2</ele>
        <time>2023-07-14T06:21:21Z</time>
      </trkpt>
      <trkpt lat="44.78755" lon="0.43624">
        <ele>113.3</ele>
        <time>2023-07-14T06:21:23Z</time>
      </trkpt>
      <trkpt lat="44.78757" lon="0.43625">
        <ele>113.3</ele>
        <time>2023-07-14T06:21:24Z</time>
      </trkpt>
      <trkpt lat="44.78759" lon="0.43627">
        <ele>113.3</ele>
        <time>2023-07-14T06:21:25Z</time>
      </trkpt>
      <trkpt lat="44.78765" lon="0.43625">
        <ele>113.2</ele>
        <time>2023-07-14T06:21:28Z</time>
      </trkpt>
      <trkpt lat="44.78765" lon="0.43623">
        <ele>113.2</ele>
        <time>2023-07-14T06:21:29Z</time>
      </trkpt>
      <trkpt lat="44.78767" lon="0.43618">
        <ele>113.1</ele>
        <time>2023-07-14T06:21:31Z</time>
      </trkpt>
      <trkpt lat="44.78768" lon="0.43615">
        <ele>113</ele>
        <time>2023-07-14T06:21:32Z</time>
      </trkpt>
      <trkpt lat="44.78768" lon="0.43612">
        <ele>113</ele>
        <time>2023-07-14T06:21:33Z</time>
      </trkpt>
      <trkpt lat="44.78768" lon="0.43605">
        <ele>112.9</ele>
        <time>2023-07-14T06:21:35Z</time>
      </trkpt>
      <trkpt lat="44.78768" lon="0.43602">
        <ele>112.9</ele>
        <time>2023-07-14T06:21:36Z</time>
      </trkpt>
      <trkpt lat="44.78769" lon="0.43599">
        <ele>112.9</ele>
        <time>2023-07-14T06:21:37Z</time>
      </trkpt>
      <trkpt lat="44.7877" lon="0.43596">
        <ele>112.8</ele>
        <time>2023-07-14T06:21:38Z</time>
      </trkpt>
      <trkpt lat="44.78771" lon="0.43593">
        <ele>112.8</ele>
        <time>2023-07-14T06:21:39Z</time>
      </trkpt>
      <trkpt lat="44.78773" lon="0.43589">
        <ele>112.7</ele>
        <time>2023-07-14T06:21:40Z</time>
      </trkpt>
      <trkpt lat="44.78774" lon="0.43586">
        <ele>112.7</ele>
        <time>2023-07-14T06:21:41Z</time>
      </trkpt>
      <trkpt lat="44.78778" lon="0.43582">
        <ele>112.7</ele>
        <time>2023-07-14T06:21:43Z</time>
      </trkpt>
      <trkpt lat="44.78781" lon="0.43576">
        <ele>112.7</ele>
        <time>2023-07-14T06:21:45Z</time>
      </trkpt>
      <trkpt lat="44.78784" lon="0.4357">
        <ele>112.7</ele>
        <time>2023-07-14T06:21:47Z</time>
      </trkpt>
      <trkpt lat="44.78786" lon="0.43563">
        <ele>112.7</ele>
        <time>2023-07-14T06:21:49Z</time>
      </trkpt>
      <trkpt lat="44.78788" lon="0.43559">
        <ele>112.8</ele>
        <time>2023-07-14T06:21:51Z</time>
      </trkpt>
      <trkpt lat="44.78788" lon="0.43559">
        <ele>112.8</ele>
        <time>2023-07-14T06:21:52Z</time>
      </trkpt>
      <trkpt lat="44.78789" lon="0.43555">
        <ele>112.8</ele>
        <time>2023-07-14T06:21:53Z</time>
      </trkpt>
      <trkpt lat="44.78789" lon="0.43552">
        <ele>112.8</ele>
        <time>2023-07-14T06:21:54Z</time>
      </trkpt>
      <trkpt lat="44.78789" lon="0.4355">
        <ele>112.9</ele>
        <time>2023-07-14T06:21:55Z</time>
      </trkpt>
      <trkpt lat="44.78789" lon="0.43544">
        <ele>113</ele>
        <time>2023-07-14T06:21:57Z</time>
      </trkpt>
      <trkpt lat="44.78789" lon="0.43538">
        <ele>113</ele>
        <time>2023-07-14T06:21:59Z</time>
      </trkpt>
      <trkpt lat="44.78789" lon="0.43532">
        <ele>113.2</ele>
        <time>2023-07-14T06:22:01Z</time>
      </trkpt>
      <trkpt lat="44.7879" lon="0.43524">
        <ele>113.5</ele>
        <time>2023-07-14T06:22:03Z</time>
      </trkpt>
      <trkpt lat="44.78791" lon="0.43518">
        <ele>113.6</ele>
        <time>2023-07-14T06:22:05Z</time>
      </trkpt>
      <trkpt lat="44.78791" lon="0.43512">
        <ele>113.8</ele>
        <time>2023-07-14T06:22:07Z</time>
      </trkpt>
      <trkpt lat="44.7879" lon="0.4351">
        <ele>113.7</ele>
        <time>2023-07-14T06:22:08Z</time>
      </trkpt>
      <trkpt lat="44.78788" lon="0.43507">
        <ele>113.8</ele>
        <time>2023-07-14T06:22:09Z</time>
      </trkpt>
      <trkpt lat="44.78785" lon="0.43504">
        <ele>113.7</ele>
        <time>2023-07-14T06:22:11Z</time>
      </trkpt>
      <trkpt lat="44.78778" lon="0.43495">
        <ele>113.7</ele>
        <time>2023-07-14T06:22:13Z</time>
      </trkpt>
      <trkpt lat="44.78774" lon="0.43491">
        <ele>113.5</ele>
        <time>2023-07-14T06:22:14Z</time>
      </trkpt>
      <trkpt lat="44.7877" lon="0.43485">
        <ele>113.5</ele>
        <time>2023-07-14T06:22:15Z</time>
      </trkpt>
      <trkpt lat="44.78765" lon="0.4348">
        <ele>113.4</ele>
        <time>2023-07-14T06:22:16Z</time>
      </trkpt>
      <trkpt lat="44.7876" lon="0.43477">
        <ele>113.1</ele>
        <time>2023-07-14T06:22:17Z</time>
      </trkpt>
      <trkpt lat="44.78755" lon="0.43473">
        <ele>112.7</ele>
        <time>2023-07-14T06:22:18Z</time>
      </trkpt>
      <trkpt lat="44.78749" lon="0.4347">
        <ele>112.3</ele>
        <time>2023-07-14T06:22:19Z</time>
      </trkpt>
      <trkpt lat="44.78745" lon="0.43465">
        <ele>112.1</ele>
        <time>2023-07-14T06:22:20Z</time>
      </trkpt>
      <trkpt lat="44.78741" lon="0.43459">
        <ele>111.8</ele>
        <time>2023-07-14T06:22:21Z</time>
      </trkpt>
      <trkpt lat="44.78738" lon="0.43452">
        <ele>111.8</ele>
        <time>2023-07-14T06:22:22Z</time>
      </trkpt>
      <trkpt lat="44.78736" lon="0.43447">
        <ele>111.7</ele>
        <time>2023-07-14T06:22:23Z</time>
      </trkpt>
      <trkpt lat="44.78735" lon="0.43441">
        <ele>111.6</ele>
        <time>2023-07-14T06:22:24Z</time>
      </trkpt>
      <trkpt lat="44.78734" lon="0.43434">
        <ele>111.8</ele>
        <time>2023-07-14T06:22:25Z</time>
      </trkpt>
      <trkpt lat="44.78732" lon="0.43422">
        <ele>112</ele>
        <time>2023-07-14T06:22:27Z</time>
      </trkpt>
      <trkpt lat="44.78731" lon="0.43413">
        <ele>112.1</ele>
        <time>2023-07-14T06:22:29Z</time>
      </trkpt>
      <trkpt lat="44.7873" lon="0.43405">
        <ele>112.2</ele>
        <time>2023-07-14T06:22:31Z</time>
      </trkpt>
      <trkpt lat="44.7873" lon="0.43399">
        <ele>112.3</ele>
        <time>2023-07-14T06:22:33Z</time>
      </trkpt>
      <trkpt lat="44.78729" lon="0.43396">
        <ele>112.4</ele>
        <time>2023-07-14T06:22:34Z</time>
      </trkpt>
      <trkpt lat="44.78729" lon="0.43392">
        <ele>112.2</ele>
        <time>2023-07-14T06:22:35Z</time>
      </trkpt>
      <trkpt lat="44.78727" lon="0.43385">
        <ele>112.4</ele>
        <time>2023-07-14T06:22:37Z</time>
      </trkpt>
      <trkpt lat="44.78728" lon="0.43379">
        <ele>112.5</ele>
        <time>2023-07-14T06:22:39Z</time>
      </trkpt>
      <trkpt lat="44.78731" lon="0.43376">
        <ele>112.7</ele>
        <time>2023-07-14T06:22:41Z</time>
      </trkpt>
      <trkpt lat="44.78732" lon="0.43375">
        <ele>112.7</ele>
        <time>2023-07-14T06:22:42Z</time>
      </trkpt>
      <trkpt lat="44.78733" lon="0.43375">
        <ele>112.9</ele>
        <time>2023-07-14T06:22:43Z</time>
      </trkpt>
      <trkpt lat="44.78734" lon="0.43374">
        <ele>113</ele>
        <time>2023-07-14T06:22:44Z</time>
      </trkpt>
      <trkpt lat="44.78735" lon="0.43372">
        <ele>113.2</ele>
        <time>2023-07-14T06:22:45Z</time>
      </trkpt>
      <trkpt lat="44.78736" lon="0.4337">
        <ele>113.3</ele>
        <time>2023-07-14T06:22:46Z</time>
      </trkpt>
      <trkpt lat="44.78737" lon="0.43368">
        <ele>113.3</ele>
        <time>2023-07-14T06:22:47Z</time>
      </trkpt>
      <trkpt lat="44.7874" lon="0.43363">
        <ele>113.6</ele>
        <time>2023-07-14T06:22:49Z</time>
      </trkpt>
      <trkpt lat="44.78742" lon="0.43361">
        <ele>114</ele>
        <time>2023-07-14T06:22:51Z</time>
      </trkpt>
      <trkpt lat="44.78745" lon="0.43358">
        <ele>114.2</ele>
        <time>2023-07-14T06:22:53Z</time>
      </trkpt>
      <trkpt lat="44.78746" lon="0.43356">
        <ele>114.4</ele>
        <time>2023-07-14T06:22:54Z</time>
      </trkpt>
      <trkpt lat="44.78747" lon="0.43354">
        <ele>114.6</ele>
        <time>2023-07-14T06:22:55Z</time>
      </trkpt>
      <trkpt lat="44.7875" lon="0.43349">
        <ele>114.8</ele>
        <time>2023-07-14T06:22:57Z</time>
      </trkpt>
      <trkpt lat="44.78751" lon="0.43347">
        <ele>115.2</ele>
        <time>2023-07-14T06:22:58Z</time>
      </trkpt>
      <trkpt lat="44.78752" lon="0.43345">
        <ele>115.2</ele>
        <time>2023-07-14T06:22:59Z</time>
      </trkpt>
      <trkpt lat="44.78753" lon="0.43343">
        <ele>115.6</ele>
        <time>2023-07-14T06:23:00Z</time>
      </trkpt>
      <trkpt lat="44.78754" lon="0.43341">
        <ele>115.6</ele>
        <time>2023-07-14T06:23:01Z</time>
      </trkpt>
      <trkpt lat="44.78755" lon="0.43338">
        <ele>115.7</ele>
        <time>2023-07-14T06:23:02Z</time>
      </trkpt>
      <trkpt lat="44.78756" lon="0.43335">
        <ele>115.8</ele>
        <time>2023-07-14T06:23:03Z</time>
      </trkpt>
      <trkpt lat="44.78757" lon="0.43333">
        <ele>116.1</ele>
        <time>2023-07-14T06:23:04Z</time>
      </trkpt>
      <trkpt lat="44.78758" lon="0.43331">
        <ele>116.2</ele>
        <time>2023-07-14T06:23:05Z</time>
      </trkpt>
      <trkpt lat="44.78761" lon="0.43327">
        <ele>116.6</ele>
        <time>2023-07-14T06:23:07Z</time>
      </trkpt>
      <trkpt lat="44.78761" lon="0.43325">
        <ele>116.6</ele>
        <time>2023-07-14T06:23:08Z</time>
      </trkpt>
      <trkpt lat="44.7876" lon="0.43323">
        <ele>116.6</ele>
        <time>2023-07-14T06:23:09Z</time>
      </trkpt>
      <trkpt lat="44.78759" lon="0.43322">
        <ele>116.4</ele>
        <time>2023-07-14T06:23:10Z</time>
      </trkpt>
      <trkpt lat="44.78757" lon="0.43321">
        <ele>116.4</ele>
        <time>2023-07-14T06:23:11Z</time>
      </trkpt>
      <trkpt lat="44.78755" lon="0.43319">
        <ele>116.1</ele>
        <time>2023-07-14T06:23:12Z</time>
      </trkpt>
      <trkpt lat="44.78752" lon="0.43317">
        <ele>116</ele>
        <time>2023-07-14T06:23:13Z</time>
      </trkpt>
      <trkpt lat="44.78744" lon="0.43315">
        <ele>115.4</ele>
        <time>2023-07-14T06:23:15Z</time>
      </trkpt>
      <trkpt lat="44.78742" lon="0.43314">
        <ele>115.3</ele>
        <time>2023-07-14T06:23:16Z</time>
      </trkpt>
      <trkpt lat="44.78739" lon="0.43312">
        <ele>115</ele>
        <time>2023-07-14T06:23:17Z</time>
      </trkpt>
      <trkpt lat="44.78737" lon="0.43308">
        <ele>114.8</ele>
        <time>2023-07-14T06:23:18Z</time>
      </trkpt>
      <trkpt lat="44.78734" lon="0.43304">
        <ele>114.6</ele>
        <time>2023-07-14T06:23:19Z</time>
      </trkpt>
      <trkpt lat="44.78729" lon="0.43296">
        <ele>114.5</ele>
        <time>2023-07-14T06:23:21Z</time>
      </trkpt>
      <trkpt lat="44.78728" lon="0.43296">
        <ele>114.2</ele>
        <time>2023-07-14T06:23:22Z</time>
      </trkpt>
      <trkpt lat="44.78728" lon="0.43296">
        <ele>114.2</ele>
        <time>2023-07-14T06:23:23Z</time>
      </trkpt>
      <trkpt lat="44.78727" lon="0.43304">
        <ele>114.2</ele>
        <time>2023-07-14T06:23:28Z</time>
      </trkpt>
      <trkpt lat="44.78726" lon="0.43306">
        <ele>114.2</ele>
        <time>2023-07-14T06:23:29Z</time>
      </trkpt>
      <trkpt lat="44.78718" lon="0.4331">
        <ele>113.5</ele>
        <time>2023-07-14T06:23:31Z</time>
      </trkpt>
      <trkpt lat="44.7871" lon="0.43308">
        <ele>113</ele>
        <time>2023-07-14T06:23:33Z</time>
      </trkpt>
      <trkpt lat="44.78706" lon="0.43305">
        <ele>113</ele>
        <time>2023-07-14T06:23:34Z</time>
      </trkpt>
      <trkpt lat="44.78701" lon="0.43301">
        <ele>112.8</ele>
        <time>2023-07-14T06:23:35Z</time>
      </trkpt>
      <trkpt lat="44.78696" lon="0.43297">
        <ele>112.8</ele>
        <time>2023-07-14T06:23:36Z</time>
      </trkpt>
      <trkpt lat="44.78692" lon="0.43293">
        <ele>112.6</ele>
        <time>2023-07-14T06:23:37Z</time>
      </trkpt>
      <trkpt lat="44.78688" lon="0.43289">
        <ele>112.5</ele>
        <time>2023-07-14T06:23:38Z</time>
      </trkpt>
      <trkpt lat="44.78684" lon="0.43286">
        <ele>112.5</ele>
        <time>2023-07-14T06:23:39Z</time>
      </trkpt>
      <trkpt lat="44.78678" lon="0.4328">
        <ele>112.5</ele>
        <time>2023-07-14T06:23:41Z</time>
      </trkpt>
      <trkpt lat="44.78675" lon="0.43277">
        <ele>112.4</ele>
        <time>2023-07-14T06:23:42Z</time>
      </trkpt>
      <trkpt lat="44.78672" lon="0.43276">
        <ele>112.3</ele>
        <time>2023-07-14T06:23:43Z</time>
      </trkpt>
      <trkpt lat="44.78666" lon="0.43277">
        <ele>112.1</ele>
        <time>2023-07-14T06:23:45Z</time>
      </trkpt>
      <trkpt lat="44.7866" lon="0.43275">
        <ele>112</ele>
        <time>2023-07-14T06:23:47Z</time>
      </trkpt>
      <trkpt lat="44.78654" lon="0.43273">
        <ele>111.8</ele>
        <time>2023-07-14T06:23:49Z</time>
      </trkpt>
      <trkpt lat="44.78652" lon="0.43273">
        <ele>111.7</ele>
        <time>2023-07-14T06:23:50Z</time>
      </trkpt>
      <trkpt lat="44.78649" lon="0.43274">
        <ele>111.6</ele>
        <time>2023-07-14T06:23:51Z</time>
      </trkpt>
      <trkpt lat="44.78645" lon="0.43274">
        <ele>111.5</ele>
        <time>2023-07-14T06:23:52Z</time>
      </trkpt>
      <trkpt lat="44.78642" lon="0.43276">
        <ele>111.2</ele>
        <time>2023-07-14T06:23:53Z</time>
      </trkpt>
      <trkpt lat="44.78639" lon="0.43274">
        <ele>111.2</ele>
        <time>2023-07-14T06:23:55Z</time>
      </trkpt>
      <trkpt lat="44.78638" lon="0.43272">
        <ele>111.2</ele>
        <time>2023-07-14T06:23:56Z</time>
      </trkpt>
      <trkpt lat="44.78637" lon="0.43269">
        <ele>111.2</ele>
        <time>2023-07-14T06:23:57Z</time>
      </trkpt>
      <trkpt lat="44.78636" lon="0.43263">
        <ele>111.4</ele>
        <time>2023-07-14T06:23:59Z</time>
      </trkpt>
      <trkpt lat="44.78635" lon="0.43261">
        <ele>111.5</ele>
        <time>2023-07-14T06:24:00Z</time>
      </trkpt>
      <trkpt lat="44.78633" lon="0.43259">
        <ele>111.4</ele>
        <time>2023-07-14T06:24:01Z</time>
      </trkpt>
      <trkpt lat="44.7863" lon="0.43256">
        <ele>111.5</ele>
        <time>2023-07-14T06:24:03Z</time>
      </trkpt>
      <trkpt lat="44.78628" lon="0.43252">
        <ele>111.5</ele>
        <time>2023-07-14T06:24:05Z</time>
      </trkpt>
      <trkpt lat="44.78626" lon="0.43251">
        <ele>111.5</ele>
        <time>2023-07-14T06:24:06Z</time>
      </trkpt>
      <trkpt lat="44.78625" lon="0.43248">
        <ele>111.6</ele>
        <time>2023-07-14T06:24:07Z</time>
      </trkpt>
      <trkpt lat="44.78622" lon="0.43245">
        <ele>111.8</ele>
        <time>2023-07-14T06:24:09Z</time>
      </trkpt>
      <trkpt lat="44.78619" lon="0.43241">
        <ele>111.9</ele>
        <time>2023-07-14T06:24:11Z</time>
      </trkpt>
      <trkpt lat="44.78618" lon="0.43239">
        <ele>111.8</ele>
        <time>2023-07-14T06:24:12Z</time>
      </trkpt>
      <trkpt lat="44.78617" lon="0.43236">
        <ele>112</ele>
        <time>2023-07-14T06:24:13Z</time>
      </trkpt>
      <trkpt lat="44.78614" lon="0.43231">
        <ele>112.1</ele>
        <time>2023-07-14T06:24:15Z</time>
      </trkpt>
      <trkpt lat="44.78612" lon="0.43228">
        <ele>112.2</ele>
        <time>2023-07-14T06:24:16Z</time>
      </trkpt>
      <trkpt lat="44.7861" lon="0.43227">
        <ele>112.2</ele>
        <time>2023-07-14T06:24:17Z</time>
      </trkpt>
      <trkpt lat="44.78607" lon="0.43222">
        <ele>112.3</ele>
        <time>2023-07-14T06:24:19Z</time>
      </trkpt>
      <trkpt lat="44.78604" lon="0.43217">
        <ele>112.4</ele>
        <time>2023-07-14T06:24:21Z</time>
      </trkpt>
      <trkpt lat="44.78601" lon="0.43212">
        <ele>112.4</ele>
        <time>2023-07-14T06:24:23Z</time>
      </trkpt>
      <trkpt lat="44.78599" lon="0.43205">
        <ele>112.7</ele>
        <time>2023-07-14T06:24:25Z</time>
      </trkpt>
      <trkpt lat="44.78598" lon="0.43199">
        <ele>112.9</ele>
        <time>2023-07-14T06:24:27Z</time>
      </trkpt>
      <trkpt lat="44.78598" lon="0.43196">
        <ele>113</ele>
        <time>2023-07-14T06:24:28Z</time>
      </trkpt>
      <trkpt lat="44.78598" lon="0.43193">
        <ele>113.2</ele>
        <time>2023-07-14T06:24:29Z</time>
      </trkpt>
      <trkpt lat="44.78598" lon="0.4319">
        <ele>113.2</ele>
        <time>2023-07-14T06:24:30Z</time>
      </trkpt>
      <trkpt lat="44.78597" lon="0.43187">
        <ele>113.2</ele>
        <time>2023-07-14T06:24:31Z</time>
      </trkpt>
      <trkpt lat="44.78595" lon="0.4318">
        <ele>113.5</ele>
        <time>2023-07-14T06:24:33Z</time>
      </trkpt>
      <trkpt lat="44.78594" lon="0.43178">
        <ele>113.4</ele>
        <time>2023-07-14T06:24:34Z</time>
      </trkpt>
      <trkpt lat="44.78594" lon="0.43175">
        <ele>113.6</ele>
        <time>2023-07-14T06:24:35Z</time>
      </trkpt>
      <trkpt lat="44.78593" lon="0.43172">
        <ele>113.7</ele>
        <time>2023-07-14T06:24:36Z</time>
      </trkpt>
      <trkpt lat="44.78593" lon="0.43169">
        <ele>113.7</ele>
        <time>2023-07-14T06:24:37Z</time>
      </trkpt>
      <trkpt lat="44.78592" lon="0.43163">
        <ele>113.9</ele>
        <time>2023-07-14T06:24:39Z</time>
      </trkpt>
      <trkpt lat="44.78591" lon="0.43156">
        <ele>113.9</ele>
        <time>2023-07-14T06:24:41Z</time>
      </trkpt>
      <trkpt lat="44.7859" lon="0.43149">
        <ele>114.1</ele>
        <time>2023-07-14T06:24:43Z</time>
      </trkpt>
      <trkpt lat="44.78588" lon="0.43145">
        <ele>114.1</ele>
        <time>2023-07-14T06:24:45Z</time>
      </trkpt>
      <trkpt lat="44.78585" lon="0.4314">
        <ele>114.1</ele>
        <time>2023-07-14T06:24:47Z</time>
      </trkpt>
      <trkpt lat="44.78584" lon="0.43137">
        <ele>114.2</ele>
        <time>2023-07-14T06:24:48Z</time>
      </trkpt>
      <trkpt lat="44.78582" lon="0.43133">
        <ele>114.2</ele>
        <time>2023-07-14T06:24:49Z</time>
      </trkpt>
      <trkpt lat="44.7858" lon="0.43125">
        <ele>114.4</ele>
        <time>2023-07-14T06:24:51Z</time>
      </trkpt>
      <trkpt lat="44.7858" lon="0.43121">
        <ele>114.4</ele>
        <time>2023-07-14T06:24:52Z</time>
      </trkpt>
      <trkpt lat="44.78579" lon="0.43115">
        <ele>114.4</ele>
        <time>2023-07-14T06:24:53Z</time>
      </trkpt>
      <trkpt lat="44.78574" lon="0.43105">
        <ele>114.4</ele>
        <time>2023-07-14T06:24:55Z</time>
      </trkpt>
      <trkpt lat="44.7857" lon="0.43098">
        <ele>114.1</ele>
        <time>2023-07-14T06:24:56Z</time>
      </trkpt>
      <trkpt lat="44.78567" lon="0.43091">
        <ele>113.9</ele>
        <time>2023-07-14T06:24:57Z</time>
      </trkpt>
      <trkpt lat="44.7856" lon="0.43078">
        <ele>113.4</ele>
        <time>2023-07-14T06:24:59Z</time>
      </trkpt>
      <trkpt lat="44.78553" lon="0.43072">
        <ele>112.6</ele>
        <time>2023-07-14T06:25:01Z</time>
      </trkpt>
      <trkpt lat="44.78543" lon="0.4307">
        <ele>111.4</ele>
        <time>2023-07-14T06:25:03Z</time>
      </trkpt>
      <trkpt lat="44.78535" lon="0.43075">
        <ele>110</ele>
        <time>2023-07-14T06:25:05Z</time>
      </trkpt>
      <trkpt lat="44.78525" lon="0.43078">
        <ele>108.4</ele>
        <time>2023-07-14T06:25:07Z</time>
      </trkpt>
      <trkpt lat="44.78515" lon="0.43081">
        <ele>106.1</ele>
        <time>2023-07-14T06:25:09Z</time>
      </trkpt>
      <trkpt lat="44.78505" lon="0.43084">
        <ele>104.5</ele>
        <time>2023-07-14T06:25:11Z</time>
      </trkpt>
      <trkpt lat="44.78495" lon="0.43087">
        <ele>102.9</ele>
        <time>2023-07-14T06:25:13Z</time>
      </trkpt>
      <trkpt lat="44.78484" lon="0.43089">
        <ele>101.1</ele>
        <time>2023-07-14T06:25:15Z</time>
      </trkpt>
      <trkpt lat="44.78479" lon="0.43089">
        <ele>100.2</ele>
        <time>2023-07-14T06:25:16Z</time>
      </trkpt>
      <trkpt lat="44.78473" lon="0.43089">
        <ele>99.8</ele>
        <time>2023-07-14T06:25:17Z</time>
      </trkpt>
      <trkpt lat="44.78468" lon="0.43086">
        <ele>99.1</ele>
        <time>2023-07-14T06:25:18Z</time>
      </trkpt>
      <trkpt lat="44.78463" lon="0.43083">
        <ele>98.5</ele>
        <time>2023-07-14T06:25:19Z</time>
      </trkpt>
      <trkpt lat="44.78455" lon="0.43077">
        <ele>97.9</ele>
        <time>2023-07-14T06:25:21Z</time>
      </trkpt>
      <trkpt lat="44.78447" lon="0.43071">
        <ele>97.7</ele>
        <time>2023-07-14T06:25:23Z</time>
      </trkpt>
      <trkpt lat="44.78443" lon="0.43068">
        <ele>97.6</ele>
        <time>2023-07-14T06:25:24Z</time>
      </trkpt>
      <trkpt lat="44.78439" lon="0.43066">
        <ele>97.3</ele>
        <time>2023-07-14T06:25:25Z</time>
      </trkpt>
      <trkpt lat="44.78431" lon="0.43061">
        <ele>97.3</ele>
        <time>2023-07-14T06:25:27Z</time>
      </trkpt>
      <trkpt lat="44.78423" lon="0.43056">
        <ele>97</ele>
        <time>2023-07-14T06:25:29Z</time>
      </trkpt>
      <trkpt lat="44.78415" lon="0.43051">
        <ele>96.9</ele>
        <time>2023-07-14T06:25:31Z</time>
      </trkpt>
      <trkpt lat="44.78411" lon="0.43048">
        <ele>96.7</ele>
        <time>2023-07-14T06:25:32Z</time>
      </trkpt>
      <trkpt lat="44.78407" lon="0.43046">
        <ele>96.8</ele>
        <time>2023-07-14T06:25:33Z</time>
      </trkpt>
      <trkpt lat="44.78399" lon="0.43041">
        <ele>96.9</ele>
        <time>2023-07-14T06:25:35Z</time>
      </trkpt>
      <trkpt lat="44.78391" lon="0.43037">
        <ele>97.1</ele>
        <time>2023-07-14T06:25:37Z</time>
      </trkpt>
      <trkpt lat="44.78386" lon="0.43035">
        <ele>97.3</ele>
        <time>2023-07-14T06:25:38Z</time>
      </trkpt>
      <trkpt lat="44.78382" lon="0.43032">
        <ele>97.3</ele>
        <time>2023-07-14T06:25:39Z</time>
      </trkpt>
      <trkpt lat="44.78378" lon="0.4303">
        <ele>97.6</ele>
        <time>2023-07-14T06:25:40Z</time>
      </trkpt>
      <trkpt lat="44.78374" lon="0.43027">
        <ele>97.7</ele>
        <time>2023-07-14T06:25:41Z</time>
      </trkpt>
      <trkpt lat="44.78366" lon="0.43022">
        <ele>98.1</ele>
        <time>2023-07-14T06:25:43Z</time>
      </trkpt>
      <trkpt lat="44.78357" lon="0.43016">
        <ele>98.2</ele>
        <time>2023-07-14T06:25:45Z</time>
      </trkpt>
      <trkpt lat="44.78353" lon="0.43013">
        <ele>98.3</ele>
        <time>2023-07-14T06:25:46Z</time>
      </trkpt>
      <trkpt lat="44.78349" lon="0.43011">
        <ele>98.3</ele>
        <time>2023-07-14T06:25:47Z</time>
      </trkpt>
      <trkpt lat="44.7834" lon="0.43007">
        <ele>98.1</ele>
        <time>2023-07-14T06:25:49Z</time>
      </trkpt>
      <trkpt lat="44.78336" lon="0.43004">
        <ele>98.1</ele>
        <time>2023-07-14T06:25:50Z</time>
      </trkpt>
      <trkpt lat="44.78332" lon="0.43001">
        <ele>98.1</ele>
        <time>2023-07-14T06:25:51Z</time>
      </trkpt>
      <trkpt lat="44.78327" lon="0.42998">
        <ele>98</ele>
        <time>2023-07-14T06:25:52Z</time>
      </trkpt>
      <trkpt lat="44.78323" lon="0.42996">
        <ele>98</ele>
        <time>2023-07-14T06:25:53Z</time>
      </trkpt>
      <trkpt lat="44.78319" lon="0.42995">
        <ele>98</ele>
        <time>2023-07-14T06:25:54Z</time>
      </trkpt>
      <trkpt lat="44.78315" lon="0.42994">
        <ele>97.9</ele>
        <time>2023-07-14T06:25:55Z</time>
      </trkpt>
      <trkpt lat="44.78308" lon="0.42992">
        <ele>98</ele>
        <time>2023-07-14T06:25:57Z</time>
      </trkpt>
      <trkpt lat="44.78305" lon="0.42989">
        <ele>98</ele>
        <time>2023-07-14T06:25:58Z</time>
      </trkpt>
      <trkpt lat="44.78302" lon="0.42986">
        <ele>98.2</ele>
        <time>2023-07-14T06:25:59Z</time>
      </trkpt>
      <trkpt lat="44.78298" lon="0.42978">
        <ele>98.6</ele>
        <time>2023-07-14T06:26:01Z</time>
      </trkpt>
      <trkpt lat="44.78293" lon="0.42971">
        <ele>99</ele>
        <time>2023-07-14T06:26:03Z</time>
      </trkpt>
      <trkpt lat="44.7829" lon="0.42967">
        <ele>99</ele>
        <time>2023-07-14T06:26:04Z</time>
      </trkpt>
      <trkpt lat="44.78288" lon="0.42964">
        <ele>99.2</ele>
        <time>2023-07-14T06:26:05Z</time>
      </trkpt>
      <trkpt lat="44.78283" lon="0.42955">
        <ele>99.6</ele>
        <time>2023-07-14T06:26:07Z</time>
      </trkpt>
      <trkpt lat="44.78278" lon="0.42948">
        <ele>99.9</ele>
        <time>2023-07-14T06:26:09Z</time>
      </trkpt>
      <trkpt lat="44.78275" lon="0.42944">
        <ele>100.1</ele>
        <time>2023-07-14T06:26:10Z</time>
      </trkpt>
      <trkpt lat="44.78273" lon="0.42941">
        <ele>100.2</ele>
        <time>2023-07-14T06:26:11Z</time>
      </trkpt>
      <trkpt lat="44.7827" lon="0.4294">
        <ele>100.2</ele>
        <time>2023-07-14T06:26:13Z</time>
      </trkpt>
      <trkpt lat="44.78265" lon="0.42945">
        <ele>100.1</ele>
        <time>2023-07-14T06:26:15Z</time>
      </trkpt>
      <trkpt lat="44.78262" lon="0.42951">
        <ele>99.8</ele>
        <time>2023-07-14T06:26:16Z</time>
      </trkpt>
      <trkpt lat="44.78261" lon="0.42957">
        <ele>99.6</ele>
        <time>2023-07-14T06:26:17Z</time>
      </trkpt>
      <trkpt lat="44.78256" lon="0.42968">
        <ele>99.1</ele>
        <time>2023-07-14T06:26:19Z</time>
      </trkpt>
      <trkpt lat="44.78251" lon="0.42979">
        <ele>98.8</ele>
        <time>2023-07-14T06:26:21Z</time>
      </trkpt>
      <trkpt lat="44.78244" lon="0.42991">
        <ele>98.2</ele>
        <time>2023-07-14T06:26:23Z</time>
      </trkpt>
      <trkpt lat="44.78237" lon="0.43005">
        <ele>97.5</ele>
        <time>2023-07-14T06:26:25Z</time>
      </trkpt>
      <trkpt lat="44.78233" lon="0.43012">
        <ele>96.9</ele>
        <time>2023-07-14T06:26:26Z</time>
      </trkpt>
      <trkpt lat="44.78229" lon="0.43021">
        <ele>96.4</ele>
        <time>2023-07-14T06:26:27Z</time>
      </trkpt>
      <trkpt lat="44.78221" lon="0.43039">
        <ele>95.2</ele>
        <time>2023-07-14T06:26:29Z</time>
      </trkpt>
      <trkpt lat="44.78214" lon="0.43053">
        <ele>94.2</ele>
        <time>2023-07-14T06:26:31Z</time>
      </trkpt>
      <trkpt lat="44.78211" lon="0.43056">
        <ele>94.2</ele>
        <time>2023-07-14T06:26:32Z</time>
      </trkpt>
      <trkpt lat="44.78208" lon="0.43056">
        <ele>94.1</ele>
        <time>2023-07-14T06:26:33Z</time>
      </trkpt>
      <trkpt lat="44.78201" lon="0.43054">
        <ele>94.1</ele>
        <time>2023-07-14T06:26:35Z</time>
      </trkpt>
      <trkpt lat="44.78197" lon="0.43052">
        <ele>94.3</ele>
        <time>2023-07-14T06:26:36Z</time>
      </trkpt>
      <trkpt lat="44.78191" lon="0.43051">
        <ele>94.2</ele>
        <time>2023-07-14T06:26:37Z</time>
      </trkpt>
      <trkpt lat="44.78186" lon="0.43049">
        <ele>94.1</ele>
        <time>2023-07-14T06:26:38Z</time>
      </trkpt>
      <trkpt lat="44.78181" lon="0.43047">
        <ele>94.2</ele>
        <time>2023-07-14T06:26:39Z</time>
      </trkpt>
      <trkpt lat="44.78177" lon="0.43043">
        <ele>94.2</ele>
        <time>2023-07-14T06:26:40Z</time>
      </trkpt>
      <trkpt lat="44.78173" lon="0.43039">
        <ele>94.3</ele>
        <time>2023-07-14T06:26:41Z</time>
      </trkpt>
      <trkpt lat="44.78169" lon="0.43037">
        <ele>94.2</ele>
        <time>2023-07-14T06:26:42Z</time>
      </trkpt>
      <trkpt lat="44.78166" lon="0.43036">
        <ele>94</ele>
        <time>2023-07-14T06:26:43Z</time>
      </trkpt>
      <trkpt lat="44.78163" lon="0.43035">
        <ele>94.1</ele>
        <time>2023-07-14T06:26:45Z</time>
      </trkpt>
      <trkpt lat="44.78147" lon="0.43037">
        <ele>93.4</ele>
        <time>2023-07-14T06:27:14Z</time>
      </trkpt>
      <trkpt lat="44.78146" lon="0.43034">
        <ele>93.4</ele>
        <time>2023-07-14T06:27:15Z</time>
      </trkpt>
      <trkpt lat="44.78144" lon="0.43026">
        <ele>93.6</ele>
        <time>2023-07-14T06:27:17Z</time>
      </trkpt>
      <trkpt lat="44.78144" lon="0.43022">
        <ele>93.5</ele>
        <time>2023-07-14T06:27:18Z</time>
      </trkpt>
      <trkpt lat="44.78143" lon="0.43019">
        <ele>93.5</ele>
        <time>2023-07-14T06:27:19Z</time>
      </trkpt>
      <trkpt lat="44.78141" lon="0.43015">
        <ele>93.6</ele>
        <time>2023-07-14T06:27:21Z</time>
      </trkpt>
      <trkpt lat="44.78139" lon="0.43014">
        <ele>93.5</ele>
        <time>2023-07-14T06:27:22Z</time>
      </trkpt>
      <trkpt lat="44.78137" lon="0.43013">
        <ele>93.4</ele>
        <time>2023-07-14T06:27:23Z</time>
      </trkpt>
      <trkpt lat="44.78135" lon="0.43013">
        <ele>93.4</ele>
        <time>2023-07-14T06:27:24Z</time>
      </trkpt>
      <trkpt lat="44.78132" lon="0.43012">
        <ele>93.3</ele>
        <time>2023-07-14T06:27:25Z</time>
      </trkpt>
      <trkpt lat="44.78127" lon="0.43008">
        <ele>93.2</ele>
        <time>2023-07-14T06:27:27Z</time>
      </trkpt>
      <trkpt lat="44.78121" lon="0.43008">
        <ele>93.1</ele>
        <time>2023-07-14T06:27:29Z</time>
      </trkpt>
      <trkpt lat="44.78116" lon="0.4301">
        <ele>92.9</ele>
        <time>2023-07-14T06:27:31Z</time>
      </trkpt>
      <trkpt lat="44.78113" lon="0.43011">
        <ele>92.9</ele>
        <time>2023-07-14T06:27:32Z</time>
      </trkpt>
      <trkpt lat="44.7811" lon="0.43011">
        <ele>92.9</ele>
        <time>2023-07-14T06:27:33Z</time>
      </trkpt>
      <trkpt lat="44.78107" lon="0.43011">
        <ele>92.8</ele>
        <time>2023-07-14T06:27:34Z</time>
      </trkpt>
      <trkpt lat="44.78105" lon="0.4301">
        <ele>92.8</ele>
        <time>2023-07-14T06:27:35Z</time>
      </trkpt>
      <trkpt lat="44.781" lon="0.43008">
        <ele>92.8</ele>
        <time>2023-07-14T06:27:37Z</time>
      </trkpt>
      <trkpt lat="44.78095" lon="0.43006">
        <ele>92.8</ele>
        <time>2023-07-14T06:27:39Z</time>
      </trkpt>
      <trkpt lat="44.78089" lon="0.43001">
        <ele>92.9</ele>
        <time>2023-07-14T06:27:41Z</time>
      </trkpt>
      <trkpt lat="44.78084" lon="0.42997">
        <ele>93</ele>
        <time>2023-07-14T06:27:43Z</time>
      </trkpt>
      <trkpt lat="44.78079" lon="0.42994">
        <ele>93.1</ele>
        <time>2023-07-14T06:27:45Z</time>
      </trkpt>
      <trkpt lat="44.78075" lon="0.4299">
        <ele>93.2</ele>
        <time>2023-07-14T06:27:47Z</time>
      </trkpt>
      <trkpt lat="44.78073" lon="0.42989">
        <ele>93.3</ele>
        <time>2023-07-14T06:27:48Z</time>
      </trkpt>
      <trkpt lat="44.78071" lon="0.42986">
        <ele>93.5</ele>
        <time>2023-07-14T06:27:49Z</time>
      </trkpt>
      <trkpt lat="44.78065" lon="0.4298">
        <ele>93.6</ele>
        <time>2023-07-14T06:27:51Z</time>
      </trkpt>
      <trkpt lat="44.78063" lon="0.42976">
        <ele>93.8</ele>
        <time>2023-07-14T06:27:52Z</time>
      </trkpt>
      <trkpt lat="44.78061" lon="0.42973">
        <ele>94</ele>
        <time>2023-07-14T06:27:53Z</time>
      </trkpt>
      <trkpt lat="44.7806" lon="0.42967">
        <ele>94</ele>
        <time>2023-07-14T06:27:55Z</time>
      </trkpt>
      <trkpt lat="44.78058" lon="0.42964">
        <ele>94.2</ele>
        <time>2023-07-14T06:27:56Z</time>
      </trkpt>
      <trkpt lat="44.78057" lon="0.42961">
        <ele>94.2</ele>
        <time>2023-07-14T06:27:57Z</time>
      </trkpt>
      <trkpt lat="44.78056" lon="0.42955">
        <ele>94.2</ele>
        <time>2023-07-14T06:27:59Z</time>
      </trkpt>
      <trkpt lat="44.78055" lon="0.42952">
        <ele>94.4</ele>
        <time>2023-07-14T06:28:00Z</time>
      </trkpt>
      <trkpt lat="44.78054" lon="0.4295">
        <ele>94.4</ele>
        <time>2023-07-14T06:28:01Z</time>
      </trkpt>
      <trkpt lat="44.78052" lon="0.42942">
        <ele>94.5</ele>
        <time>2023-07-14T06:28:03Z</time>
      </trkpt>
      <trkpt lat="44.78052" lon="0.42936">
        <ele>94.4</ele>
        <time>2023-07-14T06:28:04Z</time>
      </trkpt>
      <trkpt lat="44.78052" lon="0.42929">
        <ele>94.4</ele>
        <time>2023-07-14T06:28:05Z</time>
      </trkpt>
      <trkpt lat="44.78051" lon="0.42923">
        <ele>94.3</ele>
        <time>2023-07-14T06:28:06Z</time>
      </trkpt>
      <trkpt lat="44.7805" lon="0.42917">
        <ele>94.2</ele>
        <time>2023-07-14T06:28:07Z</time>
      </trkpt>
      <trkpt lat="44.78046" lon="0.42908">
        <ele>94.3</ele>
        <time>2023-07-14T06:28:09Z</time>
      </trkpt>
      <trkpt lat="44.78038" lon="0.42907">
        <ele>94.6</ele>
        <time>2023-07-14T06:28:11Z</time>
      </trkpt>
      <trkpt lat="44.78031" lon="0.42905">
        <ele>94.9</ele>
        <time>2023-07-14T06:28:13Z</time>
      </trkpt>
      <trkpt lat="44.78029" lon="0.42903">
        <ele>94.9</ele>
        <time>2023-07-14T06:28:14Z</time>
      </trkpt>
      <trkpt lat="44.78028" lon="0.42898">
        <ele>94.9</ele>
        <time>2023-07-14T06:28:15Z</time>
      </trkpt>
      <trkpt lat="44.78027" lon="0.42891">
        <ele>94.8</ele>
        <time>2023-07-14T06:28:16Z</time>
      </trkpt>
      <trkpt lat="44.78026" lon="0.42884">
        <ele>94.6</ele>
        <time>2023-07-14T06:28:17Z</time>
      </trkpt>
      <trkpt lat="44.78028" lon="0.42871">
        <ele>94.2</ele>
        <time>2023-07-14T06:28:19Z</time>
      </trkpt>
      <trkpt lat="44.78027" lon="0.42859">
        <ele>94</ele>
        <time>2023-07-14T06:28:21Z</time>
      </trkpt>
      <trkpt lat="44.78024" lon="0.42854">
        <ele>94</ele>
        <time>2023-07-14T06:28:22Z</time>
      </trkpt>
      <trkpt lat="44.78021" lon="0.42852">
        <ele>94.2</ele>
        <time>2023-07-14T06:28:23Z</time>
      </trkpt>
      <trkpt lat="44.78015" lon="0.42851">
        <ele>94.3</ele>
        <time>2023-07-14T06:28:25Z</time>
      </trkpt>
      <trkpt lat="44.78013" lon="0.42849">
        <ele>94.3</ele>
        <time>2023-07-14T06:28:26Z</time>
      </trkpt>
      <trkpt lat="44.78011" lon="0.42846">
        <ele>94.3</ele>
        <time>2023-07-14T06:28:27Z</time>
      </trkpt>
      <trkpt lat="44.78007" lon="0.4284">
        <ele>94.4</ele>
        <time>2023-07-14T06:28:29Z</time>
      </trkpt>
      <trkpt lat="44.78002" lon="0.42833">
        <ele>94.3</ele>
        <time>2023-07-14T06:28:31Z</time>
      </trkpt>
      <trkpt lat="44.77995" lon="0.42829">
        <ele>94.4</ele>
        <time>2023-07-14T06:28:33Z</time>
      </trkpt>
      <trkpt lat="44.77991" lon="0.42826">
        <ele>94.5</ele>
        <time>2023-07-14T06:28:35Z</time>
      </trkpt>
      <trkpt lat="44.77986" lon="0.42819">
        <ele>94.5</ele>
        <time>2023-07-14T06:28:37Z</time>
      </trkpt>
      <trkpt lat="44.77981" lon="0.42813">
        <ele>94.6</ele>
        <time>2023-07-14T06:28:39Z</time>
      </trkpt>
      <trkpt lat="44.77979" lon="0.42812">
        <ele>94.6</ele>
        <time>2023-07-14T06:28:40Z</time>
      </trkpt>
      <trkpt lat="44.77977" lon="0.42812">
        <ele>94.6</ele>
        <time>2023-07-14T06:28:41Z</time>
      </trkpt>
      <trkpt lat="44.77972" lon="0.42809">
        <ele>94.6</ele>
        <time>2023-07-14T06:28:43Z</time>
      </trkpt>
      <trkpt lat="44.7797" lon="0.42806">
        <ele>94.7</ele>
        <time>2023-07-14T06:28:44Z</time>
      </trkpt>
      <trkpt lat="44.77967" lon="0.42801">
        <ele>94.7</ele>
        <time>2023-07-14T06:28:45Z</time>
      </trkpt>
      <trkpt lat="44.77963" lon="0.42791">
        <ele>94.7</ele>
        <time>2023-07-14T06:28:47Z</time>
      </trkpt>
      <trkpt lat="44.77958" lon="0.42775">
        <ele>94.7</ele>
        <time>2023-07-14T06:28:49Z</time>
      </trkpt>
      <trkpt lat="44.7795" lon="0.42765">
        <ele>94.6</ele>
        <time>2023-07-14T06:28:51Z</time>
      </trkpt>
      <trkpt lat="44.77943" lon="0.42757">
        <ele>94.7</ele>
        <time>2023-07-14T06:28:53Z</time>
      </trkpt>
      <trkpt lat="44.77939" lon="0.42752">
        <ele>94.7</ele>
        <time>2023-07-14T06:28:54Z</time>
      </trkpt>
      <trkpt lat="44.77937" lon="0.42751">
        <ele>94.7</ele>
        <time>2023-07-14T06:28:55Z</time>
      </trkpt>
      <trkpt lat="44.77933" lon="0.42752">
        <ele>94.7</ele>
        <time>2023-07-14T06:28:57Z</time>
      </trkpt>
      <trkpt lat="44.77931" lon="0.42757">
        <ele>94.6</ele>
        <time>2023-07-14T06:28:59Z</time>
      </trkpt>
      <trkpt lat="44.7793" lon="0.42758">
        <ele>94.6</ele>
        <time>2023-07-14T06:29:00Z</time>
      </trkpt>
      <trkpt lat="44.7793" lon="0.4276">
        <ele>94.6</ele>
        <time>2023-07-14T06:29:01Z</time>
      </trkpt>
      <trkpt lat="44.77928" lon="0.42763">
        <ele>94.6</ele>
        <time>2023-07-14T06:29:03Z</time>
      </trkpt>
      <trkpt lat="44.77927" lon="0.42767">
        <ele>94.5</ele>
        <time>2023-07-14T06:29:05Z</time>
      </trkpt>
      <trkpt lat="44.77926" lon="0.42771">
        <ele>94.5</ele>
        <time>2023-07-14T06:29:07Z</time>
      </trkpt>
      <trkpt lat="44.77924" lon="0.42776">
        <ele>94.5</ele>
        <time>2023-07-14T06:29:09Z</time>
      </trkpt>
      <trkpt lat="44.77924" lon="0.4278">
        <ele>94.5</ele>
        <time>2023-07-14T06:29:11Z</time>
      </trkpt>
      <trkpt lat="44.77924" lon="0.42782">
        <ele>94.5</ele>
        <time>2023-07-14T06:29:12Z</time>
      </trkpt>
      <trkpt lat="44.77924" lon="0.42784">
        <ele>94.5</ele>
        <time>2023-07-14T06:29:13Z</time>
      </trkpt>
      <trkpt lat="44.77925" lon="0.42789">
        <ele>94.5</ele>
        <time>2023-07-14T06:29:15Z</time>
      </trkpt>
      <trkpt lat="44.77926" lon="0.42794">
        <ele>94.5</ele>
        <time>2023-07-14T06:29:17Z</time>
      </trkpt>
      <trkpt lat="44.77927" lon="0.42799">
        <ele>94.5</ele>
        <time>2023-07-14T06:29:19Z</time>
      </trkpt>
      <trkpt lat="44.77928" lon="0.42805">
        <ele>94.6</ele>
        <time>2023-07-14T06:29:21Z</time>
      </trkpt>
      <trkpt lat="44.77927" lon="0.4281">
        <ele>94.6</ele>
        <time>2023-07-14T06:29:23Z</time>
      </trkpt>
      <trkpt lat="44.77925" lon="0.42814">
        <ele>94.7</ele>
        <time>2023-07-14T06:29:25Z</time>
      </trkpt>
      <trkpt lat="44.77925" lon="0.42817">
        <ele>94.7</ele>
        <time>2023-07-14T06:29:26Z</time>
      </trkpt>
      <trkpt lat="44.77924" lon="0.42819">
        <ele>94.9</ele>
        <time>2023-07-14T06:29:27Z</time>
      </trkpt>
      <trkpt lat="44.77923" lon="0.42824">
        <ele>95</ele>
        <time>2023-07-14T06:29:29Z</time>
      </trkpt>
      <trkpt lat="44.77922" lon="0.42828">
        <ele>95.2</ele>
        <time>2023-07-14T06:29:31Z</time>
      </trkpt>
      <trkpt lat="44.77921" lon="0.42833">
        <ele>95.5</ele>
        <time>2023-07-14T06:29:33Z</time>
      </trkpt>
      <trkpt lat="44.7792" lon="0.42836">
        <ele>95.7</ele>
        <time>2023-07-14T06:29:34Z</time>
      </trkpt>
      <trkpt lat="44.77919" lon="0.42838">
        <ele>95.9</ele>
        <time>2023-07-14T06:29:35Z</time>
      </trkpt>
      <trkpt lat="44.77917" lon="0.42843">
        <ele>96.1</ele>
        <time>2023-07-14T06:29:37Z</time>
      </trkpt>
      <trkpt lat="44.77916" lon="0.42847">
        <ele>96.4</ele>
        <time>2023-07-14T06:29:39Z</time>
      </trkpt>
      <trkpt lat="44.77915" lon="0.42852">
        <ele>96.6</ele>
        <time>2023-07-14T06:29:41Z</time>
      </trkpt>
      <trkpt lat="44.77914" lon="0.42855">
        <ele>96.7</ele>
        <time>2023-07-14T06:29:42Z</time>
      </trkpt>
      <trkpt lat="44.77914" lon="0.42857">
        <ele>96.8</ele>
        <time>2023-07-14T06:29:43Z</time>
      </trkpt>
      <trkpt lat="44.77913" lon="0.42862">
        <ele>97</ele>
        <time>2023-07-14T06:29:45Z</time>
      </trkpt>
      <trkpt lat="44.77912" lon="0.42867">
        <ele>97.2</ele>
        <time>2023-07-14T06:29:47Z</time>
      </trkpt>
      <trkpt lat="44.7791" lon="0.42871">
        <ele>97.3</ele>
        <time>2023-07-14T06:29:49Z</time>
      </trkpt>
      <trkpt lat="44.77908" lon="0.42875">
        <ele>97.5</ele>
        <time>2023-07-14T06:29:51Z</time>
      </trkpt>
      <trkpt lat="44.77908" lon="0.42878">
        <ele>97.6</ele>
        <time>2023-07-14T06:29:52Z</time>
      </trkpt>
      <trkpt lat="44.77907" lon="0.4288">
        <ele>97.6</ele>
        <time>2023-07-14T06:29:53Z</time>
      </trkpt>
      <trkpt lat="44.77906" lon="0.42884">
        <ele>97.7</ele>
        <time>2023-07-14T06:29:55Z</time>
      </trkpt>
      <trkpt lat="44.77904" lon="0.42886">
        <ele>97.8</ele>
        <time>2023-07-14T06:29:56Z</time>
      </trkpt>
      <trkpt lat="44.77903" lon="0.42887">
        <ele>97.8</ele>
        <time>2023-07-14T06:29:57Z</time>
      </trkpt>
      <trkpt lat="44.77901" lon="0.42887">
        <ele>97.8</ele>
        <time>2023-07-14T06:29:58Z</time>
      </trkpt>
      <trkpt lat="44.77899" lon="0.42886">
        <ele>97.7</ele>
        <time>2023-07-14T06:29:59Z</time>
      </trkpt>
      <trkpt lat="44.77894" lon="0.42884">
        <ele>97.5</ele>
        <time>2023-07-14T06:30:01Z</time>
      </trkpt>
      <trkpt lat="44.77888" lon="0.42881">
        <ele>97.3</ele>
        <time>2023-07-14T06:30:03Z</time>
      </trkpt>
      <trkpt lat="44.77882" lon="0.42877">
        <ele>97.1</ele>
        <time>2023-07-14T06:30:05Z</time>
      </trkpt>
      <trkpt lat="44.77875" lon="0.42871">
        <ele>96.5</ele>
        <time>2023-07-14T06:30:07Z</time>
      </trkpt>
      <trkpt lat="44.77871" lon="0.42868">
        <ele>96.3</ele>
        <time>2023-07-14T06:30:08Z</time>
      </trkpt>
      <trkpt lat="44.77866" lon="0.42864">
        <ele>96</ele>
        <time>2023-07-14T06:30:09Z</time>
      </trkpt>
      <trkpt lat="44.77857" lon="0.42857">
        <ele>95.3</ele>
        <time>2023-07-14T06:30:11Z</time>
      </trkpt>
      <trkpt lat="44.77846" lon="0.42848">
        <ele>94.6</ele>
        <time>2023-07-14T06:30:13Z</time>
      </trkpt>
      <trkpt lat="44.77834" lon="0.42839">
        <ele>93.9</ele>
        <time>2023-07-14T06:30:15Z</time>
      </trkpt>
      <trkpt lat="44.77824" lon="0.42831">
        <ele>93.4</ele>
        <time>2023-07-14T06:30:17Z</time>
      </trkpt>
      <trkpt lat="44.77818" lon="0.42832">
        <ele>93.4</ele>
        <time>2023-07-14T06:30:19Z</time>
      </trkpt>
      <trkpt lat="44.77817" lon="0.42836">
        <ele>93.5</ele>
        <time>2023-07-14T06:30:20Z</time>
      </trkpt>
      <trkpt lat="44.77816" lon="0.4284">
        <ele>93.7</ele>
        <time>2023-07-14T06:30:21Z</time>
      </trkpt>
      <trkpt lat="44.77815" lon="0.42845">
        <ele>93.8</ele>
        <time>2023-07-14T06:30:23Z</time>
      </trkpt>
      <trkpt lat="44.77813" lon="0.42851">
        <ele>94.1</ele>
        <time>2023-07-14T06:30:25Z</time>
      </trkpt>
      <trkpt lat="44.77811" lon="0.42853">
        <ele>94.3</ele>
        <time>2023-07-14T06:30:26Z</time>
      </trkpt>
      <trkpt lat="44.7781" lon="0.42856">
        <ele>94.5</ele>
        <time>2023-07-14T06:30:27Z</time>
      </trkpt>
      <trkpt lat="44.77808" lon="0.42862">
        <ele>94.8</ele>
        <time>2023-07-14T06:30:29Z</time>
      </trkpt>
      <trkpt lat="44.77806" lon="0.42867">
        <ele>95.1</ele>
        <time>2023-07-14T06:30:31Z</time>
      </trkpt>
      <trkpt lat="44.77804" lon="0.42872">
        <ele>95.3</ele>
        <time>2023-07-14T06:30:33Z</time>
      </trkpt>
      <trkpt lat="44.77802" lon="0.42875">
        <ele>95.6</ele>
        <time>2023-07-14T06:30:35Z</time>
      </trkpt>
      <trkpt lat="44.778" lon="0.42879">
        <ele>95.8</ele>
        <time>2023-07-14T06:30:37Z</time>
      </trkpt>
      <trkpt lat="44.77799" lon="0.42884">
        <ele>96.2</ele>
        <time>2023-07-14T06:30:39Z</time>
      </trkpt>
      <trkpt lat="44.77797" lon="0.42888">
        <ele>96.4</ele>
        <time>2023-07-14T06:30:41Z</time>
      </trkpt>
      <trkpt lat="44.77795" lon="0.42892">
        <ele>96.7</ele>
        <time>2023-07-14T06:30:43Z</time>
      </trkpt>
      <trkpt lat="44.77793" lon="0.42896">
        <ele>97</ele>
        <time>2023-07-14T06:30:45Z</time>
      </trkpt>
      <trkpt lat="44.77792" lon="0.429">
        <ele>97.2</ele>
        <time>2023-07-14T06:30:47Z</time>
      </trkpt>
      <trkpt lat="44.7779" lon="0.42904">
        <ele>97.5</ele>
        <time>2023-07-14T06:30:49Z</time>
      </trkpt>
      <trkpt lat="44.77788" lon="0.42908">
        <ele>97.7</ele>
        <time>2023-07-14T06:30:51Z</time>
      </trkpt>
      <trkpt lat="44.77786" lon="0.42912">
        <ele>98.1</ele>
        <time>2023-07-14T06:30:53Z</time>
      </trkpt>
      <trkpt lat="44.77785" lon="0.42916">
        <ele>98.3</ele>
        <time>2023-07-14T06:30:55Z</time>
      </trkpt>
      <trkpt lat="44.77783" lon="0.4292">
        <ele>98.4</ele>
        <time>2023-07-14T06:30:57Z</time>
      </trkpt>
      <trkpt lat="44.77781" lon="0.42924">
        <ele>98.8</ele>
        <time>2023-07-14T06:30:59Z</time>
      </trkpt>
      <trkpt lat="44.77779" lon="0.42927">
        <ele>99</ele>
        <time>2023-07-14T06:31:01Z</time>
      </trkpt>
      <trkpt lat="44.77778" lon="0.4293">
        <ele>99.4</ele>
        <time>2023-07-14T06:31:03Z</time>
      </trkpt>
      <trkpt lat="44.77776" lon="0.42934">
        <ele>99.6</ele>
        <time>2023-07-14T06:31:05Z</time>
      </trkpt>
      <trkpt lat="44.77775" lon="0.42937">
        <ele>100</ele>
        <time>2023-07-14T06:31:07Z</time>
      </trkpt>
      <trkpt lat="44.77773" lon="0.4294">
        <ele>100</ele>
        <time>2023-07-14T06:31:09Z</time>
      </trkpt>
      <trkpt lat="44.7777" lon="0.42942">
        <ele>100.3</ele>
        <time>2023-07-14T06:31:11Z</time>
      </trkpt>
      <trkpt lat="44.77767" lon="0.42943">
        <ele>100.4</ele>
        <time>2023-07-14T06:31:13Z</time>
      </trkpt>
      <trkpt lat="44.77763" lon="0.42943">
        <ele>100.6</ele>
        <time>2023-07-14T06:31:15Z</time>
      </trkpt>
      <trkpt lat="44.77759" lon="0.42941">
        <ele>100.4</ele>
        <time>2023-07-14T06:31:17Z</time>
      </trkpt>
      <trkpt lat="44.77755" lon="0.42939">
        <ele>100.5</ele>
        <time>2023-07-14T06:31:19Z</time>
      </trkpt>
      <trkpt lat="44.77752" lon="0.42936">
        <ele>100.5</ele>
        <time>2023-07-14T06:31:21Z</time>
      </trkpt>
      <trkpt lat="44.77748" lon="0.42934">
        <ele>100.7</ele>
        <time>2023-07-14T06:31:23Z</time>
      </trkpt>
      <trkpt lat="44.77744" lon="0.42932">
        <ele>100.7</ele>
        <time>2023-07-14T06:31:25Z</time>
      </trkpt>
      <trkpt lat="44.7774" lon="0.4293">
        <ele>100.9</ele>
        <time>2023-07-14T06:31:27Z</time>
      </trkpt>
      <trkpt lat="44.77736" lon="0.42928">
        <ele>101.2</ele>
        <time>2023-07-14T06:31:29Z</time>
      </trkpt>
      <trkpt lat="44.77732" lon="0.42927">
        <ele>101.4</ele>
        <time>2023-07-14T06:31:31Z</time>
      </trkpt>
      <trkpt lat="44.77728" lon="0.42927">
        <ele>101.7</ele>
        <time>2023-07-14T06:31:33Z</time>
      </trkpt>
      <trkpt lat="44.77725" lon="0.42925">
        <ele>102.1</ele>
        <time>2023-07-14T06:31:35Z</time>
      </trkpt>
      <trkpt lat="44.77722" lon="0.42924">
        <ele>102.3</ele>
        <time>2023-07-14T06:31:37Z</time>
      </trkpt>
      <trkpt lat="44.77718" lon="0.42923">
        <ele>102.7</ele>
        <time>2023-07-14T06:31:39Z</time>
      </trkpt>
      <trkpt lat="44.77715" lon="0.42923">
        <ele>103.1</ele>
        <time>2023-07-14T06:31:41Z</time>
      </trkpt>
      <trkpt lat="44.77712" lon="0.42923">
        <ele>103.5</ele>
        <time>2023-07-14T06:31:43Z</time>
      </trkpt>
      <trkpt lat="44.7771" lon="0.42923">
        <ele>103.9</ele>
        <time>2023-07-14T06:31:44Z</time>
      </trkpt>
      <trkpt lat="44.77709" lon="0.42923">
        <ele>103.9</ele>
        <time>2023-07-14T06:31:45Z</time>
      </trkpt>
      <trkpt lat="44.77705" lon="0.42921">
        <ele>104.3</ele>
        <time>2023-07-14T06:31:47Z</time>
      </trkpt>
      <trkpt lat="44.77702" lon="0.42919">
        <ele>104.8</ele>
        <time>2023-07-14T06:31:49Z</time>
      </trkpt>
      <trkpt lat="44.77699" lon="0.42918">
        <ele>105.2</ele>
        <time>2023-07-14T06:31:51Z</time>
      </trkpt>
      <trkpt lat="44.77695" lon="0.42917">
        <ele>105.5</ele>
        <time>2023-07-14T06:31:53Z</time>
      </trkpt>
      <trkpt lat="44.77692" lon="0.42916">
        <ele>105.9</ele>
        <time>2023-07-14T06:31:55Z</time>
      </trkpt>
      <trkpt lat="44.7769" lon="0.42915">
        <ele>106</ele>
        <time>2023-07-14T06:31:56Z</time>
      </trkpt>
      <trkpt lat="44.77688" lon="0.42914">
        <ele>106</ele>
        <time>2023-07-14T06:31:57Z</time>
      </trkpt>
      <trkpt lat="44.77685" lon="0.42913">
        <ele>106.3</ele>
        <time>2023-07-14T06:31:59Z</time>
      </trkpt>
      <trkpt lat="44.77681" lon="0.42912">
        <ele>106.6</ele>
        <time>2023-07-14T06:32:01Z</time>
      </trkpt>
      <trkpt lat="44.77677" lon="0.4291">
        <ele>107</ele>
        <time>2023-07-14T06:32:03Z</time>
      </trkpt>
      <trkpt lat="44.77673" lon="0.42909">
        <ele>107.4</ele>
        <time>2023-07-14T06:32:05Z</time>
      </trkpt>
      <trkpt lat="44.77669" lon="0.42908">
        <ele>107.8</ele>
        <time>2023-07-14T06:32:07Z</time>
      </trkpt>
      <trkpt lat="44.77665" lon="0.42906">
        <ele>108.3</ele>
        <time>2023-07-14T06:32:09Z</time>
      </trkpt>
      <trkpt lat="44.7766" lon="0.42905">
        <ele>108.7</ele>
        <time>2023-07-14T06:32:11Z</time>
      </trkpt>
      <trkpt lat="44.77656" lon="0.42903">
        <ele>109.3</ele>
        <time>2023-07-14T06:32:13Z</time>
      </trkpt>
      <trkpt lat="44.77651" lon="0.42903">
        <ele>109.6</ele>
        <time>2023-07-14T06:32:15Z</time>
      </trkpt>
      <trkpt lat="44.77645" lon="0.42903">
        <ele>110.1</ele>
        <time>2023-07-14T06:32:17Z</time>
      </trkpt>
      <trkpt lat="44.7764" lon="0.42902">
        <ele>110.6</ele>
        <time>2023-07-14T06:32:19Z</time>
      </trkpt>
      <trkpt lat="44.77634" lon="0.42902">
        <ele>111</ele>
        <time>2023-07-14T06:32:21Z</time>
      </trkpt>
      <trkpt lat="44.77628" lon="0.42901">
        <ele>111.3</ele>
        <time>2023-07-14T06:32:23Z</time>
      </trkpt>
      <trkpt lat="44.77622" lon="0.429">
        <ele>111.6</ele>
        <time>2023-07-14T06:32:25Z</time>
      </trkpt>
      <trkpt lat="44.77615" lon="0.42898">
        <ele>111.7</ele>
        <time>2023-07-14T06:32:27Z</time>
      </trkpt>
      <trkpt lat="44.77608" lon="0.42896">
        <ele>112</ele>
        <time>2023-07-14T06:32:29Z</time>
      </trkpt>
      <trkpt lat="44.77602" lon="0.42894">
        <ele>112.1</ele>
        <time>2023-07-14T06:32:31Z</time>
      </trkpt>
      <trkpt lat="44.77597" lon="0.42892">
        <ele>112.2</ele>
        <time>2023-07-14T06:32:33Z</time>
      </trkpt>
      <trkpt lat="44.77591" lon="0.42889">
        <ele>112.3</ele>
        <time>2023-07-14T06:32:35Z</time>
      </trkpt>
      <trkpt lat="44.77588" lon="0.42886">
        <ele>112.3</ele>
        <time>2023-07-14T06:32:36Z</time>
      </trkpt>
      <trkpt lat="44.77586" lon="0.42883">
        <ele>112.4</ele>
        <time>2023-07-14T06:32:37Z</time>
      </trkpt>
      <trkpt lat="44.77587" lon="0.4288">
        <ele>112.3</ele>
        <time>2023-07-14T06:32:38Z</time>
      </trkpt>
      <trkpt lat="44.77588" lon="0.42876">
        <ele>112.3</ele>
        <time>2023-07-14T06:32:39Z</time>
      </trkpt>
      <trkpt lat="44.7759" lon="0.42872">
        <ele>112.3</ele>
        <time>2023-07-14T06:32:40Z</time>
      </trkpt>
      <trkpt lat="44.77591" lon="0.42867">
        <ele>112.2</ele>
        <time>2023-07-14T06:32:41Z</time>
      </trkpt>
      <trkpt lat="44.77591" lon="0.42856">
        <ele>112.1</ele>
        <time>2023-07-14T06:32:43Z</time>
      </trkpt>
      <trkpt lat="44.77589" lon="0.42852">
        <ele>112.2</ele>
        <time>2023-07-14T06:32:44Z</time>
      </trkpt>
      <trkpt lat="44.77586" lon="0.42848">
        <ele>112.2</ele>
        <time>2023-07-14T06:32:45Z</time>
      </trkpt>
      <trkpt lat="44.77583" lon="0.42845">
        <ele>112.3</ele>
        <time>2023-07-14T06:32:46Z</time>
      </trkpt>
      <trkpt lat="44.7758" lon="0.42842">
        <ele>112.3</ele>
        <time>2023-07-14T06:32:47Z</time>
      </trkpt>
      <trkpt lat="44.77574" lon="0.42834">
        <ele>112.2</ele>
        <time>2023-07-14T06:32:49Z</time>
      </trkpt>
      <trkpt lat="44.7757" lon="0.4283">
        <ele>112.1</ele>
        <time>2023-07-14T06:32:50Z</time>
      </trkpt>
      <trkpt lat="44.77566" lon="0.42826">
        <ele>112.1</ele>
        <time>2023-07-14T06:32:51Z</time>
      </trkpt>
      <trkpt lat="44.77561" lon="0.42821">
        <ele>111.9</ele>
        <time>2023-07-14T06:32:53Z</time>
      </trkpt>
      <trkpt lat="44.77558" lon="0.42819">
        <ele>111.7</ele>
        <time>2023-07-14T06:32:55Z</time>
      </trkpt>
      <trkpt lat="44.77555" lon="0.42818">
        <ele>111.6</ele>
        <time>2023-07-14T06:32:57Z</time>
      </trkpt>
      <trkpt lat="44.77553" lon="0.42816">
        <ele>111.4</ele>
        <time>2023-07-14T06:32:58Z</time>
      </trkpt>
      <trkpt lat="44.7755" lon="0.42814">
        <ele>111.4</ele>
        <time>2023-07-14T06:32:59Z</time>
      </trkpt>
      <trkpt lat="44.77548" lon="0.4281">
        <ele>111.1</ele>
        <time>2023-07-14T06:33:00Z</time>
      </trkpt>
      <trkpt lat="44.77546" lon="0.42806">
        <ele>110.8</ele>
        <time>2023-07-14T06:33:01Z</time>
      </trkpt>
      <trkpt lat="44.77544" lon="0.42802">
        <ele>110.6</ele>
        <time>2023-07-14T06:33:02Z</time>
      </trkpt>
      <trkpt lat="44.77542" lon="0.42799">
        <ele>110.3</ele>
        <time>2023-07-14T06:33:03Z</time>
      </trkpt>
      <trkpt lat="44.7754" lon="0.42794">
        <ele>110.1</ele>
        <time>2023-07-14T06:33:05Z</time>
      </trkpt>
      <trkpt lat="44.77539" lon="0.42792">
        <ele>110.1</ele>
        <time>2023-07-14T06:33:06Z</time>
      </trkpt>
      <trkpt lat="44.77536" lon="0.42788">
        <ele>109.9</ele>
        <time>2023-07-14T06:33:07Z</time>
      </trkpt>
      <trkpt lat="44.77533" lon="0.4278">
        <ele>109.4</ele>
        <time>2023-07-14T06:33:09Z</time>
      </trkpt>
      <trkpt lat="44.77529" lon="0.42773">
        <ele>108.9</ele>
        <time>2023-07-14T06:33:11Z</time>
      </trkpt>
      <trkpt lat="44.77528" lon="0.4277">
        <ele>108.9</ele>
        <time>2023-07-14T06:33:12Z</time>
      </trkpt>
      <trkpt lat="44.77526" lon="0.42765">
        <ele>108.4</ele>
        <time>2023-07-14T06:33:13Z</time>
      </trkpt>
      <trkpt lat="44.77524" lon="0.42757">
        <ele>108.1</ele>
        <time>2023-07-14T06:33:15Z</time>
      </trkpt>
      <trkpt lat="44.77521" lon="0.42746">
        <ele>107.3</ele>
        <time>2023-07-14T06:33:17Z</time>
      </trkpt>
      <trkpt lat="44.77519" lon="0.42743">
        <ele>107.1</ele>
        <time>2023-07-14T06:33:18Z</time>
      </trkpt>
      <trkpt lat="44.77518" lon="0.42741">
        <ele>107.1</ele>
        <time>2023-07-14T06:33:19Z</time>
      </trkpt>
      <trkpt lat="44.77516" lon="0.42737">
        <ele>106.8</ele>
        <time>2023-07-14T06:33:20Z</time>
      </trkpt>
      <trkpt lat="44.77516" lon="0.42733">
        <ele>106.6</ele>
        <time>2023-07-14T06:33:21Z</time>
      </trkpt>
      <trkpt lat="44.77517" lon="0.42724">
        <ele>106</ele>
        <time>2023-07-14T06:33:23Z</time>
      </trkpt>
      <trkpt lat="44.77522" lon="0.42714">
        <ele>105.4</ele>
        <time>2023-07-14T06:33:25Z</time>
      </trkpt>
      <trkpt lat="44.77525" lon="0.42706">
        <ele>104.7</ele>
        <time>2023-07-14T06:33:27Z</time>
      </trkpt>
      <trkpt lat="44.77526" lon="0.42699">
        <ele>103.9</ele>
        <time>2023-07-14T06:33:29Z</time>
      </trkpt>
      <trkpt lat="44.77525" lon="0.42691">
        <ele>103.3</ele>
        <time>2023-07-14T06:33:31Z</time>
      </trkpt>
      <trkpt lat="44.77522" lon="0.42686">
        <ele>103.1</ele>
        <time>2023-07-14T06:33:33Z</time>
      </trkpt>
      <trkpt lat="44.7752" lon="0.42687">
        <ele>103.1</ele>
        <time>2023-07-14T06:33:35Z</time>
      </trkpt>
      <trkpt lat="44.77518" lon="0.42681">
        <ele>103</ele>
        <time>2023-07-14T06:33:38Z</time>
      </trkpt>
      <trkpt lat="44.77517" lon="0.42678">
        <ele>102.7</ele>
        <time>2023-07-14T06:33:39Z</time>
      </trkpt>
      <trkpt lat="44.77514" lon="0.42675">
        <ele>102.9</ele>
        <time>2023-07-14T06:33:41Z</time>
      </trkpt>
      <trkpt lat="44.77512" lon="0.42674">
        <ele>102.8</ele>
        <time>2023-07-14T06:33:42Z</time>
      </trkpt>
      <trkpt lat="44.7751" lon="0.42671">
        <ele>103</ele>
        <time>2023-07-14T06:33:43Z</time>
      </trkpt>
      <trkpt lat="44.77505" lon="0.42666">
        <ele>102.7</ele>
        <time>2023-07-14T06:33:45Z</time>
      </trkpt>
      <trkpt lat="44.77501" lon="0.42662">
        <ele>102.9</ele>
        <time>2023-07-14T06:33:47Z</time>
      </trkpt>
      <trkpt lat="44.77496" lon="0.42659">
        <ele>103.1</ele>
        <time>2023-07-14T06:33:49Z</time>
      </trkpt>
      <trkpt lat="44.7749" lon="0.42656">
        <ele>103.2</ele>
        <time>2023-07-14T06:33:51Z</time>
      </trkpt>
      <trkpt lat="44.77488" lon="0.42654">
        <ele>103.4</ele>
        <time>2023-07-14T06:33:52Z</time>
      </trkpt>
      <trkpt lat="44.77485" lon="0.42654">
        <ele>103.5</ele>
        <time>2023-07-14T06:33:53Z</time>
      </trkpt>
      <trkpt lat="44.77483" lon="0.42654">
        <ele>103.7</ele>
        <time>2023-07-14T06:33:54Z</time>
      </trkpt>
      <trkpt lat="44.77481" lon="0.42656">
        <ele>103.7</ele>
        <time>2023-07-14T06:33:55Z</time>
      </trkpt>
      <trkpt lat="44.7748" lon="0.42656">
        <ele>103.7</ele>
        <time>2023-07-14T06:33:56Z</time>
      </trkpt>
      <trkpt lat="44.77478" lon="0.42658">
        <ele>104.2</ele>
        <time>2023-07-14T06:33:57Z</time>
      </trkpt>
      <trkpt lat="44.77476" lon="0.42662">
        <ele>104.3</ele>
        <time>2023-07-14T06:33:59Z</time>
      </trkpt>
      <trkpt lat="44.77474" lon="0.42664">
        <ele>104.7</ele>
        <time>2023-07-14T06:34:01Z</time>
      </trkpt>
      <trkpt lat="44.77471" lon="0.42665">
        <ele>104.7</ele>
        <time>2023-07-14T06:34:03Z</time>
      </trkpt>
      <trkpt lat="44.77467" lon="0.42667">
        <ele>105.1</ele>
        <time>2023-07-14T06:34:05Z</time>
      </trkpt>
      <trkpt lat="44.77463" lon="0.42669">
        <ele>105.2</ele>
        <time>2023-07-14T06:34:07Z</time>
      </trkpt>
      <trkpt lat="44.77459" lon="0.42671">
        <ele>105.5</ele>
        <time>2023-07-14T06:34:09Z</time>
      </trkpt>
      <trkpt lat="44.77454" lon="0.42672">
        <ele>105.5</ele>
        <time>2023-07-14T06:34:11Z</time>
      </trkpt>
      <trkpt lat="44.77452" lon="0.42674">
        <ele>105.6</ele>
        <time>2023-07-14T06:34:13Z</time>
      </trkpt>
      <trkpt lat="44.7745" lon="0.42675">
        <ele>105.6</ele>
        <time>2023-07-14T06:34:15Z</time>
      </trkpt>
      <trkpt lat="44.77449" lon="0.42675">
        <ele>105.8</ele>
        <time>2023-07-14T06:34:16Z</time>
      </trkpt>
      <trkpt lat="44.77447" lon="0.42675">
        <ele>105.8</ele>
        <time>2023-07-14T06:34:17Z</time>
      </trkpt>
      <trkpt lat="44.77442" lon="0.42677">
        <ele>105.8</ele>
        <time>2023-07-14T06:34:19Z</time>
      </trkpt>
      <trkpt lat="44.77439" lon="0.42679">
        <ele>105.8</ele>
        <time>2023-07-14T06:34:21Z</time>
      </trkpt>
      <trkpt lat="44.77436" lon="0.4268">
        <ele>106</ele>
        <time>2023-07-14T06:34:23Z</time>
      </trkpt>
      <trkpt lat="44.77434" lon="0.42682">
        <ele>106</ele>
        <time>2023-07-14T06:34:25Z</time>
      </trkpt>
      <trkpt lat="44.77434" lon="0.42682">
        <ele>106</ele>
        <time>2023-07-14T06:34:26Z</time>
      </trkpt>
      <trkpt lat="44.77433" lon="0.42684">
        <ele>106.2</ele>
        <time>2023-07-14T06:34:27Z</time>
      </trkpt>
      <trkpt lat="44.77433" lon="0.42686">
        <ele>106.2</ele>
        <time>2023-07-14T06:34:28Z</time>
      </trkpt>
      <trkpt lat="44.77432" lon="0.42687">
        <ele>106.2</ele>
        <time>2023-07-14T06:34:29Z</time>
      </trkpt>
      <trkpt lat="44.7743" lon="0.42689">
        <ele>106.4</ele>
        <time>2023-07-14T06:34:30Z</time>
      </trkpt>
      <trkpt lat="44.77422" lon="0.42709">
        <ele>106.9</ele>
        <time>2023-07-14T06:34:41Z</time>
      </trkpt>
      <trkpt lat="44.77423" lon="0.42711">
        <ele>107.1</ele>
        <time>2023-07-14T06:34:42Z</time>
      </trkpt>
      <trkpt lat="44.77424" lon="0.42714">
        <ele>107.2</ele>
        <time>2023-07-14T06:34:43Z</time>
      </trkpt>
      <trkpt lat="44.77424" lon="0.4272">
        <ele>107.3</ele>
        <time>2023-07-14T06:34:45Z</time>
      </trkpt>
      <trkpt lat="44.77425" lon="0.42725">
        <ele>107.3</ele>
        <time>2023-07-14T06:34:47Z</time>
      </trkpt>
      <trkpt lat="44.77425" lon="0.42728">
        <ele>107.4</ele>
        <time>2023-07-14T06:34:48Z</time>
      </trkpt>
      <trkpt lat="44.77425" lon="0.42731">
        <ele>107.4</ele>
        <time>2023-07-14T06:34:49Z</time>
      </trkpt>
      <trkpt lat="44.77424" lon="0.42736">
        <ele>107.5</ele>
        <time>2023-07-14T06:34:51Z</time>
      </trkpt>
      <trkpt lat="44.77423" lon="0.42743">
        <ele>107.6</ele>
        <time>2023-07-14T06:34:53Z</time>
      </trkpt>
      <trkpt lat="44.77422" lon="0.42748">
        <ele>107.7</ele>
        <time>2023-07-14T06:34:55Z</time>
      </trkpt>
      <trkpt lat="44.77422" lon="0.42754">
        <ele>107.8</ele>
        <time>2023-07-14T06:34:57Z</time>
      </trkpt>
      <trkpt lat="44.77421" lon="0.4276">
        <ele>107.9</ele>
        <time>2023-07-14T06:34:59Z</time>
      </trkpt>
      <trkpt lat="44.77421" lon="0.42766">
        <ele>108</ele>
        <time>2023-07-14T06:35:01Z</time>
      </trkpt>
      <trkpt lat="44.7742" lon="0.42772">
        <ele>108.1</ele>
        <time>2023-07-14T06:35:03Z</time>
      </trkpt>
      <trkpt lat="44.77419" lon="0.42778">
        <ele>108.2</ele>
        <time>2023-07-14T06:35:05Z</time>
      </trkpt>
      <trkpt lat="44.77419" lon="0.42784">
        <ele>108.2</ele>
        <time>2023-07-14T06:35:07Z</time>
      </trkpt>
      <trkpt lat="44.77418" lon="0.4279">
        <ele>108.3</ele>
        <time>2023-07-14T06:35:09Z</time>
      </trkpt>
      <trkpt lat="44.77418" lon="0.42797">
        <ele>108.3</ele>
        <time>2023-07-14T06:35:11Z</time>
      </trkpt>
      <trkpt lat="44.77417" lon="0.42803">
        <ele>108.3</ele>
        <time>2023-07-14T06:35:13Z</time>
      </trkpt>
      <trkpt lat="44.77416" lon="0.42808">
        <ele>108.4</ele>
        <time>2023-07-14T06:35:15Z</time>
      </trkpt>
      <trkpt lat="44.77415" lon="0.42814">
        <ele>108.4</ele>
        <time>2023-07-14T06:35:17Z</time>
      </trkpt>
      <trkpt lat="44.77414" lon="0.4282">
        <ele>108.5</ele>
        <time>2023-07-14T06:35:19Z</time>
      </trkpt>
      <trkpt lat="44.77413" lon="0.42827">
        <ele>108.5</ele>
        <time>2023-07-14T06:35:21Z</time>
      </trkpt>
      <trkpt lat="44.77412" lon="0.4283">
        <ele>108.5</ele>
        <time>2023-07-14T06:35:22Z</time>
      </trkpt>
      <trkpt lat="44.77411" lon="0.42833">
        <ele>108.5</ele>
        <time>2023-07-14T06:35:23Z</time>
      </trkpt>
      <trkpt lat="44.77409" lon="0.42839">
        <ele>108.6</ele>
        <time>2023-07-14T06:35:25Z</time>
      </trkpt>
      <trkpt lat="44.77408" lon="0.42845">
        <ele>108.6</ele>
        <time>2023-07-14T06:35:27Z</time>
      </trkpt>
      <trkpt lat="44.77406" lon="0.42852">
        <ele>108.7</ele>
        <time>2023-07-14T06:35:29Z</time>
      </trkpt>
      <trkpt lat="44.77405" lon="0.42859">
        <ele>108.7</ele>
        <time>2023-07-14T06:35:31Z</time>
      </trkpt>
      <trkpt lat="44.77403" lon="0.42865">
        <ele>108.7</ele>
        <time>2023-07-14T06:35:33Z</time>
      </trkpt>
      <trkpt lat="44.77402" lon="0.42872">
        <ele>108.7</ele>
        <time>2023-07-14T06:35:35Z</time>
      </trkpt>
      <trkpt lat="44.774" lon="0.42879">
        <ele>108.7</ele>
        <time>2023-07-14T06:35:37Z</time>
      </trkpt>
      <trkpt lat="44.77399" lon="0.42886">
        <ele>108.7</ele>
        <time>2023-07-14T06:35:39Z</time>
      </trkpt>
      <trkpt lat="44.77398" lon="0.42893">
        <ele>108.6</ele>
        <time>2023-07-14T06:35:41Z</time>
      </trkpt>
      <trkpt lat="44.77397" lon="0.42901">
        <ele>108.6</ele>
        <time>2023-07-14T06:35:43Z</time>
      </trkpt>
      <trkpt lat="44.77396" lon="0.42909">
        <ele>108.6</ele>
        <time>2023-07-14T06:35:45Z</time>
      </trkpt>
      <trkpt lat="44.77395" lon="0.42917">
        <ele>108.5</ele>
        <time>2023-07-14T06:35:47Z</time>
      </trkpt>
      <trkpt lat="44.77394" lon="0.42925">
        <ele>108.5</ele>
        <time>2023-07-14T06:35:49Z</time>
      </trkpt>
      <trkpt lat="44.77392" lon="0.42933">
        <ele>108.5</ele>
        <time>2023-07-14T06:35:51Z</time>
      </trkpt>
      <trkpt lat="44.77392" lon="0.4294">
        <ele>108.6</ele>
        <time>2023-07-14T06:35:53Z</time>
      </trkpt>
      <trkpt lat="44.77392" lon="0.42944">
        <ele>108.6</ele>
        <time>2023-07-14T06:35:54Z</time>
      </trkpt>
      <trkpt lat="44.77392" lon="0.42947">
        <ele>108.6</ele>
        <time>2023-07-14T06:35:55Z</time>
      </trkpt>
      <trkpt lat="44.77396" lon="0.42953">
        <ele>108.7</ele>
        <time>2023-07-14T06:35:57Z</time>
      </trkpt>
      <trkpt lat="44.77399" lon="0.42954">
        <ele>108.8</ele>
        <time>2023-07-14T06:35:58Z</time>
      </trkpt>
      <trkpt lat="44.77401" lon="0.42956">
        <ele>108.8</ele>
        <time>2023-07-14T06:35:59Z</time>
      </trkpt>
      <trkpt lat="44.77407" lon="0.42959">
        <ele>108.7</ele>
        <time>2023-07-14T06:36:01Z</time>
      </trkpt>
      <trkpt lat="44.77411" lon="0.42965">
        <ele>108.6</ele>
        <time>2023-07-14T06:36:03Z</time>
      </trkpt>
      <trkpt lat="44.77411" lon="0.42969">
        <ele>108.5</ele>
        <time>2023-07-14T06:36:04Z</time>
      </trkpt>
      <trkpt lat="44.77411" lon="0.42973">
        <ele>108.4</ele>
        <time>2023-07-14T06:36:05Z</time>
      </trkpt>
      <trkpt lat="44.77409" lon="0.42981">
        <ele>108.1</ele>
        <time>2023-07-14T06:36:07Z</time>
      </trkpt>
      <trkpt lat="44.77407" lon="0.42986">
        <ele>107.9</ele>
        <time>2023-07-14T06:36:08Z</time>
      </trkpt>
      <trkpt lat="44.77406" lon="0.42991">
        <ele>107.7</ele>
        <time>2023-07-14T06:36:09Z</time>
      </trkpt>
      <trkpt lat="44.77402" lon="0.43002">
        <ele>107.2</ele>
        <time>2023-07-14T06:36:11Z</time>
      </trkpt>
      <trkpt lat="44.77396" lon="0.43015">
        <ele>106.6</ele>
        <time>2023-07-14T06:36:13Z</time>
      </trkpt>
      <trkpt lat="44.77389" lon="0.43026">
        <ele>105.9</ele>
        <time>2023-07-14T06:36:15Z</time>
      </trkpt>
      <trkpt lat="44.77387" lon="0.43032">
        <ele>105.5</ele>
        <time>2023-07-14T06:36:16Z</time>
      </trkpt>
      <trkpt lat="44.77386" lon="0.43038">
        <ele>104.1</ele>
        <time>2023-07-14T06:36:17Z</time>
      </trkpt>
      <trkpt lat="44.77387" lon="0.43045">
        <ele>103.8</ele>
        <time>2023-07-14T06:36:18Z</time>
      </trkpt>
      <trkpt lat="44.77389" lon="0.43051">
        <ele>103.7</ele>
        <time>2023-07-14T06:36:19Z</time>
      </trkpt>
      <trkpt lat="44.77392" lon="0.43056">
        <ele>103.6</ele>
        <time>2023-07-14T06:36:20Z</time>
      </trkpt>
      <trkpt lat="44.77395" lon="0.43061">
        <ele>103.6</ele>
        <time>2023-07-14T06:36:21Z</time>
      </trkpt>
      <trkpt lat="44.77399" lon="0.43065">
        <ele>103.7</ele>
        <time>2023-07-14T06:36:22Z</time>
      </trkpt>
      <trkpt lat="44.77402" lon="0.4307">
        <ele>103.8</ele>
        <time>2023-07-14T06:36:23Z</time>
      </trkpt>
      <trkpt lat="44.77407" lon="0.4308">
        <ele>104.1</ele>
        <time>2023-07-14T06:36:25Z</time>
      </trkpt>
      <trkpt lat="44.77413" lon="0.43091">
        <ele>104.2</ele>
        <time>2023-07-14T06:36:27Z</time>
      </trkpt>
      <trkpt lat="44.77418" lon="0.43101">
        <ele>104.3</ele>
        <time>2023-07-14T06:36:29Z</time>
      </trkpt>
      <trkpt lat="44.77421" lon="0.43106">
        <ele>104.4</ele>
        <time>2023-07-14T06:36:30Z</time>
      </trkpt>
      <trkpt lat="44.77424" lon="0.43111">
        <ele>104.5</ele>
        <time>2023-07-14T06:36:31Z</time>
      </trkpt>
      <trkpt lat="44.77427" lon="0.43116">
        <ele>104.6</ele>
        <time>2023-07-14T06:36:32Z</time>
      </trkpt>
      <trkpt lat="44.77429" lon="0.43121">
        <ele>104.6</ele>
        <time>2023-07-14T06:36:33Z</time>
      </trkpt>
      <trkpt lat="44.77435" lon="0.43131">
        <ele>104.7</ele>
        <time>2023-07-14T06:36:35Z</time>
      </trkpt>
      <trkpt lat="44.7744" lon="0.43141">
        <ele>104.9</ele>
        <time>2023-07-14T06:36:37Z</time>
      </trkpt>
      <trkpt lat="44.77446" lon="0.43151">
        <ele>104.9</ele>
        <time>2023-07-14T06:36:39Z</time>
      </trkpt>
      <trkpt lat="44.77449" lon="0.43156">
        <ele>104.9</ele>
        <time>2023-07-14T06:36:40Z</time>
      </trkpt>
      <trkpt lat="44.77452" lon="0.43161">
        <ele>104.9</ele>
        <time>2023-07-14T06:36:41Z</time>
      </trkpt>
      <trkpt lat="44.77458" lon="0.43172">
        <ele>105</ele>
        <time>2023-07-14T06:36:43Z</time>
      </trkpt>
      <trkpt lat="44.77463" lon="0.43181">
        <ele>105.2</ele>
        <time>2023-07-14T06:36:45Z</time>
      </trkpt>
      <trkpt lat="44.77469" lon="0.4319">
        <ele>105.3</ele>
        <time>2023-07-14T06:36:47Z</time>
      </trkpt>
      <trkpt lat="44.77472" lon="0.43195">
        <ele>105.3</ele>
        <time>2023-07-14T06:36:48Z</time>
      </trkpt>
      <trkpt lat="44.77475" lon="0.432">
        <ele>105.3</ele>
        <time>2023-07-14T06:36:49Z</time>
      </trkpt>
      <trkpt lat="44.7748" lon="0.43209">
        <ele>105.4</ele>
        <time>2023-07-14T06:36:51Z</time>
      </trkpt>
      <trkpt lat="44.77486" lon="0.4322">
        <ele>105.5</ele>
        <time>2023-07-14T06:36:53Z</time>
      </trkpt>
      <trkpt lat="44.77493" lon="0.43231">
        <ele>105.6</ele>
        <time>2023-07-14T06:36:55Z</time>
      </trkpt>
      <trkpt lat="44.77499" lon="0.43243">
        <ele>105.6</ele>
        <time>2023-07-14T06:36:57Z</time>
      </trkpt>
      <trkpt lat="44.77504" lon="0.43252">
        <ele>105.7</ele>
        <time>2023-07-14T06:36:59Z</time>
      </trkpt>
      <trkpt lat="44.7751" lon="0.43261">
        <ele>105.9</ele>
        <time>2023-07-14T06:37:01Z</time>
      </trkpt>
      <trkpt lat="44.77517" lon="0.4327">
        <ele>106.1</ele>
        <time>2023-07-14T06:37:03Z</time>
      </trkpt>
      <trkpt lat="44.77525" lon="0.4328">
        <ele>106.3</ele>
        <time>2023-07-14T06:37:05Z</time>
      </trkpt>
      <trkpt lat="44.77531" lon="0.43288">
        <ele>106.5</ele>
        <time>2023-07-14T06:37:07Z</time>
      </trkpt>
      <trkpt lat="44.77537" lon="0.43298">
        <ele>106.8</ele>
        <time>2023-07-14T06:37:09Z</time>
      </trkpt>
      <trkpt lat="44.77542" lon="0.43307">
        <ele>107</ele>
        <time>2023-07-14T06:37:11Z</time>
      </trkpt>
      <trkpt lat="44.77543" lon="0.4331">
        <ele>107.1</ele>
        <time>2023-07-14T06:37:12Z</time>
      </trkpt>
      <trkpt lat="44.77545" lon="0.43314">
        <ele>107.2</ele>
        <time>2023-07-14T06:37:13Z</time>
      </trkpt>
      <trkpt lat="44.77549" lon="0.43321">
        <ele>107.3</ele>
        <time>2023-07-14T06:37:15Z</time>
      </trkpt>
      <trkpt lat="44.77553" lon="0.43325">
        <ele>107.4</ele>
        <time>2023-07-14T06:37:16Z</time>
      </trkpt>
      <trkpt lat="44.77557" lon="0.4333">
        <ele>107.5</ele>
        <time>2023-07-14T06:37:17Z</time>
      </trkpt>
      <trkpt lat="44.77561" lon="0.43342">
        <ele>107.6</ele>
        <time>2023-07-14T06:37:19Z</time>
      </trkpt>
      <trkpt lat="44.77564" lon="0.43352">
        <ele>107.9</ele>
        <time>2023-07-14T06:37:21Z</time>
      </trkpt>
      <trkpt lat="44.77564" lon="0.43357">
        <ele>107.8</ele>
        <time>2023-07-14T06:37:22Z</time>
      </trkpt>
      <trkpt lat="44.77563" lon="0.43361">
        <ele>107.6</ele>
        <time>2023-07-14T06:37:23Z</time>
      </trkpt>
      <trkpt lat="44.77562" lon="0.43364">
        <ele>107.3</ele>
        <time>2023-07-14T06:37:24Z</time>
      </trkpt>
      <trkpt lat="44.7756" lon="0.43366">
        <ele>107.1</ele>
        <time>2023-07-14T06:37:25Z</time>
      </trkpt>
      <trkpt lat="44.77557" lon="0.43369">
        <ele>106.8</ele>
        <time>2023-07-14T06:37:26Z</time>
      </trkpt>
      <trkpt lat="44.77554" lon="0.43372">
        <ele>106.3</ele>
        <time>2023-07-14T06:37:27Z</time>
      </trkpt>
      <trkpt lat="44.77547" lon="0.43378">
        <ele>105.4</ele>
        <time>2023-07-14T06:37:29Z</time>
      </trkpt>
      <trkpt lat="44.77544" lon="0.43382">
        <ele>104.9</ele>
        <time>2023-07-14T06:37:30Z</time>
      </trkpt>
      <trkpt lat="44.77538" lon="0.43389">
        <ele>104.2</ele>
        <time>2023-07-14T06:37:31Z</time>
      </trkpt>
      <trkpt lat="44.77533" lon="0.43396">
        <ele>103.8</ele>
        <time>2023-07-14T06:37:32Z</time>
      </trkpt>
      <trkpt lat="44.77528" lon="0.43403">
        <ele>103.4</ele>
        <time>2023-07-14T06:37:33Z</time>
      </trkpt>
      <trkpt lat="44.77523" lon="0.43408">
        <ele>103.2</ele>
        <time>2023-07-14T06:37:34Z</time>
      </trkpt>
      <trkpt lat="44.77517" lon="0.43411">
        <ele>102.9</ele>
        <time>2023-07-14T06:37:35Z</time>
      </trkpt>
      <trkpt lat="44.77511" lon="0.43414">
        <ele>102.6</ele>
        <time>2023-07-14T06:37:36Z</time>
      </trkpt>
      <trkpt lat="44.77504" lon="0.4342">
        <ele>102.1</ele>
        <time>2023-07-14T06:37:37Z</time>
      </trkpt>
      <trkpt lat="44.77491" lon="0.43429">
        <ele>101.3</ele>
        <time>2023-07-14T06:37:39Z</time>
      </trkpt>
      <trkpt lat="44.77478" lon="0.43434">
        <ele>100.6</ele>
        <time>2023-07-14T06:37:41Z</time>
      </trkpt>
      <trkpt lat="44.7747" lon="0.43436">
        <ele>100.1</ele>
        <time>2023-07-14T06:37:42Z</time>
      </trkpt>
      <trkpt lat="44.77462" lon="0.43439">
        <ele>99.6</ele>
        <time>2023-07-14T06:37:43Z</time>
      </trkpt>
      <trkpt lat="44.77455" lon="0.43448">
        <ele>99</ele>
        <time>2023-07-14T06:37:45Z</time>
      </trkpt>
      <trkpt lat="44.77451" lon="0.4346">
        <ele>98.6</ele>
        <time>2023-07-14T06:37:47Z</time>
      </trkpt>
      <trkpt lat="44.77449" lon="0.43471">
        <ele>98.4</ele>
        <time>2023-07-14T06:37:49Z</time>
      </trkpt>
      <trkpt lat="44.77447" lon="0.43474">
        <ele>98.3</ele>
        <time>2023-07-14T06:37:50Z</time>
      </trkpt>
      <trkpt lat="44.77443" lon="0.43479">
        <ele>98.3</ele>
        <time>2023-07-14T06:37:51Z</time>
      </trkpt>
      <trkpt lat="44.77441" lon="0.43479">
        <ele>98.3</ele>
        <time>2023-07-14T06:37:52Z</time>
      </trkpt>
      <trkpt lat="44.77438" lon="0.43478">
        <ele>98.3</ele>
        <time>2023-07-14T06:37:53Z</time>
      </trkpt>
      <trkpt lat="44.77437" lon="0.43478">
        <ele>98.4</ele>
        <time>2023-07-14T06:37:54Z</time>
      </trkpt>
      <trkpt lat="44.77435" lon="0.43478">
        <ele>98.4</ele>
        <time>2023-07-14T06:37:55Z</time>
      </trkpt>
      <trkpt lat="44.77433" lon="0.43478">
        <ele>98.4</ele>
        <time>2023-07-14T06:37:56Z</time>
      </trkpt>
      <trkpt lat="44.77431" lon="0.43478">
        <ele>98.4</ele>
        <time>2023-07-14T06:37:57Z</time>
      </trkpt>
      <trkpt lat="44.77427" lon="0.43478">
        <ele>98.5</ele>
        <time>2023-07-14T06:37:59Z</time>
      </trkpt>
      <trkpt lat="44.77422" lon="0.4348">
        <ele>98.6</ele>
        <time>2023-07-14T06:38:01Z</time>
      </trkpt>
      <trkpt lat="44.77418" lon="0.43481">
        <ele>98.7</ele>
        <time>2023-07-14T06:38:03Z</time>
      </trkpt>
      <trkpt lat="44.77417" lon="0.43481">
        <ele>98.7</ele>
        <time>2023-07-14T06:38:04Z</time>
      </trkpt>
      <trkpt lat="44.77414" lon="0.4348">
        <ele>98.9</ele>
        <time>2023-07-14T06:38:05Z</time>
      </trkpt>
      <trkpt lat="44.7741" lon="0.43478">
        <ele>99</ele>
        <time>2023-07-14T06:38:06Z</time>
      </trkpt>
      <trkpt lat="44.77407" lon="0.43477">
        <ele>99.2</ele>
        <time>2023-07-14T06:38:07Z</time>
      </trkpt>
      <trkpt lat="44.77401" lon="0.43474">
        <ele>99.6</ele>
        <time>2023-07-14T06:38:09Z</time>
      </trkpt>
      <trkpt lat="44.77396" lon="0.4347">
        <ele>99.9</ele>
        <time>2023-07-14T06:38:11Z</time>
      </trkpt>
      <trkpt lat="44.7739" lon="0.43465">
        <ele>100.2</ele>
        <time>2023-07-14T06:38:13Z</time>
      </trkpt>
      <trkpt lat="44.77386" lon="0.43465">
        <ele>100.3</ele>
        <time>2023-07-14T06:38:15Z</time>
      </trkpt>
      <trkpt lat="44.77381" lon="0.43468">
        <ele>100.5</ele>
        <time>2023-07-14T06:38:17Z</time>
      </trkpt>
      <trkpt lat="44.77374" lon="0.43472">
        <ele>100.7</ele>
        <time>2023-07-14T06:38:19Z</time>
      </trkpt>
      <trkpt lat="44.77369" lon="0.43472">
        <ele>100.8</ele>
        <time>2023-07-14T06:38:21Z</time>
      </trkpt>
      <trkpt lat="44.77364" lon="0.43472">
        <ele>100.9</ele>
        <time>2023-07-14T06:38:23Z</time>
      </trkpt>
      <trkpt lat="44.77361" lon="0.4347">
        <ele>100.8</ele>
        <time>2023-07-14T06:38:24Z</time>
      </trkpt>
      <trkpt lat="44.7736" lon="0.43468">
        <ele>100.8</ele>
        <time>2023-07-14T06:38:25Z</time>
      </trkpt>
      <trkpt lat="44.7736" lon="0.43466">
        <ele>100.7</ele>
        <time>2023-07-14T06:38:26Z</time>
      </trkpt>
      <trkpt lat="44.77359" lon="0.43464">
        <ele>100.7</ele>
        <time>2023-07-14T06:38:27Z</time>
      </trkpt>
      <trkpt lat="44.77356" lon="0.43461">
        <ele>100.5</ele>
        <time>2023-07-14T06:38:29Z</time>
      </trkpt>
      <trkpt lat="44.77354" lon="0.4346">
        <ele>100.3</ele>
        <time>2023-07-14T06:38:30Z</time>
      </trkpt>
      <trkpt lat="44.77351" lon="0.43459">
        <ele>100.1</ele>
        <time>2023-07-14T06:38:31Z</time>
      </trkpt>
      <trkpt lat="44.77346" lon="0.43457">
        <ele>99.7</ele>
        <time>2023-07-14T06:38:33Z</time>
      </trkpt>
      <trkpt lat="44.77343" lon="0.43458">
        <ele>99.5</ele>
        <time>2023-07-14T06:38:34Z</time>
      </trkpt>
      <trkpt lat="44.77341" lon="0.43457">
        <ele>99.4</ele>
        <time>2023-07-14T06:38:35Z</time>
      </trkpt>
      <trkpt lat="44.77338" lon="0.43456">
        <ele>99.3</ele>
        <time>2023-07-14T06:38:36Z</time>
      </trkpt>
      <trkpt lat="44.77335" lon="0.43454">
        <ele>99.2</ele>
        <time>2023-07-14T06:38:37Z</time>
      </trkpt>
      <trkpt lat="44.77333" lon="0.43453">
        <ele>99.3</ele>
        <time>2023-07-14T06:38:38Z</time>
      </trkpt>
      <trkpt lat="44.77331" lon="0.43452">
        <ele>99.3</ele>
        <time>2023-07-14T06:38:39Z</time>
      </trkpt>
      <trkpt lat="44.77326" lon="0.43448">
        <ele>99.4</ele>
        <time>2023-07-14T06:38:41Z</time>
      </trkpt>
      <trkpt lat="44.77325" lon="0.43445">
        <ele>99.5</ele>
        <time>2023-07-14T06:38:42Z</time>
      </trkpt>
      <trkpt lat="44.77323" lon="0.43442">
        <ele>99.6</ele>
        <time>2023-07-14T06:38:43Z</time>
      </trkpt>
      <trkpt lat="44.77315" lon="0.43433">
        <ele>99.9</ele>
        <time>2023-07-14T06:38:45Z</time>
      </trkpt>
      <trkpt lat="44.77311" lon="0.4343">
        <ele>99.9</ele>
        <time>2023-07-14T06:38:46Z</time>
      </trkpt>
      <trkpt lat="44.77309" lon="0.43429">
        <ele>100</ele>
        <time>2023-07-14T06:38:47Z</time>
      </trkpt>
      <trkpt lat="44.77306" lon="0.43427">
        <ele>100</ele>
        <time>2023-07-14T06:38:48Z</time>
      </trkpt>
      <trkpt lat="44.77303" lon="0.43425">
        <ele>99.9</ele>
        <time>2023-07-14T06:38:49Z</time>
      </trkpt>
      <trkpt lat="44.773" lon="0.43421">
        <ele>99.8</ele>
        <time>2023-07-14T06:38:50Z</time>
      </trkpt>
      <trkpt lat="44.77296" lon="0.43417">
        <ele>99.6</ele>
        <time>2023-07-14T06:38:51Z</time>
      </trkpt>
      <trkpt lat="44.77293" lon="0.43414">
        <ele>99.4</ele>
        <time>2023-07-14T06:38:52Z</time>
      </trkpt>
      <trkpt lat="44.77289" lon="0.43411">
        <ele>99.1</ele>
        <time>2023-07-14T06:38:53Z</time>
      </trkpt>
      <trkpt lat="44.77281" lon="0.43407">
        <ele>98.7</ele>
        <time>2023-07-14T06:38:55Z</time>
      </trkpt>
      <trkpt lat="44.77278" lon="0.43405">
        <ele>98.6</ele>
        <time>2023-07-14T06:38:56Z</time>
      </trkpt>
      <trkpt lat="44.77275" lon="0.43401">
        <ele>98.4</ele>
        <time>2023-07-14T06:38:57Z</time>
      </trkpt>
      <trkpt lat="44.77271" lon="0.43394">
        <ele>98.3</ele>
        <time>2023-07-14T06:38:59Z</time>
      </trkpt>
      <trkpt lat="44.77266" lon="0.43388">
        <ele>98.2</ele>
        <time>2023-07-14T06:39:01Z</time>
      </trkpt>
      <trkpt lat="44.77263" lon="0.43385">
        <ele>98.2</ele>
        <time>2023-07-14T06:39:02Z</time>
      </trkpt>
      <trkpt lat="44.77261" lon="0.43381">
        <ele>98.1</ele>
        <time>2023-07-14T06:39:03Z</time>
      </trkpt>
      <trkpt lat="44.77258" lon="0.43374">
        <ele>97.9</ele>
        <time>2023-07-14T06:39:05Z</time>
      </trkpt>
      <trkpt lat="44.77256" lon="0.43369">
        <ele>97.8</ele>
        <time>2023-07-14T06:39:06Z</time>
      </trkpt>
      <trkpt lat="44.77254" lon="0.43362">
        <ele>97.5</ele>
        <time>2023-07-14T06:39:07Z</time>
      </trkpt>
      <trkpt lat="44.77249" lon="0.43353">
        <ele>97.4</ele>
        <time>2023-07-14T06:39:09Z</time>
      </trkpt>
      <trkpt lat="44.77246" lon="0.43352">
        <ele>97.4</ele>
        <time>2023-07-14T06:39:11Z</time>
      </trkpt>
      <trkpt lat="44.77241" lon="0.43352">
        <ele>97.6</ele>
        <time>2023-07-14T06:39:13Z</time>
      </trkpt>
      <trkpt lat="44.77238" lon="0.43352">
        <ele>97.8</ele>
        <time>2023-07-14T06:39:15Z</time>
      </trkpt>
      <trkpt lat="44.77233" lon="0.43352">
        <ele>98.1</ele>
        <time>2023-07-14T06:39:17Z</time>
      </trkpt>
      <trkpt lat="44.77231" lon="0.4335">
        <ele>98.3</ele>
        <time>2023-07-14T06:39:18Z</time>
      </trkpt>
      <trkpt lat="44.77229" lon="0.43349">
        <ele>98.4</ele>
        <time>2023-07-14T06:39:19Z</time>
      </trkpt>
      <trkpt lat="44.77227" lon="0.43347">
        <ele>98.6</ele>
        <time>2023-07-14T06:39:20Z</time>
      </trkpt>
      <trkpt lat="44.77226" lon="0.43344">
        <ele>98.7</ele>
        <time>2023-07-14T06:39:21Z</time>
      </trkpt>
      <trkpt lat="44.77226" lon="0.43342">
        <ele>98.8</ele>
        <time>2023-07-14T06:39:22Z</time>
      </trkpt>
      <trkpt lat="44.77224" lon="0.43339">
        <ele>98.9</ele>
        <time>2023-07-14T06:39:23Z</time>
      </trkpt>
      <trkpt lat="44.77222" lon="0.43336">
        <ele>98.9</ele>
        <time>2023-07-14T06:39:24Z</time>
      </trkpt>
      <trkpt lat="44.77222" lon="0.43336">
        <ele>98.9</ele>
        <time>2023-07-14T06:39:25Z</time>
      </trkpt>
      <trkpt lat="44.77222" lon="0.43336">
        <ele>98.9</ele>
        <time>2023-07-14T06:39:26Z</time>
      </trkpt>
      <trkpt lat="44.77215" lon="0.43327">
        <ele>98.9</ele>
        <time>2023-07-14T06:39:29Z</time>
      </trkpt>
      <trkpt lat="44.7721" lon="0.43317">
        <ele>98.6</ele>
        <time>2023-07-14T06:39:31Z</time>
      </trkpt>
      <trkpt lat="44.77206" lon="0.43305">
        <ele>98</ele>
        <time>2023-07-14T06:39:33Z</time>
      </trkpt>
      <trkpt lat="44.77204" lon="0.43299">
        <ele>97.7</ele>
        <time>2023-07-14T06:39:34Z</time>
      </trkpt>
      <trkpt lat="44.77203" lon="0.43294">
        <ele>97.6</ele>
        <time>2023-07-14T06:39:35Z</time>
      </trkpt>
      <trkpt lat="44.772" lon="0.43289">
        <ele>97.4</ele>
        <time>2023-07-14T06:39:37Z</time>
      </trkpt>
      <trkpt lat="44.77195" lon="0.43284">
        <ele>97.2</ele>
        <time>2023-07-14T06:39:39Z</time>
      </trkpt>
      <trkpt lat="44.77189" lon="0.43276">
        <ele>96.9</ele>
        <time>2023-07-14T06:39:41Z</time>
      </trkpt>
      <trkpt lat="44.77184" lon="0.43269">
        <ele>96.6</ele>
        <time>2023-07-14T06:39:43Z</time>
      </trkpt>
      <trkpt lat="44.77178" lon="0.43261">
        <ele>96.3</ele>
        <time>2023-07-14T06:39:45Z</time>
      </trkpt>
      <trkpt lat="44.77171" lon="0.43252">
        <ele>96.1</ele>
        <time>2023-07-14T06:39:47Z</time>
      </trkpt>
      <trkpt lat="44.77162" lon="0.43244">
        <ele>96</ele>
        <time>2023-07-14T06:39:49Z</time>
      </trkpt>
      <trkpt lat="44.77153" lon="0.43239">
        <ele>95.9</ele>
        <time>2023-07-14T06:39:51Z</time>
      </trkpt>
      <trkpt lat="44.77144" lon="0.43233">
        <ele>95.4</ele>
        <time>2023-07-14T06:39:53Z</time>
      </trkpt>
      <trkpt lat="44.77134" lon="0.43227">
        <ele>95</ele>
        <time>2023-07-14T06:39:55Z</time>
      </trkpt>
      <trkpt lat="44.77129" lon="0.43223">
        <ele>94.9</ele>
        <time>2023-07-14T06:39:56Z</time>
      </trkpt>
      <trkpt lat="44.77125" lon="0.43219">
        <ele>94.7</ele>
        <time>2023-07-14T06:39:57Z</time>
      </trkpt>
      <trkpt lat="44.77115" lon="0.4321">
        <ele>94.4</ele>
        <time>2023-07-14T06:39:59Z</time>
      </trkpt>
      <trkpt lat="44.77105" lon="0.43203">
        <ele>94.3</ele>
        <time>2023-07-14T06:40:01Z</time>
      </trkpt>
      <trkpt lat="44.77096" lon="0.43198">
        <ele>94.2</ele>
        <time>2023-07-14T06:40:03Z</time>
      </trkpt>
      <trkpt lat="44.77087" lon="0.43195">
        <ele>94.2</ele>
        <time>2023-07-14T06:40:05Z</time>
      </trkpt>
      <trkpt lat="44.77079" lon="0.43192">
        <ele>94.3</ele>
        <time>2023-07-14T06:40:07Z</time>
      </trkpt>
      <trkpt lat="44.77075" lon="0.4319">
        <ele>94.3</ele>
        <time>2023-07-14T06:40:08Z</time>
      </trkpt>
      <trkpt lat="44.77071" lon="0.43189">
        <ele>94.4</ele>
        <time>2023-07-14T06:40:09Z</time>
      </trkpt>
      <trkpt lat="44.77063" lon="0.43184">
        <ele>94.5</ele>
        <time>2023-07-14T06:40:11Z</time>
      </trkpt>
      <trkpt lat="44.77055" lon="0.43179">
        <ele>94.6</ele>
        <time>2023-07-14T06:40:13Z</time>
      </trkpt>
      <trkpt lat="44.77047" lon="0.43174">
        <ele>94.6</ele>
        <time>2023-07-14T06:40:15Z</time>
      </trkpt>
      <trkpt lat="44.77039" lon="0.43167">
        <ele>94.6</ele>
        <time>2023-07-14T06:40:17Z</time>
      </trkpt>
      <trkpt lat="44.77031" lon="0.4316">
        <ele>94.5</ele>
        <time>2023-07-14T06:40:19Z</time>
      </trkpt>
      <trkpt lat="44.77024" lon="0.43152">
        <ele>94.5</ele>
        <time>2023-07-14T06:40:21Z</time>
      </trkpt>
      <trkpt lat="44.77016" lon="0.43143">
        <ele>94.4</ele>
        <time>2023-07-14T06:40:23Z</time>
      </trkpt>
      <trkpt lat="44.77008" lon="0.43132">
        <ele>94.3</ele>
        <time>2023-07-14T06:40:25Z</time>
      </trkpt>
      <trkpt lat="44.77004" lon="0.43126">
        <ele>94.2</ele>
        <time>2023-07-14T06:40:26Z</time>
      </trkpt>
      <trkpt lat="44.77" lon="0.43121">
        <ele>94.1</ele>
        <time>2023-07-14T06:40:27Z</time>
      </trkpt>
      <trkpt lat="44.76996" lon="0.43116">
        <ele>94.1</ele>
        <time>2023-07-14T06:40:28Z</time>
      </trkpt>
      <trkpt lat="44.76992" lon="0.4311">
        <ele>94</ele>
        <time>2023-07-14T06:40:29Z</time>
      </trkpt>
      <trkpt lat="44.76989" lon="0.43104">
        <ele>93.9</ele>
        <time>2023-07-14T06:40:30Z</time>
      </trkpt>
      <trkpt lat="44.76984" lon="0.43097">
        <ele>93.9</ele>
        <time>2023-07-14T06:40:31Z</time>
      </trkpt>
      <trkpt lat="44.76974" lon="0.43088">
        <ele>93.8</ele>
        <time>2023-07-14T06:40:33Z</time>
      </trkpt>
      <trkpt lat="44.76964" lon="0.43083">
        <ele>93.9</ele>
        <time>2023-07-14T06:40:35Z</time>
      </trkpt>
      <trkpt lat="44.76954" lon="0.43079">
        <ele>93.9</ele>
        <time>2023-07-14T06:40:37Z</time>
      </trkpt>
      <trkpt lat="44.76949" lon="0.43078">
        <ele>94</ele>
        <time>2023-07-14T06:40:38Z</time>
      </trkpt>
      <trkpt lat="44.76944" lon="0.43078">
        <ele>93.9</ele>
        <time>2023-07-14T06:40:39Z</time>
      </trkpt>
      <trkpt lat="44.7694" lon="0.4308">
        <ele>93.9</ele>
        <time>2023-07-14T06:40:40Z</time>
      </trkpt>
      <trkpt lat="44.76938" lon="0.43085">
        <ele>93.9</ele>
        <time>2023-07-14T06:40:41Z</time>
      </trkpt>
      <trkpt lat="44.76934" lon="0.43093">
        <ele>93.7</ele>
        <time>2023-07-14T06:40:42Z</time>
      </trkpt>
      <trkpt lat="44.76931" lon="0.43102">
        <ele>93.6</ele>
        <time>2023-07-14T06:40:43Z</time>
      </trkpt>
      <trkpt lat="44.76925" lon="0.43122">
        <ele>93.1</ele>
        <time>2023-07-14T06:40:45Z</time>
      </trkpt>
      <trkpt lat="44.76918" lon="0.43144">
        <ele>92.7</ele>
        <time>2023-07-14T06:40:47Z</time>
      </trkpt>
      <trkpt lat="44.76916" lon="0.43153">
        <ele>92.5</ele>
        <time>2023-07-14T06:40:48Z</time>
      </trkpt>
      <trkpt lat="44.76915" lon="0.43159">
        <ele>92.4</ele>
        <time>2023-07-14T06:40:49Z</time>
      </trkpt>
      <trkpt lat="44.76913" lon="0.43159">
        <ele>92.3</ele>
        <time>2023-07-14T06:40:51Z</time>
      </trkpt>
      <trkpt lat="44.76913" lon="0.43157">
        <ele>92.2</ele>
        <time>2023-07-14T06:40:52Z</time>
      </trkpt>
      <trkpt lat="44.76913" lon="0.43154">
        <ele>92.1</ele>
        <time>2023-07-14T06:40:53Z</time>
      </trkpt>
      <trkpt lat="44.76913" lon="0.43145">
        <ele>91.7</ele>
        <time>2023-07-14T06:40:55Z</time>
      </trkpt>
      <trkpt lat="44.76914" lon="0.43133">
        <ele>90.8</ele>
        <time>2023-07-14T06:40:57Z</time>
      </trkpt>
      <trkpt lat="44.76915" lon="0.43119">
        <ele>89.3</ele>
        <time>2023-07-14T06:40:59Z</time>
      </trkpt>
      <trkpt lat="44.76917" lon="0.43104">
        <ele>87.3</ele>
        <time>2023-07-14T06:41:01Z</time>
      </trkpt>
      <trkpt lat="44.76918" lon="0.43096">
        <ele>86.2</ele>
        <time>2023-07-14T06:41:02Z</time>
      </trkpt>
      <trkpt lat="44.76919" lon="0.43089">
        <ele>85.1</ele>
        <time>2023-07-14T06:41:03Z</time>
      </trkpt>
      <trkpt lat="44.76919" lon="0.43072">
        <ele>82.7</ele>
        <time>2023-07-14T06:41:05Z</time>
      </trkpt>
      <trkpt lat="44.76924" lon="0.43058">
        <ele>80.5</ele>
        <time>2023-07-14T06:41:07Z</time>
      </trkpt>
      <trkpt lat="44.7693" lon="0.43047">
        <ele>78.8</ele>
        <time>2023-07-14T06:41:09Z</time>
      </trkpt>
      <trkpt lat="44.76936" lon="0.43038">
        <ele>77.4</ele>
        <time>2023-07-14T06:41:11Z</time>
      </trkpt>
      <trkpt lat="44.76945" lon="0.43031">
        <ele>76.1</ele>
        <time>2023-07-14T06:41:13Z</time>
      </trkpt>
      <trkpt lat="44.76955" lon="0.43027">
        <ele>75.2</ele>
        <time>2023-07-14T06:41:15Z</time>
      </trkpt>
      <trkpt lat="44.76963" lon="0.43028">
        <ele>74.7</ele>
        <time>2023-07-14T06:41:17Z</time>
      </trkpt>
      <trkpt lat="44.76966" lon="0.43028">
        <ele>74.5</ele>
        <time>2023-07-14T06:41:18Z</time>
      </trkpt>
      <trkpt lat="44.7697" lon="0.43026">
        <ele>74.3</ele>
        <time>2023-07-14T06:41:19Z</time>
      </trkpt>
      <trkpt lat="44.76974" lon="0.43021">
        <ele>74.2</ele>
        <time>2023-07-14T06:41:20Z</time>
      </trkpt>
      <trkpt lat="44.76977" lon="0.43016">
        <ele>73.9</ele>
        <time>2023-07-14T06:41:21Z</time>
      </trkpt>
      <trkpt lat="44.76982" lon="0.43003">
        <ele>73.5</ele>
        <time>2023-07-14T06:41:23Z</time>
      </trkpt>
      <trkpt lat="44.76985" lon="0.42997">
        <ele>73.2</ele>
        <time>2023-07-14T06:41:24Z</time>
      </trkpt>
      <trkpt lat="44.76986" lon="0.42991">
        <ele>73</ele>
        <time>2023-07-14T06:41:25Z</time>
      </trkpt>
      <trkpt lat="44.76985" lon="0.42986">
        <ele>72.9</ele>
        <time>2023-07-14T06:41:26Z</time>
      </trkpt>
      <trkpt lat="44.76981" lon="0.42981">
        <ele>72.7</ele>
        <time>2023-07-14T06:41:27Z</time>
      </trkpt>
      <trkpt lat="44.76978" lon="0.42977">
        <ele>72.5</ele>
        <time>2023-07-14T06:41:28Z</time>
      </trkpt>
      <trkpt lat="44.76974" lon="0.42972">
        <ele>72.3</ele>
        <time>2023-07-14T06:41:29Z</time>
      </trkpt>
      <trkpt lat="44.7697" lon="0.42967">
        <ele>72.1</ele>
        <time>2023-07-14T06:41:30Z</time>
      </trkpt>
      <trkpt lat="44.76967" lon="0.4296">
        <ele>71.9</ele>
        <time>2023-07-14T06:41:31Z</time>
      </trkpt>
      <trkpt lat="44.76966" lon="0.42949">
        <ele>71.6</ele>
        <time>2023-07-14T06:41:33Z</time>
      </trkpt>
      <trkpt lat="44.76969" lon="0.4294">
        <ele>71.4</ele>
        <time>2023-07-14T06:41:35Z</time>
      </trkpt>
      <trkpt lat="44.76968" lon="0.42931">
        <ele>71.3</ele>
        <time>2023-07-14T06:41:37Z</time>
      </trkpt>
      <trkpt lat="44.76965" lon="0.42927">
        <ele>71.1</ele>
        <time>2023-07-14T06:41:39Z</time>
      </trkpt>
      <trkpt lat="44.76963" lon="0.42925">
        <ele>71.1</ele>
        <time>2023-07-14T06:41:40Z</time>
      </trkpt>
      <trkpt lat="44.76961" lon="0.42924">
        <ele>71</ele>
        <time>2023-07-14T06:41:41Z</time>
      </trkpt>
      <trkpt lat="44.76955" lon="0.42921">
        <ele>70.9</ele>
        <time>2023-07-14T06:41:43Z</time>
      </trkpt>
      <trkpt lat="44.76953" lon="0.42919">
        <ele>70.8</ele>
        <time>2023-07-14T06:41:44Z</time>
      </trkpt>
      <trkpt lat="44.7695" lon="0.42918">
        <ele>70.8</ele>
        <time>2023-07-14T06:41:45Z</time>
      </trkpt>
      <trkpt lat="44.76945" lon="0.42913">
        <ele>70.6</ele>
        <time>2023-07-14T06:41:47Z</time>
      </trkpt>
      <trkpt lat="44.76942" lon="0.42908">
        <ele>70.5</ele>
        <time>2023-07-14T06:41:49Z</time>
      </trkpt>
      <trkpt lat="44.7694" lon="0.42903">
        <ele>70.4</ele>
        <time>2023-07-14T06:41:51Z</time>
      </trkpt>
      <trkpt lat="44.76938" lon="0.42899">
        <ele>70.4</ele>
        <time>2023-07-14T06:41:53Z</time>
      </trkpt>
      <trkpt lat="44.76935" lon="0.42896">
        <ele>70.3</ele>
        <time>2023-07-14T06:41:55Z</time>
      </trkpt>
      <trkpt lat="44.76914" lon="0.42895">
        <ele>67.1</ele>
        <time>2023-07-14T06:42:46Z</time>
      </trkpt>
      <trkpt lat="44.76912" lon="0.42897">
        <ele>65.2</ele>
        <time>2023-07-14T06:42:47Z</time>
      </trkpt>
      <trkpt lat="44.76908" lon="0.429">
        <ele>65.2</ele>
        <time>2023-07-14T06:42:49Z</time>
      </trkpt>
      <trkpt lat="44.76905" lon="0.429">
        <ele>65.2</ele>
        <time>2023-07-14T06:42:51Z</time>
      </trkpt>
      <trkpt lat="44.76897" lon="0.42901">
        <ele>65.3</ele>
        <time>2023-07-14T06:42:53Z</time>
      </trkpt>
      <trkpt lat="44.7689" lon="0.42903">
        <ele>65.3</ele>
        <time>2023-07-14T06:42:55Z</time>
      </trkpt>
      <trkpt lat="44.76886" lon="0.42903">
        <ele>65.3</ele>
        <time>2023-07-14T06:42:57Z</time>
      </trkpt>
      <trkpt lat="44.76881" lon="0.42905">
        <ele>65.5</ele>
        <time>2023-07-14T06:42:59Z</time>
      </trkpt>
      <trkpt lat="44.76877" lon="0.42913">
        <ele>65.4</ele>
        <time>2023-07-14T06:43:01Z</time>
      </trkpt>
      <trkpt lat="44.76871" lon="0.42921">
        <ele>65.5</ele>
        <time>2023-07-14T06:43:03Z</time>
      </trkpt>
      <trkpt lat="44.76869" lon="0.42924">
        <ele>65.5</ele>
        <time>2023-07-14T06:43:04Z</time>
      </trkpt>
      <trkpt lat="44.76868" lon="0.42928">
        <ele>65.6</ele>
        <time>2023-07-14T06:43:05Z</time>
      </trkpt>
      <trkpt lat="44.76867" lon="0.42934">
        <ele>65.7</ele>
        <time>2023-07-14T06:43:07Z</time>
      </trkpt>
      <trkpt lat="44.76866" lon="0.42937">
        <ele>65.7</ele>
        <time>2023-07-14T06:43:08Z</time>
      </trkpt>
      <trkpt lat="44.76865" lon="0.4294">
        <ele>65.8</ele>
        <time>2023-07-14T06:43:09Z</time>
      </trkpt>
      <trkpt lat="44.76863" lon="0.42948">
        <ele>65.9</ele>
        <time>2023-07-14T06:43:11Z</time>
      </trkpt>
      <trkpt lat="44.76862" lon="0.42951">
        <ele>66</ele>
        <time>2023-07-14T06:43:12Z</time>
      </trkpt>
      <trkpt lat="44.76861" lon="0.42954">
        <ele>66</ele>
        <time>2023-07-14T06:43:13Z</time>
      </trkpt>
      <trkpt lat="44.76859" lon="0.42961">
        <ele>66.1</ele>
        <time>2023-07-14T06:43:15Z</time>
      </trkpt>
      <trkpt lat="44.76856" lon="0.42967">
        <ele>66.2</ele>
        <time>2023-07-14T06:43:17Z</time>
      </trkpt>
      <trkpt lat="44.76856" lon="0.4297">
        <ele>66.3</ele>
        <time>2023-07-14T06:43:18Z</time>
      </trkpt>
      <trkpt lat="44.76854" lon="0.42974">
        <ele>66.3</ele>
        <time>2023-07-14T06:43:19Z</time>
      </trkpt>
      <trkpt lat="44.76851" lon="0.42982">
        <ele>66.4</ele>
        <time>2023-07-14T06:43:21Z</time>
      </trkpt>
      <trkpt lat="44.7685" lon="0.42987">
        <ele>66.4</ele>
        <time>2023-07-14T06:43:22Z</time>
      </trkpt>
      <trkpt lat="44.7685" lon="0.42991">
        <ele>66.4</ele>
        <time>2023-07-14T06:43:23Z</time>
      </trkpt>
      <trkpt lat="44.76848" lon="0.43004">
        <ele>66.4</ele>
        <time>2023-07-14T06:43:25Z</time>
      </trkpt>
      <trkpt lat="44.76846" lon="0.43009">
        <ele>66.4</ele>
        <time>2023-07-14T06:43:26Z</time>
      </trkpt>
      <trkpt lat="44.76845" lon="0.43015">
        <ele>66.4</ele>
        <time>2023-07-14T06:43:27Z</time>
      </trkpt>
      <trkpt lat="44.76842" lon="0.43025">
        <ele>66.4</ele>
        <time>2023-07-14T06:43:29Z</time>
      </trkpt>
      <trkpt lat="44.76841" lon="0.43031">
        <ele>66.4</ele>
        <time>2023-07-14T06:43:30Z</time>
      </trkpt>
      <trkpt lat="44.7684" lon="0.43037">
        <ele>66.4</ele>
        <time>2023-07-14T06:43:31Z</time>
      </trkpt>
      <trkpt lat="44.76838" lon="0.43047">
        <ele>66.4</ele>
        <time>2023-07-14T06:43:33Z</time>
      </trkpt>
      <trkpt lat="44.76837" lon="0.43059">
        <ele>66.4</ele>
        <time>2023-07-14T06:43:35Z</time>
      </trkpt>
      <trkpt lat="44.76836" lon="0.43065">
        <ele>66.4</ele>
        <time>2023-07-14T06:43:36Z</time>
      </trkpt>
      <trkpt lat="44.76836" lon="0.43071">
        <ele>66.4</ele>
        <time>2023-07-14T06:43:37Z</time>
      </trkpt>
      <trkpt lat="44.76836" lon="0.43075">
        <ele>66.4</ele>
        <time>2023-07-14T06:43:38Z</time>
      </trkpt>
      <trkpt lat="44.76836" lon="0.43081">
        <ele>66.4</ele>
        <time>2023-07-14T06:43:39Z</time>
      </trkpt>
      <trkpt lat="44.76836" lon="0.43091">
        <ele>66.4</ele>
        <time>2023-07-14T06:43:41Z</time>
      </trkpt>
      <trkpt lat="44.76835" lon="0.43097">
        <ele>66.4</ele>
        <time>2023-07-14T06:43:42Z</time>
      </trkpt>
      <trkpt lat="44.76834" lon="0.43102">
        <ele>66.4</ele>
        <time>2023-07-14T06:43:43Z</time>
      </trkpt>
      <trkpt lat="44.76833" lon="0.43107">
        <ele>66.4</ele>
        <time>2023-07-14T06:43:44Z</time>
      </trkpt>
      <trkpt lat="44.76832" lon="0.43112">
        <ele>66.3</ele>
        <time>2023-07-14T06:43:45Z</time>
      </trkpt>
      <trkpt lat="44.76829" lon="0.43123">
        <ele>66.3</ele>
        <time>2023-07-14T06:43:47Z</time>
      </trkpt>
      <trkpt lat="44.76828" lon="0.43132">
        <ele>66.3</ele>
        <time>2023-07-14T06:43:49Z</time>
      </trkpt>
      <trkpt lat="44.76824" lon="0.43143">
        <ele>66.2</ele>
        <time>2023-07-14T06:43:51Z</time>
      </trkpt>
      <trkpt lat="44.76822" lon="0.43148">
        <ele>66.2</ele>
        <time>2023-07-14T06:43:52Z</time>
      </trkpt>
      <trkpt lat="44.7682" lon="0.43153">
        <ele>66.1</ele>
        <time>2023-07-14T06:43:53Z</time>
      </trkpt>
      <trkpt lat="44.76814" lon="0.43162">
        <ele>66.1</ele>
        <time>2023-07-14T06:43:55Z</time>
      </trkpt>
      <trkpt lat="44.76813" lon="0.43166">
        <ele>66.1</ele>
        <time>2023-07-14T06:43:56Z</time>
      </trkpt>
      <trkpt lat="44.76812" lon="0.43171">
        <ele>66.1</ele>
        <time>2023-07-14T06:43:57Z</time>
      </trkpt>
      <trkpt lat="44.76811" lon="0.43175">
        <ele>66.1</ele>
        <time>2023-07-14T06:43:58Z</time>
      </trkpt>
      <trkpt lat="44.76808" lon="0.4318">
        <ele>66.1</ele>
        <time>2023-07-14T06:43:59Z</time>
      </trkpt>
      <trkpt lat="44.76805" lon="0.43184">
        <ele>66.1</ele>
        <time>2023-07-14T06:44:00Z</time>
      </trkpt>
      <trkpt lat="44.76803" lon="0.4319">
        <ele>66.1</ele>
        <time>2023-07-14T06:44:01Z</time>
      </trkpt>
      <trkpt lat="44.76802" lon="0.43194">
        <ele>66</ele>
        <time>2023-07-14T06:44:02Z</time>
      </trkpt>
      <trkpt lat="44.76801" lon="0.43199">
        <ele>66</ele>
        <time>2023-07-14T06:44:03Z</time>
      </trkpt>
      <trkpt lat="44.76797" lon="0.43208">
        <ele>65.9</ele>
        <time>2023-07-14T06:44:05Z</time>
      </trkpt>
      <trkpt lat="44.76794" lon="0.43213">
        <ele>65.9</ele>
        <time>2023-07-14T06:44:06Z</time>
      </trkpt>
      <trkpt lat="44.76792" lon="0.4322">
        <ele>65.9</ele>
        <time>2023-07-14T06:44:07Z</time>
      </trkpt>
      <trkpt lat="44.76789" lon="0.43231">
        <ele>65.9</ele>
        <time>2023-07-14T06:44:09Z</time>
      </trkpt>
      <trkpt lat="44.76787" lon="0.43236">
        <ele>65.9</ele>
        <time>2023-07-14T06:44:10Z</time>
      </trkpt>
      <trkpt lat="44.76785" lon="0.43242">
        <ele>65.9</ele>
        <time>2023-07-14T06:44:11Z</time>
      </trkpt>
      <trkpt lat="44.76782" lon="0.43253">
        <ele>65.9</ele>
        <time>2023-07-14T06:44:13Z</time>
      </trkpt>
      <trkpt lat="44.76776" lon="0.43262">
        <ele>65.9</ele>
        <time>2023-07-14T06:44:15Z</time>
      </trkpt>
      <trkpt lat="44.76774" lon="0.43265">
        <ele>65.9</ele>
        <time>2023-07-14T06:44:16Z</time>
      </trkpt>
      <trkpt lat="44.76771" lon="0.43269">
        <ele>66</ele>
        <time>2023-07-14T06:44:17Z</time>
      </trkpt>
      <trkpt lat="44.76768" lon="0.43275">
        <ele>66</ele>
        <time>2023-07-14T06:44:18Z</time>
      </trkpt>
      <trkpt lat="44.76766" lon="0.4328">
        <ele>66</ele>
        <time>2023-07-14T06:44:19Z</time>
      </trkpt>
      <trkpt lat="44.76762" lon="0.43289">
        <ele>66</ele>
        <time>2023-07-14T06:44:21Z</time>
      </trkpt>
      <trkpt lat="44.7676" lon="0.43294">
        <ele>66</ele>
        <time>2023-07-14T06:44:22Z</time>
      </trkpt>
      <trkpt lat="44.76759" lon="0.43298">
        <ele>66</ele>
        <time>2023-07-14T06:44:23Z</time>
      </trkpt>
      <trkpt lat="44.76757" lon="0.43302">
        <ele>66</ele>
        <time>2023-07-14T06:44:24Z</time>
      </trkpt>
      <trkpt lat="44.76756" lon="0.43306">
        <ele>66</ele>
        <time>2023-07-14T06:44:25Z</time>
      </trkpt>
      <trkpt lat="44.76753" lon="0.43315">
        <ele>65.9</ele>
        <time>2023-07-14T06:44:27Z</time>
      </trkpt>
      <trkpt lat="44.76748" lon="0.43324">
        <ele>65.9</ele>
        <time>2023-07-14T06:44:29Z</time>
      </trkpt>
      <trkpt lat="44.76745" lon="0.4333">
        <ele>65.9</ele>
        <time>2023-07-14T06:44:31Z</time>
      </trkpt>
      <trkpt lat="44.76741" lon="0.43334">
        <ele>65.9</ele>
        <time>2023-07-14T06:44:32Z</time>
      </trkpt>
      <trkpt lat="44.76738" lon="0.43338">
        <ele>65.8</ele>
        <time>2023-07-14T06:44:33Z</time>
      </trkpt>
      <trkpt lat="44.76737" lon="0.43343">
        <ele>65.8</ele>
        <time>2023-07-14T06:44:34Z</time>
      </trkpt>
      <trkpt lat="44.76736" lon="0.43348">
        <ele>65.8</ele>
        <time>2023-07-14T06:44:35Z</time>
      </trkpt>
      <trkpt lat="44.76735" lon="0.43357">
        <ele>65.8</ele>
        <time>2023-07-14T06:44:37Z</time>
      </trkpt>
      <trkpt lat="44.76733" lon="0.43367">
        <ele>65.8</ele>
        <time>2023-07-14T06:44:39Z</time>
      </trkpt>
      <trkpt lat="44.7673" lon="0.43377">
        <ele>65.8</ele>
        <time>2023-07-14T06:44:41Z</time>
      </trkpt>
      <trkpt lat="44.76727" lon="0.43388">
        <ele>65.8</ele>
        <time>2023-07-14T06:44:43Z</time>
      </trkpt>
      <trkpt lat="44.76725" lon="0.43393">
        <ele>65.8</ele>
        <time>2023-07-14T06:44:44Z</time>
      </trkpt>
      <trkpt lat="44.76724" lon="0.43398">
        <ele>65.9</ele>
        <time>2023-07-14T06:44:45Z</time>
      </trkpt>
      <trkpt lat="44.76721" lon="0.43405">
        <ele>65.9</ele>
        <time>2023-07-14T06:44:47Z</time>
      </trkpt>
      <trkpt lat="44.76718" lon="0.43409">
        <ele>66</ele>
        <time>2023-07-14T06:44:48Z</time>
      </trkpt>
      <trkpt lat="44.76714" lon="0.43412">
        <ele>66</ele>
        <time>2023-07-14T06:44:49Z</time>
      </trkpt>
      <trkpt lat="44.76707" lon="0.4342">
        <ele>66.1</ele>
        <time>2023-07-14T06:44:51Z</time>
      </trkpt>
      <trkpt lat="44.76701" lon="0.43426">
        <ele>66.2</ele>
        <time>2023-07-14T06:44:53Z</time>
      </trkpt>
      <trkpt lat="44.76698" lon="0.43429">
        <ele>66.2</ele>
        <time>2023-07-14T06:44:54Z</time>
      </trkpt>
      <trkpt lat="44.76696" lon="0.43432">
        <ele>66.2</ele>
        <time>2023-07-14T06:44:55Z</time>
      </trkpt>
      <trkpt lat="44.76694" lon="0.43436">
        <ele>66.3</ele>
        <time>2023-07-14T06:44:56Z</time>
      </trkpt>
      <trkpt lat="44.76692" lon="0.43441">
        <ele>66.4</ele>
        <time>2023-07-14T06:44:57Z</time>
      </trkpt>
      <trkpt lat="44.7669" lon="0.43447">
        <ele>66.5</ele>
        <time>2023-07-14T06:44:58Z</time>
      </trkpt>
      <trkpt lat="44.76688" lon="0.43452">
        <ele>66.5</ele>
        <time>2023-07-14T06:44:59Z</time>
      </trkpt>
      <trkpt lat="44.76684" lon="0.43461">
        <ele>66.7</ele>
        <time>2023-07-14T06:45:01Z</time>
      </trkpt>
      <trkpt lat="44.76682" lon="0.43465">
        <ele>66.8</ele>
        <time>2023-07-14T06:45:02Z</time>
      </trkpt>
      <trkpt lat="44.76681" lon="0.43469">
        <ele>66.9</ele>
        <time>2023-07-14T06:45:03Z</time>
      </trkpt>
      <trkpt lat="44.76681" lon="0.43478">
        <ele>67</ele>
        <time>2023-07-14T06:45:05Z</time>
      </trkpt>
      <trkpt lat="44.76681" lon="0.43482">
        <ele>67.1</ele>
        <time>2023-07-14T06:45:06Z</time>
      </trkpt>
      <trkpt lat="44.76679" lon="0.43484">
        <ele>67.2</ele>
        <time>2023-07-14T06:45:07Z</time>
      </trkpt>
      <trkpt lat="44.76678" lon="0.43487">
        <ele>67.2</ele>
        <time>2023-07-14T06:45:08Z</time>
      </trkpt>
      <trkpt lat="44.76679" lon="0.43491">
        <ele>67.3</ele>
        <time>2023-07-14T06:45:09Z</time>
      </trkpt>
      <trkpt lat="44.7668" lon="0.43497">
        <ele>67.4</ele>
        <time>2023-07-14T06:45:11Z</time>
      </trkpt>
      <trkpt lat="44.76679" lon="0.43503">
        <ele>67.5</ele>
        <time>2023-07-14T06:45:13Z</time>
      </trkpt>
      <trkpt lat="44.76679" lon="0.43509">
        <ele>67.6</ele>
        <time>2023-07-14T06:45:15Z</time>
      </trkpt>
      <trkpt lat="44.76679" lon="0.43513">
        <ele>67.6</ele>
        <time>2023-07-14T06:45:16Z</time>
      </trkpt>
      <trkpt lat="44.76679" lon="0.43517">
        <ele>67.7</ele>
        <time>2023-07-14T06:45:17Z</time>
      </trkpt>
      <trkpt lat="44.76679" lon="0.43527">
        <ele>67.8</ele>
        <time>2023-07-14T06:45:19Z</time>
      </trkpt>
      <trkpt lat="44.76679" lon="0.43537">
        <ele>67.9</ele>
        <time>2023-07-14T06:45:21Z</time>
      </trkpt>
      <trkpt lat="44.7668" lon="0.43546">
        <ele>67.9</ele>
        <time>2023-07-14T06:45:23Z</time>
      </trkpt>
      <trkpt lat="44.7668" lon="0.43554">
        <ele>67.9</ele>
        <time>2023-07-14T06:45:25Z</time>
      </trkpt>
      <trkpt lat="44.76682" lon="0.43561">
        <ele>67.9</ele>
        <time>2023-07-14T06:45:27Z</time>
      </trkpt>
      <trkpt lat="44.76683" lon="0.43565">
        <ele>67.9</ele>
        <time>2023-07-14T06:45:28Z</time>
      </trkpt>
      <trkpt lat="44.76684" lon="0.4357">
        <ele>67.9</ele>
        <time>2023-07-14T06:45:29Z</time>
      </trkpt>
      <trkpt lat="44.76685" lon="0.4358">
        <ele>67.9</ele>
        <time>2023-07-14T06:45:31Z</time>
      </trkpt>
      <trkpt lat="44.76686" lon="0.43589">
        <ele>68</ele>
        <time>2023-07-14T06:45:33Z</time>
      </trkpt>
      <trkpt lat="44.76688" lon="0.43598">
        <ele>68</ele>
        <time>2023-07-14T06:45:35Z</time>
      </trkpt>
      <trkpt lat="44.76691" lon="0.43609">
        <ele>68</ele>
        <time>2023-07-14T06:45:37Z</time>
      </trkpt>
      <trkpt lat="44.76691" lon="0.43614">
        <ele>68</ele>
        <time>2023-07-14T06:45:38Z</time>
      </trkpt>
      <trkpt lat="44.76692" lon="0.43619">
        <ele>68</ele>
        <time>2023-07-14T06:45:39Z</time>
      </trkpt>
      <trkpt lat="44.76692" lon="0.43629">
        <ele>68</ele>
        <time>2023-07-14T06:45:41Z</time>
      </trkpt>
      <trkpt lat="44.76692" lon="0.43634">
        <ele>68</ele>
        <time>2023-07-14T06:45:42Z</time>
      </trkpt>
      <trkpt lat="44.76692" lon="0.43639">
        <ele>68</ele>
        <time>2023-07-14T06:45:43Z</time>
      </trkpt>
      <trkpt lat="44.76693" lon="0.4365">
        <ele>68.1</ele>
        <time>2023-07-14T06:45:45Z</time>
      </trkpt>
      <trkpt lat="44.76694" lon="0.43657">
        <ele>68.1</ele>
        <time>2023-07-14T06:45:47Z</time>
      </trkpt>
      <trkpt lat="44.76695" lon="0.43666">
        <ele>68.2</ele>
        <time>2023-07-14T06:45:49Z</time>
      </trkpt>
      <trkpt lat="44.76692" lon="0.43674">
        <ele>68.3</ele>
        <time>2023-07-14T06:45:51Z</time>
      </trkpt>
      <trkpt lat="44.7669" lon="0.43682">
        <ele>68.4</ele>
        <time>2023-07-14T06:45:53Z</time>
      </trkpt>
      <trkpt lat="44.76688" lon="0.43685">
        <ele>68.5</ele>
        <time>2023-07-14T06:45:54Z</time>
      </trkpt>
      <trkpt lat="44.76686" lon="0.43689">
        <ele>68.5</ele>
        <time>2023-07-14T06:45:55Z</time>
      </trkpt>
      <trkpt lat="44.76684" lon="0.43698">
        <ele>68.7</ele>
        <time>2023-07-14T06:45:57Z</time>
      </trkpt>
      <trkpt lat="44.76681" lon="0.43706">
        <ele>69</ele>
        <time>2023-07-14T06:45:59Z</time>
      </trkpt>
      <trkpt lat="44.7668" lon="0.4371">
        <ele>69.1</ele>
        <time>2023-07-14T06:46:00Z</time>
      </trkpt>
      <trkpt lat="44.76679" lon="0.43712">
        <ele>69.2</ele>
        <time>2023-07-14T06:46:01Z</time>
      </trkpt>
      <trkpt lat="44.76677" lon="0.43715">
        <ele>69.3</ele>
        <time>2023-07-14T06:46:03Z</time>
      </trkpt>
      <trkpt lat="44.76676" lon="0.43716">
        <ele>69.4</ele>
        <time>2023-07-14T06:46:04Z</time>
      </trkpt>
      <trkpt lat="44.76674" lon="0.43718">
        <ele>69.5</ele>
        <time>2023-07-14T06:46:05Z</time>
      </trkpt>
      <trkpt lat="44.76671" lon="0.43722">
        <ele>69.7</ele>
        <time>2023-07-14T06:46:07Z</time>
      </trkpt>
      <trkpt lat="44.76672" lon="0.43723">
        <ele>69.8</ele>
        <time>2023-07-14T06:46:08Z</time>
      </trkpt>
      <trkpt lat="44.76671" lon="0.43726">
        <ele>69.9</ele>
        <time>2023-07-14T06:46:09Z</time>
      </trkpt>
      <trkpt lat="44.76667" lon="0.43731">
        <ele>70.2</ele>
        <time>2023-07-14T06:46:11Z</time>
      </trkpt>
      <trkpt lat="44.76662" lon="0.43738">
        <ele>70.6</ele>
        <time>2023-07-14T06:46:13Z</time>
      </trkpt>
      <trkpt lat="44.76661" lon="0.43741">
        <ele>70.8</ele>
        <time>2023-07-14T06:46:14Z</time>
      </trkpt>
      <trkpt lat="44.76659" lon="0.43745">
        <ele>71</ele>
        <time>2023-07-14T06:46:15Z</time>
      </trkpt>
      <trkpt lat="44.76659" lon="0.43752">
        <ele>71.3</ele>
        <time>2023-07-14T06:46:17Z</time>
      </trkpt>
      <trkpt lat="44.76655" lon="0.43761">
        <ele>71.8</ele>
        <time>2023-07-14T06:46:19Z</time>
      </trkpt>
      <trkpt lat="44.76654" lon="0.43765">
        <ele>72</ele>
        <time>2023-07-14T06:46:20Z</time>
      </trkpt>
      <trkpt lat="44.76652" lon="0.43768">
        <ele>72.1</ele>
        <time>2023-07-14T06:46:21Z</time>
      </trkpt>
      <trkpt lat="44.7665" lon="0.43773">
        <ele>72.4</ele>
        <time>2023-07-14T06:46:23Z</time>
      </trkpt>
      <trkpt lat="44.76649" lon="0.43777">
        <ele>72.6</ele>
        <time>2023-07-14T06:46:24Z</time>
      </trkpt>
      <trkpt lat="44.76648" lon="0.43782">
        <ele>72.8</ele>
        <time>2023-07-14T06:46:25Z</time>
      </trkpt>
      <trkpt lat="44.76648" lon="0.4379">
        <ele>73.1</ele>
        <time>2023-07-14T06:46:27Z</time>
      </trkpt>
      <trkpt lat="44.76648" lon="0.43798">
        <ele>73.5</ele>
        <time>2023-07-14T06:46:29Z</time>
      </trkpt>
      <trkpt lat="44.76646" lon="0.43803">
        <ele>73.8</ele>
        <time>2023-07-14T06:46:31Z</time>
      </trkpt>
      <trkpt lat="44.76646" lon="0.43806">
        <ele>73.9</ele>
        <time>2023-07-14T06:46:32Z</time>
      </trkpt>
      <trkpt lat="44.76646" lon="0.4381">
        <ele>74.1</ele>
        <time>2023-07-14T06:46:33Z</time>
      </trkpt>
      <trkpt lat="44.76647" lon="0.43818">
        <ele>74.5</ele>
        <time>2023-07-14T06:46:35Z</time>
      </trkpt>
      <trkpt lat="44.76647" lon="0.43825">
        <ele>74.8</ele>
        <time>2023-07-14T06:46:37Z</time>
      </trkpt>
      <trkpt lat="44.76646" lon="0.43828">
        <ele>74.9</ele>
        <time>2023-07-14T06:46:38Z</time>
      </trkpt>
      <trkpt lat="44.76645" lon="0.43832">
        <ele>75.1</ele>
        <time>2023-07-14T06:46:39Z</time>
      </trkpt>
      <trkpt lat="44.76643" lon="0.43838">
        <ele>75.3</ele>
        <time>2023-07-14T06:46:41Z</time>
      </trkpt>
      <trkpt lat="44.76643" lon="0.43842">
        <ele>75.4</ele>
        <time>2023-07-14T06:46:42Z</time>
      </trkpt>
      <trkpt lat="44.76643" lon="0.43845">
        <ele>75.5</ele>
        <time>2023-07-14T06:46:43Z</time>
      </trkpt>
      <trkpt lat="44.76643" lon="0.43849">
        <ele>75.6</ele>
        <time>2023-07-14T06:46:44Z</time>
      </trkpt>
      <trkpt lat="44.76644" lon="0.43853">
        <ele>75.7</ele>
        <time>2023-07-14T06:46:45Z</time>
      </trkpt>
      <trkpt lat="44.76644" lon="0.43858">
        <ele>75.8</ele>
        <time>2023-07-14T06:46:46Z</time>
      </trkpt>
      <trkpt lat="44.76646" lon="0.43862">
        <ele>75.9</ele>
        <time>2023-07-14T06:46:47Z</time>
      </trkpt>
      <trkpt lat="44.76649" lon="0.43872">
        <ele>76</ele>
        <time>2023-07-14T06:46:49Z</time>
      </trkpt>
      <trkpt lat="44.76649" lon="0.43879">
        <ele>76</ele>
        <time>2023-07-14T06:46:50Z</time>
      </trkpt>
      <trkpt lat="44.76652" lon="0.43884">
        <ele>76</ele>
        <time>2023-07-14T06:46:51Z</time>
      </trkpt>
      <trkpt lat="44.76655" lon="0.43897">
        <ele>75.8</ele>
        <time>2023-07-14T06:46:53Z</time>
      </trkpt>
      <trkpt lat="44.76656" lon="0.43905">
        <ele>75.7</ele>
        <time>2023-07-14T06:46:54Z</time>
      </trkpt>
      <trkpt lat="44.76657" lon="0.43911">
        <ele>75.6</ele>
        <time>2023-07-14T06:46:55Z</time>
      </trkpt>
      <trkpt lat="44.76657" lon="0.43924">
        <ele>75.3</ele>
        <time>2023-07-14T06:46:57Z</time>
      </trkpt>
      <trkpt lat="44.76656" lon="0.43931">
        <ele>75.1</ele>
        <time>2023-07-14T06:46:58Z</time>
      </trkpt>
      <trkpt lat="44.76656" lon="0.43938">
        <ele>75</ele>
        <time>2023-07-14T06:46:59Z</time>
      </trkpt>
      <trkpt lat="44.76655" lon="0.43948">
        <ele>74.8</ele>
        <time>2023-07-14T06:47:01Z</time>
      </trkpt>
      <trkpt lat="44.76655" lon="0.43955">
        <ele>74.7</ele>
        <time>2023-07-14T06:47:02Z</time>
      </trkpt>
      <trkpt lat="44.76654" lon="0.43963">
        <ele>74.5</ele>
        <time>2023-07-14T06:47:03Z</time>
      </trkpt>
      <trkpt lat="44.76655" lon="0.43972">
        <ele>74.3</ele>
        <time>2023-07-14T06:47:04Z</time>
      </trkpt>
      <trkpt lat="44.76655" lon="0.4398">
        <ele>74.1</ele>
        <time>2023-07-14T06:47:05Z</time>
      </trkpt>
      <trkpt lat="44.76654" lon="0.43996">
        <ele>73.7</ele>
        <time>2023-07-14T06:47:07Z</time>
      </trkpt>
      <trkpt lat="44.76653" lon="0.44013">
        <ele>73.4</ele>
        <time>2023-07-14T06:47:09Z</time>
      </trkpt>
      <trkpt lat="44.7665" lon="0.44028">
        <ele>73.2</ele>
        <time>2023-07-14T06:47:11Z</time>
      </trkpt>
      <trkpt lat="44.76648" lon="0.44035">
        <ele>73.1</ele>
        <time>2023-07-14T06:47:12Z</time>
      </trkpt>
      <trkpt lat="44.76646" lon="0.44044">
        <ele>73</ele>
        <time>2023-07-14T06:47:13Z</time>
      </trkpt>
      <trkpt lat="44.76644" lon="0.44051">
        <ele>72.9</ele>
        <time>2023-07-14T06:47:14Z</time>
      </trkpt>
      <trkpt lat="44.76641" lon="0.44057">
        <ele>72.9</ele>
        <time>2023-07-14T06:47:15Z</time>
      </trkpt>
      <trkpt lat="44.76639" lon="0.44064">
        <ele>72.8</ele>
        <time>2023-07-14T06:47:16Z</time>
      </trkpt>
      <trkpt lat="44.76637" lon="0.44071">
        <ele>72.8</ele>
        <time>2023-07-14T06:47:17Z</time>
      </trkpt>
      <trkpt lat="44.76634" lon="0.44078">
        <ele>72.8</ele>
        <time>2023-07-14T06:47:18Z</time>
      </trkpt>
      <trkpt lat="44.76631" lon="0.44083">
        <ele>73</ele>
        <time>2023-07-14T06:47:19Z</time>
      </trkpt>
      <trkpt lat="44.76628" lon="0.44089">
        <ele>73.2</ele>
        <time>2023-07-14T06:47:20Z</time>
      </trkpt>
      <trkpt lat="44.76625" lon="0.44094">
        <ele>73.3</ele>
        <time>2023-07-14T06:47:21Z</time>
      </trkpt>
      <trkpt lat="44.76621" lon="0.44104">
        <ele>73.5</ele>
        <time>2023-07-14T06:47:23Z</time>
      </trkpt>
      <trkpt lat="44.76619" lon="0.44111">
        <ele>73.9</ele>
        <time>2023-07-14T06:47:24Z</time>
      </trkpt>
      <trkpt lat="44.76619" lon="0.44116">
        <ele>73.9</ele>
        <time>2023-07-14T06:47:25Z</time>
      </trkpt>
      <trkpt lat="44.76622" lon="0.44117">
        <ele>73.8</ele>
        <time>2023-07-14T06:47:26Z</time>
      </trkpt>
      <trkpt lat="44.76626" lon="0.44117">
        <ele>73.7</ele>
        <time>2023-07-14T06:47:27Z</time>
      </trkpt>
      <trkpt lat="44.76635" lon="0.44113">
        <ele>73.5</ele>
        <time>2023-07-14T06:47:29Z</time>
      </trkpt>
      <trkpt lat="44.76647" lon="0.44108">
        <ele>73.3</ele>
        <time>2023-07-14T06:47:31Z</time>
      </trkpt>
      <trkpt lat="44.76659" lon="0.44103">
        <ele>73.1</ele>
        <time>2023-07-14T06:47:33Z</time>
      </trkpt>
      <trkpt lat="44.7667" lon="0.44096">
        <ele>73</ele>
        <time>2023-07-14T06:47:35Z</time>
      </trkpt>
      <trkpt lat="44.76682" lon="0.44089">
        <ele>73</ele>
        <time>2023-07-14T06:47:37Z</time>
      </trkpt>
      <trkpt lat="44.76692" lon="0.44081">
        <ele>73</ele>
        <time>2023-07-14T06:47:39Z</time>
      </trkpt>
      <trkpt lat="44.767" lon="0.44074">
        <ele>73.1</ele>
        <time>2023-07-14T06:47:41Z</time>
      </trkpt>
      <trkpt lat="44.76705" lon="0.44066">
        <ele>73.2</ele>
        <time>2023-07-14T06:47:43Z</time>
      </trkpt>
      <trkpt lat="44.76706" lon="0.44064">
        <ele>73.3</ele>
        <time>2023-07-14T06:47:44Z</time>
      </trkpt>
      <trkpt lat="44.76708" lon="0.44064">
        <ele>73.3</ele>
        <time>2023-07-14T06:47:45Z</time>
      </trkpt>
      <trkpt lat="44.76711" lon="0.44064">
        <ele>73.3</ele>
        <time>2023-07-14T06:47:47Z</time>
      </trkpt>
      <trkpt lat="44.76713" lon="0.44065">
        <ele>73.3</ele>
        <time>2023-07-14T06:47:48Z</time>
      </trkpt>
      <trkpt lat="44.76714" lon="0.44066">
        <ele>73.4</ele>
        <time>2023-07-14T06:47:49Z</time>
      </trkpt>
      <trkpt lat="44.76716" lon="0.44068">
        <ele>73.4</ele>
        <time>2023-07-14T06:47:50Z</time>
      </trkpt>
      <trkpt lat="44.76717" lon="0.44069">
        <ele>73.4</ele>
        <time>2023-07-14T06:47:51Z</time>
      </trkpt>
      <trkpt lat="44.76718" lon="0.4407">
        <ele>73.4</ele>
        <time>2023-07-14T06:47:52Z</time>
      </trkpt>
      <trkpt lat="44.76718" lon="0.44072">
        <ele>73.5</ele>
        <time>2023-07-14T06:47:53Z</time>
      </trkpt>
      <trkpt lat="44.7672" lon="0.44075">
        <ele>73.5</ele>
        <time>2023-07-14T06:47:55Z</time>
      </trkpt>
      <trkpt lat="44.76723" lon="0.44077">
        <ele>73.6</ele>
        <time>2023-07-14T06:47:57Z</time>
      </trkpt>
      <trkpt lat="44.76726" lon="0.44081">
        <ele>73.6</ele>
        <time>2023-07-14T06:47:59Z</time>
      </trkpt>
      <trkpt lat="44.76729" lon="0.44083">
        <ele>73.7</ele>
        <time>2023-07-14T06:48:01Z</time>
      </trkpt>
      <trkpt lat="44.76729" lon="0.44088">
        <ele>73.7</ele>
        <time>2023-07-14T06:48:02Z</time>
      </trkpt>
      <trkpt lat="44.76729" lon="0.44091">
        <ele>73.7</ele>
        <time>2023-07-14T06:48:03Z</time>
      </trkpt>
      <trkpt lat="44.76729" lon="0.44096">
        <ele>73.7</ele>
        <time>2023-07-14T06:48:05Z</time>
      </trkpt>
      <trkpt lat="44.76723" lon="0.44107">
        <ele>73.5</ele>
        <time>2023-07-14T06:48:19Z</time>
      </trkpt>
      <trkpt lat="44.76721" lon="0.44109">
        <ele>73.5</ele>
        <time>2023-07-14T06:48:20Z</time>
      </trkpt>
      <trkpt lat="44.76718" lon="0.44111">
        <ele>73.4</ele>
        <time>2023-07-14T06:48:21Z</time>
      </trkpt>
      <trkpt lat="44.76713" lon="0.44116">
        <ele>73.3</ele>
        <time>2023-07-14T06:48:23Z</time>
      </trkpt>
      <trkpt lat="44.76708" lon="0.4412">
        <ele>73.2</ele>
        <time>2023-07-14T06:48:25Z</time>
      </trkpt>
      <trkpt lat="44.76703" lon="0.44124">
        <ele>73.2</ele>
        <time>2023-07-14T06:48:27Z</time>
      </trkpt>
      <trkpt lat="44.76698" lon="0.44127">
        <ele>73.1</ele>
        <time>2023-07-14T06:48:29Z</time>
      </trkpt>
      <trkpt lat="44.76692" lon="0.4413">
        <ele>73</ele>
        <time>2023-07-14T06:48:31Z</time>
      </trkpt>
      <trkpt lat="44.76687" lon="0.44134">
        <ele>73</ele>
        <time>2023-07-14T06:48:33Z</time>
      </trkpt>
      <trkpt lat="44.76685" lon="0.44136">
        <ele>73</ele>
        <time>2023-07-14T06:48:34Z</time>
      </trkpt>
      <trkpt lat="44.76682" lon="0.44138">
        <ele>73</ele>
        <time>2023-07-14T06:48:35Z</time>
      </trkpt>
      <trkpt lat="44.76676" lon="0.44141">
        <ele>73</ele>
        <time>2023-07-14T06:48:37Z</time>
      </trkpt>
      <trkpt lat="44.76674" lon="0.44143">
        <ele>73</ele>
        <time>2023-07-14T06:48:38Z</time>
      </trkpt>
      <trkpt lat="44.76671" lon="0.44145">
        <ele>73</ele>
        <time>2023-07-14T06:48:39Z</time>
      </trkpt>
      <trkpt lat="44.76666" lon="0.44148">
        <ele>73.1</ele>
        <time>2023-07-14T06:48:41Z</time>
      </trkpt>
      <trkpt lat="44.76663" lon="0.4415">
        <ele>73.1</ele>
        <time>2023-07-14T06:48:42Z</time>
      </trkpt>
      <trkpt lat="44.76661" lon="0.44152">
        <ele>73.1</ele>
        <time>2023-07-14T06:48:43Z</time>
      </trkpt>
      <trkpt lat="44.76656" lon="0.44156">
        <ele>73.2</ele>
        <time>2023-07-14T06:48:45Z</time>
      </trkpt>
      <trkpt lat="44.76652" lon="0.4416">
        <ele>73.3</ele>
        <time>2023-07-14T06:48:47Z</time>
      </trkpt>
      <trkpt lat="44.76649" lon="0.44163">
        <ele>73.4</ele>
        <time>2023-07-14T06:48:49Z</time>
      </trkpt>
      <trkpt lat="44.76648" lon="0.44164">
        <ele>73.4</ele>
        <time>2023-07-14T06:48:50Z</time>
      </trkpt>
      <trkpt lat="44.76648" lon="0.44164">
        <ele>73.4</ele>
        <time>2023-07-14T06:48:51Z</time>
      </trkpt>
      <trkpt lat="44.76643" lon="0.44161">
        <ele>73.5</ele>
        <time>2023-07-14T06:52:00Z</time>
      </trkpt>
      <trkpt lat="44.76642" lon="0.4416">
        <ele>73.5</ele>
        <time>2023-07-14T06:52:01Z</time>
      </trkpt>
      <trkpt lat="44.76637" lon="0.4416">
        <ele>73.6</ele>
        <time>2023-07-14T06:52:03Z</time>
      </trkpt>
      <trkpt lat="44.76633" lon="0.4416">
        <ele>73.7</ele>
        <time>2023-07-14T06:52:05Z</time>
      </trkpt>
      <trkpt lat="44.76628" lon="0.4416">
        <ele>73.8</ele>
        <time>2023-07-14T06:52:07Z</time>
      </trkpt>
      <trkpt lat="44.76626" lon="0.44159">
        <ele>73.8</ele>
        <time>2023-07-14T06:52:08Z</time>
      </trkpt>
      <trkpt lat="44.76624" lon="0.44158">
        <ele>73.9</ele>
        <time>2023-07-14T06:52:09Z</time>
      </trkpt>
      <trkpt lat="44.7662" lon="0.44156">
        <ele>74</ele>
        <time>2023-07-14T06:52:11Z</time>
      </trkpt>
      <trkpt lat="44.76615" lon="0.44155">
        <ele>74.1</ele>
        <time>2023-07-14T06:52:13Z</time>
      </trkpt>
      <trkpt lat="44.76611" lon="0.44155">
        <ele>74.2</ele>
        <time>2023-07-14T06:52:15Z</time>
      </trkpt>
      <trkpt lat="44.76606" lon="0.44154">
        <ele>74.3</ele>
        <time>2023-07-14T06:52:17Z</time>
      </trkpt>
      <trkpt lat="44.76601" lon="0.44153">
        <ele>74.4</ele>
        <time>2023-07-14T06:52:19Z</time>
      </trkpt>
      <trkpt lat="44.76599" lon="0.44152">
        <ele>74.5</ele>
        <time>2023-07-14T06:52:20Z</time>
      </trkpt>
      <trkpt lat="44.76597" lon="0.44152">
        <ele>74.6</ele>
        <time>2023-07-14T06:52:21Z</time>
      </trkpt>
      <trkpt lat="44.76594" lon="0.44153">
        <ele>74.8</ele>
        <time>2023-07-14T06:52:22Z</time>
      </trkpt>
      <trkpt lat="44.76592" lon="0.44155">
        <ele>74.8</ele>
        <time>2023-07-14T06:52:23Z</time>
      </trkpt>
      <trkpt lat="44.7659" lon="0.44158">
        <ele>74.7</ele>
        <time>2023-07-14T06:52:24Z</time>
      </trkpt>
      <trkpt lat="44.76589" lon="0.44163">
        <ele>74.6</ele>
        <time>2023-07-14T06:52:25Z</time>
      </trkpt>
      <trkpt lat="44.76587" lon="0.44168">
        <ele>74.6</ele>
        <time>2023-07-14T06:52:26Z</time>
      </trkpt>
      <trkpt lat="44.76586" lon="0.44173">
        <ele>74.5</ele>
        <time>2023-07-14T06:52:27Z</time>
      </trkpt>
      <trkpt lat="44.76583" lon="0.44185">
        <ele>74.3</ele>
        <time>2023-07-14T06:52:29Z</time>
      </trkpt>
      <trkpt lat="44.7658" lon="0.44197">
        <ele>74.3</ele>
        <time>2023-07-14T06:52:31Z</time>
      </trkpt>
      <trkpt lat="44.76577" lon="0.44202">
        <ele>74.3</ele>
        <time>2023-07-14T06:52:32Z</time>
      </trkpt>
      <trkpt lat="44.76575" lon="0.44207">
        <ele>74.3</ele>
        <time>2023-07-14T06:52:33Z</time>
      </trkpt>
      <trkpt lat="44.76573" lon="0.44212">
        <ele>74.3</ele>
        <time>2023-07-14T06:52:34Z</time>
      </trkpt>
      <trkpt lat="44.76572" lon="0.44216">
        <ele>74.3</ele>
        <time>2023-07-14T06:52:35Z</time>
      </trkpt>
      <trkpt lat="44.7657" lon="0.44224">
        <ele>74.3</ele>
        <time>2023-07-14T06:52:37Z</time>
      </trkpt>
      <trkpt lat="44.76568" lon="0.44229">
        <ele>74.4</ele>
        <time>2023-07-14T06:52:39Z</time>
      </trkpt>
      <trkpt lat="44.76567" lon="0.44233">
        <ele>74.7</ele>
        <time>2023-07-14T06:52:41Z</time>
      </trkpt>
      <trkpt lat="44.76566" lon="0.44238">
        <ele>75</ele>
        <time>2023-07-14T06:52:43Z</time>
      </trkpt>
      <trkpt lat="44.76564" lon="0.44242">
        <ele>75.3</ele>
        <time>2023-07-14T06:52:45Z</time>
      </trkpt>
      <trkpt lat="44.76563" lon="0.44245">
        <ele>75.6</ele>
        <time>2023-07-14T06:52:47Z</time>
      </trkpt>
      <trkpt lat="44.76561" lon="0.44249">
        <ele>76</ele>
        <time>2023-07-14T06:52:49Z</time>
      </trkpt>
      <trkpt lat="44.76559" lon="0.44253">
        <ele>76.5</ele>
        <time>2023-07-14T06:52:51Z</time>
      </trkpt>
      <trkpt lat="44.76558" lon="0.44257">
        <ele>77</ele>
        <time>2023-07-14T06:52:53Z</time>
      </trkpt>
      <trkpt lat="44.76557" lon="0.44259">
        <ele>77.3</ele>
        <time>2023-07-14T06:52:54Z</time>
      </trkpt>
      <trkpt lat="44.76556" lon="0.44261">
        <ele>77.6</ele>
        <time>2023-07-14T06:52:55Z</time>
      </trkpt>
      <trkpt lat="44.76555" lon="0.44266">
        <ele>78.2</ele>
        <time>2023-07-14T06:52:57Z</time>
      </trkpt>
      <trkpt lat="44.76554" lon="0.4427">
        <ele>78.7</ele>
        <time>2023-07-14T06:52:59Z</time>
      </trkpt>
      <trkpt lat="44.76553" lon="0.44272">
        <ele>79.1</ele>
        <time>2023-07-14T06:53:00Z</time>
      </trkpt>
      <trkpt lat="44.76553" lon="0.44274">
        <ele>79.4</ele>
        <time>2023-07-14T06:53:01Z</time>
      </trkpt>
      <trkpt lat="44.76552" lon="0.44278">
        <ele>79.9</ele>
        <time>2023-07-14T06:53:03Z</time>
      </trkpt>
      <trkpt lat="44.76551" lon="0.4428">
        <ele>80.2</ele>
        <time>2023-07-14T06:53:04Z</time>
      </trkpt>
      <trkpt lat="44.7655" lon="0.44282">
        <ele>80.6</ele>
        <time>2023-07-14T06:53:05Z</time>
      </trkpt>
      <trkpt lat="44.76548" lon="0.44287">
        <ele>81.4</ele>
        <time>2023-07-14T06:53:07Z</time>
      </trkpt>
      <trkpt lat="44.76546" lon="0.44291">
        <ele>82</ele>
        <time>2023-07-14T06:53:09Z</time>
      </trkpt>
      <trkpt lat="44.76547" lon="0.44297">
        <ele>82.7</ele>
        <time>2023-07-14T06:53:11Z</time>
      </trkpt>
      <trkpt lat="44.76548" lon="0.44301">
        <ele>83.3</ele>
        <time>2023-07-14T06:53:13Z</time>
      </trkpt>
      <trkpt lat="44.76548" lon="0.44304">
        <ele>83.6</ele>
        <time>2023-07-14T06:53:14Z</time>
      </trkpt>
      <trkpt lat="44.76549" lon="0.44305">
        <ele>83.8</ele>
        <time>2023-07-14T06:53:15Z</time>
      </trkpt>
      <trkpt lat="44.76548" lon="0.44309">
        <ele>84.3</ele>
        <time>2023-07-14T06:53:17Z</time>
      </trkpt>
      <trkpt lat="44.76547" lon="0.44315">
        <ele>84.9</ele>
        <time>2023-07-14T06:53:19Z</time>
      </trkpt>
      <trkpt lat="44.76547" lon="0.4432">
        <ele>85.5</ele>
        <time>2023-07-14T06:53:21Z</time>
      </trkpt>
      <trkpt lat="44.76548" lon="0.44324">
        <ele>85.9</ele>
        <time>2023-07-14T06:53:23Z</time>
      </trkpt>
      <trkpt lat="44.76548" lon="0.44327">
        <ele>86.1</ele>
        <time>2023-07-14T06:53:25Z</time>
      </trkpt>
      <trkpt lat="44.76545" lon="0.4433">
        <ele>86.6</ele>
        <time>2023-07-14T06:53:27Z</time>
      </trkpt>
      <trkpt lat="44.76544" lon="0.44334">
        <ele>86.9</ele>
        <time>2023-07-14T06:53:29Z</time>
      </trkpt>
      <trkpt lat="44.76542" lon="0.44337">
        <ele>87.2</ele>
        <time>2023-07-14T06:53:31Z</time>
      </trkpt>
      <trkpt lat="44.7654" lon="0.44341">
        <ele>87.5</ele>
        <time>2023-07-14T06:53:33Z</time>
      </trkpt>
      <trkpt lat="44.76536" lon="0.44344">
        <ele>87.9</ele>
        <time>2023-07-14T06:53:35Z</time>
      </trkpt>
      <trkpt lat="44.76534" lon="0.44349">
        <ele>88.2</ele>
        <time>2023-07-14T06:53:37Z</time>
      </trkpt>
      <trkpt lat="44.76532" lon="0.44355">
        <ele>88.6</ele>
        <time>2023-07-14T06:53:39Z</time>
      </trkpt>
      <trkpt lat="44.7653" lon="0.4436">
        <ele>88.9</ele>
        <time>2023-07-14T06:53:41Z</time>
      </trkpt>
      <trkpt lat="44.76529" lon="0.44364">
        <ele>89</ele>
        <time>2023-07-14T06:53:42Z</time>
      </trkpt>
      <trkpt lat="44.76529" lon="0.44368">
        <ele>89.2</ele>
        <time>2023-07-14T06:53:43Z</time>
      </trkpt>
      <trkpt lat="44.76527" lon="0.44375">
        <ele>89.5</ele>
        <time>2023-07-14T06:53:45Z</time>
      </trkpt>
      <trkpt lat="44.76526" lon="0.44378">
        <ele>89.6</ele>
        <time>2023-07-14T06:53:46Z</time>
      </trkpt>
      <trkpt lat="44.76525" lon="0.44382">
        <ele>89.7</ele>
        <time>2023-07-14T06:53:47Z</time>
      </trkpt>
      <trkpt lat="44.76524" lon="0.44386">
        <ele>89.8</ele>
        <time>2023-07-14T06:53:48Z</time>
      </trkpt>
      <trkpt lat="44.76524" lon="0.44389">
        <ele>89.9</ele>
        <time>2023-07-14T06:53:49Z</time>
      </trkpt>
      <trkpt lat="44.76524" lon="0.44395">
        <ele>90</ele>
        <time>2023-07-14T06:53:50Z</time>
      </trkpt>
      <trkpt lat="44.76523" lon="0.44398">
        <ele>90</ele>
        <time>2023-07-14T06:53:51Z</time>
      </trkpt>
      <trkpt lat="44.76522" lon="0.44406">
        <ele>90.1</ele>
        <time>2023-07-14T06:53:53Z</time>
      </trkpt>
      <trkpt lat="44.76522" lon="0.44411">
        <ele>90.1</ele>
        <time>2023-07-14T06:53:54Z</time>
      </trkpt>
      <trkpt lat="44.76522" lon="0.44415">
        <ele>90.2</ele>
        <time>2023-07-14T06:53:55Z</time>
      </trkpt>
      <trkpt lat="44.76521" lon="0.44425">
        <ele>90.2</ele>
        <time>2023-07-14T06:53:57Z</time>
      </trkpt>
      <trkpt lat="44.76521" lon="0.4443">
        <ele>90.2</ele>
        <time>2023-07-14T06:53:58Z</time>
      </trkpt>
      <trkpt lat="44.7652" lon="0.44434">
        <ele>90.3</ele>
        <time>2023-07-14T06:53:59Z</time>
      </trkpt>
      <trkpt lat="44.76519" lon="0.44443">
        <ele>90.3</ele>
        <time>2023-07-14T06:54:01Z</time>
      </trkpt>
      <trkpt lat="44.76518" lon="0.44448">
        <ele>90.3</ele>
        <time>2023-07-14T06:54:02Z</time>
      </trkpt>
      <trkpt lat="44.76518" lon="0.44451">
        <ele>90.4</ele>
        <time>2023-07-14T06:54:03Z</time>
      </trkpt>
      <trkpt lat="44.76515" lon="0.44461">
        <ele>90.5</ele>
        <time>2023-07-14T06:54:05Z</time>
      </trkpt>
      <trkpt lat="44.76514" lon="0.44466">
        <ele>90.5</ele>
        <time>2023-07-14T06:54:06Z</time>
      </trkpt>
      <trkpt lat="44.76512" lon="0.44472">
        <ele>90.5</ele>
        <time>2023-07-14T06:54:07Z</time>
      </trkpt>
      <trkpt lat="44.76511" lon="0.44483">
        <ele>90.6</ele>
        <time>2023-07-14T06:54:09Z</time>
      </trkpt>
      <trkpt lat="44.76509" lon="0.44493">
        <ele>90.6</ele>
        <time>2023-07-14T06:54:11Z</time>
      </trkpt>
      <trkpt lat="44.76509" lon="0.44498">
        <ele>90.6</ele>
        <time>2023-07-14T06:54:12Z</time>
      </trkpt>
      <trkpt lat="44.76508" lon="0.44504">
        <ele>90.6</ele>
        <time>2023-07-14T06:54:13Z</time>
      </trkpt>
      <trkpt lat="44.76506" lon="0.44514">
        <ele>90.6</ele>
        <time>2023-07-14T06:54:15Z</time>
      </trkpt>
      <trkpt lat="44.76505" lon="0.44524">
        <ele>90.6</ele>
        <time>2023-07-14T06:54:17Z</time>
      </trkpt>
      <trkpt lat="44.76502" lon="0.44535">
        <ele>90.7</ele>
        <time>2023-07-14T06:54:19Z</time>
      </trkpt>
      <trkpt lat="44.76501" lon="0.44544">
        <ele>90.7</ele>
        <time>2023-07-14T06:54:21Z</time>
      </trkpt>
      <trkpt lat="44.765" lon="0.4455">
        <ele>90.8</ele>
        <time>2023-07-14T06:54:22Z</time>
      </trkpt>
      <trkpt lat="44.765" lon="0.44554">
        <ele>90.8</ele>
        <time>2023-07-14T06:54:23Z</time>
      </trkpt>
      <trkpt lat="44.76498" lon="0.44565">
        <ele>90.9</ele>
        <time>2023-07-14T06:54:25Z</time>
      </trkpt>
      <trkpt lat="44.76497" lon="0.44575">
        <ele>91</ele>
        <time>2023-07-14T06:54:27Z</time>
      </trkpt>
      <trkpt lat="44.76495" lon="0.44585">
        <ele>91.2</ele>
        <time>2023-07-14T06:54:29Z</time>
      </trkpt>
      <trkpt lat="44.76494" lon="0.44595">
        <ele>91.3</ele>
        <time>2023-07-14T06:54:31Z</time>
      </trkpt>
      <trkpt lat="44.76494" lon="0.44598">
        <ele>91.4</ele>
        <time>2023-07-14T06:54:32Z</time>
      </trkpt>
      <trkpt lat="44.76494" lon="0.44601">
        <ele>91.5</ele>
        <time>2023-07-14T06:54:33Z</time>
      </trkpt>
      <trkpt lat="44.76493" lon="0.44611">
        <ele>91.7</ele>
        <time>2023-07-14T06:54:35Z</time>
      </trkpt>
      <trkpt lat="44.76491" lon="0.44616">
        <ele>91.8</ele>
        <time>2023-07-14T06:54:36Z</time>
      </trkpt>
      <trkpt lat="44.76488" lon="0.44621">
        <ele>92</ele>
        <time>2023-07-14T06:54:37Z</time>
      </trkpt>
      <trkpt lat="44.76487" lon="0.44626">
        <ele>92.1</ele>
        <time>2023-07-14T06:54:38Z</time>
      </trkpt>
      <trkpt lat="44.76486" lon="0.44631">
        <ele>92.2</ele>
        <time>2023-07-14T06:54:39Z</time>
      </trkpt>
      <trkpt lat="44.76484" lon="0.44641">
        <ele>92.4</ele>
        <time>2023-07-14T06:54:41Z</time>
      </trkpt>
      <trkpt lat="44.76482" lon="0.44646">
        <ele>92.5</ele>
        <time>2023-07-14T06:54:42Z</time>
      </trkpt>
      <trkpt lat="44.76481" lon="0.44651">
        <ele>92.6</ele>
        <time>2023-07-14T06:54:43Z</time>
      </trkpt>
      <trkpt lat="44.76479" lon="0.44662">
        <ele>92.7</ele>
        <time>2023-07-14T06:54:45Z</time>
      </trkpt>
      <trkpt lat="44.76477" lon="0.44673">
        <ele>92.7</ele>
        <time>2023-07-14T06:54:47Z</time>
      </trkpt>
      <trkpt lat="44.76476" lon="0.44679">
        <ele>92.6</ele>
        <time>2023-07-14T06:54:48Z</time>
      </trkpt>
      <trkpt lat="44.76476" lon="0.44686">
        <ele>92.5</ele>
        <time>2023-07-14T06:54:49Z</time>
      </trkpt>
      <trkpt lat="44.76475" lon="0.44694">
        <ele>92.4</ele>
        <time>2023-07-14T06:54:50Z</time>
      </trkpt>
      <trkpt lat="44.76474" lon="0.44702">
        <ele>92.3</ele>
        <time>2023-07-14T06:54:51Z</time>
      </trkpt>
      <trkpt lat="44.76473" lon="0.44718">
        <ele>91.9</ele>
        <time>2023-07-14T06:54:53Z</time>
      </trkpt>
      <trkpt lat="44.76474" lon="0.44736">
        <ele>91.5</ele>
        <time>2023-07-14T06:54:55Z</time>
      </trkpt>
      <trkpt lat="44.76476" lon="0.44755">
        <ele>91.1</ele>
        <time>2023-07-14T06:54:57Z</time>
      </trkpt>
      <trkpt lat="44.76481" lon="0.44774">
        <ele>90.8</ele>
        <time>2023-07-14T06:54:59Z</time>
      </trkpt>
      <trkpt lat="44.76484" lon="0.44782">
        <ele>90.8</ele>
        <time>2023-07-14T06:55:00Z</time>
      </trkpt>
      <trkpt lat="44.76487" lon="0.44791">
        <ele>90.8</ele>
        <time>2023-07-14T06:55:01Z</time>
      </trkpt>
      <trkpt lat="44.76493" lon="0.44806">
        <ele>90.8</ele>
        <time>2023-07-14T06:55:03Z</time>
      </trkpt>
      <trkpt lat="44.76498" lon="0.44822">
        <ele>90.7</ele>
        <time>2023-07-14T06:55:05Z</time>
      </trkpt>
      <trkpt lat="44.765" lon="0.4483">
        <ele>90.7</ele>
        <time>2023-07-14T06:55:06Z</time>
      </trkpt>
      <trkpt lat="44.76502" lon="0.44838">
        <ele>90.8</ele>
        <time>2023-07-14T06:55:07Z</time>
      </trkpt>
      <trkpt lat="44.76506" lon="0.44853">
        <ele>90.8</ele>
        <time>2023-07-14T06:55:09Z</time>
      </trkpt>
      <trkpt lat="44.76507" lon="0.44861">
        <ele>90.8</ele>
        <time>2023-07-14T06:55:10Z</time>
      </trkpt>
      <trkpt lat="44.76507" lon="0.44868">
        <ele>90.9</ele>
        <time>2023-07-14T06:55:11Z</time>
      </trkpt>
      <trkpt lat="44.76507" lon="0.44881">
        <ele>91</ele>
        <time>2023-07-14T06:55:13Z</time>
      </trkpt>
      <trkpt lat="44.76508" lon="0.44893">
        <ele>91.1</ele>
        <time>2023-07-14T06:55:15Z</time>
      </trkpt>
      <trkpt lat="44.76508" lon="0.44904">
        <ele>91.2</ele>
        <time>2023-07-14T06:55:17Z</time>
      </trkpt>
      <trkpt lat="44.76508" lon="0.44915">
        <ele>91.3</ele>
        <time>2023-07-14T06:55:19Z</time>
      </trkpt>
      <trkpt lat="44.76511" lon="0.44927">
        <ele>91.4</ele>
        <time>2023-07-14T06:55:21Z</time>
      </trkpt>
      <trkpt lat="44.76512" lon="0.44933">
        <ele>91.4</ele>
        <time>2023-07-14T06:55:22Z</time>
      </trkpt>
      <trkpt lat="44.76513" lon="0.44941">
        <ele>91.4</ele>
        <time>2023-07-14T06:55:23Z</time>
      </trkpt>
      <trkpt lat="44.76514" lon="0.44956">
        <ele>91.4</ele>
        <time>2023-07-14T06:55:25Z</time>
      </trkpt>
      <trkpt lat="44.76515" lon="0.4497">
        <ele>91.3</ele>
        <time>2023-07-14T06:55:27Z</time>
      </trkpt>
      <trkpt lat="44.76516" lon="0.44984">
        <ele>91.2</ele>
        <time>2023-07-14T06:55:29Z</time>
      </trkpt>
      <trkpt lat="44.76518" lon="0.44998">
        <ele>90.9</ele>
        <time>2023-07-14T06:55:31Z</time>
      </trkpt>
      <trkpt lat="44.76515" lon="0.45012">
        <ele>90.7</ele>
        <time>2023-07-14T06:55:33Z</time>
      </trkpt>
      <trkpt lat="44.76512" lon="0.45017">
        <ele>90.5</ele>
        <time>2023-07-14T06:55:34Z</time>
      </trkpt>
      <trkpt lat="44.76507" lon="0.45022">
        <ele>90.4</ele>
        <time>2023-07-14T06:55:35Z</time>
      </trkpt>
      <trkpt lat="44.76496" lon="0.45028">
        <ele>90.2</ele>
        <time>2023-07-14T06:55:37Z</time>
      </trkpt>
      <trkpt lat="44.76491" lon="0.45029">
        <ele>90.2</ele>
        <time>2023-07-14T06:55:38Z</time>
      </trkpt>
      <trkpt lat="44.76487" lon="0.45031">
        <ele>90.2</ele>
        <time>2023-07-14T06:55:39Z</time>
      </trkpt>
      <trkpt lat="44.76482" lon="0.45033">
        <ele>90.2</ele>
        <time>2023-07-14T06:55:40Z</time>
      </trkpt>
      <trkpt lat="44.76478" lon="0.45035">
        <ele>90.2</ele>
        <time>2023-07-14T06:55:41Z</time>
      </trkpt>
      <trkpt lat="44.76467" lon="0.45039">
        <ele>90.2</ele>
        <time>2023-07-14T06:55:43Z</time>
      </trkpt>
      <trkpt lat="44.76457" lon="0.45043">
        <ele>90.3</ele>
        <time>2023-07-14T06:55:45Z</time>
      </trkpt>
      <trkpt lat="44.76448" lon="0.45046">
        <ele>90.4</ele>
        <time>2023-07-14T06:55:47Z</time>
      </trkpt>
      <trkpt lat="44.76443" lon="0.45048">
        <ele>90.4</ele>
        <time>2023-07-14T06:55:48Z</time>
      </trkpt>
      <trkpt lat="44.76438" lon="0.45051">
        <ele>90.6</ele>
        <time>2023-07-14T06:55:49Z</time>
      </trkpt>
      <trkpt lat="44.76428" lon="0.45057">
        <ele>90.8</ele>
        <time>2023-07-14T06:55:51Z</time>
      </trkpt>
      <trkpt lat="44.76423" lon="0.45059">
        <ele>91</ele>
        <time>2023-07-14T06:55:52Z</time>
      </trkpt>
      <trkpt lat="44.76418" lon="0.45061">
        <ele>91.1</ele>
        <time>2023-07-14T06:55:53Z</time>
      </trkpt>
      <trkpt lat="44.76407" lon="0.45063">
        <ele>91.4</ele>
        <time>2023-07-14T06:55:55Z</time>
      </trkpt>
      <trkpt lat="44.76402" lon="0.45063">
        <ele>91.6</ele>
        <time>2023-07-14T06:55:56Z</time>
      </trkpt>
      <trkpt lat="44.76397" lon="0.45063">
        <ele>91.7</ele>
        <time>2023-07-14T06:55:57Z</time>
      </trkpt>
      <trkpt lat="44.76388" lon="0.45062">
        <ele>92</ele>
        <time>2023-07-14T06:55:59Z</time>
      </trkpt>
      <trkpt lat="44.76378" lon="0.45061">
        <ele>92.3</ele>
        <time>2023-07-14T06:56:01Z</time>
      </trkpt>
      <trkpt lat="44.76374" lon="0.45061">
        <ele>92.4</ele>
        <time>2023-07-14T06:56:02Z</time>
      </trkpt>
      <trkpt lat="44.7637" lon="0.45061">
        <ele>92.6</ele>
        <time>2023-07-14T06:56:03Z</time>
      </trkpt>
      <trkpt lat="44.76362" lon="0.45059">
        <ele>92.8</ele>
        <time>2023-07-14T06:56:05Z</time>
      </trkpt>
      <trkpt lat="44.76353" lon="0.45055">
        <ele>93</ele>
        <time>2023-07-14T06:56:07Z</time>
      </trkpt>
      <trkpt lat="44.76349" lon="0.45052">
        <ele>93.1</ele>
        <time>2023-07-14T06:56:08Z</time>
      </trkpt>
      <trkpt lat="44.76345" lon="0.4505">
        <ele>93.2</ele>
        <time>2023-07-14T06:56:09Z</time>
      </trkpt>
      <trkpt lat="44.7634" lon="0.45048">
        <ele>93.3</ele>
        <time>2023-07-14T06:56:10Z</time>
      </trkpt>
      <trkpt lat="44.76335" lon="0.45047">
        <ele>93.4</ele>
        <time>2023-07-14T06:56:11Z</time>
      </trkpt>
      <trkpt lat="44.76331" lon="0.45046">
        <ele>93.6</ele>
        <time>2023-07-14T06:56:12Z</time>
      </trkpt>
      <trkpt lat="44.76326" lon="0.45046">
        <ele>93.7</ele>
        <time>2023-07-14T06:56:13Z</time>
      </trkpt>
      <trkpt lat="44.76321" lon="0.45046">
        <ele>93.8</ele>
        <time>2023-07-14T06:56:14Z</time>
      </trkpt>
      <trkpt lat="44.76316" lon="0.45047">
        <ele>93.9</ele>
        <time>2023-07-14T06:56:15Z</time>
      </trkpt>
      <trkpt lat="44.76312" lon="0.45048">
        <ele>94</ele>
        <time>2023-07-14T06:56:16Z</time>
      </trkpt>
      <trkpt lat="44.76307" lon="0.45049">
        <ele>94.1</ele>
        <time>2023-07-14T06:56:17Z</time>
      </trkpt>
      <trkpt lat="44.76299" lon="0.45052">
        <ele>94.2</ele>
        <time>2023-07-14T06:56:19Z</time>
      </trkpt>
      <trkpt lat="44.76296" lon="0.45054">
        <ele>94.3</ele>
        <time>2023-07-14T06:56:20Z</time>
      </trkpt>
      <trkpt lat="44.76292" lon="0.45056">
        <ele>94.3</ele>
        <time>2023-07-14T06:56:21Z</time>
      </trkpt>
      <trkpt lat="44.76284" lon="0.45062">
        <ele>94.5</ele>
        <time>2023-07-14T06:56:23Z</time>
      </trkpt>
      <trkpt lat="44.76279" lon="0.45065">
        <ele>94.6</ele>
        <time>2023-07-14T06:56:24Z</time>
      </trkpt>
      <trkpt lat="44.76276" lon="0.45067">
        <ele>94.6</ele>
        <time>2023-07-14T06:56:25Z</time>
      </trkpt>
      <trkpt lat="44.76271" lon="0.4507">
        <ele>94.7</ele>
        <time>2023-07-14T06:56:26Z</time>
      </trkpt>
      <trkpt lat="44.76267" lon="0.45074">
        <ele>94.8</ele>
        <time>2023-07-14T06:56:27Z</time>
      </trkpt>
      <trkpt lat="44.76258" lon="0.45081">
        <ele>95</ele>
        <time>2023-07-14T06:56:29Z</time>
      </trkpt>
      <trkpt lat="44.76254" lon="0.45082">
        <ele>95</ele>
        <time>2023-07-14T06:56:30Z</time>
      </trkpt>
      <trkpt lat="44.76249" lon="0.45082">
        <ele>95.1</ele>
        <time>2023-07-14T06:56:31Z</time>
      </trkpt>
      <trkpt lat="44.76245" lon="0.45081">
        <ele>95.1</ele>
        <time>2023-07-14T06:56:32Z</time>
      </trkpt>
      <trkpt lat="44.76242" lon="0.4508">
        <ele>95.2</ele>
        <time>2023-07-14T06:56:33Z</time>
      </trkpt>
      <trkpt lat="44.76235" lon="0.45074">
        <ele>95.2</ele>
        <time>2023-07-14T06:56:35Z</time>
      </trkpt>
      <trkpt lat="44.76231" lon="0.4507">
        <ele>95.1</ele>
        <time>2023-07-14T06:56:36Z</time>
      </trkpt>
      <trkpt lat="44.76226" lon="0.45065">
        <ele>95</ele>
        <time>2023-07-14T06:56:37Z</time>
      </trkpt>
      <trkpt lat="44.76216" lon="0.45057">
        <ele>94.9</ele>
        <time>2023-07-14T06:56:39Z</time>
      </trkpt>
      <trkpt lat="44.76205" lon="0.45048">
        <ele>94.9</ele>
        <time>2023-07-14T06:56:41Z</time>
      </trkpt>
      <trkpt lat="44.76195" lon="0.4504">
        <ele>95</ele>
        <time>2023-07-14T06:56:43Z</time>
      </trkpt>
      <trkpt lat="44.76186" lon="0.45033">
        <ele>95.1</ele>
        <time>2023-07-14T06:56:45Z</time>
      </trkpt>
      <trkpt lat="44.76177" lon="0.45026">
        <ele>95.4</ele>
        <time>2023-07-14T06:56:47Z</time>
      </trkpt>
      <trkpt lat="44.76173" lon="0.45023">
        <ele>95.5</ele>
        <time>2023-07-14T06:56:48Z</time>
      </trkpt>
      <trkpt lat="44.76169" lon="0.4502">
        <ele>95.6</ele>
        <time>2023-07-14T06:56:49Z</time>
      </trkpt>
      <trkpt lat="44.76162" lon="0.45016">
        <ele>95.8</ele>
        <time>2023-07-14T06:56:51Z</time>
      </trkpt>
      <trkpt lat="44.76154" lon="0.45013">
        <ele>96.1</ele>
        <time>2023-07-14T06:56:53Z</time>
      </trkpt>
      <trkpt lat="44.76147" lon="0.45017">
        <ele>96.3</ele>
        <time>2023-07-14T06:56:55Z</time>
      </trkpt>
      <trkpt lat="44.76144" lon="0.45021">
        <ele>96.2</ele>
        <time>2023-07-14T06:56:56Z</time>
      </trkpt>
      <trkpt lat="44.7614" lon="0.45025">
        <ele>96.2</ele>
        <time>2023-07-14T06:56:57Z</time>
      </trkpt>
      <trkpt lat="44.76134" lon="0.45034">
        <ele>96.1</ele>
        <time>2023-07-14T06:56:59Z</time>
      </trkpt>
      <trkpt lat="44.76128" lon="0.45043">
        <ele>96</ele>
        <time>2023-07-14T06:57:01Z</time>
      </trkpt>
      <trkpt lat="44.76122" lon="0.45053">
        <ele>95.8</ele>
        <time>2023-07-14T06:57:03Z</time>
      </trkpt>
      <trkpt lat="44.76115" lon="0.4506">
        <ele>95.9</ele>
        <time>2023-07-14T06:57:05Z</time>
      </trkpt>
      <trkpt lat="44.76108" lon="0.45066">
        <ele>95.9</ele>
        <time>2023-07-14T06:57:07Z</time>
      </trkpt>
      <trkpt lat="44.76101" lon="0.45074">
        <ele>95.9</ele>
        <time>2023-07-14T06:57:09Z</time>
      </trkpt>
      <trkpt lat="44.76098" lon="0.45077">
        <ele>96</ele>
        <time>2023-07-14T06:57:10Z</time>
      </trkpt>
      <trkpt lat="44.76095" lon="0.4508">
        <ele>96</ele>
        <time>2023-07-14T06:57:11Z</time>
      </trkpt>
      <trkpt lat="44.7609" lon="0.45087">
        <ele>96.1</ele>
        <time>2023-07-14T06:57:13Z</time>
      </trkpt>
      <trkpt lat="44.76084" lon="0.45095">
        <ele>96.2</ele>
        <time>2023-07-14T06:57:15Z</time>
      </trkpt>
      <trkpt lat="44.76078" lon="0.45102">
        <ele>96.2</ele>
        <time>2023-07-14T06:57:17Z</time>
      </trkpt>
      <trkpt lat="44.76075" lon="0.45105">
        <ele>96.3</ele>
        <time>2023-07-14T06:57:18Z</time>
      </trkpt>
      <trkpt lat="44.76072" lon="0.45108">
        <ele>96.3</ele>
        <time>2023-07-14T06:57:19Z</time>
      </trkpt>
      <trkpt lat="44.76066" lon="0.45115">
        <ele>96.4</ele>
        <time>2023-07-14T06:57:21Z</time>
      </trkpt>
      <trkpt lat="44.7606" lon="0.45122">
        <ele>96.5</ele>
        <time>2023-07-14T06:57:23Z</time>
      </trkpt>
      <trkpt lat="44.76053" lon="0.45128">
        <ele>96.7</ele>
        <time>2023-07-14T06:57:25Z</time>
      </trkpt>
      <trkpt lat="44.76048" lon="0.45135">
        <ele>96.8</ele>
        <time>2023-07-14T06:57:27Z</time>
      </trkpt>
      <trkpt lat="44.76042" lon="0.45144">
        <ele>96.9</ele>
        <time>2023-07-14T06:57:29Z</time>
      </trkpt>
      <trkpt lat="44.76037" lon="0.4515">
        <ele>97</ele>
        <time>2023-07-14T06:57:31Z</time>
      </trkpt>
      <trkpt lat="44.76034" lon="0.45154">
        <ele>97</ele>
        <time>2023-07-14T06:57:32Z</time>
      </trkpt>
      <trkpt lat="44.7603" lon="0.45157">
        <ele>97.1</ele>
        <time>2023-07-14T06:57:33Z</time>
      </trkpt>
      <trkpt lat="44.76024" lon="0.45164">
        <ele>97.2</ele>
        <time>2023-07-14T06:57:35Z</time>
      </trkpt>
      <trkpt lat="44.76018" lon="0.45171">
        <ele>97.3</ele>
        <time>2023-07-14T06:57:37Z</time>
      </trkpt>
      <trkpt lat="44.76012" lon="0.45177">
        <ele>97.3</ele>
        <time>2023-07-14T06:57:39Z</time>
      </trkpt>
      <trkpt lat="44.76009" lon="0.45181">
        <ele>97.4</ele>
        <time>2023-07-14T06:57:40Z</time>
      </trkpt>
      <trkpt lat="44.76006" lon="0.45185">
        <ele>97.4</ele>
        <time>2023-07-14T06:57:41Z</time>
      </trkpt>
      <trkpt lat="44.76002" lon="0.45193">
        <ele>97.6</ele>
        <time>2023-07-14T06:57:43Z</time>
      </trkpt>
      <trkpt lat="44.76" lon="0.45198">
        <ele>97.4</ele>
        <time>2023-07-14T06:57:45Z</time>
      </trkpt>
      <trkpt lat="44.76001" lon="0.45201">
        <ele>97.4</ele>
        <time>2023-07-14T06:57:46Z</time>
      </trkpt>
      <trkpt lat="44.76003" lon="0.45203">
        <ele>97.3</ele>
        <time>2023-07-14T06:57:47Z</time>
      </trkpt>
      <trkpt lat="44.76008" lon="0.4521">
        <ele>97.1</ele>
        <time>2023-07-14T06:57:49Z</time>
      </trkpt>
      <trkpt lat="44.76014" lon="0.45217">
        <ele>96.9</ele>
        <time>2023-07-14T06:57:51Z</time>
      </trkpt>
      <trkpt lat="44.76017" lon="0.45221">
        <ele>96.8</ele>
        <time>2023-07-14T06:57:52Z</time>
      </trkpt>
      <trkpt lat="44.7602" lon="0.45226">
        <ele>96.6</ele>
        <time>2023-07-14T06:57:53Z</time>
      </trkpt>
      <trkpt lat="44.76024" lon="0.4523">
        <ele>96.5</ele>
        <time>2023-07-14T06:57:54Z</time>
      </trkpt>
      <trkpt lat="44.76026" lon="0.45235">
        <ele>96.3</ele>
        <time>2023-07-14T06:57:55Z</time>
      </trkpt>
      <trkpt lat="44.76029" lon="0.45241">
        <ele>96.1</ele>
        <time>2023-07-14T06:57:56Z</time>
      </trkpt>
      <trkpt lat="44.76032" lon="0.45246">
        <ele>96</ele>
        <time>2023-07-14T06:57:57Z</time>
      </trkpt>
      <trkpt lat="44.76039" lon="0.45258">
        <ele>95.6</ele>
        <time>2023-07-14T06:57:59Z</time>
      </trkpt>
      <trkpt lat="44.76046" lon="0.4527">
        <ele>95.2</ele>
        <time>2023-07-14T06:58:01Z</time>
      </trkpt>
      <trkpt lat="44.76053" lon="0.45282">
        <ele>94.7</ele>
        <time>2023-07-14T06:58:03Z</time>
      </trkpt>
      <trkpt lat="44.7606" lon="0.45296">
        <ele>94.3</ele>
        <time>2023-07-14T06:58:05Z</time>
      </trkpt>
      <trkpt lat="44.76068" lon="0.4531">
        <ele>93.9</ele>
        <time>2023-07-14T06:58:07Z</time>
      </trkpt>
      <trkpt lat="44.76071" lon="0.45318">
        <ele>93.7</ele>
        <time>2023-07-14T06:58:08Z</time>
      </trkpt>
      <trkpt lat="44.76075" lon="0.45324">
        <ele>93.5</ele>
        <time>2023-07-14T06:58:09Z</time>
      </trkpt>
      <trkpt lat="44.76079" lon="0.45332">
        <ele>93.4</ele>
        <time>2023-07-14T06:58:10Z</time>
      </trkpt>
      <trkpt lat="44.76082" lon="0.45339">
        <ele>93.4</ele>
        <time>2023-07-14T06:58:11Z</time>
      </trkpt>
      <trkpt lat="44.76086" lon="0.45347">
        <ele>93.4</ele>
        <time>2023-07-14T06:58:12Z</time>
      </trkpt>
      <trkpt lat="44.76089" lon="0.45353">
        <ele>93.3</ele>
        <time>2023-07-14T06:58:13Z</time>
      </trkpt>
      <trkpt lat="44.76097" lon="0.45366">
        <ele>92.9</ele>
        <time>2023-07-14T06:58:15Z</time>
      </trkpt>
      <trkpt lat="44.76101" lon="0.45373">
        <ele>92.7</ele>
        <time>2023-07-14T06:58:17Z</time>
      </trkpt>
      <trkpt lat="44.76102" lon="0.45376">
        <ele>92.7</ele>
        <time>2023-07-14T06:58:18Z</time>
      </trkpt>
      <trkpt lat="44.76103" lon="0.45378">
        <ele>92.6</ele>
        <time>2023-07-14T06:58:19Z</time>
      </trkpt>
      <trkpt lat="44.76105" lon="0.45379">
        <ele>92.6</ele>
        <time>2023-07-14T06:58:20Z</time>
      </trkpt>
      <trkpt lat="44.76106" lon="0.45378">
        <ele>92.6</ele>
        <time>2023-07-14T06:58:21Z</time>
      </trkpt>
      <trkpt lat="44.76107" lon="0.45379">
        <ele>92.6</ele>
        <time>2023-07-14T06:58:22Z</time>
      </trkpt>
      <trkpt lat="44.76107" lon="0.45379">
        <ele>92.6</ele>
        <time>2023-07-14T06:58:23Z</time>
      </trkpt>
      <trkpt lat="44.76111" lon="0.45373">
        <ele>92.5</ele>
        <time>2023-07-14T06:58:28Z</time>
      </trkpt>
      <trkpt lat="44.76113" lon="0.45371">
        <ele>92.5</ele>
        <time>2023-07-14T06:58:29Z</time>
      </trkpt>
      <trkpt lat="44.76116" lon="0.45367">
        <ele>92.4</ele>
        <time>2023-07-14T06:58:31Z</time>
      </trkpt>
      <trkpt lat="44.76117" lon="0.45365">
        <ele>92.3</ele>
        <time>2023-07-14T06:58:32Z</time>
      </trkpt>
      <trkpt lat="44.76117" lon="0.45363">
        <ele>92.3</ele>
        <time>2023-07-14T06:58:33Z</time>
      </trkpt>
      <trkpt lat="44.76118" lon="0.45361">
        <ele>92.2</ele>
        <time>2023-07-14T06:58:34Z</time>
      </trkpt>
      <trkpt lat="44.7612" lon="0.45358">
        <ele>92.2</ele>
        <time>2023-07-14T06:58:35Z</time>
      </trkpt>
      <trkpt lat="44.76122" lon="0.45357">
        <ele>92.1</ele>
        <time>2023-07-14T06:58:36Z</time>
      </trkpt>
      <trkpt lat="44.76124" lon="0.45355">
        <ele>92.1</ele>
        <time>2023-07-14T06:58:37Z</time>
      </trkpt>
      <trkpt lat="44.76124" lon="0.45353">
        <ele>92</ele>
        <time>2023-07-14T06:58:38Z</time>
      </trkpt>
      <trkpt lat="44.76125" lon="0.4535">
        <ele>91.9</ele>
        <time>2023-07-14T06:58:39Z</time>
      </trkpt>
      <trkpt lat="44.76129" lon="0.45345">
        <ele>91.7</ele>
        <time>2023-07-14T06:58:41Z</time>
      </trkpt>
      <trkpt lat="44.76132" lon="0.4534">
        <ele>91.6</ele>
        <time>2023-07-14T06:58:42Z</time>
      </trkpt>
      <trkpt lat="44.76135" lon="0.45335">
        <ele>91.4</ele>
        <time>2023-07-14T06:58:43Z</time>
      </trkpt>
      <trkpt lat="44.76142" lon="0.45329">
        <ele>91.2</ele>
        <time>2023-07-14T06:58:45Z</time>
      </trkpt>
      <trkpt lat="44.76145" lon="0.45328">
        <ele>91.2</ele>
        <time>2023-07-14T06:58:46Z</time>
      </trkpt>
      <trkpt lat="44.76146" lon="0.45328">
        <ele>91.1</ele>
        <time>2023-07-14T06:58:47Z</time>
      </trkpt>
      <trkpt lat="44.7615" lon="0.45324">
        <ele>91.1</ele>
        <time>2023-07-14T06:58:49Z</time>
      </trkpt>
      <trkpt lat="44.76152" lon="0.45322">
        <ele>91.1</ele>
        <time>2023-07-14T06:58:50Z</time>
      </trkpt>
      <trkpt lat="44.76155" lon="0.45321">
        <ele>91.1</ele>
        <time>2023-07-14T06:58:51Z</time>
      </trkpt>
      <trkpt lat="44.7616" lon="0.45316">
        <ele>91.1</ele>
        <time>2023-07-14T06:58:53Z</time>
      </trkpt>
      <trkpt lat="44.76162" lon="0.45315">
        <ele>91.1</ele>
        <time>2023-07-14T06:58:54Z</time>
      </trkpt>
      <trkpt lat="44.76165" lon="0.45313">
        <ele>91.2</ele>
        <time>2023-07-14T06:58:55Z</time>
      </trkpt>
      <trkpt lat="44.76169" lon="0.45311">
        <ele>91.2</ele>
        <time>2023-07-14T06:58:57Z</time>
      </trkpt>
      <trkpt lat="44.76172" lon="0.45309">
        <ele>91.2</ele>
        <time>2023-07-14T06:58:58Z</time>
      </trkpt>
      <trkpt lat="44.76175" lon="0.45308">
        <ele>91.3</ele>
        <time>2023-07-14T06:58:59Z</time>
      </trkpt>
      <trkpt lat="44.76179" lon="0.45308">
        <ele>91.3</ele>
        <time>2023-07-14T06:59:00Z</time>
      </trkpt>
      <trkpt lat="44.76182" lon="0.45307">
        <ele>91.3</ele>
        <time>2023-07-14T06:59:01Z</time>
      </trkpt>
      <trkpt lat="44.76189" lon="0.45305">
        <ele>91.4</ele>
        <time>2023-07-14T06:59:03Z</time>
      </trkpt>
      <trkpt lat="44.76191" lon="0.45305">
        <ele>91.4</ele>
        <time>2023-07-14T06:59:04Z</time>
      </trkpt>
      <trkpt lat="44.76194" lon="0.45305">
        <ele>91.4</ele>
        <time>2023-07-14T06:59:05Z</time>
      </trkpt>
      <trkpt lat="44.76201" lon="0.45304">
        <ele>91.5</ele>
        <time>2023-07-14T06:59:07Z</time>
      </trkpt>
      <trkpt lat="44.76203" lon="0.45304">
        <ele>91.6</ele>
        <time>2023-07-14T06:59:08Z</time>
      </trkpt>
      <trkpt lat="44.76206" lon="0.45304">
        <ele>91.6</ele>
        <time>2023-07-14T06:59:09Z</time>
      </trkpt>
      <trkpt lat="44.76209" lon="0.45304">
        <ele>91.7</ele>
        <time>2023-07-14T06:59:10Z</time>
      </trkpt>
      <trkpt lat="44.76213" lon="0.45304">
        <ele>91.8</ele>
        <time>2023-07-14T06:59:11Z</time>
      </trkpt>
      <trkpt lat="44.76217" lon="0.45304">
        <ele>91.9</ele>
        <time>2023-07-14T06:59:12Z</time>
      </trkpt>
      <trkpt lat="44.7622" lon="0.45303">
        <ele>92</ele>
        <time>2023-07-14T06:59:13Z</time>
      </trkpt>
      <trkpt lat="44.76226" lon="0.45301">
        <ele>92.1</ele>
        <time>2023-07-14T06:59:15Z</time>
      </trkpt>
      <trkpt lat="44.76231" lon="0.45298">
        <ele>92.2</ele>
        <time>2023-07-14T06:59:17Z</time>
      </trkpt>
      <trkpt lat="44.76241" lon="0.45295">
        <ele>92.4</ele>
        <time>2023-07-14T06:59:19Z</time>
      </trkpt>
      <trkpt lat="44.76245" lon="0.45293">
        <ele>92.5</ele>
        <time>2023-07-14T06:59:20Z</time>
      </trkpt>
      <trkpt lat="44.76249" lon="0.45292">
        <ele>92.6</ele>
        <time>2023-07-14T06:59:21Z</time>
      </trkpt>
      <trkpt lat="44.76256" lon="0.45291">
        <ele>92.7</ele>
        <time>2023-07-14T06:59:23Z</time>
      </trkpt>
      <trkpt lat="44.76259" lon="0.45291">
        <ele>92.8</ele>
        <time>2023-07-14T06:59:24Z</time>
      </trkpt>
      <trkpt lat="44.76262" lon="0.4529">
        <ele>92.8</ele>
        <time>2023-07-14T06:59:25Z</time>
      </trkpt>
      <trkpt lat="44.76268" lon="0.45288">
        <ele>92.9</ele>
        <time>2023-07-14T06:59:27Z</time>
      </trkpt>
      <trkpt lat="44.76271" lon="0.45286">
        <ele>92.9</ele>
        <time>2023-07-14T06:59:28Z</time>
      </trkpt>
      <trkpt lat="44.76274" lon="0.45282">
        <ele>92.8</ele>
        <time>2023-07-14T06:59:29Z</time>
      </trkpt>
      <trkpt lat="44.76279" lon="0.45277">
        <ele>92.8</ele>
        <time>2023-07-14T06:59:31Z</time>
      </trkpt>
      <trkpt lat="44.76282" lon="0.45272">
        <ele>92.7</ele>
        <time>2023-07-14T06:59:33Z</time>
      </trkpt>
      <trkpt lat="44.76288" lon="0.45265">
        <ele>92.6</ele>
        <time>2023-07-14T06:59:35Z</time>
      </trkpt>
      <trkpt lat="44.7629" lon="0.45261">
        <ele>92.6</ele>
        <time>2023-07-14T06:59:36Z</time>
      </trkpt>
      <trkpt lat="44.76294" lon="0.45255">
        <ele>92.5</ele>
        <time>2023-07-14T06:59:37Z</time>
      </trkpt>
      <trkpt lat="44.76297" lon="0.4525">
        <ele>92.3</ele>
        <time>2023-07-14T06:59:38Z</time>
      </trkpt>
      <trkpt lat="44.76301" lon="0.45245">
        <ele>92.2</ele>
        <time>2023-07-14T06:59:39Z</time>
      </trkpt>
      <trkpt lat="44.76309" lon="0.45234">
        <ele>91.8</ele>
        <time>2023-07-14T06:59:41Z</time>
      </trkpt>
      <trkpt lat="44.76316" lon="0.45222">
        <ele>91.3</ele>
        <time>2023-07-14T06:59:43Z</time>
      </trkpt>
      <trkpt lat="44.76319" lon="0.45217">
        <ele>90.9</ele>
        <time>2023-07-14T06:59:44Z</time>
      </trkpt>
      <trkpt lat="44.76323" lon="0.45214">
        <ele>90.5</ele>
        <time>2023-07-14T06:59:45Z</time>
      </trkpt>
      <trkpt lat="44.76327" lon="0.4521">
        <ele>90.1</ele>
        <time>2023-07-14T06:59:46Z</time>
      </trkpt>
      <trkpt lat="44.7633" lon="0.45207">
        <ele>89.6</ele>
        <time>2023-07-14T06:59:47Z</time>
      </trkpt>
      <trkpt lat="44.76334" lon="0.45204">
        <ele>89.2</ele>
        <time>2023-07-14T06:59:48Z</time>
      </trkpt>
      <trkpt lat="44.76339" lon="0.45202">
        <ele>88.7</ele>
        <time>2023-07-14T06:59:49Z</time>
      </trkpt>
      <trkpt lat="44.76344" lon="0.45202">
        <ele>88.2</ele>
        <time>2023-07-14T06:59:50Z</time>
      </trkpt>
      <trkpt lat="44.76348" lon="0.45203">
        <ele>87.7</ele>
        <time>2023-07-14T06:59:51Z</time>
      </trkpt>
      <trkpt lat="44.76355" lon="0.45203">
        <ele>87.1</ele>
        <time>2023-07-14T06:59:53Z</time>
      </trkpt>
      <trkpt lat="44.76361" lon="0.45203">
        <ele>86.5</ele>
        <time>2023-07-14T06:59:55Z</time>
      </trkpt>
      <trkpt lat="44.76368" lon="0.45202">
        <ele>85.8</ele>
        <time>2023-07-14T06:59:57Z</time>
      </trkpt>
      <trkpt lat="44.76376" lon="0.452">
        <ele>85.2</ele>
        <time>2023-07-14T06:59:59Z</time>
      </trkpt>
      <trkpt lat="44.76386" lon="0.45195">
        <ele>84.1</ele>
        <time>2023-07-14T07:00:01Z</time>
      </trkpt>
      <trkpt lat="44.76398" lon="0.45188">
        <ele>83.1</ele>
        <time>2023-07-14T07:00:03Z</time>
      </trkpt>
      <trkpt lat="44.76408" lon="0.45185">
        <ele>82.2</ele>
        <time>2023-07-14T07:00:05Z</time>
      </trkpt>
      <trkpt lat="44.7642" lon="0.45182">
        <ele>81.4</ele>
        <time>2023-07-14T07:00:07Z</time>
      </trkpt>
      <trkpt lat="44.76433" lon="0.45177">
        <ele>80.7</ele>
        <time>2023-07-14T07:00:09Z</time>
      </trkpt>
      <trkpt lat="44.76443" lon="0.45174">
        <ele>80.5</ele>
        <time>2023-07-14T07:00:11Z</time>
      </trkpt>
      <trkpt lat="44.76448" lon="0.45174">
        <ele>80.4</ele>
        <time>2023-07-14T07:00:13Z</time>
      </trkpt>
      <trkpt lat="44.76449" lon="0.45175">
        <ele>80.4</ele>
        <time>2023-07-14T07:00:14Z</time>
      </trkpt>
      <trkpt lat="44.76451" lon="0.45175">
        <ele>80.4</ele>
        <time>2023-07-14T07:00:15Z</time>
      </trkpt>
      <trkpt lat="44.76475" lon="0.45173">
        <ele>81.3</ele>
        <time>2023-07-14T07:00:35Z</time>
      </trkpt>
      <trkpt lat="44.76476" lon="0.45169">
        <ele>81.3</ele>
        <time>2023-07-14T07:00:36Z</time>
      </trkpt>
      <trkpt lat="44.76478" lon="0.45165">
        <ele>81.3</ele>
        <time>2023-07-14T07:00:37Z</time>
      </trkpt>
      <trkpt lat="44.7648" lon="0.45162">
        <ele>81.3</ele>
        <time>2023-07-14T07:00:38Z</time>
      </trkpt>
      <trkpt lat="44.76484" lon="0.45161">
        <ele>81.2</ele>
        <time>2023-07-14T07:00:39Z</time>
      </trkpt>
      <trkpt lat="44.76489" lon="0.4516">
        <ele>81.1</ele>
        <time>2023-07-14T07:00:41Z</time>
      </trkpt>
      <trkpt lat="44.76495" lon="0.45159">
        <ele>80.9</ele>
        <time>2023-07-14T07:00:43Z</time>
      </trkpt>
      <trkpt lat="44.76502" lon="0.45158">
        <ele>80.8</ele>
        <time>2023-07-14T07:00:45Z</time>
      </trkpt>
      <trkpt lat="44.76507" lon="0.45158">
        <ele>80.8</ele>
        <time>2023-07-14T07:00:47Z</time>
      </trkpt>
      <trkpt lat="44.76512" lon="0.45156">
        <ele>80.8</ele>
        <time>2023-07-14T07:00:49Z</time>
      </trkpt>
      <trkpt lat="44.76516" lon="0.45155">
        <ele>80.9</ele>
        <time>2023-07-14T07:00:50Z</time>
      </trkpt>
      <trkpt lat="44.7652" lon="0.45154">
        <ele>81.1</ele>
        <time>2023-07-14T07:00:51Z</time>
      </trkpt>
      <trkpt lat="44.76524" lon="0.45155">
        <ele>81.2</ele>
        <time>2023-07-14T07:00:52Z</time>
      </trkpt>
      <trkpt lat="44.76528" lon="0.45158">
        <ele>81.3</ele>
        <time>2023-07-14T07:00:53Z</time>
      </trkpt>
      <trkpt lat="44.7653" lon="0.45162">
        <ele>81.4</ele>
        <time>2023-07-14T07:00:54Z</time>
      </trkpt>
      <trkpt lat="44.76529" lon="0.45165">
        <ele>81.4</ele>
        <time>2023-07-14T07:00:55Z</time>
      </trkpt>
      <trkpt lat="44.76528" lon="0.45169">
        <ele>81.5</ele>
        <time>2023-07-14T07:00:56Z</time>
      </trkpt>
      <trkpt lat="44.76529" lon="0.45174">
        <ele>81.5</ele>
        <time>2023-07-14T07:00:57Z</time>
      </trkpt>
      <trkpt lat="44.76537" lon="0.45182">
        <ele>81.5</ele>
        <time>2023-07-14T07:00:59Z</time>
      </trkpt>
      <trkpt lat="44.76542" lon="0.45185">
        <ele>81.3</ele>
        <time>2023-07-14T07:01:00Z</time>
      </trkpt>
      <trkpt lat="44.76546" lon="0.45188">
        <ele>81.1</ele>
        <time>2023-07-14T07:01:01Z</time>
      </trkpt>
      <trkpt lat="44.7655" lon="0.45199">
        <ele>80.6</ele>
        <time>2023-07-14T07:01:03Z</time>
      </trkpt>
      <trkpt lat="44.76553" lon="0.45208">
        <ele>80.2</ele>
        <time>2023-07-14T07:01:05Z</time>
      </trkpt>
      <trkpt lat="44.76558" lon="0.45216">
        <ele>79.7</ele>
        <time>2023-07-14T07:01:07Z</time>
      </trkpt>
      <trkpt lat="44.7656" lon="0.45227">
        <ele>79.3</ele>
        <time>2023-07-14T07:01:09Z</time>
      </trkpt>
      <trkpt lat="44.76561" lon="0.45238">
        <ele>78.9</ele>
        <time>2023-07-14T07:01:11Z</time>
      </trkpt>
      <trkpt lat="44.76563" lon="0.45253">
        <ele>78.6</ele>
        <time>2023-07-14T07:01:13Z</time>
      </trkpt>
      <trkpt lat="44.76563" lon="0.45259">
        <ele>78.5</ele>
        <time>2023-07-14T07:01:14Z</time>
      </trkpt>
      <trkpt lat="44.76561" lon="0.45261">
        <ele>78.5</ele>
        <time>2023-07-14T07:01:15Z</time>
      </trkpt>
      <trkpt lat="44.76557" lon="0.45268">
        <ele>78.4</ele>
        <time>2023-07-14T07:01:17Z</time>
      </trkpt>
      <trkpt lat="44.76554" lon="0.45273">
        <ele>78.3</ele>
        <time>2023-07-14T07:01:18Z</time>
      </trkpt>
      <trkpt lat="44.76551" lon="0.45278">
        <ele>78.2</ele>
        <time>2023-07-14T07:01:19Z</time>
      </trkpt>
      <trkpt lat="44.76547" lon="0.45288">
        <ele>77.9</ele>
        <time>2023-07-14T07:01:21Z</time>
      </trkpt>
      <trkpt lat="44.76562" lon="0.45294">
        <ele>77.2</ele>
        <time>2023-07-14T07:01:22Z</time>
      </trkpt>
      <trkpt lat="44.76572" lon="0.45299">
        <ele>78.8</ele>
        <time>2023-07-14T07:01:23Z</time>
      </trkpt>
      <trkpt lat="44.76585" lon="0.4531">
        <ele>80.8</ele>
        <time>2023-07-14T07:01:25Z</time>
      </trkpt>
      <trkpt lat="44.76595" lon="0.45322">
        <ele>82.6</ele>
        <time>2023-07-14T07:01:27Z</time>
      </trkpt>
      <trkpt lat="44.76602" lon="0.45331">
        <ele>83.8</ele>
        <time>2023-07-14T07:01:29Z</time>
      </trkpt>
      <trkpt lat="44.76605" lon="0.45336">
        <ele>84.4</ele>
        <time>2023-07-14T07:01:30Z</time>
      </trkpt>
      <trkpt lat="44.76607" lon="0.45339">
        <ele>84.7</ele>
        <time>2023-07-14T07:01:31Z</time>
      </trkpt>
      <trkpt lat="44.76609" lon="0.45341">
        <ele>85.1</ele>
        <time>2023-07-14T07:01:32Z</time>
      </trkpt>
      <trkpt lat="44.76611" lon="0.45344">
        <ele>85.4</ele>
        <time>2023-07-14T07:01:33Z</time>
      </trkpt>
      <trkpt lat="44.76614" lon="0.4535">
        <ele>86.1</ele>
        <time>2023-07-14T07:01:35Z</time>
      </trkpt>
      <trkpt lat="44.76616" lon="0.45354">
        <ele>86.5</ele>
        <time>2023-07-14T07:01:36Z</time>
      </trkpt>
      <trkpt lat="44.76618" lon="0.45357">
        <ele>86.8</ele>
        <time>2023-07-14T07:01:37Z</time>
      </trkpt>
      <trkpt lat="44.76623" lon="0.45364">
        <ele>87.7</ele>
        <time>2023-07-14T07:01:39Z</time>
      </trkpt>
      <trkpt lat="44.76625" lon="0.45367">
        <ele>88.2</ele>
        <time>2023-07-14T07:01:40Z</time>
      </trkpt>
      <trkpt lat="44.76627" lon="0.45372">
        <ele>88.6</ele>
        <time>2023-07-14T07:01:41Z</time>
      </trkpt>
      <trkpt lat="44.7663" lon="0.4538">
        <ele>89.5</ele>
        <time>2023-07-14T07:01:43Z</time>
      </trkpt>
      <trkpt lat="44.76635" lon="0.45388">
        <ele>90.5</ele>
        <time>2023-07-14T07:01:45Z</time>
      </trkpt>
      <trkpt lat="44.76635" lon="0.45394">
        <ele>91.1</ele>
        <time>2023-07-14T07:01:46Z</time>
      </trkpt>
      <trkpt lat="44.76637" lon="0.45401">
        <ele>91.8</ele>
        <time>2023-07-14T07:01:47Z</time>
      </trkpt>
      <trkpt lat="44.76642" lon="0.45411">
        <ele>93</ele>
        <time>2023-07-14T07:01:49Z</time>
      </trkpt>
      <trkpt lat="44.76645" lon="0.45413">
        <ele>93.6</ele>
        <time>2023-07-14T07:01:50Z</time>
      </trkpt>
      <trkpt lat="44.7665" lon="0.45416">
        <ele>94.5</ele>
        <time>2023-07-14T07:01:51Z</time>
      </trkpt>
      <trkpt lat="44.76656" lon="0.45424">
        <ele>94.6</ele>
        <time>2023-07-14T07:01:53Z</time>
      </trkpt>
      <trkpt lat="44.76659" lon="0.45428">
        <ele>94.6</ele>
        <time>2023-07-14T07:01:54Z</time>
      </trkpt>
      <trkpt lat="44.76662" lon="0.45433">
        <ele>94.6</ele>
        <time>2023-07-14T07:01:55Z</time>
      </trkpt>
      <trkpt lat="44.76666" lon="0.45437">
        <ele>94.7</ele>
        <time>2023-07-14T07:01:57Z</time>
      </trkpt>
      <trkpt lat="44.76674" lon="0.45439">
        <ele>94.7</ele>
        <time>2023-07-14T07:01:59Z</time>
      </trkpt>
      <trkpt lat="44.7668" lon="0.45437">
        <ele>94.7</ele>
        <time>2023-07-14T07:02:01Z</time>
      </trkpt>
      <trkpt lat="44.76686" lon="0.45435">
        <ele>94.7</ele>
        <time>2023-07-14T07:02:03Z</time>
      </trkpt>
      <trkpt lat="44.7669" lon="0.45436">
        <ele>94.7</ele>
        <time>2023-07-14T07:02:04Z</time>
      </trkpt>
      <trkpt lat="44.76692" lon="0.45439">
        <ele>94.7</ele>
        <time>2023-07-14T07:02:05Z</time>
      </trkpt>
      <trkpt lat="44.76697" lon="0.45442">
        <ele>94.7</ele>
        <time>2023-07-14T07:02:07Z</time>
      </trkpt>
      <trkpt lat="44.767" lon="0.45447">
        <ele>94.7</ele>
        <time>2023-07-14T07:02:09Z</time>
      </trkpt>
      <trkpt lat="44.76702" lon="0.45451">
        <ele>94.7</ele>
        <time>2023-07-14T07:02:11Z</time>
      </trkpt>
      <trkpt lat="44.76703" lon="0.45454">
        <ele>94.7</ele>
        <time>2023-07-14T07:02:13Z</time>
      </trkpt>
      <trkpt lat="44.76703" lon="0.45462">
        <ele>94.6</ele>
        <time>2023-07-14T07:02:15Z</time>
      </trkpt>
      <trkpt lat="44.76703" lon="0.45466">
        <ele>94.6</ele>
        <time>2023-07-14T07:02:17Z</time>
      </trkpt>
      <trkpt lat="44.76705" lon="0.45465">
        <ele>94.6</ele>
        <time>2023-07-14T07:02:18Z</time>
      </trkpt>
      <trkpt lat="44.76706" lon="0.45467">
        <ele>94.6</ele>
        <time>2023-07-14T07:02:19Z</time>
      </trkpt>
      <trkpt lat="44.76707" lon="0.4547">
        <ele>94.5</ele>
        <time>2023-07-14T07:02:21Z</time>
      </trkpt>
      <trkpt lat="44.76708" lon="0.45472">
        <ele>94.5</ele>
        <time>2023-07-14T07:02:23Z</time>
      </trkpt>
      <trkpt lat="44.76711" lon="0.45475">
        <ele>94.5</ele>
        <time>2023-07-14T07:02:25Z</time>
      </trkpt>
      <trkpt lat="44.76712" lon="0.45477">
        <ele>94.4</ele>
        <time>2023-07-14T07:02:27Z</time>
      </trkpt>
      <trkpt lat="44.76714" lon="0.45478">
        <ele>94.4</ele>
        <time>2023-07-14T07:02:28Z</time>
      </trkpt>
      <trkpt lat="44.76716" lon="0.45479">
        <ele>94.4</ele>
        <time>2023-07-14T07:02:29Z</time>
      </trkpt>
      <trkpt lat="44.76718" lon="0.45479">
        <ele>94.3</ele>
        <time>2023-07-14T07:02:30Z</time>
      </trkpt>
      <trkpt lat="44.7672" lon="0.45478">
        <ele>94.3</ele>
        <time>2023-07-14T07:02:31Z</time>
      </trkpt>
      <trkpt lat="44.76725" lon="0.45478">
        <ele>94.3</ele>
        <time>2023-07-14T07:02:33Z</time>
      </trkpt>
      <trkpt lat="44.76731" lon="0.45478">
        <ele>94.3</ele>
        <time>2023-07-14T07:02:35Z</time>
      </trkpt>
      <trkpt lat="44.76737" lon="0.45483">
        <ele>94.3</ele>
        <time>2023-07-14T07:02:37Z</time>
      </trkpt>
      <trkpt lat="44.76743" lon="0.45489">
        <ele>94.3</ele>
        <time>2023-07-14T07:02:39Z</time>
      </trkpt>
      <trkpt lat="44.7675" lon="0.45494">
        <ele>94.3</ele>
        <time>2023-07-14T07:02:41Z</time>
      </trkpt>
      <trkpt lat="44.76757" lon="0.45499">
        <ele>94.3</ele>
        <time>2023-07-14T07:02:43Z</time>
      </trkpt>
      <trkpt lat="44.76763" lon="0.45503">
        <ele>94.4</ele>
        <time>2023-07-14T07:02:45Z</time>
      </trkpt>
      <trkpt lat="44.76769" lon="0.45509">
        <ele>94.4</ele>
        <time>2023-07-14T07:02:47Z</time>
      </trkpt>
      <trkpt lat="44.76775" lon="0.45518">
        <ele>94.5</ele>
        <time>2023-07-14T07:02:49Z</time>
      </trkpt>
      <trkpt lat="44.76778" lon="0.4552">
        <ele>94.6</ele>
        <time>2023-07-14T07:02:50Z</time>
      </trkpt>
      <trkpt lat="44.76781" lon="0.45524">
        <ele>94.6</ele>
        <time>2023-07-14T07:02:51Z</time>
      </trkpt>
      <trkpt lat="44.76783" lon="0.45528">
        <ele>94.7</ele>
        <time>2023-07-14T07:02:52Z</time>
      </trkpt>
      <trkpt lat="44.76785" lon="0.45532">
        <ele>94.8</ele>
        <time>2023-07-14T07:02:53Z</time>
      </trkpt>
      <trkpt lat="44.76788" lon="0.45542">
        <ele>95</ele>
        <time>2023-07-14T07:02:55Z</time>
      </trkpt>
      <trkpt lat="44.76788" lon="0.45546">
        <ele>95</ele>
        <time>2023-07-14T07:02:56Z</time>
      </trkpt>
      <trkpt lat="44.76787" lon="0.45548">
        <ele>95.1</ele>
        <time>2023-07-14T07:02:57Z</time>
      </trkpt>
      <trkpt lat="44.76782" lon="0.45552">
        <ele>95.3</ele>
        <time>2023-07-14T07:02:59Z</time>
      </trkpt>
      <trkpt lat="44.7678" lon="0.45555">
        <ele>95.4</ele>
        <time>2023-07-14T07:03:00Z</time>
      </trkpt>
      <trkpt lat="44.76779" lon="0.45556">
        <ele>95.5</ele>
        <time>2023-07-14T07:03:01Z</time>
      </trkpt>
      <trkpt lat="44.76777" lon="0.4556">
        <ele>95.6</ele>
        <time>2023-07-14T07:03:03Z</time>
      </trkpt>
      <trkpt lat="44.76777" lon="0.45563">
        <ele>95.7</ele>
        <time>2023-07-14T07:03:04Z</time>
      </trkpt>
      <trkpt lat="44.76778" lon="0.45565">
        <ele>95.7</ele>
        <time>2023-07-14T07:03:05Z</time>
      </trkpt>
      <trkpt lat="44.76781" lon="0.45568">
        <ele>95.9</ele>
        <time>2023-07-14T07:03:07Z</time>
      </trkpt>
      <trkpt lat="44.76783" lon="0.45568">
        <ele>95.9</ele>
        <time>2023-07-14T07:03:08Z</time>
      </trkpt>
      <trkpt lat="44.76785" lon="0.4557">
        <ele>96</ele>
        <time>2023-07-14T07:03:09Z</time>
      </trkpt>
      <trkpt lat="44.7679" lon="0.45572">
        <ele>96.1</ele>
        <time>2023-07-14T07:03:11Z</time>
      </trkpt>
      <trkpt lat="44.76794" lon="0.45575">
        <ele>96.2</ele>
        <time>2023-07-14T07:03:13Z</time>
      </trkpt>
      <trkpt lat="44.76799" lon="0.4558">
        <ele>96.2</ele>
        <time>2023-07-14T07:03:15Z</time>
      </trkpt>
      <trkpt lat="44.76799" lon="0.45582">
        <ele>96.1</ele>
        <time>2023-07-14T07:03:16Z</time>
      </trkpt>
      <trkpt lat="44.768" lon="0.45585">
        <ele>96</ele>
        <time>2023-07-14T07:03:17Z</time>
      </trkpt>
      <trkpt lat="44.76804" lon="0.45587">
        <ele>95.7</ele>
        <time>2023-07-14T07:03:19Z</time>
      </trkpt>
      <trkpt lat="44.76814" lon="0.45591">
        <ele>94.9</ele>
        <time>2023-07-14T07:03:21Z</time>
      </trkpt>
      <trkpt lat="44.76818" lon="0.45592">
        <ele>94.5</ele>
        <time>2023-07-14T07:03:22Z</time>
      </trkpt>
      <trkpt lat="44.76823" lon="0.45592">
        <ele>93.9</ele>
        <time>2023-07-14T07:03:23Z</time>
      </trkpt>
      <trkpt lat="44.76833" lon="0.45593">
        <ele>92.8</ele>
        <time>2023-07-14T07:03:25Z</time>
      </trkpt>
      <trkpt lat="44.76839" lon="0.45601">
        <ele>91.8</ele>
        <time>2023-07-14T07:03:27Z</time>
      </trkpt>
      <trkpt lat="44.76841" lon="0.45605">
        <ele>91.4</ele>
        <time>2023-07-14T07:03:28Z</time>
      </trkpt>
      <trkpt lat="44.76842" lon="0.45609">
        <ele>91.1</ele>
        <time>2023-07-14T07:03:29Z</time>
      </trkpt>
      <trkpt lat="44.76845" lon="0.45617">
        <ele>90.4</ele>
        <time>2023-07-14T07:03:31Z</time>
      </trkpt>
      <trkpt lat="44.76846" lon="0.45621">
        <ele>90.1</ele>
        <time>2023-07-14T07:03:32Z</time>
      </trkpt>
      <trkpt lat="44.76846" lon="0.45626">
        <ele>89.8</ele>
        <time>2023-07-14T07:03:33Z</time>
      </trkpt>
      <trkpt lat="44.76846" lon="0.45637">
        <ele>89.1</ele>
        <time>2023-07-14T07:03:35Z</time>
      </trkpt>
      <trkpt lat="44.76845" lon="0.45642">
        <ele>88.8</ele>
        <time>2023-07-14T07:03:36Z</time>
      </trkpt>
      <trkpt lat="44.76845" lon="0.45647">
        <ele>88.5</ele>
        <time>2023-07-14T07:03:37Z</time>
      </trkpt>
      <trkpt lat="44.76843" lon="0.45658">
        <ele>87.9</ele>
        <time>2023-07-14T07:03:39Z</time>
      </trkpt>
      <trkpt lat="44.76841" lon="0.45668">
        <ele>87.3</ele>
        <time>2023-07-14T07:03:41Z</time>
      </trkpt>
      <trkpt lat="44.76836" lon="0.45677">
        <ele>86.7</ele>
        <time>2023-07-14T07:03:43Z</time>
      </trkpt>
      <trkpt lat="44.76832" lon="0.45681">
        <ele>86.4</ele>
        <time>2023-07-14T07:03:44Z</time>
      </trkpt>
      <trkpt lat="44.76829" lon="0.45685">
        <ele>86.1</ele>
        <time>2023-07-14T07:03:45Z</time>
      </trkpt>
      <trkpt lat="44.76822" lon="0.45691">
        <ele>85.6</ele>
        <time>2023-07-14T07:03:47Z</time>
      </trkpt>
      <trkpt lat="44.76819" lon="0.45695">
        <ele>85.3</ele>
        <time>2023-07-14T07:03:48Z</time>
      </trkpt>
      <trkpt lat="44.76817" lon="0.45699">
        <ele>85.1</ele>
        <time>2023-07-14T07:03:49Z</time>
      </trkpt>
      <trkpt lat="44.76814" lon="0.45707">
        <ele>84.7</ele>
        <time>2023-07-14T07:03:51Z</time>
      </trkpt>
      <trkpt lat="44.76813" lon="0.45712">
        <ele>84.5</ele>
        <time>2023-07-14T07:03:52Z</time>
      </trkpt>
      <trkpt lat="44.76814" lon="0.45717">
        <ele>84.2</ele>
        <time>2023-07-14T07:03:53Z</time>
      </trkpt>
      <trkpt lat="44.76814" lon="0.45722">
        <ele>83.9</ele>
        <time>2023-07-14T07:03:54Z</time>
      </trkpt>
      <trkpt lat="44.76814" lon="0.45728">
        <ele>83.6</ele>
        <time>2023-07-14T07:03:55Z</time>
      </trkpt>
      <trkpt lat="44.76813" lon="0.45738">
        <ele>83.1</ele>
        <time>2023-07-14T07:03:57Z</time>
      </trkpt>
      <trkpt lat="44.76812" lon="0.45746">
        <ele>82.7</ele>
        <time>2023-07-14T07:03:59Z</time>
      </trkpt>
      <trkpt lat="44.76813" lon="0.45758">
        <ele>82.2</ele>
        <time>2023-07-14T07:04:01Z</time>
      </trkpt>
      <trkpt lat="44.76815" lon="0.45772">
        <ele>81.7</ele>
        <time>2023-07-14T07:04:03Z</time>
      </trkpt>
      <trkpt lat="44.76814" lon="0.45782">
        <ele>81.5</ele>
        <time>2023-07-14T07:04:05Z</time>
      </trkpt>
      <trkpt lat="44.76813" lon="0.45786">
        <ele>81.4</ele>
        <time>2023-07-14T07:04:06Z</time>
      </trkpt>
      <trkpt lat="44.76811" lon="0.45789">
        <ele>81.7</ele>
        <time>2023-07-14T07:04:07Z</time>
      </trkpt>
      <trkpt lat="44.76807" lon="0.4579">
        <ele>82.1</ele>
        <time>2023-07-14T07:04:09Z</time>
      </trkpt>
      <trkpt lat="44.76803" lon="0.45791">
        <ele>82.5</ele>
        <time>2023-07-14T07:04:11Z</time>
      </trkpt>
      <trkpt lat="44.76801" lon="0.45792">
        <ele>82.7</ele>
        <time>2023-07-14T07:04:12Z</time>
      </trkpt>
      <trkpt lat="44.76799" lon="0.45793">
        <ele>82.9</ele>
        <time>2023-07-14T07:04:13Z</time>
      </trkpt>
      <trkpt lat="44.76795" lon="0.45795">
        <ele>83.4</ele>
        <time>2023-07-14T07:04:15Z</time>
      </trkpt>
      <trkpt lat="44.76791" lon="0.45798">
        <ele>83.8</ele>
        <time>2023-07-14T07:04:17Z</time>
      </trkpt>
      <trkpt lat="44.7679" lon="0.45799">
        <ele>84</ele>
        <time>2023-07-14T07:04:18Z</time>
      </trkpt>
      <trkpt lat="44.76789" lon="0.45801">
        <ele>84.2</ele>
        <time>2023-07-14T07:04:19Z</time>
      </trkpt>
      <trkpt lat="44.76787" lon="0.45806">
        <ele>84.5</ele>
        <time>2023-07-14T07:04:21Z</time>
      </trkpt>
      <trkpt lat="44.76786" lon="0.45808">
        <ele>84.7</ele>
        <time>2023-07-14T07:04:22Z</time>
      </trkpt>
      <trkpt lat="44.76785" lon="0.45811">
        <ele>84.9</ele>
        <time>2023-07-14T07:04:23Z</time>
      </trkpt>
      <trkpt lat="44.76783" lon="0.45816">
        <ele>85.3</ele>
        <time>2023-07-14T07:04:25Z</time>
      </trkpt>
      <trkpt lat="44.76781" lon="0.45822">
        <ele>85.7</ele>
        <time>2023-07-14T07:04:27Z</time>
      </trkpt>
      <trkpt lat="44.7678" lon="0.45825">
        <ele>85.8</ele>
        <time>2023-07-14T07:04:28Z</time>
      </trkpt>
      <trkpt lat="44.76779" lon="0.45828">
        <ele>86</ele>
        <time>2023-07-14T07:04:29Z</time>
      </trkpt>
      <trkpt lat="44.76777" lon="0.45833">
        <ele>86.4</ele>
        <time>2023-07-14T07:04:31Z</time>
      </trkpt>
      <trkpt lat="44.76775" lon="0.45838">
        <ele>86.7</ele>
        <time>2023-07-14T07:04:33Z</time>
      </trkpt>
      <trkpt lat="44.76775" lon="0.45843">
        <ele>87</ele>
        <time>2023-07-14T07:04:35Z</time>
      </trkpt>
      <trkpt lat="44.76774" lon="0.45846">
        <ele>87.1</ele>
        <time>2023-07-14T07:04:36Z</time>
      </trkpt>
      <trkpt lat="44.76774" lon="0.45848">
        <ele>87.3</ele>
        <time>2023-07-14T07:04:37Z</time>
      </trkpt>
      <trkpt lat="44.76772" lon="0.45852">
        <ele>87.5</ele>
        <time>2023-07-14T07:04:39Z</time>
      </trkpt>
      <trkpt lat="44.76769" lon="0.45857">
        <ele>87.9</ele>
        <time>2023-07-14T07:04:41Z</time>
      </trkpt>
      <trkpt lat="44.76767" lon="0.45863">
        <ele>88.3</ele>
        <time>2023-07-14T07:04:43Z</time>
      </trkpt>
      <trkpt lat="44.76764" lon="0.45868">
        <ele>88.6</ele>
        <time>2023-07-14T07:04:45Z</time>
      </trkpt>
      <trkpt lat="44.76762" lon="0.45874">
        <ele>89</ele>
        <time>2023-07-14T07:04:47Z</time>
      </trkpt>
      <trkpt lat="44.7676" lon="0.4588">
        <ele>89.4</ele>
        <time>2023-07-14T07:04:49Z</time>
      </trkpt>
      <trkpt lat="44.76757" lon="0.45885">
        <ele>89.7</ele>
        <time>2023-07-14T07:04:51Z</time>
      </trkpt>
      <trkpt lat="44.76754" lon="0.4589">
        <ele>90.1</ele>
        <time>2023-07-14T07:04:53Z</time>
      </trkpt>
      <trkpt lat="44.76751" lon="0.45895">
        <ele>90.5</ele>
        <time>2023-07-14T07:04:55Z</time>
      </trkpt>
      <trkpt lat="44.76748" lon="0.459">
        <ele>90.9</ele>
        <time>2023-07-14T07:04:57Z</time>
      </trkpt>
      <trkpt lat="44.76746" lon="0.45901">
        <ele>91.1</ele>
        <time>2023-07-14T07:04:58Z</time>
      </trkpt>
      <trkpt lat="44.76745" lon="0.45903">
        <ele>91.3</ele>
        <time>2023-07-14T07:04:59Z</time>
      </trkpt>
      <trkpt lat="44.76742" lon="0.45908">
        <ele>91.7</ele>
        <time>2023-07-14T07:05:01Z</time>
      </trkpt>
      <trkpt lat="44.7674" lon="0.45913">
        <ele>92.1</ele>
        <time>2023-07-14T07:05:03Z</time>
      </trkpt>
      <trkpt lat="44.76739" lon="0.45915">
        <ele>92.2</ele>
        <time>2023-07-14T07:05:04Z</time>
      </trkpt>
      <trkpt lat="44.76739" lon="0.45916">
        <ele>92.4</ele>
        <time>2023-07-14T07:05:05Z</time>
      </trkpt>
      <trkpt lat="44.76736" lon="0.4592">
        <ele>92.7</ele>
        <time>2023-07-14T07:05:07Z</time>
      </trkpt>
      <trkpt lat="44.76734" lon="0.45924">
        <ele>93.1</ele>
        <time>2023-07-14T07:05:09Z</time>
      </trkpt>
      <trkpt lat="44.76731" lon="0.45927">
        <ele>93.4</ele>
        <time>2023-07-14T07:05:11Z</time>
      </trkpt>
      <trkpt lat="44.7673" lon="0.45931">
        <ele>93.7</ele>
        <time>2023-07-14T07:05:13Z</time>
      </trkpt>
      <trkpt lat="44.76729" lon="0.45933">
        <ele>93.9</ele>
        <time>2023-07-14T07:05:14Z</time>
      </trkpt>
      <trkpt lat="44.76728" lon="0.45936">
        <ele>94.1</ele>
        <time>2023-07-14T07:05:15Z</time>
      </trkpt>
      <trkpt lat="44.76726" lon="0.45941">
        <ele>94.4</ele>
        <time>2023-07-14T07:05:17Z</time>
      </trkpt>
      <trkpt lat="44.76724" lon="0.45948">
        <ele>94.9</ele>
        <time>2023-07-14T07:05:19Z</time>
      </trkpt>
      <trkpt lat="44.76723" lon="0.45954">
        <ele>95.3</ele>
        <time>2023-07-14T07:05:21Z</time>
      </trkpt>
      <trkpt lat="44.76722" lon="0.45959">
        <ele>95.6</ele>
        <time>2023-07-14T07:05:23Z</time>
      </trkpt>
      <trkpt lat="44.76722" lon="0.45965">
        <ele>95.9</ele>
        <time>2023-07-14T07:05:25Z</time>
      </trkpt>
      <trkpt lat="44.76723" lon="0.45967">
        <ele>96.1</ele>
        <time>2023-07-14T07:05:26Z</time>
      </trkpt>
      <trkpt lat="44.76724" lon="0.4597">
        <ele>96.2</ele>
        <time>2023-07-14T07:05:27Z</time>
      </trkpt>
      <trkpt lat="44.76725" lon="0.45973">
        <ele>96.4</ele>
        <time>2023-07-14T07:05:28Z</time>
      </trkpt>
      <trkpt lat="44.76727" lon="0.45975">
        <ele>96.5</ele>
        <time>2023-07-14T07:05:29Z</time>
      </trkpt>
      <trkpt lat="44.76728" lon="0.45977">
        <ele>96.7</ele>
        <time>2023-07-14T07:05:30Z</time>
      </trkpt>
      <trkpt lat="44.7673" lon="0.4598">
        <ele>96.8</ele>
        <time>2023-07-14T07:05:31Z</time>
      </trkpt>
      <trkpt lat="44.76732" lon="0.45986">
        <ele>97.1</ele>
        <time>2023-07-14T07:05:33Z</time>
      </trkpt>
      <trkpt lat="44.76735" lon="0.45992">
        <ele>97.4</ele>
        <time>2023-07-14T07:05:35Z</time>
      </trkpt>
      <trkpt lat="44.76735" lon="0.45995">
        <ele>97.6</ele>
        <time>2023-07-14T07:05:36Z</time>
      </trkpt>
      <trkpt lat="44.76736" lon="0.45999">
        <ele>97.7</ele>
        <time>2023-07-14T07:05:37Z</time>
      </trkpt>
      <trkpt lat="44.76733" lon="0.46004">
        <ele>98.5</ele>
        <time>2023-07-14T07:05:39Z</time>
      </trkpt>
      <trkpt lat="44.76731" lon="0.46005">
        <ele>98.6</ele>
        <time>2023-07-14T07:05:40Z</time>
      </trkpt>
      <trkpt lat="44.76729" lon="0.46005">
        <ele>98.6</ele>
        <time>2023-07-14T07:05:41Z</time>
      </trkpt>
      <trkpt lat="44.76724" lon="0.46004">
        <ele>98.7</ele>
        <time>2023-07-14T07:05:43Z</time>
      </trkpt>
      <trkpt lat="44.76721" lon="0.46005">
        <ele>98.7</ele>
        <time>2023-07-14T07:05:44Z</time>
      </trkpt>
      <trkpt lat="44.76718" lon="0.46007">
        <ele>98.6</ele>
        <time>2023-07-14T07:05:45Z</time>
      </trkpt>
      <trkpt lat="44.76711" lon="0.4601">
        <ele>98.4</ele>
        <time>2023-07-14T07:05:47Z</time>
      </trkpt>
      <trkpt lat="44.76704" lon="0.46011">
        <ele>98.2</ele>
        <time>2023-07-14T07:05:49Z</time>
      </trkpt>
      <trkpt lat="44.76696" lon="0.46013">
        <ele>98</ele>
        <time>2023-07-14T07:05:51Z</time>
      </trkpt>
      <trkpt lat="44.76687" lon="0.46015">
        <ele>97.8</ele>
        <time>2023-07-14T07:05:53Z</time>
      </trkpt>
      <trkpt lat="44.76679" lon="0.46016">
        <ele>97.6</ele>
        <time>2023-07-14T07:05:55Z</time>
      </trkpt>
      <trkpt lat="44.7667" lon="0.46017">
        <ele>97.4</ele>
        <time>2023-07-14T07:05:57Z</time>
      </trkpt>
      <trkpt lat="44.76661" lon="0.46016">
        <ele>97.3</ele>
        <time>2023-07-14T07:05:59Z</time>
      </trkpt>
      <trkpt lat="44.76657" lon="0.46016">
        <ele>97.2</ele>
        <time>2023-07-14T07:06:00Z</time>
      </trkpt>
      <trkpt lat="44.76652" lon="0.46014">
        <ele>97.1</ele>
        <time>2023-07-14T07:06:01Z</time>
      </trkpt>
      <trkpt lat="44.76648" lon="0.46012">
        <ele>97</ele>
        <time>2023-07-14T07:06:02Z</time>
      </trkpt>
      <trkpt lat="44.76644" lon="0.4601">
        <ele>96.9</ele>
        <time>2023-07-14T07:06:03Z</time>
      </trkpt>
      <trkpt lat="44.76639" lon="0.46008">
        <ele>96.8</ele>
        <time>2023-07-14T07:06:04Z</time>
      </trkpt>
      <trkpt lat="44.76634" lon="0.46007">
        <ele>96.7</ele>
        <time>2023-07-14T07:06:05Z</time>
      </trkpt>
      <trkpt lat="44.76629" lon="0.46006">
        <ele>96.5</ele>
        <time>2023-07-14T07:06:06Z</time>
      </trkpt>
      <trkpt lat="44.76624" lon="0.46005">
        <ele>96.4</ele>
        <time>2023-07-14T07:06:07Z</time>
      </trkpt>
      <trkpt lat="44.76614" lon="0.46001">
        <ele>96.2</ele>
        <time>2023-07-14T07:06:09Z</time>
      </trkpt>
      <trkpt lat="44.76609" lon="0.46">
        <ele>96.2</ele>
        <time>2023-07-14T07:06:10Z</time>
      </trkpt>
      <trkpt lat="44.76604" lon="0.45999">
        <ele>96.1</ele>
        <time>2023-07-14T07:06:11Z</time>
      </trkpt>
      <trkpt lat="44.766" lon="0.45998">
        <ele>96.1</ele>
        <time>2023-07-14T07:06:12Z</time>
      </trkpt>
      <trkpt lat="44.76596" lon="0.45997">
        <ele>96.2</ele>
        <time>2023-07-14T07:06:13Z</time>
      </trkpt>
      <trkpt lat="44.76587" lon="0.45993">
        <ele>96.2</ele>
        <time>2023-07-14T07:06:15Z</time>
      </trkpt>
      <trkpt lat="44.76579" lon="0.4599">
        <ele>96.2</ele>
        <time>2023-07-14T07:06:17Z</time>
      </trkpt>
      <trkpt lat="44.76575" lon="0.45987">
        <ele>96.2</ele>
        <time>2023-07-14T07:06:18Z</time>
      </trkpt>
      <trkpt lat="44.76571" lon="0.45984">
        <ele>96.2</ele>
        <time>2023-07-14T07:06:19Z</time>
      </trkpt>
      <trkpt lat="44.76568" lon="0.4598">
        <ele>96.3</ele>
        <time>2023-07-14T07:06:20Z</time>
      </trkpt>
      <trkpt lat="44.76565" lon="0.45976">
        <ele>96.3</ele>
        <time>2023-07-14T07:06:21Z</time>
      </trkpt>
      <trkpt lat="44.76562" lon="0.45965">
        <ele>96.3</ele>
        <time>2023-07-14T07:06:23Z</time>
      </trkpt>
      <trkpt lat="44.7656" lon="0.45957">
        <ele>96.3</ele>
        <time>2023-07-14T07:06:25Z</time>
      </trkpt>
      <trkpt lat="44.76561" lon="0.45955">
        <ele>96.3</ele>
        <time>2023-07-14T07:06:26Z</time>
      </trkpt>
      <trkpt lat="44.76561" lon="0.45955">
        <ele>96.3</ele>
        <time>2023-07-14T07:06:27Z</time>
      </trkpt>
      <trkpt lat="44.76562" lon="0.45957">
        <ele>96.3</ele>
        <time>2023-07-14T07:06:29Z</time>
      </trkpt>
      <trkpt lat="44.76562" lon="0.45958">
        <ele>96.3</ele>
        <time>2023-07-14T07:06:30Z</time>
      </trkpt>
      <trkpt lat="44.76563" lon="0.45959">
        <ele>96.3</ele>
        <time>2023-07-14T07:06:31Z</time>
      </trkpt>
      <trkpt lat="44.76563" lon="0.45964">
        <ele>96.3</ele>
        <time>2023-07-14T07:06:33Z</time>
      </trkpt>
      <trkpt lat="44.76564" lon="0.45971">
        <ele>96.3</ele>
        <time>2023-07-14T07:06:35Z</time>
      </trkpt>
      <trkpt lat="44.76564" lon="0.45977">
        <ele>96.3</ele>
        <time>2023-07-14T07:06:37Z</time>
      </trkpt>
      <trkpt lat="44.76564" lon="0.45983">
        <ele>96.3</ele>
        <time>2023-07-14T07:06:39Z</time>
      </trkpt>
      <trkpt lat="44.76565" lon="0.45986">
        <ele>96.3</ele>
        <time>2023-07-14T07:06:40Z</time>
      </trkpt>
      <trkpt lat="44.76566" lon="0.45986">
        <ele>96.3</ele>
        <time>2023-07-14T07:06:41Z</time>
      </trkpt>
      <trkpt lat="44.76567" lon="0.45983">
        <ele>96.3</ele>
        <time>2023-07-14T07:06:43Z</time>
      </trkpt>
      <trkpt lat="44.76566" lon="0.45979">
        <ele>96.3</ele>
        <time>2023-07-14T07:06:44Z</time>
      </trkpt>
      <trkpt lat="44.76565" lon="0.45975">
        <ele>96.3</ele>
        <time>2023-07-14T07:06:45Z</time>
      </trkpt>
      <trkpt lat="44.76562" lon="0.45965">
        <ele>96.3</ele>
        <time>2023-07-14T07:06:47Z</time>
      </trkpt>
      <trkpt lat="44.76561" lon="0.45955">
        <ele>96.3</ele>
        <time>2023-07-14T07:06:49Z</time>
      </trkpt>
      <trkpt lat="44.76559" lon="0.45944">
        <ele>96.7</ele>
        <time>2023-07-14T07:06:51Z</time>
      </trkpt>
      <trkpt lat="44.76558" lon="0.45935">
        <ele>97.1</ele>
        <time>2023-07-14T07:06:53Z</time>
      </trkpt>
      <trkpt lat="44.76557" lon="0.45931">
        <ele>97.3</ele>
        <time>2023-07-14T07:06:54Z</time>
      </trkpt>
      <trkpt lat="44.76557" lon="0.45928">
        <ele>97.4</ele>
        <time>2023-07-14T07:06:55Z</time>
      </trkpt>
      <trkpt lat="44.76557" lon="0.45921">
        <ele>97.8</ele>
        <time>2023-07-14T07:06:57Z</time>
      </trkpt>
      <trkpt lat="44.76555" lon="0.45915">
        <ele>98.1</ele>
        <time>2023-07-14T07:06:59Z</time>
      </trkpt>
      <trkpt lat="44.76553" lon="0.4591">
        <ele>98.5</ele>
        <time>2023-07-14T07:07:01Z</time>
      </trkpt>
      <trkpt lat="44.76551" lon="0.45905">
        <ele>98.9</ele>
        <time>2023-07-14T07:07:03Z</time>
      </trkpt>
      <trkpt lat="44.76548" lon="0.45899">
        <ele>99.2</ele>
        <time>2023-07-14T07:07:05Z</time>
      </trkpt>
      <trkpt lat="44.76545" lon="0.45896">
        <ele>99.5</ele>
        <time>2023-07-14T07:07:07Z</time>
      </trkpt>
      <trkpt lat="44.76543" lon="0.45894">
        <ele>99.7</ele>
        <time>2023-07-14T07:07:08Z</time>
      </trkpt>
      <trkpt lat="44.76541" lon="0.45892">
        <ele>99.9</ele>
        <time>2023-07-14T07:07:09Z</time>
      </trkpt>
      <trkpt lat="44.76536" lon="0.4589">
        <ele>100.2</ele>
        <time>2023-07-14T07:07:11Z</time>
      </trkpt>
      <trkpt lat="44.76532" lon="0.45886">
        <ele>100.6</ele>
        <time>2023-07-14T07:07:13Z</time>
      </trkpt>
      <trkpt lat="44.76531" lon="0.45885">
        <ele>100.7</ele>
        <time>2023-07-14T07:07:14Z</time>
      </trkpt>
      <trkpt lat="44.76528" lon="0.45885">
        <ele>100.8</ele>
        <time>2023-07-14T07:07:15Z</time>
      </trkpt>
      <trkpt lat="44.76524" lon="0.45883">
        <ele>101.1</ele>
        <time>2023-07-14T07:07:17Z</time>
      </trkpt>
      <trkpt lat="44.7652" lon="0.4588">
        <ele>101.4</ele>
        <time>2023-07-14T07:07:19Z</time>
      </trkpt>
      <trkpt lat="44.76518" lon="0.45879">
        <ele>101.5</ele>
        <time>2023-07-14T07:07:20Z</time>
      </trkpt>
      <trkpt lat="44.76516" lon="0.45877">
        <ele>101.7</ele>
        <time>2023-07-14T07:07:21Z</time>
      </trkpt>
      <trkpt lat="44.76511" lon="0.45874">
        <ele>102</ele>
        <time>2023-07-14T07:07:23Z</time>
      </trkpt>
      <trkpt lat="44.76507" lon="0.45872">
        <ele>102.3</ele>
        <time>2023-07-14T07:07:25Z</time>
      </trkpt>
      <trkpt lat="44.76502" lon="0.4587">
        <ele>102.6</ele>
        <time>2023-07-14T07:07:27Z</time>
      </trkpt>
      <trkpt lat="44.765" lon="0.45868">
        <ele>102.7</ele>
        <time>2023-07-14T07:07:28Z</time>
      </trkpt>
      <trkpt lat="44.76498" lon="0.45867">
        <ele>102.8</ele>
        <time>2023-07-14T07:07:29Z</time>
      </trkpt>
      <trkpt lat="44.76493" lon="0.45864">
        <ele>103.1</ele>
        <time>2023-07-14T07:07:31Z</time>
      </trkpt>
      <trkpt lat="44.76489" lon="0.45863">
        <ele>103.3</ele>
        <time>2023-07-14T07:07:33Z</time>
      </trkpt>
      <trkpt lat="44.76484" lon="0.4586">
        <ele>103.6</ele>
        <time>2023-07-14T07:07:35Z</time>
      </trkpt>
      <trkpt lat="44.76482" lon="0.45859">
        <ele>103.7</ele>
        <time>2023-07-14T07:07:36Z</time>
      </trkpt>
      <trkpt lat="44.76479" lon="0.45858">
        <ele>103.9</ele>
        <time>2023-07-14T07:07:37Z</time>
      </trkpt>
      <trkpt lat="44.76475" lon="0.45855">
        <ele>104.2</ele>
        <time>2023-07-14T07:07:39Z</time>
      </trkpt>
      <trkpt lat="44.76471" lon="0.45851">
        <ele>104.5</ele>
        <time>2023-07-14T07:07:41Z</time>
      </trkpt>
      <trkpt lat="44.76466" lon="0.45848">
        <ele>104.8</ele>
        <time>2023-07-14T07:07:43Z</time>
      </trkpt>
      <trkpt lat="44.76462" lon="0.45844">
        <ele>105.2</ele>
        <time>2023-07-14T07:07:45Z</time>
      </trkpt>
      <trkpt lat="44.76457" lon="0.45841">
        <ele>105.5</ele>
        <time>2023-07-14T07:07:47Z</time>
      </trkpt>
      <trkpt lat="44.76452" lon="0.45839">
        <ele>105.9</ele>
        <time>2023-07-14T07:07:49Z</time>
      </trkpt>
      <trkpt lat="44.76449" lon="0.45835">
        <ele>106.2</ele>
        <time>2023-07-14T07:07:51Z</time>
      </trkpt>
      <trkpt lat="44.76445" lon="0.45831">
        <ele>106.4</ele>
        <time>2023-07-14T07:07:53Z</time>
      </trkpt>
      <trkpt lat="44.76441" lon="0.45826">
        <ele>106.7</ele>
        <time>2023-07-14T07:07:55Z</time>
      </trkpt>
      <trkpt lat="44.76437" lon="0.45821">
        <ele>106.9</ele>
        <time>2023-07-14T07:07:57Z</time>
      </trkpt>
      <trkpt lat="44.76435" lon="0.45819">
        <ele>107</ele>
        <time>2023-07-14T07:07:58Z</time>
      </trkpt>
      <trkpt lat="44.76434" lon="0.45816">
        <ele>107.2</ele>
        <time>2023-07-14T07:07:59Z</time>
      </trkpt>
      <trkpt lat="44.7643" lon="0.45811">
        <ele>107.5</ele>
        <time>2023-07-14T07:08:01Z</time>
      </trkpt>
      <trkpt lat="44.76427" lon="0.45805">
        <ele>107.7</ele>
        <time>2023-07-14T07:08:03Z</time>
      </trkpt>
      <trkpt lat="44.76423" lon="0.458">
        <ele>108</ele>
        <time>2023-07-14T07:08:05Z</time>
      </trkpt>
      <trkpt lat="44.76421" lon="0.45797">
        <ele>108.1</ele>
        <time>2023-07-14T07:08:06Z</time>
      </trkpt>
      <trkpt lat="44.7642" lon="0.45795">
        <ele>108.3</ele>
        <time>2023-07-14T07:08:07Z</time>
      </trkpt>
      <trkpt lat="44.76416" lon="0.4579">
        <ele>108.6</ele>
        <time>2023-07-14T07:08:09Z</time>
      </trkpt>
      <trkpt lat="44.76413" lon="0.45785">
        <ele>108.8</ele>
        <time>2023-07-14T07:08:11Z</time>
      </trkpt>
      <trkpt lat="44.76409" lon="0.4578">
        <ele>109.1</ele>
        <time>2023-07-14T07:08:13Z</time>
      </trkpt>
      <trkpt lat="44.76406" lon="0.45775">
        <ele>109.4</ele>
        <time>2023-07-14T07:08:15Z</time>
      </trkpt>
      <trkpt lat="44.76404" lon="0.45772">
        <ele>109.5</ele>
        <time>2023-07-14T07:08:16Z</time>
      </trkpt>
      <trkpt lat="44.76402" lon="0.45769">
        <ele>109.7</ele>
        <time>2023-07-14T07:08:17Z</time>
      </trkpt>
      <trkpt lat="44.76399" lon="0.45763">
        <ele>110</ele>
        <time>2023-07-14T07:08:19Z</time>
      </trkpt>
      <trkpt lat="44.76395" lon="0.45758">
        <ele>110.2</ele>
        <time>2023-07-14T07:08:21Z</time>
      </trkpt>
      <trkpt lat="44.76391" lon="0.45752">
        <ele>110.6</ele>
        <time>2023-07-14T07:08:23Z</time>
      </trkpt>
      <trkpt lat="44.76389" lon="0.4575">
        <ele>110.7</ele>
        <time>2023-07-14T07:08:24Z</time>
      </trkpt>
      <trkpt lat="44.76387" lon="0.45747">
        <ele>110.9</ele>
        <time>2023-07-14T07:08:25Z</time>
      </trkpt>
      <trkpt lat="44.76384" lon="0.45742">
        <ele>111.2</ele>
        <time>2023-07-14T07:08:27Z</time>
      </trkpt>
      <trkpt lat="44.76381" lon="0.45737">
        <ele>111.5</ele>
        <time>2023-07-14T07:08:29Z</time>
      </trkpt>
      <trkpt lat="44.76377" lon="0.45732">
        <ele>111.8</ele>
        <time>2023-07-14T07:08:31Z</time>
      </trkpt>
      <trkpt lat="44.76374" lon="0.45727">
        <ele>112.1</ele>
        <time>2023-07-14T07:08:33Z</time>
      </trkpt>
      <trkpt lat="44.7637" lon="0.45722">
        <ele>112.3</ele>
        <time>2023-07-14T07:08:35Z</time>
      </trkpt>
      <trkpt lat="44.76366" lon="0.45718">
        <ele>112.6</ele>
        <time>2023-07-14T07:08:37Z</time>
      </trkpt>
      <trkpt lat="44.76364" lon="0.45716">
        <ele>112.7</ele>
        <time>2023-07-14T07:08:38Z</time>
      </trkpt>
      <trkpt lat="44.76361" lon="0.45713">
        <ele>112.9</ele>
        <time>2023-07-14T07:08:39Z</time>
      </trkpt>
      <trkpt lat="44.76357" lon="0.4571">
        <ele>113.1</ele>
        <time>2023-07-14T07:08:41Z</time>
      </trkpt>
      <trkpt lat="44.76352" lon="0.45707">
        <ele>113.4</ele>
        <time>2023-07-14T07:08:43Z</time>
      </trkpt>
      <trkpt lat="44.76349" lon="0.45705">
        <ele>113.5</ele>
        <time>2023-07-14T07:08:44Z</time>
      </trkpt>
      <trkpt lat="44.76347" lon="0.45704">
        <ele>113.6</ele>
        <time>2023-07-14T07:08:45Z</time>
      </trkpt>
      <trkpt lat="44.76342" lon="0.45702">
        <ele>113.8</ele>
        <time>2023-07-14T07:08:47Z</time>
      </trkpt>
      <trkpt lat="44.76336" lon="0.457">
        <ele>114</ele>
        <time>2023-07-14T07:08:49Z</time>
      </trkpt>
      <trkpt lat="44.7633" lon="0.45698">
        <ele>114.2</ele>
        <time>2023-07-14T07:08:51Z</time>
      </trkpt>
      <trkpt lat="44.76323" lon="0.45697">
        <ele>114.3</ele>
        <time>2023-07-14T07:08:53Z</time>
      </trkpt>
      <trkpt lat="44.76318" lon="0.45696">
        <ele>114.4</ele>
        <time>2023-07-14T07:08:55Z</time>
      </trkpt>
      <trkpt lat="44.76312" lon="0.45694">
        <ele>114.6</ele>
        <time>2023-07-14T07:08:57Z</time>
      </trkpt>
      <trkpt lat="44.76309" lon="0.45694">
        <ele>114.6</ele>
        <time>2023-07-14T07:08:58Z</time>
      </trkpt>
      <trkpt lat="44.76306" lon="0.45693">
        <ele>114.6</ele>
        <time>2023-07-14T07:08:59Z</time>
      </trkpt>
      <trkpt lat="44.763" lon="0.45692">
        <ele>114.8</ele>
        <time>2023-07-14T07:09:01Z</time>
      </trkpt>
      <trkpt lat="44.76294" lon="0.45692">
        <ele>114.9</ele>
        <time>2023-07-14T07:09:03Z</time>
      </trkpt>
      <trkpt lat="44.76288" lon="0.45693">
        <ele>115</ele>
        <time>2023-07-14T07:09:05Z</time>
      </trkpt>
      <trkpt lat="44.76282" lon="0.45696">
        <ele>115.2</ele>
        <time>2023-07-14T07:09:07Z</time>
      </trkpt>
      <trkpt lat="44.76275" lon="0.45697">
        <ele>115.4</ele>
        <time>2023-07-14T07:09:09Z</time>
      </trkpt>
      <trkpt lat="44.76269" lon="0.45699">
        <ele>115.7</ele>
        <time>2023-07-14T07:09:11Z</time>
      </trkpt>
      <trkpt lat="44.76263" lon="0.45701">
        <ele>115.9</ele>
        <time>2023-07-14T07:09:13Z</time>
      </trkpt>
      <trkpt lat="44.7626" lon="0.45702">
        <ele>116.1</ele>
        <time>2023-07-14T07:09:14Z</time>
      </trkpt>
      <trkpt lat="44.76258" lon="0.45703">
        <ele>116.2</ele>
        <time>2023-07-14T07:09:15Z</time>
      </trkpt>
      <trkpt lat="44.76253" lon="0.45706">
        <ele>116.5</ele>
        <time>2023-07-14T07:09:17Z</time>
      </trkpt>
      <trkpt lat="44.76249" lon="0.45708">
        <ele>116.8</ele>
        <time>2023-07-14T07:09:19Z</time>
      </trkpt>
      <trkpt lat="44.76244" lon="0.4571">
        <ele>117.1</ele>
        <time>2023-07-14T07:09:21Z</time>
      </trkpt>
      <trkpt lat="44.7624" lon="0.4571">
        <ele>117.4</ele>
        <time>2023-07-14T07:09:23Z</time>
      </trkpt>
      <trkpt lat="44.76235" lon="0.45711">
        <ele>117.8</ele>
        <time>2023-07-14T07:09:25Z</time>
      </trkpt>
      <trkpt lat="44.76231" lon="0.45713">
        <ele>118</ele>
        <time>2023-07-14T07:09:27Z</time>
      </trkpt>
      <trkpt lat="44.76229" lon="0.45713">
        <ele>118.2</ele>
        <time>2023-07-14T07:09:28Z</time>
      </trkpt>
      <trkpt lat="44.76227" lon="0.45713">
        <ele>118.3</ele>
        <time>2023-07-14T07:09:29Z</time>
      </trkpt>
      <trkpt lat="44.76222" lon="0.45714">
        <ele>118.5</ele>
        <time>2023-07-14T07:09:31Z</time>
      </trkpt>
      <trkpt lat="44.76218" lon="0.45715">
        <ele>118.8</ele>
        <time>2023-07-14T07:09:33Z</time>
      </trkpt>
      <trkpt lat="44.76213" lon="0.45717">
        <ele>119</ele>
        <time>2023-07-14T07:09:35Z</time>
      </trkpt>
      <trkpt lat="44.76209" lon="0.45718">
        <ele>119.2</ele>
        <time>2023-07-14T07:09:37Z</time>
      </trkpt>
      <trkpt lat="44.76204" lon="0.4572">
        <ele>119.4</ele>
        <time>2023-07-14T07:09:39Z</time>
      </trkpt>
      <trkpt lat="44.76199" lon="0.45721">
        <ele>119.5</ele>
        <time>2023-07-14T07:09:41Z</time>
      </trkpt>
      <trkpt lat="44.76194" lon="0.45723">
        <ele>119.7</ele>
        <time>2023-07-14T07:09:43Z</time>
      </trkpt>
      <trkpt lat="44.76189" lon="0.45725">
        <ele>119.9</ele>
        <time>2023-07-14T07:09:45Z</time>
      </trkpt>
      <trkpt lat="44.76184" lon="0.45726">
        <ele>120.1</ele>
        <time>2023-07-14T07:09:47Z</time>
      </trkpt>
      <trkpt lat="44.76178" lon="0.45728">
        <ele>120.3</ele>
        <time>2023-07-14T07:09:49Z</time>
      </trkpt>
      <trkpt lat="44.76172" lon="0.4573">
        <ele>120.5</ele>
        <time>2023-07-14T07:09:51Z</time>
      </trkpt>
      <trkpt lat="44.76166" lon="0.45733">
        <ele>120.6</ele>
        <time>2023-07-14T07:09:53Z</time>
      </trkpt>
      <trkpt lat="44.7616" lon="0.45735">
        <ele>120.7</ele>
        <time>2023-07-14T07:09:55Z</time>
      </trkpt>
      <trkpt lat="44.76154" lon="0.45738">
        <ele>120.8</ele>
        <time>2023-07-14T07:09:57Z</time>
      </trkpt>
      <trkpt lat="44.76148" lon="0.45741">
        <ele>120.9</ele>
        <time>2023-07-14T07:09:59Z</time>
      </trkpt>
      <trkpt lat="44.76142" lon="0.45745">
        <ele>120.9</ele>
        <time>2023-07-14T07:10:01Z</time>
      </trkpt>
      <trkpt lat="44.76136" lon="0.45749">
        <ele>121</ele>
        <time>2023-07-14T07:10:03Z</time>
      </trkpt>
      <trkpt lat="44.76133" lon="0.45751">
        <ele>121.1</ele>
        <time>2023-07-14T07:10:04Z</time>
      </trkpt>
      <trkpt lat="44.7613" lon="0.45753">
        <ele>121.2</ele>
        <time>2023-07-14T07:10:05Z</time>
      </trkpt>
      <trkpt lat="44.76124" lon="0.45758">
        <ele>121.3</ele>
        <time>2023-07-14T07:10:07Z</time>
      </trkpt>
      <trkpt lat="44.76118" lon="0.45762">
        <ele>121.4</ele>
        <time>2023-07-14T07:10:09Z</time>
      </trkpt>
      <trkpt lat="44.76112" lon="0.45766">
        <ele>121.4</ele>
        <time>2023-07-14T07:10:11Z</time>
      </trkpt>
      <trkpt lat="44.76109" lon="0.45768">
        <ele>121.5</ele>
        <time>2023-07-14T07:10:12Z</time>
      </trkpt>
      <trkpt lat="44.76106" lon="0.4577">
        <ele>121.5</ele>
        <time>2023-07-14T07:10:13Z</time>
      </trkpt>
      <trkpt lat="44.761" lon="0.45773">
        <ele>121.5</ele>
        <time>2023-07-14T07:10:15Z</time>
      </trkpt>
      <trkpt lat="44.76094" lon="0.45777">
        <ele>121.5</ele>
        <time>2023-07-14T07:10:17Z</time>
      </trkpt>
      <trkpt lat="44.76088" lon="0.4578">
        <ele>121.5</ele>
        <time>2023-07-14T07:10:19Z</time>
      </trkpt>
      <trkpt lat="44.76085" lon="0.45781">
        <ele>121.5</ele>
        <time>2023-07-14T07:10:20Z</time>
      </trkpt>
      <trkpt lat="44.76082" lon="0.45783">
        <ele>121.5</ele>
        <time>2023-07-14T07:10:21Z</time>
      </trkpt>
      <trkpt lat="44.76075" lon="0.45786">
        <ele>121.5</ele>
        <time>2023-07-14T07:10:23Z</time>
      </trkpt>
      <trkpt lat="44.76069" lon="0.4579">
        <ele>121.4</ele>
        <time>2023-07-14T07:10:25Z</time>
      </trkpt>
      <trkpt lat="44.76063" lon="0.45794">
        <ele>121.4</ele>
        <time>2023-07-14T07:10:27Z</time>
      </trkpt>
      <trkpt lat="44.76059" lon="0.45796">
        <ele>121.3</ele>
        <time>2023-07-14T07:10:28Z</time>
      </trkpt>
      <trkpt lat="44.76056" lon="0.45798">
        <ele>121.3</ele>
        <time>2023-07-14T07:10:29Z</time>
      </trkpt>
      <trkpt lat="44.7605" lon="0.45802">
        <ele>121.2</ele>
        <time>2023-07-14T07:10:31Z</time>
      </trkpt>
      <trkpt lat="44.76043" lon="0.45806">
        <ele>121.2</ele>
        <time>2023-07-14T07:10:33Z</time>
      </trkpt>
      <trkpt lat="44.76036" lon="0.45811">
        <ele>121.1</ele>
        <time>2023-07-14T07:10:35Z</time>
      </trkpt>
      <trkpt lat="44.7603" lon="0.45814">
        <ele>121</ele>
        <time>2023-07-14T07:10:37Z</time>
      </trkpt>
      <trkpt lat="44.76027" lon="0.45814">
        <ele>120.9</ele>
        <time>2023-07-14T07:10:38Z</time>
      </trkpt>
      <trkpt lat="44.76023" lon="0.45811">
        <ele>120.8</ele>
        <time>2023-07-14T07:10:39Z</time>
      </trkpt>
      <trkpt lat="44.76021" lon="0.45807">
        <ele>120.7</ele>
        <time>2023-07-14T07:10:40Z</time>
      </trkpt>
      <trkpt lat="44.76018" lon="0.45802">
        <ele>120.5</ele>
        <time>2023-07-14T07:10:41Z</time>
      </trkpt>
      <trkpt lat="44.76013" lon="0.45792">
        <ele>120.2</ele>
        <time>2023-07-14T07:10:43Z</time>
      </trkpt>
      <trkpt lat="44.7601" lon="0.45786">
        <ele>120</ele>
        <time>2023-07-14T07:10:44Z</time>
      </trkpt>
      <trkpt lat="44.76007" lon="0.4578">
        <ele>119.8</ele>
        <time>2023-07-14T07:10:45Z</time>
      </trkpt>
      <trkpt lat="44.76001" lon="0.45769">
        <ele>119.5</ele>
        <time>2023-07-14T07:10:47Z</time>
      </trkpt>
      <trkpt lat="44.75994" lon="0.4576">
        <ele>119.2</ele>
        <time>2023-07-14T07:10:49Z</time>
      </trkpt>
      <trkpt lat="44.75985" lon="0.45761">
        <ele>119</ele>
        <time>2023-07-14T07:10:51Z</time>
      </trkpt>
      <trkpt lat="44.75982" lon="0.45763">
        <ele>118.8</ele>
        <time>2023-07-14T07:10:52Z</time>
      </trkpt>
      <trkpt lat="44.75978" lon="0.45765">
        <ele>118.7</ele>
        <time>2023-07-14T07:10:53Z</time>
      </trkpt>
      <trkpt lat="44.75972" lon="0.45771">
        <ele>118.4</ele>
        <time>2023-07-14T07:10:55Z</time>
      </trkpt>
      <trkpt lat="44.75968" lon="0.45774">
        <ele>118.2</ele>
        <time>2023-07-14T07:10:56Z</time>
      </trkpt>
      <trkpt lat="44.75963" lon="0.45777">
        <ele>118.1</ele>
        <time>2023-07-14T07:10:57Z</time>
      </trkpt>
      <trkpt lat="44.75953" lon="0.45781">
        <ele>118</ele>
        <time>2023-07-14T07:10:59Z</time>
      </trkpt>
      <trkpt lat="44.75948" lon="0.45782">
        <ele>118</ele>
        <time>2023-07-14T07:11:00Z</time>
      </trkpt>
      <trkpt lat="44.75943" lon="0.45783">
        <ele>117.9</ele>
        <time>2023-07-14T07:11:01Z</time>
      </trkpt>
      <trkpt lat="44.75933" lon="0.45784">
        <ele>117.8</ele>
        <time>2023-07-14T07:11:03Z</time>
      </trkpt>
      <trkpt lat="44.75922" lon="0.45786">
        <ele>117.7</ele>
        <time>2023-07-14T07:11:05Z</time>
      </trkpt>
      <trkpt lat="44.75917" lon="0.45787">
        <ele>117.6</ele>
        <time>2023-07-14T07:11:06Z</time>
      </trkpt>
      <trkpt lat="44.75912" lon="0.45787">
        <ele>117.5</ele>
        <time>2023-07-14T07:11:07Z</time>
      </trkpt>
      <trkpt lat="44.75902" lon="0.4579">
        <ele>117.4</ele>
        <time>2023-07-14T07:11:09Z</time>
      </trkpt>
      <trkpt lat="44.75892" lon="0.45794">
        <ele>117.3</ele>
        <time>2023-07-14T07:11:11Z</time>
      </trkpt>
      <trkpt lat="44.75883" lon="0.45798">
        <ele>117.2</ele>
        <time>2023-07-14T07:11:13Z</time>
      </trkpt>
      <trkpt lat="44.75874" lon="0.45803">
        <ele>117.1</ele>
        <time>2023-07-14T07:11:15Z</time>
      </trkpt>
      <trkpt lat="44.75866" lon="0.45809">
        <ele>116.9</ele>
        <time>2023-07-14T07:11:17Z</time>
      </trkpt>
      <trkpt lat="44.75857" lon="0.45815">
        <ele>116.6</ele>
        <time>2023-07-14T07:11:19Z</time>
      </trkpt>
      <trkpt lat="44.75848" lon="0.45822">
        <ele>116.2</ele>
        <time>2023-07-14T07:11:21Z</time>
      </trkpt>
      <trkpt lat="44.75843" lon="0.45826">
        <ele>115.9</ele>
        <time>2023-07-14T07:11:22Z</time>
      </trkpt>
      <trkpt lat="44.75839" lon="0.45829">
        <ele>115.7</ele>
        <time>2023-07-14T07:11:23Z</time>
      </trkpt>
      <trkpt lat="44.75835" lon="0.45833">
        <ele>115.4</ele>
        <time>2023-07-14T07:11:24Z</time>
      </trkpt>
      <trkpt lat="44.75831" lon="0.45838">
        <ele>115.2</ele>
        <time>2023-07-14T07:11:25Z</time>
      </trkpt>
      <trkpt lat="44.75827" lon="0.45843">
        <ele>115</ele>
        <time>2023-07-14T07:11:26Z</time>
      </trkpt>
      <trkpt lat="44.75823" lon="0.45849">
        <ele>114.7</ele>
        <time>2023-07-14T07:11:27Z</time>
      </trkpt>
      <trkpt lat="44.75815" lon="0.45863">
        <ele>114</ele>
        <time>2023-07-14T07:11:29Z</time>
      </trkpt>
      <trkpt lat="44.75805" lon="0.45874">
        <ele>113.3</ele>
        <time>2023-07-14T07:11:31Z</time>
      </trkpt>
      <trkpt lat="44.75798" lon="0.45883">
        <ele>112.5</ele>
        <time>2023-07-14T07:11:33Z</time>
      </trkpt>
      <trkpt lat="44.75795" lon="0.45889">
        <ele>112</ele>
        <time>2023-07-14T07:11:34Z</time>
      </trkpt>
      <trkpt lat="44.75793" lon="0.45893">
        <ele>111.7</ele>
        <time>2023-07-14T07:11:35Z</time>
      </trkpt>
      <trkpt lat="44.75793" lon="0.45897">
        <ele>111.5</ele>
        <time>2023-07-14T07:11:36Z</time>
      </trkpt>
      <trkpt lat="44.75794" lon="0.45901">
        <ele>111.9</ele>
        <time>2023-07-14T07:11:37Z</time>
      </trkpt>
      <trkpt lat="44.75795" lon="0.45904">
        <ele>112.3</ele>
        <time>2023-07-14T07:11:39Z</time>
      </trkpt>
      <trkpt lat="44.75796" lon="0.45907">
        <ele>112.7</ele>
        <time>2023-07-14T07:11:41Z</time>
      </trkpt>
      <trkpt lat="44.75798" lon="0.45911">
        <ele>113.2</ele>
        <time>2023-07-14T07:11:43Z</time>
      </trkpt>
      <trkpt lat="44.758" lon="0.45915">
        <ele>113.7</ele>
        <time>2023-07-14T07:11:45Z</time>
      </trkpt>
      <trkpt lat="44.75802" lon="0.45919">
        <ele>114.2</ele>
        <time>2023-07-14T07:11:47Z</time>
      </trkpt>
      <trkpt lat="44.75805" lon="0.45921">
        <ele>114.6</ele>
        <time>2023-07-14T07:11:49Z</time>
      </trkpt>
      <trkpt lat="44.75808" lon="0.45925">
        <ele>115.1</ele>
        <time>2023-07-14T07:11:51Z</time>
      </trkpt>
      <trkpt lat="44.75811" lon="0.45929">
        <ele>115.7</ele>
        <time>2023-07-14T07:11:53Z</time>
      </trkpt>
      <trkpt lat="44.75814" lon="0.45932">
        <ele>116.2</ele>
        <time>2023-07-14T07:11:55Z</time>
      </trkpt>
      <trkpt lat="44.75818" lon="0.45935">
        <ele>116.6</ele>
        <time>2023-07-14T07:11:57Z</time>
      </trkpt>
      <trkpt lat="44.7582" lon="0.45939">
        <ele>117.1</ele>
        <time>2023-07-14T07:11:59Z</time>
      </trkpt>
      <trkpt lat="44.75823" lon="0.4594">
        <ele>117.3</ele>
        <time>2023-07-14T07:12:00Z</time>
      </trkpt>
      <trkpt lat="44.75824" lon="0.45942">
        <ele>117.5</ele>
        <time>2023-07-14T07:12:01Z</time>
      </trkpt>
      <trkpt lat="44.75828" lon="0.45945">
        <ele>117.9</ele>
        <time>2023-07-14T07:12:03Z</time>
      </trkpt>
      <trkpt lat="44.75832" lon="0.45948">
        <ele>118.3</ele>
        <time>2023-07-14T07:12:05Z</time>
      </trkpt>
      <trkpt lat="44.75835" lon="0.45949">
        <ele>118.5</ele>
        <time>2023-07-14T07:12:06Z</time>
      </trkpt>
      <trkpt lat="44.75837" lon="0.45951">
        <ele>118.7</ele>
        <time>2023-07-14T07:12:07Z</time>
      </trkpt>
      <trkpt lat="44.75841" lon="0.45955">
        <ele>119</ele>
        <time>2023-07-14T07:12:09Z</time>
      </trkpt>
      <trkpt lat="44.75843" lon="0.45957">
        <ele>119.2</ele>
        <time>2023-07-14T07:12:10Z</time>
      </trkpt>
      <trkpt lat="44.75845" lon="0.45959">
        <ele>119.3</ele>
        <time>2023-07-14T07:12:11Z</time>
      </trkpt>
      <trkpt lat="44.75849" lon="0.45963">
        <ele>119.6</ele>
        <time>2023-07-14T07:12:13Z</time>
      </trkpt>
      <trkpt lat="44.75851" lon="0.45965">
        <ele>119.7</ele>
        <time>2023-07-14T07:12:14Z</time>
      </trkpt>
      <trkpt lat="44.75852" lon="0.45967">
        <ele>119.9</ele>
        <time>2023-07-14T07:12:15Z</time>
      </trkpt>
      <trkpt lat="44.75856" lon="0.45972">
        <ele>120.1</ele>
        <time>2023-07-14T07:12:17Z</time>
      </trkpt>
      <trkpt lat="44.75859" lon="0.45978">
        <ele>120.4</ele>
        <time>2023-07-14T07:12:19Z</time>
      </trkpt>
      <trkpt lat="44.75862" lon="0.45984">
        <ele>120.7</ele>
        <time>2023-07-14T07:12:21Z</time>
      </trkpt>
      <trkpt lat="44.75866" lon="0.4599">
        <ele>121</ele>
        <time>2023-07-14T07:12:23Z</time>
      </trkpt>
      <trkpt lat="44.75869" lon="0.45997">
        <ele>121.2</ele>
        <time>2023-07-14T07:12:25Z</time>
      </trkpt>
      <trkpt lat="44.75872" lon="0.46003">
        <ele>121.3</ele>
        <time>2023-07-14T07:12:27Z</time>
      </trkpt>
      <trkpt lat="44.75874" lon="0.46006">
        <ele>121.4</ele>
        <time>2023-07-14T07:12:28Z</time>
      </trkpt>
      <trkpt lat="44.75875" lon="0.46009">
        <ele>121.5</ele>
        <time>2023-07-14T07:12:29Z</time>
      </trkpt>
      <trkpt lat="44.75879" lon="0.46016">
        <ele>121.6</ele>
        <time>2023-07-14T07:12:31Z</time>
      </trkpt>
      <trkpt lat="44.75882" lon="0.46022">
        <ele>121.7</ele>
        <time>2023-07-14T07:12:33Z</time>
      </trkpt>
      <trkpt lat="44.75885" lon="0.46029">
        <ele>121.7</ele>
        <time>2023-07-14T07:12:35Z</time>
      </trkpt>
      <trkpt lat="44.75889" lon="0.46036">
        <ele>121.8</ele>
        <time>2023-07-14T07:12:37Z</time>
      </trkpt>
      <trkpt lat="44.75892" lon="0.46044">
        <ele>121.9</ele>
        <time>2023-07-14T07:12:39Z</time>
      </trkpt>
      <trkpt lat="44.75896" lon="0.46052">
        <ele>121.9</ele>
        <time>2023-07-14T07:12:41Z</time>
      </trkpt>
      <trkpt lat="44.75898" lon="0.46061">
        <ele>121.9</ele>
        <time>2023-07-14T07:12:43Z</time>
      </trkpt>
      <trkpt lat="44.75899" lon="0.46072">
        <ele>121.9</ele>
        <time>2023-07-14T07:12:45Z</time>
      </trkpt>
      <trkpt lat="44.75896" lon="0.46081">
        <ele>121.9</ele>
        <time>2023-07-14T07:12:47Z</time>
      </trkpt>
      <trkpt lat="44.75892" lon="0.46089">
        <ele>121.9</ele>
        <time>2023-07-14T07:12:49Z</time>
      </trkpt>
      <trkpt lat="44.75886" lon="0.46097">
        <ele>121.8</ele>
        <time>2023-07-14T07:12:51Z</time>
      </trkpt>
      <trkpt lat="44.75881" lon="0.46105">
        <ele>121.8</ele>
        <time>2023-07-14T07:12:53Z</time>
      </trkpt>
      <trkpt lat="44.75876" lon="0.46112">
        <ele>121.8</ele>
        <time>2023-07-14T07:12:55Z</time>
      </trkpt>
      <trkpt lat="44.7587" lon="0.46119">
        <ele>121.8</ele>
        <time>2023-07-14T07:12:57Z</time>
      </trkpt>
      <trkpt lat="44.75865" lon="0.46127">
        <ele>121.8</ele>
        <time>2023-07-14T07:12:59Z</time>
      </trkpt>
      <trkpt lat="44.7586" lon="0.46134">
        <ele>121.8</ele>
        <time>2023-07-14T07:13:01Z</time>
      </trkpt>
      <trkpt lat="44.75854" lon="0.46141">
        <ele>121.8</ele>
        <time>2023-07-14T07:13:03Z</time>
      </trkpt>
      <trkpt lat="44.75849" lon="0.46149">
        <ele>121.9</ele>
        <time>2023-07-14T07:13:05Z</time>
      </trkpt>
      <trkpt lat="44.75846" lon="0.46152">
        <ele>121.9</ele>
        <time>2023-07-14T07:13:06Z</time>
      </trkpt>
      <trkpt lat="44.75843" lon="0.46156">
        <ele>121.9</ele>
        <time>2023-07-14T07:13:07Z</time>
      </trkpt>
      <trkpt lat="44.75838" lon="0.46162">
        <ele>121.9</ele>
        <time>2023-07-14T07:13:09Z</time>
      </trkpt>
      <trkpt lat="44.75832" lon="0.46168">
        <ele>121.9</ele>
        <time>2023-07-14T07:13:11Z</time>
      </trkpt>
      <trkpt lat="44.75829" lon="0.46172">
        <ele>121.9</ele>
        <time>2023-07-14T07:13:12Z</time>
      </trkpt>
      <trkpt lat="44.75826" lon="0.46176">
        <ele>121.9</ele>
        <time>2023-07-14T07:13:13Z</time>
      </trkpt>
      <trkpt lat="44.7582" lon="0.46183">
        <ele>121.9</ele>
        <time>2023-07-14T07:13:15Z</time>
      </trkpt>
      <trkpt lat="44.75814" lon="0.4619">
        <ele>122</ele>
        <time>2023-07-14T07:13:17Z</time>
      </trkpt>
      <trkpt lat="44.75807" lon="0.46197">
        <ele>122</ele>
        <time>2023-07-14T07:13:19Z</time>
      </trkpt>
      <trkpt lat="44.758" lon="0.46205">
        <ele>122.1</ele>
        <time>2023-07-14T07:13:21Z</time>
      </trkpt>
      <trkpt lat="44.75793" lon="0.46212">
        <ele>122.3</ele>
        <time>2023-07-14T07:13:23Z</time>
      </trkpt>
      <trkpt lat="44.7579" lon="0.46215">
        <ele>122.3</ele>
        <time>2023-07-14T07:13:24Z</time>
      </trkpt>
      <trkpt lat="44.75786" lon="0.46218">
        <ele>122.4</ele>
        <time>2023-07-14T07:13:25Z</time>
      </trkpt>
      <trkpt lat="44.7578" lon="0.46224">
        <ele>122.4</ele>
        <time>2023-07-14T07:13:27Z</time>
      </trkpt>
      <trkpt lat="44.75773" lon="0.4623">
        <ele>122.5</ele>
        <time>2023-07-14T07:13:29Z</time>
      </trkpt>
      <trkpt lat="44.75766" lon="0.46237">
        <ele>122.6</ele>
        <time>2023-07-14T07:13:31Z</time>
      </trkpt>
      <trkpt lat="44.7576" lon="0.46244">
        <ele>122.6</ele>
        <time>2023-07-14T07:13:33Z</time>
      </trkpt>
      <trkpt lat="44.75753" lon="0.46252">
        <ele>122.7</ele>
        <time>2023-07-14T07:13:35Z</time>
      </trkpt>
      <trkpt lat="44.75746" lon="0.4626">
        <ele>122.8</ele>
        <time>2023-07-14T07:13:37Z</time>
      </trkpt>
      <trkpt lat="44.75743" lon="0.46263">
        <ele>122.8</ele>
        <time>2023-07-14T07:13:38Z</time>
      </trkpt>
      <trkpt lat="44.7574" lon="0.46267">
        <ele>122.8</ele>
        <time>2023-07-14T07:13:39Z</time>
      </trkpt>
      <trkpt lat="44.75733" lon="0.46274">
        <ele>122.9</ele>
        <time>2023-07-14T07:13:41Z</time>
      </trkpt>
      <trkpt lat="44.75726" lon="0.46281">
        <ele>123</ele>
        <time>2023-07-14T07:13:43Z</time>
      </trkpt>
      <trkpt lat="44.75719" lon="0.46287">
        <ele>123.1</ele>
        <time>2023-07-14T07:13:45Z</time>
      </trkpt>
      <trkpt lat="44.75713" lon="0.46294">
        <ele>123.3</ele>
        <time>2023-07-14T07:13:47Z</time>
      </trkpt>
      <trkpt lat="44.75706" lon="0.463">
        <ele>123.4</ele>
        <time>2023-07-14T07:13:49Z</time>
      </trkpt>
      <trkpt lat="44.75699" lon="0.46306">
        <ele>123.5</ele>
        <time>2023-07-14T07:13:51Z</time>
      </trkpt>
      <trkpt lat="44.75692" lon="0.46313">
        <ele>123.6</ele>
        <time>2023-07-14T07:13:53Z</time>
      </trkpt>
      <trkpt lat="44.75685" lon="0.46319">
        <ele>123.8</ele>
        <time>2023-07-14T07:13:55Z</time>
      </trkpt>
      <trkpt lat="44.75679" lon="0.46325">
        <ele>123.9</ele>
        <time>2023-07-14T07:13:57Z</time>
      </trkpt>
      <trkpt lat="44.75672" lon="0.46331">
        <ele>124</ele>
        <time>2023-07-14T07:13:59Z</time>
      </trkpt>
      <trkpt lat="44.75665" lon="0.46337">
        <ele>124.1</ele>
        <time>2023-07-14T07:14:01Z</time>
      </trkpt>
      <trkpt lat="44.75662" lon="0.4634">
        <ele>124.2</ele>
        <time>2023-07-14T07:14:02Z</time>
      </trkpt>
      <trkpt lat="44.75659" lon="0.46343">
        <ele>124.3</ele>
        <time>2023-07-14T07:14:03Z</time>
      </trkpt>
      <trkpt lat="44.75652" lon="0.46349">
        <ele>124.5</ele>
        <time>2023-07-14T07:14:05Z</time>
      </trkpt>
      <trkpt lat="44.75646" lon="0.46355">
        <ele>124.6</ele>
        <time>2023-07-14T07:14:07Z</time>
      </trkpt>
      <trkpt lat="44.75639" lon="0.46361">
        <ele>124.8</ele>
        <time>2023-07-14T07:14:09Z</time>
      </trkpt>
      <trkpt lat="44.75636" lon="0.46364">
        <ele>124.9</ele>
        <time>2023-07-14T07:14:10Z</time>
      </trkpt>
      <trkpt lat="44.75633" lon="0.46367">
        <ele>125</ele>
        <time>2023-07-14T07:14:11Z</time>
      </trkpt>
      <trkpt lat="44.75627" lon="0.46374">
        <ele>125.1</ele>
        <time>2023-07-14T07:14:13Z</time>
      </trkpt>
      <trkpt lat="44.75623" lon="0.46377">
        <ele>125.2</ele>
        <time>2023-07-14T07:14:14Z</time>
      </trkpt>
      <trkpt lat="44.75619" lon="0.4638">
        <ele>125.2</ele>
        <time>2023-07-14T07:14:15Z</time>
      </trkpt>
      <trkpt lat="44.75616" lon="0.46383">
        <ele>125.3</ele>
        <time>2023-07-14T07:14:16Z</time>
      </trkpt>
      <trkpt lat="44.75612" lon="0.46385">
        <ele>125.4</ele>
        <time>2023-07-14T07:14:17Z</time>
      </trkpt>
      <trkpt lat="44.75605" lon="0.46391">
        <ele>125.5</ele>
        <time>2023-07-14T07:14:19Z</time>
      </trkpt>
      <trkpt lat="44.75598" lon="0.46397">
        <ele>125.6</ele>
        <time>2023-07-14T07:14:21Z</time>
      </trkpt>
      <trkpt lat="44.75595" lon="0.464">
        <ele>125.6</ele>
        <time>2023-07-14T07:14:22Z</time>
      </trkpt>
      <trkpt lat="44.75591" lon="0.46403">
        <ele>125.6</ele>
        <time>2023-07-14T07:14:23Z</time>
      </trkpt>
      <trkpt lat="44.75584" lon="0.46408">
        <ele>125.6</ele>
        <time>2023-07-14T07:14:25Z</time>
      </trkpt>
      <trkpt lat="44.75576" lon="0.46412">
        <ele>125.5</ele>
        <time>2023-07-14T07:14:27Z</time>
      </trkpt>
      <trkpt lat="44.75569" lon="0.46416">
        <ele>125.4</ele>
        <time>2023-07-14T07:14:29Z</time>
      </trkpt>
      <trkpt lat="44.75561" lon="0.46422">
        <ele>125.3</ele>
        <time>2023-07-14T07:14:31Z</time>
      </trkpt>
      <trkpt lat="44.75553" lon="0.46427">
        <ele>125.1</ele>
        <time>2023-07-14T07:14:33Z</time>
      </trkpt>
      <trkpt lat="44.75545" lon="0.46433">
        <ele>124.9</ele>
        <time>2023-07-14T07:14:35Z</time>
      </trkpt>
      <trkpt lat="44.75536" lon="0.46439">
        <ele>124.8</ele>
        <time>2023-07-14T07:14:37Z</time>
      </trkpt>
      <trkpt lat="44.75528" lon="0.46445">
        <ele>124.6</ele>
        <time>2023-07-14T07:14:39Z</time>
      </trkpt>
      <trkpt lat="44.7552" lon="0.46452">
        <ele>124.4</ele>
        <time>2023-07-14T07:14:41Z</time>
      </trkpt>
      <trkpt lat="44.75512" lon="0.4646">
        <ele>124.3</ele>
        <time>2023-07-14T07:14:43Z</time>
      </trkpt>
      <trkpt lat="44.75504" lon="0.46469">
        <ele>124.1</ele>
        <time>2023-07-14T07:14:45Z</time>
      </trkpt>
      <trkpt lat="44.75495" lon="0.46478">
        <ele>123.9</ele>
        <time>2023-07-14T07:14:47Z</time>
      </trkpt>
      <trkpt lat="44.75486" lon="0.46487">
        <ele>123.9</ele>
        <time>2023-07-14T07:14:49Z</time>
      </trkpt>
      <trkpt lat="44.75478" lon="0.46496">
        <ele>123.9</ele>
        <time>2023-07-14T07:14:51Z</time>
      </trkpt>
      <trkpt lat="44.7547" lon="0.46506">
        <ele>123.9</ele>
        <time>2023-07-14T07:14:53Z</time>
      </trkpt>
      <trkpt lat="44.75462" lon="0.46515">
        <ele>123.8</ele>
        <time>2023-07-14T07:14:55Z</time>
      </trkpt>
      <trkpt lat="44.75455" lon="0.46524">
        <ele>123.9</ele>
        <time>2023-07-14T07:14:57Z</time>
      </trkpt>
      <trkpt lat="44.75452" lon="0.46529">
        <ele>123.9</ele>
        <time>2023-07-14T07:14:58Z</time>
      </trkpt>
      <trkpt lat="44.75448" lon="0.46534">
        <ele>123.9</ele>
        <time>2023-07-14T07:14:59Z</time>
      </trkpt>
      <trkpt lat="44.75446" lon="0.46538">
        <ele>123.9</ele>
        <time>2023-07-14T07:15:00Z</time>
      </trkpt>
      <trkpt lat="44.75443" lon="0.46543">
        <ele>124</ele>
        <time>2023-07-14T07:15:01Z</time>
      </trkpt>
      <trkpt lat="44.7544" lon="0.46548">
        <ele>124</ele>
        <time>2023-07-14T07:15:02Z</time>
      </trkpt>
      <trkpt lat="44.75438" lon="0.46554">
        <ele>124</ele>
        <time>2023-07-14T07:15:03Z</time>
      </trkpt>
      <trkpt lat="44.75433" lon="0.46565">
        <ele>124</ele>
        <time>2023-07-14T07:15:05Z</time>
      </trkpt>
      <trkpt lat="44.75429" lon="0.46577">
        <ele>124</ele>
        <time>2023-07-14T07:15:07Z</time>
      </trkpt>
      <trkpt lat="44.75424" lon="0.46589">
        <ele>124</ele>
        <time>2023-07-14T07:15:09Z</time>
      </trkpt>
      <trkpt lat="44.75419" lon="0.46601">
        <ele>123.9</ele>
        <time>2023-07-14T07:15:11Z</time>
      </trkpt>
      <trkpt lat="44.75413" lon="0.46613">
        <ele>123.7</ele>
        <time>2023-07-14T07:15:13Z</time>
      </trkpt>
      <trkpt lat="44.75411" lon="0.46619">
        <ele>123.7</ele>
        <time>2023-07-14T07:15:14Z</time>
      </trkpt>
      <trkpt lat="44.75408" lon="0.46625">
        <ele>123.6</ele>
        <time>2023-07-14T07:15:15Z</time>
      </trkpt>
      <trkpt lat="44.75406" lon="0.46631">
        <ele>123.5</ele>
        <time>2023-07-14T07:15:16Z</time>
      </trkpt>
      <trkpt lat="44.75404" lon="0.46636">
        <ele>123.4</ele>
        <time>2023-07-14T07:15:17Z</time>
      </trkpt>
      <trkpt lat="44.75399" lon="0.46649">
        <ele>123.2</ele>
        <time>2023-07-14T07:15:19Z</time>
      </trkpt>
      <trkpt lat="44.75394" lon="0.46661">
        <ele>122.9</ele>
        <time>2023-07-14T07:15:21Z</time>
      </trkpt>
      <trkpt lat="44.75388" lon="0.46674">
        <ele>122.5</ele>
        <time>2023-07-14T07:15:23Z</time>
      </trkpt>
      <trkpt lat="44.75383" lon="0.46685">
        <ele>122.2</ele>
        <time>2023-07-14T07:15:25Z</time>
      </trkpt>
      <trkpt lat="44.75377" lon="0.46696">
        <ele>121.9</ele>
        <time>2023-07-14T07:15:27Z</time>
      </trkpt>
      <trkpt lat="44.75372" lon="0.46707">
        <ele>121.7</ele>
        <time>2023-07-14T07:15:29Z</time>
      </trkpt>
      <trkpt lat="44.75366" lon="0.46717">
        <ele>121.6</ele>
        <time>2023-07-14T07:15:31Z</time>
      </trkpt>
      <trkpt lat="44.7536" lon="0.46726">
        <ele>121.5</ele>
        <time>2023-07-14T07:15:33Z</time>
      </trkpt>
      <trkpt lat="44.75356" lon="0.46731">
        <ele>121.5</ele>
        <time>2023-07-14T07:15:34Z</time>
      </trkpt>
      <trkpt lat="44.75352" lon="0.46734">
        <ele>121.4</ele>
        <time>2023-07-14T07:15:35Z</time>
      </trkpt>
      <trkpt lat="44.75348" lon="0.46737">
        <ele>121.2</ele>
        <time>2023-07-14T07:15:36Z</time>
      </trkpt>
      <trkpt lat="44.75342" lon="0.4674">
        <ele>121</ele>
        <time>2023-07-14T07:15:37Z</time>
      </trkpt>
      <trkpt lat="44.75337" lon="0.46742">
        <ele>120.7</ele>
        <time>2023-07-14T07:15:38Z</time>
      </trkpt>
      <trkpt lat="44.75331" lon="0.46742">
        <ele>120.5</ele>
        <time>2023-07-14T07:15:39Z</time>
      </trkpt>
      <trkpt lat="44.75325" lon="0.46742">
        <ele>120.4</ele>
        <time>2023-07-14T07:15:40Z</time>
      </trkpt>
      <trkpt lat="44.75319" lon="0.46743">
        <ele>120.2</ele>
        <time>2023-07-14T07:15:41Z</time>
      </trkpt>
      <trkpt lat="44.75308" lon="0.46743">
        <ele>120.1</ele>
        <time>2023-07-14T07:15:43Z</time>
      </trkpt>
      <trkpt lat="44.75297" lon="0.46745">
        <ele>120</ele>
        <time>2023-07-14T07:15:45Z</time>
      </trkpt>
      <trkpt lat="44.75287" lon="0.46747">
        <ele>120</ele>
        <time>2023-07-14T07:15:47Z</time>
      </trkpt>
      <trkpt lat="44.75277" lon="0.4675">
        <ele>120.1</ele>
        <time>2023-07-14T07:15:49Z</time>
      </trkpt>
      <trkpt lat="44.75267" lon="0.46753">
        <ele>120.2</ele>
        <time>2023-07-14T07:15:51Z</time>
      </trkpt>
      <trkpt lat="44.75257" lon="0.46757">
        <ele>120.3</ele>
        <time>2023-07-14T07:15:53Z</time>
      </trkpt>
      <trkpt lat="44.75248" lon="0.4676">
        <ele>120.4</ele>
        <time>2023-07-14T07:15:55Z</time>
      </trkpt>
      <trkpt lat="44.75243" lon="0.46762">
        <ele>120.4</ele>
        <time>2023-07-14T07:15:56Z</time>
      </trkpt>
      <trkpt lat="44.75239" lon="0.46763">
        <ele>120.4</ele>
        <time>2023-07-14T07:15:57Z</time>
      </trkpt>
      <trkpt lat="44.75229" lon="0.46766">
        <ele>120.4</ele>
        <time>2023-07-14T07:15:59Z</time>
      </trkpt>
      <trkpt lat="44.75218" lon="0.46769">
        <ele>120.3</ele>
        <time>2023-07-14T07:16:01Z</time>
      </trkpt>
      <trkpt lat="44.75208" lon="0.46769">
        <ele>120.2</ele>
        <time>2023-07-14T07:16:03Z</time>
      </trkpt>
      <trkpt lat="44.75203" lon="0.46769">
        <ele>120.1</ele>
        <time>2023-07-14T07:16:04Z</time>
      </trkpt>
      <trkpt lat="44.75198" lon="0.46769">
        <ele>120.1</ele>
        <time>2023-07-14T07:16:05Z</time>
      </trkpt>
      <trkpt lat="44.75187" lon="0.4677">
        <ele>119.9</ele>
        <time>2023-07-14T07:16:07Z</time>
      </trkpt>
      <trkpt lat="44.75181" lon="0.46771">
        <ele>119.8</ele>
        <time>2023-07-14T07:16:08Z</time>
      </trkpt>
      <trkpt lat="44.75176" lon="0.46773">
        <ele>119.8</ele>
        <time>2023-07-14T07:16:09Z</time>
      </trkpt>
      <trkpt lat="44.75171" lon="0.46775">
        <ele>119.8</ele>
        <time>2023-07-14T07:16:10Z</time>
      </trkpt>
      <trkpt lat="44.75166" lon="0.46779">
        <ele>119.8</ele>
        <time>2023-07-14T07:16:11Z</time>
      </trkpt>
      <trkpt lat="44.75162" lon="0.46784">
        <ele>119.8</ele>
        <time>2023-07-14T07:16:12Z</time>
      </trkpt>
      <trkpt lat="44.75158" lon="0.46789">
        <ele>119.9</ele>
        <time>2023-07-14T07:16:13Z</time>
      </trkpt>
      <trkpt lat="44.75155" lon="0.46795">
        <ele>120</ele>
        <time>2023-07-14T07:16:14Z</time>
      </trkpt>
      <trkpt lat="44.75151" lon="0.468">
        <ele>120.1</ele>
        <time>2023-07-14T07:16:15Z</time>
      </trkpt>
      <trkpt lat="44.75145" lon="0.4681">
        <ele>120.3</ele>
        <time>2023-07-14T07:16:17Z</time>
      </trkpt>
      <trkpt lat="44.75139" lon="0.4682">
        <ele>120.6</ele>
        <time>2023-07-14T07:16:19Z</time>
      </trkpt>
      <trkpt lat="44.75134" lon="0.46829">
        <ele>121</ele>
        <time>2023-07-14T07:16:21Z</time>
      </trkpt>
      <trkpt lat="44.75131" lon="0.46834">
        <ele>121.1</ele>
        <time>2023-07-14T07:16:22Z</time>
      </trkpt>
      <trkpt lat="44.75128" lon="0.46839">
        <ele>121.3</ele>
        <time>2023-07-14T07:16:23Z</time>
      </trkpt>
      <trkpt lat="44.75123" lon="0.46848">
        <ele>121.6</ele>
        <time>2023-07-14T07:16:25Z</time>
      </trkpt>
      <trkpt lat="44.75117" lon="0.46856">
        <ele>121.9</ele>
        <time>2023-07-14T07:16:27Z</time>
      </trkpt>
      <trkpt lat="44.75112" lon="0.46865">
        <ele>122.1</ele>
        <time>2023-07-14T07:16:29Z</time>
      </trkpt>
      <trkpt lat="44.75109" lon="0.46869">
        <ele>122.3</ele>
        <time>2023-07-14T07:16:30Z</time>
      </trkpt>
      <trkpt lat="44.75106" lon="0.46874">
        <ele>122.4</ele>
        <time>2023-07-14T07:16:31Z</time>
      </trkpt>
      <trkpt lat="44.75101" lon="0.46882">
        <ele>122.7</ele>
        <time>2023-07-14T07:16:33Z</time>
      </trkpt>
      <trkpt lat="44.75098" lon="0.46887">
        <ele>122.8</ele>
        <time>2023-07-14T07:16:34Z</time>
      </trkpt>
      <trkpt lat="44.75095" lon="0.46891">
        <ele>122.9</ele>
        <time>2023-07-14T07:16:35Z</time>
      </trkpt>
      <trkpt lat="44.7509" lon="0.46899">
        <ele>123.1</ele>
        <time>2023-07-14T07:16:37Z</time>
      </trkpt>
      <trkpt lat="44.75085" lon="0.46908">
        <ele>123.4</ele>
        <time>2023-07-14T07:16:39Z</time>
      </trkpt>
      <trkpt lat="44.75083" lon="0.46912">
        <ele>123.5</ele>
        <time>2023-07-14T07:16:40Z</time>
      </trkpt>
      <trkpt lat="44.7508" lon="0.46917">
        <ele>123.7</ele>
        <time>2023-07-14T07:16:41Z</time>
      </trkpt>
      <trkpt lat="44.75078" lon="0.46921">
        <ele>123.8</ele>
        <time>2023-07-14T07:16:42Z</time>
      </trkpt>
      <trkpt lat="44.75075" lon="0.46926">
        <ele>124</ele>
        <time>2023-07-14T07:16:43Z</time>
      </trkpt>
      <trkpt lat="44.7507" lon="0.46934">
        <ele>124.3</ele>
        <time>2023-07-14T07:16:45Z</time>
      </trkpt>
      <trkpt lat="44.75068" lon="0.46938">
        <ele>124.4</ele>
        <time>2023-07-14T07:16:46Z</time>
      </trkpt>
      <trkpt lat="44.75065" lon="0.46942">
        <ele>124.5</ele>
        <time>2023-07-14T07:16:47Z</time>
      </trkpt>
      <trkpt lat="44.75058" lon="0.46947">
        <ele>124.8</ele>
        <time>2023-07-14T07:16:49Z</time>
      </trkpt>
      <trkpt lat="44.75054" lon="0.46946">
        <ele>124.8</ele>
        <time>2023-07-14T07:16:50Z</time>
      </trkpt>
      <trkpt lat="44.7505" lon="0.46943">
        <ele>124.7</ele>
        <time>2023-07-14T07:16:51Z</time>
      </trkpt>
      <trkpt lat="44.75044" lon="0.46935">
        <ele>124.6</ele>
        <time>2023-07-14T07:16:53Z</time>
      </trkpt>
      <trkpt lat="44.75041" lon="0.46931">
        <ele>124.6</ele>
        <time>2023-07-14T07:16:54Z</time>
      </trkpt>
      <trkpt lat="44.75038" lon="0.46927">
        <ele>124.5</ele>
        <time>2023-07-14T07:16:55Z</time>
      </trkpt>
      <trkpt lat="44.7503" lon="0.46918">
        <ele>124.4</ele>
        <time>2023-07-14T07:16:57Z</time>
      </trkpt>
      <trkpt lat="44.75024" lon="0.4691">
        <ele>124.4</ele>
        <time>2023-07-14T07:16:59Z</time>
      </trkpt>
      <trkpt lat="44.75017" lon="0.469">
        <ele>124.4</ele>
        <time>2023-07-14T07:17:01Z</time>
      </trkpt>
      <trkpt lat="44.7501" lon="0.46891">
        <ele>124.4</ele>
        <time>2023-07-14T07:17:03Z</time>
      </trkpt>
      <trkpt lat="44.75003" lon="0.46882">
        <ele>124.5</ele>
        <time>2023-07-14T07:17:05Z</time>
      </trkpt>
      <trkpt lat="44.74996" lon="0.46873">
        <ele>124.5</ele>
        <time>2023-07-14T07:17:07Z</time>
      </trkpt>
      <trkpt lat="44.74989" lon="0.46864">
        <ele>124.7</ele>
        <time>2023-07-14T07:17:09Z</time>
      </trkpt>
      <trkpt lat="44.74982" lon="0.46855">
        <ele>124.9</ele>
        <time>2023-07-14T07:17:11Z</time>
      </trkpt>
      <trkpt lat="44.74979" lon="0.46851">
        <ele>124.9</ele>
        <time>2023-07-14T07:17:12Z</time>
      </trkpt>
      <trkpt lat="44.74975" lon="0.46847">
        <ele>125</ele>
        <time>2023-07-14T07:17:13Z</time>
      </trkpt>
      <trkpt lat="44.74968" lon="0.46839">
        <ele>125.2</ele>
        <time>2023-07-14T07:17:15Z</time>
      </trkpt>
      <trkpt lat="44.74961" lon="0.46832">
        <ele>125.4</ele>
        <time>2023-07-14T07:17:17Z</time>
      </trkpt>
      <trkpt lat="44.74953" lon="0.46824">
        <ele>125.6</ele>
        <time>2023-07-14T07:17:19Z</time>
      </trkpt>
      <trkpt lat="44.74946" lon="0.46817">
        <ele>125.7</ele>
        <time>2023-07-14T07:17:21Z</time>
      </trkpt>
      <trkpt lat="44.74938" lon="0.4681">
        <ele>125.8</ele>
        <time>2023-07-14T07:17:23Z</time>
      </trkpt>
      <trkpt lat="44.74931" lon="0.46803">
        <ele>125.9</ele>
        <time>2023-07-14T07:17:25Z</time>
      </trkpt>
      <trkpt lat="44.74924" lon="0.46795">
        <ele>125.9</ele>
        <time>2023-07-14T07:17:27Z</time>
      </trkpt>
      <trkpt lat="44.74921" lon="0.46792">
        <ele>125.9</ele>
        <time>2023-07-14T07:17:28Z</time>
      </trkpt>
      <trkpt lat="44.74918" lon="0.46789">
        <ele>125.9</ele>
        <time>2023-07-14T07:17:29Z</time>
      </trkpt>
      <trkpt lat="44.74912" lon="0.46781">
        <ele>125.8</ele>
        <time>2023-07-14T07:17:31Z</time>
      </trkpt>
      <trkpt lat="44.74906" lon="0.46771">
        <ele>125.6</ele>
        <time>2023-07-14T07:17:33Z</time>
      </trkpt>
      <trkpt lat="44.74903" lon="0.46766">
        <ele>125.5</ele>
        <time>2023-07-14T07:17:34Z</time>
      </trkpt>
      <trkpt lat="44.74899" lon="0.4676">
        <ele>125.4</ele>
        <time>2023-07-14T07:17:35Z</time>
      </trkpt>
      <trkpt lat="44.74893" lon="0.46748">
        <ele>125.1</ele>
        <time>2023-07-14T07:17:37Z</time>
      </trkpt>
      <trkpt lat="44.74887" lon="0.46736">
        <ele>124.8</ele>
        <time>2023-07-14T07:17:39Z</time>
      </trkpt>
      <trkpt lat="44.7488" lon="0.46724">
        <ele>124.4</ele>
        <time>2023-07-14T07:17:41Z</time>
      </trkpt>
      <trkpt lat="44.74873" lon="0.46713">
        <ele>124</ele>
        <time>2023-07-14T07:17:43Z</time>
      </trkpt>
      <trkpt lat="44.74865" lon="0.46702">
        <ele>123.7</ele>
        <time>2023-07-14T07:17:45Z</time>
      </trkpt>
      <trkpt lat="44.74855" lon="0.46694">
        <ele>123.3</ele>
        <time>2023-07-14T07:17:47Z</time>
      </trkpt>
      <trkpt lat="44.74845" lon="0.46686">
        <ele>122.9</ele>
        <time>2023-07-14T07:17:49Z</time>
      </trkpt>
      <trkpt lat="44.74835" lon="0.46681">
        <ele>122.5</ele>
        <time>2023-07-14T07:17:51Z</time>
      </trkpt>
      <trkpt lat="44.74829" lon="0.46679">
        <ele>122.3</ele>
        <time>2023-07-14T07:17:52Z</time>
      </trkpt>
      <trkpt lat="44.74824" lon="0.46677">
        <ele>122.1</ele>
        <time>2023-07-14T07:17:53Z</time>
      </trkpt>
      <trkpt lat="44.74818" lon="0.46675">
        <ele>121.9</ele>
        <time>2023-07-14T07:17:54Z</time>
      </trkpt>
      <trkpt lat="44.74813" lon="0.46675">
        <ele>121.8</ele>
        <time>2023-07-14T07:17:55Z</time>
      </trkpt>
      <trkpt lat="44.74809" lon="0.46676">
        <ele>121.7</ele>
        <time>2023-07-14T07:17:56Z</time>
      </trkpt>
      <trkpt lat="44.74804" lon="0.46677">
        <ele>121.6</ele>
        <time>2023-07-14T07:17:57Z</time>
      </trkpt>
      <trkpt lat="44.74796" lon="0.46682">
        <ele>121.4</ele>
        <time>2023-07-14T07:17:59Z</time>
      </trkpt>
      <trkpt lat="44.74792" lon="0.46685">
        <ele>121.3</ele>
        <time>2023-07-14T07:18:00Z</time>
      </trkpt>
      <trkpt lat="44.74788" lon="0.46688">
        <ele>121.2</ele>
        <time>2023-07-14T07:18:01Z</time>
      </trkpt>
      <trkpt lat="44.7478" lon="0.46696">
        <ele>121</ele>
        <time>2023-07-14T07:18:03Z</time>
      </trkpt>
      <trkpt lat="44.74771" lon="0.46704">
        <ele>120.9</ele>
        <time>2023-07-14T07:18:05Z</time>
      </trkpt>
      <trkpt lat="44.74761" lon="0.4671">
        <ele>120.9</ele>
        <time>2023-07-14T07:18:07Z</time>
      </trkpt>
      <trkpt lat="44.74752" lon="0.46716">
        <ele>121</ele>
        <time>2023-07-14T07:18:09Z</time>
      </trkpt>
      <trkpt lat="44.74748" lon="0.46719">
        <ele>121.1</ele>
        <time>2023-07-14T07:18:10Z</time>
      </trkpt>
      <trkpt lat="44.74743" lon="0.46721">
        <ele>121.1</ele>
        <time>2023-07-14T07:18:11Z</time>
      </trkpt>
      <trkpt lat="44.74739" lon="0.46723">
        <ele>121.2</ele>
        <time>2023-07-14T07:18:12Z</time>
      </trkpt>
      <trkpt lat="44.74735" lon="0.46725">
        <ele>121.3</ele>
        <time>2023-07-14T07:18:13Z</time>
      </trkpt>
      <trkpt lat="44.74725" lon="0.46726">
        <ele>121.6</ele>
        <time>2023-07-14T07:18:15Z</time>
      </trkpt>
      <trkpt lat="44.74716" lon="0.46725">
        <ele>121.8</ele>
        <time>2023-07-14T07:18:17Z</time>
      </trkpt>
      <trkpt lat="44.74712" lon="0.46724">
        <ele>121.9</ele>
        <time>2023-07-14T07:18:18Z</time>
      </trkpt>
      <trkpt lat="44.74707" lon="0.46723">
        <ele>122</ele>
        <time>2023-07-14T07:18:19Z</time>
      </trkpt>
      <trkpt lat="44.74699" lon="0.46719">
        <ele>122.3</ele>
        <time>2023-07-14T07:18:21Z</time>
      </trkpt>
      <trkpt lat="44.7469" lon="0.46716">
        <ele>122.6</ele>
        <time>2023-07-14T07:18:23Z</time>
      </trkpt>
      <trkpt lat="44.74682" lon="0.46713">
        <ele>123</ele>
        <time>2023-07-14T07:18:25Z</time>
      </trkpt>
      <trkpt lat="44.74674" lon="0.46711">
        <ele>123.4</ele>
        <time>2023-07-14T07:18:27Z</time>
      </trkpt>
      <trkpt lat="44.74667" lon="0.46709">
        <ele>123.8</ele>
        <time>2023-07-14T07:18:29Z</time>
      </trkpt>
      <trkpt lat="44.74662" lon="0.46709">
        <ele>124</ele>
        <time>2023-07-14T07:18:30Z</time>
      </trkpt>
      <trkpt lat="44.74658" lon="0.46709">
        <ele>124.2</ele>
        <time>2023-07-14T07:18:31Z</time>
      </trkpt>
      <trkpt lat="44.74651" lon="0.46709">
        <ele>124.6</ele>
        <time>2023-07-14T07:18:33Z</time>
      </trkpt>
      <trkpt lat="44.74644" lon="0.46709">
        <ele>124.9</ele>
        <time>2023-07-14T07:18:35Z</time>
      </trkpt>
      <trkpt lat="44.7464" lon="0.46709">
        <ele>125.1</ele>
        <time>2023-07-14T07:18:36Z</time>
      </trkpt>
      <trkpt lat="44.74637" lon="0.4671">
        <ele>125.2</ele>
        <time>2023-07-14T07:18:37Z</time>
      </trkpt>
      <trkpt lat="44.74629" lon="0.46711">
        <ele>125.4</ele>
        <time>2023-07-14T07:18:39Z</time>
      </trkpt>
      <trkpt lat="44.74622" lon="0.46714">
        <ele>125.6</ele>
        <time>2023-07-14T07:18:41Z</time>
      </trkpt>
      <trkpt lat="44.74614" lon="0.46717">
        <ele>125.8</ele>
        <time>2023-07-14T07:18:43Z</time>
      </trkpt>
      <trkpt lat="44.74607" lon="0.4672">
        <ele>126</ele>
        <time>2023-07-14T07:18:45Z</time>
      </trkpt>
      <trkpt lat="44.746" lon="0.46723">
        <ele>126.1</ele>
        <time>2023-07-14T07:18:47Z</time>
      </trkpt>
      <trkpt lat="44.74596" lon="0.46724">
        <ele>126.2</ele>
        <time>2023-07-14T07:18:48Z</time>
      </trkpt>
      <trkpt lat="44.74592" lon="0.46725">
        <ele>126.3</ele>
        <time>2023-07-14T07:18:49Z</time>
      </trkpt>
      <trkpt lat="44.74585" lon="0.46725">
        <ele>126.5</ele>
        <time>2023-07-14T07:18:51Z</time>
      </trkpt>
      <trkpt lat="44.74577" lon="0.46725">
        <ele>126.6</ele>
        <time>2023-07-14T07:18:53Z</time>
      </trkpt>
      <trkpt lat="44.74573" lon="0.46726">
        <ele>126.7</ele>
        <time>2023-07-14T07:18:54Z</time>
      </trkpt>
      <trkpt lat="44.74569" lon="0.46726">
        <ele>126.8</ele>
        <time>2023-07-14T07:18:55Z</time>
      </trkpt>
      <trkpt lat="44.74562" lon="0.46725">
        <ele>127</ele>
        <time>2023-07-14T07:18:57Z</time>
      </trkpt>
      <trkpt lat="44.74554" lon="0.46724">
        <ele>127.2</ele>
        <time>2023-07-14T07:18:59Z</time>
      </trkpt>
      <trkpt lat="44.74547" lon="0.46724">
        <ele>127.4</ele>
        <time>2023-07-14T07:19:01Z</time>
      </trkpt>
      <trkpt lat="44.74539" lon="0.46723">
        <ele>127.6</ele>
        <time>2023-07-14T07:19:03Z</time>
      </trkpt>
      <trkpt lat="44.74532" lon="0.46724">
        <ele>127.8</ele>
        <time>2023-07-14T07:19:05Z</time>
      </trkpt>
      <trkpt lat="44.74524" lon="0.46724">
        <ele>128</ele>
        <time>2023-07-14T07:19:07Z</time>
      </trkpt>
      <trkpt lat="44.74517" lon="0.46723">
        <ele>128.2</ele>
        <time>2023-07-14T07:19:09Z</time>
      </trkpt>
      <trkpt lat="44.7451" lon="0.46724">
        <ele>128.4</ele>
        <time>2023-07-14T07:19:11Z</time>
      </trkpt>
      <trkpt lat="44.74502" lon="0.46724">
        <ele>128.6</ele>
        <time>2023-07-14T07:19:13Z</time>
      </trkpt>
      <trkpt lat="44.74494" lon="0.46725">
        <ele>128.8</ele>
        <time>2023-07-14T07:19:15Z</time>
      </trkpt>
      <trkpt lat="44.74486" lon="0.46725">
        <ele>129</ele>
        <time>2023-07-14T07:19:17Z</time>
      </trkpt>
      <trkpt lat="44.74478" lon="0.46725">
        <ele>129.2</ele>
        <time>2023-07-14T07:19:19Z</time>
      </trkpt>
      <trkpt lat="44.74471" lon="0.46726">
        <ele>129.4</ele>
        <time>2023-07-14T07:19:21Z</time>
      </trkpt>
      <trkpt lat="44.74464" lon="0.46727">
        <ele>129.6</ele>
        <time>2023-07-14T07:19:23Z</time>
      </trkpt>
      <trkpt lat="44.74457" lon="0.46728">
        <ele>129.8</ele>
        <time>2023-07-14T07:19:25Z</time>
      </trkpt>
      <trkpt lat="44.7445" lon="0.46729">
        <ele>130</ele>
        <time>2023-07-14T07:19:27Z</time>
      </trkpt>
      <trkpt lat="44.74444" lon="0.4673">
        <ele>130.3</ele>
        <time>2023-07-14T07:19:29Z</time>
      </trkpt>
      <trkpt lat="44.74437" lon="0.46732">
        <ele>130.5</ele>
        <time>2023-07-14T07:19:31Z</time>
      </trkpt>
      <trkpt lat="44.74431" lon="0.46733">
        <ele>130.7</ele>
        <time>2023-07-14T07:19:33Z</time>
      </trkpt>
      <trkpt lat="44.74425" lon="0.46735">
        <ele>131</ele>
        <time>2023-07-14T07:19:35Z</time>
      </trkpt>
      <trkpt lat="44.74419" lon="0.46737">
        <ele>131.2</ele>
        <time>2023-07-14T07:19:37Z</time>
      </trkpt>
      <trkpt lat="44.74412" lon="0.46739">
        <ele>131.5</ele>
        <time>2023-07-14T07:19:39Z</time>
      </trkpt>
      <trkpt lat="44.74406" lon="0.46742">
        <ele>131.8</ele>
        <time>2023-07-14T07:19:41Z</time>
      </trkpt>
      <trkpt lat="44.74401" lon="0.46746">
        <ele>132.1</ele>
        <time>2023-07-14T07:19:43Z</time>
      </trkpt>
      <trkpt lat="44.74396" lon="0.46751">
        <ele>132.3</ele>
        <time>2023-07-14T07:19:45Z</time>
      </trkpt>
      <trkpt lat="44.74394" lon="0.46753">
        <ele>132.5</ele>
        <time>2023-07-14T07:19:46Z</time>
      </trkpt>
      <trkpt lat="44.74392" lon="0.46756">
        <ele>132.6</ele>
        <time>2023-07-14T07:19:47Z</time>
      </trkpt>
      <trkpt lat="44.74389" lon="0.46761">
        <ele>132.9</ele>
        <time>2023-07-14T07:19:49Z</time>
      </trkpt>
      <trkpt lat="44.74386" lon="0.46767">
        <ele>133.2</ele>
        <time>2023-07-14T07:19:51Z</time>
      </trkpt>
      <trkpt lat="44.74383" lon="0.46772">
        <ele>133.5</ele>
        <time>2023-07-14T07:19:53Z</time>
      </trkpt>
      <trkpt lat="44.7438" lon="0.46778">
        <ele>133.8</ele>
        <time>2023-07-14T07:19:55Z</time>
      </trkpt>
      <trkpt lat="44.74378" lon="0.46784">
        <ele>134.1</ele>
        <time>2023-07-14T07:19:57Z</time>
      </trkpt>
      <trkpt lat="44.74376" lon="0.4679">
        <ele>134.4</ele>
        <time>2023-07-14T07:19:59Z</time>
      </trkpt>
      <trkpt lat="44.74373" lon="0.46797">
        <ele>134.7</ele>
        <time>2023-07-14T07:20:01Z</time>
      </trkpt>
      <trkpt lat="44.74371" lon="0.46803">
        <ele>134.9</ele>
        <time>2023-07-14T07:20:03Z</time>
      </trkpt>
      <trkpt lat="44.74369" lon="0.46809">
        <ele>135.1</ele>
        <time>2023-07-14T07:20:05Z</time>
      </trkpt>
      <trkpt lat="44.74368" lon="0.46816">
        <ele>135.3</ele>
        <time>2023-07-14T07:20:07Z</time>
      </trkpt>
      <trkpt lat="44.74367" lon="0.46823">
        <ele>135.5</ele>
        <time>2023-07-14T07:20:09Z</time>
      </trkpt>
      <trkpt lat="44.74366" lon="0.4683">
        <ele>135.6</ele>
        <time>2023-07-14T07:20:11Z</time>
      </trkpt>
      <trkpt lat="44.74365" lon="0.46837">
        <ele>135.7</ele>
        <time>2023-07-14T07:20:13Z</time>
      </trkpt>
      <trkpt lat="44.74364" lon="0.46841">
        <ele>135.7</ele>
        <time>2023-07-14T07:20:14Z</time>
      </trkpt>
      <trkpt lat="44.74363" lon="0.46844">
        <ele>135.7</ele>
        <time>2023-07-14T07:20:15Z</time>
      </trkpt>
      <trkpt lat="44.74361" lon="0.46851">
        <ele>135.8</ele>
        <time>2023-07-14T07:20:17Z</time>
      </trkpt>
      <trkpt lat="44.74359" lon="0.46858">
        <ele>135.8</ele>
        <time>2023-07-14T07:20:19Z</time>
      </trkpt>
      <trkpt lat="44.74357" lon="0.46865">
        <ele>135.8</ele>
        <time>2023-07-14T07:20:21Z</time>
      </trkpt>
      <trkpt lat="44.74355" lon="0.46873">
        <ele>135.8</ele>
        <time>2023-07-14T07:20:23Z</time>
      </trkpt>
      <trkpt lat="44.74352" lon="0.4688">
        <ele>135.8</ele>
        <time>2023-07-14T07:20:25Z</time>
      </trkpt>
      <trkpt lat="44.7435" lon="0.46888">
        <ele>135.8</ele>
        <time>2023-07-14T07:20:27Z</time>
      </trkpt>
      <trkpt lat="44.74347" lon="0.46895">
        <ele>135.9</ele>
        <time>2023-07-14T07:20:29Z</time>
      </trkpt>
      <trkpt lat="44.74344" lon="0.46901">
        <ele>136</ele>
        <time>2023-07-14T07:20:31Z</time>
      </trkpt>
      <trkpt lat="44.74342" lon="0.46906">
        <ele>136</ele>
        <time>2023-07-14T07:20:33Z</time>
      </trkpt>
      <trkpt lat="44.74341" lon="0.46908">
        <ele>136.1</ele>
        <time>2023-07-14T07:20:34Z</time>
      </trkpt>
      <trkpt lat="44.7434" lon="0.4691">
        <ele>136.1</ele>
        <time>2023-07-14T07:20:35Z</time>
      </trkpt>
      <trkpt lat="44.74338" lon="0.46916">
        <ele>136.2</ele>
        <time>2023-07-14T07:20:37Z</time>
      </trkpt>
      <trkpt lat="44.74335" lon="0.46921">
        <ele>136.3</ele>
        <time>2023-07-14T07:20:39Z</time>
      </trkpt>
      <trkpt lat="44.74334" lon="0.46924">
        <ele>136.4</ele>
        <time>2023-07-14T07:20:40Z</time>
      </trkpt>
      <trkpt lat="44.74332" lon="0.46928">
        <ele>136.4</ele>
        <time>2023-07-14T07:20:41Z</time>
      </trkpt>
      <trkpt lat="44.74329" lon="0.46935">
        <ele>136.6</ele>
        <time>2023-07-14T07:20:43Z</time>
      </trkpt>
      <trkpt lat="44.74326" lon="0.46942">
        <ele>136.8</ele>
        <time>2023-07-14T07:20:45Z</time>
      </trkpt>
      <trkpt lat="44.74322" lon="0.46948">
        <ele>137</ele>
        <time>2023-07-14T07:20:47Z</time>
      </trkpt>
      <trkpt lat="44.74318" lon="0.46954">
        <ele>137.3</ele>
        <time>2023-07-14T07:20:49Z</time>
      </trkpt>
      <trkpt lat="44.74316" lon="0.4696">
        <ele>137.6</ele>
        <time>2023-07-14T07:20:51Z</time>
      </trkpt>
      <trkpt lat="44.74314" lon="0.46965">
        <ele>137.9</ele>
        <time>2023-07-14T07:20:53Z</time>
      </trkpt>
      <trkpt lat="44.74312" lon="0.46968">
        <ele>138.1</ele>
        <time>2023-07-14T07:20:55Z</time>
      </trkpt>
      <trkpt lat="44.7431" lon="0.4697">
        <ele>138.3</ele>
        <time>2023-07-14T07:20:56Z</time>
      </trkpt>
      <trkpt lat="44.74308" lon="0.46973">
        <ele>138.4</ele>
        <time>2023-07-14T07:20:57Z</time>
      </trkpt>
      <trkpt lat="44.74305" lon="0.46979">
        <ele>138.6</ele>
        <time>2023-07-14T07:20:59Z</time>
      </trkpt>
      <trkpt lat="44.74303" lon="0.46985">
        <ele>138.9</ele>
        <time>2023-07-14T07:21:01Z</time>
      </trkpt>
      <trkpt lat="44.74301" lon="0.46988">
        <ele>139</ele>
        <time>2023-07-14T07:21:02Z</time>
      </trkpt>
      <trkpt lat="44.743" lon="0.46991">
        <ele>139.1</ele>
        <time>2023-07-14T07:21:03Z</time>
      </trkpt>
      <trkpt lat="44.74298" lon="0.46996">
        <ele>139.4</ele>
        <time>2023-07-14T07:21:05Z</time>
      </trkpt>
      <trkpt lat="44.74296" lon="0.47001">
        <ele>139.6</ele>
        <time>2023-07-14T07:21:07Z</time>
      </trkpt>
      <trkpt lat="44.74295" lon="0.47003">
        <ele>139.7</ele>
        <time>2023-07-14T07:21:08Z</time>
      </trkpt>
      <trkpt lat="44.74295" lon="0.47006">
        <ele>139.8</ele>
        <time>2023-07-14T07:21:09Z</time>
      </trkpt>
      <trkpt lat="44.74293" lon="0.4701">
        <ele>140</ele>
        <time>2023-07-14T07:21:11Z</time>
      </trkpt>
      <trkpt lat="44.74292" lon="0.47015">
        <ele>140.3</ele>
        <time>2023-07-14T07:21:13Z</time>
      </trkpt>
      <trkpt lat="44.7429" lon="0.4702">
        <ele>140.5</ele>
        <time>2023-07-14T07:21:15Z</time>
      </trkpt>
      <trkpt lat="44.7429" lon="0.47022">
        <ele>140.7</ele>
        <time>2023-07-14T07:21:16Z</time>
      </trkpt>
      <trkpt lat="44.74289" lon="0.47025">
        <ele>140.8</ele>
        <time>2023-07-14T07:21:17Z</time>
      </trkpt>
      <trkpt lat="44.74288" lon="0.4703">
        <ele>141.1</ele>
        <time>2023-07-14T07:21:19Z</time>
      </trkpt>
      <trkpt lat="44.74286" lon="0.47035">
        <ele>141.4</ele>
        <time>2023-07-14T07:21:21Z</time>
      </trkpt>
      <trkpt lat="44.74285" lon="0.47041">
        <ele>141.7</ele>
        <time>2023-07-14T07:21:23Z</time>
      </trkpt>
      <trkpt lat="44.74284" lon="0.47043">
        <ele>141.8</ele>
        <time>2023-07-14T07:21:24Z</time>
      </trkpt>
      <trkpt lat="44.74283" lon="0.47045">
        <ele>141.9</ele>
        <time>2023-07-14T07:21:25Z</time>
      </trkpt>
      <trkpt lat="44.74282" lon="0.47048">
        <ele>141.9</ele>
        <time>2023-07-14T07:21:26Z</time>
      </trkpt>
      <trkpt lat="44.74282" lon="0.4705">
        <ele>142</ele>
        <time>2023-07-14T07:21:27Z</time>
      </trkpt>
      <trkpt lat="44.7428" lon="0.47055">
        <ele>142.2</ele>
        <time>2023-07-14T07:21:29Z</time>
      </trkpt>
      <trkpt lat="44.74278" lon="0.4706">
        <ele>142.3</ele>
        <time>2023-07-14T07:21:31Z</time>
      </trkpt>
      <trkpt lat="44.74277" lon="0.47065">
        <ele>142.4</ele>
        <time>2023-07-14T07:21:33Z</time>
      </trkpt>
      <trkpt lat="44.74274" lon="0.4707">
        <ele>142.6</ele>
        <time>2023-07-14T07:21:35Z</time>
      </trkpt>
      <trkpt lat="44.74274" lon="0.47073">
        <ele>142.7</ele>
        <time>2023-07-14T07:21:36Z</time>
      </trkpt>
      <trkpt lat="44.74273" lon="0.47076">
        <ele>142.8</ele>
        <time>2023-07-14T07:21:37Z</time>
      </trkpt>
      <trkpt lat="44.74271" lon="0.47082">
        <ele>143</ele>
        <time>2023-07-14T07:21:39Z</time>
      </trkpt>
      <trkpt lat="44.74268" lon="0.47086">
        <ele>143</ele>
        <time>2023-07-14T07:21:41Z</time>
      </trkpt>
      <trkpt lat="44.74267" lon="0.47089">
        <ele>143</ele>
        <time>2023-07-14T07:21:42Z</time>
      </trkpt>
      <trkpt lat="44.74266" lon="0.47091">
        <ele>143.1</ele>
        <time>2023-07-14T07:21:43Z</time>
      </trkpt>
      <trkpt lat="44.74265" lon="0.47093">
        <ele>143.1</ele>
        <time>2023-07-14T07:21:44Z</time>
      </trkpt>
      <trkpt lat="44.74264" lon="0.47096">
        <ele>143.1</ele>
        <time>2023-07-14T07:21:45Z</time>
      </trkpt>
      <trkpt lat="44.74264" lon="0.47099">
        <ele>143.1</ele>
        <time>2023-07-14T07:21:46Z</time>
      </trkpt>
      <trkpt lat="44.74263" lon="0.47101">
        <ele>143.2</ele>
        <time>2023-07-14T07:21:47Z</time>
      </trkpt>
      <trkpt lat="44.74261" lon="0.47106">
        <ele>143.3</ele>
        <time>2023-07-14T07:21:49Z</time>
      </trkpt>
      <trkpt lat="44.7426" lon="0.47108">
        <ele>143.3</ele>
        <time>2023-07-14T07:21:50Z</time>
      </trkpt>
      <trkpt lat="44.74259" lon="0.47111">
        <ele>143.3</ele>
        <time>2023-07-14T07:21:51Z</time>
      </trkpt>
      <trkpt lat="44.74256" lon="0.47115">
        <ele>143.4</ele>
        <time>2023-07-14T07:21:53Z</time>
      </trkpt>
      <trkpt lat="44.74254" lon="0.4712">
        <ele>143.5</ele>
        <time>2023-07-14T07:21:55Z</time>
      </trkpt>
      <trkpt lat="44.74253" lon="0.47126">
        <ele>143.6</ele>
        <time>2023-07-14T07:21:57Z</time>
      </trkpt>
      <trkpt lat="44.7425" lon="0.47131">
        <ele>143.7</ele>
        <time>2023-07-14T07:21:59Z</time>
      </trkpt>
      <trkpt lat="44.74248" lon="0.47134">
        <ele>143.8</ele>
        <time>2023-07-14T07:22:00Z</time>
      </trkpt>
      <trkpt lat="44.74247" lon="0.47137">
        <ele>143.8</ele>
        <time>2023-07-14T07:22:01Z</time>
      </trkpt>
      <trkpt lat="44.74244" lon="0.47142">
        <ele>143.9</ele>
        <time>2023-07-14T07:22:03Z</time>
      </trkpt>
      <trkpt lat="44.74241" lon="0.47147">
        <ele>144</ele>
        <time>2023-07-14T07:22:05Z</time>
      </trkpt>
      <trkpt lat="44.74238" lon="0.47152">
        <ele>144</ele>
        <time>2023-07-14T07:22:07Z</time>
      </trkpt>
      <trkpt lat="44.74237" lon="0.47156">
        <ele>144.1</ele>
        <time>2023-07-14T07:22:08Z</time>
      </trkpt>
      <trkpt lat="44.74236" lon="0.4716">
        <ele>144.1</ele>
        <time>2023-07-14T07:22:09Z</time>
      </trkpt>
      <trkpt lat="44.74233" lon="0.47167">
        <ele>144.2</ele>
        <time>2023-07-14T07:22:11Z</time>
      </trkpt>
      <trkpt lat="44.7423" lon="0.47174">
        <ele>144.3</ele>
        <time>2023-07-14T07:22:13Z</time>
      </trkpt>
      <trkpt lat="44.74227" lon="0.4718">
        <ele>144.5</ele>
        <time>2023-07-14T07:22:15Z</time>
      </trkpt>
      <trkpt lat="44.74223" lon="0.47187">
        <ele>144.7</ele>
        <time>2023-07-14T07:22:17Z</time>
      </trkpt>
      <trkpt lat="44.7422" lon="0.47194">
        <ele>144.9</ele>
        <time>2023-07-14T07:22:19Z</time>
      </trkpt>
      <trkpt lat="44.74216" lon="0.472">
        <ele>145.1</ele>
        <time>2023-07-14T07:22:21Z</time>
      </trkpt>
      <trkpt lat="44.74213" lon="0.47207">
        <ele>145.3</ele>
        <time>2023-07-14T07:22:23Z</time>
      </trkpt>
      <trkpt lat="44.74212" lon="0.4721">
        <ele>145.4</ele>
        <time>2023-07-14T07:22:24Z</time>
      </trkpt>
      <trkpt lat="44.7421" lon="0.47213">
        <ele>145.5</ele>
        <time>2023-07-14T07:22:25Z</time>
      </trkpt>
      <trkpt lat="44.74207" lon="0.47218">
        <ele>145.8</ele>
        <time>2023-07-14T07:22:27Z</time>
      </trkpt>
      <trkpt lat="44.74204" lon="0.47224">
        <ele>146</ele>
        <time>2023-07-14T07:22:29Z</time>
      </trkpt>
      <trkpt lat="44.74201" lon="0.4723">
        <ele>146.2</ele>
        <time>2023-07-14T07:22:31Z</time>
      </trkpt>
      <trkpt lat="44.74198" lon="0.47236">
        <ele>146.4</ele>
        <time>2023-07-14T07:22:33Z</time>
      </trkpt>
      <trkpt lat="44.74195" lon="0.47243">
        <ele>146.6</ele>
        <time>2023-07-14T07:22:35Z</time>
      </trkpt>
      <trkpt lat="44.74193" lon="0.47249">
        <ele>146.9</ele>
        <time>2023-07-14T07:22:37Z</time>
      </trkpt>
      <trkpt lat="44.74191" lon="0.47252">
        <ele>147</ele>
        <time>2023-07-14T07:22:38Z</time>
      </trkpt>
      <trkpt lat="44.7419" lon="0.47256">
        <ele>147.2</ele>
        <time>2023-07-14T07:22:39Z</time>
      </trkpt>
      <trkpt lat="44.74187" lon="0.47263">
        <ele>147.5</ele>
        <time>2023-07-14T07:22:41Z</time>
      </trkpt>
      <trkpt lat="44.74185" lon="0.4727">
        <ele>147.8</ele>
        <time>2023-07-14T07:22:43Z</time>
      </trkpt>
      <trkpt lat="44.74183" lon="0.47276">
        <ele>148</ele>
        <time>2023-07-14T07:22:45Z</time>
      </trkpt>
      <trkpt lat="44.74181" lon="0.47282">
        <ele>148.3</ele>
        <time>2023-07-14T07:22:47Z</time>
      </trkpt>
      <trkpt lat="44.74179" lon="0.47288">
        <ele>148.6</ele>
        <time>2023-07-14T07:22:49Z</time>
      </trkpt>
      <trkpt lat="44.74177" lon="0.47294">
        <ele>148.8</ele>
        <time>2023-07-14T07:22:51Z</time>
      </trkpt>
      <trkpt lat="44.74175" lon="0.47299">
        <ele>149.1</ele>
        <time>2023-07-14T07:22:53Z</time>
      </trkpt>
      <trkpt lat="44.74173" lon="0.47305">
        <ele>149.4</ele>
        <time>2023-07-14T07:22:55Z</time>
      </trkpt>
      <trkpt lat="44.74171" lon="0.47311">
        <ele>149.7</ele>
        <time>2023-07-14T07:22:57Z</time>
      </trkpt>
      <trkpt lat="44.74169" lon="0.47316">
        <ele>150</ele>
        <time>2023-07-14T07:22:59Z</time>
      </trkpt>
      <trkpt lat="44.74166" lon="0.47322">
        <ele>150.3</ele>
        <time>2023-07-14T07:23:01Z</time>
      </trkpt>
      <trkpt lat="44.74165" lon="0.47325">
        <ele>150.4</ele>
        <time>2023-07-14T07:23:02Z</time>
      </trkpt>
      <trkpt lat="44.74164" lon="0.47328">
        <ele>150.5</ele>
        <time>2023-07-14T07:23:03Z</time>
      </trkpt>
      <trkpt lat="44.74162" lon="0.47333">
        <ele>150.7</ele>
        <time>2023-07-14T07:23:05Z</time>
      </trkpt>
      <trkpt lat="44.7416" lon="0.47339">
        <ele>150.9</ele>
        <time>2023-07-14T07:23:07Z</time>
      </trkpt>
      <trkpt lat="44.74158" lon="0.47344">
        <ele>151.2</ele>
        <time>2023-07-14T07:23:09Z</time>
      </trkpt>
      <trkpt lat="44.74156" lon="0.4735">
        <ele>151.4</ele>
        <time>2023-07-14T07:23:11Z</time>
      </trkpt>
      <trkpt lat="44.74154" lon="0.47356">
        <ele>151.7</ele>
        <time>2023-07-14T07:23:13Z</time>
      </trkpt>
      <trkpt lat="44.74151" lon="0.47362">
        <ele>151.9</ele>
        <time>2023-07-14T07:23:15Z</time>
      </trkpt>
      <trkpt lat="44.74149" lon="0.47367">
        <ele>152.1</ele>
        <time>2023-07-14T07:23:17Z</time>
      </trkpt>
      <trkpt lat="44.74148" lon="0.4737">
        <ele>152.1</ele>
        <time>2023-07-14T07:23:18Z</time>
      </trkpt>
      <trkpt lat="44.74147" lon="0.47373">
        <ele>152.2</ele>
        <time>2023-07-14T07:23:19Z</time>
      </trkpt>
      <trkpt lat="44.74144" lon="0.47379">
        <ele>152.4</ele>
        <time>2023-07-14T07:23:21Z</time>
      </trkpt>
      <trkpt lat="44.74141" lon="0.47385">
        <ele>152.5</ele>
        <time>2023-07-14T07:23:23Z</time>
      </trkpt>
      <trkpt lat="44.74139" lon="0.47388">
        <ele>152.5</ele>
        <time>2023-07-14T07:23:24Z</time>
      </trkpt>
      <trkpt lat="44.74138" lon="0.47391">
        <ele>152.5</ele>
        <time>2023-07-14T07:23:25Z</time>
      </trkpt>
      <trkpt lat="44.74135" lon="0.47398">
        <ele>152.6</ele>
        <time>2023-07-14T07:23:27Z</time>
      </trkpt>
      <trkpt lat="44.74131" lon="0.47404">
        <ele>152.6</ele>
        <time>2023-07-14T07:23:29Z</time>
      </trkpt>
      <trkpt lat="44.74128" lon="0.4741">
        <ele>152.5</ele>
        <time>2023-07-14T07:23:31Z</time>
      </trkpt>
      <trkpt lat="44.74125" lon="0.47416">
        <ele>152.4</ele>
        <time>2023-07-14T07:23:33Z</time>
      </trkpt>
      <trkpt lat="44.74123" lon="0.4742">
        <ele>152.3</ele>
        <time>2023-07-14T07:23:34Z</time>
      </trkpt>
      <trkpt lat="44.74122" lon="0.47423">
        <ele>152.1</ele>
        <time>2023-07-14T07:23:35Z</time>
      </trkpt>
      <trkpt lat="44.74118" lon="0.47429">
        <ele>151.8</ele>
        <time>2023-07-14T07:23:37Z</time>
      </trkpt>
      <trkpt lat="44.74116" lon="0.47431">
        <ele>151.5</ele>
        <time>2023-07-14T07:23:38Z</time>
      </trkpt>
      <trkpt lat="44.74113" lon="0.47432">
        <ele>151.3</ele>
        <time>2023-07-14T07:23:39Z</time>
      </trkpt>
      <trkpt lat="44.74107" lon="0.47433">
        <ele>151.9</ele>
        <time>2023-07-14T07:23:41Z</time>
      </trkpt>
      <trkpt lat="44.74104" lon="0.47432">
        <ele>152.3</ele>
        <time>2023-07-14T07:23:42Z</time>
      </trkpt>
      <trkpt lat="44.74102" lon="0.47432">
        <ele>152.6</ele>
        <time>2023-07-14T07:23:43Z</time>
      </trkpt>
      <trkpt lat="44.74097" lon="0.47429">
        <ele>153</ele>
        <time>2023-07-14T07:23:45Z</time>
      </trkpt>
      <trkpt lat="44.74092" lon="0.47425">
        <ele>153.2</ele>
        <time>2023-07-14T07:23:47Z</time>
      </trkpt>
      <trkpt lat="44.7409" lon="0.47424">
        <ele>153.4</ele>
        <time>2023-07-14T07:23:48Z</time>
      </trkpt>
      <trkpt lat="44.74088" lon="0.47421">
        <ele>153.3</ele>
        <time>2023-07-14T07:23:49Z</time>
      </trkpt>
      <trkpt lat="44.74084" lon="0.47417">
        <ele>153.5</ele>
        <time>2023-07-14T07:23:51Z</time>
      </trkpt>
      <trkpt lat="44.74082" lon="0.47414">
        <ele>153.7</ele>
        <time>2023-07-14T07:23:52Z</time>
      </trkpt>
      <trkpt lat="44.7408" lon="0.47411">
        <ele>153.6</ele>
        <time>2023-07-14T07:23:53Z</time>
      </trkpt>
      <trkpt lat="44.74075" lon="0.47405">
        <ele>153.7</ele>
        <time>2023-07-14T07:23:55Z</time>
      </trkpt>
      <trkpt lat="44.74072" lon="0.47403">
        <ele>153.6</ele>
        <time>2023-07-14T07:23:56Z</time>
      </trkpt>
      <trkpt lat="44.74069" lon="0.47402">
        <ele>153.7</ele>
        <time>2023-07-14T07:23:57Z</time>
      </trkpt>
      <trkpt lat="44.74065" lon="0.47405">
        <ele>154</ele>
        <time>2023-07-14T07:23:59Z</time>
      </trkpt>
      <trkpt lat="44.74062" lon="0.47409">
        <ele>154.2</ele>
        <time>2023-07-14T07:24:01Z</time>
      </trkpt>
      <trkpt lat="44.74058" lon="0.47413">
        <ele>154.5</ele>
        <time>2023-07-14T07:24:03Z</time>
      </trkpt>
      <trkpt lat="44.74055" lon="0.47418">
        <ele>154.7</ele>
        <time>2023-07-14T07:24:05Z</time>
      </trkpt>
      <trkpt lat="44.7405" lon="0.47423">
        <ele>154.8</ele>
        <time>2023-07-14T07:24:07Z</time>
      </trkpt>
      <trkpt lat="44.74046" lon="0.47428">
        <ele>154.9</ele>
        <time>2023-07-14T07:24:09Z</time>
      </trkpt>
      <trkpt lat="44.74042" lon="0.47433">
        <ele>155</ele>
        <time>2023-07-14T07:24:11Z</time>
      </trkpt>
      <trkpt lat="44.7404" lon="0.47435">
        <ele>155.2</ele>
        <time>2023-07-14T07:24:12Z</time>
      </trkpt>
      <trkpt lat="44.74038" lon="0.47437">
        <ele>155.2</ele>
        <time>2023-07-14T07:24:13Z</time>
      </trkpt>
      <trkpt lat="44.74034" lon="0.47442">
        <ele>155.3</ele>
        <time>2023-07-14T07:24:15Z</time>
      </trkpt>
      <trkpt lat="44.74032" lon="0.47445">
        <ele>155.4</ele>
        <time>2023-07-14T07:24:16Z</time>
      </trkpt>
      <trkpt lat="44.7403" lon="0.47447">
        <ele>155.5</ele>
        <time>2023-07-14T07:24:17Z</time>
      </trkpt>
      <trkpt lat="44.74026" lon="0.47453">
        <ele>155.7</ele>
        <time>2023-07-14T07:24:19Z</time>
      </trkpt>
      <trkpt lat="44.74021" lon="0.47459">
        <ele>155.9</ele>
        <time>2023-07-14T07:24:21Z</time>
      </trkpt>
      <trkpt lat="44.74017" lon="0.47465">
        <ele>156.1</ele>
        <time>2023-07-14T07:24:23Z</time>
      </trkpt>
      <trkpt lat="44.74016" lon="0.47467">
        <ele>156.2</ele>
        <time>2023-07-14T07:24:24Z</time>
      </trkpt>
      <trkpt lat="44.74014" lon="0.47469">
        <ele>156.3</ele>
        <time>2023-07-14T07:24:25Z</time>
      </trkpt>
      <trkpt lat="44.74009" lon="0.47474">
        <ele>156.5</ele>
        <time>2023-07-14T07:24:27Z</time>
      </trkpt>
      <trkpt lat="44.74006" lon="0.47479">
        <ele>156.7</ele>
        <time>2023-07-14T07:24:29Z</time>
      </trkpt>
      <trkpt lat="44.74004" lon="0.47482">
        <ele>156.8</ele>
        <time>2023-07-14T07:24:30Z</time>
      </trkpt>
      <trkpt lat="44.74002" lon="0.47484">
        <ele>156.9</ele>
        <time>2023-07-14T07:24:31Z</time>
      </trkpt>
      <trkpt lat="44.73999" lon="0.47489">
        <ele>157.1</ele>
        <time>2023-07-14T07:24:33Z</time>
      </trkpt>
      <trkpt lat="44.73997" lon="0.47495">
        <ele>157.3</ele>
        <time>2023-07-14T07:24:35Z</time>
      </trkpt>
      <trkpt lat="44.73994" lon="0.475">
        <ele>157.5</ele>
        <time>2023-07-14T07:24:37Z</time>
      </trkpt>
      <trkpt lat="44.73991" lon="0.47506">
        <ele>157.6</ele>
        <time>2023-07-14T07:24:39Z</time>
      </trkpt>
      <trkpt lat="44.7399" lon="0.4751">
        <ele>157.8</ele>
        <time>2023-07-14T07:24:40Z</time>
      </trkpt>
      <trkpt lat="44.73989" lon="0.47514">
        <ele>157.8</ele>
        <time>2023-07-14T07:24:41Z</time>
      </trkpt>
      <trkpt lat="44.73988" lon="0.47521">
        <ele>157.9</ele>
        <time>2023-07-14T07:24:43Z</time>
      </trkpt>
      <trkpt lat="44.73986" lon="0.47528">
        <ele>158</ele>
        <time>2023-07-14T07:24:45Z</time>
      </trkpt>
      <trkpt lat="44.73984" lon="0.47535">
        <ele>158</ele>
        <time>2023-07-14T07:24:47Z</time>
      </trkpt>
      <trkpt lat="44.73982" lon="0.47543">
        <ele>158</ele>
        <time>2023-07-14T07:24:49Z</time>
      </trkpt>
      <trkpt lat="44.73979" lon="0.47549">
        <ele>158</ele>
        <time>2023-07-14T07:24:51Z</time>
      </trkpt>
      <trkpt lat="44.73977" lon="0.47555">
        <ele>158.1</ele>
        <time>2023-07-14T07:24:53Z</time>
      </trkpt>
      <trkpt lat="44.73976" lon="0.47558">
        <ele>158.1</ele>
        <time>2023-07-14T07:24:54Z</time>
      </trkpt>
      <trkpt lat="44.73975" lon="0.47562">
        <ele>158.2</ele>
        <time>2023-07-14T07:24:55Z</time>
      </trkpt>
      <trkpt lat="44.73973" lon="0.47569">
        <ele>158.2</ele>
        <time>2023-07-14T07:24:57Z</time>
      </trkpt>
      <trkpt lat="44.7397" lon="0.47577">
        <ele>158.2</ele>
        <time>2023-07-14T07:24:59Z</time>
      </trkpt>
      <trkpt lat="44.73968" lon="0.47586">
        <ele>158.2</ele>
        <time>2023-07-14T07:25:01Z</time>
      </trkpt>
      <trkpt lat="44.73965" lon="0.47596">
        <ele>158.2</ele>
        <time>2023-07-14T07:25:03Z</time>
      </trkpt>
      <trkpt lat="44.73962" lon="0.47606">
        <ele>158.2</ele>
        <time>2023-07-14T07:25:05Z</time>
      </trkpt>
      <trkpt lat="44.73959" lon="0.47615">
        <ele>158.2</ele>
        <time>2023-07-14T07:25:07Z</time>
      </trkpt>
      <trkpt lat="44.73956" lon="0.47625">
        <ele>158.3</ele>
        <time>2023-07-14T07:25:09Z</time>
      </trkpt>
      <trkpt lat="44.73952" lon="0.47634">
        <ele>158.4</ele>
        <time>2023-07-14T07:25:11Z</time>
      </trkpt>
      <trkpt lat="44.7395" lon="0.47643">
        <ele>158.4</ele>
        <time>2023-07-14T07:25:13Z</time>
      </trkpt>
      <trkpt lat="44.73948" lon="0.47648">
        <ele>158.4</ele>
        <time>2023-07-14T07:25:14Z</time>
      </trkpt>
      <trkpt lat="44.73947" lon="0.47652">
        <ele>158.5</ele>
        <time>2023-07-14T07:25:15Z</time>
      </trkpt>
      <trkpt lat="44.73945" lon="0.47661">
        <ele>158.6</ele>
        <time>2023-07-14T07:25:17Z</time>
      </trkpt>
      <trkpt lat="44.73945" lon="0.47672">
        <ele>158</ele>
        <time>2023-07-14T07:25:19Z</time>
      </trkpt>
      <trkpt lat="44.73949" lon="0.47684">
        <ele>157.2</ele>
        <time>2023-07-14T07:25:21Z</time>
      </trkpt>
      <trkpt lat="44.73954" lon="0.47698">
        <ele>156.3</ele>
        <time>2023-07-14T07:25:23Z</time>
      </trkpt>
      <trkpt lat="44.7396" lon="0.47715">
        <ele>155.3</ele>
        <time>2023-07-14T07:25:25Z</time>
      </trkpt>
      <trkpt lat="44.73967" lon="0.47733">
        <ele>154.4</ele>
        <time>2023-07-14T07:25:27Z</time>
      </trkpt>
      <trkpt lat="44.73971" lon="0.47742">
        <ele>154</ele>
        <time>2023-07-14T07:25:28Z</time>
      </trkpt>
      <trkpt lat="44.73975" lon="0.47751">
        <ele>153.7</ele>
        <time>2023-07-14T07:25:29Z</time>
      </trkpt>
      <trkpt lat="44.73982" lon="0.47768">
        <ele>153.4</ele>
        <time>2023-07-14T07:25:31Z</time>
      </trkpt>
      <trkpt lat="44.7399" lon="0.47783">
        <ele>153</ele>
        <time>2023-07-14T07:25:33Z</time>
      </trkpt>
      <trkpt lat="44.73993" lon="0.47789">
        <ele>152.8</ele>
        <time>2023-07-14T07:25:34Z</time>
      </trkpt>
      <trkpt lat="44.73997" lon="0.47795">
        <ele>152.7</ele>
        <time>2023-07-14T07:25:35Z</time>
      </trkpt>
      <trkpt lat="44.74003" lon="0.47806">
        <ele>152.3</ele>
        <time>2023-07-14T07:25:37Z</time>
      </trkpt>
      <trkpt lat="44.7401" lon="0.47816">
        <ele>151.9</ele>
        <time>2023-07-14T07:25:39Z</time>
      </trkpt>
      <trkpt lat="44.74014" lon="0.47822">
        <ele>151.6</ele>
        <time>2023-07-14T07:25:40Z</time>
      </trkpt>
      <trkpt lat="44.74018" lon="0.47827">
        <ele>151.2</ele>
        <time>2023-07-14T07:25:41Z</time>
      </trkpt>
      <trkpt lat="44.74022" lon="0.47833">
        <ele>150.8</ele>
        <time>2023-07-14T07:25:42Z</time>
      </trkpt>
      <trkpt lat="44.74024" lon="0.47837">
        <ele>150.4</ele>
        <time>2023-07-14T07:25:43Z</time>
      </trkpt>
      <trkpt lat="44.74026" lon="0.47841">
        <ele>150.2</ele>
        <time>2023-07-14T07:25:44Z</time>
      </trkpt>
      <trkpt lat="44.74026" lon="0.47844">
        <ele>150.1</ele>
        <time>2023-07-14T07:25:45Z</time>
      </trkpt>
      <trkpt lat="44.74024" lon="0.4785">
        <ele>149.7</ele>
        <time>2023-07-14T07:25:47Z</time>
      </trkpt>
      <trkpt lat="44.74023" lon="0.47853">
        <ele>149.9</ele>
        <time>2023-07-14T07:25:48Z</time>
      </trkpt>
      <trkpt lat="44.74024" lon="0.47857">
        <ele>149.9</ele>
        <time>2023-07-14T07:25:49Z</time>
      </trkpt>
      <trkpt lat="44.74025" lon="0.47859">
        <ele>149.9</ele>
        <time>2023-07-14T07:25:50Z</time>
      </trkpt>
      <trkpt lat="44.74026" lon="0.47861">
        <ele>150</ele>
        <time>2023-07-14T07:25:51Z</time>
      </trkpt>
      <trkpt lat="44.74026" lon="0.47863">
        <ele>150</ele>
        <time>2023-07-14T07:25:52Z</time>
      </trkpt>
      <trkpt lat="44.74026" lon="0.47866">
        <ele>150.1</ele>
        <time>2023-07-14T07:25:53Z</time>
      </trkpt>
      <trkpt lat="44.74025" lon="0.47868">
        <ele>150.1</ele>
        <time>2023-07-14T07:25:54Z</time>
      </trkpt>
      <trkpt lat="44.74023" lon="0.4787">
        <ele>150.1</ele>
        <time>2023-07-14T07:25:55Z</time>
      </trkpt>
      <trkpt lat="44.7402" lon="0.47874">
        <ele>150.2</ele>
        <time>2023-07-14T07:25:57Z</time>
      </trkpt>
      <trkpt lat="44.74016" lon="0.47877">
        <ele>150.3</ele>
        <time>2023-07-14T07:25:59Z</time>
      </trkpt>
      <trkpt lat="44.74014" lon="0.47879">
        <ele>150.4</ele>
        <time>2023-07-14T07:26:00Z</time>
      </trkpt>
      <trkpt lat="44.74012" lon="0.47881">
        <ele>150.4</ele>
        <time>2023-07-14T07:26:01Z</time>
      </trkpt>
      <trkpt lat="44.7401" lon="0.47886">
        <ele>150.5</ele>
        <time>2023-07-14T07:26:03Z</time>
      </trkpt>
      <trkpt lat="44.74007" lon="0.47891">
        <ele>150.6</ele>
        <time>2023-07-14T07:26:05Z</time>
      </trkpt>
      <trkpt lat="44.74006" lon="0.47893">
        <ele>150.7</ele>
        <time>2023-07-14T07:26:06Z</time>
      </trkpt>
      <trkpt lat="44.74005" lon="0.47895">
        <ele>150.7</ele>
        <time>2023-07-14T07:26:07Z</time>
      </trkpt>
      <trkpt lat="44.74002" lon="0.47899">
        <ele>150.8</ele>
        <time>2023-07-14T07:26:09Z</time>
      </trkpt>
      <trkpt lat="44.73998" lon="0.47903">
        <ele>150.9</ele>
        <time>2023-07-14T07:26:11Z</time>
      </trkpt>
      <trkpt lat="44.73995" lon="0.47907">
        <ele>151</ele>
        <time>2023-07-14T07:26:13Z</time>
      </trkpt>
      <trkpt lat="44.73992" lon="0.47911">
        <ele>151.1</ele>
        <time>2023-07-14T07:26:15Z</time>
      </trkpt>
      <trkpt lat="44.7399" lon="0.47915">
        <ele>151.2</ele>
        <time>2023-07-14T07:26:17Z</time>
      </trkpt>
      <trkpt lat="44.73987" lon="0.4792">
        <ele>151.8</ele>
        <time>2023-07-14T07:26:19Z</time>
      </trkpt>
      <trkpt lat="44.73987" lon="0.47927">
        <ele>151.9</ele>
        <time>2023-07-14T07:26:21Z</time>
      </trkpt>
      <trkpt lat="44.73987" lon="0.47933">
        <ele>152.1</ele>
        <time>2023-07-14T07:26:23Z</time>
      </trkpt>
      <trkpt lat="44.73988" lon="0.47936">
        <ele>152.2</ele>
        <time>2023-07-14T07:26:24Z</time>
      </trkpt>
      <trkpt lat="44.73989" lon="0.47939">
        <ele>152.2</ele>
        <time>2023-07-14T07:26:25Z</time>
      </trkpt>
      <trkpt lat="44.7399" lon="0.47945">
        <ele>152.4</ele>
        <time>2023-07-14T07:26:27Z</time>
      </trkpt>
      <trkpt lat="44.73993" lon="0.47951">
        <ele>152.5</ele>
        <time>2023-07-14T07:26:29Z</time>
      </trkpt>
      <trkpt lat="44.73995" lon="0.47957">
        <ele>152.6</ele>
        <time>2023-07-14T07:26:31Z</time>
      </trkpt>
      <trkpt lat="44.73996" lon="0.47963">
        <ele>152.8</ele>
        <time>2023-07-14T07:26:33Z</time>
      </trkpt>
      <trkpt lat="44.73998" lon="0.47966">
        <ele>152.8</ele>
        <time>2023-07-14T07:26:34Z</time>
      </trkpt>
      <trkpt lat="44.73999" lon="0.47969">
        <ele>152.9</ele>
        <time>2023-07-14T07:26:35Z</time>
      </trkpt>
      <trkpt lat="44.74002" lon="0.47974">
        <ele>153.1</ele>
        <time>2023-07-14T07:26:37Z</time>
      </trkpt>
      <trkpt lat="44.74005" lon="0.47981">
        <ele>153.2</ele>
        <time>2023-07-14T07:26:39Z</time>
      </trkpt>
      <trkpt lat="44.74008" lon="0.47987">
        <ele>153.4</ele>
        <time>2023-07-14T07:26:41Z</time>
      </trkpt>
      <trkpt lat="44.7401" lon="0.4799">
        <ele>153.5</ele>
        <time>2023-07-14T07:26:42Z</time>
      </trkpt>
      <trkpt lat="44.74011" lon="0.47993">
        <ele>153.6</ele>
        <time>2023-07-14T07:26:43Z</time>
      </trkpt>
      <trkpt lat="44.74014" lon="0.47998">
        <ele>153.8</ele>
        <time>2023-07-14T07:26:45Z</time>
      </trkpt>
      <trkpt lat="44.74017" lon="0.48004">
        <ele>154</ele>
        <time>2023-07-14T07:26:47Z</time>
      </trkpt>
      <trkpt lat="44.7402" lon="0.4801">
        <ele>154.2</ele>
        <time>2023-07-14T07:26:49Z</time>
      </trkpt>
      <trkpt lat="44.74022" lon="0.48013">
        <ele>154.4</ele>
        <time>2023-07-14T07:26:50Z</time>
      </trkpt>
      <trkpt lat="44.74023" lon="0.48015">
        <ele>154.5</ele>
        <time>2023-07-14T07:26:51Z</time>
      </trkpt>
      <trkpt lat="44.74026" lon="0.48021">
        <ele>154.7</ele>
        <time>2023-07-14T07:26:53Z</time>
      </trkpt>
      <trkpt lat="44.7403" lon="0.48027">
        <ele>155</ele>
        <time>2023-07-14T07:26:55Z</time>
      </trkpt>
      <trkpt lat="44.74033" lon="0.48033">
        <ele>155.2</ele>
        <time>2023-07-14T07:26:57Z</time>
      </trkpt>
      <trkpt lat="44.74036" lon="0.48039">
        <ele>155.4</ele>
        <time>2023-07-14T07:26:59Z</time>
      </trkpt>
      <trkpt lat="44.74039" lon="0.48045">
        <ele>155.7</ele>
        <time>2023-07-14T07:27:01Z</time>
      </trkpt>
      <trkpt lat="44.74043" lon="0.4805">
        <ele>155.9</ele>
        <time>2023-07-14T07:27:03Z</time>
      </trkpt>
      <trkpt lat="44.74046" lon="0.48056">
        <ele>156.1</ele>
        <time>2023-07-14T07:27:05Z</time>
      </trkpt>
      <trkpt lat="44.74049" lon="0.48062">
        <ele>156.4</ele>
        <time>2023-07-14T07:27:07Z</time>
      </trkpt>
      <trkpt lat="44.74053" lon="0.48067">
        <ele>156.7</ele>
        <time>2023-07-14T07:27:09Z</time>
      </trkpt>
      <trkpt lat="44.74056" lon="0.48073">
        <ele>156.9</ele>
        <time>2023-07-14T07:27:11Z</time>
      </trkpt>
      <trkpt lat="44.7406" lon="0.48078">
        <ele>157.1</ele>
        <time>2023-07-14T07:27:13Z</time>
      </trkpt>
      <trkpt lat="44.74063" lon="0.48084">
        <ele>157.4</ele>
        <time>2023-07-14T07:27:15Z</time>
      </trkpt>
      <trkpt lat="44.74067" lon="0.4809">
        <ele>157.6</ele>
        <time>2023-07-14T07:27:17Z</time>
      </trkpt>
      <trkpt lat="44.74068" lon="0.48092">
        <ele>157.7</ele>
        <time>2023-07-14T07:27:18Z</time>
      </trkpt>
      <trkpt lat="44.7407" lon="0.48095">
        <ele>157.8</ele>
        <time>2023-07-14T07:27:19Z</time>
      </trkpt>
      <trkpt lat="44.74073" lon="0.481">
        <ele>158</ele>
        <time>2023-07-14T07:27:21Z</time>
      </trkpt>
      <trkpt lat="44.74077" lon="0.48106">
        <ele>158.2</ele>
        <time>2023-07-14T07:27:23Z</time>
      </trkpt>
      <trkpt lat="44.7408" lon="0.48112">
        <ele>158.5</ele>
        <time>2023-07-14T07:27:25Z</time>
      </trkpt>
      <trkpt lat="44.74084" lon="0.48117">
        <ele>158.8</ele>
        <time>2023-07-14T07:27:27Z</time>
      </trkpt>
      <trkpt lat="44.74087" lon="0.48123">
        <ele>159.1</ele>
        <time>2023-07-14T07:27:29Z</time>
      </trkpt>
      <trkpt lat="44.74092" lon="0.48128">
        <ele>159.4</ele>
        <time>2023-07-14T07:27:31Z</time>
      </trkpt>
      <trkpt lat="44.74096" lon="0.48134">
        <ele>159.7</ele>
        <time>2023-07-14T07:27:33Z</time>
      </trkpt>
      <trkpt lat="44.74097" lon="0.48137">
        <ele>159.9</ele>
        <time>2023-07-14T07:27:34Z</time>
      </trkpt>
      <trkpt lat="44.74099" lon="0.4814">
        <ele>160</ele>
        <time>2023-07-14T07:27:35Z</time>
      </trkpt>
      <trkpt lat="44.74103" lon="0.48147">
        <ele>160.2</ele>
        <time>2023-07-14T07:27:37Z</time>
      </trkpt>
      <trkpt lat="44.74108" lon="0.48154">
        <ele>160.4</ele>
        <time>2023-07-14T07:27:39Z</time>
      </trkpt>
      <trkpt lat="44.74112" lon="0.48161">
        <ele>160.6</ele>
        <time>2023-07-14T07:27:41Z</time>
      </trkpt>
      <trkpt lat="44.74116" lon="0.48167">
        <ele>160.7</ele>
        <time>2023-07-14T07:27:43Z</time>
      </trkpt>
      <trkpt lat="44.74118" lon="0.48171">
        <ele>160.8</ele>
        <time>2023-07-14T07:27:44Z</time>
      </trkpt>
      <trkpt lat="44.74121" lon="0.48174">
        <ele>160.8</ele>
        <time>2023-07-14T07:27:45Z</time>
      </trkpt>
      <trkpt lat="44.74125" lon="0.48181">
        <ele>161</ele>
        <time>2023-07-14T07:27:47Z</time>
      </trkpt>
      <trkpt lat="44.74129" lon="0.48187">
        <ele>161.2</ele>
        <time>2023-07-14T07:27:49Z</time>
      </trkpt>
      <trkpt lat="44.74134" lon="0.48194">
        <ele>161.3</ele>
        <time>2023-07-14T07:27:51Z</time>
      </trkpt>
      <trkpt lat="44.74138" lon="0.482">
        <ele>161.5</ele>
        <time>2023-07-14T07:27:53Z</time>
      </trkpt>
      <trkpt lat="44.74142" lon="0.48207">
        <ele>161.6</ele>
        <time>2023-07-14T07:27:55Z</time>
      </trkpt>
      <trkpt lat="44.74147" lon="0.48213">
        <ele>161.7</ele>
        <time>2023-07-14T07:27:57Z</time>
      </trkpt>
      <trkpt lat="44.74151" lon="0.48219">
        <ele>161.8</ele>
        <time>2023-07-14T07:27:59Z</time>
      </trkpt>
      <trkpt lat="44.74156" lon="0.48226">
        <ele>161.9</ele>
        <time>2023-07-14T07:28:01Z</time>
      </trkpt>
      <trkpt lat="44.74158" lon="0.48229">
        <ele>162</ele>
        <time>2023-07-14T07:28:02Z</time>
      </trkpt>
      <trkpt lat="44.74161" lon="0.48232">
        <ele>162.1</ele>
        <time>2023-07-14T07:28:03Z</time>
      </trkpt>
      <trkpt lat="44.74166" lon="0.48239">
        <ele>162.3</ele>
        <time>2023-07-14T07:28:05Z</time>
      </trkpt>
      <trkpt lat="44.7417" lon="0.48246">
        <ele>162.5</ele>
        <time>2023-07-14T07:28:07Z</time>
      </trkpt>
      <trkpt lat="44.74174" lon="0.48254">
        <ele>162.6</ele>
        <time>2023-07-14T07:28:09Z</time>
      </trkpt>
      <trkpt lat="44.74175" lon="0.48259">
        <ele>162.7</ele>
        <time>2023-07-14T07:28:10Z</time>
      </trkpt>
      <trkpt lat="44.74175" lon="0.48264">
        <ele>162.7</ele>
        <time>2023-07-14T07:28:11Z</time>
      </trkpt>
      <trkpt lat="44.74172" lon="0.48272">
        <ele>162.9</ele>
        <time>2023-07-14T07:28:13Z</time>
      </trkpt>
      <trkpt lat="44.74171" lon="0.48275">
        <ele>163</ele>
        <time>2023-07-14T07:28:14Z</time>
      </trkpt>
      <trkpt lat="44.74168" lon="0.48279">
        <ele>163.2</ele>
        <time>2023-07-14T07:28:15Z</time>
      </trkpt>
      <trkpt lat="44.74164" lon="0.48286">
        <ele>163.5</ele>
        <time>2023-07-14T07:28:17Z</time>
      </trkpt>
      <trkpt lat="44.74161" lon="0.48293">
        <ele>163.7</ele>
        <time>2023-07-14T07:28:19Z</time>
      </trkpt>
      <trkpt lat="44.74158" lon="0.483">
        <ele>163.8</ele>
        <time>2023-07-14T07:28:21Z</time>
      </trkpt>
      <trkpt lat="44.74158" lon="0.48304">
        <ele>163.9</ele>
        <time>2023-07-14T07:28:22Z</time>
      </trkpt>
      <trkpt lat="44.74159" lon="0.48309">
        <ele>164</ele>
        <time>2023-07-14T07:28:23Z</time>
      </trkpt>
      <trkpt lat="44.74162" lon="0.48315">
        <ele>164</ele>
        <time>2023-07-14T07:28:25Z</time>
      </trkpt>
      <trkpt lat="44.74168" lon="0.4832">
        <ele>163.9</ele>
        <time>2023-07-14T07:28:27Z</time>
      </trkpt>
      <trkpt lat="44.74174" lon="0.48326">
        <ele>163.9</ele>
        <time>2023-07-14T07:28:29Z</time>
      </trkpt>
      <trkpt lat="44.7418" lon="0.48332">
        <ele>163.9</ele>
        <time>2023-07-14T07:28:31Z</time>
      </trkpt>
      <trkpt lat="44.74187" lon="0.4834">
        <ele>163.9</ele>
        <time>2023-07-14T07:28:33Z</time>
      </trkpt>
      <trkpt lat="44.74191" lon="0.48343">
        <ele>163.9</ele>
        <time>2023-07-14T07:28:34Z</time>
      </trkpt>
      <trkpt lat="44.74194" lon="0.48347">
        <ele>163.9</ele>
        <time>2023-07-14T07:28:35Z</time>
      </trkpt>
      <trkpt lat="44.742" lon="0.48356">
        <ele>163.9</ele>
        <time>2023-07-14T07:28:37Z</time>
      </trkpt>
      <trkpt lat="44.74206" lon="0.48366">
        <ele>163.8</ele>
        <time>2023-07-14T07:28:39Z</time>
      </trkpt>
      <trkpt lat="44.74212" lon="0.48375">
        <ele>163.6</ele>
        <time>2023-07-14T07:28:41Z</time>
      </trkpt>
      <trkpt lat="44.74218" lon="0.48384">
        <ele>163.4</ele>
        <time>2023-07-14T07:28:43Z</time>
      </trkpt>
      <trkpt lat="44.74222" lon="0.48387">
        <ele>163.3</ele>
        <time>2023-07-14T07:28:44Z</time>
      </trkpt>
      <trkpt lat="44.74225" lon="0.48386">
        <ele>163.1</ele>
        <time>2023-07-14T07:28:45Z</time>
      </trkpt>
      <trkpt lat="44.74228" lon="0.48383">
        <ele>163</ele>
        <time>2023-07-14T07:28:46Z</time>
      </trkpt>
      <trkpt lat="44.74231" lon="0.48379">
        <ele>162.9</ele>
        <time>2023-07-14T07:28:47Z</time>
      </trkpt>
      <trkpt lat="44.74234" lon="0.48374">
        <ele>162.8</ele>
        <time>2023-07-14T07:28:48Z</time>
      </trkpt>
      <trkpt lat="44.74237" lon="0.4837">
        <ele>162.5</ele>
        <time>2023-07-14T07:28:49Z</time>
      </trkpt>
      <trkpt lat="44.74245" lon="0.4836">
        <ele>161.7</ele>
        <time>2023-07-14T07:28:51Z</time>
      </trkpt>
      <trkpt lat="44.74249" lon="0.48356">
        <ele>161.4</ele>
        <time>2023-07-14T07:28:52Z</time>
      </trkpt>
      <trkpt lat="44.74253" lon="0.48351">
        <ele>161</ele>
        <time>2023-07-14T07:28:53Z</time>
      </trkpt>
      <trkpt lat="44.74255" lon="0.48346">
        <ele>160.7</ele>
        <time>2023-07-14T07:28:54Z</time>
      </trkpt>
      <trkpt lat="44.74257" lon="0.48341">
        <ele>160.3</ele>
        <time>2023-07-14T07:28:55Z</time>
      </trkpt>
      <trkpt lat="44.74264" lon="0.4833">
        <ele>159.1</ele>
        <time>2023-07-14T07:28:57Z</time>
      </trkpt>
      <trkpt lat="44.74268" lon="0.48324">
        <ele>158.8</ele>
        <time>2023-07-14T07:28:58Z</time>
      </trkpt>
      <trkpt lat="44.74272" lon="0.48319">
        <ele>158.3</ele>
        <time>2023-07-14T07:28:59Z</time>
      </trkpt>
      <trkpt lat="44.74275" lon="0.48313">
        <ele>157.8</ele>
        <time>2023-07-14T07:29:00Z</time>
      </trkpt>
      <trkpt lat="44.74278" lon="0.48307">
        <ele>157.4</ele>
        <time>2023-07-14T07:29:01Z</time>
      </trkpt>
      <trkpt lat="44.74282" lon="0.48302">
        <ele>157.1</ele>
        <time>2023-07-14T07:29:02Z</time>
      </trkpt>
      <trkpt lat="44.74285" lon="0.48296">
        <ele>156.6</ele>
        <time>2023-07-14T07:29:03Z</time>
      </trkpt>
      <trkpt lat="44.74293" lon="0.48284">
        <ele>156</ele>
        <time>2023-07-14T07:29:05Z</time>
      </trkpt>
      <trkpt lat="44.74297" lon="0.48277">
        <ele>155.5</ele>
        <time>2023-07-14T07:29:06Z</time>
      </trkpt>
      <trkpt lat="44.74301" lon="0.4827">
        <ele>155.1</ele>
        <time>2023-07-14T07:29:07Z</time>
      </trkpt>
      <trkpt lat="44.74309" lon="0.48255">
        <ele>154.1</ele>
        <time>2023-07-14T07:29:09Z</time>
      </trkpt>
      <trkpt lat="44.74322" lon="0.48239">
        <ele>152.7</ele>
        <time>2023-07-14T07:29:11Z</time>
      </trkpt>
      <trkpt lat="44.74336" lon="0.48221">
        <ele>151</ele>
        <time>2023-07-14T07:29:13Z</time>
      </trkpt>
      <trkpt lat="44.74351" lon="0.48203">
        <ele>149.6</ele>
        <time>2023-07-14T07:29:15Z</time>
      </trkpt>
      <trkpt lat="44.74358" lon="0.48196">
        <ele>149</ele>
        <time>2023-07-14T07:29:16Z</time>
      </trkpt>
      <trkpt lat="44.74365" lon="0.48189">
        <ele>148.5</ele>
        <time>2023-07-14T07:29:17Z</time>
      </trkpt>
      <trkpt lat="44.74377" lon="0.48173">
        <ele>147.7</ele>
        <time>2023-07-14T07:29:19Z</time>
      </trkpt>
      <trkpt lat="44.74382" lon="0.48165">
        <ele>147.4</ele>
        <time>2023-07-14T07:29:20Z</time>
      </trkpt>
      <trkpt lat="44.74387" lon="0.48157">
        <ele>147.1</ele>
        <time>2023-07-14T07:29:21Z</time>
      </trkpt>
      <trkpt lat="44.74392" lon="0.48151">
        <ele>146.8</ele>
        <time>2023-07-14T07:29:22Z</time>
      </trkpt>
      <trkpt lat="44.74398" lon="0.48144">
        <ele>146.6</ele>
        <time>2023-07-14T07:29:23Z</time>
      </trkpt>
      <trkpt lat="44.74403" lon="0.48136">
        <ele>146.3</ele>
        <time>2023-07-14T07:29:24Z</time>
      </trkpt>
      <trkpt lat="44.74409" lon="0.48129">
        <ele>146</ele>
        <time>2023-07-14T07:29:25Z</time>
      </trkpt>
      <trkpt lat="44.74419" lon="0.48114">
        <ele>145.5</ele>
        <time>2023-07-14T07:29:27Z</time>
      </trkpt>
      <trkpt lat="44.74423" lon="0.48108">
        <ele>145.3</ele>
        <time>2023-07-14T07:29:28Z</time>
      </trkpt>
      <trkpt lat="44.74428" lon="0.48102">
        <ele>145.2</ele>
        <time>2023-07-14T07:29:29Z</time>
      </trkpt>
      <trkpt lat="44.74437" lon="0.48091">
        <ele>145.1</ele>
        <time>2023-07-14T07:29:31Z</time>
      </trkpt>
      <trkpt lat="44.74446" lon="0.4808">
        <ele>144.8</ele>
        <time>2023-07-14T07:29:33Z</time>
      </trkpt>
      <trkpt lat="44.74454" lon="0.48068">
        <ele>144.4</ele>
        <time>2023-07-14T07:29:35Z</time>
      </trkpt>
      <trkpt lat="44.74463" lon="0.48055">
        <ele>144</ele>
        <time>2023-07-14T07:29:37Z</time>
      </trkpt>
      <trkpt lat="44.74468" lon="0.48049">
        <ele>143.9</ele>
        <time>2023-07-14T07:29:38Z</time>
      </trkpt>
      <trkpt lat="44.74472" lon="0.48042">
        <ele>143.6</ele>
        <time>2023-07-14T07:29:39Z</time>
      </trkpt>
      <trkpt lat="44.74478" lon="0.48034">
        <ele>143.2</ele>
        <time>2023-07-14T07:29:40Z</time>
      </trkpt>
      <trkpt lat="44.74483" lon="0.48027">
        <ele>142.9</ele>
        <time>2023-07-14T07:29:41Z</time>
      </trkpt>
      <trkpt lat="44.74489" lon="0.48019">
        <ele>142.4</ele>
        <time>2023-07-14T07:29:42Z</time>
      </trkpt>
      <trkpt lat="44.74495" lon="0.48013">
        <ele>141.8</ele>
        <time>2023-07-14T07:29:43Z</time>
      </trkpt>
      <trkpt lat="44.74504" lon="0.48002">
        <ele>141.1</ele>
        <time>2023-07-14T07:29:45Z</time>
      </trkpt>
      <trkpt lat="44.74514" lon="0.47992">
        <ele>140</ele>
        <time>2023-07-14T07:29:47Z</time>
      </trkpt>
      <trkpt lat="44.74519" lon="0.4799">
        <ele>139.9</ele>
        <time>2023-07-14T07:29:48Z</time>
      </trkpt>
      <trkpt lat="44.74525" lon="0.47987">
        <ele>139.4</ele>
        <time>2023-07-14T07:29:49Z</time>
      </trkpt>
      <trkpt lat="44.74537" lon="0.47983">
        <ele>138.7</ele>
        <time>2023-07-14T07:29:51Z</time>
      </trkpt>
      <trkpt lat="44.74544" lon="0.47982">
        <ele>138.5</ele>
        <time>2023-07-14T07:29:52Z</time>
      </trkpt>
      <trkpt lat="44.74551" lon="0.47982">
        <ele>138.3</ele>
        <time>2023-07-14T07:29:53Z</time>
      </trkpt>
      <trkpt lat="44.74564" lon="0.47982">
        <ele>137.6</ele>
        <time>2023-07-14T07:29:55Z</time>
      </trkpt>
      <trkpt lat="44.7457" lon="0.4798">
        <ele>137.5</ele>
        <time>2023-07-14T07:29:56Z</time>
      </trkpt>
      <trkpt lat="44.74576" lon="0.47976">
        <ele>137</ele>
        <time>2023-07-14T07:29:57Z</time>
      </trkpt>
      <trkpt lat="44.74589" lon="0.47964">
        <ele>135.6</ele>
        <time>2023-07-14T07:29:59Z</time>
      </trkpt>
      <trkpt lat="44.74603" lon="0.47949">
        <ele>133.9</ele>
        <time>2023-07-14T07:30:01Z</time>
      </trkpt>
      <trkpt lat="44.74611" lon="0.47943">
        <ele>133.4</ele>
        <time>2023-07-14T07:30:02Z</time>
      </trkpt>
      <trkpt lat="44.74618" lon="0.47938">
        <ele>132.9</ele>
        <time>2023-07-14T07:30:03Z</time>
      </trkpt>
      <trkpt lat="44.74635" lon="0.47929">
        <ele>131.9</ele>
        <time>2023-07-14T07:30:05Z</time>
      </trkpt>
      <trkpt lat="44.74651" lon="0.47922">
        <ele>131.1</ele>
        <time>2023-07-14T07:30:07Z</time>
      </trkpt>
      <trkpt lat="44.74657" lon="0.47919">
        <ele>130.8</ele>
        <time>2023-07-14T07:30:08Z</time>
      </trkpt>
      <trkpt lat="44.74662" lon="0.47917">
        <ele>130.7</ele>
        <time>2023-07-14T07:30:09Z</time>
      </trkpt>
      <trkpt lat="44.74672" lon="0.47915">
        <ele>130.6</ele>
        <time>2023-07-14T07:30:11Z</time>
      </trkpt>
      <trkpt lat="44.74676" lon="0.47919">
        <ele>130.4</ele>
        <time>2023-07-14T07:30:12Z</time>
      </trkpt>
      <trkpt lat="44.74679" lon="0.47924">
        <ele>130.2</ele>
        <time>2023-07-14T07:30:13Z</time>
      </trkpt>
      <trkpt lat="44.74684" lon="0.47937">
        <ele>129.9</ele>
        <time>2023-07-14T07:30:15Z</time>
      </trkpt>
      <trkpt lat="44.74686" lon="0.47944">
        <ele>129.8</ele>
        <time>2023-07-14T07:30:16Z</time>
      </trkpt>
      <trkpt lat="44.74687" lon="0.47952">
        <ele>129.7</ele>
        <time>2023-07-14T07:30:17Z</time>
      </trkpt>
      <trkpt lat="44.74688" lon="0.47967">
        <ele>129.4</ele>
        <time>2023-07-14T07:30:19Z</time>
      </trkpt>
      <trkpt lat="44.74689" lon="0.47983">
        <ele>129.1</ele>
        <time>2023-07-14T07:30:21Z</time>
      </trkpt>
      <trkpt lat="44.7469" lon="0.4799">
        <ele>129</ele>
        <time>2023-07-14T07:30:22Z</time>
      </trkpt>
      <trkpt lat="44.7469" lon="0.47998">
        <ele>128.9</ele>
        <time>2023-07-14T07:30:23Z</time>
      </trkpt>
      <trkpt lat="44.74691" lon="0.48013">
        <ele>128.7</ele>
        <time>2023-07-14T07:30:25Z</time>
      </trkpt>
      <trkpt lat="44.74692" lon="0.48028">
        <ele>128.5</ele>
        <time>2023-07-14T07:30:27Z</time>
      </trkpt>
      <trkpt lat="44.74692" lon="0.48043">
        <ele>128.4</ele>
        <time>2023-07-14T07:30:29Z</time>
      </trkpt>
      <trkpt lat="44.74692" lon="0.48051">
        <ele>128.5</ele>
        <time>2023-07-14T07:30:30Z</time>
      </trkpt>
      <trkpt lat="44.74693" lon="0.48058">
        <ele>128.5</ele>
        <time>2023-07-14T07:30:31Z</time>
      </trkpt>
      <trkpt lat="44.74693" lon="0.48074">
        <ele>128.5</ele>
        <time>2023-07-14T07:30:33Z</time>
      </trkpt>
      <trkpt lat="44.74694" lon="0.48089">
        <ele>128.6</ele>
        <time>2023-07-14T07:30:35Z</time>
      </trkpt>
      <trkpt lat="44.74695" lon="0.48104">
        <ele>128.6</ele>
        <time>2023-07-14T07:30:37Z</time>
      </trkpt>
      <trkpt lat="44.74696" lon="0.48111">
        <ele>128.6</ele>
        <time>2023-07-14T07:30:38Z</time>
      </trkpt>
      <trkpt lat="44.74696" lon="0.48118">
        <ele>128.6</ele>
        <time>2023-07-14T07:30:39Z</time>
      </trkpt>
      <trkpt lat="44.74697" lon="0.48131">
        <ele>128.7</ele>
        <time>2023-07-14T07:30:41Z</time>
      </trkpt>
      <trkpt lat="44.74698" lon="0.48143">
        <ele>128.7</ele>
        <time>2023-07-14T07:30:43Z</time>
      </trkpt>
      <trkpt lat="44.74699" lon="0.48149">
        <ele>128.7</ele>
        <time>2023-07-14T07:30:44Z</time>
      </trkpt>
      <trkpt lat="44.74699" lon="0.48155">
        <ele>128.8</ele>
        <time>2023-07-14T07:30:45Z</time>
      </trkpt>
      <trkpt lat="44.747" lon="0.48168">
        <ele>128.8</ele>
        <time>2023-07-14T07:30:47Z</time>
      </trkpt>
      <trkpt lat="44.74701" lon="0.48182">
        <ele>128.8</ele>
        <time>2023-07-14T07:30:49Z</time>
      </trkpt>
      <trkpt lat="44.74701" lon="0.48196">
        <ele>128.8</ele>
        <time>2023-07-14T07:30:51Z</time>
      </trkpt>
      <trkpt lat="44.74702" lon="0.48203">
        <ele>128.8</ele>
        <time>2023-07-14T07:30:52Z</time>
      </trkpt>
      <trkpt lat="44.74702" lon="0.4821">
        <ele>128.9</ele>
        <time>2023-07-14T07:30:53Z</time>
      </trkpt>
      <trkpt lat="44.74703" lon="0.48225">
        <ele>128.8</ele>
        <time>2023-07-14T07:30:55Z</time>
      </trkpt>
      <trkpt lat="44.74703" lon="0.4824">
        <ele>128.8</ele>
        <time>2023-07-14T07:30:57Z</time>
      </trkpt>
      <trkpt lat="44.74705" lon="0.48255">
        <ele>128.7</ele>
        <time>2023-07-14T07:30:59Z</time>
      </trkpt>
      <trkpt lat="44.74706" lon="0.48262">
        <ele>128.7</ele>
        <time>2023-07-14T07:31:00Z</time>
      </trkpt>
      <trkpt lat="44.74708" lon="0.48269">
        <ele>128.6</ele>
        <time>2023-07-14T07:31:01Z</time>
      </trkpt>
      <trkpt lat="44.74712" lon="0.48283">
        <ele>128.6</ele>
        <time>2023-07-14T07:31:03Z</time>
      </trkpt>
      <trkpt lat="44.74718" lon="0.48297">
        <ele>128.4</ele>
        <time>2023-07-14T07:31:05Z</time>
      </trkpt>
      <trkpt lat="44.74725" lon="0.4831">
        <ele>128.3</ele>
        <time>2023-07-14T07:31:07Z</time>
      </trkpt>
      <trkpt lat="44.74732" lon="0.48322">
        <ele>128.2</ele>
        <time>2023-07-14T07:31:09Z</time>
      </trkpt>
      <trkpt lat="44.74738" lon="0.48335">
        <ele>128.1</ele>
        <time>2023-07-14T07:31:11Z</time>
      </trkpt>
      <trkpt lat="44.74741" lon="0.4834">
        <ele>128.1</ele>
        <time>2023-07-14T07:31:12Z</time>
      </trkpt>
      <trkpt lat="44.74742" lon="0.48345">
        <ele>128.2</ele>
        <time>2023-07-14T07:31:13Z</time>
      </trkpt>
      <trkpt lat="44.7474" lon="0.48349">
        <ele>128.2</ele>
        <time>2023-07-14T07:31:14Z</time>
      </trkpt>
      <trkpt lat="44.74738" lon="0.48352">
        <ele>128.3</ele>
        <time>2023-07-14T07:31:15Z</time>
      </trkpt>
      <trkpt lat="44.74732" lon="0.48357">
        <ele>128.5</ele>
        <time>2023-07-14T07:31:17Z</time>
      </trkpt>
      <trkpt lat="44.74729" lon="0.48359">
        <ele>128.6</ele>
        <time>2023-07-14T07:31:18Z</time>
      </trkpt>
      <trkpt lat="44.74726" lon="0.48362">
        <ele>128.8</ele>
        <time>2023-07-14T07:31:19Z</time>
      </trkpt>
      <trkpt lat="44.74721" lon="0.48367">
        <ele>129.1</ele>
        <time>2023-07-14T07:31:21Z</time>
      </trkpt>
      <trkpt lat="44.74715" lon="0.48372">
        <ele>129.5</ele>
        <time>2023-07-14T07:31:23Z</time>
      </trkpt>
      <trkpt lat="44.74709" lon="0.48376">
        <ele>129.8</ele>
        <time>2023-07-14T07:31:25Z</time>
      </trkpt>
      <trkpt lat="44.74706" lon="0.48379">
        <ele>130</ele>
        <time>2023-07-14T07:31:26Z</time>
      </trkpt>
      <trkpt lat="44.74704" lon="0.48381">
        <ele>130.1</ele>
        <time>2023-07-14T07:31:27Z</time>
      </trkpt>
      <trkpt lat="44.74698" lon="0.48386">
        <ele>130.3</ele>
        <time>2023-07-14T07:31:29Z</time>
      </trkpt>
      <trkpt lat="44.74693" lon="0.4839">
        <ele>130.6</ele>
        <time>2023-07-14T07:31:31Z</time>
      </trkpt>
      <trkpt lat="44.74687" lon="0.48395">
        <ele>130.9</ele>
        <time>2023-07-14T07:31:33Z</time>
      </trkpt>
      <trkpt lat="44.74681" lon="0.48399">
        <ele>131.2</ele>
        <time>2023-07-14T07:31:35Z</time>
      </trkpt>
      <trkpt lat="44.74678" lon="0.48401">
        <ele>131.4</ele>
        <time>2023-07-14T07:31:36Z</time>
      </trkpt>
      <trkpt lat="44.74676" lon="0.48403">
        <ele>131.5</ele>
        <time>2023-07-14T07:31:37Z</time>
      </trkpt>
      <trkpt lat="44.7467" lon="0.48407">
        <ele>131.9</ele>
        <time>2023-07-14T07:31:39Z</time>
      </trkpt>
      <trkpt lat="44.74664" lon="0.48411">
        <ele>132.1</ele>
        <time>2023-07-14T07:31:41Z</time>
      </trkpt>
      <trkpt lat="44.74661" lon="0.48414">
        <ele>132.6</ele>
        <time>2023-07-14T07:31:43Z</time>
      </trkpt>
      <trkpt lat="44.74659" lon="0.48415">
        <ele>132.6</ele>
        <time>2023-07-14T07:31:44Z</time>
      </trkpt>
      <trkpt lat="44.74657" lon="0.48415">
        <ele>132.7</ele>
        <time>2023-07-14T07:31:45Z</time>
      </trkpt>
      <trkpt lat="44.74653" lon="0.48416">
        <ele>132.9</ele>
        <time>2023-07-14T07:31:47Z</time>
      </trkpt>
      <trkpt lat="44.74649" lon="0.48417">
        <ele>133.1</ele>
        <time>2023-07-14T07:31:49Z</time>
      </trkpt>
      <trkpt lat="44.74643" lon="0.48418">
        <ele>133.4</ele>
        <time>2023-07-14T07:31:51Z</time>
      </trkpt>
      <trkpt lat="44.74637" lon="0.4842">
        <ele>133.7</ele>
        <time>2023-07-14T07:31:53Z</time>
      </trkpt>
      <trkpt lat="44.74635" lon="0.4842">
        <ele>133.8</ele>
        <time>2023-07-14T07:31:54Z</time>
      </trkpt>
      <trkpt lat="44.74632" lon="0.48421">
        <ele>133.9</ele>
        <time>2023-07-14T07:31:55Z</time>
      </trkpt>
      <trkpt lat="44.74628" lon="0.48423">
        <ele>134.1</ele>
        <time>2023-07-14T07:31:57Z</time>
      </trkpt>
      <trkpt lat="44.74624" lon="0.48425">
        <ele>134.3</ele>
        <time>2023-07-14T07:31:59Z</time>
      </trkpt>
      <trkpt lat="44.74621" lon="0.48427">
        <ele>134.6</ele>
        <time>2023-07-14T07:32:01Z</time>
      </trkpt>
      <trkpt lat="44.74618" lon="0.48428">
        <ele>134.7</ele>
        <time>2023-07-14T07:32:03Z</time>
      </trkpt>
      <trkpt lat="44.74614" lon="0.4843">
        <ele>135</ele>
        <time>2023-07-14T07:32:05Z</time>
      </trkpt>
      <trkpt lat="44.74613" lon="0.48431">
        <ele>134.9</ele>
        <time>2023-07-14T07:32:06Z</time>
      </trkpt>
      <trkpt lat="44.74611" lon="0.48432">
        <ele>135.1</ele>
        <time>2023-07-14T07:32:07Z</time>
      </trkpt>
      <trkpt lat="44.74605" lon="0.48434">
        <ele>135.3</ele>
        <time>2023-07-14T07:32:09Z</time>
      </trkpt>
      <trkpt lat="44.74601" lon="0.48435">
        <ele>135.6</ele>
        <time>2023-07-14T07:32:11Z</time>
      </trkpt>
      <trkpt lat="44.74597" lon="0.48438">
        <ele>135.8</ele>
        <time>2023-07-14T07:32:13Z</time>
      </trkpt>
      <trkpt lat="44.74593" lon="0.48441">
        <ele>136</ele>
        <time>2023-07-14T07:32:15Z</time>
      </trkpt>
      <trkpt lat="44.74588" lon="0.48443">
        <ele>136.3</ele>
        <time>2023-07-14T07:32:17Z</time>
      </trkpt>
      <trkpt lat="44.74584" lon="0.48446">
        <ele>136.6</ele>
        <time>2023-07-14T07:32:19Z</time>
      </trkpt>
      <trkpt lat="44.74583" lon="0.48447">
        <ele>136.6</ele>
        <time>2023-07-14T07:32:20Z</time>
      </trkpt>
      <trkpt lat="44.74581" lon="0.48448">
        <ele>137</ele>
        <time>2023-07-14T07:32:21Z</time>
      </trkpt>
      <trkpt lat="44.74577" lon="0.48452">
        <ele>137.4</ele>
        <time>2023-07-14T07:32:23Z</time>
      </trkpt>
      <trkpt lat="44.74574" lon="0.48455">
        <ele>137.6</ele>
        <time>2023-07-14T07:32:25Z</time>
      </trkpt>
      <trkpt lat="44.7457" lon="0.4846">
        <ele>138</ele>
        <time>2023-07-14T07:32:27Z</time>
      </trkpt>
      <trkpt lat="44.74566" lon="0.48463">
        <ele>138.5</ele>
        <time>2023-07-14T07:32:29Z</time>
      </trkpt>
      <trkpt lat="44.74563" lon="0.48466">
        <ele>138.9</ele>
        <time>2023-07-14T07:32:31Z</time>
      </trkpt>
      <trkpt lat="44.7456" lon="0.4847">
        <ele>139.3</ele>
        <time>2023-07-14T07:32:33Z</time>
      </trkpt>
      <trkpt lat="44.74556" lon="0.48474">
        <ele>139.7</ele>
        <time>2023-07-14T07:32:35Z</time>
      </trkpt>
      <trkpt lat="44.74552" lon="0.48478">
        <ele>140.1</ele>
        <time>2023-07-14T07:32:37Z</time>
      </trkpt>
      <trkpt lat="44.74549" lon="0.48483">
        <ele>140.5</ele>
        <time>2023-07-14T07:32:39Z</time>
      </trkpt>
      <trkpt lat="44.74547" lon="0.48487">
        <ele>140.9</ele>
        <time>2023-07-14T07:32:41Z</time>
      </trkpt>
      <trkpt lat="44.74544" lon="0.48491">
        <ele>141.3</ele>
        <time>2023-07-14T07:32:43Z</time>
      </trkpt>
      <trkpt lat="44.74542" lon="0.48492">
        <ele>141.4</ele>
        <time>2023-07-14T07:32:44Z</time>
      </trkpt>
      <trkpt lat="44.74541" lon="0.48494">
        <ele>141.4</ele>
        <time>2023-07-14T07:32:45Z</time>
      </trkpt>
      <trkpt lat="44.74538" lon="0.48498">
        <ele>141.8</ele>
        <time>2023-07-14T07:32:47Z</time>
      </trkpt>
      <trkpt lat="44.74533" lon="0.48501">
        <ele>142.2</ele>
        <time>2023-07-14T07:32:49Z</time>
      </trkpt>
      <trkpt lat="44.74529" lon="0.48504">
        <ele>142.7</ele>
        <time>2023-07-14T07:32:51Z</time>
      </trkpt>
      <trkpt lat="44.74526" lon="0.48508">
        <ele>143.1</ele>
        <time>2023-07-14T07:32:53Z</time>
      </trkpt>
      <trkpt lat="44.74525" lon="0.48511">
        <ele>143.1</ele>
        <time>2023-07-14T07:32:54Z</time>
      </trkpt>
      <trkpt lat="44.74524" lon="0.48513">
        <ele>143.3</ele>
        <time>2023-07-14T07:32:55Z</time>
      </trkpt>
      <trkpt lat="44.7452" lon="0.48515">
        <ele>143.5</ele>
        <time>2023-07-14T07:32:57Z</time>
      </trkpt>
      <trkpt lat="44.74518" lon="0.48517">
        <ele>143.8</ele>
        <time>2023-07-14T07:32:58Z</time>
      </trkpt>
      <trkpt lat="44.74517" lon="0.48519">
        <ele>143.8</ele>
        <time>2023-07-14T07:32:59Z</time>
      </trkpt>
      <trkpt lat="44.74513" lon="0.48523">
        <ele>144.1</ele>
        <time>2023-07-14T07:33:01Z</time>
      </trkpt>
      <trkpt lat="44.74509" lon="0.48527">
        <ele>144.4</ele>
        <time>2023-07-14T07:33:03Z</time>
      </trkpt>
      <trkpt lat="44.74505" lon="0.4853">
        <ele>144.9</ele>
        <time>2023-07-14T07:33:05Z</time>
      </trkpt>
      <trkpt lat="44.74501" lon="0.48534">
        <ele>145.3</ele>
        <time>2023-07-14T07:33:07Z</time>
      </trkpt>
      <trkpt lat="44.74497" lon="0.48538">
        <ele>145.6</ele>
        <time>2023-07-14T07:33:09Z</time>
      </trkpt>
      <trkpt lat="44.74495" lon="0.48539">
        <ele>145.8</ele>
        <time>2023-07-14T07:33:10Z</time>
      </trkpt>
      <trkpt lat="44.74493" lon="0.48538">
        <ele>146</ele>
        <time>2023-07-14T07:33:11Z</time>
      </trkpt>
      <trkpt lat="44.74489" lon="0.48539">
        <ele>146.2</ele>
        <time>2023-07-14T07:33:13Z</time>
      </trkpt>
      <trkpt lat="44.74481" lon="0.48544">
        <ele>147.2</ele>
        <time>2023-07-14T07:33:15Z</time>
      </trkpt>
      <trkpt lat="44.74473" lon="0.48549">
        <ele>148.1</ele>
        <time>2023-07-14T07:33:17Z</time>
      </trkpt>
      <trkpt lat="44.7447" lon="0.48551">
        <ele>148.6</ele>
        <time>2023-07-14T07:33:18Z</time>
      </trkpt>
      <trkpt lat="44.74466" lon="0.48553">
        <ele>149.3</ele>
        <time>2023-07-14T07:33:19Z</time>
      </trkpt>
      <trkpt lat="44.7446" lon="0.48558">
        <ele>150.1</ele>
        <time>2023-07-14T07:33:21Z</time>
      </trkpt>
      <trkpt lat="44.74454" lon="0.48561">
        <ele>150.4</ele>
        <time>2023-07-14T07:33:23Z</time>
      </trkpt>
      <trkpt lat="44.74449" lon="0.48564">
        <ele>151</ele>
        <time>2023-07-14T07:33:25Z</time>
      </trkpt>
      <trkpt lat="44.74444" lon="0.48569">
        <ele>151.6</ele>
        <time>2023-07-14T07:33:27Z</time>
      </trkpt>
      <trkpt lat="44.74442" lon="0.4857">
        <ele>151.6</ele>
        <time>2023-07-14T07:33:28Z</time>
      </trkpt>
      <trkpt lat="44.74439" lon="0.48572">
        <ele>151.9</ele>
        <time>2023-07-14T07:33:29Z</time>
      </trkpt>
      <trkpt lat="44.74434" lon="0.48578">
        <ele>152.5</ele>
        <time>2023-07-14T07:33:31Z</time>
      </trkpt>
      <trkpt lat="44.74431" lon="0.4858">
        <ele>152.7</ele>
        <time>2023-07-14T07:33:32Z</time>
      </trkpt>
      <trkpt lat="44.74428" lon="0.48582">
        <ele>153</ele>
        <time>2023-07-14T07:33:33Z</time>
      </trkpt>
      <trkpt lat="44.74423" lon="0.48584">
        <ele>153.5</ele>
        <time>2023-07-14T07:33:35Z</time>
      </trkpt>
      <trkpt lat="44.74417" lon="0.48587">
        <ele>154.1</ele>
        <time>2023-07-14T07:33:37Z</time>
      </trkpt>
      <trkpt lat="44.74414" lon="0.48589">
        <ele>154.3</ele>
        <time>2023-07-14T07:33:38Z</time>
      </trkpt>
      <trkpt lat="44.74411" lon="0.48591">
        <ele>154.3</ele>
        <time>2023-07-14T07:33:39Z</time>
      </trkpt>
      <trkpt lat="44.74409" lon="0.48594">
        <ele>154.6</ele>
        <time>2023-07-14T07:33:40Z</time>
      </trkpt>
      <trkpt lat="44.74405" lon="0.48596">
        <ele>154.8</ele>
        <time>2023-07-14T07:33:41Z</time>
      </trkpt>
      <trkpt lat="44.74401" lon="0.48601">
        <ele>155.2</ele>
        <time>2023-07-14T07:33:43Z</time>
      </trkpt>
      <trkpt lat="44.74398" lon="0.48607">
        <ele>155.5</ele>
        <time>2023-07-14T07:33:45Z</time>
      </trkpt>
      <trkpt lat="44.74395" lon="0.48612">
        <ele>155.7</ele>
        <time>2023-07-14T07:33:47Z</time>
      </trkpt>
      <trkpt lat="44.74394" lon="0.48619">
        <ele>155.6</ele>
        <time>2023-07-14T07:33:49Z</time>
      </trkpt>
      <trkpt lat="44.74393" lon="0.48622">
        <ele>155.8</ele>
        <time>2023-07-14T07:33:50Z</time>
      </trkpt>
      <trkpt lat="44.7439" lon="0.48626">
        <ele>155.7</ele>
        <time>2023-07-14T07:33:51Z</time>
      </trkpt>
      <trkpt lat="44.74386" lon="0.48632">
        <ele>156</ele>
        <time>2023-07-14T07:33:53Z</time>
      </trkpt>
      <trkpt lat="44.74382" lon="0.48635">
        <ele>156.3</ele>
        <time>2023-07-14T07:33:55Z</time>
      </trkpt>
      <trkpt lat="44.74378" lon="0.4864">
        <ele>156.5</ele>
        <time>2023-07-14T07:33:57Z</time>
      </trkpt>
      <trkpt lat="44.74377" lon="0.48642">
        <ele>156.6</ele>
        <time>2023-07-14T07:33:58Z</time>
      </trkpt>
      <trkpt lat="44.74375" lon="0.48644">
        <ele>156.7</ele>
        <time>2023-07-14T07:33:59Z</time>
      </trkpt>
      <trkpt lat="44.74371" lon="0.48647">
        <ele>156.9</ele>
        <time>2023-07-14T07:34:01Z</time>
      </trkpt>
      <trkpt lat="44.74368" lon="0.4865">
        <ele>157.2</ele>
        <time>2023-07-14T07:34:03Z</time>
      </trkpt>
      <trkpt lat="44.74364" lon="0.48653">
        <ele>157.5</ele>
        <time>2023-07-14T07:34:05Z</time>
      </trkpt>
      <trkpt lat="44.74359" lon="0.48658">
        <ele>158</ele>
        <time>2023-07-14T07:34:07Z</time>
      </trkpt>
      <trkpt lat="44.74355" lon="0.48663">
        <ele>158.4</ele>
        <time>2023-07-14T07:34:09Z</time>
      </trkpt>
      <trkpt lat="44.74352" lon="0.48667">
        <ele>158.8</ele>
        <time>2023-07-14T07:34:11Z</time>
      </trkpt>
      <trkpt lat="44.74347" lon="0.48673">
        <ele>159.2</ele>
        <time>2023-07-14T07:34:13Z</time>
      </trkpt>
      <trkpt lat="44.74342" lon="0.48676">
        <ele>159.5</ele>
        <time>2023-07-14T07:34:15Z</time>
      </trkpt>
      <trkpt lat="44.74337" lon="0.48678">
        <ele>159.8</ele>
        <time>2023-07-14T07:34:17Z</time>
      </trkpt>
      <trkpt lat="44.74336" lon="0.4868">
        <ele>159.9</ele>
        <time>2023-07-14T07:34:18Z</time>
      </trkpt>
      <trkpt lat="44.74334" lon="0.48681">
        <ele>160</ele>
        <time>2023-07-14T07:34:19Z</time>
      </trkpt>
      <trkpt lat="44.74332" lon="0.48684">
        <ele>160.2</ele>
        <time>2023-07-14T07:34:21Z</time>
      </trkpt>
      <trkpt lat="44.74329" lon="0.48686">
        <ele>160.5</ele>
        <time>2023-07-14T07:34:23Z</time>
      </trkpt>
      <trkpt lat="44.74325" lon="0.48688">
        <ele>160.7</ele>
        <time>2023-07-14T07:34:25Z</time>
      </trkpt>
      <trkpt lat="44.74322" lon="0.48689">
        <ele>160.9</ele>
        <time>2023-07-14T07:34:27Z</time>
      </trkpt>
      <trkpt lat="44.74321" lon="0.48691">
        <ele>161.1</ele>
        <time>2023-07-14T07:34:28Z</time>
      </trkpt>
      <trkpt lat="44.74319" lon="0.48692">
        <ele>161.3</ele>
        <time>2023-07-14T07:34:29Z</time>
      </trkpt>
      <trkpt lat="44.74315" lon="0.48696">
        <ele>161.6</ele>
        <time>2023-07-14T07:34:31Z</time>
      </trkpt>
      <trkpt lat="44.74313" lon="0.48698">
        <ele>161.8</ele>
        <time>2023-07-14T07:34:32Z</time>
      </trkpt>
      <trkpt lat="44.74311" lon="0.48699">
        <ele>162</ele>
        <time>2023-07-14T07:34:33Z</time>
      </trkpt>
      <trkpt lat="44.74309" lon="0.487">
        <ele>162.2</ele>
        <time>2023-07-14T07:34:34Z</time>
      </trkpt>
      <trkpt lat="44.74307" lon="0.48701">
        <ele>162.3</ele>
        <time>2023-07-14T07:34:35Z</time>
      </trkpt>
      <trkpt lat="44.74303" lon="0.48703">
        <ele>162.7</ele>
        <time>2023-07-14T07:34:37Z</time>
      </trkpt>
      <trkpt lat="44.74298" lon="0.48706">
        <ele>163.1</ele>
        <time>2023-07-14T07:34:39Z</time>
      </trkpt>
      <trkpt lat="44.74294" lon="0.48709">
        <ele>163.5</ele>
        <time>2023-07-14T07:34:41Z</time>
      </trkpt>
      <trkpt lat="44.74292" lon="0.48711">
        <ele>163.7</ele>
        <time>2023-07-14T07:34:42Z</time>
      </trkpt>
      <trkpt lat="44.7429" lon="0.48713">
        <ele>163.9</ele>
        <time>2023-07-14T07:34:43Z</time>
      </trkpt>
      <trkpt lat="44.74284" lon="0.48717">
        <ele>164.4</ele>
        <time>2023-07-14T07:34:45Z</time>
      </trkpt>
      <trkpt lat="44.74277" lon="0.4872">
        <ele>164.9</ele>
        <time>2023-07-14T07:34:47Z</time>
      </trkpt>
      <trkpt lat="44.74274" lon="0.48722">
        <ele>165.1</ele>
        <time>2023-07-14T07:34:48Z</time>
      </trkpt>
      <trkpt lat="44.74271" lon="0.48725">
        <ele>165.3</ele>
        <time>2023-07-14T07:34:49Z</time>
      </trkpt>
      <trkpt lat="44.74268" lon="0.48729">
        <ele>165.6</ele>
        <time>2023-07-14T07:34:51Z</time>
      </trkpt>
      <trkpt lat="44.74264" lon="0.48733">
        <ele>165.8</ele>
        <time>2023-07-14T07:34:53Z</time>
      </trkpt>
      <trkpt lat="44.74258" lon="0.48739">
        <ele>166</ele>
        <time>2023-07-14T07:34:55Z</time>
      </trkpt>
      <trkpt lat="44.74254" lon="0.48743">
        <ele>166.2</ele>
        <time>2023-07-14T07:34:57Z</time>
      </trkpt>
      <trkpt lat="44.74252" lon="0.48744">
        <ele>166.2</ele>
        <time>2023-07-14T07:34:58Z</time>
      </trkpt>
      <trkpt lat="44.7425" lon="0.48745">
        <ele>166.3</ele>
        <time>2023-07-14T07:34:59Z</time>
      </trkpt>
      <trkpt lat="44.74245" lon="0.48748">
        <ele>166.4</ele>
        <time>2023-07-14T07:35:01Z</time>
      </trkpt>
      <trkpt lat="44.74241" lon="0.4875">
        <ele>166.5</ele>
        <time>2023-07-14T07:35:03Z</time>
      </trkpt>
      <trkpt lat="44.74238" lon="0.48752">
        <ele>166.6</ele>
        <time>2023-07-14T07:35:04Z</time>
      </trkpt>
      <trkpt lat="44.74236" lon="0.48753">
        <ele>166.7</ele>
        <time>2023-07-14T07:35:05Z</time>
      </trkpt>
      <trkpt lat="44.7423" lon="0.48756">
        <ele>166.9</ele>
        <time>2023-07-14T07:35:07Z</time>
      </trkpt>
      <trkpt lat="44.74226" lon="0.4876">
        <ele>167.1</ele>
        <time>2023-07-14T07:35:09Z</time>
      </trkpt>
      <trkpt lat="44.74222" lon="0.48763">
        <ele>167.3</ele>
        <time>2023-07-14T07:35:11Z</time>
      </trkpt>
      <trkpt lat="44.74218" lon="0.48765">
        <ele>167.5</ele>
        <time>2023-07-14T07:35:13Z</time>
      </trkpt>
      <trkpt lat="44.74213" lon="0.48769">
        <ele>167.8</ele>
        <time>2023-07-14T07:35:15Z</time>
      </trkpt>
      <trkpt lat="44.74208" lon="0.48773">
        <ele>168.1</ele>
        <time>2023-07-14T07:35:17Z</time>
      </trkpt>
      <trkpt lat="44.74203" lon="0.48779">
        <ele>168.4</ele>
        <time>2023-07-14T07:35:19Z</time>
      </trkpt>
      <trkpt lat="44.74199" lon="0.48784">
        <ele>168.6</ele>
        <time>2023-07-14T07:35:21Z</time>
      </trkpt>
      <trkpt lat="44.74194" lon="0.48789">
        <ele>168.8</ele>
        <time>2023-07-14T07:35:23Z</time>
      </trkpt>
      <trkpt lat="44.74191" lon="0.48791">
        <ele>168.9</ele>
        <time>2023-07-14T07:35:25Z</time>
      </trkpt>
      <trkpt lat="44.74189" lon="0.48792">
        <ele>169</ele>
        <time>2023-07-14T07:35:26Z</time>
      </trkpt>
      <trkpt lat="44.74187" lon="0.48794">
        <ele>169.1</ele>
        <time>2023-07-14T07:35:27Z</time>
      </trkpt>
      <trkpt lat="44.74184" lon="0.48797">
        <ele>169.4</ele>
        <time>2023-07-14T07:35:29Z</time>
      </trkpt>
      <trkpt lat="44.7418" lon="0.48802">
        <ele>169.7</ele>
        <time>2023-07-14T07:35:31Z</time>
      </trkpt>
      <trkpt lat="44.74177" lon="0.48807">
        <ele>170.1</ele>
        <time>2023-07-14T07:35:33Z</time>
      </trkpt>
      <trkpt lat="44.74173" lon="0.48812">
        <ele>170.4</ele>
        <time>2023-07-14T07:35:35Z</time>
      </trkpt>
      <trkpt lat="44.7417" lon="0.48816">
        <ele>170.8</ele>
        <time>2023-07-14T07:35:37Z</time>
      </trkpt>
      <trkpt lat="44.74166" lon="0.48821">
        <ele>171.1</ele>
        <time>2023-07-14T07:35:39Z</time>
      </trkpt>
      <trkpt lat="44.74164" lon="0.48825">
        <ele>171.3</ele>
        <time>2023-07-14T07:35:41Z</time>
      </trkpt>
      <trkpt lat="44.7416" lon="0.48828">
        <ele>171.5</ele>
        <time>2023-07-14T07:35:43Z</time>
      </trkpt>
      <trkpt lat="44.74159" lon="0.4883">
        <ele>171.6</ele>
        <time>2023-07-14T07:35:44Z</time>
      </trkpt>
      <trkpt lat="44.74157" lon="0.48832">
        <ele>171.7</ele>
        <time>2023-07-14T07:35:45Z</time>
      </trkpt>
      <trkpt lat="44.74155" lon="0.48834">
        <ele>171.9</ele>
        <time>2023-07-14T07:35:46Z</time>
      </trkpt>
      <trkpt lat="44.74153" lon="0.48835">
        <ele>172</ele>
        <time>2023-07-14T07:35:47Z</time>
      </trkpt>
      <trkpt lat="44.7415" lon="0.48838">
        <ele>172.1</ele>
        <time>2023-07-14T07:35:48Z</time>
      </trkpt>
      <trkpt lat="44.74147" lon="0.48841">
        <ele>172.3</ele>
        <time>2023-07-14T07:35:49Z</time>
      </trkpt>
      <trkpt lat="44.74141" lon="0.48846">
        <ele>172.6</ele>
        <time>2023-07-14T07:35:51Z</time>
      </trkpt>
      <trkpt lat="44.74135" lon="0.48849">
        <ele>172.8</ele>
        <time>2023-07-14T07:35:53Z</time>
      </trkpt>
      <trkpt lat="44.74132" lon="0.4885">
        <ele>172.9</ele>
        <time>2023-07-14T07:35:54Z</time>
      </trkpt>
      <trkpt lat="44.7413" lon="0.48849">
        <ele>173</ele>
        <time>2023-07-14T07:35:55Z</time>
      </trkpt>
      <trkpt lat="44.74127" lon="0.48854">
        <ele>173.1</ele>
        <time>2023-07-14T07:35:57Z</time>
      </trkpt>
      <trkpt lat="44.74124" lon="0.48856">
        <ele>173.3</ele>
        <time>2023-07-14T07:35:59Z</time>
      </trkpt>
      <trkpt lat="44.74123" lon="0.48857">
        <ele>173.3</ele>
        <time>2023-07-14T07:36:00Z</time>
      </trkpt>
      <trkpt lat="44.74121" lon="0.48859">
        <ele>173.4</ele>
        <time>2023-07-14T07:36:01Z</time>
      </trkpt>
      <trkpt lat="44.74117" lon="0.48862">
        <ele>173.6</ele>
        <time>2023-07-14T07:36:03Z</time>
      </trkpt>
      <trkpt lat="44.74116" lon="0.48866">
        <ele>175</ele>
        <time>2023-07-14T07:36:04Z</time>
      </trkpt>
      <trkpt lat="44.74115" lon="0.48867">
        <ele>175.1</ele>
        <time>2023-07-14T07:36:05Z</time>
      </trkpt>
      <trkpt lat="44.74112" lon="0.48866">
        <ele>175.5</ele>
        <time>2023-07-14T07:36:07Z</time>
      </trkpt>
      <trkpt lat="44.74112" lon="0.48865">
        <ele>175.5</ele>
        <time>2023-07-14T07:36:08Z</time>
      </trkpt>
      <trkpt lat="44.74111" lon="0.48864">
        <ele>175.7</ele>
        <time>2023-07-14T07:36:09Z</time>
      </trkpt>
      <trkpt lat="44.74109" lon="0.48862">
        <ele>175.9</ele>
        <time>2023-07-14T07:36:11Z</time>
      </trkpt>
      <trkpt lat="44.74109" lon="0.4886">
        <ele>176</ele>
        <time>2023-07-14T07:36:12Z</time>
      </trkpt>
      <trkpt lat="44.74108" lon="0.48858">
        <ele>176.2</ele>
        <time>2023-07-14T07:36:13Z</time>
      </trkpt>
      <trkpt lat="44.74107" lon="0.48855">
        <ele>176.4</ele>
        <time>2023-07-14T07:36:15Z</time>
      </trkpt>
      <trkpt lat="44.74105" lon="0.48851">
        <ele>176.7</ele>
        <time>2023-07-14T07:36:17Z</time>
      </trkpt>
      <trkpt lat="44.74104" lon="0.48848">
        <ele>176.9</ele>
        <time>2023-07-14T07:36:19Z</time>
      </trkpt>
      <trkpt lat="44.74103" lon="0.48846">
        <ele>177</ele>
        <time>2023-07-14T07:36:20Z</time>
      </trkpt>
      <trkpt lat="44.74103" lon="0.48844">
        <ele>177.1</ele>
        <time>2023-07-14T07:36:21Z</time>
      </trkpt>
      <trkpt lat="44.74102" lon="0.48841">
        <ele>177.3</ele>
        <time>2023-07-14T07:36:22Z</time>
      </trkpt>
      <trkpt lat="44.74102" lon="0.4884">
        <ele>177.4</ele>
        <time>2023-07-14T07:36:23Z</time>
      </trkpt>
      <trkpt lat="44.74101" lon="0.48837">
        <ele>177.5</ele>
        <time>2023-07-14T07:36:24Z</time>
      </trkpt>
      <trkpt lat="44.741" lon="0.48835">
        <ele>177.6</ele>
        <time>2023-07-14T07:36:25Z</time>
      </trkpt>
      <trkpt lat="44.74099" lon="0.48833">
        <ele>177.8</ele>
        <time>2023-07-14T07:36:26Z</time>
      </trkpt>
      <trkpt lat="44.74097" lon="0.4883">
        <ele>177.9</ele>
        <time>2023-07-14T07:36:27Z</time>
      </trkpt>
      <trkpt lat="44.74094" lon="0.48828">
        <ele>178.2</ele>
        <time>2023-07-14T07:36:29Z</time>
      </trkpt>
      <trkpt lat="44.74092" lon="0.48825">
        <ele>178.4</ele>
        <time>2023-07-14T07:36:31Z</time>
      </trkpt>
      <trkpt lat="44.74089" lon="0.4882">
        <ele>178.7</ele>
        <time>2023-07-14T07:36:33Z</time>
      </trkpt>
      <trkpt lat="44.74086" lon="0.48817">
        <ele>178.9</ele>
        <time>2023-07-14T07:36:35Z</time>
      </trkpt>
      <trkpt lat="44.74085" lon="0.48815">
        <ele>179.1</ele>
        <time>2023-07-14T07:36:36Z</time>
      </trkpt>
      <trkpt lat="44.74084" lon="0.48814">
        <ele>179.1</ele>
        <time>2023-07-14T07:36:37Z</time>
      </trkpt>
      <trkpt lat="44.7408" lon="0.4881">
        <ele>179.4</ele>
        <time>2023-07-14T07:36:39Z</time>
      </trkpt>
      <trkpt lat="44.74076" lon="0.48806">
        <ele>179.7</ele>
        <time>2023-07-14T07:36:41Z</time>
      </trkpt>
      <trkpt lat="44.74074" lon="0.48804">
        <ele>179.9</ele>
        <time>2023-07-14T07:36:42Z</time>
      </trkpt>
      <trkpt lat="44.74073" lon="0.48802">
        <ele>180</ele>
        <time>2023-07-14T07:36:43Z</time>
      </trkpt>
      <trkpt lat="44.74069" lon="0.48798">
        <ele>180.2</ele>
        <time>2023-07-14T07:36:45Z</time>
      </trkpt>
      <trkpt lat="44.74066" lon="0.48792">
        <ele>180.5</ele>
        <time>2023-07-14T07:36:47Z</time>
      </trkpt>
      <trkpt lat="44.74063" lon="0.4879">
        <ele>180.6</ele>
        <time>2023-07-14T07:36:48Z</time>
      </trkpt>
      <trkpt lat="44.74061" lon="0.48787">
        <ele>180.6</ele>
        <time>2023-07-14T07:36:49Z</time>
      </trkpt>
      <trkpt lat="44.74057" lon="0.48782">
        <ele>180.8</ele>
        <time>2023-07-14T07:36:51Z</time>
      </trkpt>
      <trkpt lat="44.74055" lon="0.48777">
        <ele>180.9</ele>
        <time>2023-07-14T07:36:53Z</time>
      </trkpt>
      <trkpt lat="44.74052" lon="0.48771">
        <ele>181</ele>
        <time>2023-07-14T07:36:55Z</time>
      </trkpt>
      <trkpt lat="44.74049" lon="0.48764">
        <ele>181.1</ele>
        <time>2023-07-14T07:36:57Z</time>
      </trkpt>
      <trkpt lat="44.74046" lon="0.48758">
        <ele>181.2</ele>
        <time>2023-07-14T07:36:59Z</time>
      </trkpt>
      <trkpt lat="44.74042" lon="0.48751">
        <ele>181.1</ele>
        <time>2023-07-14T07:37:01Z</time>
      </trkpt>
      <trkpt lat="44.74039" lon="0.48743">
        <ele>181</ele>
        <time>2023-07-14T07:37:03Z</time>
      </trkpt>
      <trkpt lat="44.74038" lon="0.4874">
        <ele>180.9</ele>
        <time>2023-07-14T07:37:04Z</time>
      </trkpt>
      <trkpt lat="44.74036" lon="0.48737">
        <ele>180.9</ele>
        <time>2023-07-14T07:37:05Z</time>
      </trkpt>
      <trkpt lat="44.74033" lon="0.48729">
        <ele>180.7</ele>
        <time>2023-07-14T07:37:07Z</time>
      </trkpt>
      <trkpt lat="44.7403" lon="0.48722">
        <ele>180.5</ele>
        <time>2023-07-14T07:37:09Z</time>
      </trkpt>
      <trkpt lat="44.74028" lon="0.48718">
        <ele>180.4</ele>
        <time>2023-07-14T07:37:10Z</time>
      </trkpt>
      <trkpt lat="44.74026" lon="0.48715">
        <ele>180.4</ele>
        <time>2023-07-14T07:37:11Z</time>
      </trkpt>
      <trkpt lat="44.74023" lon="0.48708">
        <ele>180.4</ele>
        <time>2023-07-14T07:37:13Z</time>
      </trkpt>
      <trkpt lat="44.7402" lon="0.48702">
        <ele>180.4</ele>
        <time>2023-07-14T07:37:15Z</time>
      </trkpt>
      <trkpt lat="44.74017" lon="0.48695">
        <ele>180.5</ele>
        <time>2023-07-14T07:37:17Z</time>
      </trkpt>
      <trkpt lat="44.74013" lon="0.48687">
        <ele>180.6</ele>
        <time>2023-07-14T07:37:19Z</time>
      </trkpt>
      <trkpt lat="44.7401" lon="0.48681">
        <ele>180.7</ele>
        <time>2023-07-14T07:37:21Z</time>
      </trkpt>
      <trkpt lat="44.74009" lon="0.48677">
        <ele>180.7</ele>
        <time>2023-07-14T07:37:22Z</time>
      </trkpt>
      <trkpt lat="44.74007" lon="0.48673">
        <ele>180.7</ele>
        <time>2023-07-14T07:37:23Z</time>
      </trkpt>
      <trkpt lat="44.74002" lon="0.48666">
        <ele>180.6</ele>
        <time>2023-07-14T07:37:25Z</time>
      </trkpt>
      <trkpt lat="44.73995" lon="0.48661">
        <ele>180.4</ele>
        <time>2023-07-14T07:37:27Z</time>
      </trkpt>
      <trkpt lat="44.73989" lon="0.48659">
        <ele>180.2</ele>
        <time>2023-07-14T07:37:29Z</time>
      </trkpt>
      <trkpt lat="44.73982" lon="0.48657">
        <ele>179.9</ele>
        <time>2023-07-14T07:37:31Z</time>
      </trkpt>
      <trkpt lat="44.73975" lon="0.48657">
        <ele>179.5</ele>
        <time>2023-07-14T07:37:33Z</time>
      </trkpt>
      <trkpt lat="44.73971" lon="0.48657">
        <ele>179.3</ele>
        <time>2023-07-14T07:37:34Z</time>
      </trkpt>
      <trkpt lat="44.73966" lon="0.48657">
        <ele>178.9</ele>
        <time>2023-07-14T07:37:35Z</time>
      </trkpt>
      <trkpt lat="44.73962" lon="0.48656">
        <ele>178.6</ele>
        <time>2023-07-14T07:37:36Z</time>
      </trkpt>
      <trkpt lat="44.73958" lon="0.48655">
        <ele>178.2</ele>
        <time>2023-07-14T07:37:37Z</time>
      </trkpt>
      <trkpt lat="44.73948" lon="0.48654">
        <ele>177.2</ele>
        <time>2023-07-14T07:37:39Z</time>
      </trkpt>
      <trkpt lat="44.73935" lon="0.48652">
        <ele>176</ele>
        <time>2023-07-14T07:37:41Z</time>
      </trkpt>
      <trkpt lat="44.73929" lon="0.48651">
        <ele>175.3</ele>
        <time>2023-07-14T07:37:42Z</time>
      </trkpt>
      <trkpt lat="44.73921" lon="0.48649">
        <ele>174.6</ele>
        <time>2023-07-14T07:37:43Z</time>
      </trkpt>
      <trkpt lat="44.73913" lon="0.48647">
        <ele>173.8</ele>
        <time>2023-07-14T07:37:44Z</time>
      </trkpt>
      <trkpt lat="44.73905" lon="0.48646">
        <ele>173</ele>
        <time>2023-07-14T07:37:45Z</time>
      </trkpt>
      <trkpt lat="44.73889" lon="0.48644">
        <ele>171.4</ele>
        <time>2023-07-14T07:37:47Z</time>
      </trkpt>
      <trkpt lat="44.73873" lon="0.48641">
        <ele>169.7</ele>
        <time>2023-07-14T07:37:49Z</time>
      </trkpt>
      <trkpt lat="44.73856" lon="0.48638">
        <ele>167.8</ele>
        <time>2023-07-14T07:37:51Z</time>
      </trkpt>
      <trkpt lat="44.73839" lon="0.48637">
        <ele>165.9</ele>
        <time>2023-07-14T07:37:53Z</time>
      </trkpt>
      <trkpt lat="44.73822" lon="0.48636">
        <ele>164.1</ele>
        <time>2023-07-14T07:37:55Z</time>
      </trkpt>
      <trkpt lat="44.73804" lon="0.48635">
        <ele>163.1</ele>
        <time>2023-07-14T07:37:57Z</time>
      </trkpt>
      <trkpt lat="44.73786" lon="0.48632">
        <ele>162.2</ele>
        <time>2023-07-14T07:37:59Z</time>
      </trkpt>
      <trkpt lat="44.73769" lon="0.48628">
        <ele>161.2</ele>
        <time>2023-07-14T07:38:01Z</time>
      </trkpt>
      <trkpt lat="44.7376" lon="0.48625">
        <ele>160.6</ele>
        <time>2023-07-14T07:38:02Z</time>
      </trkpt>
      <trkpt lat="44.73752" lon="0.4862">
        <ele>159.9</ele>
        <time>2023-07-14T07:38:03Z</time>
      </trkpt>
      <trkpt lat="44.73744" lon="0.48614">
        <ele>159.3</ele>
        <time>2023-07-14T07:38:04Z</time>
      </trkpt>
      <trkpt lat="44.73737" lon="0.48606">
        <ele>158.6</ele>
        <time>2023-07-14T07:38:05Z</time>
      </trkpt>
      <trkpt lat="44.73721" lon="0.48591">
        <ele>157.3</ele>
        <time>2023-07-14T07:38:07Z</time>
      </trkpt>
      <trkpt lat="44.73714" lon="0.48583">
        <ele>156.6</ele>
        <time>2023-07-14T07:38:08Z</time>
      </trkpt>
      <trkpt lat="44.73706" lon="0.48575">
        <ele>155.9</ele>
        <time>2023-07-14T07:38:09Z</time>
      </trkpt>
      <trkpt lat="44.73692" lon="0.48558">
        <ele>154.3</ele>
        <time>2023-07-14T07:38:11Z</time>
      </trkpt>
      <trkpt lat="44.73679" lon="0.48538">
        <ele>152.6</ele>
        <time>2023-07-14T07:38:13Z</time>
      </trkpt>
      <trkpt lat="44.73672" lon="0.48529">
        <ele>151.7</ele>
        <time>2023-07-14T07:38:14Z</time>
      </trkpt>
      <trkpt lat="44.73666" lon="0.48521">
        <ele>150.9</ele>
        <time>2023-07-14T07:38:15Z</time>
      </trkpt>
      <trkpt lat="44.73661" lon="0.48512">
        <ele>150.1</ele>
        <time>2023-07-14T07:38:16Z</time>
      </trkpt>
      <trkpt lat="44.73656" lon="0.48502">
        <ele>149.4</ele>
        <time>2023-07-14T07:38:17Z</time>
      </trkpt>
      <trkpt lat="44.73652" lon="0.48493">
        <ele>148.7</ele>
        <time>2023-07-14T07:38:18Z</time>
      </trkpt>
      <trkpt lat="44.73648" lon="0.48485">
        <ele>148.2</ele>
        <time>2023-07-14T07:38:19Z</time>
      </trkpt>
      <trkpt lat="44.73638" lon="0.48473">
        <ele>147.3</ele>
        <time>2023-07-14T07:38:21Z</time>
      </trkpt>
      <trkpt lat="44.73625" lon="0.48469">
        <ele>146.6</ele>
        <time>2023-07-14T07:38:23Z</time>
      </trkpt>
      <trkpt lat="44.73618" lon="0.48469">
        <ele>146.2</ele>
        <time>2023-07-14T07:38:24Z</time>
      </trkpt>
      <trkpt lat="44.7361" lon="0.48469">
        <ele>145.9</ele>
        <time>2023-07-14T07:38:25Z</time>
      </trkpt>
      <trkpt lat="44.73596" lon="0.48468">
        <ele>145.2</ele>
        <time>2023-07-14T07:38:27Z</time>
      </trkpt>
      <trkpt lat="44.73581" lon="0.48467">
        <ele>144.6</ele>
        <time>2023-07-14T07:38:29Z</time>
      </trkpt>
      <trkpt lat="44.73574" lon="0.48467">
        <ele>144.3</ele>
        <time>2023-07-14T07:38:30Z</time>
      </trkpt>
      <trkpt lat="44.73566" lon="0.48467">
        <ele>144</ele>
        <time>2023-07-14T07:38:31Z</time>
      </trkpt>
      <trkpt lat="44.73552" lon="0.48466">
        <ele>143.4</ele>
        <time>2023-07-14T07:38:33Z</time>
      </trkpt>
      <trkpt lat="44.73537" lon="0.48466">
        <ele>142.8</ele>
        <time>2023-07-14T07:38:35Z</time>
      </trkpt>
      <trkpt lat="44.7353" lon="0.48466">
        <ele>142.6</ele>
        <time>2023-07-14T07:38:36Z</time>
      </trkpt>
      <trkpt lat="44.73523" lon="0.48466">
        <ele>142.3</ele>
        <time>2023-07-14T07:38:37Z</time>
      </trkpt>
      <trkpt lat="44.73509" lon="0.48465">
        <ele>141.9</ele>
        <time>2023-07-14T07:38:39Z</time>
      </trkpt>
      <trkpt lat="44.73495" lon="0.48464">
        <ele>141.4</ele>
        <time>2023-07-14T07:38:41Z</time>
      </trkpt>
      <trkpt lat="44.73489" lon="0.48463">
        <ele>141.2</ele>
        <time>2023-07-14T07:38:42Z</time>
      </trkpt>
      <trkpt lat="44.73485" lon="0.48463">
        <ele>141</ele>
        <time>2023-07-14T07:38:43Z</time>
      </trkpt>
      <trkpt lat="44.73481" lon="0.48463">
        <ele>140.9</ele>
        <time>2023-07-14T07:38:45Z</time>
      </trkpt>
      <trkpt lat="44.73476" lon="0.48463">
        <ele>140.7</ele>
        <time>2023-07-14T07:38:47Z</time>
      </trkpt>
      <trkpt lat="44.7347" lon="0.48462">
        <ele>140.5</ele>
        <time>2023-07-14T07:38:49Z</time>
      </trkpt>
      <trkpt lat="44.7346" lon="0.48462">
        <ele>140.1</ele>
        <time>2023-07-14T07:38:51Z</time>
      </trkpt>
      <trkpt lat="44.73455" lon="0.48461">
        <ele>139.9</ele>
        <time>2023-07-14T07:38:52Z</time>
      </trkpt>
      <trkpt lat="44.73449" lon="0.4846">
        <ele>139.7</ele>
        <time>2023-07-14T07:38:53Z</time>
      </trkpt>
      <trkpt lat="44.73442" lon="0.48458">
        <ele>139.5</ele>
        <time>2023-07-14T07:38:54Z</time>
      </trkpt>
      <trkpt lat="44.73436" lon="0.48457">
        <ele>139.2</ele>
        <time>2023-07-14T07:38:55Z</time>
      </trkpt>
      <trkpt lat="44.73424" lon="0.48456">
        <ele>138.8</ele>
        <time>2023-07-14T07:38:57Z</time>
      </trkpt>
      <trkpt lat="44.73411" lon="0.48455">
        <ele>138.5</ele>
        <time>2023-07-14T07:38:59Z</time>
      </trkpt>
      <trkpt lat="44.73399" lon="0.48453">
        <ele>138.2</ele>
        <time>2023-07-14T07:39:01Z</time>
      </trkpt>
      <trkpt lat="44.73393" lon="0.48451">
        <ele>138</ele>
        <time>2023-07-14T07:39:02Z</time>
      </trkpt>
      <trkpt lat="44.73386" lon="0.48451">
        <ele>137.6</ele>
        <time>2023-07-14T07:39:03Z</time>
      </trkpt>
      <trkpt lat="44.73373" lon="0.48449">
        <ele>136.8</ele>
        <time>2023-07-14T07:39:05Z</time>
      </trkpt>
      <trkpt lat="44.7336" lon="0.4845">
        <ele>135.8</ele>
        <time>2023-07-14T07:39:07Z</time>
      </trkpt>
      <trkpt lat="44.73346" lon="0.4845">
        <ele>134.5</ele>
        <time>2023-07-14T07:39:09Z</time>
      </trkpt>
      <trkpt lat="44.73333" lon="0.48448">
        <ele>133.6</ele>
        <time>2023-07-14T07:39:11Z</time>
      </trkpt>
      <trkpt lat="44.73329" lon="0.48444">
        <ele>133.3</ele>
        <time>2023-07-14T07:39:12Z</time>
      </trkpt>
      <trkpt lat="44.73327" lon="0.48438">
        <ele>132.9</ele>
        <time>2023-07-14T07:39:13Z</time>
      </trkpt>
      <trkpt lat="44.73325" lon="0.48424">
        <ele>131</ele>
        <time>2023-07-14T07:39:15Z</time>
      </trkpt>
      <trkpt lat="44.73323" lon="0.48421">
        <ele>130.4</ele>
        <time>2023-07-14T07:39:16Z</time>
      </trkpt>
      <trkpt lat="44.73321" lon="0.4842">
        <ele>129.9</ele>
        <time>2023-07-14T07:39:17Z</time>
      </trkpt>
      <trkpt lat="44.73319" lon="0.48422">
        <ele>129.4</ele>
        <time>2023-07-14T07:39:18Z</time>
      </trkpt>
      <trkpt lat="44.73317" lon="0.48426">
        <ele>128.8</ele>
        <time>2023-07-14T07:39:19Z</time>
      </trkpt>
      <trkpt lat="44.73313" lon="0.48439">
        <ele>127</ele>
        <time>2023-07-14T07:39:21Z</time>
      </trkpt>
      <trkpt lat="44.73307" lon="0.48456">
        <ele>125.2</ele>
        <time>2023-07-14T07:39:23Z</time>
      </trkpt>
      <trkpt lat="44.73299" lon="0.48476">
        <ele>123.4</ele>
        <time>2023-07-14T07:39:25Z</time>
      </trkpt>
      <trkpt lat="44.7329" lon="0.48498">
        <ele>122.1</ele>
        <time>2023-07-14T07:39:27Z</time>
      </trkpt>
      <trkpt lat="44.73284" lon="0.4852">
        <ele>121.1</ele>
        <time>2023-07-14T07:39:29Z</time>
      </trkpt>
      <trkpt lat="44.73281" lon="0.48531">
        <ele>120.6</ele>
        <time>2023-07-14T07:39:30Z</time>
      </trkpt>
      <trkpt lat="44.73278" lon="0.48542">
        <ele>120.1</ele>
        <time>2023-07-14T07:39:31Z</time>
      </trkpt>
      <trkpt lat="44.73274" lon="0.48553">
        <ele>119.7</ele>
        <time>2023-07-14T07:39:32Z</time>
      </trkpt>
      <trkpt lat="44.73269" lon="0.48561">
        <ele>119.3</ele>
        <time>2023-07-14T07:39:33Z</time>
      </trkpt>
      <trkpt lat="44.73262" lon="0.48567">
        <ele>118.9</ele>
        <time>2023-07-14T07:39:34Z</time>
      </trkpt>
      <trkpt lat="44.73254" lon="0.4857">
        <ele>118.8</ele>
        <time>2023-07-14T07:39:35Z</time>
      </trkpt>
      <trkpt lat="44.73246" lon="0.48571">
        <ele>118.7</ele>
        <time>2023-07-14T07:39:36Z</time>
      </trkpt>
      <trkpt lat="44.73239" lon="0.48571">
        <ele>118.7</ele>
        <time>2023-07-14T07:39:37Z</time>
      </trkpt>
      <trkpt lat="44.73225" lon="0.48571">
        <ele>118.9</ele>
        <time>2023-07-14T07:39:39Z</time>
      </trkpt>
      <trkpt lat="44.73213" lon="0.48573">
        <ele>119</ele>
        <time>2023-07-14T07:39:41Z</time>
      </trkpt>
      <trkpt lat="44.73202" lon="0.4858">
        <ele>119.3</ele>
        <time>2023-07-14T07:39:43Z</time>
      </trkpt>
      <trkpt lat="44.73195" lon="0.4859">
        <ele>119.8</ele>
        <time>2023-07-14T07:39:45Z</time>
      </trkpt>
      <trkpt lat="44.7319" lon="0.486">
        <ele>120.3</ele>
        <time>2023-07-14T07:39:47Z</time>
      </trkpt>
      <trkpt lat="44.73185" lon="0.48609">
        <ele>120.9</ele>
        <time>2023-07-14T07:39:49Z</time>
      </trkpt>
      <trkpt lat="44.7318" lon="0.48615">
        <ele>121.5</ele>
        <time>2023-07-14T07:39:51Z</time>
      </trkpt>
      <trkpt lat="44.73175" lon="0.48621">
        <ele>122.2</ele>
        <time>2023-07-14T07:39:53Z</time>
      </trkpt>
      <trkpt lat="44.73172" lon="0.48625">
        <ele>122.7</ele>
        <time>2023-07-14T07:39:55Z</time>
      </trkpt>
      <trkpt lat="44.73169" lon="0.48629">
        <ele>123.1</ele>
        <time>2023-07-14T07:39:57Z</time>
      </trkpt>
      <trkpt lat="44.73166" lon="0.48632">
        <ele>123.6</ele>
        <time>2023-07-14T07:39:59Z</time>
      </trkpt>
      <trkpt lat="44.73165" lon="0.48634">
        <ele>123.9</ele>
        <time>2023-07-14T07:40:00Z</time>
      </trkpt>
      <trkpt lat="44.73163" lon="0.48636">
        <ele>124.1</ele>
        <time>2023-07-14T07:40:01Z</time>
      </trkpt>
      <trkpt lat="44.7316" lon="0.48639">
        <ele>124.6</ele>
        <time>2023-07-14T07:40:03Z</time>
      </trkpt>
      <trkpt lat="44.73158" lon="0.48642">
        <ele>125</ele>
        <time>2023-07-14T07:40:05Z</time>
      </trkpt>
      <trkpt lat="44.73156" lon="0.48645">
        <ele>125.5</ele>
        <time>2023-07-14T07:40:07Z</time>
      </trkpt>
      <trkpt lat="44.73155" lon="0.48647">
        <ele>125.7</ele>
        <time>2023-07-14T07:40:08Z</time>
      </trkpt>
      <trkpt lat="44.73154" lon="0.4865">
        <ele>126</ele>
        <time>2023-07-14T07:40:09Z</time>
      </trkpt>
      <trkpt lat="44.73152" lon="0.48654">
        <ele>126.5</ele>
        <time>2023-07-14T07:40:11Z</time>
      </trkpt>
      <trkpt lat="44.73151" lon="0.48656">
        <ele>126.8</ele>
        <time>2023-07-14T07:40:12Z</time>
      </trkpt>
      <trkpt lat="44.7315" lon="0.48658">
        <ele>127.1</ele>
        <time>2023-07-14T07:40:13Z</time>
      </trkpt>
      <trkpt lat="44.73148" lon="0.48663">
        <ele>127.6</ele>
        <time>2023-07-14T07:40:15Z</time>
      </trkpt>
      <trkpt lat="44.73146" lon="0.48667">
        <ele>128</ele>
        <time>2023-07-14T07:40:17Z</time>
      </trkpt>
      <trkpt lat="44.73145" lon="0.4867">
        <ele>128.4</ele>
        <time>2023-07-14T07:40:19Z</time>
      </trkpt>
      <trkpt lat="44.73143" lon="0.48674">
        <ele>128.8</ele>
        <time>2023-07-14T07:40:21Z</time>
      </trkpt>
      <trkpt lat="44.7314" lon="0.48679">
        <ele>129.3</ele>
        <time>2023-07-14T07:40:23Z</time>
      </trkpt>
      <trkpt lat="44.73138" lon="0.48684">
        <ele>129.8</ele>
        <time>2023-07-14T07:40:25Z</time>
      </trkpt>
      <trkpt lat="44.73136" lon="0.48688">
        <ele>130.1</ele>
        <time>2023-07-14T07:40:27Z</time>
      </trkpt>
      <trkpt lat="44.73134" lon="0.48692">
        <ele>130.5</ele>
        <time>2023-07-14T07:40:29Z</time>
      </trkpt>
      <trkpt lat="44.73132" lon="0.48696">
        <ele>130.8</ele>
        <time>2023-07-14T07:40:31Z</time>
      </trkpt>
      <trkpt lat="44.73131" lon="0.48701">
        <ele>131.1</ele>
        <time>2023-07-14T07:40:33Z</time>
      </trkpt>
      <trkpt lat="44.73129" lon="0.48705">
        <ele>131.3</ele>
        <time>2023-07-14T07:40:35Z</time>
      </trkpt>
      <trkpt lat="44.73128" lon="0.48707">
        <ele>131.5</ele>
        <time>2023-07-14T07:40:36Z</time>
      </trkpt>
      <trkpt lat="44.73127" lon="0.48709">
        <ele>131.6</ele>
        <time>2023-07-14T07:40:37Z</time>
      </trkpt>
      <trkpt lat="44.73125" lon="0.48713">
        <ele>131.8</ele>
        <time>2023-07-14T07:40:39Z</time>
      </trkpt>
      <trkpt lat="44.73123" lon="0.48717">
        <ele>132</ele>
        <time>2023-07-14T07:40:41Z</time>
      </trkpt>
      <trkpt lat="44.73121" lon="0.48722">
        <ele>132.3</ele>
        <time>2023-07-14T07:40:43Z</time>
      </trkpt>
      <trkpt lat="44.73118" lon="0.48726">
        <ele>132.6</ele>
        <time>2023-07-14T07:40:45Z</time>
      </trkpt>
      <trkpt lat="44.73116" lon="0.48731">
        <ele>132.9</ele>
        <time>2023-07-14T07:40:47Z</time>
      </trkpt>
      <trkpt lat="44.73114" lon="0.48735">
        <ele>133.2</ele>
        <time>2023-07-14T07:40:49Z</time>
      </trkpt>
      <trkpt lat="44.73112" lon="0.4874">
        <ele>133.5</ele>
        <time>2023-07-14T07:40:51Z</time>
      </trkpt>
      <trkpt lat="44.73111" lon="0.48742">
        <ele>133.6</ele>
        <time>2023-07-14T07:40:52Z</time>
      </trkpt>
      <trkpt lat="44.73111" lon="0.48744">
        <ele>133.8</ele>
        <time>2023-07-14T07:40:53Z</time>
      </trkpt>
      <trkpt lat="44.73109" lon="0.48749">
        <ele>134.2</ele>
        <time>2023-07-14T07:40:55Z</time>
      </trkpt>
      <trkpt lat="44.73107" lon="0.48753">
        <ele>134.5</ele>
        <time>2023-07-14T07:40:57Z</time>
      </trkpt>
      <trkpt lat="44.73107" lon="0.48756">
        <ele>134.7</ele>
        <time>2023-07-14T07:40:58Z</time>
      </trkpt>
      <trkpt lat="44.73106" lon="0.48758">
        <ele>134.9</ele>
        <time>2023-07-14T07:40:59Z</time>
      </trkpt>
      <trkpt lat="44.73106" lon="0.48761">
        <ele>135</ele>
        <time>2023-07-14T07:41:00Z</time>
      </trkpt>
      <trkpt lat="44.73105" lon="0.48763">
        <ele>135.2</ele>
        <time>2023-07-14T07:41:01Z</time>
      </trkpt>
      <trkpt lat="44.73103" lon="0.48769">
        <ele>135.5</ele>
        <time>2023-07-14T07:41:03Z</time>
      </trkpt>
      <trkpt lat="44.73102" lon="0.48774">
        <ele>135.8</ele>
        <time>2023-07-14T07:41:05Z</time>
      </trkpt>
      <trkpt lat="44.73102" lon="0.48777">
        <ele>135.9</ele>
        <time>2023-07-14T07:41:06Z</time>
      </trkpt>
      <trkpt lat="44.73101" lon="0.4878">
        <ele>136</ele>
        <time>2023-07-14T07:41:07Z</time>
      </trkpt>
      <trkpt lat="44.73099" lon="0.48785">
        <ele>136.2</ele>
        <time>2023-07-14T07:41:09Z</time>
      </trkpt>
      <trkpt lat="44.73099" lon="0.48788">
        <ele>136.3</ele>
        <time>2023-07-14T07:41:10Z</time>
      </trkpt>
      <trkpt lat="44.73098" lon="0.48791">
        <ele>136.4</ele>
        <time>2023-07-14T07:41:11Z</time>
      </trkpt>
      <trkpt lat="44.73097" lon="0.48797">
        <ele>136.6</ele>
        <time>2023-07-14T07:41:13Z</time>
      </trkpt>
      <trkpt lat="44.73097" lon="0.488">
        <ele>136.7</ele>
        <time>2023-07-14T07:41:14Z</time>
      </trkpt>
      <trkpt lat="44.73096" lon="0.48803">
        <ele>136.8</ele>
        <time>2023-07-14T07:41:15Z</time>
      </trkpt>
      <trkpt lat="44.73095" lon="0.48809">
        <ele>136.9</ele>
        <time>2023-07-14T07:41:17Z</time>
      </trkpt>
      <trkpt lat="44.73093" lon="0.48816">
        <ele>137.1</ele>
        <time>2023-07-14T07:41:19Z</time>
      </trkpt>
      <trkpt lat="44.73092" lon="0.48822">
        <ele>137.2</ele>
        <time>2023-07-14T07:41:21Z</time>
      </trkpt>
      <trkpt lat="44.7309" lon="0.48829">
        <ele>137.3</ele>
        <time>2023-07-14T07:41:23Z</time>
      </trkpt>
      <trkpt lat="44.73089" lon="0.48833">
        <ele>137.4</ele>
        <time>2023-07-14T07:41:24Z</time>
      </trkpt>
      <trkpt lat="44.73089" lon="0.48837">
        <ele>137.4</ele>
        <time>2023-07-14T07:41:25Z</time>
      </trkpt>
      <trkpt lat="44.73087" lon="0.48844">
        <ele>137.5</ele>
        <time>2023-07-14T07:41:27Z</time>
      </trkpt>
      <trkpt lat="44.73085" lon="0.48852">
        <ele>137.6</ele>
        <time>2023-07-14T07:41:29Z</time>
      </trkpt>
      <trkpt lat="44.73083" lon="0.48861">
        <ele>137.8</ele>
        <time>2023-07-14T07:41:31Z</time>
      </trkpt>
      <trkpt lat="44.73082" lon="0.48869">
        <ele>137.9</ele>
        <time>2023-07-14T07:41:33Z</time>
      </trkpt>
      <trkpt lat="44.73081" lon="0.48874">
        <ele>138</ele>
        <time>2023-07-14T07:41:34Z</time>
      </trkpt>
      <trkpt lat="44.7308" lon="0.48878">
        <ele>138.1</ele>
        <time>2023-07-14T07:41:35Z</time>
      </trkpt>
      <trkpt lat="44.73078" lon="0.48887">
        <ele>138.2</ele>
        <time>2023-07-14T07:41:37Z</time>
      </trkpt>
      <trkpt lat="44.73076" lon="0.48896">
        <ele>138.3</ele>
        <time>2023-07-14T07:41:39Z</time>
      </trkpt>
      <trkpt lat="44.73075" lon="0.48905">
        <ele>138.5</ele>
        <time>2023-07-14T07:41:41Z</time>
      </trkpt>
      <trkpt lat="44.73073" lon="0.48914">
        <ele>138.7</ele>
        <time>2023-07-14T07:41:43Z</time>
      </trkpt>
      <trkpt lat="44.73071" lon="0.48922">
        <ele>138.9</ele>
        <time>2023-07-14T07:41:45Z</time>
      </trkpt>
      <trkpt lat="44.7307" lon="0.48931">
        <ele>139.1</ele>
        <time>2023-07-14T07:41:47Z</time>
      </trkpt>
      <trkpt lat="44.73069" lon="0.4894">
        <ele>139.3</ele>
        <time>2023-07-14T07:41:49Z</time>
      </trkpt>
      <trkpt lat="44.73068" lon="0.48945">
        <ele>139.4</ele>
        <time>2023-07-14T07:41:50Z</time>
      </trkpt>
      <trkpt lat="44.73067" lon="0.4895">
        <ele>139.5</ele>
        <time>2023-07-14T07:41:51Z</time>
      </trkpt>
      <trkpt lat="44.73066" lon="0.4896">
        <ele>139.7</ele>
        <time>2023-07-14T07:41:53Z</time>
      </trkpt>
      <trkpt lat="44.73064" lon="0.4897">
        <ele>140</ele>
        <time>2023-07-14T07:41:55Z</time>
      </trkpt>
      <trkpt lat="44.73061" lon="0.4898">
        <ele>140.3</ele>
        <time>2023-07-14T07:41:57Z</time>
      </trkpt>
      <trkpt lat="44.73059" lon="0.4899">
        <ele>140.6</ele>
        <time>2023-07-14T07:41:59Z</time>
      </trkpt>
      <trkpt lat="44.73057" lon="0.49">
        <ele>140.8</ele>
        <time>2023-07-14T07:42:01Z</time>
      </trkpt>
      <trkpt lat="44.73055" lon="0.49011">
        <ele>141.1</ele>
        <time>2023-07-14T07:42:03Z</time>
      </trkpt>
      <trkpt lat="44.73055" lon="0.49017">
        <ele>141.2</ele>
        <time>2023-07-14T07:42:04Z</time>
      </trkpt>
      <trkpt lat="44.73054" lon="0.49022">
        <ele>141.3</ele>
        <time>2023-07-14T07:42:05Z</time>
      </trkpt>
      <trkpt lat="44.73055" lon="0.49034">
        <ele>141.6</ele>
        <time>2023-07-14T07:42:07Z</time>
      </trkpt>
      <trkpt lat="44.73054" lon="0.49046">
        <ele>141.7</ele>
        <time>2023-07-14T07:42:09Z</time>
      </trkpt>
      <trkpt lat="44.73054" lon="0.49052">
        <ele>141.7</ele>
        <time>2023-07-14T07:42:10Z</time>
      </trkpt>
      <trkpt lat="44.73053" lon="0.49058">
        <ele>141.7</ele>
        <time>2023-07-14T07:42:11Z</time>
      </trkpt>
      <trkpt lat="44.73053" lon="0.49071">
        <ele>141.7</ele>
        <time>2023-07-14T07:42:13Z</time>
      </trkpt>
      <trkpt lat="44.73053" lon="0.49084">
        <ele>141.6</ele>
        <time>2023-07-14T07:42:15Z</time>
      </trkpt>
      <trkpt lat="44.73055" lon="0.49097">
        <ele>141.6</ele>
        <time>2023-07-14T07:42:17Z</time>
      </trkpt>
      <trkpt lat="44.73056" lon="0.49111">
        <ele>141.5</ele>
        <time>2023-07-14T07:42:19Z</time>
      </trkpt>
      <trkpt lat="44.73056" lon="0.49118">
        <ele>141.5</ele>
        <time>2023-07-14T07:42:20Z</time>
      </trkpt>
      <trkpt lat="44.73055" lon="0.49125">
        <ele>141.5</ele>
        <time>2023-07-14T07:42:21Z</time>
      </trkpt>
      <trkpt lat="44.73052" lon="0.49138">
        <ele>141.5</ele>
        <time>2023-07-14T07:42:23Z</time>
      </trkpt>
      <trkpt lat="44.73051" lon="0.49151">
        <ele>141.6</ele>
        <time>2023-07-14T07:42:25Z</time>
      </trkpt>
      <trkpt lat="44.7305" lon="0.49165">
        <ele>141.6</ele>
        <time>2023-07-14T07:42:27Z</time>
      </trkpt>
      <trkpt lat="44.73049" lon="0.49178">
        <ele>141.6</ele>
        <time>2023-07-14T07:42:29Z</time>
      </trkpt>
      <trkpt lat="44.73048" lon="0.49185">
        <ele>141.6</ele>
        <time>2023-07-14T07:42:30Z</time>
      </trkpt>
      <trkpt lat="44.73048" lon="0.49192">
        <ele>141.6</ele>
        <time>2023-07-14T07:42:31Z</time>
      </trkpt>
      <trkpt lat="44.73047" lon="0.49207">
        <ele>141.6</ele>
        <time>2023-07-14T07:42:33Z</time>
      </trkpt>
      <trkpt lat="44.73047" lon="0.49221">
        <ele>141.5</ele>
        <time>2023-07-14T07:42:35Z</time>
      </trkpt>
      <trkpt lat="44.73046" lon="0.49236">
        <ele>141.5</ele>
        <time>2023-07-14T07:42:37Z</time>
      </trkpt>
      <trkpt lat="44.73046" lon="0.49249">
        <ele>141.5</ele>
        <time>2023-07-14T07:42:39Z</time>
      </trkpt>
      <trkpt lat="44.73046" lon="0.49262">
        <ele>141.6</ele>
        <time>2023-07-14T07:42:41Z</time>
      </trkpt>
      <trkpt lat="44.73046" lon="0.49275">
        <ele>141.8</ele>
        <time>2023-07-14T07:42:43Z</time>
      </trkpt>
      <trkpt lat="44.73046" lon="0.49289">
        <ele>142.1</ele>
        <time>2023-07-14T07:42:45Z</time>
      </trkpt>
      <trkpt lat="44.73046" lon="0.49302">
        <ele>142.3</ele>
        <time>2023-07-14T07:42:47Z</time>
      </trkpt>
      <trkpt lat="44.73046" lon="0.49314">
        <ele>142.5</ele>
        <time>2023-07-14T07:42:49Z</time>
      </trkpt>
      <trkpt lat="44.73045" lon="0.49326">
        <ele>142.7</ele>
        <time>2023-07-14T07:42:51Z</time>
      </trkpt>
      <trkpt lat="44.73045" lon="0.49332">
        <ele>142.9</ele>
        <time>2023-07-14T07:42:52Z</time>
      </trkpt>
      <trkpt lat="44.73045" lon="0.49338">
        <ele>143</ele>
        <time>2023-07-14T07:42:53Z</time>
      </trkpt>
      <trkpt lat="44.73045" lon="0.49349">
        <ele>143.3</ele>
        <time>2023-07-14T07:42:55Z</time>
      </trkpt>
      <trkpt lat="44.73046" lon="0.4936">
        <ele>143.6</ele>
        <time>2023-07-14T07:42:57Z</time>
      </trkpt>
      <trkpt lat="44.73047" lon="0.49371">
        <ele>143.9</ele>
        <time>2023-07-14T07:42:59Z</time>
      </trkpt>
      <trkpt lat="44.73048" lon="0.4938">
        <ele>144.2</ele>
        <time>2023-07-14T07:43:01Z</time>
      </trkpt>
      <trkpt lat="44.7305" lon="0.4939">
        <ele>144.5</ele>
        <time>2023-07-14T07:43:03Z</time>
      </trkpt>
      <trkpt lat="44.73051" lon="0.494">
        <ele>144.9</ele>
        <time>2023-07-14T07:43:05Z</time>
      </trkpt>
      <trkpt lat="44.73052" lon="0.49405">
        <ele>145.1</ele>
        <time>2023-07-14T07:43:06Z</time>
      </trkpt>
      <trkpt lat="44.73053" lon="0.49409">
        <ele>145.3</ele>
        <time>2023-07-14T07:43:07Z</time>
      </trkpt>
      <trkpt lat="44.73055" lon="0.49418">
        <ele>145.7</ele>
        <time>2023-07-14T07:43:09Z</time>
      </trkpt>
      <trkpt lat="44.73057" lon="0.49426">
        <ele>146.1</ele>
        <time>2023-07-14T07:43:11Z</time>
      </trkpt>
      <trkpt lat="44.73059" lon="0.49433">
        <ele>146.5</ele>
        <time>2023-07-14T07:43:13Z</time>
      </trkpt>
      <trkpt lat="44.73059" lon="0.49436">
        <ele>146.7</ele>
        <time>2023-07-14T07:43:14Z</time>
      </trkpt>
      <trkpt lat="44.7306" lon="0.49439">
        <ele>146.9</ele>
        <time>2023-07-14T07:43:15Z</time>
      </trkpt>
      <trkpt lat="44.73062" lon="0.49445">
        <ele>147.3</ele>
        <time>2023-07-14T07:43:17Z</time>
      </trkpt>
      <trkpt lat="44.73063" lon="0.49452">
        <ele>147.8</ele>
        <time>2023-07-14T07:43:19Z</time>
      </trkpt>
      <trkpt lat="44.73065" lon="0.49457">
        <ele>148.2</ele>
        <time>2023-07-14T07:43:21Z</time>
      </trkpt>
      <trkpt lat="44.73066" lon="0.49463">
        <ele>148.6</ele>
        <time>2023-07-14T07:43:23Z</time>
      </trkpt>
      <trkpt lat="44.73066" lon="0.49466">
        <ele>148.7</ele>
        <time>2023-07-14T07:43:24Z</time>
      </trkpt>
      <trkpt lat="44.73067" lon="0.49469">
        <ele>148.9</ele>
        <time>2023-07-14T07:43:25Z</time>
      </trkpt>
      <trkpt lat="44.73068" lon="0.49474">
        <ele>149.3</ele>
        <time>2023-07-14T07:43:27Z</time>
      </trkpt>
      <trkpt lat="44.7307" lon="0.49479">
        <ele>149.6</ele>
        <time>2023-07-14T07:43:29Z</time>
      </trkpt>
      <trkpt lat="44.73071" lon="0.49484">
        <ele>149.9</ele>
        <time>2023-07-14T07:43:31Z</time>
      </trkpt>
      <trkpt lat="44.73072" lon="0.49487">
        <ele>150.1</ele>
        <time>2023-07-14T07:43:32Z</time>
      </trkpt>
      <trkpt lat="44.73072" lon="0.4949">
        <ele>150.3</ele>
        <time>2023-07-14T07:43:33Z</time>
      </trkpt>
      <trkpt lat="44.73073" lon="0.49495">
        <ele>150.6</ele>
        <time>2023-07-14T07:43:35Z</time>
      </trkpt>
      <trkpt lat="44.73074" lon="0.49501">
        <ele>151</ele>
        <time>2023-07-14T07:43:37Z</time>
      </trkpt>
      <trkpt lat="44.73076" lon="0.49507">
        <ele>151.3</ele>
        <time>2023-07-14T07:43:39Z</time>
      </trkpt>
      <trkpt lat="44.73076" lon="0.49513">
        <ele>151.7</ele>
        <time>2023-07-14T07:43:41Z</time>
      </trkpt>
      <trkpt lat="44.73077" lon="0.49518">
        <ele>152</ele>
        <time>2023-07-14T07:43:43Z</time>
      </trkpt>
      <trkpt lat="44.73079" lon="0.49524">
        <ele>152.2</ele>
        <time>2023-07-14T07:43:45Z</time>
      </trkpt>
      <trkpt lat="44.73079" lon="0.49531">
        <ele>152.4</ele>
        <time>2023-07-14T07:43:47Z</time>
      </trkpt>
      <trkpt lat="44.73079" lon="0.49533">
        <ele>152.5</ele>
        <time>2023-07-14T07:43:48Z</time>
      </trkpt>
      <trkpt lat="44.7308" lon="0.49536">
        <ele>152.6</ele>
        <time>2023-07-14T07:43:49Z</time>
      </trkpt>
      <trkpt lat="44.73081" lon="0.49543">
        <ele>152.7</ele>
        <time>2023-07-14T07:43:51Z</time>
      </trkpt>
      <trkpt lat="44.73082" lon="0.4955">
        <ele>152.8</ele>
        <time>2023-07-14T07:43:53Z</time>
      </trkpt>
      <trkpt lat="44.73083" lon="0.49553">
        <ele>152.9</ele>
        <time>2023-07-14T07:43:54Z</time>
      </trkpt>
      <trkpt lat="44.73084" lon="0.49557">
        <ele>152.9</ele>
        <time>2023-07-14T07:43:55Z</time>
      </trkpt>
      <trkpt lat="44.73084" lon="0.49563">
        <ele>153</ele>
        <time>2023-07-14T07:43:57Z</time>
      </trkpt>
      <trkpt lat="44.73083" lon="0.49566">
        <ele>153.3</ele>
        <time>2023-07-14T07:43:58Z</time>
      </trkpt>
      <trkpt lat="44.7308" lon="0.49566">
        <ele>153.5</ele>
        <time>2023-07-14T07:43:59Z</time>
      </trkpt>
      <trkpt lat="44.73076" lon="0.49568">
        <ele>153.9</ele>
        <time>2023-07-14T07:44:01Z</time>
      </trkpt>
      <trkpt lat="44.73071" lon="0.4957">
        <ele>154.3</ele>
        <time>2023-07-14T07:44:03Z</time>
      </trkpt>
      <trkpt lat="44.73068" lon="0.49571">
        <ele>154.6</ele>
        <time>2023-07-14T07:44:05Z</time>
      </trkpt>
      <trkpt lat="44.73064" lon="0.49573">
        <ele>154.9</ele>
        <time>2023-07-14T07:44:07Z</time>
      </trkpt>
      <trkpt lat="44.7306" lon="0.49574">
        <ele>155.2</ele>
        <time>2023-07-14T07:44:09Z</time>
      </trkpt>
      <trkpt lat="44.73057" lon="0.49575">
        <ele>155.5</ele>
        <time>2023-07-14T07:44:11Z</time>
      </trkpt>
      <trkpt lat="44.73053" lon="0.49577">
        <ele>155.8</ele>
        <time>2023-07-14T07:44:13Z</time>
      </trkpt>
      <trkpt lat="44.73049" lon="0.49577">
        <ele>156.1</ele>
        <time>2023-07-14T07:44:15Z</time>
      </trkpt>
      <trkpt lat="44.73046" lon="0.49576">
        <ele>156.4</ele>
        <time>2023-07-14T07:44:17Z</time>
      </trkpt>
      <trkpt lat="44.73045" lon="0.49576">
        <ele>156.5</ele>
        <time>2023-07-14T07:44:18Z</time>
      </trkpt>
      <trkpt lat="44.73043" lon="0.49576">
        <ele>156.7</ele>
        <time>2023-07-14T07:44:19Z</time>
      </trkpt>
      <trkpt lat="44.73039" lon="0.49576">
        <ele>157</ele>
        <time>2023-07-14T07:44:21Z</time>
      </trkpt>
      <trkpt lat="44.73035" lon="0.49577">
        <ele>157.3</ele>
        <time>2023-07-14T07:44:23Z</time>
      </trkpt>
      <trkpt lat="44.73032" lon="0.49577">
        <ele>157.6</ele>
        <time>2023-07-14T07:44:25Z</time>
      </trkpt>
      <trkpt lat="44.73028" lon="0.49576">
        <ele>157.9</ele>
        <time>2023-07-14T07:44:27Z</time>
      </trkpt>
      <trkpt lat="44.73024" lon="0.49576">
        <ele>158.3</ele>
        <time>2023-07-14T07:44:29Z</time>
      </trkpt>
      <trkpt lat="44.73023" lon="0.49576">
        <ele>158.4</ele>
        <time>2023-07-14T07:44:30Z</time>
      </trkpt>
      <trkpt lat="44.73021" lon="0.49576">
        <ele>158.6</ele>
        <time>2023-07-14T07:44:31Z</time>
      </trkpt>
      <trkpt lat="44.73017" lon="0.49576">
        <ele>158.9</ele>
        <time>2023-07-14T07:44:33Z</time>
      </trkpt>
      <trkpt lat="44.73013" lon="0.49576">
        <ele>159.2</ele>
        <time>2023-07-14T07:44:35Z</time>
      </trkpt>
      <trkpt lat="44.73009" lon="0.49575">
        <ele>159.6</ele>
        <time>2023-07-14T07:44:37Z</time>
      </trkpt>
      <trkpt lat="44.73005" lon="0.49574">
        <ele>159.9</ele>
        <time>2023-07-14T07:44:39Z</time>
      </trkpt>
      <trkpt lat="44.73001" lon="0.49574">
        <ele>160.2</ele>
        <time>2023-07-14T07:44:41Z</time>
      </trkpt>
      <trkpt lat="44.72998" lon="0.49574">
        <ele>160.5</ele>
        <time>2023-07-14T07:44:43Z</time>
      </trkpt>
      <trkpt lat="44.72994" lon="0.49575">
        <ele>160.8</ele>
        <time>2023-07-14T07:44:45Z</time>
      </trkpt>
      <trkpt lat="44.7299" lon="0.49575">
        <ele>161.1</ele>
        <time>2023-07-14T07:44:47Z</time>
      </trkpt>
      <trkpt lat="44.72986" lon="0.49576">
        <ele>161.4</ele>
        <time>2023-07-14T07:44:49Z</time>
      </trkpt>
      <trkpt lat="44.72982" lon="0.49576">
        <ele>161.7</ele>
        <time>2023-07-14T07:44:51Z</time>
      </trkpt>
      <trkpt lat="44.72977" lon="0.49576">
        <ele>162</ele>
        <time>2023-07-14T07:44:53Z</time>
      </trkpt>
      <trkpt lat="44.72972" lon="0.49576">
        <ele>162.3</ele>
        <time>2023-07-14T07:44:55Z</time>
      </trkpt>
      <trkpt lat="44.72968" lon="0.49576">
        <ele>162.6</ele>
        <time>2023-07-14T07:44:57Z</time>
      </trkpt>
      <trkpt lat="44.72964" lon="0.49576">
        <ele>162.9</ele>
        <time>2023-07-14T07:44:59Z</time>
      </trkpt>
      <trkpt lat="44.72961" lon="0.49577">
        <ele>163</ele>
        <time>2023-07-14T07:45:00Z</time>
      </trkpt>
      <trkpt lat="44.72959" lon="0.49577">
        <ele>163.1</ele>
        <time>2023-07-14T07:45:01Z</time>
      </trkpt>
      <trkpt lat="44.72955" lon="0.49578">
        <ele>163.3</ele>
        <time>2023-07-14T07:45:03Z</time>
      </trkpt>
      <trkpt lat="44.7295" lon="0.49579">
        <ele>163.6</ele>
        <time>2023-07-14T07:45:05Z</time>
      </trkpt>
      <trkpt lat="44.72945" lon="0.4958">
        <ele>163.8</ele>
        <time>2023-07-14T07:45:07Z</time>
      </trkpt>
      <trkpt lat="44.72941" lon="0.49581">
        <ele>164</ele>
        <time>2023-07-14T07:45:09Z</time>
      </trkpt>
      <trkpt lat="44.72937" lon="0.49582">
        <ele>164.2</ele>
        <time>2023-07-14T07:45:11Z</time>
      </trkpt>
      <trkpt lat="44.72934" lon="0.49583">
        <ele>164.3</ele>
        <time>2023-07-14T07:45:12Z</time>
      </trkpt>
      <trkpt lat="44.72932" lon="0.49583">
        <ele>164.4</ele>
        <time>2023-07-14T07:45:13Z</time>
      </trkpt>
      <trkpt lat="44.72928" lon="0.49585">
        <ele>164.6</ele>
        <time>2023-07-14T07:45:15Z</time>
      </trkpt>
      <trkpt lat="44.72924" lon="0.49586">
        <ele>164.8</ele>
        <time>2023-07-14T07:45:17Z</time>
      </trkpt>
      <trkpt lat="44.7292" lon="0.49588">
        <ele>165</ele>
        <time>2023-07-14T07:45:19Z</time>
      </trkpt>
      <trkpt lat="44.72915" lon="0.4959">
        <ele>165.3</ele>
        <time>2023-07-14T07:45:21Z</time>
      </trkpt>
      <trkpt lat="44.72913" lon="0.49591">
        <ele>165.6</ele>
        <time>2023-07-14T07:45:22Z</time>
      </trkpt>
      <trkpt lat="44.72911" lon="0.49594">
        <ele>165.8</ele>
        <time>2023-07-14T07:45:23Z</time>
      </trkpt>
      <trkpt lat="44.7291" lon="0.49597">
        <ele>166</ele>
        <time>2023-07-14T07:45:24Z</time>
      </trkpt>
      <trkpt lat="44.7291" lon="0.49601">
        <ele>166.1</ele>
        <time>2023-07-14T07:45:25Z</time>
      </trkpt>
      <trkpt lat="44.72911" lon="0.49604">
        <ele>166.3</ele>
        <time>2023-07-14T07:45:26Z</time>
      </trkpt>
      <trkpt lat="44.72911" lon="0.49607">
        <ele>166.5</ele>
        <time>2023-07-14T07:45:27Z</time>
      </trkpt>
      <trkpt lat="44.72912" lon="0.49613">
        <ele>166.8</ele>
        <time>2023-07-14T07:45:29Z</time>
      </trkpt>
      <trkpt lat="44.72913" lon="0.49619">
        <ele>167</ele>
        <time>2023-07-14T07:45:31Z</time>
      </trkpt>
      <trkpt lat="44.72913" lon="0.49625">
        <ele>167.3</ele>
        <time>2023-07-14T07:45:33Z</time>
      </trkpt>
      <trkpt lat="44.72914" lon="0.49631">
        <ele>167.6</ele>
        <time>2023-07-14T07:45:35Z</time>
      </trkpt>
      <trkpt lat="44.72914" lon="0.49638">
        <ele>167.9</ele>
        <time>2023-07-14T07:45:37Z</time>
      </trkpt>
      <trkpt lat="44.72914" lon="0.49643">
        <ele>168.2</ele>
        <time>2023-07-14T07:45:39Z</time>
      </trkpt>
      <trkpt lat="44.72914" lon="0.49649">
        <ele>168.4</ele>
        <time>2023-07-14T07:45:41Z</time>
      </trkpt>
      <trkpt lat="44.72914" lon="0.49656">
        <ele>168.7</ele>
        <time>2023-07-14T07:45:43Z</time>
      </trkpt>
      <trkpt lat="44.72915" lon="0.49659">
        <ele>168.8</ele>
        <time>2023-07-14T07:45:44Z</time>
      </trkpt>
      <trkpt lat="44.72915" lon="0.49662">
        <ele>169</ele>
        <time>2023-07-14T07:45:45Z</time>
      </trkpt>
      <trkpt lat="44.72915" lon="0.49668">
        <ele>169.2</ele>
        <time>2023-07-14T07:45:47Z</time>
      </trkpt>
      <trkpt lat="44.72916" lon="0.49675">
        <ele>169.4</ele>
        <time>2023-07-14T07:45:49Z</time>
      </trkpt>
      <trkpt lat="44.72916" lon="0.49678">
        <ele>169.6</ele>
        <time>2023-07-14T07:45:50Z</time>
      </trkpt>
      <trkpt lat="44.72916" lon="0.49682">
        <ele>169.7</ele>
        <time>2023-07-14T07:45:51Z</time>
      </trkpt>
      <trkpt lat="44.72917" lon="0.4969">
        <ele>170</ele>
        <time>2023-07-14T07:45:53Z</time>
      </trkpt>
      <trkpt lat="44.72917" lon="0.49696">
        <ele>170.2</ele>
        <time>2023-07-14T07:45:55Z</time>
      </trkpt>
      <trkpt lat="44.72917" lon="0.49702">
        <ele>170.5</ele>
        <time>2023-07-14T07:45:57Z</time>
      </trkpt>
      <trkpt lat="44.72917" lon="0.49709">
        <ele>170.7</ele>
        <time>2023-07-14T07:45:59Z</time>
      </trkpt>
      <trkpt lat="44.72917" lon="0.49715">
        <ele>170.9</ele>
        <time>2023-07-14T07:46:01Z</time>
      </trkpt>
      <trkpt lat="44.72917" lon="0.49722">
        <ele>171.1</ele>
        <time>2023-07-14T07:46:03Z</time>
      </trkpt>
      <trkpt lat="44.72916" lon="0.49729">
        <ele>171.4</ele>
        <time>2023-07-14T07:46:05Z</time>
      </trkpt>
      <trkpt lat="44.72915" lon="0.49737">
        <ele>171.6</ele>
        <time>2023-07-14T07:46:07Z</time>
      </trkpt>
      <trkpt lat="44.72913" lon="0.49743">
        <ele>171.8</ele>
        <time>2023-07-14T07:46:09Z</time>
      </trkpt>
      <trkpt lat="44.72912" lon="0.49746">
        <ele>171.9</ele>
        <time>2023-07-14T07:46:10Z</time>
      </trkpt>
      <trkpt lat="44.7291" lon="0.4975">
        <ele>172</ele>
        <time>2023-07-14T07:46:11Z</time>
      </trkpt>
      <trkpt lat="44.72909" lon="0.49757">
        <ele>172.2</ele>
        <time>2023-07-14T07:46:13Z</time>
      </trkpt>
      <trkpt lat="44.72907" lon="0.49764">
        <ele>172.4</ele>
        <time>2023-07-14T07:46:15Z</time>
      </trkpt>
      <trkpt lat="44.72904" lon="0.49772">
        <ele>172.5</ele>
        <time>2023-07-14T07:46:17Z</time>
      </trkpt>
      <trkpt lat="44.72901" lon="0.4978">
        <ele>172.7</ele>
        <time>2023-07-14T07:46:19Z</time>
      </trkpt>
      <trkpt lat="44.72899" lon="0.49787">
        <ele>172.9</ele>
        <time>2023-07-14T07:46:21Z</time>
      </trkpt>
      <trkpt lat="44.72898" lon="0.4979">
        <ele>172.9</ele>
        <time>2023-07-14T07:46:22Z</time>
      </trkpt>
      <trkpt lat="44.72896" lon="0.49793">
        <ele>173</ele>
        <time>2023-07-14T07:46:23Z</time>
      </trkpt>
      <trkpt lat="44.72895" lon="0.49798">
        <ele>173</ele>
        <time>2023-07-14T07:46:25Z</time>
      </trkpt>
      <trkpt lat="44.72894" lon="0.49802">
        <ele>173.1</ele>
        <time>2023-07-14T07:46:27Z</time>
      </trkpt>
      <trkpt lat="44.72894" lon="0.49805">
        <ele>173.2</ele>
        <time>2023-07-14T07:46:29Z</time>
      </trkpt>
      <trkpt lat="44.72894" lon="0.49806">
        <ele>173.3</ele>
        <time>2023-07-14T07:46:31Z</time>
      </trkpt>
      <trkpt lat="44.72894" lon="0.49806">
        <ele>173.3</ele>
        <time>2023-07-14T07:46:32Z</time>
      </trkpt>
      <trkpt lat="44.72888" lon="0.49814">
        <ele>174</ele>
        <time>2023-07-14T07:53:43Z</time>
      </trkpt>
      <trkpt lat="44.72885" lon="0.49818">
        <ele>174.3</ele>
        <time>2023-07-14T07:53:45Z</time>
      </trkpt>
      <trkpt lat="44.72883" lon="0.49823">
        <ele>174.7</ele>
        <time>2023-07-14T07:53:47Z</time>
      </trkpt>
      <trkpt lat="44.72882" lon="0.49825">
        <ele>174.9</ele>
        <time>2023-07-14T07:53:48Z</time>
      </trkpt>
      <trkpt lat="44.72881" lon="0.49828">
        <ele>175.1</ele>
        <time>2023-07-14T07:53:49Z</time>
      </trkpt>
      <trkpt lat="44.72878" lon="0.49833">
        <ele>175.4</ele>
        <time>2023-07-14T07:53:51Z</time>
      </trkpt>
      <trkpt lat="44.72875" lon="0.4984">
        <ele>175.9</ele>
        <time>2023-07-14T07:53:53Z</time>
      </trkpt>
      <trkpt lat="44.72874" lon="0.49843">
        <ele>176.2</ele>
        <time>2023-07-14T07:53:54Z</time>
      </trkpt>
      <trkpt lat="44.72872" lon="0.49846">
        <ele>176.4</ele>
        <time>2023-07-14T07:53:55Z</time>
      </trkpt>
      <trkpt lat="44.72869" lon="0.49852">
        <ele>176.9</ele>
        <time>2023-07-14T07:53:57Z</time>
      </trkpt>
      <trkpt lat="44.72866" lon="0.4986">
        <ele>176.8</ele>
        <time>2023-07-14T07:53:59Z</time>
      </trkpt>
      <trkpt lat="44.72863" lon="0.49868">
        <ele>176.7</ele>
        <time>2023-07-14T07:54:01Z</time>
      </trkpt>
      <trkpt lat="44.72859" lon="0.49876">
        <ele>176.6</ele>
        <time>2023-07-14T07:54:03Z</time>
      </trkpt>
      <trkpt lat="44.72856" lon="0.49883">
        <ele>176.5</ele>
        <time>2023-07-14T07:54:05Z</time>
      </trkpt>
      <trkpt lat="44.72854" lon="0.49887">
        <ele>176.5</ele>
        <time>2023-07-14T07:54:06Z</time>
      </trkpt>
      <trkpt lat="44.72852" lon="0.49891">
        <ele>176.4</ele>
        <time>2023-07-14T07:54:07Z</time>
      </trkpt>
      <trkpt lat="44.72848" lon="0.49898">
        <ele>176.3</ele>
        <time>2023-07-14T07:54:09Z</time>
      </trkpt>
      <trkpt lat="44.72844" lon="0.49906">
        <ele>176.3</ele>
        <time>2023-07-14T07:54:11Z</time>
      </trkpt>
      <trkpt lat="44.72842" lon="0.4991">
        <ele>176.3</ele>
        <time>2023-07-14T07:54:12Z</time>
      </trkpt>
      <trkpt lat="44.7284" lon="0.49915">
        <ele>176.2</ele>
        <time>2023-07-14T07:54:13Z</time>
      </trkpt>
      <trkpt lat="44.72835" lon="0.49923">
        <ele>176.2</ele>
        <time>2023-07-14T07:54:15Z</time>
      </trkpt>
      <trkpt lat="44.72832" lon="0.49928">
        <ele>176.1</ele>
        <time>2023-07-14T07:54:16Z</time>
      </trkpt>
      <trkpt lat="44.7283" lon="0.49932">
        <ele>176.1</ele>
        <time>2023-07-14T07:54:17Z</time>
      </trkpt>
      <trkpt lat="44.72827" lon="0.49936">
        <ele>176.1</ele>
        <time>2023-07-14T07:54:18Z</time>
      </trkpt>
      <trkpt lat="44.72824" lon="0.49941">
        <ele>176.1</ele>
        <time>2023-07-14T07:54:19Z</time>
      </trkpt>
      <trkpt lat="44.72821" lon="0.49946">
        <ele>176.1</ele>
        <time>2023-07-14T07:54:20Z</time>
      </trkpt>
      <trkpt lat="44.72818" lon="0.4995">
        <ele>176.1</ele>
        <time>2023-07-14T07:54:21Z</time>
      </trkpt>
      <trkpt lat="44.72811" lon="0.4996">
        <ele>176.1</ele>
        <time>2023-07-14T07:54:23Z</time>
      </trkpt>
      <trkpt lat="44.72805" lon="0.49969">
        <ele>176.1</ele>
        <time>2023-07-14T07:54:25Z</time>
      </trkpt>
      <trkpt lat="44.72802" lon="0.49974">
        <ele>176.1</ele>
        <time>2023-07-14T07:54:26Z</time>
      </trkpt>
      <trkpt lat="44.72799" lon="0.49979">
        <ele>176.1</ele>
        <time>2023-07-14T07:54:27Z</time>
      </trkpt>
      <trkpt lat="44.72794" lon="0.49988">
        <ele>176.1</ele>
        <time>2023-07-14T07:54:29Z</time>
      </trkpt>
      <trkpt lat="44.72791" lon="0.49993">
        <ele>176.1</ele>
        <time>2023-07-14T07:54:30Z</time>
      </trkpt>
      <trkpt lat="44.72789" lon="0.49998">
        <ele>176.1</ele>
        <time>2023-07-14T07:54:31Z</time>
      </trkpt>
      <trkpt lat="44.72787" lon="0.50002">
        <ele>176.1</ele>
        <time>2023-07-14T07:54:32Z</time>
      </trkpt>
      <trkpt lat="44.72784" lon="0.50007">
        <ele>176.1</ele>
        <time>2023-07-14T07:54:33Z</time>
      </trkpt>
      <trkpt lat="44.72782" lon="0.50013">
        <ele>176</ele>
        <time>2023-07-14T07:54:34Z</time>
      </trkpt>
      <trkpt lat="44.7278" lon="0.50018">
        <ele>176</ele>
        <time>2023-07-14T07:54:35Z</time>
      </trkpt>
      <trkpt lat="44.72776" lon="0.50028">
        <ele>176</ele>
        <time>2023-07-14T07:54:37Z</time>
      </trkpt>
      <trkpt lat="44.72773" lon="0.50032">
        <ele>176</ele>
        <time>2023-07-14T07:54:38Z</time>
      </trkpt>
      <trkpt lat="44.72771" lon="0.50036">
        <ele>176</ele>
        <time>2023-07-14T07:54:39Z</time>
      </trkpt>
      <trkpt lat="44.72766" lon="0.50044">
        <ele>176.1</ele>
        <time>2023-07-14T07:54:41Z</time>
      </trkpt>
      <trkpt lat="44.72763" lon="0.50048">
        <ele>176.1</ele>
        <time>2023-07-14T07:54:42Z</time>
      </trkpt>
      <trkpt lat="44.7276" lon="0.50051">
        <ele>176.1</ele>
        <time>2023-07-14T07:54:43Z</time>
      </trkpt>
      <trkpt lat="44.72754" lon="0.50058">
        <ele>176.2</ele>
        <time>2023-07-14T07:54:45Z</time>
      </trkpt>
      <trkpt lat="44.72745" lon="0.50064">
        <ele>176.3</ele>
        <time>2023-07-14T07:54:47Z</time>
      </trkpt>
      <trkpt lat="44.72741" lon="0.50068">
        <ele>176.3</ele>
        <time>2023-07-14T07:54:48Z</time>
      </trkpt>
      <trkpt lat="44.72738" lon="0.50072">
        <ele>176.4</ele>
        <time>2023-07-14T07:54:49Z</time>
      </trkpt>
      <trkpt lat="44.72735" lon="0.50076">
        <ele>176.4</ele>
        <time>2023-07-14T07:54:50Z</time>
      </trkpt>
      <trkpt lat="44.72732" lon="0.50082">
        <ele>176.5</ele>
        <time>2023-07-14T07:54:51Z</time>
      </trkpt>
      <trkpt lat="44.7273" lon="0.50087">
        <ele>176.5</ele>
        <time>2023-07-14T07:54:52Z</time>
      </trkpt>
      <trkpt lat="44.72728" lon="0.50093">
        <ele>176.6</ele>
        <time>2023-07-14T07:54:53Z</time>
      </trkpt>
      <trkpt lat="44.72723" lon="0.50103">
        <ele>176.7</ele>
        <time>2023-07-14T07:54:55Z</time>
      </trkpt>
      <trkpt lat="44.72721" lon="0.50108">
        <ele>176.8</ele>
        <time>2023-07-14T07:54:56Z</time>
      </trkpt>
      <trkpt lat="44.72718" lon="0.50112">
        <ele>176.8</ele>
        <time>2023-07-14T07:54:57Z</time>
      </trkpt>
      <trkpt lat="44.72713" lon="0.50122">
        <ele>177.1</ele>
        <time>2023-07-14T07:54:59Z</time>
      </trkpt>
      <trkpt lat="44.72708" lon="0.5013">
        <ele>177.3</ele>
        <time>2023-07-14T07:55:01Z</time>
      </trkpt>
      <trkpt lat="44.72706" lon="0.50134">
        <ele>177.3</ele>
        <time>2023-07-14T07:55:02Z</time>
      </trkpt>
      <trkpt lat="44.72704" lon="0.50137">
        <ele>177.4</ele>
        <time>2023-07-14T07:55:03Z</time>
      </trkpt>
      <trkpt lat="44.72702" lon="0.5014">
        <ele>177.5</ele>
        <time>2023-07-14T07:55:04Z</time>
      </trkpt>
      <trkpt lat="44.72699" lon="0.50143">
        <ele>177.6</ele>
        <time>2023-07-14T07:55:05Z</time>
      </trkpt>
      <trkpt lat="44.72697" lon="0.50147">
        <ele>177.8</ele>
        <time>2023-07-14T07:55:06Z</time>
      </trkpt>
      <trkpt lat="44.72694" lon="0.50151">
        <ele>177.9</ele>
        <time>2023-07-14T07:55:07Z</time>
      </trkpt>
      <trkpt lat="44.7269" lon="0.50159">
        <ele>178.1</ele>
        <time>2023-07-14T07:55:09Z</time>
      </trkpt>
      <trkpt lat="44.72687" lon="0.50163">
        <ele>178.3</ele>
        <time>2023-07-14T07:55:10Z</time>
      </trkpt>
      <trkpt lat="44.72685" lon="0.50167">
        <ele>178.3</ele>
        <time>2023-07-14T07:55:11Z</time>
      </trkpt>
      <trkpt lat="44.7268" lon="0.50175">
        <ele>178.4</ele>
        <time>2023-07-14T07:55:13Z</time>
      </trkpt>
      <trkpt lat="44.72675" lon="0.50183">
        <ele>178.6</ele>
        <time>2023-07-14T07:55:15Z</time>
      </trkpt>
      <trkpt lat="44.72673" lon="0.50187">
        <ele>178.6</ele>
        <time>2023-07-14T07:55:16Z</time>
      </trkpt>
      <trkpt lat="44.72671" lon="0.50192">
        <ele>178.7</ele>
        <time>2023-07-14T07:55:17Z</time>
      </trkpt>
      <trkpt lat="44.72666" lon="0.50199">
        <ele>178.7</ele>
        <time>2023-07-14T07:55:19Z</time>
      </trkpt>
      <trkpt lat="44.72661" lon="0.50208">
        <ele>178.6</ele>
        <time>2023-07-14T07:55:21Z</time>
      </trkpt>
      <trkpt lat="44.72658" lon="0.50214">
        <ele>178.5</ele>
        <time>2023-07-14T07:55:22Z</time>
      </trkpt>
      <trkpt lat="44.72655" lon="0.5022">
        <ele>178.4</ele>
        <time>2023-07-14T07:55:23Z</time>
      </trkpt>
      <trkpt lat="44.72652" lon="0.50226">
        <ele>178.3</ele>
        <time>2023-07-14T07:55:24Z</time>
      </trkpt>
      <trkpt lat="44.7265" lon="0.50232">
        <ele>178.2</ele>
        <time>2023-07-14T07:55:25Z</time>
      </trkpt>
      <trkpt lat="44.72647" lon="0.50238">
        <ele>178.1</ele>
        <time>2023-07-14T07:55:26Z</time>
      </trkpt>
      <trkpt lat="44.72644" lon="0.50244">
        <ele>178</ele>
        <time>2023-07-14T07:55:27Z</time>
      </trkpt>
      <trkpt lat="44.72641" lon="0.5025">
        <ele>177.9</ele>
        <time>2023-07-14T07:55:28Z</time>
      </trkpt>
      <trkpt lat="44.72637" lon="0.50255">
        <ele>177.8</ele>
        <time>2023-07-14T07:55:29Z</time>
      </trkpt>
      <trkpt lat="44.72634" lon="0.5026">
        <ele>177.8</ele>
        <time>2023-07-14T07:55:30Z</time>
      </trkpt>
      <trkpt lat="44.72631" lon="0.50265">
        <ele>177.7</ele>
        <time>2023-07-14T07:55:31Z</time>
      </trkpt>
      <trkpt lat="44.72624" lon="0.50275">
        <ele>177.6</ele>
        <time>2023-07-14T07:55:33Z</time>
      </trkpt>
      <trkpt lat="44.72618" lon="0.50286">
        <ele>177.6</ele>
        <time>2023-07-14T07:55:35Z</time>
      </trkpt>
      <trkpt lat="44.72612" lon="0.50296">
        <ele>177.8</ele>
        <time>2023-07-14T07:55:37Z</time>
      </trkpt>
      <trkpt lat="44.72606" lon="0.50305">
        <ele>178.1</ele>
        <time>2023-07-14T07:55:39Z</time>
      </trkpt>
      <trkpt lat="44.726" lon="0.50313">
        <ele>178.5</ele>
        <time>2023-07-14T07:55:41Z</time>
      </trkpt>
      <trkpt lat="44.72593" lon="0.5032">
        <ele>179</ele>
        <time>2023-07-14T07:55:43Z</time>
      </trkpt>
      <trkpt lat="44.72587" lon="0.50329">
        <ele>179.4</ele>
        <time>2023-07-14T07:55:45Z</time>
      </trkpt>
      <trkpt lat="44.72584" lon="0.50332">
        <ele>179.6</ele>
        <time>2023-07-14T07:55:46Z</time>
      </trkpt>
      <trkpt lat="44.72581" lon="0.50336">
        <ele>179.8</ele>
        <time>2023-07-14T07:55:47Z</time>
      </trkpt>
      <trkpt lat="44.72576" lon="0.50344">
        <ele>180.1</ele>
        <time>2023-07-14T07:55:49Z</time>
      </trkpt>
      <trkpt lat="44.72571" lon="0.50352">
        <ele>180.5</ele>
        <time>2023-07-14T07:55:51Z</time>
      </trkpt>
      <trkpt lat="44.72569" lon="0.50356">
        <ele>180.7</ele>
        <time>2023-07-14T07:55:52Z</time>
      </trkpt>
      <trkpt lat="44.72567" lon="0.5036">
        <ele>180.8</ele>
        <time>2023-07-14T07:55:53Z</time>
      </trkpt>
      <trkpt lat="44.72563" lon="0.50367">
        <ele>181.1</ele>
        <time>2023-07-14T07:55:55Z</time>
      </trkpt>
      <trkpt lat="44.72559" lon="0.50374">
        <ele>181.3</ele>
        <time>2023-07-14T07:55:57Z</time>
      </trkpt>
      <trkpt lat="44.72554" lon="0.50382">
        <ele>181.6</ele>
        <time>2023-07-14T07:55:59Z</time>
      </trkpt>
      <trkpt lat="44.72549" lon="0.5039">
        <ele>181.7</ele>
        <time>2023-07-14T07:56:01Z</time>
      </trkpt>
      <trkpt lat="44.72545" lon="0.50399">
        <ele>181.9</ele>
        <time>2023-07-14T07:56:03Z</time>
      </trkpt>
      <trkpt lat="44.72542" lon="0.50403">
        <ele>181.9</ele>
        <time>2023-07-14T07:56:04Z</time>
      </trkpt>
      <trkpt lat="44.7254" lon="0.50407">
        <ele>182</ele>
        <time>2023-07-14T07:56:05Z</time>
      </trkpt>
      <trkpt lat="44.72534" lon="0.50416">
        <ele>182.1</ele>
        <time>2023-07-14T07:56:07Z</time>
      </trkpt>
      <trkpt lat="44.72532" lon="0.5042">
        <ele>182.2</ele>
        <time>2023-07-14T07:56:08Z</time>
      </trkpt>
      <trkpt lat="44.72529" lon="0.50424">
        <ele>182.3</ele>
        <time>2023-07-14T07:56:09Z</time>
      </trkpt>
      <trkpt lat="44.72524" lon="0.50432">
        <ele>182.4</ele>
        <time>2023-07-14T07:56:11Z</time>
      </trkpt>
      <trkpt lat="44.7252" lon="0.5044">
        <ele>182.6</ele>
        <time>2023-07-14T07:56:13Z</time>
      </trkpt>
      <trkpt lat="44.72516" lon="0.50447">
        <ele>182.7</ele>
        <time>2023-07-14T07:56:15Z</time>
      </trkpt>
      <trkpt lat="44.72512" lon="0.50455">
        <ele>182.9</ele>
        <time>2023-07-14T07:56:17Z</time>
      </trkpt>
      <trkpt lat="44.7251" lon="0.50458">
        <ele>183.1</ele>
        <time>2023-07-14T07:56:18Z</time>
      </trkpt>
      <trkpt lat="44.72509" lon="0.50461">
        <ele>183.2</ele>
        <time>2023-07-14T07:56:19Z</time>
      </trkpt>
      <trkpt lat="44.72507" lon="0.50464">
        <ele>183.3</ele>
        <time>2023-07-14T07:56:20Z</time>
      </trkpt>
      <trkpt lat="44.72505" lon="0.50467">
        <ele>183.5</ele>
        <time>2023-07-14T07:56:21Z</time>
      </trkpt>
      <trkpt lat="44.72502" lon="0.50473">
        <ele>183.8</ele>
        <time>2023-07-14T07:56:23Z</time>
      </trkpt>
      <trkpt lat="44.72502" lon="0.50476">
        <ele>184</ele>
        <time>2023-07-14T07:56:24Z</time>
      </trkpt>
      <trkpt lat="44.72502" lon="0.50479">
        <ele>184.8</ele>
        <time>2023-07-14T07:56:25Z</time>
      </trkpt>
      <trkpt lat="44.72503" lon="0.50482">
        <ele>184.8</ele>
        <time>2023-07-14T07:56:26Z</time>
      </trkpt>
      <trkpt lat="44.72505" lon="0.50484">
        <ele>184.7</ele>
        <time>2023-07-14T07:56:27Z</time>
      </trkpt>
      <trkpt lat="44.7251" lon="0.50485">
        <ele>184.6</ele>
        <time>2023-07-14T07:56:29Z</time>
      </trkpt>
      <trkpt lat="44.72515" lon="0.50486">
        <ele>184.4</ele>
        <time>2023-07-14T07:56:31Z</time>
      </trkpt>
      <trkpt lat="44.72522" lon="0.50487">
        <ele>184.1</ele>
        <time>2023-07-14T07:56:33Z</time>
      </trkpt>
      <trkpt lat="44.72529" lon="0.5049">
        <ele>183.8</ele>
        <time>2023-07-14T07:56:35Z</time>
      </trkpt>
      <trkpt lat="44.72537" lon="0.50495">
        <ele>183.3</ele>
        <time>2023-07-14T07:56:37Z</time>
      </trkpt>
      <trkpt lat="44.72541" lon="0.50499">
        <ele>183</ele>
        <time>2023-07-14T07:56:38Z</time>
      </trkpt>
      <trkpt lat="44.72545" lon="0.50503">
        <ele>182.7</ele>
        <time>2023-07-14T07:56:39Z</time>
      </trkpt>
      <trkpt lat="44.72554" lon="0.50514">
        <ele>182</ele>
        <time>2023-07-14T07:56:41Z</time>
      </trkpt>
      <trkpt lat="44.72558" lon="0.50522">
        <ele>181.6</ele>
        <time>2023-07-14T07:56:42Z</time>
      </trkpt>
      <trkpt lat="44.72561" lon="0.50531">
        <ele>181.2</ele>
        <time>2023-07-14T07:56:43Z</time>
      </trkpt>
      <trkpt lat="44.72563" lon="0.50541">
        <ele>180.8</ele>
        <time>2023-07-14T07:56:44Z</time>
      </trkpt>
      <trkpt lat="44.72562" lon="0.50551">
        <ele>180.4</ele>
        <time>2023-07-14T07:56:45Z</time>
      </trkpt>
      <trkpt lat="44.7256" lon="0.50572">
        <ele>179.3</ele>
        <time>2023-07-14T07:56:47Z</time>
      </trkpt>
      <trkpt lat="44.72557" lon="0.50595">
        <ele>178.3</ele>
        <time>2023-07-14T07:56:49Z</time>
      </trkpt>
      <trkpt lat="44.72554" lon="0.50618">
        <ele>177.5</ele>
        <time>2023-07-14T07:56:51Z</time>
      </trkpt>
      <trkpt lat="44.72551" lon="0.5064">
        <ele>176.8</ele>
        <time>2023-07-14T07:56:53Z</time>
      </trkpt>
      <trkpt lat="44.72549" lon="0.5066">
        <ele>176.3</ele>
        <time>2023-07-14T07:56:55Z</time>
      </trkpt>
      <trkpt lat="44.72549" lon="0.50669">
        <ele>176.2</ele>
        <time>2023-07-14T07:56:56Z</time>
      </trkpt>
      <trkpt lat="44.7255" lon="0.50677">
        <ele>176.1</ele>
        <time>2023-07-14T07:56:57Z</time>
      </trkpt>
      <trkpt lat="44.72551" lon="0.50686">
        <ele>175.9</ele>
        <time>2023-07-14T07:56:58Z</time>
      </trkpt>
      <trkpt lat="44.72553" lon="0.50694">
        <ele>175.8</ele>
        <time>2023-07-14T07:56:59Z</time>
      </trkpt>
      <trkpt lat="44.72555" lon="0.50703">
        <ele>175.5</ele>
        <time>2023-07-14T07:57:00Z</time>
      </trkpt>
      <trkpt lat="44.72558" lon="0.50712">
        <ele>175.1</ele>
        <time>2023-07-14T07:57:01Z</time>
      </trkpt>
      <trkpt lat="44.72564" lon="0.5073">
        <ele>174.3</ele>
        <time>2023-07-14T07:57:03Z</time>
      </trkpt>
      <trkpt lat="44.7257" lon="0.5075">
        <ele>173.6</ele>
        <time>2023-07-14T07:57:05Z</time>
      </trkpt>
      <trkpt lat="44.72573" lon="0.5076">
        <ele>173.3</ele>
        <time>2023-07-14T07:57:06Z</time>
      </trkpt>
      <trkpt lat="44.72576" lon="0.5077">
        <ele>173</ele>
        <time>2023-07-14T07:57:07Z</time>
      </trkpt>
      <trkpt lat="44.72582" lon="0.50789">
        <ele>172.6</ele>
        <time>2023-07-14T07:57:09Z</time>
      </trkpt>
      <trkpt lat="44.72588" lon="0.50807">
        <ele>172.2</ele>
        <time>2023-07-14T07:57:11Z</time>
      </trkpt>
      <trkpt lat="44.72593" lon="0.50826">
        <ele>171.8</ele>
        <time>2023-07-14T07:57:13Z</time>
      </trkpt>
      <trkpt lat="44.72595" lon="0.50834">
        <ele>171.7</ele>
        <time>2023-07-14T07:57:14Z</time>
      </trkpt>
      <trkpt lat="44.72598" lon="0.50843">
        <ele>171.5</ele>
        <time>2023-07-14T07:57:15Z</time>
      </trkpt>
      <trkpt lat="44.72603" lon="0.50861">
        <ele>171.2</ele>
        <time>2023-07-14T07:57:17Z</time>
      </trkpt>
      <trkpt lat="44.72609" lon="0.50878">
        <ele>171</ele>
        <time>2023-07-14T07:57:19Z</time>
      </trkpt>
      <trkpt lat="44.72615" lon="0.50895">
        <ele>170.7</ele>
        <time>2023-07-14T07:57:21Z</time>
      </trkpt>
      <trkpt lat="44.72619" lon="0.50902">
        <ele>170.6</ele>
        <time>2023-07-14T07:57:22Z</time>
      </trkpt>
      <trkpt lat="44.72623" lon="0.5091">
        <ele>170.5</ele>
        <time>2023-07-14T07:57:23Z</time>
      </trkpt>
      <trkpt lat="44.72627" lon="0.50917">
        <ele>170.4</ele>
        <time>2023-07-14T07:57:24Z</time>
      </trkpt>
      <trkpt lat="44.72632" lon="0.50924">
        <ele>170.4</ele>
        <time>2023-07-14T07:57:25Z</time>
      </trkpt>
      <trkpt lat="44.72641" lon="0.50938">
        <ele>170.4</ele>
        <time>2023-07-14T07:57:27Z</time>
      </trkpt>
      <trkpt lat="44.72651" lon="0.50951">
        <ele>170.5</ele>
        <time>2023-07-14T07:57:29Z</time>
      </trkpt>
      <trkpt lat="44.72661" lon="0.50964">
        <ele>170.7</ele>
        <time>2023-07-14T07:57:31Z</time>
      </trkpt>
      <trkpt lat="44.7267" lon="0.50976">
        <ele>170.9</ele>
        <time>2023-07-14T07:57:33Z</time>
      </trkpt>
      <trkpt lat="44.72674" lon="0.50983">
        <ele>171</ele>
        <time>2023-07-14T07:57:34Z</time>
      </trkpt>
      <trkpt lat="44.72679" lon="0.50989">
        <ele>171.1</ele>
        <time>2023-07-14T07:57:35Z</time>
      </trkpt>
      <trkpt lat="44.72688" lon="0.51">
        <ele>171.5</ele>
        <time>2023-07-14T07:57:37Z</time>
      </trkpt>
      <trkpt lat="44.72696" lon="0.51012">
        <ele>171.9</ele>
        <time>2023-07-14T07:57:39Z</time>
      </trkpt>
      <trkpt lat="44.727" lon="0.51018">
        <ele>172</ele>
        <time>2023-07-14T07:57:40Z</time>
      </trkpt>
      <trkpt lat="44.72704" lon="0.51024">
        <ele>172.1</ele>
        <time>2023-07-14T07:57:41Z</time>
      </trkpt>
      <trkpt lat="44.72708" lon="0.5103">
        <ele>172.2</ele>
        <time>2023-07-14T07:57:42Z</time>
      </trkpt>
      <trkpt lat="44.72712" lon="0.51036">
        <ele>172.3</ele>
        <time>2023-07-14T07:57:43Z</time>
      </trkpt>
      <trkpt lat="44.7272" lon="0.51047">
        <ele>172.4</ele>
        <time>2023-07-14T07:57:45Z</time>
      </trkpt>
      <trkpt lat="44.72728" lon="0.51058">
        <ele>172.6</ele>
        <time>2023-07-14T07:57:47Z</time>
      </trkpt>
      <trkpt lat="44.72736" lon="0.51067">
        <ele>172.8</ele>
        <time>2023-07-14T07:57:49Z</time>
      </trkpt>
      <trkpt lat="44.7274" lon="0.51071">
        <ele>172.8</ele>
        <time>2023-07-14T07:57:50Z</time>
      </trkpt>
      <trkpt lat="44.72744" lon="0.51071">
        <ele>172.9</ele>
        <time>2023-07-14T07:57:51Z</time>
      </trkpt>
      <trkpt lat="44.72747" lon="0.51069">
        <ele>172.8</ele>
        <time>2023-07-14T07:57:52Z</time>
      </trkpt>
      <trkpt lat="44.7275" lon="0.51065">
        <ele>172.7</ele>
        <time>2023-07-14T07:57:53Z</time>
      </trkpt>
      <trkpt lat="44.72753" lon="0.51053">
        <ele>172.6</ele>
        <time>2023-07-14T07:57:55Z</time>
      </trkpt>
      <trkpt lat="44.72756" lon="0.51039">
        <ele>172.3</ele>
        <time>2023-07-14T07:57:57Z</time>
      </trkpt>
      <trkpt lat="44.7276" lon="0.51024">
        <ele>171.9</ele>
        <time>2023-07-14T07:57:59Z</time>
      </trkpt>
      <trkpt lat="44.72764" lon="0.51008">
        <ele>171.2</ele>
        <time>2023-07-14T07:58:01Z</time>
      </trkpt>
      <trkpt lat="44.72768" lon="0.5099">
        <ele>170.5</ele>
        <time>2023-07-14T07:58:03Z</time>
      </trkpt>
      <trkpt lat="44.7277" lon="0.50971">
        <ele>169.6</ele>
        <time>2023-07-14T07:58:05Z</time>
      </trkpt>
      <trkpt lat="44.72773" lon="0.5095">
        <ele>168.3</ele>
        <time>2023-07-14T07:58:07Z</time>
      </trkpt>
      <trkpt lat="44.72776" lon="0.5093">
        <ele>167.1</ele>
        <time>2023-07-14T07:58:09Z</time>
      </trkpt>
      <trkpt lat="44.72779" lon="0.5092">
        <ele>166.6</ele>
        <time>2023-07-14T07:58:10Z</time>
      </trkpt>
      <trkpt lat="44.72784" lon="0.5091">
        <ele>166.1</ele>
        <time>2023-07-14T07:58:11Z</time>
      </trkpt>
      <trkpt lat="44.72796" lon="0.50895">
        <ele>165.2</ele>
        <time>2023-07-14T07:58:13Z</time>
      </trkpt>
      <trkpt lat="44.7281" lon="0.50883">
        <ele>164.2</ele>
        <time>2023-07-14T07:58:15Z</time>
      </trkpt>
      <trkpt lat="44.72826" lon="0.5087">
        <ele>162.8</ele>
        <time>2023-07-14T07:58:17Z</time>
      </trkpt>
      <trkpt lat="44.72834" lon="0.50864">
        <ele>162.1</ele>
        <time>2023-07-14T07:58:18Z</time>
      </trkpt>
      <trkpt lat="44.72843" lon="0.50857">
        <ele>161.5</ele>
        <time>2023-07-14T07:58:19Z</time>
      </trkpt>
      <trkpt lat="44.72862" lon="0.50846">
        <ele>160.7</ele>
        <time>2023-07-14T07:58:21Z</time>
      </trkpt>
      <trkpt lat="44.72872" lon="0.50843">
        <ele>160.5</ele>
        <time>2023-07-14T07:58:22Z</time>
      </trkpt>
      <trkpt lat="44.72882" lon="0.50841">
        <ele>160.5</ele>
        <time>2023-07-14T07:58:23Z</time>
      </trkpt>
      <trkpt lat="44.7289" lon="0.50839">
        <ele>160.7</ele>
        <time>2023-07-14T07:58:24Z</time>
      </trkpt>
      <trkpt lat="44.72898" lon="0.50836">
        <ele>161</ele>
        <time>2023-07-14T07:58:25Z</time>
      </trkpt>
      <trkpt lat="44.72905" lon="0.50832">
        <ele>161.3</ele>
        <time>2023-07-14T07:58:26Z</time>
      </trkpt>
      <trkpt lat="44.72912" lon="0.50828">
        <ele>161.6</ele>
        <time>2023-07-14T07:58:27Z</time>
      </trkpt>
      <trkpt lat="44.72924" lon="0.50819">
        <ele>161.8</ele>
        <time>2023-07-14T07:58:29Z</time>
      </trkpt>
      <trkpt lat="44.7293" lon="0.50813">
        <ele>161.7</ele>
        <time>2023-07-14T07:58:30Z</time>
      </trkpt>
      <trkpt lat="44.72936" lon="0.50806">
        <ele>161.4</ele>
        <time>2023-07-14T07:58:31Z</time>
      </trkpt>
      <trkpt lat="44.72941" lon="0.50797">
        <ele>161.1</ele>
        <time>2023-07-14T07:58:32Z</time>
      </trkpt>
      <trkpt lat="44.72947" lon="0.50789">
        <ele>160.8</ele>
        <time>2023-07-14T07:58:33Z</time>
      </trkpt>
      <trkpt lat="44.72959" lon="0.50771">
        <ele>160.4</ele>
        <time>2023-07-14T07:58:35Z</time>
      </trkpt>
      <trkpt lat="44.72972" lon="0.50755">
        <ele>160.4</ele>
        <time>2023-07-14T07:58:37Z</time>
      </trkpt>
      <trkpt lat="44.72985" lon="0.50738">
        <ele>159.5</ele>
        <time>2023-07-14T07:58:39Z</time>
      </trkpt>
      <trkpt lat="44.72998" lon="0.50723">
        <ele>158.7</ele>
        <time>2023-07-14T07:58:41Z</time>
      </trkpt>
      <trkpt lat="44.7301" lon="0.50709">
        <ele>157.6</ele>
        <time>2023-07-14T07:58:43Z</time>
      </trkpt>
      <trkpt lat="44.73022" lon="0.50693">
        <ele>156.7</ele>
        <time>2023-07-14T07:58:45Z</time>
      </trkpt>
      <trkpt lat="44.73033" lon="0.50677">
        <ele>155.3</ele>
        <time>2023-07-14T07:58:47Z</time>
      </trkpt>
      <trkpt lat="44.73045" lon="0.5066">
        <ele>154.9</ele>
        <time>2023-07-14T07:58:49Z</time>
      </trkpt>
      <trkpt lat="44.73052" lon="0.50652">
        <ele>154.5</ele>
        <time>2023-07-14T07:58:50Z</time>
      </trkpt>
      <trkpt lat="44.73059" lon="0.50644">
        <ele>154.2</ele>
        <time>2023-07-14T07:58:51Z</time>
      </trkpt>
      <trkpt lat="44.73073" lon="0.50628">
        <ele>153.5</ele>
        <time>2023-07-14T07:58:53Z</time>
      </trkpt>
      <trkpt lat="44.73088" lon="0.50612">
        <ele>152.5</ele>
        <time>2023-07-14T07:58:55Z</time>
      </trkpt>
      <trkpt lat="44.73104" lon="0.50593">
        <ele>151.3</ele>
        <time>2023-07-14T07:58:57Z</time>
      </trkpt>
      <trkpt lat="44.73119" lon="0.50576">
        <ele>150.1</ele>
        <time>2023-07-14T07:58:59Z</time>
      </trkpt>
      <trkpt lat="44.73127" lon="0.50567">
        <ele>149.6</ele>
        <time>2023-07-14T07:59:00Z</time>
      </trkpt>
      <trkpt lat="44.73134" lon="0.50558">
        <ele>149.2</ele>
        <time>2023-07-14T07:59:01Z</time>
      </trkpt>
      <trkpt lat="44.73148" lon="0.50541">
        <ele>148.4</ele>
        <time>2023-07-14T07:59:03Z</time>
      </trkpt>
      <trkpt lat="44.73161" lon="0.50525">
        <ele>147.9</ele>
        <time>2023-07-14T07:59:05Z</time>
      </trkpt>
      <trkpt lat="44.73166" lon="0.50515">
        <ele>147.8</ele>
        <time>2023-07-14T07:59:06Z</time>
      </trkpt>
      <trkpt lat="44.73171" lon="0.50506">
        <ele>147.7</ele>
        <time>2023-07-14T07:59:07Z</time>
      </trkpt>
      <trkpt lat="44.7318" lon="0.50486">
        <ele>147.6</ele>
        <time>2023-07-14T07:59:09Z</time>
      </trkpt>
      <trkpt lat="44.73188" lon="0.50465">
        <ele>147.7</ele>
        <time>2023-07-14T07:59:11Z</time>
      </trkpt>
      <trkpt lat="44.73195" lon="0.50444">
        <ele>147.7</ele>
        <time>2023-07-14T07:59:13Z</time>
      </trkpt>
      <trkpt lat="44.73203" lon="0.50423">
        <ele>147.6</ele>
        <time>2023-07-14T07:59:15Z</time>
      </trkpt>
      <trkpt lat="44.73211" lon="0.50402">
        <ele>147.3</ele>
        <time>2023-07-14T07:59:17Z</time>
      </trkpt>
      <trkpt lat="44.73219" lon="0.5038">
        <ele>146.9</ele>
        <time>2023-07-14T07:59:19Z</time>
      </trkpt>
      <trkpt lat="44.73222" lon="0.5037">
        <ele>146.8</ele>
        <time>2023-07-14T07:59:20Z</time>
      </trkpt>
      <trkpt lat="44.73225" lon="0.50359">
        <ele>146.7</ele>
        <time>2023-07-14T07:59:21Z</time>
      </trkpt>
      <trkpt lat="44.73232" lon="0.50338">
        <ele>146.5</ele>
        <time>2023-07-14T07:59:23Z</time>
      </trkpt>
      <trkpt lat="44.73238" lon="0.50318">
        <ele>146.1</ele>
        <time>2023-07-14T07:59:25Z</time>
      </trkpt>
      <trkpt lat="44.73242" lon="0.50309">
        <ele>146</ele>
        <time>2023-07-14T07:59:26Z</time>
      </trkpt>
      <trkpt lat="44.73247" lon="0.50304">
        <ele>145.9</ele>
        <time>2023-07-14T07:59:27Z</time>
      </trkpt>
      <trkpt lat="44.73253" lon="0.50303">
        <ele>145.4</ele>
        <time>2023-07-14T07:59:28Z</time>
      </trkpt>
      <trkpt lat="44.73259" lon="0.50304">
        <ele>145.2</ele>
        <time>2023-07-14T07:59:29Z</time>
      </trkpt>
      <trkpt lat="44.73264" lon="0.50306">
        <ele>145.1</ele>
        <time>2023-07-14T07:59:30Z</time>
      </trkpt>
      <trkpt lat="44.73271" lon="0.50308">
        <ele>145</ele>
        <time>2023-07-14T07:59:31Z</time>
      </trkpt>
      <trkpt lat="44.73282" lon="0.5031">
        <ele>144.8</ele>
        <time>2023-07-14T07:59:33Z</time>
      </trkpt>
      <trkpt lat="44.73294" lon="0.50311">
        <ele>144.7</ele>
        <time>2023-07-14T07:59:35Z</time>
      </trkpt>
      <trkpt lat="44.733" lon="0.5031">
        <ele>144.6</ele>
        <time>2023-07-14T07:59:36Z</time>
      </trkpt>
      <trkpt lat="44.73306" lon="0.50309">
        <ele>144.5</ele>
        <time>2023-07-14T07:59:37Z</time>
      </trkpt>
      <trkpt lat="44.73318" lon="0.50305">
        <ele>144.5</ele>
        <time>2023-07-14T07:59:39Z</time>
      </trkpt>
      <trkpt lat="44.73323" lon="0.50302">
        <ele>144.5</ele>
        <time>2023-07-14T07:59:40Z</time>
      </trkpt>
      <trkpt lat="44.73329" lon="0.50298">
        <ele>144.5</ele>
        <time>2023-07-14T07:59:41Z</time>
      </trkpt>
      <trkpt lat="44.73334" lon="0.50295">
        <ele>144.6</ele>
        <time>2023-07-14T07:59:42Z</time>
      </trkpt>
      <trkpt lat="44.73339" lon="0.50291">
        <ele>144.6</ele>
        <time>2023-07-14T07:59:43Z</time>
      </trkpt>
      <trkpt lat="44.73345" lon="0.50287">
        <ele>144.6</ele>
        <time>2023-07-14T07:59:44Z</time>
      </trkpt>
      <trkpt lat="44.7335" lon="0.50283">
        <ele>144.7</ele>
        <time>2023-07-14T07:59:45Z</time>
      </trkpt>
      <trkpt lat="44.7336" lon="0.50276">
        <ele>144.8</ele>
        <time>2023-07-14T07:59:47Z</time>
      </trkpt>
      <trkpt lat="44.73365" lon="0.50273">
        <ele>144.9</ele>
        <time>2023-07-14T07:59:48Z</time>
      </trkpt>
      <trkpt lat="44.7337" lon="0.50271">
        <ele>144.9</ele>
        <time>2023-07-14T07:59:49Z</time>
      </trkpt>
      <trkpt lat="44.7338" lon="0.50265">
        <ele>145.1</ele>
        <time>2023-07-14T07:59:51Z</time>
      </trkpt>
      <trkpt lat="44.73384" lon="0.50263">
        <ele>145.1</ele>
        <time>2023-07-14T07:59:52Z</time>
      </trkpt>
      <trkpt lat="44.73389" lon="0.50262">
        <ele>145.1</ele>
        <time>2023-07-14T07:59:53Z</time>
      </trkpt>
      <trkpt lat="44.73394" lon="0.50261">
        <ele>145.1</ele>
        <time>2023-07-14T07:59:54Z</time>
      </trkpt>
      <trkpt lat="44.734" lon="0.5026">
        <ele>145</ele>
        <time>2023-07-14T07:59:55Z</time>
      </trkpt>
      <trkpt lat="44.73406" lon="0.5026">
        <ele>144.9</ele>
        <time>2023-07-14T07:59:56Z</time>
      </trkpt>
      <trkpt lat="44.73412" lon="0.5026">
        <ele>144.8</ele>
        <time>2023-07-14T07:59:57Z</time>
      </trkpt>
      <trkpt lat="44.73418" lon="0.50262">
        <ele>144.6</ele>
        <time>2023-07-14T07:59:58Z</time>
      </trkpt>
      <trkpt lat="44.73424" lon="0.50263">
        <ele>144.5</ele>
        <time>2023-07-14T07:59:59Z</time>
      </trkpt>
      <trkpt lat="44.73437" lon="0.50266">
        <ele>144.3</ele>
        <time>2023-07-14T08:00:01Z</time>
      </trkpt>
      <trkpt lat="44.73449" lon="0.50267">
        <ele>144.2</ele>
        <time>2023-07-14T08:00:03Z</time>
      </trkpt>
      <trkpt lat="44.73461" lon="0.50266">
        <ele>144.2</ele>
        <time>2023-07-14T08:00:05Z</time>
      </trkpt>
      <trkpt lat="44.73467" lon="0.50265">
        <ele>144.2</ele>
        <time>2023-07-14T08:00:06Z</time>
      </trkpt>
      <trkpt lat="44.73472" lon="0.50263">
        <ele>144.1</ele>
        <time>2023-07-14T08:00:07Z</time>
      </trkpt>
      <trkpt lat="44.73483" lon="0.50258">
        <ele>144.1</ele>
        <time>2023-07-14T08:00:09Z</time>
      </trkpt>
      <trkpt lat="44.73495" lon="0.50253">
        <ele>144</ele>
        <time>2023-07-14T08:00:11Z</time>
      </trkpt>
      <trkpt lat="44.73501" lon="0.5025">
        <ele>144</ele>
        <time>2023-07-14T08:00:12Z</time>
      </trkpt>
      <trkpt lat="44.73506" lon="0.50248">
        <ele>143.9</ele>
        <time>2023-07-14T08:00:13Z</time>
      </trkpt>
      <trkpt lat="44.73518" lon="0.50243">
        <ele>144</ele>
        <time>2023-07-14T08:00:15Z</time>
      </trkpt>
      <trkpt lat="44.73529" lon="0.50238">
        <ele>144.1</ele>
        <time>2023-07-14T08:00:17Z</time>
      </trkpt>
      <trkpt lat="44.73535" lon="0.50235">
        <ele>144.2</ele>
        <time>2023-07-14T08:00:18Z</time>
      </trkpt>
      <trkpt lat="44.73541" lon="0.50233">
        <ele>144.3</ele>
        <time>2023-07-14T08:00:19Z</time>
      </trkpt>
      <trkpt lat="44.73551" lon="0.50229">
        <ele>144.6</ele>
        <time>2023-07-14T08:00:21Z</time>
      </trkpt>
      <trkpt lat="44.7356" lon="0.50225">
        <ele>144.8</ele>
        <time>2023-07-14T08:00:23Z</time>
      </trkpt>
      <trkpt lat="44.73564" lon="0.50223">
        <ele>144.9</ele>
        <time>2023-07-14T08:00:24Z</time>
      </trkpt>
      <trkpt lat="44.73569" lon="0.5022">
        <ele>145.1</ele>
        <time>2023-07-14T08:00:25Z</time>
      </trkpt>
      <trkpt lat="44.73579" lon="0.50215">
        <ele>145.3</ele>
        <time>2023-07-14T08:00:27Z</time>
      </trkpt>
      <trkpt lat="44.73589" lon="0.50209">
        <ele>145.5</ele>
        <time>2023-07-14T08:00:29Z</time>
      </trkpt>
      <trkpt lat="44.73598" lon="0.50204">
        <ele>145.9</ele>
        <time>2023-07-14T08:00:31Z</time>
      </trkpt>
      <trkpt lat="44.73603" lon="0.50202">
        <ele>146.1</ele>
        <time>2023-07-14T08:00:32Z</time>
      </trkpt>
      <trkpt lat="44.73607" lon="0.502">
        <ele>146.3</ele>
        <time>2023-07-14T08:00:33Z</time>
      </trkpt>
      <trkpt lat="44.73615" lon="0.50196">
        <ele>146.7</ele>
        <time>2023-07-14T08:00:35Z</time>
      </trkpt>
      <trkpt lat="44.73623" lon="0.50194">
        <ele>147.1</ele>
        <time>2023-07-14T08:00:37Z</time>
      </trkpt>
      <trkpt lat="44.73627" lon="0.50193">
        <ele>147.2</ele>
        <time>2023-07-14T08:00:38Z</time>
      </trkpt>
      <trkpt lat="44.7363" lon="0.50193">
        <ele>147.3</ele>
        <time>2023-07-14T08:00:39Z</time>
      </trkpt>
      <trkpt lat="44.73637" lon="0.50191">
        <ele>147.6</ele>
        <time>2023-07-14T08:00:41Z</time>
      </trkpt>
      <trkpt lat="44.73645" lon="0.5019">
        <ele>147.5</ele>
        <time>2023-07-14T08:00:43Z</time>
      </trkpt>
      <trkpt lat="44.73649" lon="0.5019">
        <ele>147.3</ele>
        <time>2023-07-14T08:00:44Z</time>
      </trkpt>
      <trkpt lat="44.73654" lon="0.50191">
        <ele>147.1</ele>
        <time>2023-07-14T08:00:45Z</time>
      </trkpt>
      <trkpt lat="44.73659" lon="0.50192">
        <ele>146.8</ele>
        <time>2023-07-14T08:00:46Z</time>
      </trkpt>
      <trkpt lat="44.73664" lon="0.50192">
        <ele>146.4</ele>
        <time>2023-07-14T08:00:47Z</time>
      </trkpt>
      <trkpt lat="44.73677" lon="0.50195">
        <ele>145.3</ele>
        <time>2023-07-14T08:00:49Z</time>
      </trkpt>
      <trkpt lat="44.73693" lon="0.50198">
        <ele>144</ele>
        <time>2023-07-14T08:00:51Z</time>
      </trkpt>
      <trkpt lat="44.73711" lon="0.50202">
        <ele>142.6</ele>
        <time>2023-07-14T08:00:53Z</time>
      </trkpt>
      <trkpt lat="44.7373" lon="0.50206">
        <ele>141.8</ele>
        <time>2023-07-14T08:00:55Z</time>
      </trkpt>
      <trkpt lat="44.73748" lon="0.50209">
        <ele>141.5</ele>
        <time>2023-07-14T08:00:57Z</time>
      </trkpt>
      <trkpt lat="44.73765" lon="0.50212">
        <ele>141.3</ele>
        <time>2023-07-14T08:00:59Z</time>
      </trkpt>
      <trkpt lat="44.7378" lon="0.50213">
        <ele>141.4</ele>
        <time>2023-07-14T08:01:01Z</time>
      </trkpt>
      <trkpt lat="44.73794" lon="0.50214">
        <ele>141.5</ele>
        <time>2023-07-14T08:01:03Z</time>
      </trkpt>
      <trkpt lat="44.73801" lon="0.50214">
        <ele>141.6</ele>
        <time>2023-07-14T08:01:04Z</time>
      </trkpt>
      <trkpt lat="44.73807" lon="0.50215">
        <ele>141.7</ele>
        <time>2023-07-14T08:01:05Z</time>
      </trkpt>
      <trkpt lat="44.73813" lon="0.50215">
        <ele>141.9</ele>
        <time>2023-07-14T08:01:06Z</time>
      </trkpt>
      <trkpt lat="44.73819" lon="0.50216">
        <ele>142</ele>
        <time>2023-07-14T08:01:07Z</time>
      </trkpt>
      <trkpt lat="44.7383" lon="0.50216">
        <ele>142.4</ele>
        <time>2023-07-14T08:01:09Z</time>
      </trkpt>
      <trkpt lat="44.7384" lon="0.50217">
        <ele>142.8</ele>
        <time>2023-07-14T08:01:11Z</time>
      </trkpt>
      <trkpt lat="44.7385" lon="0.50217">
        <ele>143.2</ele>
        <time>2023-07-14T08:01:13Z</time>
      </trkpt>
      <trkpt lat="44.73858" lon="0.50215">
        <ele>143.7</ele>
        <time>2023-07-14T08:01:15Z</time>
      </trkpt>
      <trkpt lat="44.7386" lon="0.50214">
        <ele>144</ele>
        <time>2023-07-14T08:01:16Z</time>
      </trkpt>
      <trkpt lat="44.73863" lon="0.50213">
        <ele>144.3</ele>
        <time>2023-07-14T08:01:17Z</time>
      </trkpt>
      <trkpt lat="44.73868" lon="0.50212">
        <ele>144.8</ele>
        <time>2023-07-14T08:01:19Z</time>
      </trkpt>
      <trkpt lat="44.73871" lon="0.50211">
        <ele>145.2</ele>
        <time>2023-07-14T08:01:21Z</time>
      </trkpt>
      <trkpt lat="44.73876" lon="0.5021">
        <ele>145.7</ele>
        <time>2023-07-14T08:01:23Z</time>
      </trkpt>
      <trkpt lat="44.7388" lon="0.50209">
        <ele>146.3</ele>
        <time>2023-07-14T08:01:25Z</time>
      </trkpt>
      <trkpt lat="44.73884" lon="0.50208">
        <ele>146.9</ele>
        <time>2023-07-14T08:01:27Z</time>
      </trkpt>
      <trkpt lat="44.73888" lon="0.50207">
        <ele>147.4</ele>
        <time>2023-07-14T08:01:29Z</time>
      </trkpt>
      <trkpt lat="44.73892" lon="0.50204">
        <ele>147.9</ele>
        <time>2023-07-14T08:01:31Z</time>
      </trkpt>
      <trkpt lat="44.73893" lon="0.50203">
        <ele>148.2</ele>
        <time>2023-07-14T08:01:32Z</time>
      </trkpt>
      <trkpt lat="44.73895" lon="0.50201">
        <ele>148.4</ele>
        <time>2023-07-14T08:01:33Z</time>
      </trkpt>
      <trkpt lat="44.73899" lon="0.50198">
        <ele>148.9</ele>
        <time>2023-07-14T08:01:35Z</time>
      </trkpt>
      <trkpt lat="44.73903" lon="0.50196">
        <ele>149.3</ele>
        <time>2023-07-14T08:01:37Z</time>
      </trkpt>
      <trkpt lat="44.73906" lon="0.50195">
        <ele>149.5</ele>
        <time>2023-07-14T08:01:38Z</time>
      </trkpt>
      <trkpt lat="44.73908" lon="0.50194">
        <ele>149.6</ele>
        <time>2023-07-14T08:01:39Z</time>
      </trkpt>
      <trkpt lat="44.73912" lon="0.50192">
        <ele>150</ele>
        <time>2023-07-14T08:01:41Z</time>
      </trkpt>
      <trkpt lat="44.73918" lon="0.5019">
        <ele>150.3</ele>
        <time>2023-07-14T08:01:43Z</time>
      </trkpt>
      <trkpt lat="44.73923" lon="0.50189">
        <ele>150.6</ele>
        <time>2023-07-14T08:01:45Z</time>
      </trkpt>
      <trkpt lat="44.73928" lon="0.50188">
        <ele>150.9</ele>
        <time>2023-07-14T08:01:47Z</time>
      </trkpt>
      <trkpt lat="44.73932" lon="0.50188">
        <ele>151.1</ele>
        <time>2023-07-14T08:01:49Z</time>
      </trkpt>
      <trkpt lat="44.73937" lon="0.50188">
        <ele>151.4</ele>
        <time>2023-07-14T08:01:51Z</time>
      </trkpt>
      <trkpt lat="44.73942" lon="0.50188">
        <ele>151.8</ele>
        <time>2023-07-14T08:01:53Z</time>
      </trkpt>
      <trkpt lat="44.73947" lon="0.50187">
        <ele>152.1</ele>
        <time>2023-07-14T08:01:55Z</time>
      </trkpt>
      <trkpt lat="44.73952" lon="0.50186">
        <ele>152.5</ele>
        <time>2023-07-14T08:01:57Z</time>
      </trkpt>
      <trkpt lat="44.73955" lon="0.50186">
        <ele>152.7</ele>
        <time>2023-07-14T08:01:58Z</time>
      </trkpt>
      <trkpt lat="44.73957" lon="0.50186">
        <ele>152.9</ele>
        <time>2023-07-14T08:01:59Z</time>
      </trkpt>
      <trkpt lat="44.73962" lon="0.50186">
        <ele>153.2</ele>
        <time>2023-07-14T08:02:01Z</time>
      </trkpt>
      <trkpt lat="44.73966" lon="0.50185">
        <ele>153.6</ele>
        <time>2023-07-14T08:02:03Z</time>
      </trkpt>
      <trkpt lat="44.73971" lon="0.50184">
        <ele>153.9</ele>
        <time>2023-07-14T08:02:05Z</time>
      </trkpt>
      <trkpt lat="44.73974" lon="0.50184">
        <ele>154</ele>
        <time>2023-07-14T08:02:06Z</time>
      </trkpt>
      <trkpt lat="44.73976" lon="0.50183">
        <ele>154.2</ele>
        <time>2023-07-14T08:02:07Z</time>
      </trkpt>
      <trkpt lat="44.7398" lon="0.50182">
        <ele>154.5</ele>
        <time>2023-07-14T08:02:09Z</time>
      </trkpt>
      <trkpt lat="44.73983" lon="0.50181">
        <ele>154.6</ele>
        <time>2023-07-14T08:02:10Z</time>
      </trkpt>
      <trkpt lat="44.73985" lon="0.5018">
        <ele>154.7</ele>
        <time>2023-07-14T08:02:11Z</time>
      </trkpt>
      <trkpt lat="44.73991" lon="0.50179">
        <ele>155</ele>
        <time>2023-07-14T08:02:13Z</time>
      </trkpt>
      <trkpt lat="44.73995" lon="0.50177">
        <ele>155.3</ele>
        <time>2023-07-14T08:02:15Z</time>
      </trkpt>
      <trkpt lat="44.74" lon="0.50174">
        <ele>155.5</ele>
        <time>2023-07-14T08:02:17Z</time>
      </trkpt>
      <trkpt lat="44.74004" lon="0.5017">
        <ele>155.7</ele>
        <time>2023-07-14T08:02:19Z</time>
      </trkpt>
      <trkpt lat="44.74008" lon="0.50166">
        <ele>155.9</ele>
        <time>2023-07-14T08:02:21Z</time>
      </trkpt>
      <trkpt lat="44.74011" lon="0.50165">
        <ele>156</ele>
        <time>2023-07-14T08:02:22Z</time>
      </trkpt>
      <trkpt lat="44.74015" lon="0.50165">
        <ele>156.1</ele>
        <time>2023-07-14T08:02:23Z</time>
      </trkpt>
      <trkpt lat="44.74018" lon="0.50165">
        <ele>156.3</ele>
        <time>2023-07-14T08:02:24Z</time>
      </trkpt>
      <trkpt lat="44.74022" lon="0.50166">
        <ele>156.4</ele>
        <time>2023-07-14T08:02:25Z</time>
      </trkpt>
      <trkpt lat="44.74026" lon="0.50167">
        <ele>156.6</ele>
        <time>2023-07-14T08:02:27Z</time>
      </trkpt>
      <trkpt lat="44.74032" lon="0.50165">
        <ele>156.9</ele>
        <time>2023-07-14T08:02:29Z</time>
      </trkpt>
      <trkpt lat="44.74035" lon="0.50165">
        <ele>157.1</ele>
        <time>2023-07-14T08:02:31Z</time>
      </trkpt>
      <trkpt lat="44.74038" lon="0.50165">
        <ele>157.3</ele>
        <time>2023-07-14T08:02:32Z</time>
      </trkpt>
      <trkpt lat="44.74039" lon="0.50164">
        <ele>157.4</ele>
        <time>2023-07-14T08:02:33Z</time>
      </trkpt>
      <trkpt lat="44.74044" lon="0.50164">
        <ele>157.8</ele>
        <time>2023-07-14T08:02:35Z</time>
      </trkpt>
      <trkpt lat="44.74049" lon="0.50165">
        <ele>158.2</ele>
        <time>2023-07-14T08:02:37Z</time>
      </trkpt>
      <trkpt lat="44.7405" lon="0.50166">
        <ele>158.3</ele>
        <time>2023-07-14T08:02:38Z</time>
      </trkpt>
      <trkpt lat="44.74052" lon="0.50167">
        <ele>158.5</ele>
        <time>2023-07-14T08:02:39Z</time>
      </trkpt>
      <trkpt lat="44.74056" lon="0.5017">
        <ele>158.8</ele>
        <time>2023-07-14T08:02:41Z</time>
      </trkpt>
      <trkpt lat="44.74057" lon="0.50171">
        <ele>158.9</ele>
        <time>2023-07-14T08:02:42Z</time>
      </trkpt>
      <trkpt lat="44.74059" lon="0.50172">
        <ele>159</ele>
        <time>2023-07-14T08:02:43Z</time>
      </trkpt>
      <trkpt lat="44.74062" lon="0.50176">
        <ele>159.3</ele>
        <time>2023-07-14T08:02:45Z</time>
      </trkpt>
      <trkpt lat="44.74066" lon="0.50179">
        <ele>159.6</ele>
        <time>2023-07-14T08:02:47Z</time>
      </trkpt>
      <trkpt lat="44.74069" lon="0.50181">
        <ele>159.8</ele>
        <time>2023-07-14T08:02:49Z</time>
      </trkpt>
      <trkpt lat="44.74072" lon="0.50184">
        <ele>160.1</ele>
        <time>2023-07-14T08:02:51Z</time>
      </trkpt>
      <trkpt lat="44.74073" lon="0.50186">
        <ele>160.3</ele>
        <time>2023-07-14T08:02:52Z</time>
      </trkpt>
      <trkpt lat="44.74074" lon="0.50187">
        <ele>160.4</ele>
        <time>2023-07-14T08:02:53Z</time>
      </trkpt>
      <trkpt lat="44.74077" lon="0.50195">
        <ele>160.9</ele>
        <time>2023-07-14T08:02:55Z</time>
      </trkpt>
      <trkpt lat="44.74081" lon="0.50201">
        <ele>161.4</ele>
        <time>2023-07-14T08:02:57Z</time>
      </trkpt>
      <trkpt lat="44.74083" lon="0.50207">
        <ele>161.9</ele>
        <time>2023-07-14T08:02:59Z</time>
      </trkpt>
      <trkpt lat="44.74086" lon="0.50212">
        <ele>162.3</ele>
        <time>2023-07-14T08:03:01Z</time>
      </trkpt>
      <trkpt lat="44.74088" lon="0.50217">
        <ele>162.7</ele>
        <time>2023-07-14T08:03:03Z</time>
      </trkpt>
      <trkpt lat="44.7409" lon="0.50219">
        <ele>162.9</ele>
        <time>2023-07-14T08:03:04Z</time>
      </trkpt>
      <trkpt lat="44.74092" lon="0.5022">
        <ele>163.1</ele>
        <time>2023-07-14T08:03:05Z</time>
      </trkpt>
      <trkpt lat="44.74093" lon="0.50221">
        <ele>163.2</ele>
        <time>2023-07-14T08:03:06Z</time>
      </trkpt>
      <trkpt lat="44.74095" lon="0.5022">
        <ele>163.3</ele>
        <time>2023-07-14T08:03:07Z</time>
      </trkpt>
      <trkpt lat="44.74098" lon="0.50219">
        <ele>163.6</ele>
        <time>2023-07-14T08:03:09Z</time>
      </trkpt>
      <trkpt lat="44.74099" lon="0.50218">
        <ele>163.7</ele>
        <time>2023-07-14T08:03:10Z</time>
      </trkpt>
      <trkpt lat="44.741" lon="0.50216">
        <ele>163.9</ele>
        <time>2023-07-14T08:03:11Z</time>
      </trkpt>
      <trkpt lat="44.74103" lon="0.50213">
        <ele>164.2</ele>
        <time>2023-07-14T08:03:13Z</time>
      </trkpt>
      <trkpt lat="44.74104" lon="0.50212">
        <ele>164.3</ele>
        <time>2023-07-14T08:03:14Z</time>
      </trkpt>
      <trkpt lat="44.74105" lon="0.5021">
        <ele>164.5</ele>
        <time>2023-07-14T08:03:15Z</time>
      </trkpt>
      <trkpt lat="44.74107" lon="0.50206">
        <ele>164.8</ele>
        <time>2023-07-14T08:03:17Z</time>
      </trkpt>
      <trkpt lat="44.7411" lon="0.50203">
        <ele>165.1</ele>
        <time>2023-07-14T08:03:19Z</time>
      </trkpt>
      <trkpt lat="44.7411" lon="0.50201">
        <ele>165.2</ele>
        <time>2023-07-14T08:03:20Z</time>
      </trkpt>
      <trkpt lat="44.7411" lon="0.50198">
        <ele>165.4</ele>
        <time>2023-07-14T08:03:21Z</time>
      </trkpt>
      <trkpt lat="44.74111" lon="0.50196">
        <ele>165.5</ele>
        <time>2023-07-14T08:03:22Z</time>
      </trkpt>
      <trkpt lat="44.74112" lon="0.50194">
        <ele>165.7</ele>
        <time>2023-07-14T08:03:23Z</time>
      </trkpt>
      <trkpt lat="44.74113" lon="0.50192">
        <ele>165.8</ele>
        <time>2023-07-14T08:03:24Z</time>
      </trkpt>
      <trkpt lat="44.74114" lon="0.50189">
        <ele>166</ele>
        <time>2023-07-14T08:03:25Z</time>
      </trkpt>
      <trkpt lat="44.74116" lon="0.50184">
        <ele>166.3</ele>
        <time>2023-07-14T08:03:27Z</time>
      </trkpt>
      <trkpt lat="44.74117" lon="0.50181">
        <ele>166.5</ele>
        <time>2023-07-14T08:03:28Z</time>
      </trkpt>
      <trkpt lat="44.74119" lon="0.50178">
        <ele>166.6</ele>
        <time>2023-07-14T08:03:29Z</time>
      </trkpt>
      <trkpt lat="44.7412" lon="0.50173">
        <ele>167</ele>
        <time>2023-07-14T08:03:31Z</time>
      </trkpt>
      <trkpt lat="44.74122" lon="0.50168">
        <ele>167.3</ele>
        <time>2023-07-14T08:03:33Z</time>
      </trkpt>
      <trkpt lat="44.74123" lon="0.50166">
        <ele>167.4</ele>
        <time>2023-07-14T08:03:34Z</time>
      </trkpt>
      <trkpt lat="44.74125" lon="0.50165">
        <ele>167.6</ele>
        <time>2023-07-14T08:03:35Z</time>
      </trkpt>
      <trkpt lat="44.74127" lon="0.50161">
        <ele>167.8</ele>
        <time>2023-07-14T08:03:37Z</time>
      </trkpt>
      <trkpt lat="44.74128" lon="0.50159">
        <ele>167.9</ele>
        <time>2023-07-14T08:03:38Z</time>
      </trkpt>
      <trkpt lat="44.74129" lon="0.50158">
        <ele>168</ele>
        <time>2023-07-14T08:03:39Z</time>
      </trkpt>
      <trkpt lat="44.74131" lon="0.50153">
        <ele>168.2</ele>
        <time>2023-07-14T08:03:41Z</time>
      </trkpt>
      <trkpt lat="44.74132" lon="0.50147">
        <ele>168.4</ele>
        <time>2023-07-14T08:03:43Z</time>
      </trkpt>
      <trkpt lat="44.74134" lon="0.50142">
        <ele>168.6</ele>
        <time>2023-07-14T08:03:45Z</time>
      </trkpt>
      <trkpt lat="44.74136" lon="0.50137">
        <ele>168.7</ele>
        <time>2023-07-14T08:03:47Z</time>
      </trkpt>
      <trkpt lat="44.74136" lon="0.50134">
        <ele>168.7</ele>
        <time>2023-07-14T08:03:48Z</time>
      </trkpt>
      <trkpt lat="44.74138" lon="0.50134">
        <ele>168.7</ele>
        <time>2023-07-14T08:03:49Z</time>
      </trkpt>
      <trkpt lat="44.7414" lon="0.50132">
        <ele>168.7</ele>
        <time>2023-07-14T08:03:51Z</time>
      </trkpt>
      <trkpt lat="44.74143" lon="0.5013">
        <ele>168.7</ele>
        <time>2023-07-14T08:03:53Z</time>
      </trkpt>
      <trkpt lat="44.74148" lon="0.5013">
        <ele>168.5</ele>
        <time>2023-07-14T08:03:55Z</time>
      </trkpt>
      <trkpt lat="44.74154" lon="0.50129">
        <ele>168.3</ele>
        <time>2023-07-14T08:03:57Z</time>
      </trkpt>
      <trkpt lat="44.74157" lon="0.50127">
        <ele>168.1</ele>
        <time>2023-07-14T08:03:58Z</time>
      </trkpt>
      <trkpt lat="44.74162" lon="0.50126">
        <ele>167.8</ele>
        <time>2023-07-14T08:03:59Z</time>
      </trkpt>
      <trkpt lat="44.7417" lon="0.50126">
        <ele>167.3</ele>
        <time>2023-07-14T08:04:01Z</time>
      </trkpt>
      <trkpt lat="44.74175" lon="0.50124">
        <ele>167</ele>
        <time>2023-07-14T08:04:02Z</time>
      </trkpt>
      <trkpt lat="44.74179" lon="0.50121">
        <ele>166.7</ele>
        <time>2023-07-14T08:04:03Z</time>
      </trkpt>
      <trkpt lat="44.74187" lon="0.50117">
        <ele>166.2</ele>
        <time>2023-07-14T08:04:05Z</time>
      </trkpt>
      <trkpt lat="44.74199" lon="0.50116">
        <ele>165.5</ele>
        <time>2023-07-14T08:04:07Z</time>
      </trkpt>
      <trkpt lat="44.74204" lon="0.50115">
        <ele>165.1</ele>
        <time>2023-07-14T08:04:08Z</time>
      </trkpt>
      <trkpt lat="44.74208" lon="0.50113">
        <ele>164.8</ele>
        <time>2023-07-14T08:04:09Z</time>
      </trkpt>
      <trkpt lat="44.74212" lon="0.50112">
        <ele>164.5</ele>
        <time>2023-07-14T08:04:10Z</time>
      </trkpt>
      <trkpt lat="44.74217" lon="0.50111">
        <ele>164.3</ele>
        <time>2023-07-14T08:04:11Z</time>
      </trkpt>
      <trkpt lat="44.74225" lon="0.50112">
        <ele>163.7</ele>
        <time>2023-07-14T08:04:13Z</time>
      </trkpt>
      <trkpt lat="44.74232" lon="0.50111">
        <ele>163.1</ele>
        <time>2023-07-14T08:04:15Z</time>
      </trkpt>
      <trkpt lat="44.7424" lon="0.50107">
        <ele>162.5</ele>
        <time>2023-07-14T08:04:17Z</time>
      </trkpt>
      <trkpt lat="44.74245" lon="0.50101">
        <ele>162.1</ele>
        <time>2023-07-14T08:04:19Z</time>
      </trkpt>
      <trkpt lat="44.74251" lon="0.50098">
        <ele>161.8</ele>
        <time>2023-07-14T08:04:21Z</time>
      </trkpt>
      <trkpt lat="44.74255" lon="0.50097">
        <ele>161.6</ele>
        <time>2023-07-14T08:04:23Z</time>
      </trkpt>
      <trkpt lat="44.7426" lon="0.50097">
        <ele>161.4</ele>
        <time>2023-07-14T08:04:25Z</time>
      </trkpt>
      <trkpt lat="44.74267" lon="0.50096">
        <ele>161.1</ele>
        <time>2023-07-14T08:04:27Z</time>
      </trkpt>
      <trkpt lat="44.74273" lon="0.50094">
        <ele>160.8</ele>
        <time>2023-07-14T08:04:29Z</time>
      </trkpt>
      <trkpt lat="44.74281" lon="0.50093">
        <ele>160.5</ele>
        <time>2023-07-14T08:04:31Z</time>
      </trkpt>
      <trkpt lat="44.74285" lon="0.50093">
        <ele>160.3</ele>
        <time>2023-07-14T08:04:32Z</time>
      </trkpt>
      <trkpt lat="44.74289" lon="0.50092">
        <ele>160.1</ele>
        <time>2023-07-14T08:04:33Z</time>
      </trkpt>
      <trkpt lat="44.74299" lon="0.50091">
        <ele>159.6</ele>
        <time>2023-07-14T08:04:35Z</time>
      </trkpt>
      <trkpt lat="44.74305" lon="0.50091">
        <ele>159.4</ele>
        <time>2023-07-14T08:04:36Z</time>
      </trkpt>
      <trkpt lat="44.74311" lon="0.50091">
        <ele>159.1</ele>
        <time>2023-07-14T08:04:37Z</time>
      </trkpt>
      <trkpt lat="44.74322" lon="0.50089">
        <ele>158.7</ele>
        <time>2023-07-14T08:04:39Z</time>
      </trkpt>
      <trkpt lat="44.74333" lon="0.50088">
        <ele>158.2</ele>
        <time>2023-07-14T08:04:41Z</time>
      </trkpt>
      <trkpt lat="44.74345" lon="0.50088">
        <ele>157.6</ele>
        <time>2023-07-14T08:04:43Z</time>
      </trkpt>
      <trkpt lat="44.74357" lon="0.50086">
        <ele>157</ele>
        <time>2023-07-14T08:04:45Z</time>
      </trkpt>
      <trkpt lat="44.74367" lon="0.50085">
        <ele>156.5</ele>
        <time>2023-07-14T08:04:47Z</time>
      </trkpt>
      <trkpt lat="44.74371" lon="0.50086">
        <ele>156.3</ele>
        <time>2023-07-14T08:04:48Z</time>
      </trkpt>
      <trkpt lat="44.74375" lon="0.5009">
        <ele>156</ele>
        <time>2023-07-14T08:04:49Z</time>
      </trkpt>
      <trkpt lat="44.74389" lon="0.50098">
        <ele>155.2</ele>
        <time>2023-07-14T08:04:51Z</time>
      </trkpt>
      <trkpt lat="44.74397" lon="0.50102">
        <ele>154.8</ele>
        <time>2023-07-14T08:04:52Z</time>
      </trkpt>
      <trkpt lat="44.74405" lon="0.50106">
        <ele>154.5</ele>
        <time>2023-07-14T08:04:53Z</time>
      </trkpt>
      <trkpt lat="44.74421" lon="0.50112">
        <ele>154.1</ele>
        <time>2023-07-14T08:04:55Z</time>
      </trkpt>
      <trkpt lat="44.74434" lon="0.50115">
        <ele>154.1</ele>
        <time>2023-07-14T08:04:57Z</time>
      </trkpt>
      <trkpt lat="44.74448" lon="0.50114">
        <ele>154.1</ele>
        <time>2023-07-14T08:04:59Z</time>
      </trkpt>
      <trkpt lat="44.74461" lon="0.50112">
        <ele>154.1</ele>
        <time>2023-07-14T08:05:01Z</time>
      </trkpt>
      <trkpt lat="44.74467" lon="0.50111">
        <ele>154</ele>
        <time>2023-07-14T08:05:02Z</time>
      </trkpt>
      <trkpt lat="44.74475" lon="0.50109">
        <ele>153.9</ele>
        <time>2023-07-14T08:05:03Z</time>
      </trkpt>
      <trkpt lat="44.74489" lon="0.50105">
        <ele>153.7</ele>
        <time>2023-07-14T08:05:05Z</time>
      </trkpt>
      <trkpt lat="44.74502" lon="0.50097">
        <ele>153.3</ele>
        <time>2023-07-14T08:05:07Z</time>
      </trkpt>
      <trkpt lat="44.74509" lon="0.50093">
        <ele>153.1</ele>
        <time>2023-07-14T08:05:08Z</time>
      </trkpt>
      <trkpt lat="44.74516" lon="0.5009">
        <ele>152.9</ele>
        <time>2023-07-14T08:05:09Z</time>
      </trkpt>
      <trkpt lat="44.74523" lon="0.50086">
        <ele>152.7</ele>
        <time>2023-07-14T08:05:10Z</time>
      </trkpt>
      <trkpt lat="44.74529" lon="0.50083">
        <ele>152.4</ele>
        <time>2023-07-14T08:05:11Z</time>
      </trkpt>
      <trkpt lat="44.74537" lon="0.50079">
        <ele>152</ele>
        <time>2023-07-14T08:05:12Z</time>
      </trkpt>
      <trkpt lat="44.74545" lon="0.50076">
        <ele>151.5</ele>
        <time>2023-07-14T08:05:13Z</time>
      </trkpt>
      <trkpt lat="44.74561" lon="0.50067">
        <ele>150.3</ele>
        <time>2023-07-14T08:05:15Z</time>
      </trkpt>
      <trkpt lat="44.74569" lon="0.50064">
        <ele>149.7</ele>
        <time>2023-07-14T08:05:16Z</time>
      </trkpt>
      <trkpt lat="44.74576" lon="0.50062">
        <ele>149</ele>
        <time>2023-07-14T08:05:17Z</time>
      </trkpt>
      <trkpt lat="44.74592" lon="0.50062">
        <ele>147.4</ele>
        <time>2023-07-14T08:05:19Z</time>
      </trkpt>
      <trkpt lat="44.746" lon="0.50063">
        <ele>146.5</ele>
        <time>2023-07-14T08:05:20Z</time>
      </trkpt>
      <trkpt lat="44.74608" lon="0.50067">
        <ele>145.6</ele>
        <time>2023-07-14T08:05:21Z</time>
      </trkpt>
      <trkpt lat="44.74616" lon="0.50071">
        <ele>144.8</ele>
        <time>2023-07-14T08:05:22Z</time>
      </trkpt>
      <trkpt lat="44.74622" lon="0.50075">
        <ele>144.1</ele>
        <time>2023-07-14T08:05:23Z</time>
      </trkpt>
      <trkpt lat="44.74637" lon="0.50077">
        <ele>143.1</ele>
        <time>2023-07-14T08:05:25Z</time>
      </trkpt>
      <trkpt lat="44.74653" lon="0.50074">
        <ele>142.5</ele>
        <time>2023-07-14T08:05:27Z</time>
      </trkpt>
      <trkpt lat="44.74668" lon="0.50072">
        <ele>142.2</ele>
        <time>2023-07-14T08:05:29Z</time>
      </trkpt>
      <trkpt lat="44.74683" lon="0.50071">
        <ele>142.1</ele>
        <time>2023-07-14T08:05:31Z</time>
      </trkpt>
      <trkpt lat="44.74697" lon="0.5007">
        <ele>142.1</ele>
        <time>2023-07-14T08:05:33Z</time>
      </trkpt>
      <trkpt lat="44.74704" lon="0.5007">
        <ele>142.1</ele>
        <time>2023-07-14T08:05:34Z</time>
      </trkpt>
      <trkpt lat="44.7471" lon="0.50071">
        <ele>142.1</ele>
        <time>2023-07-14T08:05:35Z</time>
      </trkpt>
      <trkpt lat="44.74717" lon="0.50073">
        <ele>142.1</ele>
        <time>2023-07-14T08:05:36Z</time>
      </trkpt>
      <trkpt lat="44.74724" lon="0.50077">
        <ele>141.9</ele>
        <time>2023-07-14T08:05:37Z</time>
      </trkpt>
      <trkpt lat="44.74731" lon="0.50081">
        <ele>141.7</ele>
        <time>2023-07-14T08:05:38Z</time>
      </trkpt>
      <trkpt lat="44.74737" lon="0.50086">
        <ele>141.4</ele>
        <time>2023-07-14T08:05:39Z</time>
      </trkpt>
      <trkpt lat="44.74744" lon="0.5009">
        <ele>141.2</ele>
        <time>2023-07-14T08:05:40Z</time>
      </trkpt>
      <trkpt lat="44.74751" lon="0.50094">
        <ele>141</ele>
        <time>2023-07-14T08:05:41Z</time>
      </trkpt>
      <trkpt lat="44.74764" lon="0.50105">
        <ele>140.4</ele>
        <time>2023-07-14T08:05:43Z</time>
      </trkpt>
      <trkpt lat="44.74774" lon="0.5012">
        <ele>139.5</ele>
        <time>2023-07-14T08:05:45Z</time>
      </trkpt>
      <trkpt lat="44.74779" lon="0.50129">
        <ele>139</ele>
        <time>2023-07-14T08:05:46Z</time>
      </trkpt>
      <trkpt lat="44.74783" lon="0.50136">
        <ele>138.5</ele>
        <time>2023-07-14T08:05:47Z</time>
      </trkpt>
      <trkpt lat="44.74791" lon="0.50142">
        <ele>137.9</ele>
        <time>2023-07-14T08:05:48Z</time>
      </trkpt>
      <trkpt lat="44.748" lon="0.50144">
        <ele>137.2</ele>
        <time>2023-07-14T08:05:49Z</time>
      </trkpt>
      <trkpt lat="44.74819" lon="0.50148">
        <ele>136.2</ele>
        <time>2023-07-14T08:05:51Z</time>
      </trkpt>
      <trkpt lat="44.74835" lon="0.50152">
        <ele>135.6</ele>
        <time>2023-07-14T08:05:53Z</time>
      </trkpt>
      <trkpt lat="44.7485" lon="0.50155">
        <ele>135.2</ele>
        <time>2023-07-14T08:05:55Z</time>
      </trkpt>
      <trkpt lat="44.74866" lon="0.50158">
        <ele>134.8</ele>
        <time>2023-07-14T08:05:57Z</time>
      </trkpt>
      <trkpt lat="44.74881" lon="0.5016">
        <ele>134.5</ele>
        <time>2023-07-14T08:05:59Z</time>
      </trkpt>
      <trkpt lat="44.74888" lon="0.50161">
        <ele>134.3</ele>
        <time>2023-07-14T08:06:00Z</time>
      </trkpt>
      <trkpt lat="44.74896" lon="0.50161">
        <ele>134.1</ele>
        <time>2023-07-14T08:06:01Z</time>
      </trkpt>
      <trkpt lat="44.74911" lon="0.50162">
        <ele>133.6</ele>
        <time>2023-07-14T08:06:03Z</time>
      </trkpt>
      <trkpt lat="44.74926" lon="0.50162">
        <ele>133.2</ele>
        <time>2023-07-14T08:06:05Z</time>
      </trkpt>
      <trkpt lat="44.74941" lon="0.50164">
        <ele>132.9</ele>
        <time>2023-07-14T08:06:07Z</time>
      </trkpt>
      <trkpt lat="44.74954" lon="0.50167">
        <ele>132.9</ele>
        <time>2023-07-14T08:06:09Z</time>
      </trkpt>
      <trkpt lat="44.74966" lon="0.50169">
        <ele>133</ele>
        <time>2023-07-14T08:06:11Z</time>
      </trkpt>
      <trkpt lat="44.74972" lon="0.5017">
        <ele>133</ele>
        <time>2023-07-14T08:06:12Z</time>
      </trkpt>
      <trkpt lat="44.74979" lon="0.5017">
        <ele>133.1</ele>
        <time>2023-07-14T08:06:13Z</time>
      </trkpt>
      <trkpt lat="44.74991" lon="0.5017">
        <ele>133.4</ele>
        <time>2023-07-14T08:06:15Z</time>
      </trkpt>
      <trkpt lat="44.75002" lon="0.5017">
        <ele>133.6</ele>
        <time>2023-07-14T08:06:17Z</time>
      </trkpt>
      <trkpt lat="44.75007" lon="0.5017">
        <ele>133.8</ele>
        <time>2023-07-14T08:06:18Z</time>
      </trkpt>
      <trkpt lat="44.75013" lon="0.5017">
        <ele>134</ele>
        <time>2023-07-14T08:06:19Z</time>
      </trkpt>
      <trkpt lat="44.75023" lon="0.50169">
        <ele>134.4</ele>
        <time>2023-07-14T08:06:21Z</time>
      </trkpt>
      <trkpt lat="44.75033" lon="0.50169">
        <ele>134.8</ele>
        <time>2023-07-14T08:06:23Z</time>
      </trkpt>
      <trkpt lat="44.75042" lon="0.50169">
        <ele>135.3</ele>
        <time>2023-07-14T08:06:25Z</time>
      </trkpt>
      <trkpt lat="44.75047" lon="0.50169">
        <ele>135.5</ele>
        <time>2023-07-14T08:06:26Z</time>
      </trkpt>
      <trkpt lat="44.75051" lon="0.5017">
        <ele>135.8</ele>
        <time>2023-07-14T08:06:27Z</time>
      </trkpt>
      <trkpt lat="44.75059" lon="0.50169">
        <ele>136.2</ele>
        <time>2023-07-14T08:06:29Z</time>
      </trkpt>
      <trkpt lat="44.75067" lon="0.50169">
        <ele>136.7</ele>
        <time>2023-07-14T08:06:31Z</time>
      </trkpt>
      <trkpt lat="44.75075" lon="0.50168">
        <ele>137.1</ele>
        <time>2023-07-14T08:06:33Z</time>
      </trkpt>
      <trkpt lat="44.75079" lon="0.50168">
        <ele>137.3</ele>
        <time>2023-07-14T08:06:34Z</time>
      </trkpt>
      <trkpt lat="44.75082" lon="0.50167">
        <ele>137.5</ele>
        <time>2023-07-14T08:06:35Z</time>
      </trkpt>
      <trkpt lat="44.7509" lon="0.50166">
        <ele>137.9</ele>
        <time>2023-07-14T08:06:37Z</time>
      </trkpt>
      <trkpt lat="44.75097" lon="0.50165">
        <ele>138.2</ele>
        <time>2023-07-14T08:06:39Z</time>
      </trkpt>
      <trkpt lat="44.75104" lon="0.50163">
        <ele>138.5</ele>
        <time>2023-07-14T08:06:41Z</time>
      </trkpt>
      <trkpt lat="44.75111" lon="0.50163">
        <ele>138.8</ele>
        <time>2023-07-14T08:06:43Z</time>
      </trkpt>
      <trkpt lat="44.75115" lon="0.50162">
        <ele>139</ele>
        <time>2023-07-14T08:06:44Z</time>
      </trkpt>
      <trkpt lat="44.75118" lon="0.50162">
        <ele>139.2</ele>
        <time>2023-07-14T08:06:45Z</time>
      </trkpt>
      <trkpt lat="44.75126" lon="0.50162">
        <ele>139.5</ele>
        <time>2023-07-14T08:06:47Z</time>
      </trkpt>
      <trkpt lat="44.75133" lon="0.50161">
        <ele>139.9</ele>
        <time>2023-07-14T08:06:49Z</time>
      </trkpt>
      <trkpt lat="44.7514" lon="0.50161">
        <ele>140.3</ele>
        <time>2023-07-14T08:06:51Z</time>
      </trkpt>
      <trkpt lat="44.75146" lon="0.50161">
        <ele>140.6</ele>
        <time>2023-07-14T08:06:53Z</time>
      </trkpt>
      <trkpt lat="44.75152" lon="0.50161">
        <ele>141</ele>
        <time>2023-07-14T08:06:55Z</time>
      </trkpt>
      <trkpt lat="44.75157" lon="0.50161">
        <ele>141.5</ele>
        <time>2023-07-14T08:06:57Z</time>
      </trkpt>
      <trkpt lat="44.75162" lon="0.50162">
        <ele>141.9</ele>
        <time>2023-07-14T08:06:59Z</time>
      </trkpt>
      <trkpt lat="44.75167" lon="0.50162">
        <ele>142.3</ele>
        <time>2023-07-14T08:07:01Z</time>
      </trkpt>
      <trkpt lat="44.75172" lon="0.50162">
        <ele>142.8</ele>
        <time>2023-07-14T08:07:03Z</time>
      </trkpt>
      <trkpt lat="44.75174" lon="0.50162">
        <ele>143</ele>
        <time>2023-07-14T08:07:04Z</time>
      </trkpt>
      <trkpt lat="44.75176" lon="0.50161">
        <ele>143.2</ele>
        <time>2023-07-14T08:07:05Z</time>
      </trkpt>
      <trkpt lat="44.7518" lon="0.50161">
        <ele>143.6</ele>
        <time>2023-07-14T08:07:07Z</time>
      </trkpt>
      <trkpt lat="44.75181" lon="0.50161">
        <ele>143.7</ele>
        <time>2023-07-14T08:07:08Z</time>
      </trkpt>
      <trkpt lat="44.75182" lon="0.50163">
        <ele>143.6</ele>
        <time>2023-07-14T08:07:09Z</time>
      </trkpt>
      <trkpt lat="44.75183" lon="0.50166">
        <ele>143.5</ele>
        <time>2023-07-14T08:07:10Z</time>
      </trkpt>
      <trkpt lat="44.75182" lon="0.50169">
        <ele>143.4</ele>
        <time>2023-07-14T08:07:11Z</time>
      </trkpt>
      <trkpt lat="44.75181" lon="0.50178">
        <ele>143.1</ele>
        <time>2023-07-14T08:07:13Z</time>
      </trkpt>
      <trkpt lat="44.75179" lon="0.5019">
        <ele>142.8</ele>
        <time>2023-07-14T08:07:15Z</time>
      </trkpt>
      <trkpt lat="44.75177" lon="0.50203">
        <ele>142.4</ele>
        <time>2023-07-14T08:07:17Z</time>
      </trkpt>
      <trkpt lat="44.75174" lon="0.50217">
        <ele>142</ele>
        <time>2023-07-14T08:07:19Z</time>
      </trkpt>
      <trkpt lat="44.75172" lon="0.50233">
        <ele>141.7</ele>
        <time>2023-07-14T08:07:21Z</time>
      </trkpt>
      <trkpt lat="44.75169" lon="0.50248">
        <ele>141.5</ele>
        <time>2023-07-14T08:07:23Z</time>
      </trkpt>
      <trkpt lat="44.75167" lon="0.50263">
        <ele>141.4</ele>
        <time>2023-07-14T08:07:25Z</time>
      </trkpt>
      <trkpt lat="44.75165" lon="0.50279">
        <ele>141.3</ele>
        <time>2023-07-14T08:07:27Z</time>
      </trkpt>
      <trkpt lat="44.75162" lon="0.50294">
        <ele>141.2</ele>
        <time>2023-07-14T08:07:29Z</time>
      </trkpt>
      <trkpt lat="44.7516" lon="0.50309">
        <ele>141</ele>
        <time>2023-07-14T08:07:31Z</time>
      </trkpt>
      <trkpt lat="44.75158" lon="0.50323">
        <ele>140.8</ele>
        <time>2023-07-14T08:07:33Z</time>
      </trkpt>
      <trkpt lat="44.75156" lon="0.50337">
        <ele>140.8</ele>
        <time>2023-07-14T08:07:35Z</time>
      </trkpt>
      <trkpt lat="44.75154" lon="0.50351">
        <ele>140.9</ele>
        <time>2023-07-14T08:07:37Z</time>
      </trkpt>
      <trkpt lat="44.75151" lon="0.50364">
        <ele>141.2</ele>
        <time>2023-07-14T08:07:39Z</time>
      </trkpt>
      <trkpt lat="44.75149" lon="0.50377">
        <ele>141.4</ele>
        <time>2023-07-14T08:07:41Z</time>
      </trkpt>
      <trkpt lat="44.75148" lon="0.5039">
        <ele>141.6</ele>
        <time>2023-07-14T08:07:43Z</time>
      </trkpt>
      <trkpt lat="44.75148" lon="0.50402">
        <ele>141.8</ele>
        <time>2023-07-14T08:07:45Z</time>
      </trkpt>
      <trkpt lat="44.75148" lon="0.50414">
        <ele>142</ele>
        <time>2023-07-14T08:07:47Z</time>
      </trkpt>
      <trkpt lat="44.75146" lon="0.50426">
        <ele>142.4</ele>
        <time>2023-07-14T08:07:49Z</time>
      </trkpt>
      <trkpt lat="44.75144" lon="0.50436">
        <ele>142.8</ele>
        <time>2023-07-14T08:07:51Z</time>
      </trkpt>
      <trkpt lat="44.75142" lon="0.50446">
        <ele>143.3</ele>
        <time>2023-07-14T08:07:53Z</time>
      </trkpt>
      <trkpt lat="44.75141" lon="0.50455">
        <ele>143.6</ele>
        <time>2023-07-14T08:07:55Z</time>
      </trkpt>
      <trkpt lat="44.75139" lon="0.50459">
        <ele>143.8</ele>
        <time>2023-07-14T08:07:56Z</time>
      </trkpt>
      <trkpt lat="44.75138" lon="0.50464">
        <ele>144</ele>
        <time>2023-07-14T08:07:57Z</time>
      </trkpt>
      <trkpt lat="44.75136" lon="0.50473">
        <ele>144.4</ele>
        <time>2023-07-14T08:07:59Z</time>
      </trkpt>
      <trkpt lat="44.75133" lon="0.50483">
        <ele>144.8</ele>
        <time>2023-07-14T08:08:01Z</time>
      </trkpt>
      <trkpt lat="44.7513" lon="0.50492">
        <ele>145.1</ele>
        <time>2023-07-14T08:08:03Z</time>
      </trkpt>
      <trkpt lat="44.75129" lon="0.50497">
        <ele>145.3</ele>
        <time>2023-07-14T08:08:04Z</time>
      </trkpt>
      <trkpt lat="44.75128" lon="0.50501">
        <ele>145.5</ele>
        <time>2023-07-14T08:08:05Z</time>
      </trkpt>
      <trkpt lat="44.75125" lon="0.50511">
        <ele>145.8</ele>
        <time>2023-07-14T08:08:07Z</time>
      </trkpt>
      <trkpt lat="44.75122" lon="0.5052">
        <ele>146.1</ele>
        <time>2023-07-14T08:08:09Z</time>
      </trkpt>
      <trkpt lat="44.7512" lon="0.50529">
        <ele>146.3</ele>
        <time>2023-07-14T08:08:11Z</time>
      </trkpt>
      <trkpt lat="44.75117" lon="0.50539">
        <ele>146.5</ele>
        <time>2023-07-14T08:08:13Z</time>
      </trkpt>
      <trkpt lat="44.75115" lon="0.50551">
        <ele>146.5</ele>
        <time>2023-07-14T08:08:15Z</time>
      </trkpt>
      <trkpt lat="44.75111" lon="0.50563">
        <ele>146.4</ele>
        <time>2023-07-14T08:08:17Z</time>
      </trkpt>
      <trkpt lat="44.75109" lon="0.50569">
        <ele>146.3</ele>
        <time>2023-07-14T08:08:18Z</time>
      </trkpt>
      <trkpt lat="44.75107" lon="0.50576">
        <ele>146.3</ele>
        <time>2023-07-14T08:08:19Z</time>
      </trkpt>
      <trkpt lat="44.75106" lon="0.50583">
        <ele>146.2</ele>
        <time>2023-07-14T08:08:20Z</time>
      </trkpt>
      <trkpt lat="44.75105" lon="0.5059">
        <ele>146.1</ele>
        <time>2023-07-14T08:08:21Z</time>
      </trkpt>
      <trkpt lat="44.75103" lon="0.50604">
        <ele>146</ele>
        <time>2023-07-14T08:08:23Z</time>
      </trkpt>
      <trkpt lat="44.75103" lon="0.50611">
        <ele>146</ele>
        <time>2023-07-14T08:08:24Z</time>
      </trkpt>
      <trkpt lat="44.75104" lon="0.50618">
        <ele>145.9</ele>
        <time>2023-07-14T08:08:25Z</time>
      </trkpt>
      <trkpt lat="44.75105" lon="0.50632">
        <ele>145.9</ele>
        <time>2023-07-14T08:08:27Z</time>
      </trkpt>
      <trkpt lat="44.75108" lon="0.50646">
        <ele>146</ele>
        <time>2023-07-14T08:08:29Z</time>
      </trkpt>
      <trkpt lat="44.75109" lon="0.5066">
        <ele>146.2</ele>
        <time>2023-07-14T08:08:31Z</time>
      </trkpt>
      <trkpt lat="44.75109" lon="0.50673">
        <ele>146.4</ele>
        <time>2023-07-14T08:08:33Z</time>
      </trkpt>
      <trkpt lat="44.75109" lon="0.50686">
        <ele>146.8</ele>
        <time>2023-07-14T08:08:35Z</time>
      </trkpt>
      <trkpt lat="44.75109" lon="0.50699">
        <ele>147.1</ele>
        <time>2023-07-14T08:08:37Z</time>
      </trkpt>
      <trkpt lat="44.75109" lon="0.50705">
        <ele>147.3</ele>
        <time>2023-07-14T08:08:38Z</time>
      </trkpt>
      <trkpt lat="44.75108" lon="0.50712">
        <ele>147.4</ele>
        <time>2023-07-14T08:08:39Z</time>
      </trkpt>
      <trkpt lat="44.75108" lon="0.50718">
        <ele>147.5</ele>
        <time>2023-07-14T08:08:40Z</time>
      </trkpt>
      <trkpt lat="44.75108" lon="0.50725">
        <ele>147.5</ele>
        <time>2023-07-14T08:08:41Z</time>
      </trkpt>
      <trkpt lat="44.75109" lon="0.50739">
        <ele>147.6</ele>
        <time>2023-07-14T08:08:43Z</time>
      </trkpt>
      <trkpt lat="44.75109" lon="0.50754">
        <ele>147.4</ele>
        <time>2023-07-14T08:08:45Z</time>
      </trkpt>
      <trkpt lat="44.75106" lon="0.50768">
        <ele>147.2</ele>
        <time>2023-07-14T08:08:47Z</time>
      </trkpt>
      <trkpt lat="44.75105" lon="0.50774">
        <ele>147.1</ele>
        <time>2023-07-14T08:08:48Z</time>
      </trkpt>
      <trkpt lat="44.75104" lon="0.50781">
        <ele>147</ele>
        <time>2023-07-14T08:08:49Z</time>
      </trkpt>
      <trkpt lat="44.75103" lon="0.50796">
        <ele>146.8</ele>
        <time>2023-07-14T08:08:51Z</time>
      </trkpt>
      <trkpt lat="44.75102" lon="0.50803">
        <ele>146.8</ele>
        <time>2023-07-14T08:08:52Z</time>
      </trkpt>
      <trkpt lat="44.751" lon="0.50811">
        <ele>146.7</ele>
        <time>2023-07-14T08:08:53Z</time>
      </trkpt>
      <trkpt lat="44.75097" lon="0.50826">
        <ele>146.6</ele>
        <time>2023-07-14T08:08:55Z</time>
      </trkpt>
      <trkpt lat="44.75093" lon="0.50841">
        <ele>146.4</ele>
        <time>2023-07-14T08:08:57Z</time>
      </trkpt>
      <trkpt lat="44.75091" lon="0.50848">
        <ele>146.4</ele>
        <time>2023-07-14T08:08:58Z</time>
      </trkpt>
      <trkpt lat="44.7509" lon="0.50856">
        <ele>146.4</ele>
        <time>2023-07-14T08:08:59Z</time>
      </trkpt>
      <trkpt lat="44.75087" lon="0.5087">
        <ele>146.4</ele>
        <time>2023-07-14T08:09:01Z</time>
      </trkpt>
      <trkpt lat="44.75083" lon="0.50883">
        <ele>146.5</ele>
        <time>2023-07-14T08:09:03Z</time>
      </trkpt>
      <trkpt lat="44.7508" lon="0.50895">
        <ele>146.8</ele>
        <time>2023-07-14T08:09:05Z</time>
      </trkpt>
      <trkpt lat="44.75078" lon="0.50907">
        <ele>147.1</ele>
        <time>2023-07-14T08:09:07Z</time>
      </trkpt>
      <trkpt lat="44.75075" lon="0.50919">
        <ele>147.4</ele>
        <time>2023-07-14T08:09:09Z</time>
      </trkpt>
      <trkpt lat="44.75073" lon="0.50929">
        <ele>147.8</ele>
        <time>2023-07-14T08:09:11Z</time>
      </trkpt>
      <trkpt lat="44.75072" lon="0.50935">
        <ele>148</ele>
        <time>2023-07-14T08:09:12Z</time>
      </trkpt>
      <trkpt lat="44.75072" lon="0.5094">
        <ele>148.1</ele>
        <time>2023-07-14T08:09:13Z</time>
      </trkpt>
      <trkpt lat="44.75071" lon="0.50946">
        <ele>148.3</ele>
        <time>2023-07-14T08:09:14Z</time>
      </trkpt>
      <trkpt lat="44.75071" lon="0.50952">
        <ele>148.4</ele>
        <time>2023-07-14T08:09:15Z</time>
      </trkpt>
      <trkpt lat="44.7507" lon="0.50965">
        <ele>148.6</ele>
        <time>2023-07-14T08:09:17Z</time>
      </trkpt>
      <trkpt lat="44.75069" lon="0.50971">
        <ele>148.6</ele>
        <time>2023-07-14T08:09:18Z</time>
      </trkpt>
      <trkpt lat="44.75069" lon="0.50978">
        <ele>148.7</ele>
        <time>2023-07-14T08:09:19Z</time>
      </trkpt>
      <trkpt lat="44.75067" lon="0.50991">
        <ele>148.9</ele>
        <time>2023-07-14T08:09:21Z</time>
      </trkpt>
      <trkpt lat="44.75064" lon="0.51003">
        <ele>149.1</ele>
        <time>2023-07-14T08:09:23Z</time>
      </trkpt>
      <trkpt lat="44.75063" lon="0.51008">
        <ele>149.1</ele>
        <time>2023-07-14T08:09:24Z</time>
      </trkpt>
      <trkpt lat="44.75063" lon="0.51013">
        <ele>149.2</ele>
        <time>2023-07-14T08:09:25Z</time>
      </trkpt>
      <trkpt lat="44.75066" lon="0.51021">
        <ele>149.4</ele>
        <time>2023-07-14T08:09:27Z</time>
      </trkpt>
      <trkpt lat="44.75068" lon="0.51023">
        <ele>149.5</ele>
        <time>2023-07-14T08:09:28Z</time>
      </trkpt>
      <trkpt lat="44.75071" lon="0.51026">
        <ele>149.6</ele>
        <time>2023-07-14T08:09:29Z</time>
      </trkpt>
      <trkpt lat="44.75075" lon="0.51028">
        <ele>149.9</ele>
        <time>2023-07-14T08:09:31Z</time>
      </trkpt>
      <trkpt lat="44.7508" lon="0.5103">
        <ele>150.3</ele>
        <time>2023-07-14T08:09:33Z</time>
      </trkpt>
      <trkpt lat="44.75085" lon="0.51032">
        <ele>150.7</ele>
        <time>2023-07-14T08:09:35Z</time>
      </trkpt>
      <trkpt lat="44.75088" lon="0.51033">
        <ele>150.8</ele>
        <time>2023-07-14T08:09:36Z</time>
      </trkpt>
      <trkpt lat="44.7509" lon="0.51034">
        <ele>151</ele>
        <time>2023-07-14T08:09:37Z</time>
      </trkpt>
      <trkpt lat="44.75094" lon="0.51035">
        <ele>151.3</ele>
        <time>2023-07-14T08:09:39Z</time>
      </trkpt>
      <trkpt lat="44.75097" lon="0.51037">
        <ele>151.6</ele>
        <time>2023-07-14T08:09:41Z</time>
      </trkpt>
      <trkpt lat="44.75102" lon="0.51039">
        <ele>151.9</ele>
        <time>2023-07-14T08:09:43Z</time>
      </trkpt>
      <trkpt lat="44.75106" lon="0.51041">
        <ele>152.3</ele>
        <time>2023-07-14T08:09:45Z</time>
      </trkpt>
      <trkpt lat="44.75109" lon="0.51044">
        <ele>152.7</ele>
        <time>2023-07-14T08:09:47Z</time>
      </trkpt>
      <trkpt lat="44.7511" lon="0.51044">
        <ele>152.8</ele>
        <time>2023-07-14T08:09:48Z</time>
      </trkpt>
      <trkpt lat="44.75112" lon="0.51045">
        <ele>153</ele>
        <time>2023-07-14T08:09:49Z</time>
      </trkpt>
      <trkpt lat="44.75115" lon="0.51046">
        <ele>153.4</ele>
        <time>2023-07-14T08:09:51Z</time>
      </trkpt>
      <trkpt lat="44.75117" lon="0.51047">
        <ele>153.6</ele>
        <time>2023-07-14T08:09:52Z</time>
      </trkpt>
      <trkpt lat="44.75118" lon="0.51049">
        <ele>153.9</ele>
        <time>2023-07-14T08:09:53Z</time>
      </trkpt>
      <trkpt lat="44.75122" lon="0.51051">
        <ele>154.3</ele>
        <time>2023-07-14T08:09:55Z</time>
      </trkpt>
      <trkpt lat="44.75125" lon="0.51053">
        <ele>154.7</ele>
        <time>2023-07-14T08:09:57Z</time>
      </trkpt>
      <trkpt lat="44.75126" lon="0.51053">
        <ele>155</ele>
        <time>2023-07-14T08:09:58Z</time>
      </trkpt>
      <trkpt lat="44.75128" lon="0.51055">
        <ele>154.9</ele>
        <time>2023-07-14T08:09:59Z</time>
      </trkpt>
      <trkpt lat="44.75131" lon="0.51057">
        <ele>154.7</ele>
        <time>2023-07-14T08:10:01Z</time>
      </trkpt>
      <trkpt lat="44.75135" lon="0.5106">
        <ele>154.5</ele>
        <time>2023-07-14T08:10:03Z</time>
      </trkpt>
      <trkpt lat="44.75137" lon="0.51062">
        <ele>154.4</ele>
        <time>2023-07-14T08:10:04Z</time>
      </trkpt>
      <trkpt lat="44.75138" lon="0.51065">
        <ele>154.5</ele>
        <time>2023-07-14T08:10:05Z</time>
      </trkpt>
      <trkpt lat="44.75139" lon="0.5107">
        <ele>154.7</ele>
        <time>2023-07-14T08:10:07Z</time>
      </trkpt>
      <trkpt lat="44.75139" lon="0.51073">
        <ele>154.8</ele>
        <time>2023-07-14T08:10:08Z</time>
      </trkpt>
      <trkpt lat="44.75138" lon="0.51075">
        <ele>154.9</ele>
        <time>2023-07-14T08:10:09Z</time>
      </trkpt>
      <trkpt lat="44.75136" lon="0.5108">
        <ele>155.1</ele>
        <time>2023-07-14T08:10:11Z</time>
      </trkpt>
      <trkpt lat="44.75134" lon="0.51085">
        <ele>155.2</ele>
        <time>2023-07-14T08:10:13Z</time>
      </trkpt>
      <trkpt lat="44.75132" lon="0.5109">
        <ele>155.3</ele>
        <time>2023-07-14T08:10:15Z</time>
      </trkpt>
      <trkpt lat="44.7513" lon="0.51095">
        <ele>155.4</ele>
        <time>2023-07-14T08:10:17Z</time>
      </trkpt>
      <trkpt lat="44.75128" lon="0.51101">
        <ele>155.5</ele>
        <time>2023-07-14T08:10:19Z</time>
      </trkpt>
      <trkpt lat="44.75125" lon="0.51108">
        <ele>155.6</ele>
        <time>2023-07-14T08:10:21Z</time>
      </trkpt>
      <trkpt lat="44.75124" lon="0.51111">
        <ele>155.6</ele>
        <time>2023-07-14T08:10:22Z</time>
      </trkpt>
      <trkpt lat="44.75122" lon="0.51115">
        <ele>155.6</ele>
        <time>2023-07-14T08:10:23Z</time>
      </trkpt>
      <trkpt lat="44.75119" lon="0.51122">
        <ele>155.7</ele>
        <time>2023-07-14T08:10:25Z</time>
      </trkpt>
      <trkpt lat="44.75116" lon="0.51129">
        <ele>155.7</ele>
        <time>2023-07-14T08:10:27Z</time>
      </trkpt>
      <trkpt lat="44.75113" lon="0.51136">
        <ele>155.7</ele>
        <time>2023-07-14T08:10:29Z</time>
      </trkpt>
      <trkpt lat="44.7511" lon="0.51144">
        <ele>155.8</ele>
        <time>2023-07-14T08:10:31Z</time>
      </trkpt>
      <trkpt lat="44.75107" lon="0.51151">
        <ele>155.8</ele>
        <time>2023-07-14T08:10:33Z</time>
      </trkpt>
      <trkpt lat="44.75104" lon="0.5116">
        <ele>155.8</ele>
        <time>2023-07-14T08:10:35Z</time>
      </trkpt>
      <trkpt lat="44.75102" lon="0.51169">
        <ele>155.9</ele>
        <time>2023-07-14T08:10:37Z</time>
      </trkpt>
      <trkpt lat="44.75101" lon="0.51178">
        <ele>155.9</ele>
        <time>2023-07-14T08:10:39Z</time>
      </trkpt>
      <trkpt lat="44.75101" lon="0.51187">
        <ele>156</ele>
        <time>2023-07-14T08:10:41Z</time>
      </trkpt>
      <trkpt lat="44.75101" lon="0.51196">
        <ele>156.1</ele>
        <time>2023-07-14T08:10:43Z</time>
      </trkpt>
      <trkpt lat="44.75101" lon="0.51206">
        <ele>156.2</ele>
        <time>2023-07-14T08:10:45Z</time>
      </trkpt>
      <trkpt lat="44.751" lon="0.51216">
        <ele>156.2</ele>
        <time>2023-07-14T08:10:47Z</time>
      </trkpt>
      <trkpt lat="44.751" lon="0.51227">
        <ele>156.2</ele>
        <time>2023-07-14T08:10:49Z</time>
      </trkpt>
      <trkpt lat="44.75099" lon="0.51238">
        <ele>156.2</ele>
        <time>2023-07-14T08:10:51Z</time>
      </trkpt>
      <trkpt lat="44.75099" lon="0.51244">
        <ele>156.1</ele>
        <time>2023-07-14T08:10:52Z</time>
      </trkpt>
      <trkpt lat="44.75098" lon="0.5125">
        <ele>156.1</ele>
        <time>2023-07-14T08:10:53Z</time>
      </trkpt>
      <trkpt lat="44.75097" lon="0.51263">
        <ele>156</ele>
        <time>2023-07-14T08:10:55Z</time>
      </trkpt>
      <trkpt lat="44.75096" lon="0.51275">
        <ele>155.9</ele>
        <time>2023-07-14T08:10:57Z</time>
      </trkpt>
      <trkpt lat="44.75095" lon="0.51281">
        <ele>155.9</ele>
        <time>2023-07-14T08:10:58Z</time>
      </trkpt>
      <trkpt lat="44.75094" lon="0.51287">
        <ele>155.9</ele>
        <time>2023-07-14T08:10:59Z</time>
      </trkpt>
      <trkpt lat="44.75093" lon="0.51298">
        <ele>156</ele>
        <time>2023-07-14T08:11:01Z</time>
      </trkpt>
      <trkpt lat="44.75097" lon="0.51309">
        <ele>156.3</ele>
        <time>2023-07-14T08:11:03Z</time>
      </trkpt>
      <trkpt lat="44.75102" lon="0.51315">
        <ele>156.5</ele>
        <time>2023-07-14T08:11:05Z</time>
      </trkpt>
      <trkpt lat="44.75108" lon="0.51319">
        <ele>156.5</ele>
        <time>2023-07-14T08:11:07Z</time>
      </trkpt>
      <trkpt lat="44.75113" lon="0.51325">
        <ele>156.5</ele>
        <time>2023-07-14T08:11:09Z</time>
      </trkpt>
      <trkpt lat="44.75118" lon="0.5133">
        <ele>156.6</ele>
        <time>2023-07-14T08:11:11Z</time>
      </trkpt>
      <trkpt lat="44.7512" lon="0.51332">
        <ele>156.6</ele>
        <time>2023-07-14T08:11:12Z</time>
      </trkpt>
      <trkpt lat="44.75123" lon="0.51334">
        <ele>156.6</ele>
        <time>2023-07-14T08:11:13Z</time>
      </trkpt>
      <trkpt lat="44.75127" lon="0.51339">
        <ele>156.7</ele>
        <time>2023-07-14T08:11:15Z</time>
      </trkpt>
      <trkpt lat="44.75131" lon="0.51342">
        <ele>156.9</ele>
        <time>2023-07-14T08:11:17Z</time>
      </trkpt>
      <trkpt lat="44.75134" lon="0.51344">
        <ele>157</ele>
        <time>2023-07-14T08:11:19Z</time>
      </trkpt>
      <trkpt lat="44.75138" lon="0.51347">
        <ele>157.1</ele>
        <time>2023-07-14T08:11:21Z</time>
      </trkpt>
      <trkpt lat="44.75142" lon="0.51349">
        <ele>157.3</ele>
        <time>2023-07-14T08:11:23Z</time>
      </trkpt>
      <trkpt lat="44.75147" lon="0.51352">
        <ele>157.6</ele>
        <time>2023-07-14T08:11:25Z</time>
      </trkpt>
      <trkpt lat="44.75151" lon="0.51357">
        <ele>157.8</ele>
        <time>2023-07-14T08:11:27Z</time>
      </trkpt>
      <trkpt lat="44.75156" lon="0.5136">
        <ele>158.2</ele>
        <time>2023-07-14T08:11:29Z</time>
      </trkpt>
      <trkpt lat="44.75161" lon="0.51363">
        <ele>158.5</ele>
        <time>2023-07-14T08:11:31Z</time>
      </trkpt>
      <trkpt lat="44.75163" lon="0.51365">
        <ele>158.7</ele>
        <time>2023-07-14T08:11:32Z</time>
      </trkpt>
      <trkpt lat="44.75166" lon="0.51366">
        <ele>158.9</ele>
        <time>2023-07-14T08:11:33Z</time>
      </trkpt>
      <trkpt lat="44.7517" lon="0.51369">
        <ele>159.4</ele>
        <time>2023-07-14T08:11:35Z</time>
      </trkpt>
      <trkpt lat="44.75175" lon="0.51372">
        <ele>159.8</ele>
        <time>2023-07-14T08:11:37Z</time>
      </trkpt>
      <trkpt lat="44.7518" lon="0.51374">
        <ele>160.3</ele>
        <time>2023-07-14T08:11:39Z</time>
      </trkpt>
      <trkpt lat="44.75185" lon="0.51376">
        <ele>160.7</ele>
        <time>2023-07-14T08:11:41Z</time>
      </trkpt>
      <trkpt lat="44.7519" lon="0.51378">
        <ele>161.1</ele>
        <time>2023-07-14T08:11:43Z</time>
      </trkpt>
      <trkpt lat="44.75195" lon="0.51379">
        <ele>161.5</ele>
        <time>2023-07-14T08:11:45Z</time>
      </trkpt>
      <trkpt lat="44.752" lon="0.51381">
        <ele>161.8</ele>
        <time>2023-07-14T08:11:47Z</time>
      </trkpt>
      <trkpt lat="44.75205" lon="0.51382">
        <ele>162.1</ele>
        <time>2023-07-14T08:11:49Z</time>
      </trkpt>
      <trkpt lat="44.7521" lon="0.51383">
        <ele>162.3</ele>
        <time>2023-07-14T08:11:51Z</time>
      </trkpt>
      <trkpt lat="44.75216" lon="0.51384">
        <ele>162.5</ele>
        <time>2023-07-14T08:11:53Z</time>
      </trkpt>
      <trkpt lat="44.75221" lon="0.51385">
        <ele>162.7</ele>
        <time>2023-07-14T08:11:55Z</time>
      </trkpt>
      <trkpt lat="44.75226" lon="0.51385">
        <ele>162.8</ele>
        <time>2023-07-14T08:11:57Z</time>
      </trkpt>
      <trkpt lat="44.75229" lon="0.51386">
        <ele>162.8</ele>
        <time>2023-07-14T08:11:58Z</time>
      </trkpt>
      <trkpt lat="44.75232" lon="0.51386">
        <ele>162.9</ele>
        <time>2023-07-14T08:11:59Z</time>
      </trkpt>
      <trkpt lat="44.75238" lon="0.51386">
        <ele>162.9</ele>
        <time>2023-07-14T08:12:01Z</time>
      </trkpt>
      <trkpt lat="44.75244" lon="0.51387">
        <ele>162.9</ele>
        <time>2023-07-14T08:12:03Z</time>
      </trkpt>
      <trkpt lat="44.75251" lon="0.51388">
        <ele>162.7</ele>
        <time>2023-07-14T08:12:05Z</time>
      </trkpt>
      <trkpt lat="44.75255" lon="0.51388">
        <ele>162.7</ele>
        <time>2023-07-14T08:12:06Z</time>
      </trkpt>
      <trkpt lat="44.75258" lon="0.51388">
        <ele>162.5</ele>
        <time>2023-07-14T08:12:07Z</time>
      </trkpt>
      <trkpt lat="44.75267" lon="0.51389">
        <ele>162.1</ele>
        <time>2023-07-14T08:12:09Z</time>
      </trkpt>
      <trkpt lat="44.75277" lon="0.51389">
        <ele>161.6</ele>
        <time>2023-07-14T08:12:11Z</time>
      </trkpt>
      <trkpt lat="44.75283" lon="0.5139">
        <ele>161.3</ele>
        <time>2023-07-14T08:12:12Z</time>
      </trkpt>
      <trkpt lat="44.75289" lon="0.51391">
        <ele>161</ele>
        <time>2023-07-14T08:12:13Z</time>
      </trkpt>
      <trkpt lat="44.75301" lon="0.51393">
        <ele>160.3</ele>
        <time>2023-07-14T08:12:15Z</time>
      </trkpt>
      <trkpt lat="44.75315" lon="0.51393">
        <ele>159.7</ele>
        <time>2023-07-14T08:12:17Z</time>
      </trkpt>
      <trkpt lat="44.75322" lon="0.51394">
        <ele>159.4</ele>
        <time>2023-07-14T08:12:18Z</time>
      </trkpt>
      <trkpt lat="44.75329" lon="0.51395">
        <ele>159.1</ele>
        <time>2023-07-14T08:12:19Z</time>
      </trkpt>
      <trkpt lat="44.75344" lon="0.51396">
        <ele>158.4</ele>
        <time>2023-07-14T08:12:21Z</time>
      </trkpt>
      <trkpt lat="44.75359" lon="0.51396">
        <ele>157.6</ele>
        <time>2023-07-14T08:12:23Z</time>
      </trkpt>
      <trkpt lat="44.75366" lon="0.51397">
        <ele>157.1</ele>
        <time>2023-07-14T08:12:24Z</time>
      </trkpt>
      <trkpt lat="44.75374" lon="0.51398">
        <ele>156.5</ele>
        <time>2023-07-14T08:12:25Z</time>
      </trkpt>
      <trkpt lat="44.7539" lon="0.51399">
        <ele>155.1</ele>
        <time>2023-07-14T08:12:27Z</time>
      </trkpt>
      <trkpt lat="44.75407" lon="0.51401">
        <ele>153.1</ele>
        <time>2023-07-14T08:12:29Z</time>
      </trkpt>
      <trkpt lat="44.75416" lon="0.51402">
        <ele>152</ele>
        <time>2023-07-14T08:12:30Z</time>
      </trkpt>
      <trkpt lat="44.75426" lon="0.51402">
        <ele>150.8</ele>
        <time>2023-07-14T08:12:31Z</time>
      </trkpt>
      <trkpt lat="44.75448" lon="0.51405">
        <ele>148.7</ele>
        <time>2023-07-14T08:12:33Z</time>
      </trkpt>
      <trkpt lat="44.7546" lon="0.51406">
        <ele>147.9</ele>
        <time>2023-07-14T08:12:34Z</time>
      </trkpt>
      <trkpt lat="44.75472" lon="0.51407">
        <ele>147.4</ele>
        <time>2023-07-14T08:12:35Z</time>
      </trkpt>
      <trkpt lat="44.75495" lon="0.51409">
        <ele>146.8</ele>
        <time>2023-07-14T08:12:37Z</time>
      </trkpt>
      <trkpt lat="44.75516" lon="0.51412">
        <ele>146.3</ele>
        <time>2023-07-14T08:12:39Z</time>
      </trkpt>
      <trkpt lat="44.75523" lon="0.51412">
        <ele>146.2</ele>
        <time>2023-07-14T08:12:40Z</time>
      </trkpt>
      <trkpt lat="44.75528" lon="0.51412">
        <ele>146.1</ele>
        <time>2023-07-14T08:12:41Z</time>
      </trkpt>
      <trkpt lat="44.75534" lon="0.5141">
        <ele>146.1</ele>
        <time>2023-07-14T08:12:43Z</time>
      </trkpt>
      <trkpt lat="44.75538" lon="0.51401">
        <ele>146</ele>
        <time>2023-07-14T08:12:45Z</time>
      </trkpt>
      <trkpt lat="44.7554" lon="0.51396">
        <ele>145.8</ele>
        <time>2023-07-14T08:12:46Z</time>
      </trkpt>
      <trkpt lat="44.75544" lon="0.51393">
        <ele>145.5</ele>
        <time>2023-07-14T08:12:47Z</time>
      </trkpt>
      <trkpt lat="44.75549" lon="0.51392">
        <ele>145.2</ele>
        <time>2023-07-14T08:12:48Z</time>
      </trkpt>
      <trkpt lat="44.75556" lon="0.51393">
        <ele>144.8</ele>
        <time>2023-07-14T08:12:49Z</time>
      </trkpt>
      <trkpt lat="44.75569" lon="0.51396">
        <ele>144.1</ele>
        <time>2023-07-14T08:12:51Z</time>
      </trkpt>
      <trkpt lat="44.75584" lon="0.51399">
        <ele>143.5</ele>
        <time>2023-07-14T08:12:53Z</time>
      </trkpt>
      <trkpt lat="44.75591" lon="0.51401">
        <ele>143.2</ele>
        <time>2023-07-14T08:12:54Z</time>
      </trkpt>
      <trkpt lat="44.75598" lon="0.51403">
        <ele>143</ele>
        <time>2023-07-14T08:12:55Z</time>
      </trkpt>
      <trkpt lat="44.75613" lon="0.51405">
        <ele>142.6</ele>
        <time>2023-07-14T08:12:57Z</time>
      </trkpt>
      <trkpt lat="44.75627" lon="0.51409">
        <ele>142.3</ele>
        <time>2023-07-14T08:12:59Z</time>
      </trkpt>
      <trkpt lat="44.75642" lon="0.51412">
        <ele>142</ele>
        <time>2023-07-14T08:13:01Z</time>
      </trkpt>
      <trkpt lat="44.75649" lon="0.51414">
        <ele>141.9</ele>
        <time>2023-07-14T08:13:02Z</time>
      </trkpt>
      <trkpt lat="44.75656" lon="0.51417">
        <ele>141.8</ele>
        <time>2023-07-14T08:13:03Z</time>
      </trkpt>
      <trkpt lat="44.75671" lon="0.51422">
        <ele>141.7</ele>
        <time>2023-07-14T08:13:05Z</time>
      </trkpt>
      <trkpt lat="44.75678" lon="0.51421">
        <ele>141.6</ele>
        <time>2023-07-14T08:13:06Z</time>
      </trkpt>
      <trkpt lat="44.75684" lon="0.51417">
        <ele>141.5</ele>
        <time>2023-07-14T08:13:07Z</time>
      </trkpt>
      <trkpt lat="44.75693" lon="0.51402">
        <ele>141.3</ele>
        <time>2023-07-14T08:13:09Z</time>
      </trkpt>
      <trkpt lat="44.75699" lon="0.51385">
        <ele>141.2</ele>
        <time>2023-07-14T08:13:11Z</time>
      </trkpt>
      <trkpt lat="44.75704" lon="0.51367">
        <ele>141.1</ele>
        <time>2023-07-14T08:13:13Z</time>
      </trkpt>
      <trkpt lat="44.75711" lon="0.51356">
        <ele>141.1</ele>
        <time>2023-07-14T08:13:15Z</time>
      </trkpt>
      <trkpt lat="44.75716" lon="0.51353">
        <ele>141</ele>
        <time>2023-07-14T08:13:16Z</time>
      </trkpt>
      <trkpt lat="44.75721" lon="0.51351">
        <ele>140.9</ele>
        <time>2023-07-14T08:13:17Z</time>
      </trkpt>
      <trkpt lat="44.75734" lon="0.51354">
        <ele>140.6</ele>
        <time>2023-07-14T08:13:19Z</time>
      </trkpt>
      <trkpt lat="44.75746" lon="0.5136">
        <ele>140.5</ele>
        <time>2023-07-14T08:13:21Z</time>
      </trkpt>
      <trkpt lat="44.75758" lon="0.51367">
        <ele>140.7</ele>
        <time>2023-07-14T08:13:23Z</time>
      </trkpt>
      <trkpt lat="44.75764" lon="0.5137">
        <ele>140.9</ele>
        <time>2023-07-14T08:13:24Z</time>
      </trkpt>
      <trkpt lat="44.75769" lon="0.51373">
        <ele>141.1</ele>
        <time>2023-07-14T08:13:25Z</time>
      </trkpt>
      <trkpt lat="44.7578" lon="0.51379">
        <ele>141.6</ele>
        <time>2023-07-14T08:13:27Z</time>
      </trkpt>
      <trkpt lat="44.7579" lon="0.51385">
        <ele>142.2</ele>
        <time>2023-07-14T08:13:29Z</time>
      </trkpt>
      <trkpt lat="44.75799" lon="0.51391">
        <ele>142.6</ele>
        <time>2023-07-14T08:13:31Z</time>
      </trkpt>
      <trkpt lat="44.75807" lon="0.51396">
        <ele>143</ele>
        <time>2023-07-14T08:13:33Z</time>
      </trkpt>
      <trkpt lat="44.75816" lon="0.51401">
        <ele>143.3</ele>
        <time>2023-07-14T08:13:35Z</time>
      </trkpt>
      <trkpt lat="44.75825" lon="0.51405">
        <ele>143.6</ele>
        <time>2023-07-14T08:13:37Z</time>
      </trkpt>
      <trkpt lat="44.75829" lon="0.51407">
        <ele>143.7</ele>
        <time>2023-07-14T08:13:38Z</time>
      </trkpt>
      <trkpt lat="44.75834" lon="0.51407">
        <ele>143.8</ele>
        <time>2023-07-14T08:13:39Z</time>
      </trkpt>
      <trkpt lat="44.75839" lon="0.51407">
        <ele>143.8</ele>
        <time>2023-07-14T08:13:40Z</time>
      </trkpt>
      <trkpt lat="44.75843" lon="0.51406">
        <ele>143.8</ele>
        <time>2023-07-14T08:13:41Z</time>
      </trkpt>
      <trkpt lat="44.75854" lon="0.51407">
        <ele>143.8</ele>
        <time>2023-07-14T08:13:43Z</time>
      </trkpt>
      <trkpt lat="44.75859" lon="0.5141">
        <ele>143.7</ele>
        <time>2023-07-14T08:13:44Z</time>
      </trkpt>
      <trkpt lat="44.75865" lon="0.51412">
        <ele>143.6</ele>
        <time>2023-07-14T08:13:45Z</time>
      </trkpt>
      <trkpt lat="44.75876" lon="0.51418">
        <ele>143.3</ele>
        <time>2023-07-14T08:13:47Z</time>
      </trkpt>
      <trkpt lat="44.75887" lon="0.51424">
        <ele>142.8</ele>
        <time>2023-07-14T08:13:49Z</time>
      </trkpt>
      <trkpt lat="44.75893" lon="0.51428">
        <ele>142.6</ele>
        <time>2023-07-14T08:13:50Z</time>
      </trkpt>
      <trkpt lat="44.75899" lon="0.51431">
        <ele>142.3</ele>
        <time>2023-07-14T08:13:51Z</time>
      </trkpt>
      <trkpt lat="44.75906" lon="0.51435">
        <ele>142.1</ele>
        <time>2023-07-14T08:13:52Z</time>
      </trkpt>
      <trkpt lat="44.75912" lon="0.51438">
        <ele>141.9</ele>
        <time>2023-07-14T08:13:53Z</time>
      </trkpt>
      <trkpt lat="44.75918" lon="0.51442">
        <ele>141.6</ele>
        <time>2023-07-14T08:13:54Z</time>
      </trkpt>
      <trkpt lat="44.75925" lon="0.51445">
        <ele>141.4</ele>
        <time>2023-07-14T08:13:55Z</time>
      </trkpt>
      <trkpt lat="44.75938" lon="0.51453">
        <ele>141.2</ele>
        <time>2023-07-14T08:13:57Z</time>
      </trkpt>
      <trkpt lat="44.75951" lon="0.5146">
        <ele>141.2</ele>
        <time>2023-07-14T08:13:59Z</time>
      </trkpt>
      <trkpt lat="44.75965" lon="0.51467">
        <ele>141.2</ele>
        <time>2023-07-14T08:14:01Z</time>
      </trkpt>
      <trkpt lat="44.75977" lon="0.51475">
        <ele>141.2</ele>
        <time>2023-07-14T08:14:03Z</time>
      </trkpt>
      <trkpt lat="44.75988" lon="0.51485">
        <ele>141.2</ele>
        <time>2023-07-14T08:14:05Z</time>
      </trkpt>
      <trkpt lat="44.76" lon="0.51494">
        <ele>141.4</ele>
        <time>2023-07-14T08:14:07Z</time>
      </trkpt>
      <trkpt lat="44.76012" lon="0.51496">
        <ele>141.7</ele>
        <time>2023-07-14T08:14:09Z</time>
      </trkpt>
      <trkpt lat="44.76024" lon="0.51497">
        <ele>142</ele>
        <time>2023-07-14T08:14:11Z</time>
      </trkpt>
      <trkpt lat="44.76034" lon="0.51499">
        <ele>142.3</ele>
        <time>2023-07-14T08:14:13Z</time>
      </trkpt>
      <trkpt lat="44.76038" lon="0.51498">
        <ele>142.1</ele>
        <time>2023-07-14T08:14:14Z</time>
      </trkpt>
      <trkpt lat="44.76041" lon="0.51495">
        <ele>142</ele>
        <time>2023-07-14T08:14:15Z</time>
      </trkpt>
      <trkpt lat="44.76041" lon="0.51491">
        <ele>141.9</ele>
        <time>2023-07-14T08:14:16Z</time>
      </trkpt>
      <trkpt lat="44.7604" lon="0.51485">
        <ele>141.6</ele>
        <time>2023-07-14T08:14:17Z</time>
      </trkpt>
      <trkpt lat="44.76041" lon="0.51475">
        <ele>141.3</ele>
        <time>2023-07-14T08:14:19Z</time>
      </trkpt>
      <trkpt lat="44.76043" lon="0.51469">
        <ele>141.1</ele>
        <time>2023-07-14T08:14:20Z</time>
      </trkpt>
      <trkpt lat="44.76046" lon="0.51464">
        <ele>140.7</ele>
        <time>2023-07-14T08:14:21Z</time>
      </trkpt>
      <trkpt lat="44.76054" lon="0.51452">
        <ele>140.1</ele>
        <time>2023-07-14T08:14:23Z</time>
      </trkpt>
      <trkpt lat="44.76056" lon="0.51443">
        <ele>139.8</ele>
        <time>2023-07-14T08:14:24Z</time>
      </trkpt>
      <trkpt lat="44.76059" lon="0.51433">
        <ele>139.5</ele>
        <time>2023-07-14T08:14:25Z</time>
      </trkpt>
      <trkpt lat="44.76063" lon="0.51422">
        <ele>139.2</ele>
        <time>2023-07-14T08:14:26Z</time>
      </trkpt>
      <trkpt lat="44.76066" lon="0.51412">
        <ele>138.7</ele>
        <time>2023-07-14T08:14:27Z</time>
      </trkpt>
      <trkpt lat="44.76069" lon="0.51401">
        <ele>138.4</ele>
        <time>2023-07-14T08:14:28Z</time>
      </trkpt>
      <trkpt lat="44.76072" lon="0.51391">
        <ele>138.1</ele>
        <time>2023-07-14T08:14:29Z</time>
      </trkpt>
      <trkpt lat="44.76076" lon="0.51371">
        <ele>137.4</ele>
        <time>2023-07-14T08:14:31Z</time>
      </trkpt>
      <trkpt lat="44.76079" lon="0.51353">
        <ele>136.8</ele>
        <time>2023-07-14T08:14:33Z</time>
      </trkpt>
      <trkpt lat="44.76081" lon="0.51335">
        <ele>136.5</ele>
        <time>2023-07-14T08:14:35Z</time>
      </trkpt>
      <trkpt lat="44.76083" lon="0.51315">
        <ele>136.2</ele>
        <time>2023-07-14T08:14:37Z</time>
      </trkpt>
      <trkpt lat="44.76086" lon="0.51291">
        <ele>135.6</ele>
        <time>2023-07-14T08:14:39Z</time>
      </trkpt>
      <trkpt lat="44.7609" lon="0.51264">
        <ele>135.3</ele>
        <time>2023-07-14T08:14:41Z</time>
      </trkpt>
      <trkpt lat="44.76094" lon="0.51238">
        <ele>134.7</ele>
        <time>2023-07-14T08:14:43Z</time>
      </trkpt>
      <trkpt lat="44.76097" lon="0.51212">
        <ele>133.9</ele>
        <time>2023-07-14T08:14:45Z</time>
      </trkpt>
      <trkpt lat="44.761" lon="0.51187">
        <ele>133.1</ele>
        <time>2023-07-14T08:14:47Z</time>
      </trkpt>
      <trkpt lat="44.76103" lon="0.51164">
        <ele>132.9</ele>
        <time>2023-07-14T08:14:49Z</time>
      </trkpt>
      <trkpt lat="44.76104" lon="0.51154">
        <ele>133.1</ele>
        <time>2023-07-14T08:14:50Z</time>
      </trkpt>
      <trkpt lat="44.76103" lon="0.51144">
        <ele>133.3</ele>
        <time>2023-07-14T08:14:51Z</time>
      </trkpt>
      <trkpt lat="44.76102" lon="0.51135">
        <ele>133.7</ele>
        <time>2023-07-14T08:14:52Z</time>
      </trkpt>
      <trkpt lat="44.76099" lon="0.51128">
        <ele>134.1</ele>
        <time>2023-07-14T08:14:53Z</time>
      </trkpt>
      <trkpt lat="44.76093" lon="0.51115">
        <ele>134.8</ele>
        <time>2023-07-14T08:14:55Z</time>
      </trkpt>
      <trkpt lat="44.76089" lon="0.51102">
        <ele>135.1</ele>
        <time>2023-07-14T08:14:57Z</time>
      </trkpt>
      <trkpt lat="44.76089" lon="0.51095">
        <ele>135.1</ele>
        <time>2023-07-14T08:14:58Z</time>
      </trkpt>
      <trkpt lat="44.76089" lon="0.51087">
        <ele>135.2</ele>
        <time>2023-07-14T08:14:59Z</time>
      </trkpt>
      <trkpt lat="44.76092" lon="0.51073">
        <ele>135.3</ele>
        <time>2023-07-14T08:15:01Z</time>
      </trkpt>
      <trkpt lat="44.76093" lon="0.51065">
        <ele>135.3</ele>
        <time>2023-07-14T08:15:02Z</time>
      </trkpt>
      <trkpt lat="44.76095" lon="0.51059">
        <ele>135.4</ele>
        <time>2023-07-14T08:15:03Z</time>
      </trkpt>
      <trkpt lat="44.76099" lon="0.51048">
        <ele>135.5</ele>
        <time>2023-07-14T08:15:05Z</time>
      </trkpt>
      <trkpt lat="44.76103" lon="0.51039">
        <ele>135.5</ele>
        <time>2023-07-14T08:15:07Z</time>
      </trkpt>
      <trkpt lat="44.76104" lon="0.51035">
        <ele>135.5</ele>
        <time>2023-07-14T08:15:08Z</time>
      </trkpt>
      <trkpt lat="44.76104" lon="0.5103">
        <ele>135.6</ele>
        <time>2023-07-14T08:15:09Z</time>
      </trkpt>
      <trkpt lat="44.76106" lon="0.51023">
        <ele>135.6</ele>
        <time>2023-07-14T08:15:11Z</time>
      </trkpt>
      <trkpt lat="44.7611" lon="0.51017">
        <ele>135.7</ele>
        <time>2023-07-14T08:15:13Z</time>
      </trkpt>
      <trkpt lat="44.76112" lon="0.51016">
        <ele>135.7</ele>
        <time>2023-07-14T08:15:14Z</time>
      </trkpt>
      <trkpt lat="44.76115" lon="0.51013">
        <ele>135.7</ele>
        <time>2023-07-14T08:15:15Z</time>
      </trkpt>
      <trkpt lat="44.76116" lon="0.5101">
        <ele>135.8</ele>
        <time>2023-07-14T08:15:16Z</time>
      </trkpt>
      <trkpt lat="44.76117" lon="0.51003">
        <ele>135.8</ele>
        <time>2023-07-14T08:15:17Z</time>
      </trkpt>
      <trkpt lat="44.7612" lon="0.5099">
        <ele>135.9</ele>
        <time>2023-07-14T08:15:19Z</time>
      </trkpt>
      <trkpt lat="44.76121" lon="0.50983">
        <ele>135.9</ele>
        <time>2023-07-14T08:15:20Z</time>
      </trkpt>
      <trkpt lat="44.76122" lon="0.50977">
        <ele>136</ele>
        <time>2023-07-14T08:15:21Z</time>
      </trkpt>
      <trkpt lat="44.76124" lon="0.50961">
        <ele>136.1</ele>
        <time>2023-07-14T08:15:23Z</time>
      </trkpt>
      <trkpt lat="44.76127" lon="0.50948">
        <ele>136.2</ele>
        <time>2023-07-14T08:15:25Z</time>
      </trkpt>
      <trkpt lat="44.76128" lon="0.50941">
        <ele>136.2</ele>
        <time>2023-07-14T08:15:26Z</time>
      </trkpt>
      <trkpt lat="44.7613" lon="0.50934">
        <ele>136.3</ele>
        <time>2023-07-14T08:15:27Z</time>
      </trkpt>
      <trkpt lat="44.76131" lon="0.50927">
        <ele>136.3</ele>
        <time>2023-07-14T08:15:28Z</time>
      </trkpt>
      <trkpt lat="44.76132" lon="0.5092">
        <ele>136.4</ele>
        <time>2023-07-14T08:15:29Z</time>
      </trkpt>
      <trkpt lat="44.76133" lon="0.50908">
        <ele>136.5</ele>
        <time>2023-07-14T08:15:31Z</time>
      </trkpt>
      <trkpt lat="44.76132" lon="0.50902">
        <ele>136.5</ele>
        <time>2023-07-14T08:15:32Z</time>
      </trkpt>
      <trkpt lat="44.76131" lon="0.50897">
        <ele>136.5</ele>
        <time>2023-07-14T08:15:33Z</time>
      </trkpt>
      <trkpt lat="44.76128" lon="0.50886">
        <ele>136.6</ele>
        <time>2023-07-14T08:15:35Z</time>
      </trkpt>
      <trkpt lat="44.76126" lon="0.50875">
        <ele>136.7</ele>
        <time>2023-07-14T08:15:37Z</time>
      </trkpt>
      <trkpt lat="44.76125" lon="0.5087">
        <ele>136.7</ele>
        <time>2023-07-14T08:15:38Z</time>
      </trkpt>
      <trkpt lat="44.76124" lon="0.50866">
        <ele>136.8</ele>
        <time>2023-07-14T08:15:39Z</time>
      </trkpt>
      <trkpt lat="44.76122" lon="0.50857">
        <ele>136.8</ele>
        <time>2023-07-14T08:15:41Z</time>
      </trkpt>
      <trkpt lat="44.7612" lon="0.50849">
        <ele>136.9</ele>
        <time>2023-07-14T08:15:43Z</time>
      </trkpt>
      <trkpt lat="44.76118" lon="0.50842">
        <ele>136.9</ele>
        <time>2023-07-14T08:15:45Z</time>
      </trkpt>
      <trkpt lat="44.76117" lon="0.50833">
        <ele>137</ele>
        <time>2023-07-14T08:15:47Z</time>
      </trkpt>
      <trkpt lat="44.76116" lon="0.50825">
        <ele>137</ele>
        <time>2023-07-14T08:15:49Z</time>
      </trkpt>
      <trkpt lat="44.76114" lon="0.50817">
        <ele>137.1</ele>
        <time>2023-07-14T08:15:51Z</time>
      </trkpt>
      <trkpt lat="44.76112" lon="0.50809">
        <ele>137.2</ele>
        <time>2023-07-14T08:15:53Z</time>
      </trkpt>
      <trkpt lat="44.76111" lon="0.50802">
        <ele>137.2</ele>
        <time>2023-07-14T08:15:55Z</time>
      </trkpt>
      <trkpt lat="44.7611" lon="0.50794">
        <ele>137.3</ele>
        <time>2023-07-14T08:15:57Z</time>
      </trkpt>
      <trkpt lat="44.76108" lon="0.50785">
        <ele>137.3</ele>
        <time>2023-07-14T08:15:59Z</time>
      </trkpt>
      <trkpt lat="44.76107" lon="0.50778">
        <ele>137.4</ele>
        <time>2023-07-14T08:16:01Z</time>
      </trkpt>
      <trkpt lat="44.76106" lon="0.5077">
        <ele>137.4</ele>
        <time>2023-07-14T08:16:03Z</time>
      </trkpt>
      <trkpt lat="44.76104" lon="0.50762">
        <ele>137.5</ele>
        <time>2023-07-14T08:16:05Z</time>
      </trkpt>
      <trkpt lat="44.76104" lon="0.50758">
        <ele>137.5</ele>
        <time>2023-07-14T08:16:06Z</time>
      </trkpt>
      <trkpt lat="44.76103" lon="0.50754">
        <ele>137.5</ele>
        <time>2023-07-14T08:16:07Z</time>
      </trkpt>
      <trkpt lat="44.76101" lon="0.50746">
        <ele>137.6</ele>
        <time>2023-07-14T08:16:09Z</time>
      </trkpt>
      <trkpt lat="44.76099" lon="0.50738">
        <ele>137.6</ele>
        <time>2023-07-14T08:16:11Z</time>
      </trkpt>
      <trkpt lat="44.76097" lon="0.50731">
        <ele>137.7</ele>
        <time>2023-07-14T08:16:13Z</time>
      </trkpt>
      <trkpt lat="44.76096" lon="0.50723">
        <ele>137.7</ele>
        <time>2023-07-14T08:16:15Z</time>
      </trkpt>
      <trkpt lat="44.76095" lon="0.50716">
        <ele>137.8</ele>
        <time>2023-07-14T08:16:17Z</time>
      </trkpt>
      <trkpt lat="44.76094" lon="0.50708">
        <ele>137.9</ele>
        <time>2023-07-14T08:16:19Z</time>
      </trkpt>
      <trkpt lat="44.76093" lon="0.507">
        <ele>137.9</ele>
        <time>2023-07-14T08:16:21Z</time>
      </trkpt>
      <trkpt lat="44.76093" lon="0.50695">
        <ele>137.9</ele>
        <time>2023-07-14T08:16:23Z</time>
      </trkpt>
      <trkpt lat="44.76094" lon="0.50692">
        <ele>138</ele>
        <time>2023-07-14T08:16:24Z</time>
      </trkpt>
      <trkpt lat="44.76094" lon="0.5069">
        <ele>138</ele>
        <time>2023-07-14T08:16:25Z</time>
      </trkpt>
      <trkpt lat="44.76096" lon="0.50685">
        <ele>138</ele>
        <time>2023-07-14T08:16:27Z</time>
      </trkpt>
      <trkpt lat="44.76098" lon="0.50682">
        <ele>138</ele>
        <time>2023-07-14T08:16:29Z</time>
      </trkpt>
      <trkpt lat="44.761" lon="0.50681">
        <ele>138.1</ele>
        <time>2023-07-14T08:16:30Z</time>
      </trkpt>
      <trkpt lat="44.76101" lon="0.50679">
        <ele>138.1</ele>
        <time>2023-07-14T08:16:31Z</time>
      </trkpt>
      <trkpt lat="44.76101" lon="0.50674">
        <ele>138.1</ele>
        <time>2023-07-14T08:16:33Z</time>
      </trkpt>
      <trkpt lat="44.76101" lon="0.50672">
        <ele>138.1</ele>
        <time>2023-07-14T08:16:34Z</time>
      </trkpt>
      <trkpt lat="44.761" lon="0.5067">
        <ele>138.4</ele>
        <time>2023-07-14T08:16:35Z</time>
      </trkpt>
      <trkpt lat="44.76097" lon="0.50667">
        <ele>138.7</ele>
        <time>2023-07-14T08:16:37Z</time>
      </trkpt>
      <trkpt lat="44.76096" lon="0.50662">
        <ele>139</ele>
        <time>2023-07-14T08:16:39Z</time>
      </trkpt>
      <trkpt lat="44.76095" lon="0.50656">
        <ele>139.3</ele>
        <time>2023-07-14T08:16:41Z</time>
      </trkpt>
      <trkpt lat="44.76093" lon="0.50651">
        <ele>139.4</ele>
        <time>2023-07-14T08:16:43Z</time>
      </trkpt>
      <trkpt lat="44.76092" lon="0.50646">
        <ele>139.5</ele>
        <time>2023-07-14T08:16:45Z</time>
      </trkpt>
      <trkpt lat="44.7609" lon="0.5064">
        <ele>139.5</ele>
        <time>2023-07-14T08:16:47Z</time>
      </trkpt>
      <trkpt lat="44.7609" lon="0.50637">
        <ele>139.5</ele>
        <time>2023-07-14T08:16:48Z</time>
      </trkpt>
      <trkpt lat="44.76089" lon="0.50635">
        <ele>139.5</ele>
        <time>2023-07-14T08:16:49Z</time>
      </trkpt>
      <trkpt lat="44.76088" lon="0.5063">
        <ele>139.4</ele>
        <time>2023-07-14T08:16:51Z</time>
      </trkpt>
      <trkpt lat="44.76087" lon="0.50624">
        <ele>139.4</ele>
        <time>2023-07-14T08:16:53Z</time>
      </trkpt>
      <trkpt lat="44.76086" lon="0.50618">
        <ele>139.4</ele>
        <time>2023-07-14T08:16:55Z</time>
      </trkpt>
      <trkpt lat="44.76084" lon="0.50612">
        <ele>139.4</ele>
        <time>2023-07-14T08:16:57Z</time>
      </trkpt>
      <trkpt lat="44.76083" lon="0.50606">
        <ele>139.5</ele>
        <time>2023-07-14T08:16:59Z</time>
      </trkpt>
      <trkpt lat="44.76081" lon="0.506">
        <ele>139.6</ele>
        <time>2023-07-14T08:17:01Z</time>
      </trkpt>
      <trkpt lat="44.7608" lon="0.50593">
        <ele>139.7</ele>
        <time>2023-07-14T08:17:03Z</time>
      </trkpt>
      <trkpt lat="44.76079" lon="0.50587">
        <ele>139.9</ele>
        <time>2023-07-14T08:17:05Z</time>
      </trkpt>
      <trkpt lat="44.76077" lon="0.5058">
        <ele>140</ele>
        <time>2023-07-14T08:17:07Z</time>
      </trkpt>
      <trkpt lat="44.76076" lon="0.50572">
        <ele>140.2</ele>
        <time>2023-07-14T08:17:09Z</time>
      </trkpt>
      <trkpt lat="44.76074" lon="0.50564">
        <ele>140.5</ele>
        <time>2023-07-14T08:17:11Z</time>
      </trkpt>
      <trkpt lat="44.76074" lon="0.50557">
        <ele>140.7</ele>
        <time>2023-07-14T08:17:13Z</time>
      </trkpt>
      <trkpt lat="44.76075" lon="0.50549">
        <ele>141</ele>
        <time>2023-07-14T08:17:15Z</time>
      </trkpt>
      <trkpt lat="44.76077" lon="0.50542">
        <ele>141.2</ele>
        <time>2023-07-14T08:17:17Z</time>
      </trkpt>
      <trkpt lat="44.7608" lon="0.50536">
        <ele>141.4</ele>
        <time>2023-07-14T08:17:19Z</time>
      </trkpt>
      <trkpt lat="44.76083" lon="0.5053">
        <ele>141.5</ele>
        <time>2023-07-14T08:17:21Z</time>
      </trkpt>
      <trkpt lat="44.76087" lon="0.50524">
        <ele>141.6</ele>
        <time>2023-07-14T08:17:23Z</time>
      </trkpt>
      <trkpt lat="44.76089" lon="0.50521">
        <ele>141.7</ele>
        <time>2023-07-14T08:17:24Z</time>
      </trkpt>
      <trkpt lat="44.76091" lon="0.50518">
        <ele>141.7</ele>
        <time>2023-07-14T08:17:25Z</time>
      </trkpt>
      <trkpt lat="44.76096" lon="0.5051">
        <ele>141.7</ele>
        <time>2023-07-14T08:17:27Z</time>
      </trkpt>
      <trkpt lat="44.76101" lon="0.50503">
        <ele>141.7</ele>
        <time>2023-07-14T08:17:29Z</time>
      </trkpt>
      <trkpt lat="44.76105" lon="0.50496">
        <ele>141.8</ele>
        <time>2023-07-14T08:17:31Z</time>
      </trkpt>
      <trkpt lat="44.76109" lon="0.50488">
        <ele>141.8</ele>
        <time>2023-07-14T08:17:33Z</time>
      </trkpt>
      <trkpt lat="44.76113" lon="0.50479">
        <ele>141.9</ele>
        <time>2023-07-14T08:17:35Z</time>
      </trkpt>
      <trkpt lat="44.76116" lon="0.50469">
        <ele>142.1</ele>
        <time>2023-07-14T08:17:37Z</time>
      </trkpt>
      <trkpt lat="44.76115" lon="0.50464">
        <ele>142.1</ele>
        <time>2023-07-14T08:17:38Z</time>
      </trkpt>
      <trkpt lat="44.76114" lon="0.50459">
        <ele>142.1</ele>
        <time>2023-07-14T08:17:39Z</time>
      </trkpt>
      <trkpt lat="44.76111" lon="0.50451">
        <ele>142</ele>
        <time>2023-07-14T08:17:41Z</time>
      </trkpt>
      <trkpt lat="44.76109" lon="0.50447">
        <ele>142</ele>
        <time>2023-07-14T08:17:42Z</time>
      </trkpt>
      <trkpt lat="44.76107" lon="0.50443">
        <ele>141.9</ele>
        <time>2023-07-14T08:17:43Z</time>
      </trkpt>
      <trkpt lat="44.76102" lon="0.50435">
        <ele>141.9</ele>
        <time>2023-07-14T08:17:45Z</time>
      </trkpt>
      <trkpt lat="44.76098" lon="0.50427">
        <ele>141.9</ele>
        <time>2023-07-14T08:17:47Z</time>
      </trkpt>
      <trkpt lat="44.76095" lon="0.50419">
        <ele>142</ele>
        <time>2023-07-14T08:17:49Z</time>
      </trkpt>
      <trkpt lat="44.76093" lon="0.50414">
        <ele>142.1</ele>
        <time>2023-07-14T08:17:50Z</time>
      </trkpt>
      <trkpt lat="44.76091" lon="0.5041">
        <ele>142.3</ele>
        <time>2023-07-14T08:17:51Z</time>
      </trkpt>
      <trkpt lat="44.76087" lon="0.50402">
        <ele>142.6</ele>
        <time>2023-07-14T08:17:53Z</time>
      </trkpt>
      <trkpt lat="44.76084" lon="0.50393">
        <ele>143</ele>
        <time>2023-07-14T08:17:55Z</time>
      </trkpt>
      <trkpt lat="44.7608" lon="0.50385">
        <ele>143.4</ele>
        <time>2023-07-14T08:17:57Z</time>
      </trkpt>
      <trkpt lat="44.76075" lon="0.50377">
        <ele>143.8</ele>
        <time>2023-07-14T08:17:59Z</time>
      </trkpt>
      <trkpt lat="44.76073" lon="0.50372">
        <ele>144</ele>
        <time>2023-07-14T08:18:00Z</time>
      </trkpt>
      <trkpt lat="44.76071" lon="0.50368">
        <ele>144.1</ele>
        <time>2023-07-14T08:18:01Z</time>
      </trkpt>
      <trkpt lat="44.76068" lon="0.50359">
        <ele>144.3</ele>
        <time>2023-07-14T08:18:03Z</time>
      </trkpt>
      <trkpt lat="44.76064" lon="0.5035">
        <ele>144.5</ele>
        <time>2023-07-14T08:18:05Z</time>
      </trkpt>
      <trkpt lat="44.76062" lon="0.50346">
        <ele>144.6</ele>
        <time>2023-07-14T08:18:06Z</time>
      </trkpt>
      <trkpt lat="44.7606" lon="0.50342">
        <ele>144.7</ele>
        <time>2023-07-14T08:18:07Z</time>
      </trkpt>
      <trkpt lat="44.76056" lon="0.50333">
        <ele>145</ele>
        <time>2023-07-14T08:18:09Z</time>
      </trkpt>
      <trkpt lat="44.76055" lon="0.50322">
        <ele>145.5</ele>
        <time>2023-07-14T08:18:11Z</time>
      </trkpt>
      <trkpt lat="44.76055" lon="0.50317">
        <ele>145.8</ele>
        <time>2023-07-14T08:18:12Z</time>
      </trkpt>
      <trkpt lat="44.76056" lon="0.50312">
        <ele>146.6</ele>
        <time>2023-07-14T08:18:13Z</time>
      </trkpt>
      <trkpt lat="44.7606" lon="0.50304">
        <ele>146.7</ele>
        <time>2023-07-14T08:18:15Z</time>
      </trkpt>
      <trkpt lat="44.76064" lon="0.50302">
        <ele>146.7</ele>
        <time>2023-07-14T08:18:16Z</time>
      </trkpt>
      <trkpt lat="44.76067" lon="0.50301">
        <ele>146.8</ele>
        <time>2023-07-14T08:18:17Z</time>
      </trkpt>
      <trkpt lat="44.76075" lon="0.50298">
        <ele>146.9</ele>
        <time>2023-07-14T08:18:19Z</time>
      </trkpt>
      <trkpt lat="44.76084" lon="0.50296">
        <ele>146.9</ele>
        <time>2023-07-14T08:18:21Z</time>
      </trkpt>
      <trkpt lat="44.76088" lon="0.50295">
        <ele>147</ele>
        <time>2023-07-14T08:18:22Z</time>
      </trkpt>
      <trkpt lat="44.76093" lon="0.50294">
        <ele>147</ele>
        <time>2023-07-14T08:18:23Z</time>
      </trkpt>
      <trkpt lat="44.76102" lon="0.50292">
        <ele>146.9</ele>
        <time>2023-07-14T08:18:25Z</time>
      </trkpt>
      <trkpt lat="44.76112" lon="0.5029">
        <ele>146.9</ele>
        <time>2023-07-14T08:18:27Z</time>
      </trkpt>
      <trkpt lat="44.76121" lon="0.50288">
        <ele>146.8</ele>
        <time>2023-07-14T08:18:29Z</time>
      </trkpt>
      <trkpt lat="44.76126" lon="0.50287">
        <ele>146.7</ele>
        <time>2023-07-14T08:18:30Z</time>
      </trkpt>
      <trkpt lat="44.76131" lon="0.50286">
        <ele>146.7</ele>
        <time>2023-07-14T08:18:31Z</time>
      </trkpt>
      <trkpt lat="44.76141" lon="0.50285">
        <ele>146.6</ele>
        <time>2023-07-14T08:18:33Z</time>
      </trkpt>
      <trkpt lat="44.76151" lon="0.50282">
        <ele>146.4</ele>
        <time>2023-07-14T08:18:35Z</time>
      </trkpt>
      <trkpt lat="44.76161" lon="0.5028">
        <ele>146.3</ele>
        <time>2023-07-14T08:18:37Z</time>
      </trkpt>
      <trkpt lat="44.76171" lon="0.50278">
        <ele>146.2</ele>
        <time>2023-07-14T08:18:39Z</time>
      </trkpt>
      <trkpt lat="44.76182" lon="0.50276">
        <ele>146.2</ele>
        <time>2023-07-14T08:18:41Z</time>
      </trkpt>
      <trkpt lat="44.76192" lon="0.50273">
        <ele>146.1</ele>
        <time>2023-07-14T08:18:43Z</time>
      </trkpt>
      <trkpt lat="44.76202" lon="0.5027">
        <ele>146</ele>
        <time>2023-07-14T08:18:45Z</time>
      </trkpt>
      <trkpt lat="44.76212" lon="0.50267">
        <ele>146</ele>
        <time>2023-07-14T08:18:47Z</time>
      </trkpt>
      <trkpt lat="44.76222" lon="0.50265">
        <ele>145.9</ele>
        <time>2023-07-14T08:18:49Z</time>
      </trkpt>
      <trkpt lat="44.76233" lon="0.50263">
        <ele>145.8</ele>
        <time>2023-07-14T08:18:51Z</time>
      </trkpt>
      <trkpt lat="44.76244" lon="0.50262">
        <ele>145.7</ele>
        <time>2023-07-14T08:18:53Z</time>
      </trkpt>
      <trkpt lat="44.76254" lon="0.50264">
        <ele>145.5</ele>
        <time>2023-07-14T08:18:55Z</time>
      </trkpt>
      <trkpt lat="44.7626" lon="0.50265">
        <ele>145.5</ele>
        <time>2023-07-14T08:18:56Z</time>
      </trkpt>
      <trkpt lat="44.76265" lon="0.50266">
        <ele>145.4</ele>
        <time>2023-07-14T08:18:57Z</time>
      </trkpt>
      <trkpt lat="44.76271" lon="0.50268">
        <ele>145.3</ele>
        <time>2023-07-14T08:18:58Z</time>
      </trkpt>
      <trkpt lat="44.76276" lon="0.5027">
        <ele>145.2</ele>
        <time>2023-07-14T08:18:59Z</time>
      </trkpt>
      <trkpt lat="44.76287" lon="0.50274">
        <ele>145.1</ele>
        <time>2023-07-14T08:19:01Z</time>
      </trkpt>
      <trkpt lat="44.76293" lon="0.50276">
        <ele>145</ele>
        <time>2023-07-14T08:19:02Z</time>
      </trkpt>
      <trkpt lat="44.76298" lon="0.50278">
        <ele>144.8</ele>
        <time>2023-07-14T08:19:03Z</time>
      </trkpt>
      <trkpt lat="44.76309" lon="0.50281">
        <ele>144.6</ele>
        <time>2023-07-14T08:19:05Z</time>
      </trkpt>
      <trkpt lat="44.76321" lon="0.50281">
        <ele>144.2</ele>
        <time>2023-07-14T08:19:07Z</time>
      </trkpt>
      <trkpt lat="44.76327" lon="0.5028">
        <ele>144</ele>
        <time>2023-07-14T08:19:08Z</time>
      </trkpt>
      <trkpt lat="44.76334" lon="0.50278">
        <ele>143.9</ele>
        <time>2023-07-14T08:19:09Z</time>
      </trkpt>
      <trkpt lat="44.7634" lon="0.50276">
        <ele>143.7</ele>
        <time>2023-07-14T08:19:10Z</time>
      </trkpt>
      <trkpt lat="44.76346" lon="0.50272">
        <ele>143.6</ele>
        <time>2023-07-14T08:19:11Z</time>
      </trkpt>
      <trkpt lat="44.76351" lon="0.50268">
        <ele>143.4</ele>
        <time>2023-07-14T08:19:12Z</time>
      </trkpt>
      <trkpt lat="44.76357" lon="0.50263">
        <ele>143.3</ele>
        <time>2023-07-14T08:19:13Z</time>
      </trkpt>
      <trkpt lat="44.76368" lon="0.50251">
        <ele>143</ele>
        <time>2023-07-14T08:19:15Z</time>
      </trkpt>
      <trkpt lat="44.76379" lon="0.50238">
        <ele>142.7</ele>
        <time>2023-07-14T08:19:17Z</time>
      </trkpt>
      <trkpt lat="44.76394" lon="0.50215">
        <ele>142.1</ele>
        <time>2023-07-14T08:19:19Z</time>
      </trkpt>
      <trkpt lat="44.76399" lon="0.50208">
        <ele>141.9</ele>
        <time>2023-07-14T08:19:21Z</time>
      </trkpt>
      <trkpt lat="44.76408" lon="0.50192">
        <ele>141.5</ele>
        <time>2023-07-14T08:19:23Z</time>
      </trkpt>
      <trkpt lat="44.76414" lon="0.50184">
        <ele>141.3</ele>
        <time>2023-07-14T08:19:24Z</time>
      </trkpt>
      <trkpt lat="44.76419" lon="0.50176">
        <ele>141.2</ele>
        <time>2023-07-14T08:19:25Z</time>
      </trkpt>
      <trkpt lat="44.76429" lon="0.5016">
        <ele>141</ele>
        <time>2023-07-14T08:19:27Z</time>
      </trkpt>
      <trkpt lat="44.76433" lon="0.50151">
        <ele>141</ele>
        <time>2023-07-14T08:19:28Z</time>
      </trkpt>
      <trkpt lat="44.76438" lon="0.50144">
        <ele>141</ele>
        <time>2023-07-14T08:19:29Z</time>
      </trkpt>
      <trkpt lat="44.76442" lon="0.50136">
        <ele>141</ele>
        <time>2023-07-14T08:19:30Z</time>
      </trkpt>
      <trkpt lat="44.76447" lon="0.50129">
        <ele>141</ele>
        <time>2023-07-14T08:19:31Z</time>
      </trkpt>
      <trkpt lat="44.76456" lon="0.50114">
        <ele>141.1</ele>
        <time>2023-07-14T08:19:33Z</time>
      </trkpt>
      <trkpt lat="44.76466" lon="0.50099">
        <ele>141.3</ele>
        <time>2023-07-14T08:19:35Z</time>
      </trkpt>
      <trkpt lat="44.76476" lon="0.50084">
        <ele>141.5</ele>
        <time>2023-07-14T08:19:37Z</time>
      </trkpt>
      <trkpt lat="44.76485" lon="0.50069">
        <ele>141.7</ele>
        <time>2023-07-14T08:19:39Z</time>
      </trkpt>
      <trkpt lat="44.76494" lon="0.50055">
        <ele>141.8</ele>
        <time>2023-07-14T08:19:41Z</time>
      </trkpt>
      <trkpt lat="44.76502" lon="0.50041">
        <ele>141.7</ele>
        <time>2023-07-14T08:19:43Z</time>
      </trkpt>
      <trkpt lat="44.76511" lon="0.50027">
        <ele>141.6</ele>
        <time>2023-07-14T08:19:45Z</time>
      </trkpt>
      <trkpt lat="44.7652" lon="0.50012">
        <ele>141.4</ele>
        <time>2023-07-14T08:19:47Z</time>
      </trkpt>
      <trkpt lat="44.76529" lon="0.49998">
        <ele>141.1</ele>
        <time>2023-07-14T08:19:49Z</time>
      </trkpt>
      <trkpt lat="44.76538" lon="0.49983">
        <ele>140.9</ele>
        <time>2023-07-14T08:19:51Z</time>
      </trkpt>
      <trkpt lat="44.76547" lon="0.49968">
        <ele>140.7</ele>
        <time>2023-07-14T08:19:53Z</time>
      </trkpt>
      <trkpt lat="44.76552" lon="0.4996">
        <ele>140.6</ele>
        <time>2023-07-14T08:19:54Z</time>
      </trkpt>
      <trkpt lat="44.76556" lon="0.49952">
        <ele>140.5</ele>
        <time>2023-07-14T08:19:55Z</time>
      </trkpt>
      <trkpt lat="44.76563" lon="0.49934">
        <ele>140.3</ele>
        <time>2023-07-14T08:19:57Z</time>
      </trkpt>
      <trkpt lat="44.76566" lon="0.49925">
        <ele>140.2</ele>
        <time>2023-07-14T08:19:58Z</time>
      </trkpt>
      <trkpt lat="44.76568" lon="0.49916">
        <ele>140.2</ele>
        <time>2023-07-14T08:19:59Z</time>
      </trkpt>
      <trkpt lat="44.76569" lon="0.49896">
        <ele>140</ele>
        <time>2023-07-14T08:20:01Z</time>
      </trkpt>
      <trkpt lat="44.76566" lon="0.49878">
        <ele>139.9</ele>
        <time>2023-07-14T08:20:03Z</time>
      </trkpt>
      <trkpt lat="44.76562" lon="0.49859">
        <ele>139.8</ele>
        <time>2023-07-14T08:20:05Z</time>
      </trkpt>
      <trkpt lat="44.7656" lon="0.49849">
        <ele>139.8</ele>
        <time>2023-07-14T08:20:06Z</time>
      </trkpt>
      <trkpt lat="44.76559" lon="0.49839">
        <ele>139.8</ele>
        <time>2023-07-14T08:20:07Z</time>
      </trkpt>
      <trkpt lat="44.76557" lon="0.4982">
        <ele>139.6</ele>
        <time>2023-07-14T08:20:09Z</time>
      </trkpt>
      <trkpt lat="44.76556" lon="0.49801">
        <ele>139.5</ele>
        <time>2023-07-14T08:20:11Z</time>
      </trkpt>
      <trkpt lat="44.76555" lon="0.49792">
        <ele>139.5</ele>
        <time>2023-07-14T08:20:12Z</time>
      </trkpt>
      <trkpt lat="44.76556" lon="0.49783">
        <ele>139.5</ele>
        <time>2023-07-14T08:20:13Z</time>
      </trkpt>
      <trkpt lat="44.76558" lon="0.49774">
        <ele>139.5</ele>
        <time>2023-07-14T08:20:14Z</time>
      </trkpt>
      <trkpt lat="44.7656" lon="0.49765">
        <ele>139.5</ele>
        <time>2023-07-14T08:20:15Z</time>
      </trkpt>
      <trkpt lat="44.76565" lon="0.49748">
        <ele>139.5</ele>
        <time>2023-07-14T08:20:17Z</time>
      </trkpt>
      <trkpt lat="44.76568" lon="0.4974">
        <ele>139.6</ele>
        <time>2023-07-14T08:20:18Z</time>
      </trkpt>
      <trkpt lat="44.76573" lon="0.49724">
        <ele>139.5</ele>
        <time>2023-07-14T08:20:19Z</time>
      </trkpt>
      <trkpt lat="44.76577" lon="0.49717">
        <ele>139.4</ele>
        <time>2023-07-14T08:20:21Z</time>
      </trkpt>
      <trkpt lat="44.76585" lon="0.49703">
        <ele>139.2</ele>
        <time>2023-07-14T08:20:23Z</time>
      </trkpt>
      <trkpt lat="44.76593" lon="0.49689">
        <ele>139</ele>
        <time>2023-07-14T08:20:25Z</time>
      </trkpt>
      <trkpt lat="44.76601" lon="0.49676">
        <ele>138.7</ele>
        <time>2023-07-14T08:20:27Z</time>
      </trkpt>
      <trkpt lat="44.76609" lon="0.49662">
        <ele>138.4</ele>
        <time>2023-07-14T08:20:29Z</time>
      </trkpt>
      <trkpt lat="44.76617" lon="0.49649">
        <ele>138.1</ele>
        <time>2023-07-14T08:20:31Z</time>
      </trkpt>
      <trkpt lat="44.76626" lon="0.49637">
        <ele>138</ele>
        <time>2023-07-14T08:20:33Z</time>
      </trkpt>
      <trkpt lat="44.76634" lon="0.49625">
        <ele>137.7</ele>
        <time>2023-07-14T08:20:35Z</time>
      </trkpt>
      <trkpt lat="44.76643" lon="0.49613">
        <ele>137.4</ele>
        <time>2023-07-14T08:20:37Z</time>
      </trkpt>
      <trkpt lat="44.76648" lon="0.49606">
        <ele>137.2</ele>
        <time>2023-07-14T08:20:38Z</time>
      </trkpt>
      <trkpt lat="44.76652" lon="0.49599">
        <ele>137.1</ele>
        <time>2023-07-14T08:20:39Z</time>
      </trkpt>
      <trkpt lat="44.76662" lon="0.49586">
        <ele>136.8</ele>
        <time>2023-07-14T08:20:41Z</time>
      </trkpt>
      <trkpt lat="44.76672" lon="0.49573">
        <ele>136.6</ele>
        <time>2023-07-14T08:20:43Z</time>
      </trkpt>
      <trkpt lat="44.76683" lon="0.49559">
        <ele>136.4</ele>
        <time>2023-07-14T08:20:45Z</time>
      </trkpt>
      <trkpt lat="44.76689" lon="0.49553">
        <ele>136.3</ele>
        <time>2023-07-14T08:20:46Z</time>
      </trkpt>
      <trkpt lat="44.76695" lon="0.49547">
        <ele>136.2</ele>
        <time>2023-07-14T08:20:47Z</time>
      </trkpt>
      <trkpt lat="44.767" lon="0.49541">
        <ele>136.1</ele>
        <time>2023-07-14T08:20:48Z</time>
      </trkpt>
      <trkpt lat="44.76706" lon="0.49535">
        <ele>135.9</ele>
        <time>2023-07-14T08:20:49Z</time>
      </trkpt>
      <trkpt lat="44.76717" lon="0.49523">
        <ele>135.5</ele>
        <time>2023-07-14T08:20:51Z</time>
      </trkpt>
      <trkpt lat="44.7673" lon="0.49513">
        <ele>135.2</ele>
        <time>2023-07-14T08:20:53Z</time>
      </trkpt>
      <trkpt lat="44.76738" lon="0.49498">
        <ele>134.9</ele>
        <time>2023-07-14T08:20:55Z</time>
      </trkpt>
      <trkpt lat="44.76741" lon="0.4949">
        <ele>134.7</ele>
        <time>2023-07-14T08:20:56Z</time>
      </trkpt>
      <trkpt lat="44.76744" lon="0.49482">
        <ele>134.6</ele>
        <time>2023-07-14T08:20:57Z</time>
      </trkpt>
      <trkpt lat="44.76751" lon="0.49466">
        <ele>134.1</ele>
        <time>2023-07-14T08:20:59Z</time>
      </trkpt>
      <trkpt lat="44.76755" lon="0.49458">
        <ele>133.9</ele>
        <time>2023-07-14T08:21:00Z</time>
      </trkpt>
      <trkpt lat="44.76758" lon="0.4945">
        <ele>133.8</ele>
        <time>2023-07-14T08:21:01Z</time>
      </trkpt>
      <trkpt lat="44.76767" lon="0.49434">
        <ele>133.4</ele>
        <time>2023-07-14T08:21:03Z</time>
      </trkpt>
      <trkpt lat="44.76777" lon="0.4942">
        <ele>133.2</ele>
        <time>2023-07-14T08:21:05Z</time>
      </trkpt>
      <trkpt lat="44.76787" lon="0.49406">
        <ele>133.1</ele>
        <time>2023-07-14T08:21:07Z</time>
      </trkpt>
      <trkpt lat="44.76792" lon="0.49398">
        <ele>133.2</ele>
        <time>2023-07-14T08:21:08Z</time>
      </trkpt>
      <trkpt lat="44.76797" lon="0.4939">
        <ele>133.1</ele>
        <time>2023-07-14T08:21:09Z</time>
      </trkpt>
      <trkpt lat="44.76801" lon="0.49381">
        <ele>133.1</ele>
        <time>2023-07-14T08:21:10Z</time>
      </trkpt>
      <trkpt lat="44.76806" lon="0.4937">
        <ele>133</ele>
        <time>2023-07-14T08:21:11Z</time>
      </trkpt>
      <trkpt lat="44.76815" lon="0.49351">
        <ele>133</ele>
        <time>2023-07-14T08:21:13Z</time>
      </trkpt>
      <trkpt lat="44.76825" lon="0.49331">
        <ele>132.9</ele>
        <time>2023-07-14T08:21:15Z</time>
      </trkpt>
      <trkpt lat="44.76835" lon="0.49312">
        <ele>132.8</ele>
        <time>2023-07-14T08:21:17Z</time>
      </trkpt>
      <trkpt lat="44.76849" lon="0.49286">
        <ele>132.5</ele>
        <time>2023-07-14T08:21:19Z</time>
      </trkpt>
      <trkpt lat="44.76852" lon="0.49277">
        <ele>132.4</ele>
        <time>2023-07-14T08:21:21Z</time>
      </trkpt>
      <trkpt lat="44.76855" lon="0.49267">
        <ele>132.3</ele>
        <time>2023-07-14T08:21:22Z</time>
      </trkpt>
      <trkpt lat="44.76857" lon="0.49257">
        <ele>131.9</ele>
        <time>2023-07-14T08:21:23Z</time>
      </trkpt>
      <trkpt lat="44.76863" lon="0.49239">
        <ele>131.3</ele>
        <time>2023-07-14T08:21:25Z</time>
      </trkpt>
      <trkpt lat="44.76872" lon="0.49226">
        <ele>131.1</ele>
        <time>2023-07-14T08:21:27Z</time>
      </trkpt>
      <trkpt lat="44.76875" lon="0.49218">
        <ele>130.8</ele>
        <time>2023-07-14T08:21:28Z</time>
      </trkpt>
      <trkpt lat="44.76878" lon="0.4921">
        <ele>130.6</ele>
        <time>2023-07-14T08:21:29Z</time>
      </trkpt>
      <trkpt lat="44.76884" lon="0.49191">
        <ele>130.2</ele>
        <time>2023-07-14T08:21:31Z</time>
      </trkpt>
      <trkpt lat="44.76892" lon="0.49175">
        <ele>130.3</ele>
        <time>2023-07-14T08:21:33Z</time>
      </trkpt>
      <trkpt lat="44.76897" lon="0.49167">
        <ele>130.2</ele>
        <time>2023-07-14T08:21:34Z</time>
      </trkpt>
      <trkpt lat="44.76902" lon="0.49159">
        <ele>130.2</ele>
        <time>2023-07-14T08:21:35Z</time>
      </trkpt>
      <trkpt lat="44.76912" lon="0.49143">
        <ele>130.3</ele>
        <time>2023-07-14T08:21:37Z</time>
      </trkpt>
      <trkpt lat="44.76921" lon="0.49127">
        <ele>130.2</ele>
        <time>2023-07-14T08:21:39Z</time>
      </trkpt>
      <trkpt lat="44.76931" lon="0.49111">
        <ele>129.8</ele>
        <time>2023-07-14T08:21:41Z</time>
      </trkpt>
      <trkpt lat="44.76935" lon="0.49103">
        <ele>129.6</ele>
        <time>2023-07-14T08:21:42Z</time>
      </trkpt>
      <trkpt lat="44.7694" lon="0.49095">
        <ele>129.6</ele>
        <time>2023-07-14T08:21:43Z</time>
      </trkpt>
      <trkpt lat="44.76944" lon="0.49088">
        <ele>129.6</ele>
        <time>2023-07-14T08:21:44Z</time>
      </trkpt>
      <trkpt lat="44.76949" lon="0.49082">
        <ele>129.6</ele>
        <time>2023-07-14T08:21:45Z</time>
      </trkpt>
      <trkpt lat="44.76954" lon="0.49078">
        <ele>129.5</ele>
        <time>2023-07-14T08:21:46Z</time>
      </trkpt>
      <trkpt lat="44.7696" lon="0.49075">
        <ele>129.6</ele>
        <time>2023-07-14T08:21:47Z</time>
      </trkpt>
      <trkpt lat="44.76969" lon="0.49069">
        <ele>129.6</ele>
        <time>2023-07-14T08:21:49Z</time>
      </trkpt>
      <trkpt lat="44.76976" lon="0.49059">
        <ele>129.4</ele>
        <time>2023-07-14T08:21:51Z</time>
      </trkpt>
      <trkpt lat="44.76983" lon="0.49046">
        <ele>129.2</ele>
        <time>2023-07-14T08:21:53Z</time>
      </trkpt>
      <trkpt lat="44.76989" lon="0.49034">
        <ele>129</ele>
        <time>2023-07-14T08:21:55Z</time>
      </trkpt>
      <trkpt lat="44.76992" lon="0.49028">
        <ele>128.8</ele>
        <time>2023-07-14T08:21:56Z</time>
      </trkpt>
      <trkpt lat="44.76996" lon="0.49023">
        <ele>128.7</ele>
        <time>2023-07-14T08:21:57Z</time>
      </trkpt>
      <trkpt lat="44.77003" lon="0.49011">
        <ele>128.2</ele>
        <time>2023-07-14T08:21:59Z</time>
      </trkpt>
      <trkpt lat="44.77007" lon="0.49003">
        <ele>128</ele>
        <time>2023-07-14T08:22:00Z</time>
      </trkpt>
      <trkpt lat="44.77011" lon="0.48994">
        <ele>127.7</ele>
        <time>2023-07-14T08:22:01Z</time>
      </trkpt>
      <trkpt lat="44.77014" lon="0.48986">
        <ele>127.4</ele>
        <time>2023-07-14T08:22:02Z</time>
      </trkpt>
      <trkpt lat="44.77019" lon="0.48978">
        <ele>127.1</ele>
        <time>2023-07-14T08:22:03Z</time>
      </trkpt>
      <trkpt lat="44.77023" lon="0.4897">
        <ele>126.7</ele>
        <time>2023-07-14T08:22:04Z</time>
      </trkpt>
      <trkpt lat="44.77028" lon="0.48962">
        <ele>126.4</ele>
        <time>2023-07-14T08:22:05Z</time>
      </trkpt>
      <trkpt lat="44.7704" lon="0.48951">
        <ele>125.9</ele>
        <time>2023-07-14T08:22:07Z</time>
      </trkpt>
      <trkpt lat="44.77045" lon="0.48947">
        <ele>125.6</ele>
        <time>2023-07-14T08:22:08Z</time>
      </trkpt>
      <trkpt lat="44.7705" lon="0.48943">
        <ele>125.4</ele>
        <time>2023-07-14T08:22:09Z</time>
      </trkpt>
      <trkpt lat="44.77055" lon="0.48941">
        <ele>125.3</ele>
        <time>2023-07-14T08:22:10Z</time>
      </trkpt>
      <trkpt lat="44.7706" lon="0.48938">
        <ele>125</ele>
        <time>2023-07-14T08:22:11Z</time>
      </trkpt>
      <trkpt lat="44.77069" lon="0.48931">
        <ele>124.5</ele>
        <time>2023-07-14T08:22:13Z</time>
      </trkpt>
      <trkpt lat="44.77074" lon="0.48927">
        <ele>124.2</ele>
        <time>2023-07-14T08:22:14Z</time>
      </trkpt>
      <trkpt lat="44.77079" lon="0.48924">
        <ele>124</ele>
        <time>2023-07-14T08:22:15Z</time>
      </trkpt>
      <trkpt lat="44.77086" lon="0.48921">
        <ele>123.5</ele>
        <time>2023-07-14T08:22:17Z</time>
      </trkpt>
      <trkpt lat="44.77091" lon="0.48916">
        <ele>123</ele>
        <time>2023-07-14T08:22:18Z</time>
      </trkpt>
      <trkpt lat="44.77093" lon="0.48914">
        <ele>122.6</ele>
        <time>2023-07-14T08:22:19Z</time>
      </trkpt>
      <trkpt lat="44.77095" lon="0.48906">
        <ele>122.2</ele>
        <time>2023-07-14T08:22:21Z</time>
      </trkpt>
      <trkpt lat="44.77096" lon="0.48904">
        <ele>121.7</ele>
        <time>2023-07-14T08:22:22Z</time>
      </trkpt>
      <trkpt lat="44.77098" lon="0.48902">
        <ele>121.3</ele>
        <time>2023-07-14T08:22:23Z</time>
      </trkpt>
      <trkpt lat="44.77101" lon="0.48898">
        <ele>120.8</ele>
        <time>2023-07-14T08:22:25Z</time>
      </trkpt>
      <trkpt lat="44.77107" lon="0.48892">
        <ele>120.1</ele>
        <time>2023-07-14T08:22:27Z</time>
      </trkpt>
      <trkpt lat="44.77112" lon="0.48887">
        <ele>119.4</ele>
        <time>2023-07-14T08:22:29Z</time>
      </trkpt>
      <trkpt lat="44.77114" lon="0.48883">
        <ele>119.1</ele>
        <time>2023-07-14T08:22:30Z</time>
      </trkpt>
      <trkpt lat="44.77114" lon="0.48883">
        <ele>119</ele>
        <time>2023-07-14T08:22:31Z</time>
      </trkpt>
      <trkpt lat="44.7712" lon="0.48869">
        <ele>117.9</ele>
        <time>2023-07-14T08:22:33Z</time>
      </trkpt>
      <trkpt lat="44.77123" lon="0.4886">
        <ele>117.3</ele>
        <time>2023-07-14T08:22:35Z</time>
      </trkpt>
      <trkpt lat="44.77125" lon="0.48857">
        <ele>117</ele>
        <time>2023-07-14T08:22:36Z</time>
      </trkpt>
      <trkpt lat="44.77125" lon="0.48854">
        <ele>116.8</ele>
        <time>2023-07-14T08:22:37Z</time>
      </trkpt>
      <trkpt lat="44.77127" lon="0.48843">
        <ele>116.4</ele>
        <time>2023-07-14T08:22:39Z</time>
      </trkpt>
      <trkpt lat="44.77127" lon="0.48838">
        <ele>116.2</ele>
        <time>2023-07-14T08:22:40Z</time>
      </trkpt>
      <trkpt lat="44.77126" lon="0.48832">
        <ele>115.9</ele>
        <time>2023-07-14T08:22:41Z</time>
      </trkpt>
      <trkpt lat="44.77123" lon="0.48824">
        <ele>115.6</ele>
        <time>2023-07-14T08:22:43Z</time>
      </trkpt>
      <trkpt lat="44.77123" lon="0.48819">
        <ele>115.4</ele>
        <time>2023-07-14T08:22:44Z</time>
      </trkpt>
      <trkpt lat="44.77124" lon="0.48816">
        <ele>115.1</ele>
        <time>2023-07-14T08:22:45Z</time>
      </trkpt>
      <trkpt lat="44.77125" lon="0.48811">
        <ele>115</ele>
        <time>2023-07-14T08:22:46Z</time>
      </trkpt>
      <trkpt lat="44.77127" lon="0.48807">
        <ele>114.7</ele>
        <time>2023-07-14T08:22:47Z</time>
      </trkpt>
      <trkpt lat="44.77128" lon="0.48795">
        <ele>114.4</ele>
        <time>2023-07-14T08:22:49Z</time>
      </trkpt>
      <trkpt lat="44.77131" lon="0.48781">
        <ele>113.8</ele>
        <time>2023-07-14T08:22:51Z</time>
      </trkpt>
      <trkpt lat="44.77133" lon="0.48774">
        <ele>113.6</ele>
        <time>2023-07-14T08:22:52Z</time>
      </trkpt>
      <trkpt lat="44.77136" lon="0.48768">
        <ele>113.3</ele>
        <time>2023-07-14T08:22:53Z</time>
      </trkpt>
      <trkpt lat="44.77141" lon="0.48756">
        <ele>113</ele>
        <time>2023-07-14T08:22:55Z</time>
      </trkpt>
      <trkpt lat="44.77143" lon="0.4875">
        <ele>112.8</ele>
        <time>2023-07-14T08:22:56Z</time>
      </trkpt>
      <trkpt lat="44.77145" lon="0.48746">
        <ele>112.6</ele>
        <time>2023-07-14T08:22:57Z</time>
      </trkpt>
      <trkpt lat="44.77146" lon="0.48736">
        <ele>112.4</ele>
        <time>2023-07-14T08:22:59Z</time>
      </trkpt>
      <trkpt lat="44.77147" lon="0.48732">
        <ele>112.3</ele>
        <time>2023-07-14T08:23:00Z</time>
      </trkpt>
      <trkpt lat="44.77147" lon="0.48728">
        <ele>112.2</ele>
        <time>2023-07-14T08:23:01Z</time>
      </trkpt>
      <trkpt lat="44.7715" lon="0.48721">
        <ele>112</ele>
        <time>2023-07-14T08:23:03Z</time>
      </trkpt>
      <trkpt lat="44.77152" lon="0.48718">
        <ele>111.9</ele>
        <time>2023-07-14T08:23:04Z</time>
      </trkpt>
      <trkpt lat="44.77153" lon="0.48714">
        <ele>111.8</ele>
        <time>2023-07-14T08:23:05Z</time>
      </trkpt>
      <trkpt lat="44.77156" lon="0.48711">
        <ele>111.7</ele>
        <time>2023-07-14T08:23:07Z</time>
      </trkpt>
      <trkpt lat="44.77158" lon="0.4871">
        <ele>111.7</ele>
        <time>2023-07-14T08:23:08Z</time>
      </trkpt>
      <trkpt lat="44.77161" lon="0.48709">
        <ele>111.6</ele>
        <time>2023-07-14T08:23:09Z</time>
      </trkpt>
      <trkpt lat="44.77167" lon="0.48709">
        <ele>111.5</ele>
        <time>2023-07-14T08:23:11Z</time>
      </trkpt>
      <trkpt lat="44.77174" lon="0.48708">
        <ele>111.4</ele>
        <time>2023-07-14T08:23:13Z</time>
      </trkpt>
      <trkpt lat="44.77183" lon="0.48707">
        <ele>111.3</ele>
        <time>2023-07-14T08:23:15Z</time>
      </trkpt>
      <trkpt lat="44.7719" lon="0.48708">
        <ele>111.2</ele>
        <time>2023-07-14T08:23:17Z</time>
      </trkpt>
      <trkpt lat="44.77194" lon="0.48708">
        <ele>111.1</ele>
        <time>2023-07-14T08:23:18Z</time>
      </trkpt>
      <trkpt lat="44.77194" lon="0.48708">
        <ele>111.1</ele>
        <time>2023-07-14T08:23:19Z</time>
      </trkpt>
      <trkpt lat="44.77206" lon="0.48708">
        <ele>110.9</ele>
        <time>2023-07-14T08:23:21Z</time>
      </trkpt>
      <trkpt lat="44.7721" lon="0.48708">
        <ele>110.8</ele>
        <time>2023-07-14T08:23:22Z</time>
      </trkpt>
      <trkpt lat="44.77216" lon="0.48709">
        <ele>110.7</ele>
        <time>2023-07-14T08:23:23Z</time>
      </trkpt>
      <trkpt lat="44.77227" lon="0.48709">
        <ele>110.4</ele>
        <time>2023-07-14T08:23:25Z</time>
      </trkpt>
      <trkpt lat="44.77233" lon="0.48706">
        <ele>110.2</ele>
        <time>2023-07-14T08:23:27Z</time>
      </trkpt>
      <trkpt lat="44.77238" lon="0.48705">
        <ele>110.1</ele>
        <time>2023-07-14T08:23:29Z</time>
      </trkpt>
      <trkpt lat="44.77245" lon="0.48706">
        <ele>109.9</ele>
        <time>2023-07-14T08:23:31Z</time>
      </trkpt>
      <trkpt lat="44.77252" lon="0.48711">
        <ele>109.6</ele>
        <time>2023-07-14T08:23:33Z</time>
      </trkpt>
      <trkpt lat="44.77256" lon="0.48714">
        <ele>109.4</ele>
        <time>2023-07-14T08:23:34Z</time>
      </trkpt>
      <trkpt lat="44.77259" lon="0.48714">
        <ele>109.3</ele>
        <time>2023-07-14T08:23:35Z</time>
      </trkpt>
      <trkpt lat="44.77267" lon="0.48715">
        <ele>108.8</ele>
        <time>2023-07-14T08:23:37Z</time>
      </trkpt>
      <trkpt lat="44.77275" lon="0.48716">
        <ele>108.5</ele>
        <time>2023-07-14T08:23:39Z</time>
      </trkpt>
      <trkpt lat="44.77282" lon="0.48718">
        <ele>108.1</ele>
        <time>2023-07-14T08:23:41Z</time>
      </trkpt>
      <trkpt lat="44.77288" lon="0.48718">
        <ele>107.7</ele>
        <time>2023-07-14T08:23:43Z</time>
      </trkpt>
      <trkpt lat="44.77294" lon="0.48718">
        <ele>107.3</ele>
        <time>2023-07-14T08:23:45Z</time>
      </trkpt>
      <trkpt lat="44.77296" lon="0.48718">
        <ele>107.1</ele>
        <time>2023-07-14T08:23:46Z</time>
      </trkpt>
      <trkpt lat="44.77302" lon="0.48719">
        <ele>106.8</ele>
        <time>2023-07-14T08:23:47Z</time>
      </trkpt>
      <trkpt lat="44.77306" lon="0.4872">
        <ele>106.6</ele>
        <time>2023-07-14T08:23:48Z</time>
      </trkpt>
      <trkpt lat="44.7731" lon="0.4872">
        <ele>106.3</ele>
        <time>2023-07-14T08:23:49Z</time>
      </trkpt>
      <trkpt lat="44.77319" lon="0.48722">
        <ele>106.1</ele>
        <time>2023-07-14T08:23:51Z</time>
      </trkpt>
      <trkpt lat="44.77327" lon="0.48723">
        <ele>106.1</ele>
        <time>2023-07-14T08:23:53Z</time>
      </trkpt>
      <trkpt lat="44.77331" lon="0.48723">
        <ele>106.1</ele>
        <time>2023-07-14T08:23:54Z</time>
      </trkpt>
      <trkpt lat="44.77335" lon="0.48723">
        <ele>106.2</ele>
        <time>2023-07-14T08:23:55Z</time>
      </trkpt>
      <trkpt lat="44.77343" lon="0.48724">
        <ele>106.4</ele>
        <time>2023-07-14T08:23:57Z</time>
      </trkpt>
      <trkpt lat="44.77352" lon="0.48724">
        <ele>106.7</ele>
        <time>2023-07-14T08:23:59Z</time>
      </trkpt>
      <trkpt lat="44.77357" lon="0.48724">
        <ele>106.7</ele>
        <time>2023-07-14T08:24:00Z</time>
      </trkpt>
      <trkpt lat="44.77361" lon="0.48725">
        <ele>106.8</ele>
        <time>2023-07-14T08:24:01Z</time>
      </trkpt>
      <trkpt lat="44.77365" lon="0.48725">
        <ele>107</ele>
        <time>2023-07-14T08:24:02Z</time>
      </trkpt>
      <trkpt lat="44.77373" lon="0.48726">
        <ele>107.2</ele>
        <time>2023-07-14T08:24:03Z</time>
      </trkpt>
      <trkpt lat="44.7738" lon="0.48726">
        <ele>107.4</ele>
        <time>2023-07-14T08:24:05Z</time>
      </trkpt>
      <trkpt lat="44.77383" lon="0.48726">
        <ele>107.4</ele>
        <time>2023-07-14T08:24:06Z</time>
      </trkpt>
      <trkpt lat="44.77385" lon="0.48725">
        <ele>107.4</ele>
        <time>2023-07-14T08:24:07Z</time>
      </trkpt>
      <trkpt lat="44.7739" lon="0.48723">
        <ele>107.6</ele>
        <time>2023-07-14T08:24:09Z</time>
      </trkpt>
      <trkpt lat="44.77394" lon="0.48723">
        <ele>107.7</ele>
        <time>2023-07-14T08:24:10Z</time>
      </trkpt>
      <trkpt lat="44.77397" lon="0.48723">
        <ele>107.7</ele>
        <time>2023-07-14T08:24:11Z</time>
      </trkpt>
      <trkpt lat="44.77402" lon="0.48723">
        <ele>107.9</ele>
        <time>2023-07-14T08:24:13Z</time>
      </trkpt>
      <trkpt lat="44.77408" lon="0.48722">
        <ele>108</ele>
        <time>2023-07-14T08:24:15Z</time>
      </trkpt>
      <trkpt lat="44.77411" lon="0.48723">
        <ele>108.1</ele>
        <time>2023-07-14T08:24:16Z</time>
      </trkpt>
      <trkpt lat="44.77414" lon="0.48723">
        <ele>108.2</ele>
        <time>2023-07-14T08:24:18Z</time>
      </trkpt>
      <trkpt lat="44.77417" lon="0.48723">
        <ele>108.3</ele>
        <time>2023-07-14T08:24:19Z</time>
      </trkpt>
      <trkpt lat="44.77426" lon="0.48726">
        <ele>108.8</ele>
        <time>2023-07-14T08:24:21Z</time>
      </trkpt>
      <trkpt lat="44.7743" lon="0.48731">
        <ele>109</ele>
        <time>2023-07-14T08:24:23Z</time>
      </trkpt>
      <trkpt lat="44.77433" lon="0.48732">
        <ele>109.1</ele>
        <time>2023-07-14T08:24:24Z</time>
      </trkpt>
      <trkpt lat="44.77435" lon="0.48733">
        <ele>109.2</ele>
        <time>2023-07-14T08:24:25Z</time>
      </trkpt>
      <trkpt lat="44.7744" lon="0.48735">
        <ele>109.5</ele>
        <time>2023-07-14T08:24:27Z</time>
      </trkpt>
      <trkpt lat="44.77442" lon="0.48737">
        <ele>109.6</ele>
        <time>2023-07-14T08:24:28Z</time>
      </trkpt>
      <trkpt lat="44.77444" lon="0.48737">
        <ele>109.8</ele>
        <time>2023-07-14T08:24:29Z</time>
      </trkpt>
      <trkpt lat="44.77448" lon="0.48738">
        <ele>109.9</ele>
        <time>2023-07-14T08:24:31Z</time>
      </trkpt>
      <trkpt lat="44.7745" lon="0.48738">
        <ele>110.1</ele>
        <time>2023-07-14T08:24:32Z</time>
      </trkpt>
      <trkpt lat="44.77452" lon="0.48738">
        <ele>110.1</ele>
        <time>2023-07-14T08:24:33Z</time>
      </trkpt>
      <trkpt lat="44.77456" lon="0.48738">
        <ele>110.4</ele>
        <time>2023-07-14T08:24:35Z</time>
      </trkpt>
      <trkpt lat="44.7746" lon="0.48738">
        <ele>110.5</ele>
        <time>2023-07-14T08:24:37Z</time>
      </trkpt>
      <trkpt lat="44.77464" lon="0.48737">
        <ele>110.7</ele>
        <time>2023-07-14T08:24:39Z</time>
      </trkpt>
      <trkpt lat="44.77469" lon="0.48737">
        <ele>111</ele>
        <time>2023-07-14T08:24:41Z</time>
      </trkpt>
      <trkpt lat="44.77476" lon="0.4874">
        <ele>111.5</ele>
        <time>2023-07-14T08:24:43Z</time>
      </trkpt>
      <trkpt lat="44.7748" lon="0.48737">
        <ele>111.6</ele>
        <time>2023-07-14T08:24:45Z</time>
      </trkpt>
      <trkpt lat="44.77483" lon="0.48734">
        <ele>112</ele>
        <time>2023-07-14T08:24:47Z</time>
      </trkpt>
      <trkpt lat="44.77487" lon="0.48733">
        <ele>112.2</ele>
        <time>2023-07-14T08:24:49Z</time>
      </trkpt>
      <trkpt lat="44.77491" lon="0.48732">
        <ele>112.4</ele>
        <time>2023-07-14T08:24:51Z</time>
      </trkpt>
      <trkpt lat="44.77496" lon="0.48731">
        <ele>112.8</ele>
        <time>2023-07-14T08:24:53Z</time>
      </trkpt>
      <trkpt lat="44.775" lon="0.48731">
        <ele>113.1</ele>
        <time>2023-07-14T08:24:55Z</time>
      </trkpt>
      <trkpt lat="44.77505" lon="0.48731">
        <ele>113.7</ele>
        <time>2023-07-14T08:24:57Z</time>
      </trkpt>
      <trkpt lat="44.77508" lon="0.4873">
        <ele>114</ele>
        <time>2023-07-14T08:24:59Z</time>
      </trkpt>
      <trkpt lat="44.7751" lon="0.48728">
        <ele>114</ele>
        <time>2023-07-14T08:25:00Z</time>
      </trkpt>
      <trkpt lat="44.77512" lon="0.48727">
        <ele>114.2</ele>
        <time>2023-07-14T08:25:01Z</time>
      </trkpt>
      <trkpt lat="44.77515" lon="0.48723">
        <ele>114.5</ele>
        <time>2023-07-14T08:25:03Z</time>
      </trkpt>
      <trkpt lat="44.7752" lon="0.48722">
        <ele>115.1</ele>
        <time>2023-07-14T08:25:05Z</time>
      </trkpt>
      <trkpt lat="44.77524" lon="0.48723">
        <ele>115.5</ele>
        <time>2023-07-14T08:25:07Z</time>
      </trkpt>
      <trkpt lat="44.77529" lon="0.48723">
        <ele>116.2</ele>
        <time>2023-07-14T08:25:09Z</time>
      </trkpt>
      <trkpt lat="44.77533" lon="0.48723">
        <ele>116.5</ele>
        <time>2023-07-14T08:25:11Z</time>
      </trkpt>
      <trkpt lat="44.77537" lon="0.48723">
        <ele>116.8</ele>
        <time>2023-07-14T08:25:13Z</time>
      </trkpt>
      <trkpt lat="44.77542" lon="0.48723">
        <ele>117.3</ele>
        <time>2023-07-14T08:25:15Z</time>
      </trkpt>
      <trkpt lat="44.77545" lon="0.48722">
        <ele>117.6</ele>
        <time>2023-07-14T08:25:17Z</time>
      </trkpt>
      <trkpt lat="44.77548" lon="0.48722">
        <ele>117.8</ele>
        <time>2023-07-14T08:25:18Z</time>
      </trkpt>
      <trkpt lat="44.77549" lon="0.48722">
        <ele>117.8</ele>
        <time>2023-07-14T08:25:19Z</time>
      </trkpt>
      <trkpt lat="44.77553" lon="0.48723">
        <ele>118.2</ele>
        <time>2023-07-14T08:25:21Z</time>
      </trkpt>
      <trkpt lat="44.77558" lon="0.48722">
        <ele>118.4</ele>
        <time>2023-07-14T08:25:23Z</time>
      </trkpt>
      <trkpt lat="44.77562" lon="0.48722">
        <ele>118.5</ele>
        <time>2023-07-14T08:25:25Z</time>
      </trkpt>
      <trkpt lat="44.77565" lon="0.48723">
        <ele>118.9</ele>
        <time>2023-07-14T08:25:27Z</time>
      </trkpt>
      <trkpt lat="44.77567" lon="0.48725">
        <ele>118.9</ele>
        <time>2023-07-14T08:25:28Z</time>
      </trkpt>
      <trkpt lat="44.77566" lon="0.48727">
        <ele>119.1</ele>
        <time>2023-07-14T08:25:29Z</time>
      </trkpt>
      <trkpt lat="44.77565" lon="0.48733">
        <ele>119.1</ele>
        <time>2023-07-14T08:25:31Z</time>
      </trkpt>
      <trkpt lat="44.77563" lon="0.4874">
        <ele>119.5</ele>
        <time>2023-07-14T08:25:33Z</time>
      </trkpt>
      <trkpt lat="44.77561" lon="0.48749">
        <ele>119.7</ele>
        <time>2023-07-14T08:25:35Z</time>
      </trkpt>
      <trkpt lat="44.7756" lon="0.48754">
        <ele>119.9</ele>
        <time>2023-07-14T08:25:36Z</time>
      </trkpt>
      <trkpt lat="44.77558" lon="0.48761">
        <ele>120</ele>
        <time>2023-07-14T08:25:37Z</time>
      </trkpt>
      <trkpt lat="44.77556" lon="0.48768">
        <ele>120.1</ele>
        <time>2023-07-14T08:25:38Z</time>
      </trkpt>
      <trkpt lat="44.77554" lon="0.48775">
        <ele>120</ele>
        <time>2023-07-14T08:25:39Z</time>
      </trkpt>
      <trkpt lat="44.7755" lon="0.48788">
        <ele>119.8</ele>
        <time>2023-07-14T08:25:41Z</time>
      </trkpt>
      <trkpt lat="44.77546" lon="0.48799">
        <ele>119.3</ele>
        <time>2023-07-14T08:25:43Z</time>
      </trkpt>
      <trkpt lat="44.77542" lon="0.48813">
        <ele>119.2</ele>
        <time>2023-07-14T08:25:45Z</time>
      </trkpt>
      <trkpt lat="44.7754" lon="0.48818">
        <ele>118.9</ele>
        <time>2023-07-14T08:25:46Z</time>
      </trkpt>
      <trkpt lat="44.77537" lon="0.48823">
        <ele>118.6</ele>
        <time>2023-07-14T08:25:47Z</time>
      </trkpt>
      <trkpt lat="44.77533" lon="0.48834">
        <ele>118.4</ele>
        <time>2023-07-14T08:25:48Z</time>
      </trkpt>
      <trkpt lat="44.77531" lon="0.48841">
        <ele>118.2</ele>
        <time>2023-07-14T08:25:49Z</time>
      </trkpt>
      <trkpt lat="44.7753" lon="0.48849">
        <ele>118.4</ele>
        <time>2023-07-14T08:25:50Z</time>
      </trkpt>
      <trkpt lat="44.77528" lon="0.48856">
        <ele>118.3</ele>
        <time>2023-07-14T08:25:51Z</time>
      </trkpt>
      <trkpt lat="44.77521" lon="0.48869">
        <ele>118.1</ele>
        <time>2023-07-14T08:25:53Z</time>
      </trkpt>
      <trkpt lat="44.77518" lon="0.48876">
        <ele>118</ele>
        <time>2023-07-14T08:25:54Z</time>
      </trkpt>
      <trkpt lat="44.77515" lon="0.48882">
        <ele>118</ele>
        <time>2023-07-14T08:25:55Z</time>
      </trkpt>
      <trkpt lat="44.77513" lon="0.48893">
        <ele>118</ele>
        <time>2023-07-14T08:25:57Z</time>
      </trkpt>
      <trkpt lat="44.77508" lon="0.48901">
        <ele>118</ele>
        <time>2023-07-14T08:25:59Z</time>
      </trkpt>
      <trkpt lat="44.77508" lon="0.48905">
        <ele>118</ele>
        <time>2023-07-14T08:26:00Z</time>
      </trkpt>
      <trkpt lat="44.77507" lon="0.48911">
        <ele>117.9</ele>
        <time>2023-07-14T08:26:01Z</time>
      </trkpt>
      <trkpt lat="44.77502" lon="0.4892">
        <ele>117.8</ele>
        <time>2023-07-14T08:26:03Z</time>
      </trkpt>
      <trkpt lat="44.775" lon="0.48925">
        <ele>117.7</ele>
        <time>2023-07-14T08:26:04Z</time>
      </trkpt>
      <trkpt lat="44.77497" lon="0.48931">
        <ele>117.6</ele>
        <time>2023-07-14T08:26:05Z</time>
      </trkpt>
      <trkpt lat="44.77493" lon="0.48936">
        <ele>117.5</ele>
        <time>2023-07-14T08:26:06Z</time>
      </trkpt>
      <trkpt lat="44.77491" lon="0.48943">
        <ele>117.7</ele>
        <time>2023-07-14T08:26:07Z</time>
      </trkpt>
      <trkpt lat="44.77488" lon="0.4895">
        <ele>117.9</ele>
        <time>2023-07-14T08:26:08Z</time>
      </trkpt>
      <trkpt lat="44.77486" lon="0.48956">
        <ele>118.1</ele>
        <time>2023-07-14T08:26:09Z</time>
      </trkpt>
      <trkpt lat="44.77481" lon="0.48968">
        <ele>118.3</ele>
        <time>2023-07-14T08:26:11Z</time>
      </trkpt>
      <trkpt lat="44.77479" lon="0.48975">
        <ele>118.3</ele>
        <time>2023-07-14T08:26:12Z</time>
      </trkpt>
      <trkpt lat="44.77477" lon="0.4898">
        <ele>118.4</ele>
        <time>2023-07-14T08:26:13Z</time>
      </trkpt>
      <trkpt lat="44.77474" lon="0.48986">
        <ele>118.6</ele>
        <time>2023-07-14T08:26:14Z</time>
      </trkpt>
      <trkpt lat="44.77471" lon="0.48992">
        <ele>118.2</ele>
        <time>2023-07-14T08:26:15Z</time>
      </trkpt>
      <trkpt lat="44.77468" lon="0.48997">
        <ele>118.1</ele>
        <time>2023-07-14T08:26:16Z</time>
      </trkpt>
      <trkpt lat="44.77465" lon="0.49003">
        <ele>118.3</ele>
        <time>2023-07-14T08:26:17Z</time>
      </trkpt>
      <trkpt lat="44.77462" lon="0.49008">
        <ele>118.1</ele>
        <time>2023-07-14T08:26:18Z</time>
      </trkpt>
      <trkpt lat="44.77459" lon="0.49014">
        <ele>118.1</ele>
        <time>2023-07-14T08:26:19Z</time>
      </trkpt>
      <trkpt lat="44.77454" lon="0.49028">
        <ele>118</ele>
        <time>2023-07-14T08:26:21Z</time>
      </trkpt>
      <trkpt lat="44.77451" lon="0.49035">
        <ele>117.8</ele>
        <time>2023-07-14T08:26:22Z</time>
      </trkpt>
      <trkpt lat="44.77448" lon="0.49041">
        <ele>117.6</ele>
        <time>2023-07-14T08:26:23Z</time>
      </trkpt>
      <trkpt lat="44.77442" lon="0.49053">
        <ele>117</ele>
        <time>2023-07-14T08:26:25Z</time>
      </trkpt>
      <trkpt lat="44.7744" lon="0.49058">
        <ele>116.7</ele>
        <time>2023-07-14T08:26:26Z</time>
      </trkpt>
      <trkpt lat="44.77437" lon="0.49065">
        <ele>116.3</ele>
        <time>2023-07-14T08:26:27Z</time>
      </trkpt>
      <trkpt lat="44.77433" lon="0.49078">
        <ele>116.3</ele>
        <time>2023-07-14T08:26:29Z</time>
      </trkpt>
      <trkpt lat="44.7743" lon="0.49091">
        <ele>116.5</ele>
        <time>2023-07-14T08:26:31Z</time>
      </trkpt>
      <trkpt lat="44.77427" lon="0.49105">
        <ele>116.6</ele>
        <time>2023-07-14T08:26:33Z</time>
      </trkpt>
      <trkpt lat="44.77426" lon="0.4912">
        <ele>116.9</ele>
        <time>2023-07-14T08:26:35Z</time>
      </trkpt>
      <trkpt lat="44.77425" lon="0.49136">
        <ele>117</ele>
        <time>2023-07-14T08:26:37Z</time>
      </trkpt>
      <trkpt lat="44.77424" lon="0.49153">
        <ele>117.2</ele>
        <time>2023-07-14T08:26:39Z</time>
      </trkpt>
      <trkpt lat="44.77424" lon="0.49169">
        <ele>117.2</ele>
        <time>2023-07-14T08:26:41Z</time>
      </trkpt>
      <trkpt lat="44.77424" lon="0.49177">
        <ele>117.2</ele>
        <time>2023-07-14T08:26:42Z</time>
      </trkpt>
      <trkpt lat="44.77424" lon="0.49185">
        <ele>117.2</ele>
        <time>2023-07-14T08:26:43Z</time>
      </trkpt>
      <trkpt lat="44.77424" lon="0.49199">
        <ele>117.1</ele>
        <time>2023-07-14T08:26:45Z</time>
      </trkpt>
      <trkpt lat="44.77424" lon="0.49213">
        <ele>117.2</ele>
        <time>2023-07-14T08:26:47Z</time>
      </trkpt>
      <trkpt lat="44.77424" lon="0.49222">
        <ele>117.2</ele>
        <time>2023-07-14T08:26:48Z</time>
      </trkpt>
      <trkpt lat="44.77424" lon="0.4923">
        <ele>117.2</ele>
        <time>2023-07-14T08:26:49Z</time>
      </trkpt>
      <trkpt lat="44.77424" lon="0.49245">
        <ele>117.2</ele>
        <time>2023-07-14T08:26:51Z</time>
      </trkpt>
      <trkpt lat="44.77424" lon="0.4926">
        <ele>117.2</ele>
        <time>2023-07-14T08:26:53Z</time>
      </trkpt>
      <trkpt lat="44.77423" lon="0.49267">
        <ele>117.1</ele>
        <time>2023-07-14T08:26:54Z</time>
      </trkpt>
      <trkpt lat="44.77423" lon="0.49274">
        <ele>117</ele>
        <time>2023-07-14T08:26:55Z</time>
      </trkpt>
      <trkpt lat="44.77424" lon="0.49289">
        <ele>116.5</ele>
        <time>2023-07-14T08:26:57Z</time>
      </trkpt>
      <trkpt lat="44.77424" lon="0.49296">
        <ele>116.4</ele>
        <time>2023-07-14T08:26:58Z</time>
      </trkpt>
      <trkpt lat="44.77423" lon="0.49303">
        <ele>116</ele>
        <time>2023-07-14T08:26:59Z</time>
      </trkpt>
      <trkpt lat="44.77424" lon="0.49318">
        <ele>115.4</ele>
        <time>2023-07-14T08:27:01Z</time>
      </trkpt>
      <trkpt lat="44.77424" lon="0.49332">
        <ele>114.7</ele>
        <time>2023-07-14T08:27:03Z</time>
      </trkpt>
      <trkpt lat="44.77425" lon="0.49339">
        <ele>114.5</ele>
        <time>2023-07-14T08:27:04Z</time>
      </trkpt>
      <trkpt lat="44.77425" lon="0.49347">
        <ele>114.4</ele>
        <time>2023-07-14T08:27:05Z</time>
      </trkpt>
      <trkpt lat="44.77425" lon="0.49361">
        <ele>114</ele>
        <time>2023-07-14T08:27:07Z</time>
      </trkpt>
      <trkpt lat="44.77426" lon="0.49368">
        <ele>113.7</ele>
        <time>2023-07-14T08:27:08Z</time>
      </trkpt>
      <trkpt lat="44.77426" lon="0.49375">
        <ele>113.4</ele>
        <time>2023-07-14T08:27:09Z</time>
      </trkpt>
      <trkpt lat="44.77426" lon="0.49389">
        <ele>113</ele>
        <time>2023-07-14T08:27:11Z</time>
      </trkpt>
      <trkpt lat="44.77427" lon="0.49403">
        <ele>112.7</ele>
        <time>2023-07-14T08:27:13Z</time>
      </trkpt>
      <trkpt lat="44.77427" lon="0.49417">
        <ele>112.5</ele>
        <time>2023-07-14T08:27:15Z</time>
      </trkpt>
      <trkpt lat="44.77428" lon="0.4943">
        <ele>112.5</ele>
        <time>2023-07-14T08:27:17Z</time>
      </trkpt>
      <trkpt lat="44.77429" lon="0.49437">
        <ele>112.5</ele>
        <time>2023-07-14T08:27:18Z</time>
      </trkpt>
      <trkpt lat="44.77429" lon="0.49444">
        <ele>112.4</ele>
        <time>2023-07-14T08:27:19Z</time>
      </trkpt>
      <trkpt lat="44.77429" lon="0.4945">
        <ele>112.4</ele>
        <time>2023-07-14T08:27:20Z</time>
      </trkpt>
      <trkpt lat="44.7743" lon="0.49457">
        <ele>112.3</ele>
        <time>2023-07-14T08:27:21Z</time>
      </trkpt>
      <trkpt lat="44.7743" lon="0.49472">
        <ele>112.2</ele>
        <time>2023-07-14T08:27:23Z</time>
      </trkpt>
      <trkpt lat="44.7743" lon="0.4948">
        <ele>112.2</ele>
        <time>2023-07-14T08:27:24Z</time>
      </trkpt>
      <trkpt lat="44.7743" lon="0.49486">
        <ele>112.1</ele>
        <time>2023-07-14T08:27:25Z</time>
      </trkpt>
      <trkpt lat="44.77429" lon="0.49491">
        <ele>112</ele>
        <time>2023-07-14T08:27:26Z</time>
      </trkpt>
      <trkpt lat="44.77427" lon="0.49494">
        <ele>112</ele>
        <time>2023-07-14T08:27:27Z</time>
      </trkpt>
      <trkpt lat="44.77426" lon="0.49497">
        <ele>112</ele>
        <time>2023-07-14T08:27:28Z</time>
      </trkpt>
      <trkpt lat="44.77426" lon="0.49502">
        <ele>112</ele>
        <time>2023-07-14T08:27:29Z</time>
      </trkpt>
      <trkpt lat="44.77426" lon="0.49507">
        <ele>112.2</ele>
        <time>2023-07-14T08:27:30Z</time>
      </trkpt>
      <trkpt lat="44.77427" lon="0.49514">
        <ele>112.3</ele>
        <time>2023-07-14T08:27:31Z</time>
      </trkpt>
      <trkpt lat="44.77426" lon="0.49521">
        <ele>112.7</ele>
        <time>2023-07-14T08:27:32Z</time>
      </trkpt>
      <trkpt lat="44.77425" lon="0.49528">
        <ele>113</ele>
        <time>2023-07-14T08:27:33Z</time>
      </trkpt>
      <trkpt lat="44.77423" lon="0.49534">
        <ele>113.4</ele>
        <time>2023-07-14T08:27:34Z</time>
      </trkpt>
      <trkpt lat="44.7742" lon="0.49539">
        <ele>113.7</ele>
        <time>2023-07-14T08:27:35Z</time>
      </trkpt>
      <trkpt lat="44.77414" lon="0.4955">
        <ele>114.4</ele>
        <time>2023-07-14T08:27:37Z</time>
      </trkpt>
      <trkpt lat="44.7741" lon="0.49557">
        <ele>114.6</ele>
        <time>2023-07-14T08:27:38Z</time>
      </trkpt>
      <trkpt lat="44.77407" lon="0.49563">
        <ele>114.9</ele>
        <time>2023-07-14T08:27:39Z</time>
      </trkpt>
      <trkpt lat="44.77406" lon="0.49568">
        <ele>115</ele>
        <time>2023-07-14T08:27:40Z</time>
      </trkpt>
      <trkpt lat="44.77407" lon="0.49573">
        <ele>115.4</ele>
        <time>2023-07-14T08:27:41Z</time>
      </trkpt>
      <trkpt lat="44.77408" lon="0.49577">
        <ele>115.6</ele>
        <time>2023-07-14T08:27:42Z</time>
      </trkpt>
      <trkpt lat="44.77409" lon="0.49581">
        <ele>115.9</ele>
        <time>2023-07-14T08:27:43Z</time>
      </trkpt>
      <trkpt lat="44.77411" lon="0.49584">
        <ele>116</ele>
        <time>2023-07-14T08:27:44Z</time>
      </trkpt>
      <trkpt lat="44.77414" lon="0.49587">
        <ele>116.4</ele>
        <time>2023-07-14T08:27:45Z</time>
      </trkpt>
      <trkpt lat="44.7742" lon="0.49594">
        <ele>117.1</ele>
        <time>2023-07-14T08:27:47Z</time>
      </trkpt>
      <trkpt lat="44.77423" lon="0.49598">
        <ele>117.5</ele>
        <time>2023-07-14T08:27:48Z</time>
      </trkpt>
      <trkpt lat="44.77426" lon="0.49601">
        <ele>117.5</ele>
        <time>2023-07-14T08:27:49Z</time>
      </trkpt>
      <trkpt lat="44.7743" lon="0.49605">
        <ele>117.9</ele>
        <time>2023-07-14T08:27:50Z</time>
      </trkpt>
      <trkpt lat="44.77434" lon="0.4961">
        <ele>118.2</ele>
        <time>2023-07-14T08:27:51Z</time>
      </trkpt>
      <trkpt lat="44.77437" lon="0.49614">
        <ele>118.5</ele>
        <time>2023-07-14T08:27:52Z</time>
      </trkpt>
      <trkpt lat="44.77439" lon="0.49618">
        <ele>118.8</ele>
        <time>2023-07-14T08:27:53Z</time>
      </trkpt>
      <trkpt lat="44.77442" lon="0.49623">
        <ele>119.3</ele>
        <time>2023-07-14T08:27:54Z</time>
      </trkpt>
      <trkpt lat="44.77445" lon="0.49627">
        <ele>119.3</ele>
        <time>2023-07-14T08:27:55Z</time>
      </trkpt>
      <trkpt lat="44.77448" lon="0.49631">
        <ele>119.5</ele>
        <time>2023-07-14T08:27:56Z</time>
      </trkpt>
      <trkpt lat="44.77451" lon="0.49636">
        <ele>120</ele>
        <time>2023-07-14T08:27:57Z</time>
      </trkpt>
      <trkpt lat="44.77456" lon="0.49646">
        <ele>120.4</ele>
        <time>2023-07-14T08:27:59Z</time>
      </trkpt>
      <trkpt lat="44.77461" lon="0.49655">
        <ele>120.9</ele>
        <time>2023-07-14T08:28:01Z</time>
      </trkpt>
      <trkpt lat="44.77465" lon="0.49662">
        <ele>121.2</ele>
        <time>2023-07-14T08:28:03Z</time>
      </trkpt>
      <trkpt lat="44.7747" lon="0.49671">
        <ele>121.5</ele>
        <time>2023-07-14T08:28:05Z</time>
      </trkpt>
      <trkpt lat="44.77472" lon="0.49675">
        <ele>121.5</ele>
        <time>2023-07-14T08:28:06Z</time>
      </trkpt>
      <trkpt lat="44.77475" lon="0.4968">
        <ele>121.5</ele>
        <time>2023-07-14T08:28:07Z</time>
      </trkpt>
      <trkpt lat="44.7748" lon="0.4969">
        <ele>121.8</ele>
        <time>2023-07-14T08:28:09Z</time>
      </trkpt>
      <trkpt lat="44.77485" lon="0.49701">
        <ele>122.3</ele>
        <time>2023-07-14T08:28:11Z</time>
      </trkpt>
      <trkpt lat="44.77489" lon="0.49711">
        <ele>122.7</ele>
        <time>2023-07-14T08:28:13Z</time>
      </trkpt>
      <trkpt lat="44.77494" lon="0.49722">
        <ele>122.9</ele>
        <time>2023-07-14T08:28:15Z</time>
      </trkpt>
      <trkpt lat="44.77497" lon="0.49727">
        <ele>123.3</ele>
        <time>2023-07-14T08:28:16Z</time>
      </trkpt>
      <trkpt lat="44.775" lon="0.49733">
        <ele>123.4</ele>
        <time>2023-07-14T08:28:17Z</time>
      </trkpt>
      <trkpt lat="44.77503" lon="0.49738">
        <ele>123.5</ele>
        <time>2023-07-14T08:28:18Z</time>
      </trkpt>
      <trkpt lat="44.77506" lon="0.49744">
        <ele>123.9</ele>
        <time>2023-07-14T08:28:19Z</time>
      </trkpt>
      <trkpt lat="44.77512" lon="0.49754">
        <ele>124.1</ele>
        <time>2023-07-14T08:28:21Z</time>
      </trkpt>
      <trkpt lat="44.77518" lon="0.49766">
        <ele>124.4</ele>
        <time>2023-07-14T08:28:23Z</time>
      </trkpt>
      <trkpt lat="44.77525" lon="0.49776">
        <ele>124.4</ele>
        <time>2023-07-14T08:28:25Z</time>
      </trkpt>
      <trkpt lat="44.77533" lon="0.49785">
        <ele>124.1</ele>
        <time>2023-07-14T08:28:27Z</time>
      </trkpt>
      <trkpt lat="44.7754" lon="0.49793">
        <ele>124</ele>
        <time>2023-07-14T08:28:29Z</time>
      </trkpt>
      <trkpt lat="44.77549" lon="0.49802">
        <ele>123.5</ele>
        <time>2023-07-14T08:28:31Z</time>
      </trkpt>
      <trkpt lat="44.77553" lon="0.49805">
        <ele>123.1</ele>
        <time>2023-07-14T08:28:32Z</time>
      </trkpt>
      <trkpt lat="44.77557" lon="0.49808">
        <ele>123.1</ele>
        <time>2023-07-14T08:28:33Z</time>
      </trkpt>
      <trkpt lat="44.77567" lon="0.49814">
        <ele>122.6</ele>
        <time>2023-07-14T08:28:35Z</time>
      </trkpt>
      <trkpt lat="44.77576" lon="0.49821">
        <ele>122.7</ele>
        <time>2023-07-14T08:28:37Z</time>
      </trkpt>
      <trkpt lat="44.77584" lon="0.49829">
        <ele>122.2</ele>
        <time>2023-07-14T08:28:39Z</time>
      </trkpt>
      <trkpt lat="44.77593" lon="0.49838">
        <ele>122.9</ele>
        <time>2023-07-14T08:28:41Z</time>
      </trkpt>
      <trkpt lat="44.77598" lon="0.49842">
        <ele>123.1</ele>
        <time>2023-07-14T08:28:42Z</time>
      </trkpt>
      <trkpt lat="44.77603" lon="0.49846">
        <ele>122.2</ele>
        <time>2023-07-14T08:28:43Z</time>
      </trkpt>
      <trkpt lat="44.77613" lon="0.49853">
        <ele>121.7</ele>
        <time>2023-07-14T08:28:45Z</time>
      </trkpt>
      <trkpt lat="44.77622" lon="0.4986">
        <ele>120.9</ele>
        <time>2023-07-14T08:28:47Z</time>
      </trkpt>
      <trkpt lat="44.77626" lon="0.49864">
        <ele>120.3</ele>
        <time>2023-07-14T08:28:48Z</time>
      </trkpt>
      <trkpt lat="44.7763" lon="0.49867">
        <ele>119.7</ele>
        <time>2023-07-14T08:28:49Z</time>
      </trkpt>
      <trkpt lat="44.77637" lon="0.49874">
        <ele>119.4</ele>
        <time>2023-07-14T08:28:51Z</time>
      </trkpt>
      <trkpt lat="44.7764" lon="0.49878">
        <ele>119.2</ele>
        <time>2023-07-14T08:28:52Z</time>
      </trkpt>
      <trkpt lat="44.77643" lon="0.49883">
        <ele>119.1</ele>
        <time>2023-07-14T08:28:53Z</time>
      </trkpt>
      <trkpt lat="44.77648" lon="0.49893">
        <ele>119.1</ele>
        <time>2023-07-14T08:28:55Z</time>
      </trkpt>
      <trkpt lat="44.7765" lon="0.49899">
        <ele>119.3</ele>
        <time>2023-07-14T08:28:56Z</time>
      </trkpt>
      <trkpt lat="44.77652" lon="0.49904">
        <ele>119.1</ele>
        <time>2023-07-14T08:28:57Z</time>
      </trkpt>
      <trkpt lat="44.77655" lon="0.49915">
        <ele>119.1</ele>
        <time>2023-07-14T08:28:59Z</time>
      </trkpt>
      <trkpt lat="44.77657" lon="0.4992">
        <ele>119.1</ele>
        <time>2023-07-14T08:29:00Z</time>
      </trkpt>
      <trkpt lat="44.77659" lon="0.49926">
        <ele>119.2</ele>
        <time>2023-07-14T08:29:01Z</time>
      </trkpt>
      <trkpt lat="44.77661" lon="0.49932">
        <ele>119</ele>
        <time>2023-07-14T08:29:02Z</time>
      </trkpt>
      <trkpt lat="44.77662" lon="0.49938">
        <ele>119.3</ele>
        <time>2023-07-14T08:29:03Z</time>
      </trkpt>
      <trkpt lat="44.77665" lon="0.4995">
        <ele>119.2</ele>
        <time>2023-07-14T08:29:05Z</time>
      </trkpt>
      <trkpt lat="44.77666" lon="0.49956">
        <ele>118.9</ele>
        <time>2023-07-14T08:29:06Z</time>
      </trkpt>
      <trkpt lat="44.77668" lon="0.49962">
        <ele>119</ele>
        <time>2023-07-14T08:29:07Z</time>
      </trkpt>
      <trkpt lat="44.77671" lon="0.49974">
        <ele>118.8</ele>
        <time>2023-07-14T08:29:09Z</time>
      </trkpt>
      <trkpt lat="44.77672" lon="0.4998">
        <ele>118.5</ele>
        <time>2023-07-14T08:29:10Z</time>
      </trkpt>
      <trkpt lat="44.77673" lon="0.49987">
        <ele>118.6</ele>
        <time>2023-07-14T08:29:11Z</time>
      </trkpt>
      <trkpt lat="44.77674" lon="0.5">
        <ele>118.7</ele>
        <time>2023-07-14T08:29:13Z</time>
      </trkpt>
      <trkpt lat="44.77673" lon="0.50012">
        <ele>118.8</ele>
        <time>2023-07-14T08:29:15Z</time>
      </trkpt>
      <trkpt lat="44.77673" lon="0.50022">
        <ele>118.8</ele>
        <time>2023-07-14T08:29:17Z</time>
      </trkpt>
      <trkpt lat="44.77674" lon="0.50034">
        <ele>118.9</ele>
        <time>2023-07-14T08:29:19Z</time>
      </trkpt>
      <trkpt lat="44.77675" lon="0.50046">
        <ele>118.9</ele>
        <time>2023-07-14T08:29:21Z</time>
      </trkpt>
      <trkpt lat="44.77676" lon="0.5006">
        <ele>118.7</ele>
        <time>2023-07-14T08:29:23Z</time>
      </trkpt>
      <trkpt lat="44.77678" lon="0.50072">
        <ele>118.8</ele>
        <time>2023-07-14T08:29:25Z</time>
      </trkpt>
      <trkpt lat="44.77679" lon="0.50086">
        <ele>118.8</ele>
        <time>2023-07-14T08:29:27Z</time>
      </trkpt>
      <trkpt lat="44.77681" lon="0.50097">
        <ele>119.2</ele>
        <time>2023-07-14T08:29:29Z</time>
      </trkpt>
      <trkpt lat="44.77683" lon="0.50103">
        <ele>119.1</ele>
        <time>2023-07-14T08:29:30Z</time>
      </trkpt>
      <trkpt lat="44.77686" lon="0.50109">
        <ele>119.3</ele>
        <time>2023-07-14T08:29:31Z</time>
      </trkpt>
      <trkpt lat="44.77691" lon="0.5012">
        <ele>119.3</ele>
        <time>2023-07-14T08:29:33Z</time>
      </trkpt>
      <trkpt lat="44.77693" lon="0.50126">
        <ele>119.7</ele>
        <time>2023-07-14T08:29:34Z</time>
      </trkpt>
      <trkpt lat="44.77695" lon="0.50133">
        <ele>119.8</ele>
        <time>2023-07-14T08:29:35Z</time>
      </trkpt>
      <trkpt lat="44.777" lon="0.50146">
        <ele>120.1</ele>
        <time>2023-07-14T08:29:37Z</time>
      </trkpt>
      <trkpt lat="44.77705" lon="0.50158">
        <ele>120.5</ele>
        <time>2023-07-14T08:29:39Z</time>
      </trkpt>
      <trkpt lat="44.77708" lon="0.50163">
        <ele>120.6</ele>
        <time>2023-07-14T08:29:40Z</time>
      </trkpt>
      <trkpt lat="44.77711" lon="0.50168">
        <ele>120.6</ele>
        <time>2023-07-14T08:29:41Z</time>
      </trkpt>
      <trkpt lat="44.77716" lon="0.50177">
        <ele>120.7</ele>
        <time>2023-07-14T08:29:43Z</time>
      </trkpt>
      <trkpt lat="44.77719" lon="0.50187">
        <ele>120.7</ele>
        <time>2023-07-14T08:29:45Z</time>
      </trkpt>
      <trkpt lat="44.77722" lon="0.50198">
        <ele>120.8</ele>
        <time>2023-07-14T08:29:47Z</time>
      </trkpt>
      <trkpt lat="44.77726" lon="0.50208">
        <ele>120.9</ele>
        <time>2023-07-14T08:29:49Z</time>
      </trkpt>
      <trkpt lat="44.77728" lon="0.50213">
        <ele>120.8</ele>
        <time>2023-07-14T08:29:50Z</time>
      </trkpt>
      <trkpt lat="44.7773" lon="0.50218">
        <ele>120.7</ele>
        <time>2023-07-14T08:29:51Z</time>
      </trkpt>
      <trkpt lat="44.77734" lon="0.50227">
        <ele>120.7</ele>
        <time>2023-07-14T08:29:53Z</time>
      </trkpt>
      <trkpt lat="44.77735" lon="0.50229">
        <ele>120.8</ele>
        <time>2023-07-14T08:29:54Z</time>
      </trkpt>
      <trkpt lat="44.77736" lon="0.50233">
        <ele>120.7</ele>
        <time>2023-07-14T08:29:55Z</time>
      </trkpt>
      <trkpt lat="44.77738" lon="0.5024">
        <ele>120.8</ele>
        <time>2023-07-14T08:29:57Z</time>
      </trkpt>
      <trkpt lat="44.7774" lon="0.50243">
        <ele>120.7</ele>
        <time>2023-07-14T08:29:58Z</time>
      </trkpt>
      <trkpt lat="44.77742" lon="0.50247">
        <ele>120.8</ele>
        <time>2023-07-14T08:29:59Z</time>
      </trkpt>
      <trkpt lat="44.77746" lon="0.50256">
        <ele>120.6</ele>
        <time>2023-07-14T08:30:01Z</time>
      </trkpt>
      <trkpt lat="44.77749" lon="0.50266">
        <ele>120.6</ele>
        <time>2023-07-14T08:30:03Z</time>
      </trkpt>
      <trkpt lat="44.77753" lon="0.50276">
        <ele>120.6</ele>
        <time>2023-07-14T08:30:05Z</time>
      </trkpt>
      <trkpt lat="44.77757" lon="0.50287">
        <ele>120.4</ele>
        <time>2023-07-14T08:30:07Z</time>
      </trkpt>
      <trkpt lat="44.77761" lon="0.50297">
        <ele>120.3</ele>
        <time>2023-07-14T08:30:09Z</time>
      </trkpt>
      <trkpt lat="44.77764" lon="0.50302">
        <ele>120.3</ele>
        <time>2023-07-14T08:30:10Z</time>
      </trkpt>
      <trkpt lat="44.77765" lon="0.50306">
        <ele>120.3</ele>
        <time>2023-07-14T08:30:11Z</time>
      </trkpt>
      <trkpt lat="44.77767" lon="0.5031">
        <ele>120.2</ele>
        <time>2023-07-14T08:30:12Z</time>
      </trkpt>
      <trkpt lat="44.77769" lon="0.50313">
        <ele>120.2</ele>
        <time>2023-07-14T08:30:13Z</time>
      </trkpt>
      <trkpt lat="44.7777" lon="0.50316">
        <ele>120.1</ele>
        <time>2023-07-14T08:30:14Z</time>
      </trkpt>
      <trkpt lat="44.77772" lon="0.50319">
        <ele>120.1</ele>
        <time>2023-07-14T08:30:15Z</time>
      </trkpt>
      <trkpt lat="44.77775" lon="0.50326">
        <ele>119.9</ele>
        <time>2023-07-14T08:30:17Z</time>
      </trkpt>
      <trkpt lat="44.77777" lon="0.50329">
        <ele>119.8</ele>
        <time>2023-07-14T08:30:18Z</time>
      </trkpt>
      <trkpt lat="44.77779" lon="0.50333">
        <ele>119.7</ele>
        <time>2023-07-14T08:30:19Z</time>
      </trkpt>
      <trkpt lat="44.77783" lon="0.50342">
        <ele>119.5</ele>
        <time>2023-07-14T08:30:21Z</time>
      </trkpt>
      <trkpt lat="44.77787" lon="0.50349">
        <ele>119.3</ele>
        <time>2023-07-14T08:30:23Z</time>
      </trkpt>
      <trkpt lat="44.7779" lon="0.50357">
        <ele>119.1</ele>
        <time>2023-07-14T08:30:25Z</time>
      </trkpt>
      <trkpt lat="44.7779" lon="0.50357">
        <ele>119</ele>
        <time>2023-07-14T08:30:26Z</time>
      </trkpt>
      <trkpt lat="44.7779" lon="0.50357">
        <ele>119</ele>
        <time>2023-07-14T08:30:27Z</time>
      </trkpt>
      <trkpt lat="44.7779" lon="0.50357">
        <ele>119</ele>
        <time>2023-07-14T08:30:28Z</time>
      </trkpt>
      <trkpt lat="44.77791" lon="0.50357">
        <ele>118.9</ele>
        <time>2023-07-14T08:30:29Z</time>
      </trkpt>
      <trkpt lat="44.77793" lon="0.50357">
        <ele>118.9</ele>
        <time>2023-07-14T08:30:30Z</time>
      </trkpt>
      <trkpt lat="44.77795" lon="0.50355">
        <ele>118.8</ele>
        <time>2023-07-14T08:30:31Z</time>
      </trkpt>
      <trkpt lat="44.77799" lon="0.50354">
        <ele>118.7</ele>
        <time>2023-07-14T08:30:33Z</time>
      </trkpt>
      <trkpt lat="44.77803" lon="0.50355">
        <ele>118.5</ele>
        <time>2023-07-14T08:30:35Z</time>
      </trkpt>
      <trkpt lat="44.77807" lon="0.50357">
        <ele>118.4</ele>
        <time>2023-07-14T08:30:37Z</time>
      </trkpt>
      <trkpt lat="44.77813" lon="0.50356">
        <ele>118.3</ele>
        <time>2023-07-14T08:30:39Z</time>
      </trkpt>
      <trkpt lat="44.77815" lon="0.50354">
        <ele>118.3</ele>
        <time>2023-07-14T08:30:40Z</time>
      </trkpt>
      <trkpt lat="44.77818" lon="0.50353">
        <ele>118.3</ele>
        <time>2023-07-14T08:30:41Z</time>
      </trkpt>
      <trkpt lat="44.77824" lon="0.5035">
        <ele>118.4</ele>
        <time>2023-07-14T08:30:43Z</time>
      </trkpt>
      <trkpt lat="44.7783" lon="0.50347">
        <ele>118.5</ele>
        <time>2023-07-14T08:30:45Z</time>
      </trkpt>
      <trkpt lat="44.77832" lon="0.50347">
        <ele>118.6</ele>
        <time>2023-07-14T08:30:46Z</time>
      </trkpt>
      <trkpt lat="44.77835" lon="0.50346">
        <ele>118.7</ele>
        <time>2023-07-14T08:30:47Z</time>
      </trkpt>
      <trkpt lat="44.77838" lon="0.50346">
        <ele>118.8</ele>
        <time>2023-07-14T08:30:49Z</time>
      </trkpt>
      <trkpt lat="44.7784" lon="0.50347">
        <ele>118.9</ele>
        <time>2023-07-14T08:30:51Z</time>
      </trkpt>
      <trkpt lat="44.77844" lon="0.50339">
        <ele>119.3</ele>
        <time>2023-07-14T08:30:53Z</time>
      </trkpt>
      <trkpt lat="44.77848" lon="0.50335">
        <ele>119.7</ele>
        <time>2023-07-14T08:30:55Z</time>
      </trkpt>
      <trkpt lat="44.77851" lon="0.50334">
        <ele>119.9</ele>
        <time>2023-07-14T08:30:56Z</time>
      </trkpt>
      <trkpt lat="44.77856" lon="0.50333">
        <ele>120.2</ele>
        <time>2023-07-14T08:30:57Z</time>
      </trkpt>
      <trkpt lat="44.7786" lon="0.50333">
        <ele>120.5</ele>
        <time>2023-07-14T08:30:58Z</time>
      </trkpt>
      <trkpt lat="44.77864" lon="0.50332">
        <ele>120.9</ele>
        <time>2023-07-14T08:30:59Z</time>
      </trkpt>
      <trkpt lat="44.77867" lon="0.50332">
        <ele>121.1</ele>
        <time>2023-07-14T08:31:00Z</time>
      </trkpt>
      <trkpt lat="44.7787" lon="0.50331">
        <ele>121.3</ele>
        <time>2023-07-14T08:31:01Z</time>
      </trkpt>
      <trkpt lat="44.77872" lon="0.50329">
        <ele>121.5</ele>
        <time>2023-07-14T08:31:02Z</time>
      </trkpt>
      <trkpt lat="44.77874" lon="0.50327">
        <ele>121.7</ele>
        <time>2023-07-14T08:31:03Z</time>
      </trkpt>
      <trkpt lat="44.77876" lon="0.50325">
        <ele>121.9</ele>
        <time>2023-07-14T08:31:04Z</time>
      </trkpt>
      <trkpt lat="44.77877" lon="0.50324">
        <ele>122</ele>
        <time>2023-07-14T08:31:05Z</time>
      </trkpt>
      <trkpt lat="44.77878" lon="0.50322">
        <ele>122.1</ele>
        <time>2023-07-14T08:31:06Z</time>
      </trkpt>
      <trkpt lat="44.77881" lon="0.5032">
        <ele>122.4</ele>
        <time>2023-07-14T08:31:07Z</time>
      </trkpt>
      <trkpt lat="44.77883" lon="0.50319">
        <ele>122.6</ele>
        <time>2023-07-14T08:31:08Z</time>
      </trkpt>
      <trkpt lat="44.77884" lon="0.50318">
        <ele>122.7</ele>
        <time>2023-07-14T08:31:09Z</time>
      </trkpt>
      <trkpt lat="44.77887" lon="0.50315">
        <ele>122.9</ele>
        <time>2023-07-14T08:31:11Z</time>
      </trkpt>
      <trkpt lat="44.77889" lon="0.50313">
        <ele>123</ele>
        <time>2023-07-14T08:31:12Z</time>
      </trkpt>
      <trkpt lat="44.77891" lon="0.50311">
        <ele>123.2</ele>
        <time>2023-07-14T08:31:13Z</time>
      </trkpt>
      <trkpt lat="44.77893" lon="0.50311">
        <ele>123.3</ele>
        <time>2023-07-14T08:31:14Z</time>
      </trkpt>
      <trkpt lat="44.77896" lon="0.50311">
        <ele>123.4</ele>
        <time>2023-07-14T08:31:15Z</time>
      </trkpt>
      <trkpt lat="44.779" lon="0.50314">
        <ele>123.5</ele>
        <time>2023-07-14T08:31:17Z</time>
      </trkpt>
      <trkpt lat="44.77902" lon="0.50318">
        <ele>123.5</ele>
        <time>2023-07-14T08:31:18Z</time>
      </trkpt>
      <trkpt lat="44.77903" lon="0.50321">
        <ele>123.6</ele>
        <time>2023-07-14T08:31:19Z</time>
      </trkpt>
      <trkpt lat="44.77908" lon="0.50327">
        <ele>123.6</ele>
        <time>2023-07-14T08:31:21Z</time>
      </trkpt>
      <trkpt lat="44.7791" lon="0.50329">
        <ele>123.7</ele>
        <time>2023-07-14T08:31:22Z</time>
      </trkpt>
      <trkpt lat="44.77913" lon="0.50331">
        <ele>123.7</ele>
        <time>2023-07-14T08:31:23Z</time>
      </trkpt>
      <trkpt lat="44.77915" lon="0.50332">
        <ele>123.7</ele>
        <time>2023-07-14T08:31:24Z</time>
      </trkpt>
      <trkpt lat="44.77917" lon="0.50334">
        <ele>123.7</ele>
        <time>2023-07-14T08:31:25Z</time>
      </trkpt>
      <trkpt lat="44.77922" lon="0.50339">
        <ele>123.8</ele>
        <time>2023-07-14T08:31:27Z</time>
      </trkpt>
      <trkpt lat="44.77927" lon="0.50344">
        <ele>123.8</ele>
        <time>2023-07-14T08:31:29Z</time>
      </trkpt>
      <trkpt lat="44.77932" lon="0.50348">
        <ele>123.9</ele>
        <time>2023-07-14T08:31:31Z</time>
      </trkpt>
      <trkpt lat="44.77938" lon="0.50353">
        <ele>124</ele>
        <time>2023-07-14T08:31:33Z</time>
      </trkpt>
      <trkpt lat="44.77943" lon="0.50359">
        <ele>124.1</ele>
        <time>2023-07-14T08:31:35Z</time>
      </trkpt>
      <trkpt lat="44.77949" lon="0.50365">
        <ele>124.3</ele>
        <time>2023-07-14T08:31:37Z</time>
      </trkpt>
      <trkpt lat="44.77954" lon="0.5037">
        <ele>124.5</ele>
        <time>2023-07-14T08:31:39Z</time>
      </trkpt>
      <trkpt lat="44.77957" lon="0.50372">
        <ele>124.7</ele>
        <time>2023-07-14T08:31:40Z</time>
      </trkpt>
      <trkpt lat="44.77959" lon="0.50374">
        <ele>124.8</ele>
        <time>2023-07-14T08:31:41Z</time>
      </trkpt>
      <trkpt lat="44.77961" lon="0.50375">
        <ele>124.9</ele>
        <time>2023-07-14T08:31:42Z</time>
      </trkpt>
      <trkpt lat="44.77966" lon="0.50376">
        <ele>125.1</ele>
        <time>2023-07-14T08:31:43Z</time>
      </trkpt>
      <trkpt lat="44.77972" lon="0.50375">
        <ele>125.5</ele>
        <time>2023-07-14T08:31:45Z</time>
      </trkpt>
      <trkpt lat="44.77979" lon="0.50374">
        <ele>125.9</ele>
        <time>2023-07-14T08:31:47Z</time>
      </trkpt>
      <trkpt lat="44.77982" lon="0.50373">
        <ele>126.1</ele>
        <time>2023-07-14T08:31:48Z</time>
      </trkpt>
      <trkpt lat="44.77984" lon="0.50372">
        <ele>126.2</ele>
        <time>2023-07-14T08:31:49Z</time>
      </trkpt>
      <trkpt lat="44.77988" lon="0.5037">
        <ele>126.5</ele>
        <time>2023-07-14T08:31:51Z</time>
      </trkpt>
      <trkpt lat="44.77993" lon="0.50368">
        <ele>126.8</ele>
        <time>2023-07-14T08:31:53Z</time>
      </trkpt>
      <trkpt lat="44.77997" lon="0.50365">
        <ele>127.2</ele>
        <time>2023-07-14T08:31:55Z</time>
      </trkpt>
      <trkpt lat="44.78002" lon="0.50363">
        <ele>127.5</ele>
        <time>2023-07-14T08:31:57Z</time>
      </trkpt>
      <trkpt lat="44.78004" lon="0.50362">
        <ele>127.7</ele>
        <time>2023-07-14T08:31:58Z</time>
      </trkpt>
      <trkpt lat="44.78006" lon="0.50359">
        <ele>127.9</ele>
        <time>2023-07-14T08:31:59Z</time>
      </trkpt>
      <trkpt lat="44.7801" lon="0.50354">
        <ele>128.4</ele>
        <time>2023-07-14T08:32:01Z</time>
      </trkpt>
      <trkpt lat="44.78013" lon="0.5035">
        <ele>128.7</ele>
        <time>2023-07-14T08:32:03Z</time>
      </trkpt>
      <trkpt lat="44.78016" lon="0.50345">
        <ele>129.1</ele>
        <time>2023-07-14T08:32:05Z</time>
      </trkpt>
      <trkpt lat="44.7802" lon="0.50341">
        <ele>129.6</ele>
        <time>2023-07-14T08:32:07Z</time>
      </trkpt>
      <trkpt lat="44.78022" lon="0.50339">
        <ele>129.8</ele>
        <time>2023-07-14T08:32:08Z</time>
      </trkpt>
      <trkpt lat="44.78024" lon="0.50338">
        <ele>129.9</ele>
        <time>2023-07-14T08:32:09Z</time>
      </trkpt>
      <trkpt lat="44.78027" lon="0.50335">
        <ele>130.3</ele>
        <time>2023-07-14T08:32:11Z</time>
      </trkpt>
      <trkpt lat="44.78031" lon="0.50333">
        <ele>130.7</ele>
        <time>2023-07-14T08:32:13Z</time>
      </trkpt>
      <trkpt lat="44.78035" lon="0.50331">
        <ele>131.1</ele>
        <time>2023-07-14T08:32:15Z</time>
      </trkpt>
      <trkpt lat="44.78038" lon="0.50331">
        <ele>131.4</ele>
        <time>2023-07-14T08:32:17Z</time>
      </trkpt>
      <trkpt lat="44.78042" lon="0.50331">
        <ele>131.8</ele>
        <time>2023-07-14T08:32:19Z</time>
      </trkpt>
      <trkpt lat="44.78046" lon="0.50334">
        <ele>132.1</ele>
        <time>2023-07-14T08:32:21Z</time>
      </trkpt>
      <trkpt lat="44.78049" lon="0.50336">
        <ele>132.4</ele>
        <time>2023-07-14T08:32:23Z</time>
      </trkpt>
      <trkpt lat="44.78053" lon="0.50339">
        <ele>132.6</ele>
        <time>2023-07-14T08:32:25Z</time>
      </trkpt>
      <trkpt lat="44.78057" lon="0.50343">
        <ele>132.9</ele>
        <time>2023-07-14T08:32:27Z</time>
      </trkpt>
      <trkpt lat="44.78061" lon="0.50346">
        <ele>133.1</ele>
        <time>2023-07-14T08:32:29Z</time>
      </trkpt>
      <trkpt lat="44.78063" lon="0.50348">
        <ele>133.2</ele>
        <time>2023-07-14T08:32:30Z</time>
      </trkpt>
      <trkpt lat="44.78065" lon="0.5035">
        <ele>133.3</ele>
        <time>2023-07-14T08:32:31Z</time>
      </trkpt>
      <trkpt lat="44.78069" lon="0.50353">
        <ele>133.5</ele>
        <time>2023-07-14T08:32:33Z</time>
      </trkpt>
      <trkpt lat="44.78074" lon="0.50356">
        <ele>133.7</ele>
        <time>2023-07-14T08:32:35Z</time>
      </trkpt>
      <trkpt lat="44.78079" lon="0.50359">
        <ele>133.8</ele>
        <time>2023-07-14T08:32:37Z</time>
      </trkpt>
      <trkpt lat="44.78081" lon="0.50361">
        <ele>133.9</ele>
        <time>2023-07-14T08:32:38Z</time>
      </trkpt>
      <trkpt lat="44.78084" lon="0.50362">
        <ele>134</ele>
        <time>2023-07-14T08:32:39Z</time>
      </trkpt>
      <trkpt lat="44.78089" lon="0.50365">
        <ele>134.1</ele>
        <time>2023-07-14T08:32:41Z</time>
      </trkpt>
      <trkpt lat="44.78094" lon="0.50368">
        <ele>134.2</ele>
        <time>2023-07-14T08:32:43Z</time>
      </trkpt>
      <trkpt lat="44.78099" lon="0.50371">
        <ele>134.3</ele>
        <time>2023-07-14T08:32:45Z</time>
      </trkpt>
      <trkpt lat="44.78105" lon="0.50375">
        <ele>134.3</ele>
        <time>2023-07-14T08:32:47Z</time>
      </trkpt>
      <trkpt lat="44.7811" lon="0.50378">
        <ele>134.3</ele>
        <time>2023-07-14T08:32:49Z</time>
      </trkpt>
      <trkpt lat="44.78115" lon="0.50381">
        <ele>134.4</ele>
        <time>2023-07-14T08:32:51Z</time>
      </trkpt>
      <trkpt lat="44.78118" lon="0.50382">
        <ele>134.4</ele>
        <time>2023-07-14T08:32:52Z</time>
      </trkpt>
      <trkpt lat="44.78122" lon="0.50382">
        <ele>134.4</ele>
        <time>2023-07-14T08:32:53Z</time>
      </trkpt>
      <trkpt lat="44.78129" lon="0.50383">
        <ele>134.5</ele>
        <time>2023-07-14T08:32:55Z</time>
      </trkpt>
      <trkpt lat="44.78136" lon="0.50383">
        <ele>134.6</ele>
        <time>2023-07-14T08:32:57Z</time>
      </trkpt>
      <trkpt lat="44.78143" lon="0.50384">
        <ele>134.7</ele>
        <time>2023-07-14T08:32:59Z</time>
      </trkpt>
      <trkpt lat="44.7815" lon="0.50385">
        <ele>134.8</ele>
        <time>2023-07-14T08:33:01Z</time>
      </trkpt>
      <trkpt lat="44.78154" lon="0.50385">
        <ele>134.9</ele>
        <time>2023-07-14T08:33:02Z</time>
      </trkpt>
      <trkpt lat="44.78158" lon="0.50386">
        <ele>134.9</ele>
        <time>2023-07-14T08:33:03Z</time>
      </trkpt>
      <trkpt lat="44.78165" lon="0.50387">
        <ele>135.1</ele>
        <time>2023-07-14T08:33:05Z</time>
      </trkpt>
      <trkpt lat="44.78172" lon="0.50388">
        <ele>135.2</ele>
        <time>2023-07-14T08:33:07Z</time>
      </trkpt>
      <trkpt lat="44.78179" lon="0.5039">
        <ele>135.3</ele>
        <time>2023-07-14T08:33:09Z</time>
      </trkpt>
      <trkpt lat="44.78183" lon="0.5039">
        <ele>135.4</ele>
        <time>2023-07-14T08:33:10Z</time>
      </trkpt>
      <trkpt lat="44.78186" lon="0.50391">
        <ele>135.5</ele>
        <time>2023-07-14T08:33:11Z</time>
      </trkpt>
      <trkpt lat="44.78194" lon="0.5039">
        <ele>135.6</ele>
        <time>2023-07-14T08:33:13Z</time>
      </trkpt>
      <trkpt lat="44.78202" lon="0.5039">
        <ele>135.8</ele>
        <time>2023-07-14T08:33:15Z</time>
      </trkpt>
      <trkpt lat="44.78206" lon="0.5039">
        <ele>135.9</ele>
        <time>2023-07-14T08:33:16Z</time>
      </trkpt>
      <trkpt lat="44.78209" lon="0.50389">
        <ele>136</ele>
        <time>2023-07-14T08:33:17Z</time>
      </trkpt>
      <trkpt lat="44.78217" lon="0.50387">
        <ele>136.3</ele>
        <time>2023-07-14T08:33:19Z</time>
      </trkpt>
      <trkpt lat="44.78224" lon="0.50386">
        <ele>136.5</ele>
        <time>2023-07-14T08:33:21Z</time>
      </trkpt>
      <trkpt lat="44.78227" lon="0.50385">
        <ele>136.7</ele>
        <time>2023-07-14T08:33:22Z</time>
      </trkpt>
      <trkpt lat="44.7823" lon="0.50383">
        <ele>136.8</ele>
        <time>2023-07-14T08:33:23Z</time>
      </trkpt>
      <trkpt lat="44.78236" lon="0.50381">
        <ele>137.1</ele>
        <time>2023-07-14T08:33:25Z</time>
      </trkpt>
      <trkpt lat="44.78242" lon="0.50378">
        <ele>137.4</ele>
        <time>2023-07-14T08:33:27Z</time>
      </trkpt>
      <trkpt lat="44.78248" lon="0.50375">
        <ele>137.7</ele>
        <time>2023-07-14T08:33:29Z</time>
      </trkpt>
      <trkpt lat="44.78254" lon="0.50372">
        <ele>138</ele>
        <time>2023-07-14T08:33:31Z</time>
      </trkpt>
      <trkpt lat="44.7826" lon="0.5037">
        <ele>138.3</ele>
        <time>2023-07-14T08:33:33Z</time>
      </trkpt>
      <trkpt lat="44.78266" lon="0.50367">
        <ele>138.5</ele>
        <time>2023-07-14T08:33:35Z</time>
      </trkpt>
      <trkpt lat="44.78272" lon="0.50365">
        <ele>138.7</ele>
        <time>2023-07-14T08:33:37Z</time>
      </trkpt>
      <trkpt lat="44.78278" lon="0.50364">
        <ele>138.8</ele>
        <time>2023-07-14T08:33:39Z</time>
      </trkpt>
      <trkpt lat="44.78281" lon="0.50363">
        <ele>138.9</ele>
        <time>2023-07-14T08:33:40Z</time>
      </trkpt>
      <trkpt lat="44.78285" lon="0.50362">
        <ele>139</ele>
        <time>2023-07-14T08:33:41Z</time>
      </trkpt>
      <trkpt lat="44.78291" lon="0.50359">
        <ele>139.2</ele>
        <time>2023-07-14T08:33:43Z</time>
      </trkpt>
      <trkpt lat="44.78297" lon="0.50356">
        <ele>139.4</ele>
        <time>2023-07-14T08:33:45Z</time>
      </trkpt>
      <trkpt lat="44.78303" lon="0.50352">
        <ele>139.6</ele>
        <time>2023-07-14T08:33:47Z</time>
      </trkpt>
      <trkpt lat="44.78308" lon="0.50349">
        <ele>139.8</ele>
        <time>2023-07-14T08:33:49Z</time>
      </trkpt>
      <trkpt lat="44.78314" lon="0.50345">
        <ele>140.2</ele>
        <time>2023-07-14T08:33:51Z</time>
      </trkpt>
      <trkpt lat="44.7832" lon="0.50343">
        <ele>140.5</ele>
        <time>2023-07-14T08:33:53Z</time>
      </trkpt>
      <trkpt lat="44.78327" lon="0.5034">
        <ele>140.9</ele>
        <time>2023-07-14T08:33:55Z</time>
      </trkpt>
      <trkpt lat="44.78333" lon="0.50337">
        <ele>141.3</ele>
        <time>2023-07-14T08:33:57Z</time>
      </trkpt>
      <trkpt lat="44.78338" lon="0.50335">
        <ele>141.7</ele>
        <time>2023-07-14T08:33:59Z</time>
      </trkpt>
      <trkpt lat="44.78344" lon="0.50333">
        <ele>142</ele>
        <time>2023-07-14T08:34:01Z</time>
      </trkpt>
      <trkpt lat="44.7835" lon="0.5033">
        <ele>142.4</ele>
        <time>2023-07-14T08:34:03Z</time>
      </trkpt>
      <trkpt lat="44.78355" lon="0.50326">
        <ele>142.8</ele>
        <time>2023-07-14T08:34:05Z</time>
      </trkpt>
      <trkpt lat="44.78357" lon="0.50325">
        <ele>143</ele>
        <time>2023-07-14T08:34:06Z</time>
      </trkpt>
      <trkpt lat="44.78359" lon="0.50323">
        <ele>143.2</ele>
        <time>2023-07-14T08:34:07Z</time>
      </trkpt>
      <trkpt lat="44.78363" lon="0.50321">
        <ele>143.5</ele>
        <time>2023-07-14T08:34:09Z</time>
      </trkpt>
      <trkpt lat="44.78366" lon="0.50319">
        <ele>143.8</ele>
        <time>2023-07-14T08:34:11Z</time>
      </trkpt>
      <trkpt lat="44.7837" lon="0.50317">
        <ele>144.1</ele>
        <time>2023-07-14T08:34:13Z</time>
      </trkpt>
      <trkpt lat="44.78372" lon="0.50314">
        <ele>144.4</ele>
        <time>2023-07-14T08:34:15Z</time>
      </trkpt>
      <trkpt lat="44.78375" lon="0.50313">
        <ele>144.7</ele>
        <time>2023-07-14T08:34:16Z</time>
      </trkpt>
      <trkpt lat="44.78378" lon="0.50312">
        <ele>145</ele>
        <time>2023-07-14T08:34:17Z</time>
      </trkpt>
      <trkpt lat="44.7838" lon="0.5031">
        <ele>145.3</ele>
        <time>2023-07-14T08:34:18Z</time>
      </trkpt>
      <trkpt lat="44.78382" lon="0.50308">
        <ele>145.5</ele>
        <time>2023-07-14T08:34:19Z</time>
      </trkpt>
      <trkpt lat="44.78383" lon="0.50306">
        <ele>145.8</ele>
        <time>2023-07-14T08:34:20Z</time>
      </trkpt>
      <trkpt lat="44.78385" lon="0.50304">
        <ele>146</ele>
        <time>2023-07-14T08:34:21Z</time>
      </trkpt>
      <trkpt lat="44.78388" lon="0.50301">
        <ele>146.5</ele>
        <time>2023-07-14T08:34:23Z</time>
      </trkpt>
      <trkpt lat="44.78391" lon="0.503">
        <ele>147</ele>
        <time>2023-07-14T08:34:25Z</time>
      </trkpt>
      <trkpt lat="44.78393" lon="0.50299">
        <ele>147.2</ele>
        <time>2023-07-14T08:34:26Z</time>
      </trkpt>
      <trkpt lat="44.78394" lon="0.50298">
        <ele>147.4</ele>
        <time>2023-07-14T08:34:27Z</time>
      </trkpt>
      <trkpt lat="44.78397" lon="0.50294">
        <ele>147.9</ele>
        <time>2023-07-14T08:34:29Z</time>
      </trkpt>
      <trkpt lat="44.78398" lon="0.50292">
        <ele>148.2</ele>
        <time>2023-07-14T08:34:30Z</time>
      </trkpt>
      <trkpt lat="44.78399" lon="0.5029">
        <ele>148.5</ele>
        <time>2023-07-14T08:34:31Z</time>
      </trkpt>
      <trkpt lat="44.784" lon="0.50288">
        <ele>148.8</ele>
        <time>2023-07-14T08:34:32Z</time>
      </trkpt>
      <trkpt lat="44.78402" lon="0.50286">
        <ele>149</ele>
        <time>2023-07-14T08:34:33Z</time>
      </trkpt>
      <trkpt lat="44.78404" lon="0.50283">
        <ele>149.5</ele>
        <time>2023-07-14T08:34:35Z</time>
      </trkpt>
      <trkpt lat="44.78405" lon="0.50282">
        <ele>149.7</ele>
        <time>2023-07-14T08:34:36Z</time>
      </trkpt>
      <trkpt lat="44.78407" lon="0.50281">
        <ele>150</ele>
        <time>2023-07-14T08:34:37Z</time>
      </trkpt>
      <trkpt lat="44.7841" lon="0.5028">
        <ele>150.5</ele>
        <time>2023-07-14T08:34:39Z</time>
      </trkpt>
      <trkpt lat="44.78413" lon="0.50278">
        <ele>150.9</ele>
        <time>2023-07-14T08:34:41Z</time>
      </trkpt>
      <trkpt lat="44.78414" lon="0.50277">
        <ele>151</ele>
        <time>2023-07-14T08:34:42Z</time>
      </trkpt>
      <trkpt lat="44.78415" lon="0.50276">
        <ele>151.2</ele>
        <time>2023-07-14T08:34:43Z</time>
      </trkpt>
      <trkpt lat="44.78417" lon="0.50274">
        <ele>151.5</ele>
        <time>2023-07-14T08:34:45Z</time>
      </trkpt>
      <trkpt lat="44.78419" lon="0.50273">
        <ele>151.8</ele>
        <time>2023-07-14T08:34:46Z</time>
      </trkpt>
      <trkpt lat="44.7842" lon="0.50272">
        <ele>152</ele>
        <time>2023-07-14T08:34:47Z</time>
      </trkpt>
      <trkpt lat="44.78423" lon="0.50268">
        <ele>152.4</ele>
        <time>2023-07-14T08:34:49Z</time>
      </trkpt>
      <trkpt lat="44.78426" lon="0.50263">
        <ele>152.9</ele>
        <time>2023-07-14T08:34:51Z</time>
      </trkpt>
      <trkpt lat="44.78428" lon="0.50261">
        <ele>153.2</ele>
        <time>2023-07-14T08:34:52Z</time>
      </trkpt>
      <trkpt lat="44.7843" lon="0.50259">
        <ele>153.5</ele>
        <time>2023-07-14T08:34:53Z</time>
      </trkpt>
      <trkpt lat="44.78433" lon="0.50256">
        <ele>153.9</ele>
        <time>2023-07-14T08:34:55Z</time>
      </trkpt>
      <trkpt lat="44.78435" lon="0.50254">
        <ele>154.2</ele>
        <time>2023-07-14T08:34:57Z</time>
      </trkpt>
      <trkpt lat="44.78438" lon="0.50252">
        <ele>154.6</ele>
        <time>2023-07-14T08:34:59Z</time>
      </trkpt>
      <trkpt lat="44.78439" lon="0.50251">
        <ele>154.8</ele>
        <time>2023-07-14T08:35:00Z</time>
      </trkpt>
      <trkpt lat="44.78441" lon="0.50249">
        <ele>155</ele>
        <time>2023-07-14T08:35:01Z</time>
      </trkpt>
      <trkpt lat="44.78442" lon="0.50247">
        <ele>155.3</ele>
        <time>2023-07-14T08:35:02Z</time>
      </trkpt>
      <trkpt lat="44.78443" lon="0.50246">
        <ele>155.5</ele>
        <time>2023-07-14T08:35:03Z</time>
      </trkpt>
      <trkpt lat="44.78446" lon="0.50244">
        <ele>155.9</ele>
        <time>2023-07-14T08:35:05Z</time>
      </trkpt>
      <trkpt lat="44.78449" lon="0.50242">
        <ele>156.3</ele>
        <time>2023-07-14T08:35:07Z</time>
      </trkpt>
      <trkpt lat="44.7845" lon="0.50242">
        <ele>156.5</ele>
        <time>2023-07-14T08:35:08Z</time>
      </trkpt>
      <trkpt lat="44.78452" lon="0.5024">
        <ele>156.8</ele>
        <time>2023-07-14T08:35:09Z</time>
      </trkpt>
      <trkpt lat="44.78455" lon="0.50236">
        <ele>157.3</ele>
        <time>2023-07-14T08:35:11Z</time>
      </trkpt>
      <trkpt lat="44.78457" lon="0.50234">
        <ele>157.6</ele>
        <time>2023-07-14T08:35:12Z</time>
      </trkpt>
      <trkpt lat="44.78457" lon="0.50233">
        <ele>157.7</ele>
        <time>2023-07-14T08:35:13Z</time>
      </trkpt>
      <trkpt lat="44.7846" lon="0.50229">
        <ele>158.1</ele>
        <time>2023-07-14T08:35:15Z</time>
      </trkpt>
      <trkpt lat="44.78462" lon="0.50226">
        <ele>158.5</ele>
        <time>2023-07-14T08:35:17Z</time>
      </trkpt>
      <trkpt lat="44.78465" lon="0.50223">
        <ele>158.9</ele>
        <time>2023-07-14T08:35:19Z</time>
      </trkpt>
      <trkpt lat="44.78465" lon="0.50218">
        <ele>159.3</ele>
        <time>2023-07-14T08:35:21Z</time>
      </trkpt>
      <trkpt lat="44.78464" lon="0.50214">
        <ele>159.6</ele>
        <time>2023-07-14T08:35:23Z</time>
      </trkpt>
      <trkpt lat="44.78464" lon="0.50212">
        <ele>159.8</ele>
        <time>2023-07-14T08:35:24Z</time>
      </trkpt>
      <trkpt lat="44.78463" lon="0.50209">
        <ele>160</ele>
        <time>2023-07-14T08:35:25Z</time>
      </trkpt>
      <trkpt lat="44.78461" lon="0.50205">
        <ele>160.3</ele>
        <time>2023-07-14T08:35:27Z</time>
      </trkpt>
      <trkpt lat="44.7846" lon="0.50203">
        <ele>160.4</ele>
        <time>2023-07-14T08:35:28Z</time>
      </trkpt>
      <trkpt lat="44.78459" lon="0.50202">
        <ele>160.5</ele>
        <time>2023-07-14T08:35:29Z</time>
      </trkpt>
      <trkpt lat="44.78458" lon="0.502">
        <ele>160.7</ele>
        <time>2023-07-14T08:35:30Z</time>
      </trkpt>
      <trkpt lat="44.78456" lon="0.50199">
        <ele>160.8</ele>
        <time>2023-07-14T08:35:31Z</time>
      </trkpt>
      <trkpt lat="44.78454" lon="0.50194">
        <ele>161.1</ele>
        <time>2023-07-14T08:35:33Z</time>
      </trkpt>
      <trkpt lat="44.78452" lon="0.50189">
        <ele>161.4</ele>
        <time>2023-07-14T08:35:35Z</time>
      </trkpt>
      <trkpt lat="44.78452" lon="0.50187">
        <ele>161.5</ele>
        <time>2023-07-14T08:35:36Z</time>
      </trkpt>
      <trkpt lat="44.78453" lon="0.50185">
        <ele>161.6</ele>
        <time>2023-07-14T08:35:37Z</time>
      </trkpt>
      <trkpt lat="44.78455" lon="0.50183">
        <ele>161.7</ele>
        <time>2023-07-14T08:35:38Z</time>
      </trkpt>
      <trkpt lat="44.78457" lon="0.50182">
        <ele>161.9</ele>
        <time>2023-07-14T08:35:39Z</time>
      </trkpt>
      <trkpt lat="44.78459" lon="0.50182">
        <ele>162</ele>
        <time>2023-07-14T08:35:40Z</time>
      </trkpt>
      <trkpt lat="44.78461" lon="0.50182">
        <ele>162.1</ele>
        <time>2023-07-14T08:35:41Z</time>
      </trkpt>
      <trkpt lat="44.78465" lon="0.50181">
        <ele>162.3</ele>
        <time>2023-07-14T08:35:43Z</time>
      </trkpt>
      <trkpt lat="44.7847" lon="0.50181">
        <ele>162.5</ele>
        <time>2023-07-14T08:35:45Z</time>
      </trkpt>
      <trkpt lat="44.78474" lon="0.50181">
        <ele>162.6</ele>
        <time>2023-07-14T08:35:47Z</time>
      </trkpt>
      <trkpt lat="44.78476" lon="0.50182">
        <ele>162.7</ele>
        <time>2023-07-14T08:35:48Z</time>
      </trkpt>
      <trkpt lat="44.78478" lon="0.50182">
        <ele>162.8</ele>
        <time>2023-07-14T08:35:49Z</time>
      </trkpt>
      <trkpt lat="44.78482" lon="0.50183">
        <ele>162.9</ele>
        <time>2023-07-14T08:35:51Z</time>
      </trkpt>
      <trkpt lat="44.78487" lon="0.50183">
        <ele>163.1</ele>
        <time>2023-07-14T08:35:53Z</time>
      </trkpt>
      <trkpt lat="44.78492" lon="0.50181">
        <ele>163.3</ele>
        <time>2023-07-14T08:35:55Z</time>
      </trkpt>
      <trkpt lat="44.78496" lon="0.5018">
        <ele>163.5</ele>
        <time>2023-07-14T08:35:57Z</time>
      </trkpt>
      <trkpt lat="44.78501" lon="0.50181">
        <ele>163.6</ele>
        <time>2023-07-14T08:35:59Z</time>
      </trkpt>
      <trkpt lat="44.78503" lon="0.50181">
        <ele>163.7</ele>
        <time>2023-07-14T08:36:00Z</time>
      </trkpt>
      <trkpt lat="44.78506" lon="0.50182">
        <ele>163.8</ele>
        <time>2023-07-14T08:36:01Z</time>
      </trkpt>
      <trkpt lat="44.78509" lon="0.50183">
        <ele>163.9</ele>
        <time>2023-07-14T08:36:03Z</time>
      </trkpt>
      <trkpt lat="44.78512" lon="0.50183">
        <ele>164</ele>
        <time>2023-07-14T08:36:04Z</time>
      </trkpt>
      <trkpt lat="44.78514" lon="0.50183">
        <ele>164.1</ele>
        <time>2023-07-14T08:36:05Z</time>
      </trkpt>
      <trkpt lat="44.78519" lon="0.50183">
        <ele>164.2</ele>
        <time>2023-07-14T08:36:07Z</time>
      </trkpt>
      <trkpt lat="44.78524" lon="0.50184">
        <ele>164.4</ele>
        <time>2023-07-14T08:36:09Z</time>
      </trkpt>
      <trkpt lat="44.78527" lon="0.50184">
        <ele>164.5</ele>
        <time>2023-07-14T08:36:10Z</time>
      </trkpt>
      <trkpt lat="44.78529" lon="0.50185">
        <ele>164.6</ele>
        <time>2023-07-14T08:36:11Z</time>
      </trkpt>
      <trkpt lat="44.78535" lon="0.50185">
        <ele>164.8</ele>
        <time>2023-07-14T08:36:13Z</time>
      </trkpt>
      <trkpt lat="44.78541" lon="0.50185">
        <ele>165</ele>
        <time>2023-07-14T08:36:15Z</time>
      </trkpt>
      <trkpt lat="44.78543" lon="0.50185">
        <ele>165.1</ele>
        <time>2023-07-14T08:36:16Z</time>
      </trkpt>
      <trkpt lat="44.78546" lon="0.50185">
        <ele>165.2</ele>
        <time>2023-07-14T08:36:17Z</time>
      </trkpt>
      <trkpt lat="44.78551" lon="0.50185">
        <ele>165.4</ele>
        <time>2023-07-14T08:36:19Z</time>
      </trkpt>
      <trkpt lat="44.78557" lon="0.50186">
        <ele>165.6</ele>
        <time>2023-07-14T08:36:21Z</time>
      </trkpt>
      <trkpt lat="44.78563" lon="0.50187">
        <ele>165.9</ele>
        <time>2023-07-14T08:36:23Z</time>
      </trkpt>
      <trkpt lat="44.78569" lon="0.50187">
        <ele>166.1</ele>
        <time>2023-07-14T08:36:25Z</time>
      </trkpt>
      <trkpt lat="44.78575" lon="0.50187">
        <ele>166.4</ele>
        <time>2023-07-14T08:36:27Z</time>
      </trkpt>
      <trkpt lat="44.78581" lon="0.50187">
        <ele>166.7</ele>
        <time>2023-07-14T08:36:29Z</time>
      </trkpt>
      <trkpt lat="44.78587" lon="0.50187">
        <ele>167</ele>
        <time>2023-07-14T08:36:31Z</time>
      </trkpt>
      <trkpt lat="44.78593" lon="0.50188">
        <ele>167.3</ele>
        <time>2023-07-14T08:36:33Z</time>
      </trkpt>
      <trkpt lat="44.78599" lon="0.50189">
        <ele>167.6</ele>
        <time>2023-07-14T08:36:35Z</time>
      </trkpt>
      <trkpt lat="44.78605" lon="0.5019">
        <ele>168</ele>
        <time>2023-07-14T08:36:37Z</time>
      </trkpt>
      <trkpt lat="44.78608" lon="0.50191">
        <ele>168.1</ele>
        <time>2023-07-14T08:36:38Z</time>
      </trkpt>
      <trkpt lat="44.78611" lon="0.50192">
        <ele>168.3</ele>
        <time>2023-07-14T08:36:39Z</time>
      </trkpt>
      <trkpt lat="44.78618" lon="0.50192">
        <ele>168.6</ele>
        <time>2023-07-14T08:36:41Z</time>
      </trkpt>
      <trkpt lat="44.78624" lon="0.50193">
        <ele>168.9</ele>
        <time>2023-07-14T08:36:43Z</time>
      </trkpt>
      <trkpt lat="44.78626" lon="0.50195">
        <ele>169</ele>
        <time>2023-07-14T08:36:44Z</time>
      </trkpt>
      <trkpt lat="44.78629" lon="0.50196">
        <ele>169.2</ele>
        <time>2023-07-14T08:36:45Z</time>
      </trkpt>
      <trkpt lat="44.78635" lon="0.50198">
        <ele>169.4</ele>
        <time>2023-07-14T08:36:47Z</time>
      </trkpt>
      <trkpt lat="44.78642" lon="0.50199">
        <ele>169.6</ele>
        <time>2023-07-14T08:36:49Z</time>
      </trkpt>
      <trkpt lat="44.78648" lon="0.502">
        <ele>169.7</ele>
        <time>2023-07-14T08:36:51Z</time>
      </trkpt>
      <trkpt lat="44.78651" lon="0.50201">
        <ele>169.7</ele>
        <time>2023-07-14T08:36:52Z</time>
      </trkpt>
      <trkpt lat="44.78655" lon="0.50202">
        <ele>169.8</ele>
        <time>2023-07-14T08:36:53Z</time>
      </trkpt>
      <trkpt lat="44.78661" lon="0.50204">
        <ele>169.9</ele>
        <time>2023-07-14T08:36:55Z</time>
      </trkpt>
      <trkpt lat="44.78667" lon="0.50205">
        <ele>170</ele>
        <time>2023-07-14T08:36:57Z</time>
      </trkpt>
      <trkpt lat="44.78673" lon="0.50207">
        <ele>170.1</ele>
        <time>2023-07-14T08:36:59Z</time>
      </trkpt>
      <trkpt lat="44.78679" lon="0.50209">
        <ele>170.1</ele>
        <time>2023-07-14T08:37:01Z</time>
      </trkpt>
      <trkpt lat="44.78685" lon="0.5021">
        <ele>170.2</ele>
        <time>2023-07-14T08:37:03Z</time>
      </trkpt>
      <trkpt lat="44.78688" lon="0.50211">
        <ele>170.3</ele>
        <time>2023-07-14T08:37:04Z</time>
      </trkpt>
      <trkpt lat="44.78691" lon="0.50212">
        <ele>170.3</ele>
        <time>2023-07-14T08:37:05Z</time>
      </trkpt>
      <trkpt lat="44.78698" lon="0.50214">
        <ele>170.4</ele>
        <time>2023-07-14T08:37:07Z</time>
      </trkpt>
      <trkpt lat="44.78704" lon="0.50215">
        <ele>170.5</ele>
        <time>2023-07-14T08:37:09Z</time>
      </trkpt>
      <trkpt lat="44.7871" lon="0.50216">
        <ele>170.6</ele>
        <time>2023-07-14T08:37:11Z</time>
      </trkpt>
      <trkpt lat="44.78713" lon="0.50216">
        <ele>170.7</ele>
        <time>2023-07-14T08:37:12Z</time>
      </trkpt>
      <trkpt lat="44.78717" lon="0.50217">
        <ele>170.8</ele>
        <time>2023-07-14T08:37:13Z</time>
      </trkpt>
      <trkpt lat="44.78723" lon="0.50217">
        <ele>170.9</ele>
        <time>2023-07-14T08:37:15Z</time>
      </trkpt>
      <trkpt lat="44.78729" lon="0.50219">
        <ele>171</ele>
        <time>2023-07-14T08:37:17Z</time>
      </trkpt>
      <trkpt lat="44.78735" lon="0.5022">
        <ele>171.2</ele>
        <time>2023-07-14T08:37:19Z</time>
      </trkpt>
      <trkpt lat="44.78742" lon="0.50221">
        <ele>171.3</ele>
        <time>2023-07-14T08:37:21Z</time>
      </trkpt>
      <trkpt lat="44.78748" lon="0.50223">
        <ele>171.5</ele>
        <time>2023-07-14T08:37:23Z</time>
      </trkpt>
      <trkpt lat="44.78755" lon="0.50225">
        <ele>171.7</ele>
        <time>2023-07-14T08:37:25Z</time>
      </trkpt>
      <trkpt lat="44.78761" lon="0.50228">
        <ele>171.8</ele>
        <time>2023-07-14T08:37:27Z</time>
      </trkpt>
      <trkpt lat="44.78764" lon="0.5023">
        <ele>171.9</ele>
        <time>2023-07-14T08:37:28Z</time>
      </trkpt>
      <trkpt lat="44.78767" lon="0.50232">
        <ele>171.9</ele>
        <time>2023-07-14T08:37:29Z</time>
      </trkpt>
      <trkpt lat="44.78774" lon="0.50235">
        <ele>172.1</ele>
        <time>2023-07-14T08:37:31Z</time>
      </trkpt>
      <trkpt lat="44.7878" lon="0.50238">
        <ele>172.2</ele>
        <time>2023-07-14T08:37:33Z</time>
      </trkpt>
      <trkpt lat="44.78787" lon="0.50242">
        <ele>172.3</ele>
        <time>2023-07-14T08:37:35Z</time>
      </trkpt>
      <trkpt lat="44.78795" lon="0.50245">
        <ele>172.4</ele>
        <time>2023-07-14T08:37:37Z</time>
      </trkpt>
      <trkpt lat="44.78802" lon="0.50249">
        <ele>172.4</ele>
        <time>2023-07-14T08:37:39Z</time>
      </trkpt>
      <trkpt lat="44.78809" lon="0.50252">
        <ele>172.4</ele>
        <time>2023-07-14T08:37:41Z</time>
      </trkpt>
      <trkpt lat="44.78817" lon="0.50256">
        <ele>172.4</ele>
        <time>2023-07-14T08:37:43Z</time>
      </trkpt>
      <trkpt lat="44.78825" lon="0.50259">
        <ele>172.4</ele>
        <time>2023-07-14T08:37:45Z</time>
      </trkpt>
      <trkpt lat="44.78829" lon="0.50261">
        <ele>172.3</ele>
        <time>2023-07-14T08:37:46Z</time>
      </trkpt>
      <trkpt lat="44.78833" lon="0.50263">
        <ele>172.3</ele>
        <time>2023-07-14T08:37:47Z</time>
      </trkpt>
      <trkpt lat="44.7884" lon="0.50268">
        <ele>172.3</ele>
        <time>2023-07-14T08:37:49Z</time>
      </trkpt>
      <trkpt lat="44.78848" lon="0.50272">
        <ele>172.3</ele>
        <time>2023-07-14T08:37:51Z</time>
      </trkpt>
      <trkpt lat="44.78856" lon="0.50276">
        <ele>172.3</ele>
        <time>2023-07-14T08:37:53Z</time>
      </trkpt>
      <trkpt lat="44.78863" lon="0.5028">
        <ele>172.3</ele>
        <time>2023-07-14T08:37:55Z</time>
      </trkpt>
      <trkpt lat="44.78871" lon="0.50284">
        <ele>172.3</ele>
        <time>2023-07-14T08:37:57Z</time>
      </trkpt>
      <trkpt lat="44.78879" lon="0.50288">
        <ele>172.3</ele>
        <time>2023-07-14T08:37:59Z</time>
      </trkpt>
      <trkpt lat="44.78887" lon="0.50292">
        <ele>172.3</ele>
        <time>2023-07-14T08:38:01Z</time>
      </trkpt>
      <trkpt lat="44.78891" lon="0.50294">
        <ele>172.4</ele>
        <time>2023-07-14T08:38:02Z</time>
      </trkpt>
      <trkpt lat="44.78895" lon="0.50297">
        <ele>172.4</ele>
        <time>2023-07-14T08:38:03Z</time>
      </trkpt>
      <trkpt lat="44.78903" lon="0.50301">
        <ele>172.5</ele>
        <time>2023-07-14T08:38:05Z</time>
      </trkpt>
      <trkpt lat="44.78911" lon="0.50305">
        <ele>172.5</ele>
        <time>2023-07-14T08:38:07Z</time>
      </trkpt>
      <trkpt lat="44.78919" lon="0.5031">
        <ele>172.6</ele>
        <time>2023-07-14T08:38:09Z</time>
      </trkpt>
      <trkpt lat="44.78922" lon="0.50312">
        <ele>172.7</ele>
        <time>2023-07-14T08:38:10Z</time>
      </trkpt>
      <trkpt lat="44.78926" lon="0.50316">
        <ele>172.7</ele>
        <time>2023-07-14T08:38:11Z</time>
      </trkpt>
      <trkpt lat="44.78927" lon="0.5032">
        <ele>172.8</ele>
        <time>2023-07-14T08:38:12Z</time>
      </trkpt>
      <trkpt lat="44.78927" lon="0.50324">
        <ele>172.7</ele>
        <time>2023-07-14T08:38:13Z</time>
      </trkpt>
      <trkpt lat="44.78926" lon="0.50328">
        <ele>172.6</ele>
        <time>2023-07-14T08:38:14Z</time>
      </trkpt>
      <trkpt lat="44.78924" lon="0.50333">
        <ele>172.5</ele>
        <time>2023-07-14T08:38:15Z</time>
      </trkpt>
      <trkpt lat="44.78919" lon="0.50344">
        <ele>172.2</ele>
        <time>2023-07-14T08:38:17Z</time>
      </trkpt>
      <trkpt lat="44.78915" lon="0.50356">
        <ele>171.9</ele>
        <time>2023-07-14T08:38:19Z</time>
      </trkpt>
      <trkpt lat="44.7891" lon="0.50368">
        <ele>171.5</ele>
        <time>2023-07-14T08:38:21Z</time>
      </trkpt>
      <trkpt lat="44.78905" lon="0.50381">
        <ele>171.1</ele>
        <time>2023-07-14T08:38:23Z</time>
      </trkpt>
      <trkpt lat="44.78902" lon="0.50389">
        <ele>170.9</ele>
        <time>2023-07-14T08:38:24Z</time>
      </trkpt>
      <trkpt lat="44.78899" lon="0.50396">
        <ele>170.6</ele>
        <time>2023-07-14T08:38:25Z</time>
      </trkpt>
      <trkpt lat="44.78893" lon="0.50411">
        <ele>170.1</ele>
        <time>2023-07-14T08:38:27Z</time>
      </trkpt>
      <trkpt lat="44.78885" lon="0.50426">
        <ele>169.5</ele>
        <time>2023-07-14T08:38:29Z</time>
      </trkpt>
      <trkpt lat="44.78881" lon="0.50432">
        <ele>169.2</ele>
        <time>2023-07-14T08:38:30Z</time>
      </trkpt>
      <trkpt lat="44.78876" lon="0.50438">
        <ele>168.9</ele>
        <time>2023-07-14T08:38:31Z</time>
      </trkpt>
      <trkpt lat="44.78871" lon="0.50444">
        <ele>168.6</ele>
        <time>2023-07-14T08:38:32Z</time>
      </trkpt>
      <trkpt lat="44.78866" lon="0.50449">
        <ele>168.3</ele>
        <time>2023-07-14T08:38:33Z</time>
      </trkpt>
      <trkpt lat="44.78856" lon="0.5046">
        <ele>167.7</ele>
        <time>2023-07-14T08:38:35Z</time>
      </trkpt>
      <trkpt lat="44.78845" lon="0.50469">
        <ele>167.2</ele>
        <time>2023-07-14T08:38:37Z</time>
      </trkpt>
      <trkpt lat="44.78834" lon="0.50478">
        <ele>166.7</ele>
        <time>2023-07-14T08:38:39Z</time>
      </trkpt>
      <trkpt lat="44.78829" lon="0.50483">
        <ele>166.4</ele>
        <time>2023-07-14T08:38:40Z</time>
      </trkpt>
      <trkpt lat="44.78824" lon="0.50489">
        <ele>166.1</ele>
        <time>2023-07-14T08:38:41Z</time>
      </trkpt>
      <trkpt lat="44.78814" lon="0.50501">
        <ele>165.6</ele>
        <time>2023-07-14T08:38:43Z</time>
      </trkpt>
      <trkpt lat="44.78806" lon="0.50515">
        <ele>165.2</ele>
        <time>2023-07-14T08:38:45Z</time>
      </trkpt>
      <trkpt lat="44.788" lon="0.5053">
        <ele>164.9</ele>
        <time>2023-07-14T08:38:47Z</time>
      </trkpt>
      <trkpt lat="44.78794" lon="0.50546">
        <ele>164.6</ele>
        <time>2023-07-14T08:38:49Z</time>
      </trkpt>
      <trkpt lat="44.78791" lon="0.50554">
        <ele>164.5</ele>
        <time>2023-07-14T08:38:50Z</time>
      </trkpt>
      <trkpt lat="44.78791" lon="0.50562">
        <ele>164.4</ele>
        <time>2023-07-14T08:38:51Z</time>
      </trkpt>
      <trkpt lat="44.78794" lon="0.50569">
        <ele>164.3</ele>
        <time>2023-07-14T08:38:52Z</time>
      </trkpt>
      <trkpt lat="44.78798" lon="0.50574">
        <ele>164.2</ele>
        <time>2023-07-14T08:38:53Z</time>
      </trkpt>
      <trkpt lat="44.78808" lon="0.50582">
        <ele>164.2</ele>
        <time>2023-07-14T08:38:55Z</time>
      </trkpt>
      <trkpt lat="44.78813" lon="0.50585">
        <ele>164.1</ele>
        <time>2023-07-14T08:38:56Z</time>
      </trkpt>
      <trkpt lat="44.78818" lon="0.50589">
        <ele>163.9</ele>
        <time>2023-07-14T08:38:57Z</time>
      </trkpt>
      <trkpt lat="44.78828" lon="0.50598">
        <ele>163.4</ele>
        <time>2023-07-14T08:38:59Z</time>
      </trkpt>
      <trkpt lat="44.78833" lon="0.50601">
        <ele>163.3</ele>
        <time>2023-07-14T08:39:00Z</time>
      </trkpt>
      <trkpt lat="44.78839" lon="0.50601">
        <ele>163.1</ele>
        <time>2023-07-14T08:39:01Z</time>
      </trkpt>
      <trkpt lat="44.78845" lon="0.50599">
        <ele>163</ele>
        <time>2023-07-14T08:39:02Z</time>
      </trkpt>
      <trkpt lat="44.7885" lon="0.50595">
        <ele>163.1</ele>
        <time>2023-07-14T08:39:03Z</time>
      </trkpt>
      <trkpt lat="44.78855" lon="0.5059">
        <ele>163.1</ele>
        <time>2023-07-14T08:39:04Z</time>
      </trkpt>
      <trkpt lat="44.78858" lon="0.50586">
        <ele>163.1</ele>
        <time>2023-07-14T08:39:05Z</time>
      </trkpt>
      <trkpt lat="44.78859" lon="0.50583">
        <ele>163.3</ele>
        <time>2023-07-14T08:39:06Z</time>
      </trkpt>
      <trkpt lat="44.7886" lon="0.50581">
        <ele>163.2</ele>
        <time>2023-07-14T08:39:07Z</time>
      </trkpt>
      <trkpt lat="44.7886" lon="0.50581">
        <ele>163.3</ele>
        <time>2023-07-14T08:39:09Z</time>
      </trkpt>
      <trkpt lat="44.78865" lon="0.50582">
        <ele>163.1</ele>
        <time>2023-07-14T08:43:45Z</time>
      </trkpt>
      <trkpt lat="44.78867" lon="0.50585">
        <ele>162.9</ele>
        <time>2023-07-14T08:43:46Z</time>
      </trkpt>
      <trkpt lat="44.78869" lon="0.5059">
        <ele>162.7</ele>
        <time>2023-07-14T08:43:47Z</time>
      </trkpt>
      <trkpt lat="44.78874" lon="0.50603">
        <ele>162.1</ele>
        <time>2023-07-14T08:43:49Z</time>
      </trkpt>
      <trkpt lat="44.78879" lon="0.50619">
        <ele>161.4</ele>
        <time>2023-07-14T08:43:51Z</time>
      </trkpt>
      <trkpt lat="44.78887" lon="0.50638">
        <ele>160.5</ele>
        <time>2023-07-14T08:43:53Z</time>
      </trkpt>
      <trkpt lat="44.78895" lon="0.50653">
        <ele>159.7</ele>
        <time>2023-07-14T08:43:55Z</time>
      </trkpt>
      <trkpt lat="44.78899" lon="0.50656">
        <ele>159.4</ele>
        <time>2023-07-14T08:43:56Z</time>
      </trkpt>
      <trkpt lat="44.78902" lon="0.50657">
        <ele>159.1</ele>
        <time>2023-07-14T08:43:57Z</time>
      </trkpt>
      <trkpt lat="44.78909" lon="0.50655">
        <ele>159.4</ele>
        <time>2023-07-14T08:43:59Z</time>
      </trkpt>
      <trkpt lat="44.78916" lon="0.50651">
        <ele>159.6</ele>
        <time>2023-07-14T08:44:01Z</time>
      </trkpt>
      <trkpt lat="44.78924" lon="0.50645">
        <ele>159.8</ele>
        <time>2023-07-14T08:44:03Z</time>
      </trkpt>
      <trkpt lat="44.78933" lon="0.50639">
        <ele>159.9</ele>
        <time>2023-07-14T08:44:05Z</time>
      </trkpt>
      <trkpt lat="44.78941" lon="0.5063">
        <ele>159.9</ele>
        <time>2023-07-14T08:44:07Z</time>
      </trkpt>
      <trkpt lat="44.78945" lon="0.50625">
        <ele>159.8</ele>
        <time>2023-07-14T08:44:08Z</time>
      </trkpt>
      <trkpt lat="44.7895" lon="0.50621">
        <ele>159.8</ele>
        <time>2023-07-14T08:44:09Z</time>
      </trkpt>
      <trkpt lat="44.78958" lon="0.50614">
        <ele>159.6</ele>
        <time>2023-07-14T08:44:11Z</time>
      </trkpt>
      <trkpt lat="44.78968" lon="0.50608">
        <ele>159.2</ele>
        <time>2023-07-14T08:44:13Z</time>
      </trkpt>
      <trkpt lat="44.78977" lon="0.50611">
        <ele>158.7</ele>
        <time>2023-07-14T08:44:15Z</time>
      </trkpt>
      <trkpt lat="44.78981" lon="0.50615">
        <ele>158.6</ele>
        <time>2023-07-14T08:44:16Z</time>
      </trkpt>
      <trkpt lat="44.78984" lon="0.50619">
        <ele>158.5</ele>
        <time>2023-07-14T08:44:17Z</time>
      </trkpt>
      <trkpt lat="44.78992" lon="0.50623">
        <ele>158.3</ele>
        <time>2023-07-14T08:44:19Z</time>
      </trkpt>
      <trkpt lat="44.78997" lon="0.50623">
        <ele>158.1</ele>
        <time>2023-07-14T08:44:20Z</time>
      </trkpt>
      <trkpt lat="44.79001" lon="0.5062">
        <ele>158</ele>
        <time>2023-07-14T08:44:21Z</time>
      </trkpt>
      <trkpt lat="44.79006" lon="0.50614">
        <ele>157.8</ele>
        <time>2023-07-14T08:44:23Z</time>
      </trkpt>
      <trkpt lat="44.79009" lon="0.50607">
        <ele>157.8</ele>
        <time>2023-07-14T08:44:25Z</time>
      </trkpt>
      <trkpt lat="44.79014" lon="0.50603">
        <ele>157.8</ele>
        <time>2023-07-14T08:44:27Z</time>
      </trkpt>
      <trkpt lat="44.79018" lon="0.50606">
        <ele>157.8</ele>
        <time>2023-07-14T08:44:29Z</time>
      </trkpt>
      <trkpt lat="44.79019" lon="0.50608">
        <ele>157.8</ele>
        <time>2023-07-14T08:44:30Z</time>
      </trkpt>
      <trkpt lat="44.7902" lon="0.50611">
        <ele>157.8</ele>
        <time>2023-07-14T08:44:31Z</time>
      </trkpt>
      <trkpt lat="44.79024" lon="0.50617">
        <ele>157.8</ele>
        <time>2023-07-14T08:44:33Z</time>
      </trkpt>
      <trkpt lat="44.79028" lon="0.50622">
        <ele>157.8</ele>
        <time>2023-07-14T08:44:35Z</time>
      </trkpt>
      <trkpt lat="44.79033" lon="0.50626">
        <ele>157.8</ele>
        <time>2023-07-14T08:44:37Z</time>
      </trkpt>
      <trkpt lat="44.79037" lon="0.50632">
        <ele>157.7</ele>
        <time>2023-07-14T08:44:39Z</time>
      </trkpt>
      <trkpt lat="44.79039" lon="0.50635">
        <ele>157.7</ele>
        <time>2023-07-14T08:44:40Z</time>
      </trkpt>
      <trkpt lat="44.7904" lon="0.50639">
        <ele>157.6</ele>
        <time>2023-07-14T08:44:41Z</time>
      </trkpt>
      <trkpt lat="44.79039" lon="0.50647">
        <ele>157.6</ele>
        <time>2023-07-14T08:44:43Z</time>
      </trkpt>
      <trkpt lat="44.79036" lon="0.50657">
        <ele>157.7</ele>
        <time>2023-07-14T08:44:45Z</time>
      </trkpt>
      <trkpt lat="44.79035" lon="0.50667">
        <ele>157.9</ele>
        <time>2023-07-14T08:44:47Z</time>
      </trkpt>
      <trkpt lat="44.79036" lon="0.50672">
        <ele>157.9</ele>
        <time>2023-07-14T08:44:48Z</time>
      </trkpt>
      <trkpt lat="44.79038" lon="0.50677">
        <ele>157.9</ele>
        <time>2023-07-14T08:44:49Z</time>
      </trkpt>
      <trkpt lat="44.79042" lon="0.50685">
        <ele>157.8</ele>
        <time>2023-07-14T08:44:51Z</time>
      </trkpt>
      <trkpt lat="44.79044" lon="0.50691">
        <ele>157.7</ele>
        <time>2023-07-14T08:44:52Z</time>
      </trkpt>
      <trkpt lat="44.79046" lon="0.50696">
        <ele>157.6</ele>
        <time>2023-07-14T08:44:53Z</time>
      </trkpt>
      <trkpt lat="44.79051" lon="0.50707">
        <ele>157.6</ele>
        <time>2023-07-14T08:44:55Z</time>
      </trkpt>
      <trkpt lat="44.79058" lon="0.50716">
        <ele>157.5</ele>
        <time>2023-07-14T08:44:57Z</time>
      </trkpt>
      <trkpt lat="44.79064" lon="0.50724">
        <ele>157.5</ele>
        <time>2023-07-14T08:44:59Z</time>
      </trkpt>
      <trkpt lat="44.79072" lon="0.5073">
        <ele>157.5</ele>
        <time>2023-07-14T08:45:01Z</time>
      </trkpt>
      <trkpt lat="44.79076" lon="0.50732">
        <ele>157.4</ele>
        <time>2023-07-14T08:45:02Z</time>
      </trkpt>
      <trkpt lat="44.7908" lon="0.50734">
        <ele>157.4</ele>
        <time>2023-07-14T08:45:03Z</time>
      </trkpt>
      <trkpt lat="44.79089" lon="0.50738">
        <ele>157.2</ele>
        <time>2023-07-14T08:45:05Z</time>
      </trkpt>
      <trkpt lat="44.79093" lon="0.5074">
        <ele>157.1</ele>
        <time>2023-07-14T08:45:06Z</time>
      </trkpt>
      <trkpt lat="44.79097" lon="0.50742">
        <ele>157.2</ele>
        <time>2023-07-14T08:45:07Z</time>
      </trkpt>
      <trkpt lat="44.79103" lon="0.50743">
        <ele>157.2</ele>
        <time>2023-07-14T08:45:09Z</time>
      </trkpt>
      <trkpt lat="44.79107" lon="0.5074">
        <ele>157.2</ele>
        <time>2023-07-14T08:45:11Z</time>
      </trkpt>
      <trkpt lat="44.79111" lon="0.50738">
        <ele>157.3</ele>
        <time>2023-07-14T08:45:13Z</time>
      </trkpt>
      <trkpt lat="44.79113" lon="0.50736">
        <ele>157.3</ele>
        <time>2023-07-14T08:45:14Z</time>
      </trkpt>
      <trkpt lat="44.79116" lon="0.50734">
        <ele>157.5</ele>
        <time>2023-07-14T08:45:15Z</time>
      </trkpt>
      <trkpt lat="44.79118" lon="0.50733">
        <ele>157.5</ele>
        <time>2023-07-14T08:45:16Z</time>
      </trkpt>
      <trkpt lat="44.7912" lon="0.50731">
        <ele>157.5</ele>
        <time>2023-07-14T08:45:17Z</time>
      </trkpt>
      <trkpt lat="44.79122" lon="0.50729">
        <ele>157.6</ele>
        <time>2023-07-14T08:45:18Z</time>
      </trkpt>
      <trkpt lat="44.79125" lon="0.50726">
        <ele>157.6</ele>
        <time>2023-07-14T08:45:19Z</time>
      </trkpt>
      <trkpt lat="44.7913" lon="0.50722">
        <ele>157.6</ele>
        <time>2023-07-14T08:45:21Z</time>
      </trkpt>
      <trkpt lat="44.79132" lon="0.50721">
        <ele>157.7</ele>
        <time>2023-07-14T08:45:22Z</time>
      </trkpt>
      <trkpt lat="44.79134" lon="0.50721">
        <ele>157.6</ele>
        <time>2023-07-14T08:45:23Z</time>
      </trkpt>
      <trkpt lat="44.79136" lon="0.5072">
        <ele>157.6</ele>
        <time>2023-07-14T08:45:24Z</time>
      </trkpt>
      <trkpt lat="44.79138" lon="0.50721">
        <ele>157.4</ele>
        <time>2023-07-14T08:45:25Z</time>
      </trkpt>
      <trkpt lat="44.79143" lon="0.50725">
        <ele>156.7</ele>
        <time>2023-07-14T08:45:27Z</time>
      </trkpt>
      <trkpt lat="44.79149" lon="0.5073">
        <ele>155.9</ele>
        <time>2023-07-14T08:45:29Z</time>
      </trkpt>
      <trkpt lat="44.79155" lon="0.50734">
        <ele>155.1</ele>
        <time>2023-07-14T08:45:31Z</time>
      </trkpt>
      <trkpt lat="44.79158" lon="0.50736">
        <ele>154.7</ele>
        <time>2023-07-14T08:45:32Z</time>
      </trkpt>
      <trkpt lat="44.7916" lon="0.50738">
        <ele>154.4</ele>
        <time>2023-07-14T08:45:33Z</time>
      </trkpt>
      <trkpt lat="44.79164" lon="0.50738">
        <ele>154.2</ele>
        <time>2023-07-14T08:45:35Z</time>
      </trkpt>
      <trkpt lat="44.79166" lon="0.50738">
        <ele>153.9</ele>
        <time>2023-07-14T08:45:36Z</time>
      </trkpt>
      <trkpt lat="44.79167" lon="0.50738">
        <ele>153.9</ele>
        <time>2023-07-14T08:45:37Z</time>
      </trkpt>
      <trkpt lat="44.7917" lon="0.50738">
        <ele>153.5</ele>
        <time>2023-07-14T08:45:38Z</time>
      </trkpt>
      <trkpt lat="44.79173" lon="0.50737">
        <ele>153.2</ele>
        <time>2023-07-14T08:45:39Z</time>
      </trkpt>
      <trkpt lat="44.7918" lon="0.50732">
        <ele>152.4</ele>
        <time>2023-07-14T08:45:41Z</time>
      </trkpt>
      <trkpt lat="44.79186" lon="0.50726">
        <ele>152.3</ele>
        <time>2023-07-14T08:45:43Z</time>
      </trkpt>
      <trkpt lat="44.79189" lon="0.5072">
        <ele>152.1</ele>
        <time>2023-07-14T08:45:45Z</time>
      </trkpt>
      <trkpt lat="44.7919" lon="0.50716">
        <ele>152.4</ele>
        <time>2023-07-14T08:45:46Z</time>
      </trkpt>
      <trkpt lat="44.79191" lon="0.50713">
        <ele>152.7</ele>
        <time>2023-07-14T08:45:47Z</time>
      </trkpt>
      <trkpt lat="44.79193" lon="0.50704">
        <ele>152.8</ele>
        <time>2023-07-14T08:45:49Z</time>
      </trkpt>
      <trkpt lat="44.79195" lon="0.50694">
        <ele>153</ele>
        <time>2023-07-14T08:45:51Z</time>
      </trkpt>
      <trkpt lat="44.79198" lon="0.50683">
        <ele>153.7</ele>
        <time>2023-07-14T08:45:53Z</time>
      </trkpt>
      <trkpt lat="44.79199" lon="0.50673">
        <ele>154.2</ele>
        <time>2023-07-14T08:45:55Z</time>
      </trkpt>
      <trkpt lat="44.792" lon="0.50667">
        <ele>154.5</ele>
        <time>2023-07-14T08:45:56Z</time>
      </trkpt>
      <trkpt lat="44.792" lon="0.50662">
        <ele>154.8</ele>
        <time>2023-07-14T08:45:57Z</time>
      </trkpt>
      <trkpt lat="44.79201" lon="0.5065">
        <ele>155.2</ele>
        <time>2023-07-14T08:45:59Z</time>
      </trkpt>
      <trkpt lat="44.79202" lon="0.50645">
        <ele>155.5</ele>
        <time>2023-07-14T08:46:00Z</time>
      </trkpt>
      <trkpt lat="44.79202" lon="0.5064">
        <ele>156.2</ele>
        <time>2023-07-14T08:46:01Z</time>
      </trkpt>
      <trkpt lat="44.79202" lon="0.5063">
        <ele>156.9</ele>
        <time>2023-07-14T08:46:03Z</time>
      </trkpt>
      <trkpt lat="44.79202" lon="0.50625">
        <ele>157.2</ele>
        <time>2023-07-14T08:46:04Z</time>
      </trkpt>
      <trkpt lat="44.79202" lon="0.50621">
        <ele>157.5</ele>
        <time>2023-07-14T08:46:05Z</time>
      </trkpt>
      <trkpt lat="44.79202" lon="0.50614">
        <ele>158.1</ele>
        <time>2023-07-14T08:46:07Z</time>
      </trkpt>
      <trkpt lat="44.79202" lon="0.5061">
        <ele>158.1</ele>
        <time>2023-07-14T08:46:08Z</time>
      </trkpt>
      <trkpt lat="44.79202" lon="0.50607">
        <ele>158.4</ele>
        <time>2023-07-14T08:46:09Z</time>
      </trkpt>
      <trkpt lat="44.79203" lon="0.50603">
        <ele>158.7</ele>
        <time>2023-07-14T08:46:10Z</time>
      </trkpt>
      <trkpt lat="44.79204" lon="0.506">
        <ele>158.9</ele>
        <time>2023-07-14T08:46:11Z</time>
      </trkpt>
      <trkpt lat="44.79205" lon="0.50594">
        <ele>159</ele>
        <time>2023-07-14T08:46:13Z</time>
      </trkpt>
      <trkpt lat="44.79207" lon="0.50588">
        <ele>159.5</ele>
        <time>2023-07-14T08:46:15Z</time>
      </trkpt>
      <trkpt lat="44.79208" lon="0.50582">
        <ele>159.8</ele>
        <time>2023-07-14T08:46:17Z</time>
      </trkpt>
      <trkpt lat="44.79209" lon="0.50577">
        <ele>160</ele>
        <time>2023-07-14T08:46:19Z</time>
      </trkpt>
      <trkpt lat="44.7921" lon="0.50572">
        <ele>160.1</ele>
        <time>2023-07-14T08:46:21Z</time>
      </trkpt>
      <trkpt lat="44.79211" lon="0.50568">
        <ele>160.3</ele>
        <time>2023-07-14T08:46:23Z</time>
      </trkpt>
      <trkpt lat="44.79213" lon="0.50563">
        <ele>160.5</ele>
        <time>2023-07-14T08:46:25Z</time>
      </trkpt>
      <trkpt lat="44.79214" lon="0.50561">
        <ele>160.5</ele>
        <time>2023-07-14T08:46:26Z</time>
      </trkpt>
      <trkpt lat="44.79215" lon="0.5056">
        <ele>160.6</ele>
        <time>2023-07-14T08:46:27Z</time>
      </trkpt>
      <trkpt lat="44.79217" lon="0.50556">
        <ele>160.6</ele>
        <time>2023-07-14T08:46:29Z</time>
      </trkpt>
      <trkpt lat="44.79219" lon="0.50552">
        <ele>160.8</ele>
        <time>2023-07-14T08:46:31Z</time>
      </trkpt>
      <trkpt lat="44.79221" lon="0.50549">
        <ele>160.8</ele>
        <time>2023-07-14T08:46:33Z</time>
      </trkpt>
      <trkpt lat="44.79224" lon="0.50545">
        <ele>160.8</ele>
        <time>2023-07-14T08:46:35Z</time>
      </trkpt>
      <trkpt lat="44.79226" lon="0.50542">
        <ele>160.6</ele>
        <time>2023-07-14T08:46:37Z</time>
      </trkpt>
      <trkpt lat="44.79229" lon="0.50539">
        <ele>160.6</ele>
        <time>2023-07-14T08:46:39Z</time>
      </trkpt>
      <trkpt lat="44.79232" lon="0.50536">
        <ele>160.7</ele>
        <time>2023-07-14T08:46:41Z</time>
      </trkpt>
      <trkpt lat="44.79235" lon="0.50533">
        <ele>160.5</ele>
        <time>2023-07-14T08:46:43Z</time>
      </trkpt>
      <trkpt lat="44.79239" lon="0.5053">
        <ele>160.4</ele>
        <time>2023-07-14T08:46:45Z</time>
      </trkpt>
      <trkpt lat="44.79244" lon="0.50527">
        <ele>159.9</ele>
        <time>2023-07-14T08:46:47Z</time>
      </trkpt>
      <trkpt lat="44.79248" lon="0.50523">
        <ele>159.7</ele>
        <time>2023-07-14T08:46:49Z</time>
      </trkpt>
      <trkpt lat="44.79253" lon="0.50519">
        <ele>159.5</ele>
        <time>2023-07-14T08:46:51Z</time>
      </trkpt>
      <trkpt lat="44.79257" lon="0.50513">
        <ele>158.9</ele>
        <time>2023-07-14T08:46:53Z</time>
      </trkpt>
      <trkpt lat="44.79262" lon="0.50508">
        <ele>158.4</ele>
        <time>2023-07-14T08:46:55Z</time>
      </trkpt>
      <trkpt lat="44.79267" lon="0.50505">
        <ele>158.3</ele>
        <time>2023-07-14T08:46:57Z</time>
      </trkpt>
      <trkpt lat="44.79272" lon="0.50501">
        <ele>157.9</ele>
        <time>2023-07-14T08:46:59Z</time>
      </trkpt>
      <trkpt lat="44.79276" lon="0.50499">
        <ele>157.5</ele>
        <time>2023-07-14T08:47:01Z</time>
      </trkpt>
      <trkpt lat="44.7928" lon="0.50498">
        <ele>157.3</ele>
        <time>2023-07-14T08:47:02Z</time>
      </trkpt>
      <trkpt lat="44.79284" lon="0.50499">
        <ele>156.1</ele>
        <time>2023-07-14T08:47:03Z</time>
      </trkpt>
      <trkpt lat="44.79296" lon="0.50499">
        <ele>154.5</ele>
        <time>2023-07-14T08:47:05Z</time>
      </trkpt>
      <trkpt lat="44.79302" lon="0.505">
        <ele>153.6</ele>
        <time>2023-07-14T08:47:06Z</time>
      </trkpt>
      <trkpt lat="44.79308" lon="0.505">
        <ele>152.7</ele>
        <time>2023-07-14T08:47:07Z</time>
      </trkpt>
      <trkpt lat="44.79323" lon="0.505">
        <ele>150.9</ele>
        <time>2023-07-14T08:47:09Z</time>
      </trkpt>
      <trkpt lat="44.79339" lon="0.50498">
        <ele>149.5</ele>
        <time>2023-07-14T08:47:11Z</time>
      </trkpt>
      <trkpt lat="44.79355" lon="0.50496">
        <ele>147.9</ele>
        <time>2023-07-14T08:47:13Z</time>
      </trkpt>
      <trkpt lat="44.79371" lon="0.50494">
        <ele>146.8</ele>
        <time>2023-07-14T08:47:15Z</time>
      </trkpt>
      <trkpt lat="44.79385" lon="0.50493">
        <ele>146.7</ele>
        <time>2023-07-14T08:47:17Z</time>
      </trkpt>
      <trkpt lat="44.79399" lon="0.50493">
        <ele>146.8</ele>
        <time>2023-07-14T08:47:19Z</time>
      </trkpt>
      <trkpt lat="44.79412" lon="0.50492">
        <ele>146.8</ele>
        <time>2023-07-14T08:47:21Z</time>
      </trkpt>
      <trkpt lat="44.79425" lon="0.50493">
        <ele>146.9</ele>
        <time>2023-07-14T08:47:23Z</time>
      </trkpt>
      <trkpt lat="44.79436" lon="0.50493">
        <ele>147.4</ele>
        <time>2023-07-14T08:47:25Z</time>
      </trkpt>
      <trkpt lat="44.79441" lon="0.50491">
        <ele>147.6</ele>
        <time>2023-07-14T08:47:26Z</time>
      </trkpt>
      <trkpt lat="44.79446" lon="0.50489">
        <ele>148.4</ele>
        <time>2023-07-14T08:47:27Z</time>
      </trkpt>
      <trkpt lat="44.79452" lon="0.50481">
        <ele>149.7</ele>
        <time>2023-07-14T08:47:29Z</time>
      </trkpt>
      <trkpt lat="44.79454" lon="0.50473">
        <ele>150</ele>
        <time>2023-07-14T08:47:31Z</time>
      </trkpt>
      <trkpt lat="44.79454" lon="0.50465">
        <ele>151.1</ele>
        <time>2023-07-14T08:47:33Z</time>
      </trkpt>
      <trkpt lat="44.79453" lon="0.50459">
        <ele>151.7</ele>
        <time>2023-07-14T08:47:35Z</time>
      </trkpt>
      <trkpt lat="44.79453" lon="0.50454">
        <ele>152.1</ele>
        <time>2023-07-14T08:47:37Z</time>
      </trkpt>
      <trkpt lat="44.79453" lon="0.50452">
        <ele>152.1</ele>
        <time>2023-07-14T08:47:38Z</time>
      </trkpt>
      <trkpt lat="44.79454" lon="0.50449">
        <ele>152.5</ele>
        <time>2023-07-14T08:47:39Z</time>
      </trkpt>
      <trkpt lat="44.79454" lon="0.50444">
        <ele>153.1</ele>
        <time>2023-07-14T08:47:41Z</time>
      </trkpt>
      <trkpt lat="44.79455" lon="0.50439">
        <ele>153.6</ele>
        <time>2023-07-14T08:47:43Z</time>
      </trkpt>
      <trkpt lat="44.79455" lon="0.50434">
        <ele>154.3</ele>
        <time>2023-07-14T08:47:45Z</time>
      </trkpt>
      <trkpt lat="44.79456" lon="0.50431">
        <ele>154.4</ele>
        <time>2023-07-14T08:47:46Z</time>
      </trkpt>
      <trkpt lat="44.79456" lon="0.50429">
        <ele>154.8</ele>
        <time>2023-07-14T08:47:47Z</time>
      </trkpt>
      <trkpt lat="44.79456" lon="0.50423">
        <ele>155.2</ele>
        <time>2023-07-14T08:47:49Z</time>
      </trkpt>
      <trkpt lat="44.79457" lon="0.50418">
        <ele>155.7</ele>
        <time>2023-07-14T08:47:51Z</time>
      </trkpt>
      <trkpt lat="44.79457" lon="0.50414">
        <ele>156.1</ele>
        <time>2023-07-14T08:47:53Z</time>
      </trkpt>
      <trkpt lat="44.79457" lon="0.50411">
        <ele>156.4</ele>
        <time>2023-07-14T08:47:54Z</time>
      </trkpt>
      <trkpt lat="44.79457" lon="0.50409">
        <ele>156.4</ele>
        <time>2023-07-14T08:47:55Z</time>
      </trkpt>
      <trkpt lat="44.79457" lon="0.50404">
        <ele>157</ele>
        <time>2023-07-14T08:47:57Z</time>
      </trkpt>
      <trkpt lat="44.79457" lon="0.50399">
        <ele>157.2</ele>
        <time>2023-07-14T08:47:59Z</time>
      </trkpt>
      <trkpt lat="44.79457" lon="0.50394">
        <ele>157.5</ele>
        <time>2023-07-14T08:48:01Z</time>
      </trkpt>
      <trkpt lat="44.79456" lon="0.50389">
        <ele>157.7</ele>
        <time>2023-07-14T08:48:03Z</time>
      </trkpt>
      <trkpt lat="44.79456" lon="0.50387">
        <ele>157.7</ele>
        <time>2023-07-14T08:48:04Z</time>
      </trkpt>
      <trkpt lat="44.79456" lon="0.50384">
        <ele>158</ele>
        <time>2023-07-14T08:48:05Z</time>
      </trkpt>
      <trkpt lat="44.79455" lon="0.50379">
        <ele>158.2</ele>
        <time>2023-07-14T08:48:07Z</time>
      </trkpt>
      <trkpt lat="44.79456" lon="0.50374">
        <ele>158.7</ele>
        <time>2023-07-14T08:48:09Z</time>
      </trkpt>
      <trkpt lat="44.79456" lon="0.50369">
        <ele>159</ele>
        <time>2023-07-14T08:48:11Z</time>
      </trkpt>
      <trkpt lat="44.79456" lon="0.50364">
        <ele>159.3</ele>
        <time>2023-07-14T08:48:13Z</time>
      </trkpt>
      <trkpt lat="44.79457" lon="0.50359">
        <ele>159.5</ele>
        <time>2023-07-14T08:48:15Z</time>
      </trkpt>
      <trkpt lat="44.79457" lon="0.50354">
        <ele>159.7</ele>
        <time>2023-07-14T08:48:17Z</time>
      </trkpt>
      <trkpt lat="44.79458" lon="0.50349">
        <ele>160</ele>
        <time>2023-07-14T08:48:19Z</time>
      </trkpt>
      <trkpt lat="44.79458" lon="0.50344">
        <ele>160.1</ele>
        <time>2023-07-14T08:48:21Z</time>
      </trkpt>
      <trkpt lat="44.79458" lon="0.50342">
        <ele>160.3</ele>
        <time>2023-07-14T08:48:22Z</time>
      </trkpt>
      <trkpt lat="44.79458" lon="0.5034">
        <ele>160.5</ele>
        <time>2023-07-14T08:48:23Z</time>
      </trkpt>
      <trkpt lat="44.79459" lon="0.50335">
        <ele>160.7</ele>
        <time>2023-07-14T08:48:25Z</time>
      </trkpt>
      <trkpt lat="44.7946" lon="0.50329">
        <ele>160.8</ele>
        <time>2023-07-14T08:48:27Z</time>
      </trkpt>
      <trkpt lat="44.79461" lon="0.50327">
        <ele>161</ele>
        <time>2023-07-14T08:48:28Z</time>
      </trkpt>
      <trkpt lat="44.79461" lon="0.50324">
        <ele>161</ele>
        <time>2023-07-14T08:48:29Z</time>
      </trkpt>
      <trkpt lat="44.79461" lon="0.50322">
        <ele>161.2</ele>
        <time>2023-07-14T08:48:30Z</time>
      </trkpt>
      <trkpt lat="44.79462" lon="0.50319">
        <ele>161.2</ele>
        <time>2023-07-14T08:48:31Z</time>
      </trkpt>
      <trkpt lat="44.79463" lon="0.50314">
        <ele>161.4</ele>
        <time>2023-07-14T08:48:33Z</time>
      </trkpt>
      <trkpt lat="44.79463" lon="0.50308">
        <ele>161.6</ele>
        <time>2023-07-14T08:48:35Z</time>
      </trkpt>
      <trkpt lat="44.79464" lon="0.50306">
        <ele>161.8</ele>
        <time>2023-07-14T08:48:36Z</time>
      </trkpt>
      <trkpt lat="44.79466" lon="0.50303">
        <ele>161.9</ele>
        <time>2023-07-14T08:48:37Z</time>
      </trkpt>
      <trkpt lat="44.7947" lon="0.50301">
        <ele>162.1</ele>
        <time>2023-07-14T08:48:38Z</time>
      </trkpt>
      <trkpt lat="44.79473" lon="0.503">
        <ele>162.2</ele>
        <time>2023-07-14T08:48:39Z</time>
      </trkpt>
      <trkpt lat="44.79478" lon="0.50297">
        <ele>162.3</ele>
        <time>2023-07-14T08:48:41Z</time>
      </trkpt>
      <trkpt lat="44.7948" lon="0.50294">
        <ele>162.3</ele>
        <time>2023-07-14T08:48:42Z</time>
      </trkpt>
      <trkpt lat="44.79482" lon="0.50291">
        <ele>162.3</ele>
        <time>2023-07-14T08:48:43Z</time>
      </trkpt>
      <trkpt lat="44.79485" lon="0.50284">
        <ele>162.2</ele>
        <time>2023-07-14T08:48:45Z</time>
      </trkpt>
      <trkpt lat="44.79489" lon="0.50276">
        <ele>162</ele>
        <time>2023-07-14T08:48:47Z</time>
      </trkpt>
      <trkpt lat="44.79491" lon="0.50271">
        <ele>161.9</ele>
        <time>2023-07-14T08:48:48Z</time>
      </trkpt>
      <trkpt lat="44.79493" lon="0.50266">
        <ele>161.8</ele>
        <time>2023-07-14T08:48:49Z</time>
      </trkpt>
      <trkpt lat="44.79495" lon="0.50259">
        <ele>161.6</ele>
        <time>2023-07-14T08:48:50Z</time>
      </trkpt>
      <trkpt lat="44.79496" lon="0.50253">
        <ele>161.4</ele>
        <time>2023-07-14T08:48:51Z</time>
      </trkpt>
      <trkpt lat="44.79498" lon="0.50239">
        <ele>161</ele>
        <time>2023-07-14T08:48:53Z</time>
      </trkpt>
      <trkpt lat="44.79499" lon="0.50225">
        <ele>160.6</ele>
        <time>2023-07-14T08:48:55Z</time>
      </trkpt>
      <trkpt lat="44.79501" lon="0.5021">
        <ele>160.2</ele>
        <time>2023-07-14T08:48:57Z</time>
      </trkpt>
      <trkpt lat="44.79502" lon="0.50196">
        <ele>159.8</ele>
        <time>2023-07-14T08:48:59Z</time>
      </trkpt>
      <trkpt lat="44.79504" lon="0.50189">
        <ele>159.6</ele>
        <time>2023-07-14T08:49:00Z</time>
      </trkpt>
      <trkpt lat="44.79505" lon="0.50182">
        <ele>159.5</ele>
        <time>2023-07-14T08:49:01Z</time>
      </trkpt>
      <trkpt lat="44.79508" lon="0.50169">
        <ele>159.2</ele>
        <time>2023-07-14T08:49:03Z</time>
      </trkpt>
      <trkpt lat="44.79511" lon="0.50155">
        <ele>159.2</ele>
        <time>2023-07-14T08:49:05Z</time>
      </trkpt>
      <trkpt lat="44.79513" lon="0.50141">
        <ele>159</ele>
        <time>2023-07-14T08:49:07Z</time>
      </trkpt>
      <trkpt lat="44.79515" lon="0.50135">
        <ele>159</ele>
        <time>2023-07-14T08:49:08Z</time>
      </trkpt>
      <trkpt lat="44.79516" lon="0.50127">
        <ele>158.9</ele>
        <time>2023-07-14T08:49:09Z</time>
      </trkpt>
      <trkpt lat="44.79519" lon="0.50113">
        <ele>158.7</ele>
        <time>2023-07-14T08:49:11Z</time>
      </trkpt>
      <trkpt lat="44.79522" lon="0.50099">
        <ele>158.6</ele>
        <time>2023-07-14T08:49:13Z</time>
      </trkpt>
      <trkpt lat="44.79525" lon="0.50085">
        <ele>158.5</ele>
        <time>2023-07-14T08:49:15Z</time>
      </trkpt>
      <trkpt lat="44.79526" lon="0.50078">
        <ele>158.4</ele>
        <time>2023-07-14T08:49:16Z</time>
      </trkpt>
      <trkpt lat="44.79527" lon="0.50071">
        <ele>158.3</ele>
        <time>2023-07-14T08:49:17Z</time>
      </trkpt>
      <trkpt lat="44.7953" lon="0.50057">
        <ele>158</ele>
        <time>2023-07-14T08:49:19Z</time>
      </trkpt>
      <trkpt lat="44.79532" lon="0.50042">
        <ele>157.8</ele>
        <time>2023-07-14T08:49:21Z</time>
      </trkpt>
      <trkpt lat="44.79536" lon="0.50027">
        <ele>157.6</ele>
        <time>2023-07-14T08:49:23Z</time>
      </trkpt>
      <trkpt lat="44.79537" lon="0.50019">
        <ele>157.5</ele>
        <time>2023-07-14T08:49:24Z</time>
      </trkpt>
      <trkpt lat="44.79539" lon="0.50012">
        <ele>157.3</ele>
        <time>2023-07-14T08:49:25Z</time>
      </trkpt>
      <trkpt lat="44.79541" lon="0.49996">
        <ele>157.1</ele>
        <time>2023-07-14T08:49:27Z</time>
      </trkpt>
      <trkpt lat="44.79541" lon="0.49985">
        <ele>157.1</ele>
        <time>2023-07-14T08:49:29Z</time>
      </trkpt>
      <trkpt lat="44.79539" lon="0.49978">
        <ele>157.1</ele>
        <time>2023-07-14T08:49:31Z</time>
      </trkpt>
      <trkpt lat="44.79534" lon="0.49975">
        <ele>157.1</ele>
        <time>2023-07-14T08:49:33Z</time>
      </trkpt>
      <trkpt lat="44.79529" lon="0.49973">
        <ele>157.2</ele>
        <time>2023-07-14T08:49:35Z</time>
      </trkpt>
      <trkpt lat="44.79527" lon="0.49968">
        <ele>157.1</ele>
        <time>2023-07-14T08:49:37Z</time>
      </trkpt>
      <trkpt lat="44.79526" lon="0.49961">
        <ele>157.1</ele>
        <time>2023-07-14T08:49:39Z</time>
      </trkpt>
      <trkpt lat="44.79525" lon="0.49953">
        <ele>156.9</ele>
        <time>2023-07-14T08:49:41Z</time>
      </trkpt>
      <trkpt lat="44.79525" lon="0.49948">
        <ele>156.8</ele>
        <time>2023-07-14T08:49:42Z</time>
      </trkpt>
      <trkpt lat="44.79524" lon="0.49943">
        <ele>156.7</ele>
        <time>2023-07-14T08:49:43Z</time>
      </trkpt>
      <trkpt lat="44.79521" lon="0.49935">
        <ele>156.4</ele>
        <time>2023-07-14T08:49:45Z</time>
      </trkpt>
      <trkpt lat="44.79521" lon="0.49932">
        <ele>156.2</ele>
        <time>2023-07-14T08:49:46Z</time>
      </trkpt>
      <trkpt lat="44.79521" lon="0.49928">
        <ele>155.9</ele>
        <time>2023-07-14T08:49:47Z</time>
      </trkpt>
      <trkpt lat="44.79521" lon="0.49924">
        <ele>155.6</ele>
        <time>2023-07-14T08:49:48Z</time>
      </trkpt>
      <trkpt lat="44.79523" lon="0.4992">
        <ele>155.2</ele>
        <time>2023-07-14T08:49:49Z</time>
      </trkpt>
      <trkpt lat="44.79528" lon="0.4991">
        <ele>154</ele>
        <time>2023-07-14T08:49:51Z</time>
      </trkpt>
      <trkpt lat="44.79534" lon="0.49896">
        <ele>152</ele>
        <time>2023-07-14T08:49:53Z</time>
      </trkpt>
      <trkpt lat="44.79543" lon="0.49876">
        <ele>149</ele>
        <time>2023-07-14T08:49:55Z</time>
      </trkpt>
      <trkpt lat="44.79548" lon="0.49864">
        <ele>147.3</ele>
        <time>2023-07-14T08:49:56Z</time>
      </trkpt>
      <trkpt lat="44.79554" lon="0.49852">
        <ele>146</ele>
        <time>2023-07-14T08:49:57Z</time>
      </trkpt>
      <trkpt lat="44.79567" lon="0.4983">
        <ele>144.3</ele>
        <time>2023-07-14T08:49:59Z</time>
      </trkpt>
      <trkpt lat="44.79581" lon="0.49813">
        <ele>143.4</ele>
        <time>2023-07-14T08:50:01Z</time>
      </trkpt>
      <trkpt lat="44.79592" lon="0.49798">
        <ele>143</ele>
        <time>2023-07-14T08:50:03Z</time>
      </trkpt>
      <trkpt lat="44.79598" lon="0.49785">
        <ele>142.9</ele>
        <time>2023-07-14T08:50:05Z</time>
      </trkpt>
      <trkpt lat="44.79605" lon="0.49778">
        <ele>142.7</ele>
        <time>2023-07-14T08:50:07Z</time>
      </trkpt>
      <trkpt lat="44.7961" lon="0.49777">
        <ele>142.7</ele>
        <time>2023-07-14T08:50:08Z</time>
      </trkpt>
      <trkpt lat="44.79612" lon="0.49778">
        <ele>142.6</ele>
        <time>2023-07-14T08:50:09Z</time>
      </trkpt>
      <trkpt lat="44.79614" lon="0.49777">
        <ele>142.5</ele>
        <time>2023-07-14T08:50:10Z</time>
      </trkpt>
      <trkpt lat="44.79616" lon="0.49777">
        <ele>142.4</ele>
        <time>2023-07-14T08:50:11Z</time>
      </trkpt>
      <trkpt lat="44.79617" lon="0.49773">
        <ele>142.3</ele>
        <time>2023-07-14T08:50:13Z</time>
      </trkpt>
      <trkpt lat="44.79618" lon="0.4977">
        <ele>142.2</ele>
        <time>2023-07-14T08:50:14Z</time>
      </trkpt>
      <trkpt lat="44.79622" lon="0.49766">
        <ele>142</ele>
        <time>2023-07-14T08:50:15Z</time>
      </trkpt>
      <trkpt lat="44.79628" lon="0.4976">
        <ele>141.7</ele>
        <time>2023-07-14T08:50:17Z</time>
      </trkpt>
      <trkpt lat="44.7963" lon="0.49758">
        <ele>141.6</ele>
        <time>2023-07-14T08:50:18Z</time>
      </trkpt>
      <trkpt lat="44.79632" lon="0.49756">
        <ele>141.5</ele>
        <time>2023-07-14T08:50:19Z</time>
      </trkpt>
      <trkpt lat="44.79634" lon="0.49756">
        <ele>141.5</ele>
        <time>2023-07-14T08:50:20Z</time>
      </trkpt>
      <trkpt lat="44.79635" lon="0.49755">
        <ele>141.4</ele>
        <time>2023-07-14T08:50:21Z</time>
      </trkpt>
      <trkpt lat="44.79637" lon="0.49754">
        <ele>141.4</ele>
        <time>2023-07-14T08:50:23Z</time>
      </trkpt>
      <trkpt lat="44.79663" lon="0.49709">
        <ele>142</ele>
        <time>2023-07-14T08:50:59Z</time>
      </trkpt>
      <trkpt lat="44.79666" lon="0.49704">
        <ele>142.1</ele>
        <time>2023-07-14T08:51:01Z</time>
      </trkpt>
      <trkpt lat="44.79668" lon="0.49701">
        <ele>142.1</ele>
        <time>2023-07-14T08:51:02Z</time>
      </trkpt>
      <trkpt lat="44.79669" lon="0.49699">
        <ele>142.1</ele>
        <time>2023-07-14T08:51:03Z</time>
      </trkpt>
      <trkpt lat="44.79669" lon="0.49696">
        <ele>142.1</ele>
        <time>2023-07-14T08:51:04Z</time>
      </trkpt>
      <trkpt lat="44.7967" lon="0.49693">
        <ele>142.2</ele>
        <time>2023-07-14T08:51:05Z</time>
      </trkpt>
      <trkpt lat="44.79672" lon="0.49685">
        <ele>142.2</ele>
        <time>2023-07-14T08:51:07Z</time>
      </trkpt>
      <trkpt lat="44.79673" lon="0.49677">
        <ele>142.3</ele>
        <time>2023-07-14T08:51:09Z</time>
      </trkpt>
      <trkpt lat="44.79673" lon="0.49673">
        <ele>142.3</ele>
        <time>2023-07-14T08:51:10Z</time>
      </trkpt>
      <trkpt lat="44.79673" lon="0.49669">
        <ele>142.3</ele>
        <time>2023-07-14T08:51:11Z</time>
      </trkpt>
      <trkpt lat="44.79675" lon="0.4966">
        <ele>142.3</ele>
        <time>2023-07-14T08:51:13Z</time>
      </trkpt>
      <trkpt lat="44.79676" lon="0.49651">
        <ele>142.3</ele>
        <time>2023-07-14T08:51:15Z</time>
      </trkpt>
      <trkpt lat="44.7968" lon="0.4964">
        <ele>142.1</ele>
        <time>2023-07-14T08:51:17Z</time>
      </trkpt>
      <trkpt lat="44.79682" lon="0.49629">
        <ele>141.9</ele>
        <time>2023-07-14T08:51:19Z</time>
      </trkpt>
      <trkpt lat="44.79683" lon="0.49624">
        <ele>141.8</ele>
        <time>2023-07-14T08:51:20Z</time>
      </trkpt>
      <trkpt lat="44.79685" lon="0.49619">
        <ele>141.6</ele>
        <time>2023-07-14T08:51:21Z</time>
      </trkpt>
      <trkpt lat="44.79687" lon="0.49613">
        <ele>141.2</ele>
        <time>2023-07-14T08:51:22Z</time>
      </trkpt>
      <trkpt lat="44.7969" lon="0.49607">
        <ele>140.7</ele>
        <time>2023-07-14T08:51:23Z</time>
      </trkpt>
      <trkpt lat="44.79694" lon="0.496">
        <ele>140.1</ele>
        <time>2023-07-14T08:51:24Z</time>
      </trkpt>
      <trkpt lat="44.797" lon="0.49593">
        <ele>139.2</ele>
        <time>2023-07-14T08:51:25Z</time>
      </trkpt>
      <trkpt lat="44.79705" lon="0.49584">
        <ele>138.3</ele>
        <time>2023-07-14T08:51:26Z</time>
      </trkpt>
      <trkpt lat="44.79709" lon="0.49576">
        <ele>137.7</ele>
        <time>2023-07-14T08:51:27Z</time>
      </trkpt>
      <trkpt lat="44.79718" lon="0.49562">
        <ele>137.1</ele>
        <time>2023-07-14T08:51:29Z</time>
      </trkpt>
      <trkpt lat="44.79723" lon="0.49555">
        <ele>136.8</ele>
        <time>2023-07-14T08:51:30Z</time>
      </trkpt>
      <trkpt lat="44.79729" lon="0.49549">
        <ele>136.5</ele>
        <time>2023-07-14T08:51:31Z</time>
      </trkpt>
      <trkpt lat="44.79738" lon="0.49536">
        <ele>136</ele>
        <time>2023-07-14T08:51:33Z</time>
      </trkpt>
      <trkpt lat="44.79742" lon="0.49523">
        <ele>136</ele>
        <time>2023-07-14T08:51:35Z</time>
      </trkpt>
      <trkpt lat="44.79743" lon="0.49518">
        <ele>136.1</ele>
        <time>2023-07-14T08:51:36Z</time>
      </trkpt>
      <trkpt lat="44.79743" lon="0.49514">
        <ele>136.2</ele>
        <time>2023-07-14T08:51:37Z</time>
      </trkpt>
      <trkpt lat="44.79745" lon="0.49506">
        <ele>136.5</ele>
        <time>2023-07-14T08:51:39Z</time>
      </trkpt>
      <trkpt lat="44.79747" lon="0.49499">
        <ele>136.8</ele>
        <time>2023-07-14T08:51:41Z</time>
      </trkpt>
      <trkpt lat="44.79747" lon="0.49496">
        <ele>136.9</ele>
        <time>2023-07-14T08:51:42Z</time>
      </trkpt>
      <trkpt lat="44.79748" lon="0.49493">
        <ele>137</ele>
        <time>2023-07-14T08:51:43Z</time>
      </trkpt>
      <trkpt lat="44.7975" lon="0.49487">
        <ele>137.2</ele>
        <time>2023-07-14T08:51:45Z</time>
      </trkpt>
      <trkpt lat="44.79752" lon="0.49479">
        <ele>137.4</ele>
        <time>2023-07-14T08:51:47Z</time>
      </trkpt>
      <trkpt lat="44.79753" lon="0.49475">
        <ele>137.5</ele>
        <time>2023-07-14T08:51:48Z</time>
      </trkpt>
      <trkpt lat="44.79753" lon="0.49471">
        <ele>137.6</ele>
        <time>2023-07-14T08:51:49Z</time>
      </trkpt>
      <trkpt lat="44.79755" lon="0.49464">
        <ele>137.7</ele>
        <time>2023-07-14T08:51:51Z</time>
      </trkpt>
      <trkpt lat="44.79755" lon="0.49457">
        <ele>137.9</ele>
        <time>2023-07-14T08:51:53Z</time>
      </trkpt>
      <trkpt lat="44.79756" lon="0.49454">
        <ele>138</ele>
        <time>2023-07-14T08:51:54Z</time>
      </trkpt>
      <trkpt lat="44.79756" lon="0.49451">
        <ele>138.1</ele>
        <time>2023-07-14T08:51:55Z</time>
      </trkpt>
      <trkpt lat="44.79757" lon="0.49446">
        <ele>138.3</ele>
        <time>2023-07-14T08:51:57Z</time>
      </trkpt>
      <trkpt lat="44.79758" lon="0.49441">
        <ele>138.5</ele>
        <time>2023-07-14T08:51:59Z</time>
      </trkpt>
      <trkpt lat="44.79759" lon="0.49437">
        <ele>138.8</ele>
        <time>2023-07-14T08:52:01Z</time>
      </trkpt>
      <trkpt lat="44.7976" lon="0.49431">
        <ele>139.1</ele>
        <time>2023-07-14T08:52:03Z</time>
      </trkpt>
      <trkpt lat="44.79761" lon="0.49426">
        <ele>139.5</ele>
        <time>2023-07-14T08:52:05Z</time>
      </trkpt>
      <trkpt lat="44.79762" lon="0.49421">
        <ele>139.9</ele>
        <time>2023-07-14T08:52:07Z</time>
      </trkpt>
      <trkpt lat="44.79763" lon="0.49416">
        <ele>140.3</ele>
        <time>2023-07-14T08:52:09Z</time>
      </trkpt>
      <trkpt lat="44.79764" lon="0.49414">
        <ele>140.4</ele>
        <time>2023-07-14T08:52:10Z</time>
      </trkpt>
      <trkpt lat="44.79764" lon="0.49411">
        <ele>140.6</ele>
        <time>2023-07-14T08:52:11Z</time>
      </trkpt>
      <trkpt lat="44.79766" lon="0.49405">
        <ele>140.9</ele>
        <time>2023-07-14T08:52:13Z</time>
      </trkpt>
      <trkpt lat="44.79767" lon="0.494">
        <ele>141.2</ele>
        <time>2023-07-14T08:52:15Z</time>
      </trkpt>
      <trkpt lat="44.79769" lon="0.49395">
        <ele>141.5</ele>
        <time>2023-07-14T08:52:17Z</time>
      </trkpt>
      <trkpt lat="44.79769" lon="0.49392">
        <ele>141.6</ele>
        <time>2023-07-14T08:52:19Z</time>
      </trkpt>
      <trkpt lat="44.79769" lon="0.49392">
        <ele>141.6</ele>
        <time>2023-07-14T08:52:20Z</time>
      </trkpt>
      <trkpt lat="44.79771" lon="0.49387">
        <ele>141.8</ele>
        <time>2023-07-14T08:53:13Z</time>
      </trkpt>
      <trkpt lat="44.79772" lon="0.49382">
        <ele>142</ele>
        <time>2023-07-14T08:53:15Z</time>
      </trkpt>
      <trkpt lat="44.79773" lon="0.49376">
        <ele>142.1</ele>
        <time>2023-07-14T08:53:17Z</time>
      </trkpt>
      <trkpt lat="44.79774" lon="0.49373">
        <ele>142.2</ele>
        <time>2023-07-14T08:53:18Z</time>
      </trkpt>
      <trkpt lat="44.79775" lon="0.4937">
        <ele>142.2</ele>
        <time>2023-07-14T08:53:19Z</time>
      </trkpt>
      <trkpt lat="44.79776" lon="0.49363">
        <ele>142.2</ele>
        <time>2023-07-14T08:53:21Z</time>
      </trkpt>
      <trkpt lat="44.79777" lon="0.49355">
        <ele>142.2</ele>
        <time>2023-07-14T08:53:23Z</time>
      </trkpt>
      <trkpt lat="44.79777" lon="0.49351">
        <ele>142.1</ele>
        <time>2023-07-14T08:53:24Z</time>
      </trkpt>
      <trkpt lat="44.79778" lon="0.49348">
        <ele>142</ele>
        <time>2023-07-14T08:53:25Z</time>
      </trkpt>
      <trkpt lat="44.7978" lon="0.49342">
        <ele>141.9</ele>
        <time>2023-07-14T08:53:27Z</time>
      </trkpt>
      <trkpt lat="44.79781" lon="0.49341">
        <ele>141.2</ele>
        <time>2023-07-14T08:53:28Z</time>
      </trkpt>
      <trkpt lat="44.79784" lon="0.4934">
        <ele>140.8</ele>
        <time>2023-07-14T08:53:29Z</time>
      </trkpt>
      <trkpt lat="44.79792" lon="0.49338">
        <ele>139.4</ele>
        <time>2023-07-14T08:53:31Z</time>
      </trkpt>
      <trkpt lat="44.79803" lon="0.49331">
        <ele>137.6</ele>
        <time>2023-07-14T08:53:33Z</time>
      </trkpt>
      <trkpt lat="44.79809" lon="0.49327">
        <ele>136.3</ele>
        <time>2023-07-14T08:53:34Z</time>
      </trkpt>
      <trkpt lat="44.79817" lon="0.49321">
        <ele>134.6</ele>
        <time>2023-07-14T08:53:35Z</time>
      </trkpt>
      <trkpt lat="44.79834" lon="0.4931">
        <ele>131.6</ele>
        <time>2023-07-14T08:53:37Z</time>
      </trkpt>
      <trkpt lat="44.79842" lon="0.49307">
        <ele>130.2</ele>
        <time>2023-07-14T08:53:38Z</time>
      </trkpt>
      <trkpt lat="44.79851" lon="0.49305">
        <ele>128.9</ele>
        <time>2023-07-14T08:53:39Z</time>
      </trkpt>
      <trkpt lat="44.79859" lon="0.49306">
        <ele>127.7</ele>
        <time>2023-07-14T08:53:40Z</time>
      </trkpt>
      <trkpt lat="44.79867" lon="0.49307">
        <ele>126.6</ele>
        <time>2023-07-14T08:53:41Z</time>
      </trkpt>
      <trkpt lat="44.79873" lon="0.49307">
        <ele>125.8</ele>
        <time>2023-07-14T08:53:42Z</time>
      </trkpt>
      <trkpt lat="44.79877" lon="0.49307">
        <ele>125.3</ele>
        <time>2023-07-14T08:53:43Z</time>
      </trkpt>
      <trkpt lat="44.7988" lon="0.49306">
        <ele>124.9</ele>
        <time>2023-07-14T08:53:44Z</time>
      </trkpt>
      <trkpt lat="44.79882" lon="0.49304">
        <ele>124.6</ele>
        <time>2023-07-14T08:53:45Z</time>
      </trkpt>
      <trkpt lat="44.79884" lon="0.49302">
        <ele>124.3</ele>
        <time>2023-07-14T08:53:46Z</time>
      </trkpt>
      <trkpt lat="44.79884" lon="0.493">
        <ele>124.1</ele>
        <time>2023-07-14T08:53:47Z</time>
      </trkpt>
      <trkpt lat="44.79882" lon="0.49295">
        <ele>124.3</ele>
        <time>2023-07-14T08:53:49Z</time>
      </trkpt>
      <trkpt lat="44.79879" lon="0.49291">
        <ele>124.7</ele>
        <time>2023-07-14T08:53:51Z</time>
      </trkpt>
      <trkpt lat="44.79876" lon="0.49287">
        <ele>125.2</ele>
        <time>2023-07-14T08:53:53Z</time>
      </trkpt>
      <trkpt lat="44.79873" lon="0.49283">
        <ele>125.6</ele>
        <time>2023-07-14T08:53:55Z</time>
      </trkpt>
      <trkpt lat="44.79871" lon="0.4928">
        <ele>125.8</ele>
        <time>2023-07-14T08:53:56Z</time>
      </trkpt>
      <trkpt lat="44.7987" lon="0.49278">
        <ele>126</ele>
        <time>2023-07-14T08:53:57Z</time>
      </trkpt>
      <trkpt lat="44.79867" lon="0.49274">
        <ele>126.4</ele>
        <time>2023-07-14T08:53:59Z</time>
      </trkpt>
      <trkpt lat="44.79866" lon="0.49268">
        <ele>126.9</ele>
        <time>2023-07-14T08:54:01Z</time>
      </trkpt>
      <trkpt lat="44.79863" lon="0.49262">
        <ele>127.4</ele>
        <time>2023-07-14T08:54:03Z</time>
      </trkpt>
      <trkpt lat="44.79862" lon="0.49259">
        <ele>127.6</ele>
        <time>2023-07-14T08:54:04Z</time>
      </trkpt>
      <trkpt lat="44.79861" lon="0.49256">
        <ele>127.9</ele>
        <time>2023-07-14T08:54:05Z</time>
      </trkpt>
      <trkpt lat="44.79858" lon="0.49249">
        <ele>128.4</ele>
        <time>2023-07-14T08:54:07Z</time>
      </trkpt>
      <trkpt lat="44.79854" lon="0.49244">
        <ele>128.9</ele>
        <time>2023-07-14T08:54:09Z</time>
      </trkpt>
      <trkpt lat="44.79853" lon="0.49241">
        <ele>129.2</ele>
        <time>2023-07-14T08:54:10Z</time>
      </trkpt>
      <trkpt lat="44.79851" lon="0.49238">
        <ele>129.4</ele>
        <time>2023-07-14T08:54:11Z</time>
      </trkpt>
      <trkpt lat="44.79847" lon="0.49233">
        <ele>129.9</ele>
        <time>2023-07-14T08:54:13Z</time>
      </trkpt>
      <trkpt lat="44.79844" lon="0.49228">
        <ele>130.3</ele>
        <time>2023-07-14T08:54:15Z</time>
      </trkpt>
      <trkpt lat="44.7984" lon="0.49223">
        <ele>130.7</ele>
        <time>2023-07-14T08:54:17Z</time>
      </trkpt>
      <trkpt lat="44.79837" lon="0.49217">
        <ele>131.2</ele>
        <time>2023-07-14T08:54:19Z</time>
      </trkpt>
      <trkpt lat="44.79835" lon="0.49214">
        <ele>131.4</ele>
        <time>2023-07-14T08:54:20Z</time>
      </trkpt>
      <trkpt lat="44.79833" lon="0.49212">
        <ele>131.6</ele>
        <time>2023-07-14T08:54:21Z</time>
      </trkpt>
      <trkpt lat="44.7983" lon="0.49207">
        <ele>132</ele>
        <time>2023-07-14T08:54:23Z</time>
      </trkpt>
      <trkpt lat="44.79826" lon="0.49203">
        <ele>132.4</ele>
        <time>2023-07-14T08:54:25Z</time>
      </trkpt>
      <trkpt lat="44.79822" lon="0.492">
        <ele>132.7</ele>
        <time>2023-07-14T08:54:27Z</time>
      </trkpt>
      <trkpt lat="44.7982" lon="0.49198">
        <ele>132.9</ele>
        <time>2023-07-14T08:54:28Z</time>
      </trkpt>
      <trkpt lat="44.79817" lon="0.49197">
        <ele>133.1</ele>
        <time>2023-07-14T08:54:29Z</time>
      </trkpt>
      <trkpt lat="44.79813" lon="0.49193">
        <ele>133.5</ele>
        <time>2023-07-14T08:54:31Z</time>
      </trkpt>
      <trkpt lat="44.79808" lon="0.4919">
        <ele>133.9</ele>
        <time>2023-07-14T08:54:33Z</time>
      </trkpt>
      <trkpt lat="44.79803" lon="0.49188">
        <ele>134.3</ele>
        <time>2023-07-14T08:54:35Z</time>
      </trkpt>
      <trkpt lat="44.79801" lon="0.49187">
        <ele>134.5</ele>
        <time>2023-07-14T08:54:36Z</time>
      </trkpt>
      <trkpt lat="44.79798" lon="0.49186">
        <ele>134.7</ele>
        <time>2023-07-14T08:54:37Z</time>
      </trkpt>
      <trkpt lat="44.79794" lon="0.49185">
        <ele>135</ele>
        <time>2023-07-14T08:54:39Z</time>
      </trkpt>
      <trkpt lat="44.79789" lon="0.49184">
        <ele>135.4</ele>
        <time>2023-07-14T08:54:41Z</time>
      </trkpt>
      <trkpt lat="44.79785" lon="0.49184">
        <ele>135.8</ele>
        <time>2023-07-14T08:54:43Z</time>
      </trkpt>
      <trkpt lat="44.79783" lon="0.49184">
        <ele>135.9</ele>
        <time>2023-07-14T08:54:44Z</time>
      </trkpt>
      <trkpt lat="44.79782" lon="0.49184">
        <ele>136.1</ele>
        <time>2023-07-14T08:54:45Z</time>
      </trkpt>
      <trkpt lat="44.79778" lon="0.49184">
        <ele>136.3</ele>
        <time>2023-07-14T08:54:47Z</time>
      </trkpt>
      <trkpt lat="44.79775" lon="0.49185">
        <ele>136.6</ele>
        <time>2023-07-14T08:54:49Z</time>
      </trkpt>
      <trkpt lat="44.79772" lon="0.49185">
        <ele>136.9</ele>
        <time>2023-07-14T08:54:51Z</time>
      </trkpt>
      <trkpt lat="44.79769" lon="0.49187">
        <ele>137.2</ele>
        <time>2023-07-14T08:54:53Z</time>
      </trkpt>
      <trkpt lat="44.79766" lon="0.49188">
        <ele>137.5</ele>
        <time>2023-07-14T08:54:55Z</time>
      </trkpt>
      <trkpt lat="44.79763" lon="0.49188">
        <ele>137.8</ele>
        <time>2023-07-14T08:54:57Z</time>
      </trkpt>
      <trkpt lat="44.7976" lon="0.49189">
        <ele>138</ele>
        <time>2023-07-14T08:54:59Z</time>
      </trkpt>
      <trkpt lat="44.79757" lon="0.4919">
        <ele>138.3</ele>
        <time>2023-07-14T08:55:01Z</time>
      </trkpt>
      <trkpt lat="44.79755" lon="0.49192">
        <ele>138.6</ele>
        <time>2023-07-14T08:55:03Z</time>
      </trkpt>
      <trkpt lat="44.79752" lon="0.49194">
        <ele>138.9</ele>
        <time>2023-07-14T08:55:05Z</time>
      </trkpt>
      <trkpt lat="44.7975" lon="0.49196">
        <ele>139.1</ele>
        <time>2023-07-14T08:55:07Z</time>
      </trkpt>
      <trkpt lat="44.79747" lon="0.49197">
        <ele>139.4</ele>
        <time>2023-07-14T08:55:09Z</time>
      </trkpt>
      <trkpt lat="44.79744" lon="0.49198">
        <ele>139.7</ele>
        <time>2023-07-14T08:55:11Z</time>
      </trkpt>
      <trkpt lat="44.79741" lon="0.49199">
        <ele>140</ele>
        <time>2023-07-14T08:55:13Z</time>
      </trkpt>
      <trkpt lat="44.79737" lon="0.492">
        <ele>140.3</ele>
        <time>2023-07-14T08:55:15Z</time>
      </trkpt>
      <trkpt lat="44.79735" lon="0.49201">
        <ele>140.5</ele>
        <time>2023-07-14T08:55:16Z</time>
      </trkpt>
      <trkpt lat="44.79734" lon="0.49202">
        <ele>140.6</ele>
        <time>2023-07-14T08:55:17Z</time>
      </trkpt>
      <trkpt lat="44.79729" lon="0.49203">
        <ele>141</ele>
        <time>2023-07-14T08:55:19Z</time>
      </trkpt>
      <trkpt lat="44.79726" lon="0.49204">
        <ele>141.3</ele>
        <time>2023-07-14T08:55:21Z</time>
      </trkpt>
      <trkpt lat="44.79721" lon="0.49206">
        <ele>141.7</ele>
        <time>2023-07-14T08:55:23Z</time>
      </trkpt>
      <trkpt lat="44.79719" lon="0.49207">
        <ele>141.8</ele>
        <time>2023-07-14T08:55:24Z</time>
      </trkpt>
      <trkpt lat="44.79717" lon="0.49208">
        <ele>142</ele>
        <time>2023-07-14T08:55:25Z</time>
      </trkpt>
      <trkpt lat="44.79713" lon="0.49211">
        <ele>142.4</ele>
        <time>2023-07-14T08:55:27Z</time>
      </trkpt>
      <trkpt lat="44.7971" lon="0.49213">
        <ele>142.7</ele>
        <time>2023-07-14T08:55:29Z</time>
      </trkpt>
      <trkpt lat="44.79707" lon="0.49216">
        <ele>142.9</ele>
        <time>2023-07-14T08:55:31Z</time>
      </trkpt>
      <trkpt lat="44.79703" lon="0.49217">
        <ele>143.3</ele>
        <time>2023-07-14T08:55:33Z</time>
      </trkpt>
      <trkpt lat="44.79699" lon="0.49219">
        <ele>143.6</ele>
        <time>2023-07-14T08:55:35Z</time>
      </trkpt>
      <trkpt lat="44.79694" lon="0.4922">
        <ele>144</ele>
        <time>2023-07-14T08:55:37Z</time>
      </trkpt>
      <trkpt lat="44.7969" lon="0.4922">
        <ele>144.4</ele>
        <time>2023-07-14T08:55:39Z</time>
      </trkpt>
      <trkpt lat="44.79685" lon="0.49219">
        <ele>144.7</ele>
        <time>2023-07-14T08:55:41Z</time>
      </trkpt>
      <trkpt lat="44.79683" lon="0.49219">
        <ele>144.9</ele>
        <time>2023-07-14T08:55:42Z</time>
      </trkpt>
      <trkpt lat="44.79681" lon="0.49218">
        <ele>144.9</ele>
        <time>2023-07-14T08:55:43Z</time>
      </trkpt>
      <trkpt lat="44.79678" lon="0.49214">
        <ele>144.5</ele>
        <time>2023-07-14T08:55:45Z</time>
      </trkpt>
      <trkpt lat="44.79677" lon="0.49213">
        <ele>144.6</ele>
        <time>2023-07-14T08:55:46Z</time>
      </trkpt>
      <trkpt lat="44.79676" lon="0.49211">
        <ele>144.6</ele>
        <time>2023-07-14T08:55:47Z</time>
      </trkpt>
      <trkpt lat="44.79677" lon="0.49205">
        <ele>143.9</ele>
        <time>2023-07-14T08:55:49Z</time>
      </trkpt>
      <trkpt lat="44.79675" lon="0.49194">
        <ele>143.3</ele>
        <time>2023-07-14T08:55:51Z</time>
      </trkpt>
      <trkpt lat="44.79674" lon="0.49187">
        <ele>142.7</ele>
        <time>2023-07-14T08:55:52Z</time>
      </trkpt>
      <trkpt lat="44.79673" lon="0.4918">
        <ele>142.3</ele>
        <time>2023-07-14T08:55:53Z</time>
      </trkpt>
      <trkpt lat="44.79669" lon="0.49163">
        <ele>141.6</ele>
        <time>2023-07-14T08:55:55Z</time>
      </trkpt>
      <trkpt lat="44.79667" lon="0.49153">
        <ele>141.3</ele>
        <time>2023-07-14T08:55:56Z</time>
      </trkpt>
      <trkpt lat="44.79665" lon="0.49142">
        <ele>141.4</ele>
        <time>2023-07-14T08:55:57Z</time>
      </trkpt>
      <trkpt lat="44.7966" lon="0.49118">
        <ele>142.2</ele>
        <time>2023-07-14T08:55:59Z</time>
      </trkpt>
      <trkpt lat="44.79657" lon="0.49107">
        <ele>142.9</ele>
        <time>2023-07-14T08:56:00Z</time>
      </trkpt>
      <trkpt lat="44.79654" lon="0.49096">
        <ele>143.4</ele>
        <time>2023-07-14T08:56:01Z</time>
      </trkpt>
      <trkpt lat="44.7965" lon="0.49079">
        <ele>144.4</ele>
        <time>2023-07-14T08:56:03Z</time>
      </trkpt>
      <trkpt lat="44.79648" lon="0.49067">
        <ele>145.5</ele>
        <time>2023-07-14T08:56:05Z</time>
      </trkpt>
      <trkpt lat="44.79646" lon="0.4906">
        <ele>146.1</ele>
        <time>2023-07-14T08:56:07Z</time>
      </trkpt>
      <trkpt lat="44.79644" lon="0.49055">
        <ele>146.7</ele>
        <time>2023-07-14T08:56:09Z</time>
      </trkpt>
      <trkpt lat="44.79643" lon="0.49051">
        <ele>147</ele>
        <time>2023-07-14T08:56:11Z</time>
      </trkpt>
      <trkpt lat="44.79642" lon="0.49046">
        <ele>147.7</ele>
        <time>2023-07-14T08:56:13Z</time>
      </trkpt>
      <trkpt lat="44.79641" lon="0.49041">
        <ele>148</ele>
        <time>2023-07-14T08:56:15Z</time>
      </trkpt>
      <trkpt lat="44.7964" lon="0.49036">
        <ele>148.4</ele>
        <time>2023-07-14T08:56:17Z</time>
      </trkpt>
      <trkpt lat="44.79639" lon="0.49031">
        <ele>149</ele>
        <time>2023-07-14T08:56:19Z</time>
      </trkpt>
      <trkpt lat="44.79637" lon="0.49027">
        <ele>149.4</ele>
        <time>2023-07-14T08:56:21Z</time>
      </trkpt>
      <trkpt lat="44.79636" lon="0.49026">
        <ele>150</ele>
        <time>2023-07-14T08:56:22Z</time>
      </trkpt>
      <trkpt lat="44.79635" lon="0.49025">
        <ele>150</ele>
        <time>2023-07-14T08:56:23Z</time>
      </trkpt>
      <trkpt lat="44.79633" lon="0.49025">
        <ele>150.3</ele>
        <time>2023-07-14T08:56:25Z</time>
      </trkpt>
      <trkpt lat="44.79632" lon="0.49026">
        <ele>150.3</ele>
        <time>2023-07-14T08:56:26Z</time>
      </trkpt>
      <trkpt lat="44.79631" lon="0.49027">
        <ele>149.9</ele>
        <time>2023-07-14T08:56:27Z</time>
      </trkpt>
      <trkpt lat="44.79628" lon="0.49029">
        <ele>150.1</ele>
        <time>2023-07-14T08:56:29Z</time>
      </trkpt>
      <trkpt lat="44.79625" lon="0.4903">
        <ele>150.3</ele>
        <time>2023-07-14T08:56:31Z</time>
      </trkpt>
      <trkpt lat="44.79622" lon="0.49032">
        <ele>150.1</ele>
        <time>2023-07-14T08:56:33Z</time>
      </trkpt>
      <trkpt lat="44.7962" lon="0.49033">
        <ele>150.1</ele>
        <time>2023-07-14T08:56:35Z</time>
      </trkpt>
      <trkpt lat="44.79618" lon="0.49035">
        <ele>149.9</ele>
        <time>2023-07-14T08:56:37Z</time>
      </trkpt>
      <trkpt lat="44.79616" lon="0.49036">
        <ele>149.9</ele>
        <time>2023-07-14T08:56:38Z</time>
      </trkpt>
      <trkpt lat="44.79615" lon="0.49036">
        <ele>149.9</ele>
        <time>2023-07-14T08:56:39Z</time>
      </trkpt>
      <trkpt lat="44.79612" lon="0.49035">
        <ele>150</ele>
        <time>2023-07-14T08:56:41Z</time>
      </trkpt>
      <trkpt lat="44.79611" lon="0.49034">
        <ele>150.3</ele>
        <time>2023-07-14T08:56:42Z</time>
      </trkpt>
      <trkpt lat="44.79611" lon="0.49033">
        <ele>150.3</ele>
        <time>2023-07-14T08:56:43Z</time>
      </trkpt>
      <trkpt lat="44.79612" lon="0.49029">
        <ele>150.7</ele>
        <time>2023-07-14T08:56:45Z</time>
      </trkpt>
      <trkpt lat="44.79612" lon="0.49025">
        <ele>151</ele>
        <time>2023-07-14T08:56:47Z</time>
      </trkpt>
      <trkpt lat="44.79613" lon="0.49023">
        <ele>151</ele>
        <time>2023-07-14T08:56:48Z</time>
      </trkpt>
      <trkpt lat="44.79614" lon="0.49022">
        <ele>151.3</ele>
        <time>2023-07-14T08:56:49Z</time>
      </trkpt>
      <trkpt lat="44.79616" lon="0.49019">
        <ele>151.2</ele>
        <time>2023-07-14T08:56:51Z</time>
      </trkpt>
      <trkpt lat="44.79618" lon="0.49017">
        <ele>151.5</ele>
        <time>2023-07-14T08:56:52Z</time>
      </trkpt>
      <trkpt lat="44.79619" lon="0.49015">
        <ele>151.5</ele>
        <time>2023-07-14T08:56:53Z</time>
      </trkpt>
      <trkpt lat="44.79621" lon="0.49011">
        <ele>151.6</ele>
        <time>2023-07-14T08:56:55Z</time>
      </trkpt>
      <trkpt lat="44.79624" lon="0.49005">
        <ele>151.7</ele>
        <time>2023-07-14T08:56:57Z</time>
      </trkpt>
      <trkpt lat="44.79625" lon="0.49003">
        <ele>151.8</ele>
        <time>2023-07-14T08:56:58Z</time>
      </trkpt>
      <trkpt lat="44.79628" lon="0.49">
        <ele>151.7</ele>
        <time>2023-07-14T08:56:59Z</time>
      </trkpt>
      <trkpt lat="44.79634" lon="0.49">
        <ele>151.4</ele>
        <time>2023-07-14T08:57:01Z</time>
      </trkpt>
      <trkpt lat="44.79641" lon="0.49">
        <ele>150.9</ele>
        <time>2023-07-14T08:57:03Z</time>
      </trkpt>
      <trkpt lat="44.79647" lon="0.48999">
        <ele>150.3</ele>
        <time>2023-07-14T08:57:05Z</time>
      </trkpt>
      <trkpt lat="44.7965" lon="0.48996">
        <ele>150.2</ele>
        <time>2023-07-14T08:57:06Z</time>
      </trkpt>
      <trkpt lat="44.79652" lon="0.48993">
        <ele>149.9</ele>
        <time>2023-07-14T08:57:07Z</time>
      </trkpt>
      <trkpt lat="44.79654" lon="0.4899">
        <ele>150</ele>
        <time>2023-07-14T08:57:08Z</time>
      </trkpt>
      <trkpt lat="44.79655" lon="0.48987">
        <ele>149.9</ele>
        <time>2023-07-14T08:57:09Z</time>
      </trkpt>
      <trkpt lat="44.79658" lon="0.48982">
        <ele>150</ele>
        <time>2023-07-14T08:57:11Z</time>
      </trkpt>
      <trkpt lat="44.7966" lon="0.4898">
        <ele>149.6</ele>
        <time>2023-07-14T08:57:12Z</time>
      </trkpt>
      <trkpt lat="44.79662" lon="0.48977">
        <ele>149.4</ele>
        <time>2023-07-14T08:57:13Z</time>
      </trkpt>
      <trkpt lat="44.79666" lon="0.48971">
        <ele>149.1</ele>
        <time>2023-07-14T08:57:15Z</time>
      </trkpt>
      <trkpt lat="44.79668" lon="0.48969">
        <ele>148.8</ele>
        <time>2023-07-14T08:57:16Z</time>
      </trkpt>
      <trkpt lat="44.79671" lon="0.48966">
        <ele>148.5</ele>
        <time>2023-07-14T08:57:17Z</time>
      </trkpt>
      <trkpt lat="44.79675" lon="0.48959">
        <ele>148.3</ele>
        <time>2023-07-14T08:57:19Z</time>
      </trkpt>
      <trkpt lat="44.79678" lon="0.48957">
        <ele>148.1</ele>
        <time>2023-07-14T08:57:20Z</time>
      </trkpt>
      <trkpt lat="44.79679" lon="0.48955">
        <ele>148.1</ele>
        <time>2023-07-14T08:57:21Z</time>
      </trkpt>
      <trkpt lat="44.79681" lon="0.4895">
        <ele>148</ele>
        <time>2023-07-14T08:57:23Z</time>
      </trkpt>
      <trkpt lat="44.79683" lon="0.48947">
        <ele>147.9</ele>
        <time>2023-07-14T08:57:24Z</time>
      </trkpt>
      <trkpt lat="44.79684" lon="0.48944">
        <ele>148.2</ele>
        <time>2023-07-14T08:57:25Z</time>
      </trkpt>
      <trkpt lat="44.79685" lon="0.48941">
        <ele>148.3</ele>
        <time>2023-07-14T08:57:26Z</time>
      </trkpt>
      <trkpt lat="44.79687" lon="0.48937">
        <ele>148.1</ele>
        <time>2023-07-14T08:57:27Z</time>
      </trkpt>
      <trkpt lat="44.79691" lon="0.48936">
        <ele>148</ele>
        <time>2023-07-14T08:57:28Z</time>
      </trkpt>
      <trkpt lat="44.79695" lon="0.48935">
        <ele>146.8</ele>
        <time>2023-07-14T08:57:29Z</time>
      </trkpt>
      <trkpt lat="44.79699" lon="0.48937">
        <ele>145.9</ele>
        <time>2023-07-14T08:57:30Z</time>
      </trkpt>
      <trkpt lat="44.79703" lon="0.48939">
        <ele>145.3</ele>
        <time>2023-07-14T08:57:31Z</time>
      </trkpt>
      <trkpt lat="44.79706" lon="0.48939">
        <ele>144.8</ele>
        <time>2023-07-14T08:57:32Z</time>
      </trkpt>
      <trkpt lat="44.79708" lon="0.48938">
        <ele>144.2</ele>
        <time>2023-07-14T08:57:33Z</time>
      </trkpt>
      <trkpt lat="44.79716" lon="0.48932">
        <ele>143.2</ele>
        <time>2023-07-14T08:57:35Z</time>
      </trkpt>
      <trkpt lat="44.79725" lon="0.48928">
        <ele>141.1</ele>
        <time>2023-07-14T08:57:37Z</time>
      </trkpt>
      <trkpt lat="44.79728" lon="0.48927">
        <ele>140.9</ele>
        <time>2023-07-14T08:57:38Z</time>
      </trkpt>
      <trkpt lat="44.79731" lon="0.48926">
        <ele>140.2</ele>
        <time>2023-07-14T08:57:39Z</time>
      </trkpt>
      <trkpt lat="44.79738" lon="0.48924">
        <ele>138.9</ele>
        <time>2023-07-14T08:57:41Z</time>
      </trkpt>
      <trkpt lat="44.79739" lon="0.48922">
        <ele>139.4</ele>
        <time>2023-07-14T08:57:42Z</time>
      </trkpt>
      <trkpt lat="44.7974" lon="0.48921">
        <ele>139.4</ele>
        <time>2023-07-14T08:57:43Z</time>
      </trkpt>
      <trkpt lat="44.79739" lon="0.48918">
        <ele>139.8</ele>
        <time>2023-07-14T08:57:45Z</time>
      </trkpt>
      <trkpt lat="44.7974" lon="0.48917">
        <ele>139.2</ele>
        <time>2023-07-14T08:57:46Z</time>
      </trkpt>
      <trkpt lat="44.79741" lon="0.48915">
        <ele>139.2</ele>
        <time>2023-07-14T08:57:47Z</time>
      </trkpt>
      <trkpt lat="44.79744" lon="0.4891">
        <ele>139.4</ele>
        <time>2023-07-14T08:57:49Z</time>
      </trkpt>
      <trkpt lat="44.79747" lon="0.48906">
        <ele>139.2</ele>
        <time>2023-07-14T08:57:51Z</time>
      </trkpt>
      <trkpt lat="44.79749" lon="0.48902">
        <ele>139</ele>
        <time>2023-07-14T08:57:53Z</time>
      </trkpt>
      <trkpt lat="44.79751" lon="0.48897">
        <ele>139.5</ele>
        <time>2023-07-14T08:57:55Z</time>
      </trkpt>
      <trkpt lat="44.79753" lon="0.48892">
        <ele>139.5</ele>
        <time>2023-07-14T08:57:57Z</time>
      </trkpt>
      <trkpt lat="44.79757" lon="0.48887">
        <ele>139.4</ele>
        <time>2023-07-14T08:57:59Z</time>
      </trkpt>
      <trkpt lat="44.79759" lon="0.48885">
        <ele>138.8</ele>
        <time>2023-07-14T08:58:00Z</time>
      </trkpt>
      <trkpt lat="44.79761" lon="0.48884">
        <ele>139.4</ele>
        <time>2023-07-14T08:58:01Z</time>
      </trkpt>
      <trkpt lat="44.79763" lon="0.48882">
        <ele>138.8</ele>
        <time>2023-07-14T08:58:02Z</time>
      </trkpt>
      <trkpt lat="44.79766" lon="0.4888">
        <ele>138.8</ele>
        <time>2023-07-14T08:58:03Z</time>
      </trkpt>
      <trkpt lat="44.79769" lon="0.48874">
        <ele>138.8</ele>
        <time>2023-07-14T08:58:05Z</time>
      </trkpt>
      <trkpt lat="44.79769" lon="0.48872">
        <ele>139.2</ele>
        <time>2023-07-14T08:58:06Z</time>
      </trkpt>
      <trkpt lat="44.79769" lon="0.48869">
        <ele>139.2</ele>
        <time>2023-07-14T08:58:07Z</time>
      </trkpt>
      <trkpt lat="44.7977" lon="0.48864">
        <ele>139.6</ele>
        <time>2023-07-14T08:58:09Z</time>
      </trkpt>
      <trkpt lat="44.79771" lon="0.48858">
        <ele>139.9</ele>
        <time>2023-07-14T08:58:11Z</time>
      </trkpt>
      <trkpt lat="44.79775" lon="0.48852">
        <ele>139.7</ele>
        <time>2023-07-14T08:58:13Z</time>
      </trkpt>
      <trkpt lat="44.79778" lon="0.48852">
        <ele>139.1</ele>
        <time>2023-07-14T08:58:14Z</time>
      </trkpt>
      <trkpt lat="44.79781" lon="0.48851">
        <ele>138.5</ele>
        <time>2023-07-14T08:58:15Z</time>
      </trkpt>
      <trkpt lat="44.7979" lon="0.48846">
        <ele>137.8</ele>
        <time>2023-07-14T08:58:17Z</time>
      </trkpt>
      <trkpt lat="44.79796" lon="0.48844">
        <ele>136.9</ele>
        <time>2023-07-14T08:58:18Z</time>
      </trkpt>
      <trkpt lat="44.79799" lon="0.48842">
        <ele>136.3</ele>
        <time>2023-07-14T08:58:19Z</time>
      </trkpt>
      <trkpt lat="44.798" lon="0.4884">
        <ele>136.8</ele>
        <time>2023-07-14T08:58:20Z</time>
      </trkpt>
      <trkpt lat="44.79802" lon="0.48837">
        <ele>136.7</ele>
        <time>2023-07-14T08:58:21Z</time>
      </trkpt>
      <trkpt lat="44.79805" lon="0.48833">
        <ele>136.6</ele>
        <time>2023-07-14T08:58:23Z</time>
      </trkpt>
      <trkpt lat="44.79806" lon="0.4883">
        <ele>136.6</ele>
        <time>2023-07-14T08:58:24Z</time>
      </trkpt>
      <trkpt lat="44.79807" lon="0.48828">
        <ele>136.4</ele>
        <time>2023-07-14T08:58:25Z</time>
      </trkpt>
      <trkpt lat="44.79809" lon="0.48824">
        <ele>136.8</ele>
        <time>2023-07-14T08:58:27Z</time>
      </trkpt>
      <trkpt lat="44.7981" lon="0.48818">
        <ele>137.2</ele>
        <time>2023-07-14T08:58:29Z</time>
      </trkpt>
      <trkpt lat="44.79812" lon="0.48814">
        <ele>137.1</ele>
        <time>2023-07-14T08:58:31Z</time>
      </trkpt>
      <trkpt lat="44.79813" lon="0.48811">
        <ele>137.5</ele>
        <time>2023-07-14T08:58:32Z</time>
      </trkpt>
      <trkpt lat="44.79814" lon="0.48808">
        <ele>136.9</ele>
        <time>2023-07-14T08:58:33Z</time>
      </trkpt>
      <trkpt lat="44.79813" lon="0.48802">
        <ele>138.3</ele>
        <time>2023-07-14T08:58:35Z</time>
      </trkpt>
      <trkpt lat="44.79811" lon="0.48797">
        <ele>138.8</ele>
        <time>2023-07-14T08:58:37Z</time>
      </trkpt>
      <trkpt lat="44.7981" lon="0.48792">
        <ele>139.2</ele>
        <time>2023-07-14T08:58:39Z</time>
      </trkpt>
      <trkpt lat="44.79809" lon="0.48787">
        <ele>140.2</ele>
        <time>2023-07-14T08:58:41Z</time>
      </trkpt>
      <trkpt lat="44.79809" lon="0.48783">
        <ele>140.6</ele>
        <time>2023-07-14T08:58:43Z</time>
      </trkpt>
      <trkpt lat="44.79809" lon="0.48778">
        <ele>141</ele>
        <time>2023-07-14T08:58:45Z</time>
      </trkpt>
      <trkpt lat="44.79808" lon="0.48775">
        <ele>141.4</ele>
        <time>2023-07-14T08:58:46Z</time>
      </trkpt>
      <trkpt lat="44.79809" lon="0.48773">
        <ele>141.8</ele>
        <time>2023-07-14T08:58:47Z</time>
      </trkpt>
      <trkpt lat="44.79808" lon="0.4877">
        <ele>141.8</ele>
        <time>2023-07-14T08:58:48Z</time>
      </trkpt>
      <trkpt lat="44.79808" lon="0.48768">
        <ele>142.2</ele>
        <time>2023-07-14T08:58:49Z</time>
      </trkpt>
      <trkpt lat="44.79809" lon="0.48764">
        <ele>142.5</ele>
        <time>2023-07-14T08:58:51Z</time>
      </trkpt>
      <trkpt lat="44.79809" lon="0.48762">
        <ele>142.5</ele>
        <time>2023-07-14T08:58:52Z</time>
      </trkpt>
      <trkpt lat="44.79809" lon="0.48759">
        <ele>142.9</ele>
        <time>2023-07-14T08:58:53Z</time>
      </trkpt>
      <trkpt lat="44.79809" lon="0.48757">
        <ele>142.9</ele>
        <time>2023-07-14T08:58:54Z</time>
      </trkpt>
      <trkpt lat="44.79808" lon="0.48754">
        <ele>143.3</ele>
        <time>2023-07-14T08:58:55Z</time>
      </trkpt>
      <trkpt lat="44.79806" lon="0.48753">
        <ele>143.8</ele>
        <time>2023-07-14T08:58:56Z</time>
      </trkpt>
      <trkpt lat="44.79805" lon="0.48752">
        <ele>144.1</ele>
        <time>2023-07-14T08:58:57Z</time>
      </trkpt>
      <trkpt lat="44.79804" lon="0.4875">
        <ele>144.1</ele>
        <time>2023-07-14T08:58:58Z</time>
      </trkpt>
      <trkpt lat="44.79803" lon="0.48748">
        <ele>144.6</ele>
        <time>2023-07-14T08:58:59Z</time>
      </trkpt>
      <trkpt lat="44.79802" lon="0.48745">
        <ele>144.9</ele>
        <time>2023-07-14T08:59:01Z</time>
      </trkpt>
      <trkpt lat="44.79802" lon="0.48743">
        <ele>145.2</ele>
        <time>2023-07-14T08:59:02Z</time>
      </trkpt>
      <trkpt lat="44.79802" lon="0.48741">
        <ele>145.2</ele>
        <time>2023-07-14T08:59:03Z</time>
      </trkpt>
      <trkpt lat="44.79803" lon="0.48738">
        <ele>145.4</ele>
        <time>2023-07-14T08:59:04Z</time>
      </trkpt>
      <trkpt lat="44.79803" lon="0.48736">
        <ele>145.4</ele>
        <time>2023-07-14T08:59:05Z</time>
      </trkpt>
      <trkpt lat="44.79804" lon="0.48734">
        <ele>145.7</ele>
        <time>2023-07-14T08:59:06Z</time>
      </trkpt>
      <trkpt lat="44.79805" lon="0.48733">
        <ele>145.3</ele>
        <time>2023-07-14T08:59:07Z</time>
      </trkpt>
      <trkpt lat="44.79809" lon="0.4873">
        <ele>145</ele>
        <time>2023-07-14T08:59:09Z</time>
      </trkpt>
      <trkpt lat="44.7981" lon="0.48728">
        <ele>145.1</ele>
        <time>2023-07-14T08:59:10Z</time>
      </trkpt>
      <trkpt lat="44.79811" lon="0.48726">
        <ele>144.9</ele>
        <time>2023-07-14T08:59:11Z</time>
      </trkpt>
      <trkpt lat="44.79813" lon="0.48723">
        <ele>144.9</ele>
        <time>2023-07-14T08:59:12Z</time>
      </trkpt>
      <trkpt lat="44.79815" lon="0.4872">
        <ele>144.7</ele>
        <time>2023-07-14T08:59:13Z</time>
      </trkpt>
      <trkpt lat="44.79816" lon="0.48718">
        <ele>144.7</ele>
        <time>2023-07-14T08:59:14Z</time>
      </trkpt>
      <trkpt lat="44.79816" lon="0.48715">
        <ele>144.6</ele>
        <time>2023-07-14T08:59:15Z</time>
      </trkpt>
      <trkpt lat="44.79818" lon="0.48712">
        <ele>144.9</ele>
        <time>2023-07-14T08:59:16Z</time>
      </trkpt>
      <trkpt lat="44.79818" lon="0.48709">
        <ele>144.9</ele>
        <time>2023-07-14T08:59:17Z</time>
      </trkpt>
      <trkpt lat="44.79819" lon="0.48706">
        <ele>145.2</ele>
        <time>2023-07-14T08:59:18Z</time>
      </trkpt>
      <trkpt lat="44.79819" lon="0.48703">
        <ele>145.1</ele>
        <time>2023-07-14T08:59:19Z</time>
      </trkpt>
      <trkpt lat="44.79821" lon="0.48701">
        <ele>145.1</ele>
        <time>2023-07-14T08:59:20Z</time>
      </trkpt>
      <trkpt lat="44.79822" lon="0.48698">
        <ele>145.4</ele>
        <time>2023-07-14T08:59:21Z</time>
      </trkpt>
      <trkpt lat="44.79823" lon="0.48693">
        <ele>145.3</ele>
        <time>2023-07-14T08:59:23Z</time>
      </trkpt>
      <trkpt lat="44.79824" lon="0.48687">
        <ele>145.8</ele>
        <time>2023-07-14T08:59:25Z</time>
      </trkpt>
      <trkpt lat="44.79825" lon="0.48681">
        <ele>145.4</ele>
        <time>2023-07-14T08:59:27Z</time>
      </trkpt>
      <trkpt lat="44.79826" lon="0.48675">
        <ele>145.6</ele>
        <time>2023-07-14T08:59:29Z</time>
      </trkpt>
      <trkpt lat="44.79824" lon="0.48669">
        <ele>146.3</ele>
        <time>2023-07-14T08:59:31Z</time>
      </trkpt>
      <trkpt lat="44.79824" lon="0.48666">
        <ele>146.3</ele>
        <time>2023-07-14T08:59:32Z</time>
      </trkpt>
      <trkpt lat="44.79825" lon="0.48663">
        <ele>146.3</ele>
        <time>2023-07-14T08:59:33Z</time>
      </trkpt>
      <trkpt lat="44.79826" lon="0.48658">
        <ele>145.8</ele>
        <time>2023-07-14T08:59:35Z</time>
      </trkpt>
      <trkpt lat="44.79826" lon="0.48653">
        <ele>145.7</ele>
        <time>2023-07-14T08:59:37Z</time>
      </trkpt>
      <trkpt lat="44.79825" lon="0.48651">
        <ele>146.2</ele>
        <time>2023-07-14T08:59:38Z</time>
      </trkpt>
      <trkpt lat="44.79824" lon="0.48649">
        <ele>146.1</ele>
        <time>2023-07-14T08:59:39Z</time>
      </trkpt>
      <trkpt lat="44.79826" lon="0.48644">
        <ele>145.6</ele>
        <time>2023-07-14T08:59:41Z</time>
      </trkpt>
      <trkpt lat="44.79827" lon="0.4864">
        <ele>145.5</ele>
        <time>2023-07-14T08:59:43Z</time>
      </trkpt>
      <trkpt lat="44.79828" lon="0.48637">
        <ele>145.5</ele>
        <time>2023-07-14T08:59:45Z</time>
      </trkpt>
      <trkpt lat="44.79829" lon="0.48634">
        <ele>144.9</ele>
        <time>2023-07-14T08:59:47Z</time>
      </trkpt>
      <trkpt lat="44.79829" lon="0.4863">
        <ele>144.8</ele>
        <time>2023-07-14T08:59:49Z</time>
      </trkpt>
      <trkpt lat="44.79823" lon="0.48606">
        <ele>145</ele>
        <time>2023-07-14T09:00:14Z</time>
      </trkpt>
      <trkpt lat="44.79822" lon="0.48602">
        <ele>145</ele>
        <time>2023-07-14T09:00:15Z</time>
      </trkpt>
      <trkpt lat="44.79821" lon="0.48595">
        <ele>145</ele>
        <time>2023-07-14T09:00:17Z</time>
      </trkpt>
      <trkpt lat="44.79821" lon="0.48588">
        <ele>144.3</ele>
        <time>2023-07-14T09:00:19Z</time>
      </trkpt>
      <trkpt lat="44.79819" lon="0.48585">
        <ele>144.7</ele>
        <time>2023-07-14T09:00:20Z</time>
      </trkpt>
      <trkpt lat="44.79815" lon="0.4858">
        <ele>144.3</ele>
        <time>2023-07-14T09:00:21Z</time>
      </trkpt>
      <trkpt lat="44.79815" lon="0.48574">
        <ele>143.8</ele>
        <time>2023-07-14T09:00:22Z</time>
      </trkpt>
      <trkpt lat="44.79815" lon="0.48568">
        <ele>143.4</ele>
        <time>2023-07-14T09:00:23Z</time>
      </trkpt>
      <trkpt lat="44.79817" lon="0.4856">
        <ele>142.3</ele>
        <time>2023-07-14T09:00:25Z</time>
      </trkpt>
      <trkpt lat="44.79817" lon="0.48558">
        <ele>141.9</ele>
        <time>2023-07-14T09:00:26Z</time>
      </trkpt>
      <trkpt lat="44.79817" lon="0.48557">
        <ele>141.9</ele>
        <time>2023-07-14T09:00:27Z</time>
      </trkpt>
      <trkpt lat="44.79816" lon="0.48555">
        <ele>142.2</ele>
        <time>2023-07-14T09:00:29Z</time>
      </trkpt>
      <trkpt lat="44.79815" lon="0.48555">
        <ele>142.2</ele>
        <time>2023-07-14T09:00:30Z</time>
      </trkpt>
      <trkpt lat="44.79813" lon="0.48554">
        <ele>141.8</ele>
        <time>2023-07-14T09:00:31Z</time>
      </trkpt>
      <trkpt lat="44.79811" lon="0.48555">
        <ele>142.6</ele>
        <time>2023-07-14T09:00:33Z</time>
      </trkpt>
      <trkpt lat="44.79809" lon="0.48554">
        <ele>142.5</ele>
        <time>2023-07-14T09:00:34Z</time>
      </trkpt>
      <trkpt lat="44.79807" lon="0.48554">
        <ele>142.5</ele>
        <time>2023-07-14T09:00:35Z</time>
      </trkpt>
      <trkpt lat="44.79804" lon="0.48555">
        <ele>143.3</ele>
        <time>2023-07-14T09:00:37Z</time>
      </trkpt>
      <trkpt lat="44.79799" lon="0.48554">
        <ele>143.5</ele>
        <time>2023-07-14T09:00:39Z</time>
      </trkpt>
      <trkpt lat="44.79795" lon="0.48554">
        <ele>143.8</ele>
        <time>2023-07-14T09:00:41Z</time>
      </trkpt>
      <trkpt lat="44.7979" lon="0.48552">
        <ele>144.3</ele>
        <time>2023-07-14T09:00:43Z</time>
      </trkpt>
      <trkpt lat="44.79783" lon="0.48551">
        <ele>144.8</ele>
        <time>2023-07-14T09:00:45Z</time>
      </trkpt>
      <trkpt lat="44.79778" lon="0.48551">
        <ele>145.2</ele>
        <time>2023-07-14T09:00:47Z</time>
      </trkpt>
      <trkpt lat="44.79772" lon="0.48552">
        <ele>145.6</ele>
        <time>2023-07-14T09:00:49Z</time>
      </trkpt>
      <trkpt lat="44.79766" lon="0.48553">
        <ele>145.8</ele>
        <time>2023-07-14T09:00:51Z</time>
      </trkpt>
      <trkpt lat="44.79761" lon="0.48554">
        <ele>145.9</ele>
        <time>2023-07-14T09:00:53Z</time>
      </trkpt>
      <trkpt lat="44.79759" lon="0.48554">
        <ele>145.9</ele>
        <time>2023-07-14T09:00:54Z</time>
      </trkpt>
      <trkpt lat="44.79756" lon="0.48555">
        <ele>146.4</ele>
        <time>2023-07-14T09:00:55Z</time>
      </trkpt>
      <trkpt lat="44.7975" lon="0.48558">
        <ele>146.5</ele>
        <time>2023-07-14T09:00:57Z</time>
      </trkpt>
      <trkpt lat="44.79747" lon="0.48559">
        <ele>147</ele>
        <time>2023-07-14T09:00:58Z</time>
      </trkpt>
      <trkpt lat="44.79744" lon="0.48559">
        <ele>147</ele>
        <time>2023-07-14T09:00:59Z</time>
      </trkpt>
      <trkpt lat="44.79738" lon="0.4856">
        <ele>147</ele>
        <time>2023-07-14T09:01:01Z</time>
      </trkpt>
      <trkpt lat="44.79735" lon="0.48562">
        <ele>147</ele>
        <time>2023-07-14T09:01:02Z</time>
      </trkpt>
      <trkpt lat="44.79733" lon="0.48564">
        <ele>147.6</ele>
        <time>2023-07-14T09:01:03Z</time>
      </trkpt>
      <trkpt lat="44.79727" lon="0.48569">
        <ele>148.2</ele>
        <time>2023-07-14T09:01:05Z</time>
      </trkpt>
      <trkpt lat="44.7972" lon="0.48572">
        <ele>148.8</ele>
        <time>2023-07-14T09:01:07Z</time>
      </trkpt>
      <trkpt lat="44.79717" lon="0.48574">
        <ele>148.9</ele>
        <time>2023-07-14T09:01:08Z</time>
      </trkpt>
      <trkpt lat="44.79714" lon="0.48575">
        <ele>149</ele>
        <time>2023-07-14T09:01:09Z</time>
      </trkpt>
      <trkpt lat="44.79708" lon="0.48578">
        <ele>149.5</ele>
        <time>2023-07-14T09:01:11Z</time>
      </trkpt>
      <trkpt lat="44.79703" lon="0.48581">
        <ele>150.1</ele>
        <time>2023-07-14T09:01:13Z</time>
      </trkpt>
      <trkpt lat="44.797" lon="0.48582">
        <ele>150.2</ele>
        <time>2023-07-14T09:01:14Z</time>
      </trkpt>
      <trkpt lat="44.79698" lon="0.48583">
        <ele>150.2</ele>
        <time>2023-07-14T09:01:15Z</time>
      </trkpt>
      <trkpt lat="44.79694" lon="0.48586">
        <ele>150.7</ele>
        <time>2023-07-14T09:01:17Z</time>
      </trkpt>
      <trkpt lat="44.79689" lon="0.48587">
        <ele>150.8</ele>
        <time>2023-07-14T09:01:19Z</time>
      </trkpt>
      <trkpt lat="44.79684" lon="0.48586">
        <ele>151.1</ele>
        <time>2023-07-14T09:01:21Z</time>
      </trkpt>
      <trkpt lat="44.79683" lon="0.48587">
        <ele>151.1</ele>
        <time>2023-07-14T09:01:22Z</time>
      </trkpt>
      <trkpt lat="44.79683" lon="0.48588">
        <ele>151.1</ele>
        <time>2023-07-14T09:01:23Z</time>
      </trkpt>
      <trkpt lat="44.79679" lon="0.48582">
        <ele>151</ele>
        <time>2023-07-14T09:01:25Z</time>
      </trkpt>
      <trkpt lat="44.79676" lon="0.48577">
        <ele>150.9</ele>
        <time>2023-07-14T09:01:26Z</time>
      </trkpt>
      <trkpt lat="44.79673" lon="0.48573">
        <ele>150.6</ele>
        <time>2023-07-14T09:01:27Z</time>
      </trkpt>
      <trkpt lat="44.79668" lon="0.48567">
        <ele>150.4</ele>
        <time>2023-07-14T09:01:29Z</time>
      </trkpt>
      <trkpt lat="44.79666" lon="0.48566">
        <ele>150.6</ele>
        <time>2023-07-14T09:01:31Z</time>
      </trkpt>
      <trkpt lat="44.79648" lon="0.48559">
        <ele>151.4</ele>
        <time>2023-07-14T09:02:07Z</time>
      </trkpt>
      <trkpt lat="44.79645" lon="0.48556">
        <ele>151.4</ele>
        <time>2023-07-14T09:02:09Z</time>
      </trkpt>
      <trkpt lat="44.79643" lon="0.48552">
        <ele>151.2</ele>
        <time>2023-07-14T09:02:11Z</time>
      </trkpt>
      <trkpt lat="44.79642" lon="0.48547">
        <ele>151.2</ele>
        <time>2023-07-14T09:02:13Z</time>
      </trkpt>
      <trkpt lat="44.79641" lon="0.48543">
        <ele>151</ele>
        <time>2023-07-14T09:02:15Z</time>
      </trkpt>
      <trkpt lat="44.7964" lon="0.4854">
        <ele>150.8</ele>
        <time>2023-07-14T09:02:17Z</time>
      </trkpt>
      <trkpt lat="44.79639" lon="0.48535">
        <ele>150.9</ele>
        <time>2023-07-14T09:02:19Z</time>
      </trkpt>
      <trkpt lat="44.79638" lon="0.4853">
        <ele>150.6</ele>
        <time>2023-07-14T09:02:21Z</time>
      </trkpt>
      <trkpt lat="44.79637" lon="0.48529">
        <ele>150.4</ele>
        <time>2023-07-14T09:02:22Z</time>
      </trkpt>
      <trkpt lat="44.79637" lon="0.48526">
        <ele>150.4</ele>
        <time>2023-07-14T09:02:23Z</time>
      </trkpt>
      <trkpt lat="44.79637" lon="0.48524">
        <ele>150.2</ele>
        <time>2023-07-14T09:02:24Z</time>
      </trkpt>
      <trkpt lat="44.79637" lon="0.48523">
        <ele>150.2</ele>
        <time>2023-07-14T09:02:25Z</time>
      </trkpt>
      <trkpt lat="44.79638" lon="0.48521">
        <ele>150.2</ele>
        <time>2023-07-14T09:02:26Z</time>
      </trkpt>
      <trkpt lat="44.79639" lon="0.48519">
        <ele>150</ele>
        <time>2023-07-14T09:02:27Z</time>
      </trkpt>
      <trkpt lat="44.79641" lon="0.48514">
        <ele>149.5</ele>
        <time>2023-07-14T09:02:29Z</time>
      </trkpt>
      <trkpt lat="44.79643" lon="0.4851">
        <ele>148.9</ele>
        <time>2023-07-14T09:02:30Z</time>
      </trkpt>
      <trkpt lat="44.79644" lon="0.48507">
        <ele>148.9</ele>
        <time>2023-07-14T09:02:31Z</time>
      </trkpt>
      <trkpt lat="44.79644" lon="0.48505">
        <ele>148.7</ele>
        <time>2023-07-14T09:02:32Z</time>
      </trkpt>
      <trkpt lat="44.79644" lon="0.48501">
        <ele>148.6</ele>
        <time>2023-07-14T09:02:33Z</time>
      </trkpt>
      <trkpt lat="44.79643" lon="0.48496">
        <ele>148.4</ele>
        <time>2023-07-14T09:02:35Z</time>
      </trkpt>
      <trkpt lat="44.79643" lon="0.48494">
        <ele>148.3</ele>
        <time>2023-07-14T09:02:36Z</time>
      </trkpt>
      <trkpt lat="44.79645" lon="0.48492">
        <ele>148.3</ele>
        <time>2023-07-14T09:02:37Z</time>
      </trkpt>
      <trkpt lat="44.79646" lon="0.4849">
        <ele>147.7</ele>
        <time>2023-07-14T09:02:38Z</time>
      </trkpt>
      <trkpt lat="44.79645" lon="0.48487">
        <ele>148.1</ele>
        <time>2023-07-14T09:02:39Z</time>
      </trkpt>
      <trkpt lat="44.79644" lon="0.4848">
        <ele>147.8</ele>
        <time>2023-07-14T09:02:41Z</time>
      </trkpt>
      <trkpt lat="44.79643" lon="0.48471">
        <ele>147.5</ele>
        <time>2023-07-14T09:02:43Z</time>
      </trkpt>
      <trkpt lat="44.79641" lon="0.48462">
        <ele>147.7</ele>
        <time>2023-07-14T09:02:45Z</time>
      </trkpt>
      <trkpt lat="44.7964" lon="0.48452">
        <ele>147.4</ele>
        <time>2023-07-14T09:02:47Z</time>
      </trkpt>
      <trkpt lat="44.7964" lon="0.48446">
        <ele>147.1</ele>
        <time>2023-07-14T09:02:48Z</time>
      </trkpt>
      <trkpt lat="44.79641" lon="0.48442">
        <ele>146.9</ele>
        <time>2023-07-14T09:02:49Z</time>
      </trkpt>
      <trkpt lat="44.7964" lon="0.48438">
        <ele>146.8</ele>
        <time>2023-07-14T09:02:50Z</time>
      </trkpt>
      <trkpt lat="44.7964" lon="0.48434">
        <ele>146.6</ele>
        <time>2023-07-14T09:02:51Z</time>
      </trkpt>
      <trkpt lat="44.79639" lon="0.48425">
        <ele>146.9</ele>
        <time>2023-07-14T09:02:53Z</time>
      </trkpt>
      <trkpt lat="44.79637" lon="0.48416">
        <ele>146.6</ele>
        <time>2023-07-14T09:02:55Z</time>
      </trkpt>
      <trkpt lat="44.79636" lon="0.48413">
        <ele>147.2</ele>
        <time>2023-07-14T09:02:56Z</time>
      </trkpt>
      <trkpt lat="44.79635" lon="0.4841">
        <ele>147.1</ele>
        <time>2023-07-14T09:02:57Z</time>
      </trkpt>
      <trkpt lat="44.79634" lon="0.48405">
        <ele>147</ele>
        <time>2023-07-14T09:02:59Z</time>
      </trkpt>
      <trkpt lat="44.79633" lon="0.48402">
        <ele>147.5</ele>
        <time>2023-07-14T09:03:00Z</time>
      </trkpt>
      <trkpt lat="44.79631" lon="0.48397">
        <ele>147.4</ele>
        <time>2023-07-14T09:03:01Z</time>
      </trkpt>
      <trkpt lat="44.7963" lon="0.48392">
        <ele>147.8</ele>
        <time>2023-07-14T09:03:02Z</time>
      </trkpt>
      <trkpt lat="44.7963" lon="0.48387">
        <ele>147.7</ele>
        <time>2023-07-14T09:03:03Z</time>
      </trkpt>
      <trkpt lat="44.7963" lon="0.48376">
        <ele>147.4</ele>
        <time>2023-07-14T09:03:05Z</time>
      </trkpt>
      <trkpt lat="44.79632" lon="0.48367">
        <ele>146.8</ele>
        <time>2023-07-14T09:03:07Z</time>
      </trkpt>
      <trkpt lat="44.79632" lon="0.48363">
        <ele>146.8</ele>
        <time>2023-07-14T09:03:08Z</time>
      </trkpt>
      <trkpt lat="44.79631" lon="0.48358">
        <ele>146.7</ele>
        <time>2023-07-14T09:03:09Z</time>
      </trkpt>
      <trkpt lat="44.79629" lon="0.48354">
        <ele>147.2</ele>
        <time>2023-07-14T09:03:11Z</time>
      </trkpt>
      <trkpt lat="44.79628" lon="0.48351">
        <ele>147.1</ele>
        <time>2023-07-14T09:03:12Z</time>
      </trkpt>
      <trkpt lat="44.79626" lon="0.48348">
        <ele>147.6</ele>
        <time>2023-07-14T09:03:13Z</time>
      </trkpt>
      <trkpt lat="44.79621" lon="0.48341">
        <ele>148</ele>
        <time>2023-07-14T09:03:15Z</time>
      </trkpt>
      <trkpt lat="44.7962" lon="0.4834">
        <ele>148.5</ele>
        <time>2023-07-14T09:03:16Z</time>
      </trkpt>
      <trkpt lat="44.79619" lon="0.48339">
        <ele>148.3</ele>
        <time>2023-07-14T09:03:17Z</time>
      </trkpt>
      <trkpt lat="44.79617" lon="0.48336">
        <ele>148.8</ele>
        <time>2023-07-14T09:03:19Z</time>
      </trkpt>
      <trkpt lat="44.79615" lon="0.48335">
        <ele>149.3</ele>
        <time>2023-07-14T09:03:21Z</time>
      </trkpt>
      <trkpt lat="44.79612" lon="0.48331">
        <ele>149.3</ele>
        <time>2023-07-14T09:03:23Z</time>
      </trkpt>
      <trkpt lat="44.79611" lon="0.48325">
        <ele>149.6</ele>
        <time>2023-07-14T09:03:25Z</time>
      </trkpt>
      <trkpt lat="44.7961" lon="0.48321">
        <ele>149.4</ele>
        <time>2023-07-14T09:03:26Z</time>
      </trkpt>
      <trkpt lat="44.79608" lon="0.48316">
        <ele>149.9</ele>
        <time>2023-07-14T09:03:27Z</time>
      </trkpt>
      <trkpt lat="44.79605" lon="0.48311">
        <ele>150.3</ele>
        <time>2023-07-14T09:03:29Z</time>
      </trkpt>
      <trkpt lat="44.79603" lon="0.48309">
        <ele>150.1</ele>
        <time>2023-07-14T09:03:31Z</time>
      </trkpt>
      <trkpt lat="44.79583" lon="0.48293">
        <ele>153.6</ele>
        <time>2023-07-14T09:03:48Z</time>
      </trkpt>
      <trkpt lat="44.79581" lon="0.48292">
        <ele>154</ele>
        <time>2023-07-14T09:03:49Z</time>
      </trkpt>
      <trkpt lat="44.79578" lon="0.48289">
        <ele>154.6</ele>
        <time>2023-07-14T09:03:51Z</time>
      </trkpt>
      <trkpt lat="44.79575" lon="0.48286">
        <ele>154.9</ele>
        <time>2023-07-14T09:03:53Z</time>
      </trkpt>
      <trkpt lat="44.79573" lon="0.48285">
        <ele>155</ele>
        <time>2023-07-14T09:03:54Z</time>
      </trkpt>
      <trkpt lat="44.79572" lon="0.48285">
        <ele>155.1</ele>
        <time>2023-07-14T09:03:55Z</time>
      </trkpt>
      <trkpt lat="44.79571" lon="0.48285">
        <ele>155.2</ele>
        <time>2023-07-14T09:03:56Z</time>
      </trkpt>
      <trkpt lat="44.7957" lon="0.48284">
        <ele>155.3</ele>
        <time>2023-07-14T09:03:57Z</time>
      </trkpt>
      <trkpt lat="44.79569" lon="0.48283">
        <ele>155.3</ele>
        <time>2023-07-14T09:03:59Z</time>
      </trkpt>
      <trkpt lat="44.79519" lon="0.48248">
        <ele>156.1</ele>
        <time>2023-07-14T09:10:07Z</time>
      </trkpt>
      <trkpt lat="44.79516" lon="0.48245">
        <ele>156.1</ele>
        <time>2023-07-14T09:10:09Z</time>
      </trkpt>
      <trkpt lat="44.79513" lon="0.4824">
        <ele>156</ele>
        <time>2023-07-14T09:10:11Z</time>
      </trkpt>
      <trkpt lat="44.79512" lon="0.48237">
        <ele>155.9</ele>
        <time>2023-07-14T09:10:12Z</time>
      </trkpt>
      <trkpt lat="44.7951" lon="0.48234">
        <ele>155.9</ele>
        <time>2023-07-14T09:10:13Z</time>
      </trkpt>
      <trkpt lat="44.79509" lon="0.48227">
        <ele>155.8</ele>
        <time>2023-07-14T09:10:15Z</time>
      </trkpt>
      <trkpt lat="44.79507" lon="0.48219">
        <ele>155.6</ele>
        <time>2023-07-14T09:10:17Z</time>
      </trkpt>
      <trkpt lat="44.79507" lon="0.48215">
        <ele>155.6</ele>
        <time>2023-07-14T09:10:18Z</time>
      </trkpt>
      <trkpt lat="44.79506" lon="0.48212">
        <ele>155.5</ele>
        <time>2023-07-14T09:10:19Z</time>
      </trkpt>
      <trkpt lat="44.79503" lon="0.48205">
        <ele>155.4</ele>
        <time>2023-07-14T09:10:21Z</time>
      </trkpt>
      <trkpt lat="44.795" lon="0.48199">
        <ele>155.3</ele>
        <time>2023-07-14T09:10:23Z</time>
      </trkpt>
      <trkpt lat="44.79497" lon="0.48194">
        <ele>155.2</ele>
        <time>2023-07-14T09:10:25Z</time>
      </trkpt>
      <trkpt lat="44.79493" lon="0.48188">
        <ele>155.1</ele>
        <time>2023-07-14T09:10:27Z</time>
      </trkpt>
      <trkpt lat="44.79488" lon="0.48183">
        <ele>155</ele>
        <time>2023-07-14T09:10:29Z</time>
      </trkpt>
      <trkpt lat="44.79483" lon="0.48177">
        <ele>154.9</ele>
        <time>2023-07-14T09:10:31Z</time>
      </trkpt>
      <trkpt lat="44.79479" lon="0.48173">
        <ele>154.8</ele>
        <time>2023-07-14T09:10:33Z</time>
      </trkpt>
      <trkpt lat="44.79474" lon="0.48169">
        <ele>154.7</ele>
        <time>2023-07-14T09:10:35Z</time>
      </trkpt>
      <trkpt lat="44.7947" lon="0.48165">
        <ele>154.5</ele>
        <time>2023-07-14T09:10:37Z</time>
      </trkpt>
      <trkpt lat="44.79465" lon="0.48161">
        <ele>154.4</ele>
        <time>2023-07-14T09:10:39Z</time>
      </trkpt>
      <trkpt lat="44.79462" lon="0.4816">
        <ele>154.3</ele>
        <time>2023-07-14T09:10:40Z</time>
      </trkpt>
      <trkpt lat="44.7946" lon="0.48158">
        <ele>153.8</ele>
        <time>2023-07-14T09:10:41Z</time>
      </trkpt>
      <trkpt lat="44.79457" lon="0.48154">
        <ele>153.8</ele>
        <time>2023-07-14T09:10:43Z</time>
      </trkpt>
      <trkpt lat="44.79457" lon="0.4815">
        <ele>153.8</ele>
        <time>2023-07-14T09:10:44Z</time>
      </trkpt>
      <trkpt lat="44.79459" lon="0.48147">
        <ele>153.8</ele>
        <time>2023-07-14T09:10:45Z</time>
      </trkpt>
      <trkpt lat="44.79463" lon="0.4814">
        <ele>153.7</ele>
        <time>2023-07-14T09:10:47Z</time>
      </trkpt>
      <trkpt lat="44.79466" lon="0.48138">
        <ele>153.7</ele>
        <time>2023-07-14T09:10:48Z</time>
      </trkpt>
      <trkpt lat="44.79469" lon="0.48135">
        <ele>153.7</ele>
        <time>2023-07-14T09:10:49Z</time>
      </trkpt>
      <trkpt lat="44.79475" lon="0.4813">
        <ele>153.6</ele>
        <time>2023-07-14T09:10:51Z</time>
      </trkpt>
      <trkpt lat="44.79481" lon="0.48126">
        <ele>153.5</ele>
        <time>2023-07-14T09:10:53Z</time>
      </trkpt>
      <trkpt lat="44.79487" lon="0.48122">
        <ele>153.4</ele>
        <time>2023-07-14T09:10:55Z</time>
      </trkpt>
      <trkpt lat="44.79492" lon="0.48117">
        <ele>153.1</ele>
        <time>2023-07-14T09:10:57Z</time>
      </trkpt>
      <trkpt lat="44.79498" lon="0.48111">
        <ele>152.7</ele>
        <time>2023-07-14T09:10:59Z</time>
      </trkpt>
      <trkpt lat="44.79502" lon="0.48107">
        <ele>152.4</ele>
        <time>2023-07-14T09:11:00Z</time>
      </trkpt>
      <trkpt lat="44.79506" lon="0.48104">
        <ele>152.1</ele>
        <time>2023-07-14T09:11:01Z</time>
      </trkpt>
      <trkpt lat="44.79515" lon="0.48094">
        <ele>151.5</ele>
        <time>2023-07-14T09:11:03Z</time>
      </trkpt>
      <trkpt lat="44.79519" lon="0.48088">
        <ele>151.1</ele>
        <time>2023-07-14T09:11:04Z</time>
      </trkpt>
      <trkpt lat="44.79524" lon="0.48081">
        <ele>150.8</ele>
        <time>2023-07-14T09:11:05Z</time>
      </trkpt>
      <trkpt lat="44.79532" lon="0.48067">
        <ele>150.2</ele>
        <time>2023-07-14T09:11:07Z</time>
      </trkpt>
      <trkpt lat="44.79536" lon="0.48059">
        <ele>150.1</ele>
        <time>2023-07-14T09:11:08Z</time>
      </trkpt>
      <trkpt lat="44.79539" lon="0.48052">
        <ele>150</ele>
        <time>2023-07-14T09:11:09Z</time>
      </trkpt>
      <trkpt lat="44.79542" lon="0.48045">
        <ele>149.9</ele>
        <time>2023-07-14T09:11:10Z</time>
      </trkpt>
      <trkpt lat="44.79544" lon="0.48038">
        <ele>149.8</ele>
        <time>2023-07-14T09:11:11Z</time>
      </trkpt>
      <trkpt lat="44.79547" lon="0.48024">
        <ele>149.7</ele>
        <time>2023-07-14T09:11:13Z</time>
      </trkpt>
      <trkpt lat="44.79549" lon="0.48012">
        <ele>149.7</ele>
        <time>2023-07-14T09:11:15Z</time>
      </trkpt>
      <trkpt lat="44.7955" lon="0.48005">
        <ele>149.7</ele>
        <time>2023-07-14T09:11:16Z</time>
      </trkpt>
      <trkpt lat="44.79552" lon="0.48">
        <ele>149.8</ele>
        <time>2023-07-14T09:11:17Z</time>
      </trkpt>
      <trkpt lat="44.79553" lon="0.47994">
        <ele>149.8</ele>
        <time>2023-07-14T09:11:18Z</time>
      </trkpt>
      <trkpt lat="44.79555" lon="0.47989">
        <ele>149.8</ele>
        <time>2023-07-14T09:11:19Z</time>
      </trkpt>
      <trkpt lat="44.79557" lon="0.47978">
        <ele>149.8</ele>
        <time>2023-07-14T09:11:21Z</time>
      </trkpt>
      <trkpt lat="44.79559" lon="0.47966">
        <ele>149.9</ele>
        <time>2023-07-14T09:11:23Z</time>
      </trkpt>
      <trkpt lat="44.79561" lon="0.47955">
        <ele>149.9</ele>
        <time>2023-07-14T09:11:25Z</time>
      </trkpt>
      <trkpt lat="44.79565" lon="0.47942">
        <ele>149.9</ele>
        <time>2023-07-14T09:11:27Z</time>
      </trkpt>
      <trkpt lat="44.79568" lon="0.47931">
        <ele>149.8</ele>
        <time>2023-07-14T09:11:29Z</time>
      </trkpt>
      <trkpt lat="44.7957" lon="0.47919">
        <ele>149.8</ele>
        <time>2023-07-14T09:11:31Z</time>
      </trkpt>
      <trkpt lat="44.79571" lon="0.47913">
        <ele>149.8</ele>
        <time>2023-07-14T09:11:32Z</time>
      </trkpt>
      <trkpt lat="44.79573" lon="0.47907">
        <ele>149.9</ele>
        <time>2023-07-14T09:11:33Z</time>
      </trkpt>
      <trkpt lat="44.79575" lon="0.47895">
        <ele>150</ele>
        <time>2023-07-14T09:11:35Z</time>
      </trkpt>
      <trkpt lat="44.79578" lon="0.47884">
        <ele>150.2</ele>
        <time>2023-07-14T09:11:37Z</time>
      </trkpt>
      <trkpt lat="44.7958" lon="0.47873">
        <ele>150.3</ele>
        <time>2023-07-14T09:11:39Z</time>
      </trkpt>
      <trkpt lat="44.79582" lon="0.47862">
        <ele>150.4</ele>
        <time>2023-07-14T09:11:41Z</time>
      </trkpt>
      <trkpt lat="44.79584" lon="0.47851">
        <ele>150.6</ele>
        <time>2023-07-14T09:11:43Z</time>
      </trkpt>
      <trkpt lat="44.79584" lon="0.47839">
        <ele>150.8</ele>
        <time>2023-07-14T09:11:45Z</time>
      </trkpt>
      <trkpt lat="44.79585" lon="0.47827">
        <ele>151.1</ele>
        <time>2023-07-14T09:11:47Z</time>
      </trkpt>
      <trkpt lat="44.79585" lon="0.47819">
        <ele>151.3</ele>
        <time>2023-07-14T09:11:49Z</time>
      </trkpt>
      <trkpt lat="44.79586" lon="0.47811">
        <ele>151.6</ele>
        <time>2023-07-14T09:11:51Z</time>
      </trkpt>
      <trkpt lat="44.79586" lon="0.47803">
        <ele>151.8</ele>
        <time>2023-07-14T09:11:53Z</time>
      </trkpt>
      <trkpt lat="44.79587" lon="0.47795">
        <ele>152.1</ele>
        <time>2023-07-14T09:11:55Z</time>
      </trkpt>
      <trkpt lat="44.79588" lon="0.47787">
        <ele>152.3</ele>
        <time>2023-07-14T09:11:57Z</time>
      </trkpt>
      <trkpt lat="44.79588" lon="0.4778">
        <ele>152.5</ele>
        <time>2023-07-14T09:11:59Z</time>
      </trkpt>
      <trkpt lat="44.79588" lon="0.47772">
        <ele>152.7</ele>
        <time>2023-07-14T09:12:01Z</time>
      </trkpt>
      <trkpt lat="44.79588" lon="0.47764">
        <ele>153</ele>
        <time>2023-07-14T09:12:03Z</time>
      </trkpt>
      <trkpt lat="44.79588" lon="0.47756">
        <ele>153.2</ele>
        <time>2023-07-14T09:12:05Z</time>
      </trkpt>
      <trkpt lat="44.79589" lon="0.47748">
        <ele>153.5</ele>
        <time>2023-07-14T09:12:07Z</time>
      </trkpt>
      <trkpt lat="44.79589" lon="0.47744">
        <ele>153.6</ele>
        <time>2023-07-14T09:12:08Z</time>
      </trkpt>
      <trkpt lat="44.79589" lon="0.47741">
        <ele>153.8</ele>
        <time>2023-07-14T09:12:09Z</time>
      </trkpt>
      <trkpt lat="44.79589" lon="0.47734">
        <ele>154</ele>
        <time>2023-07-14T09:12:11Z</time>
      </trkpt>
      <trkpt lat="44.7959" lon="0.47726">
        <ele>154.2</ele>
        <time>2023-07-14T09:12:13Z</time>
      </trkpt>
      <trkpt lat="44.79591" lon="0.47719">
        <ele>154.4</ele>
        <time>2023-07-14T09:12:15Z</time>
      </trkpt>
      <trkpt lat="44.79591" lon="0.47715">
        <ele>154.5</ele>
        <time>2023-07-14T09:12:16Z</time>
      </trkpt>
      <trkpt lat="44.79591" lon="0.47712">
        <ele>154.6</ele>
        <time>2023-07-14T09:12:17Z</time>
      </trkpt>
      <trkpt lat="44.79592" lon="0.47704">
        <ele>154.7</ele>
        <time>2023-07-14T09:12:19Z</time>
      </trkpt>
      <trkpt lat="44.79593" lon="0.47697">
        <ele>154.9</ele>
        <time>2023-07-14T09:12:21Z</time>
      </trkpt>
      <trkpt lat="44.79593" lon="0.4769">
        <ele>155</ele>
        <time>2023-07-14T09:12:23Z</time>
      </trkpt>
      <trkpt lat="44.79593" lon="0.47687">
        <ele>155.1</ele>
        <time>2023-07-14T09:12:24Z</time>
      </trkpt>
      <trkpt lat="44.79593" lon="0.47684">
        <ele>155.1</ele>
        <time>2023-07-14T09:12:25Z</time>
      </trkpt>
      <trkpt lat="44.79594" lon="0.47677">
        <ele>155.2</ele>
        <time>2023-07-14T09:12:27Z</time>
      </trkpt>
      <trkpt lat="44.79594" lon="0.4767">
        <ele>155.3</ele>
        <time>2023-07-14T09:12:29Z</time>
      </trkpt>
      <trkpt lat="44.79595" lon="0.47662">
        <ele>155.4</ele>
        <time>2023-07-14T09:12:31Z</time>
      </trkpt>
      <trkpt lat="44.79595" lon="0.47655">
        <ele>155.6</ele>
        <time>2023-07-14T09:12:33Z</time>
      </trkpt>
      <trkpt lat="44.79596" lon="0.47647">
        <ele>155.6</ele>
        <time>2023-07-14T09:12:35Z</time>
      </trkpt>
      <trkpt lat="44.79596" lon="0.47644">
        <ele>155.7</ele>
        <time>2023-07-14T09:12:36Z</time>
      </trkpt>
      <trkpt lat="44.79597" lon="0.4764">
        <ele>155.7</ele>
        <time>2023-07-14T09:12:37Z</time>
      </trkpt>
      <trkpt lat="44.79598" lon="0.47632">
        <ele>155.8</ele>
        <time>2023-07-14T09:12:39Z</time>
      </trkpt>
      <trkpt lat="44.79598" lon="0.47624">
        <ele>155.9</ele>
        <time>2023-07-14T09:12:41Z</time>
      </trkpt>
      <trkpt lat="44.79598" lon="0.4762">
        <ele>155.9</ele>
        <time>2023-07-14T09:12:42Z</time>
      </trkpt>
      <trkpt lat="44.79599" lon="0.47616">
        <ele>155.9</ele>
        <time>2023-07-14T09:12:43Z</time>
      </trkpt>
      <trkpt lat="44.79601" lon="0.47609">
        <ele>155.9</ele>
        <time>2023-07-14T09:12:45Z</time>
      </trkpt>
      <trkpt lat="44.79602" lon="0.47601">
        <ele>155.9</ele>
        <time>2023-07-14T09:12:47Z</time>
      </trkpt>
      <trkpt lat="44.79604" lon="0.47592">
        <ele>155.9</ele>
        <time>2023-07-14T09:12:49Z</time>
      </trkpt>
      <trkpt lat="44.79605" lon="0.47584">
        <ele>155.9</ele>
        <time>2023-07-14T09:12:51Z</time>
      </trkpt>
      <trkpt lat="44.79606" lon="0.47575">
        <ele>155.9</ele>
        <time>2023-07-14T09:12:53Z</time>
      </trkpt>
      <trkpt lat="44.79607" lon="0.47566">
        <ele>155.8</ele>
        <time>2023-07-14T09:12:55Z</time>
      </trkpt>
      <trkpt lat="44.79608" lon="0.47562">
        <ele>155.6</ele>
        <time>2023-07-14T09:12:56Z</time>
      </trkpt>
      <trkpt lat="44.79611" lon="0.47558">
        <ele>155.5</ele>
        <time>2023-07-14T09:12:57Z</time>
      </trkpt>
      <trkpt lat="44.79614" lon="0.47556">
        <ele>155.4</ele>
        <time>2023-07-14T09:12:58Z</time>
      </trkpt>
      <trkpt lat="44.79618" lon="0.47555">
        <ele>155.2</ele>
        <time>2023-07-14T09:12:59Z</time>
      </trkpt>
      <trkpt lat="44.79626" lon="0.47554">
        <ele>154.9</ele>
        <time>2023-07-14T09:13:01Z</time>
      </trkpt>
      <trkpt lat="44.79635" lon="0.47554">
        <ele>154.6</ele>
        <time>2023-07-14T09:13:03Z</time>
      </trkpt>
      <trkpt lat="44.79645" lon="0.47554">
        <ele>154.1</ele>
        <time>2023-07-14T09:13:05Z</time>
      </trkpt>
      <trkpt lat="44.79656" lon="0.47555">
        <ele>153.6</ele>
        <time>2023-07-14T09:13:07Z</time>
      </trkpt>
      <trkpt lat="44.79667" lon="0.47555">
        <ele>153</ele>
        <time>2023-07-14T09:13:09Z</time>
      </trkpt>
      <trkpt lat="44.79679" lon="0.47555">
        <ele>152.4</ele>
        <time>2023-07-14T09:13:11Z</time>
      </trkpt>
      <trkpt lat="44.79686" lon="0.47555">
        <ele>152.1</ele>
        <time>2023-07-14T09:13:12Z</time>
      </trkpt>
      <trkpt lat="44.79692" lon="0.47556">
        <ele>151.8</ele>
        <time>2023-07-14T09:13:13Z</time>
      </trkpt>
      <trkpt lat="44.79706" lon="0.47557">
        <ele>151.2</ele>
        <time>2023-07-14T09:13:15Z</time>
      </trkpt>
      <trkpt lat="44.79719" lon="0.47558">
        <ele>150.6</ele>
        <time>2023-07-14T09:13:17Z</time>
      </trkpt>
      <trkpt lat="44.79725" lon="0.47558">
        <ele>150.3</ele>
        <time>2023-07-14T09:13:18Z</time>
      </trkpt>
      <trkpt lat="44.7973" lon="0.47557">
        <ele>150.1</ele>
        <time>2023-07-14T09:13:19Z</time>
      </trkpt>
      <trkpt lat="44.79739" lon="0.47547">
        <ele>149.9</ele>
        <time>2023-07-14T09:13:21Z</time>
      </trkpt>
      <trkpt lat="44.79743" lon="0.47535">
        <ele>149.8</ele>
        <time>2023-07-14T09:13:23Z</time>
      </trkpt>
      <trkpt lat="44.79747" lon="0.47522">
        <ele>149.6</ele>
        <time>2023-07-14T09:13:25Z</time>
      </trkpt>
      <trkpt lat="44.79751" lon="0.47509">
        <ele>149.4</ele>
        <time>2023-07-14T09:13:27Z</time>
      </trkpt>
      <trkpt lat="44.79755" lon="0.47495">
        <ele>149.3</ele>
        <time>2023-07-14T09:13:29Z</time>
      </trkpt>
      <trkpt lat="44.79759" lon="0.47481">
        <ele>149.2</ele>
        <time>2023-07-14T09:13:31Z</time>
      </trkpt>
      <trkpt lat="44.79763" lon="0.47467">
        <ele>149.2</ele>
        <time>2023-07-14T09:13:33Z</time>
      </trkpt>
      <trkpt lat="44.79764" lon="0.47459">
        <ele>149.2</ele>
        <time>2023-07-14T09:13:34Z</time>
      </trkpt>
      <trkpt lat="44.79763" lon="0.47451">
        <ele>149.2</ele>
        <time>2023-07-14T09:13:35Z</time>
      </trkpt>
      <trkpt lat="44.79761" lon="0.47443">
        <ele>149.3</ele>
        <time>2023-07-14T09:13:36Z</time>
      </trkpt>
      <trkpt lat="44.79759" lon="0.47435">
        <ele>149.4</ele>
        <time>2023-07-14T09:13:37Z</time>
      </trkpt>
      <trkpt lat="44.79753" lon="0.47421">
        <ele>149.5</ele>
        <time>2023-07-14T09:13:39Z</time>
      </trkpt>
      <trkpt lat="44.7975" lon="0.47414">
        <ele>149.5</ele>
        <time>2023-07-14T09:13:40Z</time>
      </trkpt>
      <trkpt lat="44.79748" lon="0.47407">
        <ele>149.6</ele>
        <time>2023-07-14T09:13:41Z</time>
      </trkpt>
      <trkpt lat="44.79747" lon="0.47401">
        <ele>149.6</ele>
        <time>2023-07-14T09:13:42Z</time>
      </trkpt>
      <trkpt lat="44.79745" lon="0.47394">
        <ele>149.6</ele>
        <time>2023-07-14T09:13:43Z</time>
      </trkpt>
      <trkpt lat="44.79743" lon="0.4738">
        <ele>149.7</ele>
        <time>2023-07-14T09:13:45Z</time>
      </trkpt>
      <trkpt lat="44.79742" lon="0.47367">
        <ele>149.8</ele>
        <time>2023-07-14T09:13:47Z</time>
      </trkpt>
      <trkpt lat="44.79743" lon="0.47353">
        <ele>149.8</ele>
        <time>2023-07-14T09:13:49Z</time>
      </trkpt>
      <trkpt lat="44.79746" lon="0.4734">
        <ele>148.7</ele>
        <time>2023-07-14T09:13:51Z</time>
      </trkpt>
      <trkpt lat="44.79749" lon="0.47327">
        <ele>147.7</ele>
        <time>2023-07-14T09:13:53Z</time>
      </trkpt>
      <trkpt lat="44.79752" lon="0.47315">
        <ele>146.7</ele>
        <time>2023-07-14T09:13:55Z</time>
      </trkpt>
      <trkpt lat="44.79753" lon="0.47309">
        <ele>145.7</ele>
        <time>2023-07-14T09:13:56Z</time>
      </trkpt>
      <trkpt lat="44.79755" lon="0.47303">
        <ele>145.4</ele>
        <time>2023-07-14T09:13:57Z</time>
      </trkpt>
      <trkpt lat="44.79758" lon="0.47293">
        <ele>144.4</ele>
        <time>2023-07-14T09:13:59Z</time>
      </trkpt>
      <trkpt lat="44.79761" lon="0.47282">
        <ele>143</ele>
        <time>2023-07-14T09:14:01Z</time>
      </trkpt>
      <trkpt lat="44.79764" lon="0.47271">
        <ele>141.6</ele>
        <time>2023-07-14T09:14:03Z</time>
      </trkpt>
      <trkpt lat="44.79767" lon="0.4726">
        <ele>140.7</ele>
        <time>2023-07-14T09:14:05Z</time>
      </trkpt>
      <trkpt lat="44.7977" lon="0.47249">
        <ele>139.8</ele>
        <time>2023-07-14T09:14:07Z</time>
      </trkpt>
      <trkpt lat="44.79773" lon="0.47237">
        <ele>139.2</ele>
        <time>2023-07-14T09:14:09Z</time>
      </trkpt>
      <trkpt lat="44.79776" lon="0.47225">
        <ele>138.7</ele>
        <time>2023-07-14T09:14:11Z</time>
      </trkpt>
      <trkpt lat="44.79778" lon="0.47219">
        <ele>138.1</ele>
        <time>2023-07-14T09:14:12Z</time>
      </trkpt>
      <trkpt lat="44.79779" lon="0.47212">
        <ele>138</ele>
        <time>2023-07-14T09:14:13Z</time>
      </trkpt>
      <trkpt lat="44.79783" lon="0.47198">
        <ele>137</ele>
        <time>2023-07-14T09:14:15Z</time>
      </trkpt>
      <trkpt lat="44.79785" lon="0.47183">
        <ele>136.7</ele>
        <time>2023-07-14T09:14:17Z</time>
      </trkpt>
      <trkpt lat="44.79785" lon="0.47175">
        <ele>136.4</ele>
        <time>2023-07-14T09:14:18Z</time>
      </trkpt>
      <trkpt lat="44.79785" lon="0.4717">
        <ele>136.2</ele>
        <time>2023-07-14T09:14:19Z</time>
      </trkpt>
      <trkpt lat="44.79784" lon="0.47166">
        <ele>136</ele>
        <time>2023-07-14T09:14:20Z</time>
      </trkpt>
      <trkpt lat="44.79782" lon="0.47164">
        <ele>136.2</ele>
        <time>2023-07-14T09:14:21Z</time>
      </trkpt>
      <trkpt lat="44.79779" lon="0.47161">
        <ele>136.6</ele>
        <time>2023-07-14T09:14:23Z</time>
      </trkpt>
      <trkpt lat="44.79775" lon="0.47161">
        <ele>136.9</ele>
        <time>2023-07-14T09:14:25Z</time>
      </trkpt>
      <trkpt lat="44.79773" lon="0.4716">
        <ele>137.1</ele>
        <time>2023-07-14T09:14:26Z</time>
      </trkpt>
      <trkpt lat="44.79771" lon="0.4716">
        <ele>137.3</ele>
        <time>2023-07-14T09:14:27Z</time>
      </trkpt>
      <trkpt lat="44.79767" lon="0.47159">
        <ele>137.6</ele>
        <time>2023-07-14T09:14:29Z</time>
      </trkpt>
      <trkpt lat="44.79764" lon="0.47158">
        <ele>137.9</ele>
        <time>2023-07-14T09:14:31Z</time>
      </trkpt>
      <trkpt lat="44.7976" lon="0.47156">
        <ele>138.3</ele>
        <time>2023-07-14T09:14:33Z</time>
      </trkpt>
      <trkpt lat="44.79757" lon="0.47154">
        <ele>138.6</ele>
        <time>2023-07-14T09:14:35Z</time>
      </trkpt>
      <trkpt lat="44.79752" lon="0.47152">
        <ele>139.1</ele>
        <time>2023-07-14T09:14:37Z</time>
      </trkpt>
      <trkpt lat="44.79748" lon="0.4715">
        <ele>139.5</ele>
        <time>2023-07-14T09:14:39Z</time>
      </trkpt>
      <trkpt lat="44.79746" lon="0.47149">
        <ele>139.7</ele>
        <time>2023-07-14T09:14:40Z</time>
      </trkpt>
      <trkpt lat="44.79744" lon="0.47148">
        <ele>139.9</ele>
        <time>2023-07-14T09:14:41Z</time>
      </trkpt>
      <trkpt lat="44.79739" lon="0.47147">
        <ele>140.3</ele>
        <time>2023-07-14T09:14:43Z</time>
      </trkpt>
      <trkpt lat="44.79737" lon="0.47146">
        <ele>140.5</ele>
        <time>2023-07-14T09:14:44Z</time>
      </trkpt>
      <trkpt lat="44.79735" lon="0.47146">
        <ele>140.7</ele>
        <time>2023-07-14T09:14:45Z</time>
      </trkpt>
      <trkpt lat="44.79731" lon="0.47144">
        <ele>141.1</ele>
        <time>2023-07-14T09:14:47Z</time>
      </trkpt>
      <trkpt lat="44.79728" lon="0.47143">
        <ele>141.4</ele>
        <time>2023-07-14T09:14:49Z</time>
      </trkpt>
      <trkpt lat="44.79726" lon="0.47142">
        <ele>141.6</ele>
        <time>2023-07-14T09:14:50Z</time>
      </trkpt>
      <trkpt lat="44.79724" lon="0.47141">
        <ele>141.8</ele>
        <time>2023-07-14T09:14:51Z</time>
      </trkpt>
      <trkpt lat="44.7972" lon="0.47139">
        <ele>142.2</ele>
        <time>2023-07-14T09:14:53Z</time>
      </trkpt>
      <trkpt lat="44.79716" lon="0.47138">
        <ele>142.6</ele>
        <time>2023-07-14T09:14:55Z</time>
      </trkpt>
      <trkpt lat="44.79712" lon="0.47136">
        <ele>143</ele>
        <time>2023-07-14T09:14:57Z</time>
      </trkpt>
      <trkpt lat="44.7971" lon="0.47136">
        <ele>143.2</ele>
        <time>2023-07-14T09:14:58Z</time>
      </trkpt>
      <trkpt lat="44.79708" lon="0.47135">
        <ele>143.4</ele>
        <time>2023-07-14T09:14:59Z</time>
      </trkpt>
      <trkpt lat="44.79704" lon="0.47134">
        <ele>143.7</ele>
        <time>2023-07-14T09:15:01Z</time>
      </trkpt>
      <trkpt lat="44.797" lon="0.47133">
        <ele>144.1</ele>
        <time>2023-07-14T09:15:03Z</time>
      </trkpt>
      <trkpt lat="44.79696" lon="0.47131">
        <ele>144.5</ele>
        <time>2023-07-14T09:15:05Z</time>
      </trkpt>
      <trkpt lat="44.79694" lon="0.47131">
        <ele>144.7</ele>
        <time>2023-07-14T09:15:06Z</time>
      </trkpt>
      <trkpt lat="44.79692" lon="0.47129">
        <ele>144.9</ele>
        <time>2023-07-14T09:15:07Z</time>
      </trkpt>
      <trkpt lat="44.79689" lon="0.47127">
        <ele>145.3</ele>
        <time>2023-07-14T09:15:09Z</time>
      </trkpt>
      <trkpt lat="44.79685" lon="0.47125">
        <ele>145.7</ele>
        <time>2023-07-14T09:15:11Z</time>
      </trkpt>
      <trkpt lat="44.79681" lon="0.47123">
        <ele>146</ele>
        <time>2023-07-14T09:15:13Z</time>
      </trkpt>
      <trkpt lat="44.79677" lon="0.47121">
        <ele>146.4</ele>
        <time>2023-07-14T09:15:15Z</time>
      </trkpt>
      <trkpt lat="44.79674" lon="0.4712">
        <ele>146.8</ele>
        <time>2023-07-14T09:15:17Z</time>
      </trkpt>
      <trkpt lat="44.7967" lon="0.47118">
        <ele>147.2</ele>
        <time>2023-07-14T09:15:19Z</time>
      </trkpt>
      <trkpt lat="44.79666" lon="0.47117">
        <ele>147.5</ele>
        <time>2023-07-14T09:15:21Z</time>
      </trkpt>
      <trkpt lat="44.79662" lon="0.47116">
        <ele>147.9</ele>
        <time>2023-07-14T09:15:23Z</time>
      </trkpt>
      <trkpt lat="44.79659" lon="0.47114">
        <ele>148.3</ele>
        <time>2023-07-14T09:15:25Z</time>
      </trkpt>
      <trkpt lat="44.79655" lon="0.47112">
        <ele>148.7</ele>
        <time>2023-07-14T09:15:27Z</time>
      </trkpt>
      <trkpt lat="44.79651" lon="0.4711">
        <ele>149.1</ele>
        <time>2023-07-14T09:15:29Z</time>
      </trkpt>
      <trkpt lat="44.79647" lon="0.47108">
        <ele>149.5</ele>
        <time>2023-07-14T09:15:31Z</time>
      </trkpt>
      <trkpt lat="44.79645" lon="0.47108">
        <ele>149.7</ele>
        <time>2023-07-14T09:15:32Z</time>
      </trkpt>
      <trkpt lat="44.79642" lon="0.47107">
        <ele>149.9</ele>
        <time>2023-07-14T09:15:33Z</time>
      </trkpt>
      <trkpt lat="44.79638" lon="0.47105">
        <ele>150.3</ele>
        <time>2023-07-14T09:15:35Z</time>
      </trkpt>
      <trkpt lat="44.79634" lon="0.47105">
        <ele>150.6</ele>
        <time>2023-07-14T09:15:37Z</time>
      </trkpt>
      <trkpt lat="44.7963" lon="0.47105">
        <ele>151</ele>
        <time>2023-07-14T09:15:39Z</time>
      </trkpt>
      <trkpt lat="44.79626" lon="0.47106">
        <ele>151.4</ele>
        <time>2023-07-14T09:15:41Z</time>
      </trkpt>
      <trkpt lat="44.79622" lon="0.47105">
        <ele>151.8</ele>
        <time>2023-07-14T09:15:43Z</time>
      </trkpt>
      <trkpt lat="44.79618" lon="0.47104">
        <ele>152.5</ele>
        <time>2023-07-14T09:15:45Z</time>
      </trkpt>
      <trkpt lat="44.79616" lon="0.47103">
        <ele>152.8</ele>
        <time>2023-07-14T09:15:46Z</time>
      </trkpt>
      <trkpt lat="44.79614" lon="0.47103">
        <ele>153.2</ele>
        <time>2023-07-14T09:15:47Z</time>
      </trkpt>
      <trkpt lat="44.7961" lon="0.47101">
        <ele>153.6</ele>
        <time>2023-07-14T09:15:49Z</time>
      </trkpt>
      <trkpt lat="44.79606" lon="0.47099">
        <ele>154.4</ele>
        <time>2023-07-14T09:15:51Z</time>
      </trkpt>
      <trkpt lat="44.79602" lon="0.47097">
        <ele>154.8</ele>
        <time>2023-07-14T09:15:53Z</time>
      </trkpt>
      <trkpt lat="44.79598" lon="0.47095">
        <ele>155.1</ele>
        <time>2023-07-14T09:15:55Z</time>
      </trkpt>
      <trkpt lat="44.79596" lon="0.47094">
        <ele>155.6</ele>
        <time>2023-07-14T09:15:56Z</time>
      </trkpt>
      <trkpt lat="44.79593" lon="0.47094">
        <ele>155.9</ele>
        <time>2023-07-14T09:15:57Z</time>
      </trkpt>
      <trkpt lat="44.79589" lon="0.47094">
        <ele>156.3</ele>
        <time>2023-07-14T09:15:59Z</time>
      </trkpt>
      <trkpt lat="44.79585" lon="0.47098">
        <ele>156.6</ele>
        <time>2023-07-14T09:16:01Z</time>
      </trkpt>
      <trkpt lat="44.79582" lon="0.47103">
        <ele>156.6</ele>
        <time>2023-07-14T09:16:03Z</time>
      </trkpt>
      <trkpt lat="44.79579" lon="0.47109">
        <ele>156.6</ele>
        <time>2023-07-14T09:16:05Z</time>
      </trkpt>
      <trkpt lat="44.79575" lon="0.47115">
        <ele>156.6</ele>
        <time>2023-07-14T09:16:07Z</time>
      </trkpt>
      <trkpt lat="44.79574" lon="0.47118">
        <ele>156.6</ele>
        <time>2023-07-14T09:16:08Z</time>
      </trkpt>
      <trkpt lat="44.79572" lon="0.47121">
        <ele>156.6</ele>
        <time>2023-07-14T09:16:09Z</time>
      </trkpt>
      <trkpt lat="44.79569" lon="0.47127">
        <ele>156.5</ele>
        <time>2023-07-14T09:16:11Z</time>
      </trkpt>
      <trkpt lat="44.79566" lon="0.47134">
        <ele>156.5</ele>
        <time>2023-07-14T09:16:13Z</time>
      </trkpt>
      <trkpt lat="44.79563" lon="0.47141">
        <ele>156.5</ele>
        <time>2023-07-14T09:16:15Z</time>
      </trkpt>
      <trkpt lat="44.79561" lon="0.47144">
        <ele>156.5</ele>
        <time>2023-07-14T09:16:16Z</time>
      </trkpt>
      <trkpt lat="44.7956" lon="0.47148">
        <ele>156.5</ele>
        <time>2023-07-14T09:16:17Z</time>
      </trkpt>
      <trkpt lat="44.79557" lon="0.47155">
        <ele>156.5</ele>
        <time>2023-07-14T09:16:19Z</time>
      </trkpt>
      <trkpt lat="44.79554" lon="0.47162">
        <ele>156.5</ele>
        <time>2023-07-14T09:16:21Z</time>
      </trkpt>
      <trkpt lat="44.79551" lon="0.4717">
        <ele>156.5</ele>
        <time>2023-07-14T09:16:23Z</time>
      </trkpt>
      <trkpt lat="44.79549" lon="0.47174">
        <ele>156.5</ele>
        <time>2023-07-14T09:16:24Z</time>
      </trkpt>
      <trkpt lat="44.79548" lon="0.47178">
        <ele>156.5</ele>
        <time>2023-07-14T09:16:25Z</time>
      </trkpt>
      <trkpt lat="44.79546" lon="0.47186">
        <ele>156.5</ele>
        <time>2023-07-14T09:16:27Z</time>
      </trkpt>
      <trkpt lat="44.79543" lon="0.47194">
        <ele>156.4</ele>
        <time>2023-07-14T09:16:29Z</time>
      </trkpt>
      <trkpt lat="44.7954" lon="0.47202">
        <ele>156.4</ele>
        <time>2023-07-14T09:16:31Z</time>
      </trkpt>
      <trkpt lat="44.79539" lon="0.47206">
        <ele>156.4</ele>
        <time>2023-07-14T09:16:32Z</time>
      </trkpt>
      <trkpt lat="44.79538" lon="0.4721">
        <ele>156.4</ele>
        <time>2023-07-14T09:16:33Z</time>
      </trkpt>
      <trkpt lat="44.79535" lon="0.47218">
        <ele>156.3</ele>
        <time>2023-07-14T09:16:35Z</time>
      </trkpt>
      <trkpt lat="44.79533" lon="0.47227">
        <ele>156.2</ele>
        <time>2023-07-14T09:16:37Z</time>
      </trkpt>
      <trkpt lat="44.7953" lon="0.47235">
        <ele>156.2</ele>
        <time>2023-07-14T09:16:39Z</time>
      </trkpt>
      <trkpt lat="44.79529" lon="0.47239">
        <ele>156.2</ele>
        <time>2023-07-14T09:16:40Z</time>
      </trkpt>
      <trkpt lat="44.79527" lon="0.47243">
        <ele>156.1</ele>
        <time>2023-07-14T09:16:41Z</time>
      </trkpt>
      <trkpt lat="44.79525" lon="0.47251">
        <ele>156.1</ele>
        <time>2023-07-14T09:16:43Z</time>
      </trkpt>
      <trkpt lat="44.79521" lon="0.47257">
        <ele>156.1</ele>
        <time>2023-07-14T09:16:45Z</time>
      </trkpt>
      <trkpt lat="44.79517" lon="0.47255">
        <ele>156.1</ele>
        <time>2023-07-14T09:16:47Z</time>
      </trkpt>
      <trkpt lat="44.79517" lon="0.47252">
        <ele>156.1</ele>
        <time>2023-07-14T09:16:48Z</time>
      </trkpt>
      <trkpt lat="44.79517" lon="0.47249">
        <ele>156.2</ele>
        <time>2023-07-14T09:16:49Z</time>
      </trkpt>
      <trkpt lat="44.79519" lon="0.47242">
        <ele>156.2</ele>
        <time>2023-07-14T09:16:51Z</time>
      </trkpt>
      <trkpt lat="44.79521" lon="0.47234">
        <ele>156.2</ele>
        <time>2023-07-14T09:16:53Z</time>
      </trkpt>
      <trkpt lat="44.79523" lon="0.47226">
        <ele>156.3</ele>
        <time>2023-07-14T09:16:55Z</time>
      </trkpt>
      <trkpt lat="44.79526" lon="0.47217">
        <ele>156.3</ele>
        <time>2023-07-14T09:16:57Z</time>
      </trkpt>
      <trkpt lat="44.79528" lon="0.47209">
        <ele>156.4</ele>
        <time>2023-07-14T09:16:59Z</time>
      </trkpt>
      <trkpt lat="44.79528" lon="0.47205">
        <ele>156.4</ele>
        <time>2023-07-14T09:17:00Z</time>
      </trkpt>
      <trkpt lat="44.79525" lon="0.47202">
        <ele>156.3</ele>
        <time>2023-07-14T09:17:01Z</time>
      </trkpt>
      <trkpt lat="44.79522" lon="0.47201">
        <ele>156.3</ele>
        <time>2023-07-14T09:17:02Z</time>
      </trkpt>
      <trkpt lat="44.79518" lon="0.472">
        <ele>156.3</ele>
        <time>2023-07-14T09:17:03Z</time>
      </trkpt>
      <trkpt lat="44.7951" lon="0.47198">
        <ele>156.3</ele>
        <time>2023-07-14T09:17:05Z</time>
      </trkpt>
      <trkpt lat="44.79506" lon="0.47198">
        <ele>156.3</ele>
        <time>2023-07-14T09:17:06Z</time>
      </trkpt>
      <trkpt lat="44.79502" lon="0.47198">
        <ele>156.3</ele>
        <time>2023-07-14T09:17:07Z</time>
      </trkpt>
      <trkpt lat="44.79498" lon="0.47198">
        <ele>156.2</ele>
        <time>2023-07-14T09:17:08Z</time>
      </trkpt>
      <trkpt lat="44.79494" lon="0.47198">
        <ele>156.2</ele>
        <time>2023-07-14T09:17:09Z</time>
      </trkpt>
      <trkpt lat="44.79486" lon="0.47197">
        <ele>156.2</ele>
        <time>2023-07-14T09:17:11Z</time>
      </trkpt>
      <trkpt lat="44.79478" lon="0.47196">
        <ele>156.2</ele>
        <time>2023-07-14T09:17:13Z</time>
      </trkpt>
      <trkpt lat="44.7947" lon="0.47195">
        <ele>156.2</ele>
        <time>2023-07-14T09:17:15Z</time>
      </trkpt>
      <trkpt lat="44.79461" lon="0.47193">
        <ele>156.2</ele>
        <time>2023-07-14T09:17:17Z</time>
      </trkpt>
      <trkpt lat="44.79453" lon="0.47193">
        <ele>156.1</ele>
        <time>2023-07-14T09:17:19Z</time>
      </trkpt>
      <trkpt lat="44.79449" lon="0.47193">
        <ele>156.1</ele>
        <time>2023-07-14T09:17:20Z</time>
      </trkpt>
      <trkpt lat="44.79445" lon="0.47192">
        <ele>156.1</ele>
        <time>2023-07-14T09:17:21Z</time>
      </trkpt>
      <trkpt lat="44.79437" lon="0.47191">
        <ele>156</ele>
        <time>2023-07-14T09:17:23Z</time>
      </trkpt>
      <trkpt lat="44.79428" lon="0.4719">
        <ele>155.8</ele>
        <time>2023-07-14T09:17:25Z</time>
      </trkpt>
      <trkpt lat="44.79419" lon="0.4719">
        <ele>155.4</ele>
        <time>2023-07-14T09:17:27Z</time>
      </trkpt>
      <trkpt lat="44.79414" lon="0.47191">
        <ele>155.2</ele>
        <time>2023-07-14T09:17:28Z</time>
      </trkpt>
      <trkpt lat="44.79409" lon="0.47192">
        <ele>155</ele>
        <time>2023-07-14T09:17:29Z</time>
      </trkpt>
      <trkpt lat="44.79403" lon="0.47192">
        <ele>154.8</ele>
        <time>2023-07-14T09:17:30Z</time>
      </trkpt>
      <trkpt lat="44.79398" lon="0.47192">
        <ele>154.6</ele>
        <time>2023-07-14T09:17:31Z</time>
      </trkpt>
      <trkpt lat="44.79392" lon="0.47192">
        <ele>154.5</ele>
        <time>2023-07-14T09:17:32Z</time>
      </trkpt>
      <trkpt lat="44.79386" lon="0.47192">
        <ele>154.2</ele>
        <time>2023-07-14T09:17:33Z</time>
      </trkpt>
      <trkpt lat="44.79374" lon="0.47193">
        <ele>153.3</ele>
        <time>2023-07-14T09:17:35Z</time>
      </trkpt>
      <trkpt lat="44.79361" lon="0.47193">
        <ele>152.4</ele>
        <time>2023-07-14T09:17:37Z</time>
      </trkpt>
      <trkpt lat="44.79348" lon="0.47194">
        <ele>151.7</ele>
        <time>2023-07-14T09:17:39Z</time>
      </trkpt>
      <trkpt lat="44.79342" lon="0.47195">
        <ele>151.4</ele>
        <time>2023-07-14T09:17:40Z</time>
      </trkpt>
      <trkpt lat="44.79336" lon="0.47195">
        <ele>151</ele>
        <time>2023-07-14T09:17:41Z</time>
      </trkpt>
      <trkpt lat="44.79322" lon="0.47196">
        <ele>150.4</ele>
        <time>2023-07-14T09:17:43Z</time>
      </trkpt>
      <trkpt lat="44.7931" lon="0.47196">
        <ele>149.9</ele>
        <time>2023-07-14T09:17:45Z</time>
      </trkpt>
      <trkpt lat="44.79305" lon="0.47196">
        <ele>149.7</ele>
        <time>2023-07-14T09:17:46Z</time>
      </trkpt>
      <trkpt lat="44.79298" lon="0.47197">
        <ele>149.4</ele>
        <time>2023-07-14T09:17:47Z</time>
      </trkpt>
      <trkpt lat="44.79285" lon="0.47198">
        <ele>148.9</ele>
        <time>2023-07-14T09:17:49Z</time>
      </trkpt>
      <trkpt lat="44.79271" lon="0.47199">
        <ele>148.5</ele>
        <time>2023-07-14T09:17:51Z</time>
      </trkpt>
      <trkpt lat="44.79258" lon="0.47201">
        <ele>148.2</ele>
        <time>2023-07-14T09:17:53Z</time>
      </trkpt>
      <trkpt lat="44.79246" lon="0.47202">
        <ele>147.9</ele>
        <time>2023-07-14T09:17:55Z</time>
      </trkpt>
      <trkpt lat="44.79234" lon="0.47202">
        <ele>147.8</ele>
        <time>2023-07-14T09:17:57Z</time>
      </trkpt>
      <trkpt lat="44.79229" lon="0.47203">
        <ele>147.8</ele>
        <time>2023-07-14T09:17:58Z</time>
      </trkpt>
      <trkpt lat="44.79224" lon="0.47204">
        <ele>147.8</ele>
        <time>2023-07-14T09:17:59Z</time>
      </trkpt>
      <trkpt lat="44.79212" lon="0.47205">
        <ele>147.8</ele>
        <time>2023-07-14T09:18:01Z</time>
      </trkpt>
      <trkpt lat="44.79201" lon="0.47206">
        <ele>147.6</ele>
        <time>2023-07-14T09:18:03Z</time>
      </trkpt>
      <trkpt lat="44.7919" lon="0.47207">
        <ele>147.4</ele>
        <time>2023-07-14T09:18:05Z</time>
      </trkpt>
      <trkpt lat="44.79179" lon="0.47208">
        <ele>147</ele>
        <time>2023-07-14T09:18:07Z</time>
      </trkpt>
      <trkpt lat="44.79168" lon="0.4721">
        <ele>146.7</ele>
        <time>2023-07-14T09:18:09Z</time>
      </trkpt>
      <trkpt lat="44.79157" lon="0.47212">
        <ele>146.6</ele>
        <time>2023-07-14T09:18:11Z</time>
      </trkpt>
      <trkpt lat="44.79146" lon="0.47215">
        <ele>146.5</ele>
        <time>2023-07-14T09:18:13Z</time>
      </trkpt>
      <trkpt lat="44.79135" lon="0.47218">
        <ele>146.2</ele>
        <time>2023-07-14T09:18:15Z</time>
      </trkpt>
      <trkpt lat="44.79124" lon="0.47222">
        <ele>146</ele>
        <time>2023-07-14T09:18:17Z</time>
      </trkpt>
      <trkpt lat="44.79113" lon="0.47226">
        <ele>145.9</ele>
        <time>2023-07-14T09:18:19Z</time>
      </trkpt>
      <trkpt lat="44.79102" lon="0.47231">
        <ele>145.7</ele>
        <time>2023-07-14T09:18:21Z</time>
      </trkpt>
      <trkpt lat="44.79091" lon="0.47235">
        <ele>145.4</ele>
        <time>2023-07-14T09:18:23Z</time>
      </trkpt>
      <trkpt lat="44.79085" lon="0.47237">
        <ele>145.2</ele>
        <time>2023-07-14T09:18:24Z</time>
      </trkpt>
      <trkpt lat="44.7908" lon="0.47239">
        <ele>145.1</ele>
        <time>2023-07-14T09:18:25Z</time>
      </trkpt>
      <trkpt lat="44.79068" lon="0.47242">
        <ele>144.8</ele>
        <time>2023-07-14T09:18:27Z</time>
      </trkpt>
      <trkpt lat="44.79056" lon="0.47244">
        <ele>144.6</ele>
        <time>2023-07-14T09:18:29Z</time>
      </trkpt>
      <trkpt lat="44.79045" lon="0.47246">
        <ele>144.2</ele>
        <time>2023-07-14T09:18:31Z</time>
      </trkpt>
      <trkpt lat="44.79039" lon="0.47248">
        <ele>144</ele>
        <time>2023-07-14T09:18:32Z</time>
      </trkpt>
      <trkpt lat="44.79032" lon="0.47249">
        <ele>143.9</ele>
        <time>2023-07-14T09:18:33Z</time>
      </trkpt>
      <trkpt lat="44.7902" lon="0.47252">
        <ele>143.7</ele>
        <time>2023-07-14T09:18:35Z</time>
      </trkpt>
      <trkpt lat="44.79009" lon="0.47254">
        <ele>143.3</ele>
        <time>2023-07-14T09:18:37Z</time>
      </trkpt>
      <trkpt lat="44.78996" lon="0.47258">
        <ele>142.7</ele>
        <time>2023-07-14T09:18:39Z</time>
      </trkpt>
      <trkpt lat="44.78984" lon="0.47262">
        <ele>142.2</ele>
        <time>2023-07-14T09:18:41Z</time>
      </trkpt>
      <trkpt lat="44.78971" lon="0.47265">
        <ele>141.7</ele>
        <time>2023-07-14T09:18:43Z</time>
      </trkpt>
      <trkpt lat="44.78965" lon="0.47266">
        <ele>141.5</ele>
        <time>2023-07-14T09:18:44Z</time>
      </trkpt>
      <trkpt lat="44.78959" lon="0.47267">
        <ele>141.3</ele>
        <time>2023-07-14T09:18:45Z</time>
      </trkpt>
      <trkpt lat="44.78946" lon="0.4727">
        <ele>141</ele>
        <time>2023-07-14T09:18:47Z</time>
      </trkpt>
      <trkpt lat="44.78934" lon="0.47273">
        <ele>140.7</ele>
        <time>2023-07-14T09:18:49Z</time>
      </trkpt>
      <trkpt lat="44.78923" lon="0.47275">
        <ele>140.5</ele>
        <time>2023-07-14T09:18:51Z</time>
      </trkpt>
      <trkpt lat="44.78912" lon="0.47278">
        <ele>140.3</ele>
        <time>2023-07-14T09:18:53Z</time>
      </trkpt>
      <trkpt lat="44.78906" lon="0.47279">
        <ele>140.3</ele>
        <time>2023-07-14T09:18:54Z</time>
      </trkpt>
      <trkpt lat="44.789" lon="0.47281">
        <ele>140.2</ele>
        <time>2023-07-14T09:18:55Z</time>
      </trkpt>
      <trkpt lat="44.78887" lon="0.47285">
        <ele>139.8</ele>
        <time>2023-07-14T09:18:57Z</time>
      </trkpt>
      <trkpt lat="44.78875" lon="0.47288">
        <ele>139.8</ele>
        <time>2023-07-14T09:18:59Z</time>
      </trkpt>
      <trkpt lat="44.78869" lon="0.47289">
        <ele>139.8</ele>
        <time>2023-07-14T09:19:00Z</time>
      </trkpt>
      <trkpt lat="44.78863" lon="0.47289">
        <ele>139.8</ele>
        <time>2023-07-14T09:19:01Z</time>
      </trkpt>
      <trkpt lat="44.78852" lon="0.4729">
        <ele>140.1</ele>
        <time>2023-07-14T09:19:03Z</time>
      </trkpt>
      <trkpt lat="44.78842" lon="0.47291">
        <ele>140.6</ele>
        <time>2023-07-14T09:19:05Z</time>
      </trkpt>
      <trkpt lat="44.78832" lon="0.47291">
        <ele>140.9</ele>
        <time>2023-07-14T09:19:07Z</time>
      </trkpt>
      <trkpt lat="44.78823" lon="0.47291">
        <ele>141.1</ele>
        <time>2023-07-14T09:19:09Z</time>
      </trkpt>
      <trkpt lat="44.78815" lon="0.47291">
        <ele>141.3</ele>
        <time>2023-07-14T09:19:11Z</time>
      </trkpt>
      <trkpt lat="44.78808" lon="0.47291">
        <ele>141.5</ele>
        <time>2023-07-14T09:19:13Z</time>
      </trkpt>
      <trkpt lat="44.78802" lon="0.4729">
        <ele>141.6</ele>
        <time>2023-07-14T09:19:15Z</time>
      </trkpt>
      <trkpt lat="44.78796" lon="0.47287">
        <ele>141.7</ele>
        <time>2023-07-14T09:19:17Z</time>
      </trkpt>
      <trkpt lat="44.78789" lon="0.47285">
        <ele>141.7</ele>
        <time>2023-07-14T09:19:19Z</time>
      </trkpt>
      <trkpt lat="44.78782" lon="0.47283">
        <ele>141.7</ele>
        <time>2023-07-14T09:19:21Z</time>
      </trkpt>
      <trkpt lat="44.78775" lon="0.47279">
        <ele>141.7</ele>
        <time>2023-07-14T09:19:23Z</time>
      </trkpt>
      <trkpt lat="44.78768" lon="0.47273">
        <ele>141.7</ele>
        <time>2023-07-14T09:19:25Z</time>
      </trkpt>
      <trkpt lat="44.78763" lon="0.47267">
        <ele>141.8</ele>
        <time>2023-07-14T09:19:27Z</time>
      </trkpt>
      <trkpt lat="44.78759" lon="0.4726">
        <ele>141.8</ele>
        <time>2023-07-14T09:19:29Z</time>
      </trkpt>
      <trkpt lat="44.78755" lon="0.47252">
        <ele>141.8</ele>
        <time>2023-07-14T09:19:31Z</time>
      </trkpt>
      <trkpt lat="44.78753" lon="0.47248">
        <ele>141.9</ele>
        <time>2023-07-14T09:19:32Z</time>
      </trkpt>
      <trkpt lat="44.78751" lon="0.47244">
        <ele>141.9</ele>
        <time>2023-07-14T09:19:33Z</time>
      </trkpt>
      <trkpt lat="44.78748" lon="0.47235">
        <ele>141.9</ele>
        <time>2023-07-14T09:19:35Z</time>
      </trkpt>
      <trkpt lat="44.78745" lon="0.47226">
        <ele>142</ele>
        <time>2023-07-14T09:19:37Z</time>
      </trkpt>
      <trkpt lat="44.78743" lon="0.47217">
        <ele>142</ele>
        <time>2023-07-14T09:19:39Z</time>
      </trkpt>
      <trkpt lat="44.78742" lon="0.47209">
        <ele>142.1</ele>
        <time>2023-07-14T09:19:41Z</time>
      </trkpt>
      <trkpt lat="44.78741" lon="0.472">
        <ele>142.1</ele>
        <time>2023-07-14T09:19:43Z</time>
      </trkpt>
      <trkpt lat="44.7874" lon="0.4719">
        <ele>142.1</ele>
        <time>2023-07-14T09:19:45Z</time>
      </trkpt>
      <trkpt lat="44.78738" lon="0.47179">
        <ele>142.1</ele>
        <time>2023-07-14T09:19:47Z</time>
      </trkpt>
      <trkpt lat="44.78737" lon="0.47169">
        <ele>142.2</ele>
        <time>2023-07-14T09:19:49Z</time>
      </trkpt>
      <trkpt lat="44.78736" lon="0.47164">
        <ele>142.2</ele>
        <time>2023-07-14T09:19:50Z</time>
      </trkpt>
      <trkpt lat="44.78736" lon="0.4716">
        <ele>142.3</ele>
        <time>2023-07-14T09:19:51Z</time>
      </trkpt>
      <trkpt lat="44.78735" lon="0.4715">
        <ele>142.5</ele>
        <time>2023-07-14T09:19:53Z</time>
      </trkpt>
      <trkpt lat="44.78734" lon="0.47141">
        <ele>142.8</ele>
        <time>2023-07-14T09:19:55Z</time>
      </trkpt>
      <trkpt lat="44.78733" lon="0.47131">
        <ele>143.1</ele>
        <time>2023-07-14T09:19:57Z</time>
      </trkpt>
      <trkpt lat="44.78733" lon="0.47127">
        <ele>143.2</ele>
        <time>2023-07-14T09:19:58Z</time>
      </trkpt>
      <trkpt lat="44.78733" lon="0.47123">
        <ele>143.3</ele>
        <time>2023-07-14T09:19:59Z</time>
      </trkpt>
      <trkpt lat="44.78731" lon="0.47114">
        <ele>143.5</ele>
        <time>2023-07-14T09:20:01Z</time>
      </trkpt>
      <trkpt lat="44.7873" lon="0.47106">
        <ele>143.7</ele>
        <time>2023-07-14T09:20:03Z</time>
      </trkpt>
      <trkpt lat="44.78729" lon="0.47096">
        <ele>143.8</ele>
        <time>2023-07-14T09:20:05Z</time>
      </trkpt>
      <trkpt lat="44.78729" lon="0.47092">
        <ele>143.8</ele>
        <time>2023-07-14T09:20:06Z</time>
      </trkpt>
      <trkpt lat="44.78728" lon="0.47087">
        <ele>143.8</ele>
        <time>2023-07-14T09:20:07Z</time>
      </trkpt>
      <trkpt lat="44.78727" lon="0.47078">
        <ele>143.8</ele>
        <time>2023-07-14T09:20:09Z</time>
      </trkpt>
      <trkpt lat="44.78726" lon="0.47068">
        <ele>143.7</ele>
        <time>2023-07-14T09:20:11Z</time>
      </trkpt>
      <trkpt lat="44.78725" lon="0.47063">
        <ele>143.6</ele>
        <time>2023-07-14T09:20:12Z</time>
      </trkpt>
      <trkpt lat="44.78725" lon="0.47057">
        <ele>143.5</ele>
        <time>2023-07-14T09:20:13Z</time>
      </trkpt>
      <trkpt lat="44.78724" lon="0.47047">
        <ele>143.3</ele>
        <time>2023-07-14T09:20:15Z</time>
      </trkpt>
      <trkpt lat="44.78723" lon="0.47035">
        <ele>143</ele>
        <time>2023-07-14T09:20:17Z</time>
      </trkpt>
      <trkpt lat="44.78721" lon="0.47023">
        <ele>142.8</ele>
        <time>2023-07-14T09:20:19Z</time>
      </trkpt>
      <trkpt lat="44.7872" lon="0.47017">
        <ele>142.7</ele>
        <time>2023-07-14T09:20:20Z</time>
      </trkpt>
      <trkpt lat="44.7872" lon="0.47011">
        <ele>142.7</ele>
        <time>2023-07-14T09:20:21Z</time>
      </trkpt>
      <trkpt lat="44.78719" lon="0.46999">
        <ele>142.6</ele>
        <time>2023-07-14T09:20:23Z</time>
      </trkpt>
      <trkpt lat="44.78719" lon="0.46987">
        <ele>142.6</ele>
        <time>2023-07-14T09:20:25Z</time>
      </trkpt>
      <trkpt lat="44.78719" lon="0.46977">
        <ele>142.7</ele>
        <time>2023-07-14T09:20:27Z</time>
      </trkpt>
      <trkpt lat="44.78719" lon="0.46965">
        <ele>142.7</ele>
        <time>2023-07-14T09:20:29Z</time>
      </trkpt>
      <trkpt lat="44.7872" lon="0.46953">
        <ele>142.7</ele>
        <time>2023-07-14T09:20:31Z</time>
      </trkpt>
      <trkpt lat="44.78721" lon="0.46941">
        <ele>142.7</ele>
        <time>2023-07-14T09:20:33Z</time>
      </trkpt>
      <trkpt lat="44.78721" lon="0.46929">
        <ele>142.7</ele>
        <time>2023-07-14T09:20:35Z</time>
      </trkpt>
      <trkpt lat="44.78722" lon="0.46918">
        <ele>142.8</ele>
        <time>2023-07-14T09:20:37Z</time>
      </trkpt>
      <trkpt lat="44.78722" lon="0.46912">
        <ele>142.8</ele>
        <time>2023-07-14T09:20:38Z</time>
      </trkpt>
      <trkpt lat="44.78722" lon="0.46906">
        <ele>142.8</ele>
        <time>2023-07-14T09:20:39Z</time>
      </trkpt>
      <trkpt lat="44.78722" lon="0.46894">
        <ele>142.7</ele>
        <time>2023-07-14T09:20:41Z</time>
      </trkpt>
      <trkpt lat="44.78722" lon="0.46883">
        <ele>142.6</ele>
        <time>2023-07-14T09:20:43Z</time>
      </trkpt>
      <trkpt lat="44.78723" lon="0.4687">
        <ele>142.5</ele>
        <time>2023-07-14T09:20:45Z</time>
      </trkpt>
      <trkpt lat="44.78723" lon="0.46859">
        <ele>142.3</ele>
        <time>2023-07-14T09:20:47Z</time>
      </trkpt>
      <trkpt lat="44.78725" lon="0.46846">
        <ele>142.2</ele>
        <time>2023-07-14T09:20:49Z</time>
      </trkpt>
      <trkpt lat="44.78726" lon="0.4684">
        <ele>142.2</ele>
        <time>2023-07-14T09:20:50Z</time>
      </trkpt>
      <trkpt lat="44.78728" lon="0.46834">
        <ele>142.1</ele>
        <time>2023-07-14T09:20:51Z</time>
      </trkpt>
      <trkpt lat="44.7873" lon="0.46828">
        <ele>142.1</ele>
        <time>2023-07-14T09:20:52Z</time>
      </trkpt>
      <trkpt lat="44.78733" lon="0.46823">
        <ele>142.1</ele>
        <time>2023-07-14T09:20:53Z</time>
      </trkpt>
      <trkpt lat="44.78736" lon="0.46819">
        <ele>142.1</ele>
        <time>2023-07-14T09:20:54Z</time>
      </trkpt>
      <trkpt lat="44.7874" lon="0.46816">
        <ele>142.1</ele>
        <time>2023-07-14T09:20:55Z</time>
      </trkpt>
      <trkpt lat="44.78744" lon="0.46815">
        <ele>142.1</ele>
        <time>2023-07-14T09:20:56Z</time>
      </trkpt>
      <trkpt lat="44.78748" lon="0.46814">
        <ele>142.1</ele>
        <time>2023-07-14T09:20:57Z</time>
      </trkpt>
      <trkpt lat="44.78756" lon="0.46813">
        <ele>142.3</ele>
        <time>2023-07-14T09:20:59Z</time>
      </trkpt>
      <trkpt lat="44.78759" lon="0.46812">
        <ele>142.4</ele>
        <time>2023-07-14T09:21:00Z</time>
      </trkpt>
      <trkpt lat="44.78762" lon="0.46811">
        <ele>142.5</ele>
        <time>2023-07-14T09:21:01Z</time>
      </trkpt>
      <trkpt lat="44.78767" lon="0.46806">
        <ele>142.6</ele>
        <time>2023-07-14T09:21:03Z</time>
      </trkpt>
      <trkpt lat="44.7877" lon="0.46799">
        <ele>142.8</ele>
        <time>2023-07-14T09:21:05Z</time>
      </trkpt>
      <trkpt lat="44.7877" lon="0.46793">
        <ele>142.9</ele>
        <time>2023-07-14T09:21:07Z</time>
      </trkpt>
      <trkpt lat="44.7877" lon="0.46788">
        <ele>143</ele>
        <time>2023-07-14T09:21:09Z</time>
      </trkpt>
      <trkpt lat="44.78769" lon="0.46782">
        <ele>143.2</ele>
        <time>2023-07-14T09:21:11Z</time>
      </trkpt>
      <trkpt lat="44.78768" lon="0.46776">
        <ele>143.3</ele>
        <time>2023-07-14T09:21:13Z</time>
      </trkpt>
      <trkpt lat="44.78768" lon="0.4677">
        <ele>143.5</ele>
        <time>2023-07-14T09:21:15Z</time>
      </trkpt>
      <trkpt lat="44.78767" lon="0.46764">
        <ele>143.7</ele>
        <time>2023-07-14T09:21:17Z</time>
      </trkpt>
      <trkpt lat="44.78766" lon="0.46762">
        <ele>143.8</ele>
        <time>2023-07-14T09:21:18Z</time>
      </trkpt>
      <trkpt lat="44.78766" lon="0.46759">
        <ele>143.9</ele>
        <time>2023-07-14T09:21:19Z</time>
      </trkpt>
      <trkpt lat="44.78765" lon="0.46754">
        <ele>144.2</ele>
        <time>2023-07-14T09:21:21Z</time>
      </trkpt>
      <trkpt lat="44.78764" lon="0.46749">
        <ele>144.4</ele>
        <time>2023-07-14T09:21:23Z</time>
      </trkpt>
      <trkpt lat="44.78763" lon="0.46744">
        <ele>144.7</ele>
        <time>2023-07-14T09:21:25Z</time>
      </trkpt>
      <trkpt lat="44.78762" lon="0.46742">
        <ele>144.8</ele>
        <time>2023-07-14T09:21:26Z</time>
      </trkpt>
      <trkpt lat="44.78762" lon="0.4674">
        <ele>145</ele>
        <time>2023-07-14T09:21:27Z</time>
      </trkpt>
      <trkpt lat="44.78761" lon="0.46735">
        <ele>145.3</ele>
        <time>2023-07-14T09:21:29Z</time>
      </trkpt>
      <trkpt lat="44.7876" lon="0.4673">
        <ele>145.7</ele>
        <time>2023-07-14T09:21:31Z</time>
      </trkpt>
      <trkpt lat="44.78758" lon="0.46726">
        <ele>146</ele>
        <time>2023-07-14T09:21:33Z</time>
      </trkpt>
      <trkpt lat="44.78758" lon="0.46721">
        <ele>146.3</ele>
        <time>2023-07-14T09:21:35Z</time>
      </trkpt>
      <trkpt lat="44.78757" lon="0.46717">
        <ele>146.7</ele>
        <time>2023-07-14T09:21:37Z</time>
      </trkpt>
      <trkpt lat="44.78757" lon="0.46712">
        <ele>147</ele>
        <time>2023-07-14T09:21:39Z</time>
      </trkpt>
      <trkpt lat="44.78755" lon="0.46708">
        <ele>147.3</ele>
        <time>2023-07-14T09:21:41Z</time>
      </trkpt>
      <trkpt lat="44.78755" lon="0.46706">
        <ele>147.5</ele>
        <time>2023-07-14T09:21:42Z</time>
      </trkpt>
      <trkpt lat="44.78755" lon="0.46704">
        <ele>147.6</ele>
        <time>2023-07-14T09:21:43Z</time>
      </trkpt>
      <trkpt lat="44.78755" lon="0.46702">
        <ele>148.2</ele>
        <time>2023-07-14T09:21:44Z</time>
      </trkpt>
      <trkpt lat="44.78755" lon="0.467">
        <ele>148.4</ele>
        <time>2023-07-14T09:21:45Z</time>
      </trkpt>
      <trkpt lat="44.78757" lon="0.46699">
        <ele>148.5</ele>
        <time>2023-07-14T09:21:46Z</time>
      </trkpt>
      <trkpt lat="44.78758" lon="0.46699">
        <ele>148.6</ele>
        <time>2023-07-14T09:21:47Z</time>
      </trkpt>
      <trkpt lat="44.78761" lon="0.46699">
        <ele>148.9</ele>
        <time>2023-07-14T09:21:49Z</time>
      </trkpt>
      <trkpt lat="44.78765" lon="0.467">
        <ele>149.2</ele>
        <time>2023-07-14T09:21:51Z</time>
      </trkpt>
      <trkpt lat="44.78769" lon="0.46701">
        <ele>149.4</ele>
        <time>2023-07-14T09:21:53Z</time>
      </trkpt>
      <trkpt lat="44.78773" lon="0.46701">
        <ele>149.6</ele>
        <time>2023-07-14T09:21:55Z</time>
      </trkpt>
      <trkpt lat="44.78777" lon="0.46702">
        <ele>149.8</ele>
        <time>2023-07-14T09:21:57Z</time>
      </trkpt>
      <trkpt lat="44.78781" lon="0.46703">
        <ele>150</ele>
        <time>2023-07-14T09:21:59Z</time>
      </trkpt>
      <trkpt lat="44.78783" lon="0.46703">
        <ele>150.1</ele>
        <time>2023-07-14T09:22:00Z</time>
      </trkpt>
      <trkpt lat="44.78786" lon="0.46704">
        <ele>150.2</ele>
        <time>2023-07-14T09:22:01Z</time>
      </trkpt>
      <trkpt lat="44.7879" lon="0.46705">
        <ele>150.4</ele>
        <time>2023-07-14T09:22:03Z</time>
      </trkpt>
      <trkpt lat="44.78794" lon="0.46706">
        <ele>150.6</ele>
        <time>2023-07-14T09:22:05Z</time>
      </trkpt>
      <trkpt lat="44.78799" lon="0.46706">
        <ele>150.8</ele>
        <time>2023-07-14T09:22:07Z</time>
      </trkpt>
      <trkpt lat="44.78804" lon="0.46708">
        <ele>151</ele>
        <time>2023-07-14T09:22:09Z</time>
      </trkpt>
      <trkpt lat="44.7881" lon="0.46709">
        <ele>151.2</ele>
        <time>2023-07-14T09:22:11Z</time>
      </trkpt>
      <trkpt lat="44.78815" lon="0.46711">
        <ele>151.3</ele>
        <time>2023-07-14T09:22:13Z</time>
      </trkpt>
      <trkpt lat="44.78822" lon="0.46712">
        <ele>151.4</ele>
        <time>2023-07-14T09:22:15Z</time>
      </trkpt>
      <trkpt lat="44.78828" lon="0.46713">
        <ele>151.5</ele>
        <time>2023-07-14T09:22:17Z</time>
      </trkpt>
      <trkpt lat="44.78834" lon="0.46714">
        <ele>151.5</ele>
        <time>2023-07-14T09:22:19Z</time>
      </trkpt>
      <trkpt lat="44.78838" lon="0.46715">
        <ele>151.5</ele>
        <time>2023-07-14T09:22:20Z</time>
      </trkpt>
      <trkpt lat="44.78841" lon="0.46716">
        <ele>151.6</ele>
        <time>2023-07-14T09:22:21Z</time>
      </trkpt>
      <trkpt lat="44.78849" lon="0.46717">
        <ele>151.6</ele>
        <time>2023-07-14T09:22:23Z</time>
      </trkpt>
      <trkpt lat="44.78857" lon="0.46718">
        <ele>151.6</ele>
        <time>2023-07-14T09:22:25Z</time>
      </trkpt>
      <trkpt lat="44.78864" lon="0.46718">
        <ele>151.6</ele>
        <time>2023-07-14T09:22:27Z</time>
      </trkpt>
      <trkpt lat="44.78871" lon="0.4672">
        <ele>151.6</ele>
        <time>2023-07-14T09:22:29Z</time>
      </trkpt>
      <trkpt lat="44.78879" lon="0.4672">
        <ele>151.7</ele>
        <time>2023-07-14T09:22:31Z</time>
      </trkpt>
      <trkpt lat="44.78886" lon="0.46721">
        <ele>151.8</ele>
        <time>2023-07-14T09:22:33Z</time>
      </trkpt>
      <trkpt lat="44.7889" lon="0.46721">
        <ele>151.8</ele>
        <time>2023-07-14T09:22:34Z</time>
      </trkpt>
      <trkpt lat="44.78893" lon="0.46721">
        <ele>151.9</ele>
        <time>2023-07-14T09:22:35Z</time>
      </trkpt>
      <trkpt lat="44.78899" lon="0.46721">
        <ele>152</ele>
        <time>2023-07-14T09:22:37Z</time>
      </trkpt>
      <trkpt lat="44.78905" lon="0.46721">
        <ele>152.2</ele>
        <time>2023-07-14T09:22:39Z</time>
      </trkpt>
      <trkpt lat="44.78911" lon="0.4672">
        <ele>152.4</ele>
        <time>2023-07-14T09:22:41Z</time>
      </trkpt>
      <trkpt lat="44.78916" lon="0.46719">
        <ele>152.7</ele>
        <time>2023-07-14T09:22:43Z</time>
      </trkpt>
      <trkpt lat="44.78921" lon="0.46719">
        <ele>152.9</ele>
        <time>2023-07-14T09:22:45Z</time>
      </trkpt>
      <trkpt lat="44.78925" lon="0.46717">
        <ele>153.1</ele>
        <time>2023-07-14T09:22:47Z</time>
      </trkpt>
      <trkpt lat="44.78929" lon="0.46716">
        <ele>153.3</ele>
        <time>2023-07-14T09:22:49Z</time>
      </trkpt>
      <trkpt lat="44.78933" lon="0.46715">
        <ele>153.5</ele>
        <time>2023-07-14T09:22:51Z</time>
      </trkpt>
      <trkpt lat="44.78937" lon="0.46714">
        <ele>153.8</ele>
        <time>2023-07-14T09:22:53Z</time>
      </trkpt>
      <trkpt lat="44.78941" lon="0.46712">
        <ele>154</ele>
        <time>2023-07-14T09:22:55Z</time>
      </trkpt>
      <trkpt lat="44.78945" lon="0.46711">
        <ele>154.3</ele>
        <time>2023-07-14T09:22:57Z</time>
      </trkpt>
      <trkpt lat="44.78947" lon="0.4671">
        <ele>154.4</ele>
        <time>2023-07-14T09:22:58Z</time>
      </trkpt>
      <trkpt lat="44.78948" lon="0.46709">
        <ele>154.5</ele>
        <time>2023-07-14T09:22:59Z</time>
      </trkpt>
      <trkpt lat="44.78952" lon="0.46707">
        <ele>154.8</ele>
        <time>2023-07-14T09:23:01Z</time>
      </trkpt>
      <trkpt lat="44.78954" lon="0.46707">
        <ele>154.9</ele>
        <time>2023-07-14T09:23:02Z</time>
      </trkpt>
      <trkpt lat="44.78956" lon="0.46707">
        <ele>155.1</ele>
        <time>2023-07-14T09:23:03Z</time>
      </trkpt>
      <trkpt lat="44.78958" lon="0.46706">
        <ele>155.2</ele>
        <time>2023-07-14T09:23:04Z</time>
      </trkpt>
      <trkpt lat="44.7896" lon="0.46706">
        <ele>155.4</ele>
        <time>2023-07-14T09:23:05Z</time>
      </trkpt>
      <trkpt lat="44.78962" lon="0.46705">
        <ele>155.5</ele>
        <time>2023-07-14T09:23:06Z</time>
      </trkpt>
      <trkpt lat="44.78964" lon="0.46704">
        <ele>155.7</ele>
        <time>2023-07-14T09:23:07Z</time>
      </trkpt>
      <trkpt lat="44.78968" lon="0.46702">
        <ele>155.9</ele>
        <time>2023-07-14T09:23:09Z</time>
      </trkpt>
      <trkpt lat="44.78972" lon="0.46701">
        <ele>156.1</ele>
        <time>2023-07-14T09:23:11Z</time>
      </trkpt>
      <trkpt lat="44.78976" lon="0.46699">
        <ele>156.4</ele>
        <time>2023-07-14T09:23:13Z</time>
      </trkpt>
      <trkpt lat="44.7898" lon="0.46697">
        <ele>156.6</ele>
        <time>2023-07-14T09:23:15Z</time>
      </trkpt>
      <trkpt lat="44.78981" lon="0.46697">
        <ele>156.6</ele>
        <time>2023-07-14T09:23:16Z</time>
      </trkpt>
      <trkpt lat="44.78982" lon="0.46695">
        <ele>156.7</ele>
        <time>2023-07-14T09:23:17Z</time>
      </trkpt>
      <trkpt lat="44.78985" lon="0.46692">
        <ele>157</ele>
        <time>2023-07-14T09:23:19Z</time>
      </trkpt>
      <trkpt lat="44.78987" lon="0.46688">
        <ele>157.2</ele>
        <time>2023-07-14T09:23:21Z</time>
      </trkpt>
      <trkpt lat="44.78987" lon="0.46684">
        <ele>157.4</ele>
        <time>2023-07-14T09:23:23Z</time>
      </trkpt>
      <trkpt lat="44.78988" lon="0.46679">
        <ele>157.7</ele>
        <time>2023-07-14T09:23:25Z</time>
      </trkpt>
      <trkpt lat="44.78989" lon="0.46674">
        <ele>158</ele>
        <time>2023-07-14T09:23:27Z</time>
      </trkpt>
      <trkpt lat="44.7899" lon="0.4667">
        <ele>158.2</ele>
        <time>2023-07-14T09:23:29Z</time>
      </trkpt>
      <trkpt lat="44.78991" lon="0.46665">
        <ele>158.5</ele>
        <time>2023-07-14T09:23:31Z</time>
      </trkpt>
      <trkpt lat="44.78992" lon="0.46661">
        <ele>158.7</ele>
        <time>2023-07-14T09:23:33Z</time>
      </trkpt>
      <trkpt lat="44.78993" lon="0.46657">
        <ele>159</ele>
        <time>2023-07-14T09:23:35Z</time>
      </trkpt>
      <trkpt lat="44.78994" lon="0.46652">
        <ele>159.2</ele>
        <time>2023-07-14T09:23:37Z</time>
      </trkpt>
      <trkpt lat="44.78995" lon="0.46649">
        <ele>159.5</ele>
        <time>2023-07-14T09:23:39Z</time>
      </trkpt>
      <trkpt lat="44.78996" lon="0.46644">
        <ele>159.8</ele>
        <time>2023-07-14T09:23:41Z</time>
      </trkpt>
      <trkpt lat="44.78997" lon="0.46642">
        <ele>159.9</ele>
        <time>2023-07-14T09:23:42Z</time>
      </trkpt>
      <trkpt lat="44.78998" lon="0.4664">
        <ele>160.1</ele>
        <time>2023-07-14T09:23:43Z</time>
      </trkpt>
      <trkpt lat="44.78999" lon="0.46635">
        <ele>160.4</ele>
        <time>2023-07-14T09:23:45Z</time>
      </trkpt>
      <trkpt lat="44.79" lon="0.46631">
        <ele>160.7</ele>
        <time>2023-07-14T09:23:47Z</time>
      </trkpt>
      <trkpt lat="44.79001" lon="0.46626">
        <ele>161</ele>
        <time>2023-07-14T09:23:49Z</time>
      </trkpt>
      <trkpt lat="44.79002" lon="0.46623">
        <ele>161.2</ele>
        <time>2023-07-14T09:23:50Z</time>
      </trkpt>
      <trkpt lat="44.79002" lon="0.46621">
        <ele>161.3</ele>
        <time>2023-07-14T09:23:51Z</time>
      </trkpt>
      <trkpt lat="44.79005" lon="0.46616">
        <ele>161.6</ele>
        <time>2023-07-14T09:23:53Z</time>
      </trkpt>
      <trkpt lat="44.79007" lon="0.46612">
        <ele>162</ele>
        <time>2023-07-14T09:23:55Z</time>
      </trkpt>
      <trkpt lat="44.7901" lon="0.46607">
        <ele>162.2</ele>
        <time>2023-07-14T09:23:57Z</time>
      </trkpt>
      <trkpt lat="44.79011" lon="0.46605">
        <ele>162.3</ele>
        <time>2023-07-14T09:23:58Z</time>
      </trkpt>
      <trkpt lat="44.79012" lon="0.46603">
        <ele>162.4</ele>
        <time>2023-07-14T09:23:59Z</time>
      </trkpt>
      <trkpt lat="44.79015" lon="0.46598">
        <ele>162.7</ele>
        <time>2023-07-14T09:24:01Z</time>
      </trkpt>
      <trkpt lat="44.79018" lon="0.46594">
        <ele>162.9</ele>
        <time>2023-07-14T09:24:03Z</time>
      </trkpt>
      <trkpt lat="44.79021" lon="0.4659">
        <ele>163.2</ele>
        <time>2023-07-14T09:24:05Z</time>
      </trkpt>
      <trkpt lat="44.79022" lon="0.46588">
        <ele>163.3</ele>
        <time>2023-07-14T09:24:06Z</time>
      </trkpt>
      <trkpt lat="44.79022" lon="0.46584">
        <ele>163.4</ele>
        <time>2023-07-14T09:24:07Z</time>
      </trkpt>
      <trkpt lat="44.79023" lon="0.46578">
        <ele>163.7</ele>
        <time>2023-07-14T09:24:09Z</time>
      </trkpt>
      <trkpt lat="44.79023" lon="0.46571">
        <ele>163.9</ele>
        <time>2023-07-14T09:24:11Z</time>
      </trkpt>
      <trkpt lat="44.79024" lon="0.46564">
        <ele>164.1</ele>
        <time>2023-07-14T09:24:13Z</time>
      </trkpt>
      <trkpt lat="44.79024" lon="0.46556">
        <ele>164.3</ele>
        <time>2023-07-14T09:24:15Z</time>
      </trkpt>
      <trkpt lat="44.79024" lon="0.46548">
        <ele>164.4</ele>
        <time>2023-07-14T09:24:17Z</time>
      </trkpt>
      <trkpt lat="44.79027" lon="0.46542">
        <ele>164.5</ele>
        <time>2023-07-14T09:24:19Z</time>
      </trkpt>
      <trkpt lat="44.79031" lon="0.46541">
        <ele>164.6</ele>
        <time>2023-07-14T09:24:21Z</time>
      </trkpt>
      <trkpt lat="44.79035" lon="0.46542">
        <ele>164.6</ele>
        <time>2023-07-14T09:24:23Z</time>
      </trkpt>
      <trkpt lat="44.79039" lon="0.46542">
        <ele>164.7</ele>
        <time>2023-07-14T09:24:25Z</time>
      </trkpt>
      <trkpt lat="44.79041" lon="0.4654">
        <ele>164.7</ele>
        <time>2023-07-14T09:24:26Z</time>
      </trkpt>
      <trkpt lat="44.79042" lon="0.46536">
        <ele>164.8</ele>
        <time>2023-07-14T09:24:27Z</time>
      </trkpt>
      <trkpt lat="44.79044" lon="0.46529">
        <ele>164.6</ele>
        <time>2023-07-14T09:24:29Z</time>
      </trkpt>
      <trkpt lat="44.79046" lon="0.46521">
        <ele>164.4</ele>
        <time>2023-07-14T09:24:31Z</time>
      </trkpt>
      <trkpt lat="44.79047" lon="0.46516">
        <ele>164.2</ele>
        <time>2023-07-14T09:24:32Z</time>
      </trkpt>
      <trkpt lat="44.79048" lon="0.46511">
        <ele>164.1</ele>
        <time>2023-07-14T09:24:33Z</time>
      </trkpt>
      <trkpt lat="44.7905" lon="0.465">
        <ele>163.8</ele>
        <time>2023-07-14T09:24:35Z</time>
      </trkpt>
      <trkpt lat="44.79052" lon="0.46489">
        <ele>163.4</ele>
        <time>2023-07-14T09:24:37Z</time>
      </trkpt>
      <trkpt lat="44.79053" lon="0.46483">
        <ele>163.3</ele>
        <time>2023-07-14T09:24:38Z</time>
      </trkpt>
      <trkpt lat="44.79053" lon="0.46478">
        <ele>163.1</ele>
        <time>2023-07-14T09:24:39Z</time>
      </trkpt>
      <trkpt lat="44.79055" lon="0.46466">
        <ele>162.7</ele>
        <time>2023-07-14T09:24:41Z</time>
      </trkpt>
      <trkpt lat="44.79056" lon="0.46454">
        <ele>162.3</ele>
        <time>2023-07-14T09:24:43Z</time>
      </trkpt>
      <trkpt lat="44.79057" lon="0.46448">
        <ele>162.1</ele>
        <time>2023-07-14T09:24:44Z</time>
      </trkpt>
      <trkpt lat="44.79058" lon="0.46442">
        <ele>161.9</ele>
        <time>2023-07-14T09:24:45Z</time>
      </trkpt>
      <trkpt lat="44.79062" lon="0.46429">
        <ele>161.4</ele>
        <time>2023-07-14T09:24:47Z</time>
      </trkpt>
      <trkpt lat="44.79066" lon="0.46423">
        <ele>161.1</ele>
        <time>2023-07-14T09:24:48Z</time>
      </trkpt>
      <trkpt lat="44.79069" lon="0.46418">
        <ele>160.8</ele>
        <time>2023-07-14T09:24:49Z</time>
      </trkpt>
      <trkpt lat="44.79076" lon="0.46409">
        <ele>160.2</ele>
        <time>2023-07-14T09:24:51Z</time>
      </trkpt>
      <trkpt lat="44.7908" lon="0.46404">
        <ele>159.9</ele>
        <time>2023-07-14T09:24:52Z</time>
      </trkpt>
      <trkpt lat="44.79084" lon="0.46401">
        <ele>159.6</ele>
        <time>2023-07-14T09:24:53Z</time>
      </trkpt>
      <trkpt lat="44.79092" lon="0.46397">
        <ele>159</ele>
        <time>2023-07-14T09:24:55Z</time>
      </trkpt>
      <trkpt lat="44.79099" lon="0.46386">
        <ele>158.3</ele>
        <time>2023-07-14T09:24:57Z</time>
      </trkpt>
      <trkpt lat="44.79105" lon="0.46371">
        <ele>157.6</ele>
        <time>2023-07-14T09:24:59Z</time>
      </trkpt>
      <trkpt lat="44.79109" lon="0.46356">
        <ele>157</ele>
        <time>2023-07-14T09:25:01Z</time>
      </trkpt>
      <trkpt lat="44.79114" lon="0.46346">
        <ele>156.6</ele>
        <time>2023-07-14T09:25:03Z</time>
      </trkpt>
      <trkpt lat="44.79119" lon="0.46345">
        <ele>156.5</ele>
        <time>2023-07-14T09:25:05Z</time>
      </trkpt>
      <trkpt lat="44.79122" lon="0.46346">
        <ele>156.6</ele>
        <time>2023-07-14T09:25:06Z</time>
      </trkpt>
      <trkpt lat="44.79125" lon="0.46348">
        <ele>156.7</ele>
        <time>2023-07-14T09:25:07Z</time>
      </trkpt>
      <trkpt lat="44.79131" lon="0.46353">
        <ele>156.9</ele>
        <time>2023-07-14T09:25:09Z</time>
      </trkpt>
      <trkpt lat="44.79137" lon="0.46356">
        <ele>157</ele>
        <time>2023-07-14T09:25:11Z</time>
      </trkpt>
      <trkpt lat="44.79143" lon="0.46359">
        <ele>157.2</ele>
        <time>2023-07-14T09:25:13Z</time>
      </trkpt>
      <trkpt lat="44.79146" lon="0.46361">
        <ele>157.3</ele>
        <time>2023-07-14T09:25:14Z</time>
      </trkpt>
      <trkpt lat="44.79149" lon="0.46362">
        <ele>157.4</ele>
        <time>2023-07-14T09:25:15Z</time>
      </trkpt>
      <trkpt lat="44.79155" lon="0.46366">
        <ele>157.6</ele>
        <time>2023-07-14T09:25:17Z</time>
      </trkpt>
      <trkpt lat="44.79161" lon="0.4637">
        <ele>157.8</ele>
        <time>2023-07-14T09:25:19Z</time>
      </trkpt>
      <trkpt lat="44.79168" lon="0.46373">
        <ele>158</ele>
        <time>2023-07-14T09:25:21Z</time>
      </trkpt>
      <trkpt lat="44.79171" lon="0.46374">
        <ele>158.1</ele>
        <time>2023-07-14T09:25:22Z</time>
      </trkpt>
      <trkpt lat="44.79174" lon="0.46376">
        <ele>158.2</ele>
        <time>2023-07-14T09:25:23Z</time>
      </trkpt>
      <trkpt lat="44.7918" lon="0.46379">
        <ele>158.4</ele>
        <time>2023-07-14T09:25:25Z</time>
      </trkpt>
      <trkpt lat="44.79186" lon="0.46383">
        <ele>158.6</ele>
        <time>2023-07-14T09:25:27Z</time>
      </trkpt>
      <trkpt lat="44.79189" lon="0.46385">
        <ele>158.7</ele>
        <time>2023-07-14T09:25:28Z</time>
      </trkpt>
      <trkpt lat="44.79192" lon="0.46387">
        <ele>158.8</ele>
        <time>2023-07-14T09:25:29Z</time>
      </trkpt>
      <trkpt lat="44.79199" lon="0.4639">
        <ele>159</ele>
        <time>2023-07-14T09:25:31Z</time>
      </trkpt>
      <trkpt lat="44.79205" lon="0.46393">
        <ele>159.2</ele>
        <time>2023-07-14T09:25:33Z</time>
      </trkpt>
      <trkpt lat="44.79211" lon="0.46396">
        <ele>159.3</ele>
        <time>2023-07-14T09:25:35Z</time>
      </trkpt>
      <trkpt lat="44.79215" lon="0.46398">
        <ele>159.4</ele>
        <time>2023-07-14T09:25:36Z</time>
      </trkpt>
      <trkpt lat="44.79218" lon="0.46399">
        <ele>159.5</ele>
        <time>2023-07-14T09:25:37Z</time>
      </trkpt>
      <trkpt lat="44.79224" lon="0.46402">
        <ele>159.6</ele>
        <time>2023-07-14T09:25:39Z</time>
      </trkpt>
      <trkpt lat="44.79231" lon="0.46403">
        <ele>159.8</ele>
        <time>2023-07-14T09:25:41Z</time>
      </trkpt>
      <trkpt lat="44.79234" lon="0.46402">
        <ele>159.9</ele>
        <time>2023-07-14T09:25:42Z</time>
      </trkpt>
      <trkpt lat="44.79236" lon="0.46398">
        <ele>159.6</ele>
        <time>2023-07-14T09:25:43Z</time>
      </trkpt>
      <trkpt lat="44.79242" lon="0.46384">
        <ele>158.9</ele>
        <time>2023-07-14T09:25:45Z</time>
      </trkpt>
      <trkpt lat="44.7925" lon="0.46371">
        <ele>158.3</ele>
        <time>2023-07-14T09:25:47Z</time>
      </trkpt>
      <trkpt lat="44.7926" lon="0.4636">
        <ele>157.8</ele>
        <time>2023-07-14T09:25:49Z</time>
      </trkpt>
      <trkpt lat="44.7927" lon="0.4635">
        <ele>157.6</ele>
        <time>2023-07-14T09:25:51Z</time>
      </trkpt>
      <trkpt lat="44.79275" lon="0.46345">
        <ele>157.5</ele>
        <time>2023-07-14T09:25:52Z</time>
      </trkpt>
      <trkpt lat="44.79279" lon="0.4634">
        <ele>157.5</ele>
        <time>2023-07-14T09:25:53Z</time>
      </trkpt>
      <trkpt lat="44.79283" lon="0.46335">
        <ele>157.5</ele>
        <time>2023-07-14T09:25:54Z</time>
      </trkpt>
      <trkpt lat="44.79286" lon="0.46329">
        <ele>157.5</ele>
        <time>2023-07-14T09:25:55Z</time>
      </trkpt>
      <trkpt lat="44.7929" lon="0.46319">
        <ele>157.5</ele>
        <time>2023-07-14T09:25:57Z</time>
      </trkpt>
      <trkpt lat="44.79295" lon="0.4631">
        <ele>157.5</ele>
        <time>2023-07-14T09:25:59Z</time>
      </trkpt>
      <trkpt lat="44.79299" lon="0.46302">
        <ele>157.6</ele>
        <time>2023-07-14T09:26:01Z</time>
      </trkpt>
      <trkpt lat="44.79304" lon="0.46293">
        <ele>157.8</ele>
        <time>2023-07-14T09:26:03Z</time>
      </trkpt>
      <trkpt lat="44.79309" lon="0.46286">
        <ele>158.2</ele>
        <time>2023-07-14T09:26:05Z</time>
      </trkpt>
      <trkpt lat="44.79313" lon="0.4628">
        <ele>158.5</ele>
        <time>2023-07-14T09:26:07Z</time>
      </trkpt>
      <trkpt lat="44.79316" lon="0.46273">
        <ele>158.9</ele>
        <time>2023-07-14T09:26:09Z</time>
      </trkpt>
      <trkpt lat="44.79318" lon="0.46268">
        <ele>159.1</ele>
        <time>2023-07-14T09:26:11Z</time>
      </trkpt>
      <trkpt lat="44.7932" lon="0.46263">
        <ele>159.4</ele>
        <time>2023-07-14T09:26:13Z</time>
      </trkpt>
      <trkpt lat="44.79321" lon="0.46257">
        <ele>159.7</ele>
        <time>2023-07-14T09:26:15Z</time>
      </trkpt>
      <trkpt lat="44.79323" lon="0.46252">
        <ele>159.9</ele>
        <time>2023-07-14T09:26:17Z</time>
      </trkpt>
      <trkpt lat="44.79324" lon="0.46247">
        <ele>160.3</ele>
        <time>2023-07-14T09:26:19Z</time>
      </trkpt>
      <trkpt lat="44.79325" lon="0.46241">
        <ele>160.6</ele>
        <time>2023-07-14T09:26:21Z</time>
      </trkpt>
      <trkpt lat="44.79327" lon="0.46235">
        <ele>160.9</ele>
        <time>2023-07-14T09:26:23Z</time>
      </trkpt>
      <trkpt lat="44.79328" lon="0.4623">
        <ele>161.2</ele>
        <time>2023-07-14T09:26:25Z</time>
      </trkpt>
      <trkpt lat="44.79329" lon="0.46225">
        <ele>161.6</ele>
        <time>2023-07-14T09:26:27Z</time>
      </trkpt>
      <trkpt lat="44.7933" lon="0.46219">
        <ele>161.9</ele>
        <time>2023-07-14T09:26:29Z</time>
      </trkpt>
      <trkpt lat="44.7933" lon="0.46213">
        <ele>162.2</ele>
        <time>2023-07-14T09:26:31Z</time>
      </trkpt>
      <trkpt lat="44.79331" lon="0.46207">
        <ele>162.5</ele>
        <time>2023-07-14T09:26:33Z</time>
      </trkpt>
      <trkpt lat="44.79332" lon="0.46201">
        <ele>162.7</ele>
        <time>2023-07-14T09:26:35Z</time>
      </trkpt>
      <trkpt lat="44.79334" lon="0.46195">
        <ele>163</ele>
        <time>2023-07-14T09:26:37Z</time>
      </trkpt>
      <trkpt lat="44.79335" lon="0.46188">
        <ele>163.2</ele>
        <time>2023-07-14T09:26:39Z</time>
      </trkpt>
      <trkpt lat="44.79337" lon="0.46182">
        <ele>163.5</ele>
        <time>2023-07-14T09:26:41Z</time>
      </trkpt>
      <trkpt lat="44.79338" lon="0.46176">
        <ele>163.7</ele>
        <time>2023-07-14T09:26:43Z</time>
      </trkpt>
      <trkpt lat="44.7934" lon="0.46169">
        <ele>163.9</ele>
        <time>2023-07-14T09:26:45Z</time>
      </trkpt>
      <trkpt lat="44.7934" lon="0.46166">
        <ele>164.1</ele>
        <time>2023-07-14T09:26:46Z</time>
      </trkpt>
      <trkpt lat="44.79341" lon="0.46162">
        <ele>164.2</ele>
        <time>2023-07-14T09:26:47Z</time>
      </trkpt>
      <trkpt lat="44.79342" lon="0.46156">
        <ele>164.4</ele>
        <time>2023-07-14T09:26:49Z</time>
      </trkpt>
      <trkpt lat="44.79344" lon="0.46149">
        <ele>164.6</ele>
        <time>2023-07-14T09:26:51Z</time>
      </trkpt>
      <trkpt lat="44.79345" lon="0.46142">
        <ele>164.8</ele>
        <time>2023-07-14T09:26:53Z</time>
      </trkpt>
      <trkpt lat="44.79346" lon="0.46139">
        <ele>164.9</ele>
        <time>2023-07-14T09:26:54Z</time>
      </trkpt>
      <trkpt lat="44.79347" lon="0.46136">
        <ele>164.9</ele>
        <time>2023-07-14T09:26:55Z</time>
      </trkpt>
      <trkpt lat="44.79348" lon="0.46129">
        <ele>165.1</ele>
        <time>2023-07-14T09:26:57Z</time>
      </trkpt>
      <trkpt lat="44.7935" lon="0.46122">
        <ele>165.1</ele>
        <time>2023-07-14T09:26:59Z</time>
      </trkpt>
      <trkpt lat="44.79352" lon="0.46113">
        <ele>165</ele>
        <time>2023-07-14T09:27:01Z</time>
      </trkpt>
      <trkpt lat="44.79352" lon="0.46109">
        <ele>164.9</ele>
        <time>2023-07-14T09:27:02Z</time>
      </trkpt>
      <trkpt lat="44.79353" lon="0.46103">
        <ele>164.8</ele>
        <time>2023-07-14T09:27:03Z</time>
      </trkpt>
      <trkpt lat="44.79355" lon="0.46092">
        <ele>164.4</ele>
        <time>2023-07-14T09:27:05Z</time>
      </trkpt>
      <trkpt lat="44.79358" lon="0.46079">
        <ele>163.9</ele>
        <time>2023-07-14T09:27:07Z</time>
      </trkpt>
      <trkpt lat="44.79361" lon="0.46065">
        <ele>163.3</ele>
        <time>2023-07-14T09:27:09Z</time>
      </trkpt>
      <trkpt lat="44.79366" lon="0.46051">
        <ele>162.8</ele>
        <time>2023-07-14T09:27:11Z</time>
      </trkpt>
      <trkpt lat="44.79371" lon="0.46036">
        <ele>162.3</ele>
        <time>2023-07-14T09:27:13Z</time>
      </trkpt>
      <trkpt lat="44.79376" lon="0.46021">
        <ele>161.9</ele>
        <time>2023-07-14T09:27:15Z</time>
      </trkpt>
      <trkpt lat="44.79381" lon="0.46007">
        <ele>161.7</ele>
        <time>2023-07-14T09:27:17Z</time>
      </trkpt>
      <trkpt lat="44.79386" lon="0.45997">
        <ele>161.7</ele>
        <time>2023-07-14T09:27:19Z</time>
      </trkpt>
      <trkpt lat="44.79388" lon="0.45993">
        <ele>161.8</ele>
        <time>2023-07-14T09:27:20Z</time>
      </trkpt>
      <trkpt lat="44.7939" lon="0.45989">
        <ele>161.9</ele>
        <time>2023-07-14T09:27:21Z</time>
      </trkpt>
      <trkpt lat="44.79393" lon="0.45984">
        <ele>162</ele>
        <time>2023-07-14T09:27:23Z</time>
      </trkpt>
      <trkpt lat="44.79394" lon="0.45982">
        <ele>162.1</ele>
        <time>2023-07-14T09:27:24Z</time>
      </trkpt>
      <trkpt lat="44.79395" lon="0.45979">
        <ele>162.4</ele>
        <time>2023-07-14T09:27:25Z</time>
      </trkpt>
      <trkpt lat="44.79395" lon="0.45976">
        <ele>162.4</ele>
        <time>2023-07-14T09:27:26Z</time>
      </trkpt>
      <trkpt lat="44.79395" lon="0.45974">
        <ele>162.7</ele>
        <time>2023-07-14T09:27:27Z</time>
      </trkpt>
      <trkpt lat="44.79393" lon="0.45972">
        <ele>162.7</ele>
        <time>2023-07-14T09:27:28Z</time>
      </trkpt>
      <trkpt lat="44.79391" lon="0.4597">
        <ele>162.6</ele>
        <time>2023-07-14T09:27:29Z</time>
      </trkpt>
      <trkpt lat="44.79385" lon="0.45966">
        <ele>162</ele>
        <time>2023-07-14T09:27:31Z</time>
      </trkpt>
      <trkpt lat="44.79379" lon="0.45961">
        <ele>161.5</ele>
        <time>2023-07-14T09:27:33Z</time>
      </trkpt>
      <trkpt lat="44.79372" lon="0.45958">
        <ele>161.1</ele>
        <time>2023-07-14T09:27:35Z</time>
      </trkpt>
      <trkpt lat="44.79364" lon="0.45953">
        <ele>160.5</ele>
        <time>2023-07-14T09:27:37Z</time>
      </trkpt>
      <trkpt lat="44.79355" lon="0.45949">
        <ele>160.2</ele>
        <time>2023-07-14T09:27:39Z</time>
      </trkpt>
      <trkpt lat="44.79351" lon="0.45946">
        <ele>160</ele>
        <time>2023-07-14T09:27:40Z</time>
      </trkpt>
      <trkpt lat="44.79346" lon="0.45944">
        <ele>160</ele>
        <time>2023-07-14T09:27:41Z</time>
      </trkpt>
      <trkpt lat="44.79336" lon="0.45938">
        <ele>159.7</ele>
        <time>2023-07-14T09:27:43Z</time>
      </trkpt>
      <trkpt lat="44.79327" lon="0.45932">
        <ele>159.6</ele>
        <time>2023-07-14T09:27:45Z</time>
      </trkpt>
      <trkpt lat="44.79322" lon="0.45928">
        <ele>159.4</ele>
        <time>2023-07-14T09:27:46Z</time>
      </trkpt>
      <trkpt lat="44.79319" lon="0.45922">
        <ele>159.4</ele>
        <time>2023-07-14T09:27:47Z</time>
      </trkpt>
      <trkpt lat="44.79315" lon="0.45914">
        <ele>159.6</ele>
        <time>2023-07-14T09:27:49Z</time>
      </trkpt>
      <trkpt lat="44.79311" lon="0.45911">
        <ele>159.6</ele>
        <time>2023-07-14T09:27:51Z</time>
      </trkpt>
      <trkpt lat="44.79307" lon="0.45909">
        <ele>159.2</ele>
        <time>2023-07-14T09:27:52Z</time>
      </trkpt>
      <trkpt lat="44.79304" lon="0.45907">
        <ele>159.1</ele>
        <time>2023-07-14T09:27:53Z</time>
      </trkpt>
      <trkpt lat="44.79299" lon="0.45903">
        <ele>159</ele>
        <time>2023-07-14T09:27:55Z</time>
      </trkpt>
      <trkpt lat="44.79297" lon="0.45898">
        <ele>159</ele>
        <time>2023-07-14T09:27:57Z</time>
      </trkpt>
      <trkpt lat="44.79296" lon="0.45896">
        <ele>159.1</ele>
        <time>2023-07-14T09:27:58Z</time>
      </trkpt>
      <trkpt lat="44.79293" lon="0.45894">
        <ele>158.9</ele>
        <time>2023-07-14T09:27:59Z</time>
      </trkpt>
      <trkpt lat="44.79289" lon="0.4589">
        <ele>158.7</ele>
        <time>2023-07-14T09:28:01Z</time>
      </trkpt>
      <trkpt lat="44.79286" lon="0.45886">
        <ele>158.7</ele>
        <time>2023-07-14T09:28:03Z</time>
      </trkpt>
      <trkpt lat="44.79284" lon="0.45882">
        <ele>158.7</ele>
        <time>2023-07-14T09:28:05Z</time>
      </trkpt>
      <trkpt lat="44.79282" lon="0.45878">
        <ele>158.7</ele>
        <time>2023-07-14T09:28:07Z</time>
      </trkpt>
      <trkpt lat="44.79281" lon="0.45875">
        <ele>158.8</ele>
        <time>2023-07-14T09:28:09Z</time>
      </trkpt>
      <trkpt lat="44.79269" lon="0.45855">
        <ele>158.7</ele>
        <time>2023-07-14T09:28:20Z</time>
      </trkpt>
      <trkpt lat="44.79267" lon="0.45853">
        <ele>158.7</ele>
        <time>2023-07-14T09:28:21Z</time>
      </trkpt>
      <trkpt lat="44.79266" lon="0.45848">
        <ele>158.8</ele>
        <time>2023-07-14T09:28:23Z</time>
      </trkpt>
      <trkpt lat="44.79265" lon="0.45845">
        <ele>158.9</ele>
        <time>2023-07-14T09:28:24Z</time>
      </trkpt>
      <trkpt lat="44.79265" lon="0.45843">
        <ele>158.8</ele>
        <time>2023-07-14T09:28:25Z</time>
      </trkpt>
      <trkpt lat="44.79264" lon="0.45841">
        <ele>158.8</ele>
        <time>2023-07-14T09:28:26Z</time>
      </trkpt>
      <trkpt lat="44.79262" lon="0.45838">
        <ele>158.8</ele>
        <time>2023-07-14T09:28:27Z</time>
      </trkpt>
      <trkpt lat="44.79259" lon="0.45834">
        <ele>158.7</ele>
        <time>2023-07-14T09:28:28Z</time>
      </trkpt>
      <trkpt lat="44.79255" lon="0.45833">
        <ele>158.6</ele>
        <time>2023-07-14T09:28:29Z</time>
      </trkpt>
      <trkpt lat="44.79248" lon="0.4583">
        <ele>158.3</ele>
        <time>2023-07-14T09:28:31Z</time>
      </trkpt>
      <trkpt lat="44.79243" lon="0.45828">
        <ele>158</ele>
        <time>2023-07-14T09:28:32Z</time>
      </trkpt>
      <trkpt lat="44.79238" lon="0.45826">
        <ele>157.8</ele>
        <time>2023-07-14T09:28:33Z</time>
      </trkpt>
      <trkpt lat="44.79228" lon="0.45822">
        <ele>157.3</ele>
        <time>2023-07-14T09:28:35Z</time>
      </trkpt>
      <trkpt lat="44.79225" lon="0.45821">
        <ele>156.9</ele>
        <time>2023-07-14T09:28:36Z</time>
      </trkpt>
      <trkpt lat="44.79222" lon="0.45819">
        <ele>156.5</ele>
        <time>2023-07-14T09:28:37Z</time>
      </trkpt>
      <trkpt lat="44.79218" lon="0.45815">
        <ele>156.2</ele>
        <time>2023-07-14T09:28:39Z</time>
      </trkpt>
      <trkpt lat="44.79218" lon="0.45816">
        <ele>156.2</ele>
        <time>2023-07-14T09:28:40Z</time>
      </trkpt>
      <trkpt lat="44.79212" lon="0.45812">
        <ele>155.5</ele>
        <time>2023-07-14T09:28:44Z</time>
      </trkpt>
      <trkpt lat="44.79209" lon="0.45809">
        <ele>155.2</ele>
        <time>2023-07-14T09:28:45Z</time>
      </trkpt>
      <trkpt lat="44.79206" lon="0.45804">
        <ele>154.8</ele>
        <time>2023-07-14T09:28:47Z</time>
      </trkpt>
      <trkpt lat="44.79204" lon="0.45803">
        <ele>154.4</ele>
        <time>2023-07-14T09:28:48Z</time>
      </trkpt>
      <trkpt lat="44.79199" lon="0.45802">
        <ele>154</ele>
        <time>2023-07-14T09:28:49Z</time>
      </trkpt>
      <trkpt lat="44.79195" lon="0.45799">
        <ele>153</ele>
        <time>2023-07-14T09:28:50Z</time>
      </trkpt>
      <trkpt lat="44.79192" lon="0.45795">
        <ele>153.1</ele>
        <time>2023-07-14T09:28:51Z</time>
      </trkpt>
      <trkpt lat="44.79191" lon="0.45792">
        <ele>152.6</ele>
        <time>2023-07-14T09:28:52Z</time>
      </trkpt>
      <trkpt lat="44.7919" lon="0.45788">
        <ele>152.7</ele>
        <time>2023-07-14T09:28:53Z</time>
      </trkpt>
      <trkpt lat="44.7919" lon="0.45784">
        <ele>152.7</ele>
        <time>2023-07-14T09:28:55Z</time>
      </trkpt>
      <trkpt lat="44.79191" lon="0.45778">
        <ele>152.8</ele>
        <time>2023-07-14T09:28:57Z</time>
      </trkpt>
      <trkpt lat="44.79191" lon="0.45776">
        <ele>153</ele>
        <time>2023-07-14T09:28:58Z</time>
      </trkpt>
      <trkpt lat="44.79192" lon="0.45773">
        <ele>153.6</ele>
        <time>2023-07-14T09:28:59Z</time>
      </trkpt>
      <trkpt lat="44.79193" lon="0.45768">
        <ele>153.7</ele>
        <time>2023-07-14T09:29:01Z</time>
      </trkpt>
      <trkpt lat="44.79195" lon="0.45763">
        <ele>154.3</ele>
        <time>2023-07-14T09:29:03Z</time>
      </trkpt>
      <trkpt lat="44.79196" lon="0.45758">
        <ele>154.4</ele>
        <time>2023-07-14T09:29:05Z</time>
      </trkpt>
      <trkpt lat="44.79198" lon="0.45752">
        <ele>155</ele>
        <time>2023-07-14T09:29:07Z</time>
      </trkpt>
      <trkpt lat="44.79199" lon="0.45745">
        <ele>155.1</ele>
        <time>2023-07-14T09:29:09Z</time>
      </trkpt>
      <trkpt lat="44.79201" lon="0.45738">
        <ele>155.3</ele>
        <time>2023-07-14T09:29:11Z</time>
      </trkpt>
      <trkpt lat="44.79199" lon="0.45734">
        <ele>155.4</ele>
        <time>2023-07-14T09:29:12Z</time>
      </trkpt>
      <trkpt lat="44.79197" lon="0.4573">
        <ele>155.1</ele>
        <time>2023-07-14T09:29:13Z</time>
      </trkpt>
      <trkpt lat="44.79192" lon="0.45726">
        <ele>154.8</ele>
        <time>2023-07-14T09:29:15Z</time>
      </trkpt>
      <trkpt lat="44.79185" lon="0.45721">
        <ele>153.8</ele>
        <time>2023-07-14T09:29:17Z</time>
      </trkpt>
      <trkpt lat="44.79181" lon="0.45718">
        <ele>153.5</ele>
        <time>2023-07-14T09:29:18Z</time>
      </trkpt>
      <trkpt lat="44.79177" lon="0.45714">
        <ele>153.2</ele>
        <time>2023-07-14T09:29:19Z</time>
      </trkpt>
      <trkpt lat="44.79173" lon="0.4571">
        <ele>152.5</ele>
        <time>2023-07-14T09:29:20Z</time>
      </trkpt>
      <trkpt lat="44.79169" lon="0.45706">
        <ele>152.3</ele>
        <time>2023-07-14T09:29:21Z</time>
      </trkpt>
      <trkpt lat="44.79159" lon="0.45698">
        <ele>151.8</ele>
        <time>2023-07-14T09:29:23Z</time>
      </trkpt>
      <trkpt lat="44.79149" lon="0.4569">
        <ele>151.1</ele>
        <time>2023-07-14T09:29:25Z</time>
      </trkpt>
      <trkpt lat="44.79144" lon="0.45687">
        <ele>151</ele>
        <time>2023-07-14T09:29:26Z</time>
      </trkpt>
      <trkpt lat="44.79139" lon="0.45683">
        <ele>150.5</ele>
        <time>2023-07-14T09:29:27Z</time>
      </trkpt>
      <trkpt lat="44.79135" lon="0.45678">
        <ele>150.3</ele>
        <time>2023-07-14T09:29:28Z</time>
      </trkpt>
      <trkpt lat="44.7913" lon="0.45675">
        <ele>149.7</ele>
        <time>2023-07-14T09:29:29Z</time>
      </trkpt>
      <trkpt lat="44.79125" lon="0.45676">
        <ele>149.4</ele>
        <time>2023-07-14T09:29:30Z</time>
      </trkpt>
      <trkpt lat="44.79121" lon="0.45679">
        <ele>149</ele>
        <time>2023-07-14T09:29:31Z</time>
      </trkpt>
      <trkpt lat="44.79118" lon="0.45689">
        <ele>148.6</ele>
        <time>2023-07-14T09:29:33Z</time>
      </trkpt>
      <trkpt lat="44.79115" lon="0.457">
        <ele>148.2</ele>
        <time>2023-07-14T09:29:35Z</time>
      </trkpt>
      <trkpt lat="44.79113" lon="0.45705">
        <ele>148.1</ele>
        <time>2023-07-14T09:29:36Z</time>
      </trkpt>
      <trkpt lat="44.79112" lon="0.45709">
        <ele>147.7</ele>
        <time>2023-07-14T09:29:37Z</time>
      </trkpt>
      <trkpt lat="44.79108" lon="0.45719">
        <ele>146.9</ele>
        <time>2023-07-14T09:29:39Z</time>
      </trkpt>
      <trkpt lat="44.79105" lon="0.45729">
        <ele>146.3</ele>
        <time>2023-07-14T09:29:41Z</time>
      </trkpt>
      <trkpt lat="44.79102" lon="0.45738">
        <ele>145.6</ele>
        <time>2023-07-14T09:29:43Z</time>
      </trkpt>
      <trkpt lat="44.791" lon="0.45742">
        <ele>145.2</ele>
        <time>2023-07-14T09:29:44Z</time>
      </trkpt>
      <trkpt lat="44.79098" lon="0.45745">
        <ele>145</ele>
        <time>2023-07-14T09:29:45Z</time>
      </trkpt>
      <trkpt lat="44.79094" lon="0.45745">
        <ele>144.7</ele>
        <time>2023-07-14T09:29:46Z</time>
      </trkpt>
      <trkpt lat="44.7909" lon="0.45744">
        <ele>144.4</ele>
        <time>2023-07-14T09:29:47Z</time>
      </trkpt>
      <trkpt lat="44.79083" lon="0.45737">
        <ele>144.5</ele>
        <time>2023-07-14T09:29:49Z</time>
      </trkpt>
      <trkpt lat="44.79074" lon="0.45731">
        <ele>144.3</ele>
        <time>2023-07-14T09:29:51Z</time>
      </trkpt>
      <trkpt lat="44.79065" lon="0.45726">
        <ele>143.8</ele>
        <time>2023-07-14T09:29:53Z</time>
      </trkpt>
      <trkpt lat="44.7906" lon="0.45724">
        <ele>143.3</ele>
        <time>2023-07-14T09:29:54Z</time>
      </trkpt>
      <trkpt lat="44.79056" lon="0.45721">
        <ele>143.3</ele>
        <time>2023-07-14T09:29:55Z</time>
      </trkpt>
      <trkpt lat="44.79047" lon="0.45718">
        <ele>142.7</ele>
        <time>2023-07-14T09:29:57Z</time>
      </trkpt>
      <trkpt lat="44.79038" lon="0.45716">
        <ele>142.2</ele>
        <time>2023-07-14T09:29:59Z</time>
      </trkpt>
      <trkpt lat="44.79033" lon="0.45716">
        <ele>142.1</ele>
        <time>2023-07-14T09:30:00Z</time>
      </trkpt>
      <trkpt lat="44.79029" lon="0.45716">
        <ele>141.8</ele>
        <time>2023-07-14T09:30:01Z</time>
      </trkpt>
      <trkpt lat="44.79021" lon="0.45715">
        <ele>141.4</ele>
        <time>2023-07-14T09:30:03Z</time>
      </trkpt>
      <trkpt lat="44.79018" lon="0.45713">
        <ele>141.4</ele>
        <time>2023-07-14T09:30:04Z</time>
      </trkpt>
      <trkpt lat="44.79016" lon="0.4571">
        <ele>141.5</ele>
        <time>2023-07-14T09:30:05Z</time>
      </trkpt>
      <trkpt lat="44.79016" lon="0.45707">
        <ele>141.7</ele>
        <time>2023-07-14T09:30:06Z</time>
      </trkpt>
      <trkpt lat="44.79016" lon="0.45705">
        <ele>141.7</ele>
        <time>2023-07-14T09:30:07Z</time>
      </trkpt>
      <trkpt lat="44.79018" lon="0.457">
        <ele>142.2</ele>
        <time>2023-07-14T09:30:09Z</time>
      </trkpt>
      <trkpt lat="44.79021" lon="0.45696">
        <ele>142.4</ele>
        <time>2023-07-14T09:30:11Z</time>
      </trkpt>
      <trkpt lat="44.79023" lon="0.45692">
        <ele>142.6</ele>
        <time>2023-07-14T09:30:13Z</time>
      </trkpt>
      <trkpt lat="44.79025" lon="0.45689">
        <ele>143</ele>
        <time>2023-07-14T09:30:15Z</time>
      </trkpt>
      <trkpt lat="44.79026" lon="0.45685">
        <ele>143.2</ele>
        <time>2023-07-14T09:30:17Z</time>
      </trkpt>
      <trkpt lat="44.79027" lon="0.45683">
        <ele>143.4</ele>
        <time>2023-07-14T09:30:18Z</time>
      </trkpt>
      <trkpt lat="44.79028" lon="0.4568">
        <ele>143.7</ele>
        <time>2023-07-14T09:30:19Z</time>
      </trkpt>
      <trkpt lat="44.79028" lon="0.45678">
        <ele>143.9</ele>
        <time>2023-07-14T09:30:20Z</time>
      </trkpt>
      <trkpt lat="44.79028" lon="0.45675">
        <ele>143.9</ele>
        <time>2023-07-14T09:30:21Z</time>
      </trkpt>
      <trkpt lat="44.79026" lon="0.45674">
        <ele>143.8</ele>
        <time>2023-07-14T09:30:22Z</time>
      </trkpt>
      <trkpt lat="44.79025" lon="0.45673">
        <ele>143.8</ele>
        <time>2023-07-14T09:30:23Z</time>
      </trkpt>
      <trkpt lat="44.79021" lon="0.45671">
        <ele>143.3</ele>
        <time>2023-07-14T09:30:25Z</time>
      </trkpt>
      <trkpt lat="44.79016" lon="0.45668">
        <ele>143.2</ele>
        <time>2023-07-14T09:30:27Z</time>
      </trkpt>
      <trkpt lat="44.79011" lon="0.45666">
        <ele>142.9</ele>
        <time>2023-07-14T09:30:29Z</time>
      </trkpt>
      <trkpt lat="44.79004" lon="0.45663">
        <ele>142.4</ele>
        <time>2023-07-14T09:30:31Z</time>
      </trkpt>
      <trkpt lat="44.78998" lon="0.45661">
        <ele>141.9</ele>
        <time>2023-07-14T09:30:33Z</time>
      </trkpt>
      <trkpt lat="44.78988" lon="0.45657">
        <ele>141.2</ele>
        <time>2023-07-14T09:30:35Z</time>
      </trkpt>
      <trkpt lat="44.7898" lon="0.4565">
        <ele>140.4</ele>
        <time>2023-07-14T09:30:37Z</time>
      </trkpt>
      <trkpt lat="44.78973" lon="0.45641">
        <ele>139.7</ele>
        <time>2023-07-14T09:30:39Z</time>
      </trkpt>
      <trkpt lat="44.78972" lon="0.4563">
        <ele>139.2</ele>
        <time>2023-07-14T09:30:41Z</time>
      </trkpt>
      <trkpt lat="44.78971" lon="0.45621">
        <ele>139</ele>
        <time>2023-07-14T09:30:43Z</time>
      </trkpt>
      <trkpt lat="44.78968" lon="0.45617">
        <ele>138.5</ele>
        <time>2023-07-14T09:30:44Z</time>
      </trkpt>
      <trkpt lat="44.78965" lon="0.45614">
        <ele>138.2</ele>
        <time>2023-07-14T09:30:45Z</time>
      </trkpt>
      <trkpt lat="44.78957" lon="0.45609">
        <ele>137.3</ele>
        <time>2023-07-14T09:30:47Z</time>
      </trkpt>
      <trkpt lat="44.78947" lon="0.45602">
        <ele>136.6</ele>
        <time>2023-07-14T09:30:49Z</time>
      </trkpt>
      <trkpt lat="44.78935" lon="0.45593">
        <ele>135.6</ele>
        <time>2023-07-14T09:30:51Z</time>
      </trkpt>
      <trkpt lat="44.78922" lon="0.45582">
        <ele>134.9</ele>
        <time>2023-07-14T09:30:53Z</time>
      </trkpt>
      <trkpt lat="44.78915" lon="0.45576">
        <ele>134.8</ele>
        <time>2023-07-14T09:30:55Z</time>
      </trkpt>
      <trkpt lat="44.78915" lon="0.45572">
        <ele>134.9</ele>
        <time>2023-07-14T09:30:57Z</time>
      </trkpt>
      <trkpt lat="44.78917" lon="0.45568">
        <ele>134.9</ele>
        <time>2023-07-14T09:30:59Z</time>
      </trkpt>
      <trkpt lat="44.7892" lon="0.45565">
        <ele>135.1</ele>
        <time>2023-07-14T09:31:01Z</time>
      </trkpt>
      <trkpt lat="44.78923" lon="0.45562">
        <ele>135.4</ele>
        <time>2023-07-14T09:31:03Z</time>
      </trkpt>
      <trkpt lat="44.78925" lon="0.45559">
        <ele>135.6</ele>
        <time>2023-07-14T09:31:05Z</time>
      </trkpt>
      <trkpt lat="44.78926" lon="0.45557">
        <ele>135.7</ele>
        <time>2023-07-14T09:31:06Z</time>
      </trkpt>
      <trkpt lat="44.78928" lon="0.45555">
        <ele>135.8</ele>
        <time>2023-07-14T09:31:07Z</time>
      </trkpt>
      <trkpt lat="44.7893" lon="0.45551">
        <ele>136.1</ele>
        <time>2023-07-14T09:31:09Z</time>
      </trkpt>
      <trkpt lat="44.78933" lon="0.45548">
        <ele>136.3</ele>
        <time>2023-07-14T09:31:11Z</time>
      </trkpt>
      <trkpt lat="44.78935" lon="0.45543">
        <ele>136.5</ele>
        <time>2023-07-14T09:31:13Z</time>
      </trkpt>
      <trkpt lat="44.78936" lon="0.45541">
        <ele>136.8</ele>
        <time>2023-07-14T09:31:14Z</time>
      </trkpt>
      <trkpt lat="44.78936" lon="0.45539">
        <ele>136.8</ele>
        <time>2023-07-14T09:31:15Z</time>
      </trkpt>
      <trkpt lat="44.78934" lon="0.45532">
        <ele>137</ele>
        <time>2023-07-14T09:31:17Z</time>
      </trkpt>
      <trkpt lat="44.78932" lon="0.4553">
        <ele>136.9</ele>
        <time>2023-07-14T09:31:18Z</time>
      </trkpt>
      <trkpt lat="44.7893" lon="0.45527">
        <ele>137.1</ele>
        <time>2023-07-14T09:31:19Z</time>
      </trkpt>
      <trkpt lat="44.78926" lon="0.45522">
        <ele>137.2</ele>
        <time>2023-07-14T09:31:21Z</time>
      </trkpt>
      <trkpt lat="44.78923" lon="0.45517">
        <ele>137.4</ele>
        <time>2023-07-14T09:31:23Z</time>
      </trkpt>
      <trkpt lat="44.78921" lon="0.45514">
        <ele>137.6</ele>
        <time>2023-07-14T09:31:24Z</time>
      </trkpt>
      <trkpt lat="44.78919" lon="0.45512">
        <ele>137.5</ele>
        <time>2023-07-14T09:31:25Z</time>
      </trkpt>
      <trkpt lat="44.78916" lon="0.45507">
        <ele>137.9</ele>
        <time>2023-07-14T09:31:27Z</time>
      </trkpt>
      <trkpt lat="44.78913" lon="0.45504">
        <ele>137.8</ele>
        <time>2023-07-14T09:31:29Z</time>
      </trkpt>
      <trkpt lat="44.7891" lon="0.455">
        <ele>137.9</ele>
        <time>2023-07-14T09:31:31Z</time>
      </trkpt>
      <trkpt lat="44.78908" lon="0.45497">
        <ele>138.1</ele>
        <time>2023-07-14T09:31:33Z</time>
      </trkpt>
      <trkpt lat="44.78905" lon="0.45493">
        <ele>138.3</ele>
        <time>2023-07-14T09:31:35Z</time>
      </trkpt>
      <trkpt lat="44.78903" lon="0.4549">
        <ele>138.5</ele>
        <time>2023-07-14T09:31:37Z</time>
      </trkpt>
      <trkpt lat="44.789" lon="0.45487">
        <ele>138.5</ele>
        <time>2023-07-14T09:31:39Z</time>
      </trkpt>
      <trkpt lat="44.78898" lon="0.45484">
        <ele>138.7</ele>
        <time>2023-07-14T09:31:41Z</time>
      </trkpt>
      <trkpt lat="44.78896" lon="0.45481">
        <ele>138.9</ele>
        <time>2023-07-14T09:31:43Z</time>
      </trkpt>
      <trkpt lat="44.78894" lon="0.45478">
        <ele>139</ele>
        <time>2023-07-14T09:31:45Z</time>
      </trkpt>
      <trkpt lat="44.78893" lon="0.45477">
        <ele>139.2</ele>
        <time>2023-07-14T09:31:46Z</time>
      </trkpt>
      <trkpt lat="44.78892" lon="0.45476">
        <ele>139.2</ele>
        <time>2023-07-14T09:31:47Z</time>
      </trkpt>
      <trkpt lat="44.7889" lon="0.45473">
        <ele>139.4</ele>
        <time>2023-07-14T09:31:49Z</time>
      </trkpt>
      <trkpt lat="44.78887" lon="0.45469">
        <ele>139.2</ele>
        <time>2023-07-14T09:31:51Z</time>
      </trkpt>
      <trkpt lat="44.78884" lon="0.45466">
        <ele>139.5</ele>
        <time>2023-07-14T09:31:53Z</time>
      </trkpt>
      <trkpt lat="44.78882" lon="0.45463">
        <ele>139.7</ele>
        <time>2023-07-14T09:31:55Z</time>
      </trkpt>
      <trkpt lat="44.78879" lon="0.4546">
        <ele>139.8</ele>
        <time>2023-07-14T09:31:57Z</time>
      </trkpt>
      <trkpt lat="44.78876" lon="0.45456">
        <ele>139.7</ele>
        <time>2023-07-14T09:31:59Z</time>
      </trkpt>
      <trkpt lat="44.78874" lon="0.45453">
        <ele>139.8</ele>
        <time>2023-07-14T09:32:01Z</time>
      </trkpt>
      <trkpt lat="44.78873" lon="0.45452">
        <ele>140.2</ele>
        <time>2023-07-14T09:32:02Z</time>
      </trkpt>
      <trkpt lat="44.78871" lon="0.4545">
        <ele>140</ele>
        <time>2023-07-14T09:32:03Z</time>
      </trkpt>
      <trkpt lat="44.78869" lon="0.45446">
        <ele>140.2</ele>
        <time>2023-07-14T09:32:05Z</time>
      </trkpt>
      <trkpt lat="44.78867" lon="0.45443">
        <ele>140.6</ele>
        <time>2023-07-14T09:32:07Z</time>
      </trkpt>
      <trkpt lat="44.78864" lon="0.45439">
        <ele>140.4</ele>
        <time>2023-07-14T09:32:09Z</time>
      </trkpt>
      <trkpt lat="44.78861" lon="0.45435">
        <ele>140.7</ele>
        <time>2023-07-14T09:32:11Z</time>
      </trkpt>
      <trkpt lat="44.7886" lon="0.45431">
        <ele>140.9</ele>
        <time>2023-07-14T09:32:13Z</time>
      </trkpt>
      <trkpt lat="44.78858" lon="0.45426">
        <ele>141.3</ele>
        <time>2023-07-14T09:32:15Z</time>
      </trkpt>
      <trkpt lat="44.78858" lon="0.45424">
        <ele>141.7</ele>
        <time>2023-07-14T09:32:16Z</time>
      </trkpt>
      <trkpt lat="44.78859" lon="0.45422">
        <ele>141.7</ele>
        <time>2023-07-14T09:32:17Z</time>
      </trkpt>
      <trkpt lat="44.78861" lon="0.45419">
        <ele>142.4</ele>
        <time>2023-07-14T09:32:19Z</time>
      </trkpt>
      <trkpt lat="44.78863" lon="0.45416">
        <ele>142.7</ele>
        <time>2023-07-14T09:32:21Z</time>
      </trkpt>
      <trkpt lat="44.78864" lon="0.45415">
        <ele>143</ele>
        <time>2023-07-14T09:32:22Z</time>
      </trkpt>
      <trkpt lat="44.78864" lon="0.45413">
        <ele>143.1</ele>
        <time>2023-07-14T09:32:23Z</time>
      </trkpt>
      <trkpt lat="44.78867" lon="0.4541">
        <ele>143.7</ele>
        <time>2023-07-14T09:32:25Z</time>
      </trkpt>
      <trkpt lat="44.78869" lon="0.45407">
        <ele>144</ele>
        <time>2023-07-14T09:32:27Z</time>
      </trkpt>
      <trkpt lat="44.78869" lon="0.45405">
        <ele>144.3</ele>
        <time>2023-07-14T09:32:28Z</time>
      </trkpt>
      <trkpt lat="44.7887" lon="0.45403">
        <ele>144.6</ele>
        <time>2023-07-14T09:32:29Z</time>
      </trkpt>
      <trkpt lat="44.78872" lon="0.454">
        <ele>144.9</ele>
        <time>2023-07-14T09:32:31Z</time>
      </trkpt>
      <trkpt lat="44.78873" lon="0.45396">
        <ele>145.4</ele>
        <time>2023-07-14T09:32:33Z</time>
      </trkpt>
      <trkpt lat="44.78873" lon="0.45392">
        <ele>145.4</ele>
        <time>2023-07-14T09:32:35Z</time>
      </trkpt>
      <trkpt lat="44.78873" lon="0.45388">
        <ele>145.7</ele>
        <time>2023-07-14T09:32:37Z</time>
      </trkpt>
      <trkpt lat="44.78871" lon="0.45384">
        <ele>145.8</ele>
        <time>2023-07-14T09:32:39Z</time>
      </trkpt>
      <trkpt lat="44.78866" lon="0.45377">
        <ele>146</ele>
        <time>2023-07-14T09:32:41Z</time>
      </trkpt>
      <trkpt lat="44.78863" lon="0.45374">
        <ele>145.7</ele>
        <time>2023-07-14T09:32:42Z</time>
      </trkpt>
      <trkpt lat="44.78858" lon="0.4537">
        <ele>145.7</ele>
        <time>2023-07-14T09:32:43Z</time>
      </trkpt>
      <trkpt lat="44.78854" lon="0.45365">
        <ele>145.4</ele>
        <time>2023-07-14T09:32:44Z</time>
      </trkpt>
      <trkpt lat="44.78849" lon="0.45361">
        <ele>145.5</ele>
        <time>2023-07-14T09:32:45Z</time>
      </trkpt>
      <trkpt lat="44.78843" lon="0.45355">
        <ele>145.2</ele>
        <time>2023-07-14T09:32:46Z</time>
      </trkpt>
      <trkpt lat="44.78839" lon="0.45349">
        <ele>145.2</ele>
        <time>2023-07-14T09:32:47Z</time>
      </trkpt>
      <trkpt lat="44.78829" lon="0.45336">
        <ele>144.7</ele>
        <time>2023-07-14T09:32:49Z</time>
      </trkpt>
      <trkpt lat="44.78818" lon="0.45326">
        <ele>144.7</ele>
        <time>2023-07-14T09:32:51Z</time>
      </trkpt>
      <trkpt lat="44.78813" lon="0.45324">
        <ele>144.3</ele>
        <time>2023-07-14T09:32:52Z</time>
      </trkpt>
      <trkpt lat="44.78807" lon="0.45323">
        <ele>144</ele>
        <time>2023-07-14T09:32:53Z</time>
      </trkpt>
      <trkpt lat="44.78797" lon="0.45323">
        <ele>143.8</ele>
        <time>2023-07-14T09:32:55Z</time>
      </trkpt>
      <trkpt lat="44.78793" lon="0.45322">
        <ele>143.7</ele>
        <time>2023-07-14T09:32:56Z</time>
      </trkpt>
      <trkpt lat="44.78789" lon="0.45321">
        <ele>143.5</ele>
        <time>2023-07-14T09:32:57Z</time>
      </trkpt>
      <trkpt lat="44.78782" lon="0.45318">
        <ele>143.5</ele>
        <time>2023-07-14T09:32:59Z</time>
      </trkpt>
      <trkpt lat="44.78776" lon="0.45315">
        <ele>143.2</ele>
        <time>2023-07-14T09:33:01Z</time>
      </trkpt>
      <trkpt lat="44.7877" lon="0.45312">
        <ele>143.3</ele>
        <time>2023-07-14T09:33:03Z</time>
      </trkpt>
      <trkpt lat="44.78767" lon="0.45311">
        <ele>143.2</ele>
        <time>2023-07-14T09:33:04Z</time>
      </trkpt>
      <trkpt lat="44.78763" lon="0.45309">
        <ele>143.5</ele>
        <time>2023-07-14T09:33:05Z</time>
      </trkpt>
      <trkpt lat="44.78757" lon="0.45307">
        <ele>143.3</ele>
        <time>2023-07-14T09:33:07Z</time>
      </trkpt>
      <trkpt lat="44.78751" lon="0.45304">
        <ele>143.6</ele>
        <time>2023-07-14T09:33:09Z</time>
      </trkpt>
      <trkpt lat="44.78745" lon="0.45301">
        <ele>143.9</ele>
        <time>2023-07-14T09:33:11Z</time>
      </trkpt>
      <trkpt lat="44.78738" lon="0.45298">
        <ele>144</ele>
        <time>2023-07-14T09:33:13Z</time>
      </trkpt>
      <trkpt lat="44.78732" lon="0.45294">
        <ele>144.5</ele>
        <time>2023-07-14T09:33:15Z</time>
      </trkpt>
      <trkpt lat="44.78724" lon="0.4529">
        <ele>144.9</ele>
        <time>2023-07-14T09:33:17Z</time>
      </trkpt>
      <trkpt lat="44.7872" lon="0.45288">
        <ele>145.3</ele>
        <time>2023-07-14T09:33:18Z</time>
      </trkpt>
      <trkpt lat="44.78717" lon="0.45286">
        <ele>145.4</ele>
        <time>2023-07-14T09:33:19Z</time>
      </trkpt>
      <trkpt lat="44.78709" lon="0.45281">
        <ele>145.8</ele>
        <time>2023-07-14T09:33:21Z</time>
      </trkpt>
      <trkpt lat="44.78701" lon="0.45276">
        <ele>146.2</ele>
        <time>2023-07-14T09:33:23Z</time>
      </trkpt>
      <trkpt lat="44.78693" lon="0.45271">
        <ele>146.9</ele>
        <time>2023-07-14T09:33:25Z</time>
      </trkpt>
      <trkpt lat="44.78685" lon="0.45266">
        <ele>147.3</ele>
        <time>2023-07-14T09:33:27Z</time>
      </trkpt>
      <trkpt lat="44.78678" lon="0.45262">
        <ele>147.6</ele>
        <time>2023-07-14T09:33:29Z</time>
      </trkpt>
      <trkpt lat="44.7867" lon="0.45257">
        <ele>148</ele>
        <time>2023-07-14T09:33:31Z</time>
      </trkpt>
      <trkpt lat="44.78664" lon="0.45252">
        <ele>148.3</ele>
        <time>2023-07-14T09:33:33Z</time>
      </trkpt>
      <trkpt lat="44.78657" lon="0.45248">
        <ele>148.5</ele>
        <time>2023-07-14T09:33:35Z</time>
      </trkpt>
      <trkpt lat="44.78651" lon="0.45242">
        <ele>148.8</ele>
        <time>2023-07-14T09:33:37Z</time>
      </trkpt>
      <trkpt lat="44.78646" lon="0.45238">
        <ele>148.9</ele>
        <time>2023-07-14T09:33:39Z</time>
      </trkpt>
      <trkpt lat="44.7864" lon="0.45232">
        <ele>149.2</ele>
        <time>2023-07-14T09:33:41Z</time>
      </trkpt>
      <trkpt lat="44.78633" lon="0.45228">
        <ele>149.3</ele>
        <time>2023-07-14T09:33:43Z</time>
      </trkpt>
      <trkpt lat="44.78627" lon="0.45222">
        <ele>149.3</ele>
        <time>2023-07-14T09:33:45Z</time>
      </trkpt>
      <trkpt lat="44.78621" lon="0.45215">
        <ele>149.4</ele>
        <time>2023-07-14T09:33:47Z</time>
      </trkpt>
      <trkpt lat="44.78615" lon="0.45209">
        <ele>149.4</ele>
        <time>2023-07-14T09:33:49Z</time>
      </trkpt>
      <trkpt lat="44.78608" lon="0.45203">
        <ele>149.4</ele>
        <time>2023-07-14T09:33:51Z</time>
      </trkpt>
      <trkpt lat="44.78601" lon="0.45196">
        <ele>149.2</ele>
        <time>2023-07-14T09:33:53Z</time>
      </trkpt>
      <trkpt lat="44.78594" lon="0.45189">
        <ele>149.1</ele>
        <time>2023-07-14T09:33:55Z</time>
      </trkpt>
      <trkpt lat="44.78585" lon="0.45182">
        <ele>148.8</ele>
        <time>2023-07-14T09:33:57Z</time>
      </trkpt>
      <trkpt lat="44.78582" lon="0.4518">
        <ele>148.8</ele>
        <time>2023-07-14T09:33:58Z</time>
      </trkpt>
      <trkpt lat="44.78577" lon="0.45178">
        <ele>148.7</ele>
        <time>2023-07-14T09:33:59Z</time>
      </trkpt>
      <trkpt lat="44.78573" lon="0.45177">
        <ele>148.6</ele>
        <time>2023-07-14T09:34:00Z</time>
      </trkpt>
      <trkpt lat="44.78569" lon="0.45176">
        <ele>148.5</ele>
        <time>2023-07-14T09:34:01Z</time>
      </trkpt>
      <trkpt lat="44.78561" lon="0.45175">
        <ele>148.4</ele>
        <time>2023-07-14T09:34:03Z</time>
      </trkpt>
      <trkpt lat="44.78554" lon="0.45174">
        <ele>148.3</ele>
        <time>2023-07-14T09:34:05Z</time>
      </trkpt>
      <trkpt lat="44.78547" lon="0.45171">
        <ele>148.3</ele>
        <time>2023-07-14T09:34:07Z</time>
      </trkpt>
      <trkpt lat="44.78542" lon="0.4517">
        <ele>148.2</ele>
        <time>2023-07-14T09:34:08Z</time>
      </trkpt>
      <trkpt lat="44.78538" lon="0.45169">
        <ele>148.2</ele>
        <time>2023-07-14T09:34:09Z</time>
      </trkpt>
      <trkpt lat="44.7853" lon="0.45168">
        <ele>148.2</ele>
        <time>2023-07-14T09:34:11Z</time>
      </trkpt>
      <trkpt lat="44.78526" lon="0.45167">
        <ele>148.2</ele>
        <time>2023-07-14T09:34:12Z</time>
      </trkpt>
      <trkpt lat="44.78522" lon="0.45166">
        <ele>148.2</ele>
        <time>2023-07-14T09:34:13Z</time>
      </trkpt>
      <trkpt lat="44.78515" lon="0.45163">
        <ele>148.2</ele>
        <time>2023-07-14T09:34:15Z</time>
      </trkpt>
      <trkpt lat="44.78511" lon="0.45161">
        <ele>148.2</ele>
        <time>2023-07-14T09:34:16Z</time>
      </trkpt>
      <trkpt lat="44.78508" lon="0.45159">
        <ele>148.3</ele>
        <time>2023-07-14T09:34:17Z</time>
      </trkpt>
      <trkpt lat="44.78501" lon="0.45156">
        <ele>148.4</ele>
        <time>2023-07-14T09:34:19Z</time>
      </trkpt>
      <trkpt lat="44.78495" lon="0.45153">
        <ele>148.4</ele>
        <time>2023-07-14T09:34:21Z</time>
      </trkpt>
      <trkpt lat="44.78492" lon="0.45151">
        <ele>148.5</ele>
        <time>2023-07-14T09:34:22Z</time>
      </trkpt>
      <trkpt lat="44.7849" lon="0.45149">
        <ele>148.5</ele>
        <time>2023-07-14T09:34:23Z</time>
      </trkpt>
      <trkpt lat="44.78484" lon="0.45147">
        <ele>148.7</ele>
        <time>2023-07-14T09:34:25Z</time>
      </trkpt>
      <trkpt lat="44.78477" lon="0.45146">
        <ele>148.7</ele>
        <time>2023-07-14T09:34:27Z</time>
      </trkpt>
      <trkpt lat="44.78468" lon="0.45147">
        <ele>148.6</ele>
        <time>2023-07-14T09:34:29Z</time>
      </trkpt>
      <trkpt lat="44.78461" lon="0.45148">
        <ele>148.3</ele>
        <time>2023-07-14T09:34:31Z</time>
      </trkpt>
      <trkpt lat="44.78457" lon="0.45149">
        <ele>148.2</ele>
        <time>2023-07-14T09:34:32Z</time>
      </trkpt>
      <trkpt lat="44.78453" lon="0.4515">
        <ele>148.2</ele>
        <time>2023-07-14T09:34:33Z</time>
      </trkpt>
      <trkpt lat="44.78446" lon="0.45153">
        <ele>147.7</ele>
        <time>2023-07-14T09:34:35Z</time>
      </trkpt>
      <trkpt lat="44.78438" lon="0.45155">
        <ele>147.6</ele>
        <time>2023-07-14T09:34:37Z</time>
      </trkpt>
      <trkpt lat="44.78435" lon="0.45156">
        <ele>147.2</ele>
        <time>2023-07-14T09:34:38Z</time>
      </trkpt>
      <trkpt lat="44.78432" lon="0.45157">
        <ele>147.1</ele>
        <time>2023-07-14T09:34:39Z</time>
      </trkpt>
      <trkpt lat="44.78427" lon="0.45159">
        <ele>147.1</ele>
        <time>2023-07-14T09:34:41Z</time>
      </trkpt>
      <trkpt lat="44.78421" lon="0.45161">
        <ele>146.7</ele>
        <time>2023-07-14T09:34:43Z</time>
      </trkpt>
      <trkpt lat="44.78418" lon="0.45162">
        <ele>146.8</ele>
        <time>2023-07-14T09:34:44Z</time>
      </trkpt>
      <trkpt lat="44.78416" lon="0.45163">
        <ele>146.8</ele>
        <time>2023-07-14T09:34:45Z</time>
      </trkpt>
      <trkpt lat="44.78411" lon="0.45164">
        <ele>146.5</ele>
        <time>2023-07-14T09:34:47Z</time>
      </trkpt>
      <trkpt lat="44.78407" lon="0.45165">
        <ele>146.6</ele>
        <time>2023-07-14T09:34:49Z</time>
      </trkpt>
      <trkpt lat="44.78404" lon="0.45166">
        <ele>146.7</ele>
        <time>2023-07-14T09:34:50Z</time>
      </trkpt>
      <trkpt lat="44.78403" lon="0.45167">
        <ele>146.8</ele>
        <time>2023-07-14T09:34:51Z</time>
      </trkpt>
      <trkpt lat="44.78399" lon="0.45167">
        <ele>146.9</ele>
        <time>2023-07-14T09:34:53Z</time>
      </trkpt>
      <trkpt lat="44.78394" lon="0.45167">
        <ele>147.1</ele>
        <time>2023-07-14T09:34:55Z</time>
      </trkpt>
      <trkpt lat="44.78389" lon="0.45167">
        <ele>147.4</ele>
        <time>2023-07-14T09:34:57Z</time>
      </trkpt>
      <trkpt lat="44.78385" lon="0.45165">
        <ele>147.5</ele>
        <time>2023-07-14T09:34:59Z</time>
      </trkpt>
      <trkpt lat="44.7838" lon="0.45164">
        <ele>148.1</ele>
        <time>2023-07-14T09:35:01Z</time>
      </trkpt>
      <trkpt lat="44.78376" lon="0.45163">
        <ele>148.2</ele>
        <time>2023-07-14T09:35:03Z</time>
      </trkpt>
      <trkpt lat="44.78372" lon="0.45163">
        <ele>148.2</ele>
        <time>2023-07-14T09:35:05Z</time>
      </trkpt>
      <trkpt lat="44.78368" lon="0.45161">
        <ele>148.2</ele>
        <time>2023-07-14T09:35:07Z</time>
      </trkpt>
      <trkpt lat="44.78365" lon="0.4516">
        <ele>148.1</ele>
        <time>2023-07-14T09:35:09Z</time>
      </trkpt>
      <trkpt lat="44.78363" lon="0.45159">
        <ele>148.1</ele>
        <time>2023-07-14T09:35:10Z</time>
      </trkpt>
      <trkpt lat="44.78362" lon="0.45158">
        <ele>148.1</ele>
        <time>2023-07-14T09:35:11Z</time>
      </trkpt>
      <trkpt lat="44.78358" lon="0.45155">
        <ele>148.1</ele>
        <time>2023-07-14T09:35:13Z</time>
      </trkpt>
      <trkpt lat="44.78355" lon="0.45153">
        <ele>148</ele>
        <time>2023-07-14T09:35:15Z</time>
      </trkpt>
      <trkpt lat="44.78354" lon="0.45153">
        <ele>148</ele>
        <time>2023-07-14T09:35:16Z</time>
      </trkpt>
      <trkpt lat="44.78353" lon="0.45154">
        <ele>148</ele>
        <time>2023-07-14T09:35:17Z</time>
      </trkpt>
      <trkpt lat="44.78355" lon="0.45158">
        <ele>148</ele>
        <time>2023-07-14T09:35:19Z</time>
      </trkpt>
      <trkpt lat="44.78358" lon="0.45159">
        <ele>148</ele>
        <time>2023-07-14T09:35:21Z</time>
      </trkpt>
      <trkpt lat="44.78362" lon="0.45159">
        <ele>147.9</ele>
        <time>2023-07-14T09:35:23Z</time>
      </trkpt>
      <trkpt lat="44.78365" lon="0.45157">
        <ele>147.9</ele>
        <time>2023-07-14T09:35:25Z</time>
      </trkpt>
      <trkpt lat="44.78366" lon="0.45152">
        <ele>147.9</ele>
        <time>2023-07-14T09:35:27Z</time>
      </trkpt>
      <trkpt lat="44.78363" lon="0.4515">
        <ele>147.9</ele>
        <time>2023-07-14T09:35:29Z</time>
      </trkpt>
      <trkpt lat="44.78359" lon="0.45148">
        <ele>147.8</ele>
        <time>2023-07-14T09:35:31Z</time>
      </trkpt>
      <trkpt lat="44.78354" lon="0.45146">
        <ele>147.8</ele>
        <time>2023-07-14T09:35:33Z</time>
      </trkpt>
      <trkpt lat="44.78348" lon="0.45144">
        <ele>147.7</ele>
        <time>2023-07-14T09:35:35Z</time>
      </trkpt>
      <trkpt lat="44.78343" lon="0.45141">
        <ele>147.7</ele>
        <time>2023-07-14T09:35:37Z</time>
      </trkpt>
      <trkpt lat="44.78337" lon="0.45139">
        <ele>147.7</ele>
        <time>2023-07-14T09:35:39Z</time>
      </trkpt>
      <trkpt lat="44.7833" lon="0.45136">
        <ele>147.6</ele>
        <time>2023-07-14T09:35:41Z</time>
      </trkpt>
      <trkpt lat="44.78324" lon="0.45133">
        <ele>147.6</ele>
        <time>2023-07-14T09:35:43Z</time>
      </trkpt>
      <trkpt lat="44.78317" lon="0.45131">
        <ele>147.5</ele>
        <time>2023-07-14T09:35:45Z</time>
      </trkpt>
      <trkpt lat="44.78311" lon="0.45127">
        <ele>147.5</ele>
        <time>2023-07-14T09:35:47Z</time>
      </trkpt>
      <trkpt lat="44.78305" lon="0.45125">
        <ele>147.4</ele>
        <time>2023-07-14T09:35:49Z</time>
      </trkpt>
      <trkpt lat="44.78299" lon="0.45122">
        <ele>147.4</ele>
        <time>2023-07-14T09:35:51Z</time>
      </trkpt>
      <trkpt lat="44.78295" lon="0.45121">
        <ele>147.3</ele>
        <time>2023-07-14T09:35:52Z</time>
      </trkpt>
      <trkpt lat="44.78292" lon="0.45119">
        <ele>147.3</ele>
        <time>2023-07-14T09:35:53Z</time>
      </trkpt>
      <trkpt lat="44.78285" lon="0.45116">
        <ele>147.3</ele>
        <time>2023-07-14T09:35:55Z</time>
      </trkpt>
      <trkpt lat="44.78279" lon="0.45113">
        <ele>147.2</ele>
        <time>2023-07-14T09:35:57Z</time>
      </trkpt>
      <trkpt lat="44.78273" lon="0.4511">
        <ele>147.2</ele>
        <time>2023-07-14T09:35:59Z</time>
      </trkpt>
      <trkpt lat="44.7827" lon="0.45109">
        <ele>147.1</ele>
        <time>2023-07-14T09:36:00Z</time>
      </trkpt>
      <trkpt lat="44.78267" lon="0.45107">
        <ele>147.1</ele>
        <time>2023-07-14T09:36:01Z</time>
      </trkpt>
      <trkpt lat="44.78266" lon="0.45105">
        <ele>147.1</ele>
        <time>2023-07-14T09:36:02Z</time>
      </trkpt>
      <trkpt lat="44.78265" lon="0.45103">
        <ele>147.1</ele>
        <time>2023-07-14T09:36:03Z</time>
      </trkpt>
      <trkpt lat="44.78266" lon="0.451">
        <ele>147</ele>
        <time>2023-07-14T09:36:04Z</time>
      </trkpt>
      <trkpt lat="44.78267" lon="0.45098">
        <ele>147.2</ele>
        <time>2023-07-14T09:36:05Z</time>
      </trkpt>
      <trkpt lat="44.78269" lon="0.45093">
        <ele>147.3</ele>
        <time>2023-07-14T09:36:07Z</time>
      </trkpt>
      <trkpt lat="44.7827" lon="0.4509">
        <ele>147.5</ele>
        <time>2023-07-14T09:36:08Z</time>
      </trkpt>
      <trkpt lat="44.78271" lon="0.45088">
        <ele>147.5</ele>
        <time>2023-07-14T09:36:09Z</time>
      </trkpt>
      <trkpt lat="44.78273" lon="0.45083">
        <ele>147.6</ele>
        <time>2023-07-14T09:36:11Z</time>
      </trkpt>
      <trkpt lat="44.78275" lon="0.45078">
        <ele>148</ele>
        <time>2023-07-14T09:36:13Z</time>
      </trkpt>
      <trkpt lat="44.78276" lon="0.45073">
        <ele>148.2</ele>
        <time>2023-07-14T09:36:15Z</time>
      </trkpt>
      <trkpt lat="44.78277" lon="0.45069">
        <ele>148.4</ele>
        <time>2023-07-14T09:36:17Z</time>
      </trkpt>
      <trkpt lat="44.78278" lon="0.45066">
        <ele>148.4</ele>
        <time>2023-07-14T09:36:18Z</time>
      </trkpt>
      <trkpt lat="44.78278" lon="0.45064">
        <ele>148.5</ele>
        <time>2023-07-14T09:36:19Z</time>
      </trkpt>
      <trkpt lat="44.7828" lon="0.4506">
        <ele>148.6</ele>
        <time>2023-07-14T09:36:21Z</time>
      </trkpt>
      <trkpt lat="44.78281" lon="0.45055">
        <ele>148.7</ele>
        <time>2023-07-14T09:36:23Z</time>
      </trkpt>
      <trkpt lat="44.78283" lon="0.45051">
        <ele>148.9</ele>
        <time>2023-07-14T09:36:25Z</time>
      </trkpt>
      <trkpt lat="44.78284" lon="0.45049">
        <ele>148.9</ele>
        <time>2023-07-14T09:36:26Z</time>
      </trkpt>
      <trkpt lat="44.78284" lon="0.45046">
        <ele>149</ele>
        <time>2023-07-14T09:36:27Z</time>
      </trkpt>
      <trkpt lat="44.78285" lon="0.45042">
        <ele>149.2</ele>
        <time>2023-07-14T09:36:29Z</time>
      </trkpt>
      <trkpt lat="44.78286" lon="0.45038">
        <ele>149.4</ele>
        <time>2023-07-14T09:36:31Z</time>
      </trkpt>
      <trkpt lat="44.78288" lon="0.45033">
        <ele>149.4</ele>
        <time>2023-07-14T09:36:33Z</time>
      </trkpt>
      <trkpt lat="44.78289" lon="0.45029">
        <ele>149.6</ele>
        <time>2023-07-14T09:36:35Z</time>
      </trkpt>
      <trkpt lat="44.7829" lon="0.45025">
        <ele>149.7</ele>
        <time>2023-07-14T09:36:37Z</time>
      </trkpt>
      <trkpt lat="44.78292" lon="0.4502">
        <ele>149.9</ele>
        <time>2023-07-14T09:36:39Z</time>
      </trkpt>
      <trkpt lat="44.78291" lon="0.45015">
        <ele>150</ele>
        <time>2023-07-14T09:36:41Z</time>
      </trkpt>
      <trkpt lat="44.78288" lon="0.45012">
        <ele>150.2</ele>
        <time>2023-07-14T09:36:43Z</time>
      </trkpt>
      <trkpt lat="44.78285" lon="0.45011">
        <ele>150.2</ele>
        <time>2023-07-14T09:36:45Z</time>
      </trkpt>
      <trkpt lat="44.78283" lon="0.45009">
        <ele>150.4</ele>
        <time>2023-07-14T09:36:46Z</time>
      </trkpt>
      <trkpt lat="44.78282" lon="0.45008">
        <ele>150.4</ele>
        <time>2023-07-14T09:36:47Z</time>
      </trkpt>
      <trkpt lat="44.78282" lon="0.45003">
        <ele>150.5</ele>
        <time>2023-07-14T09:36:49Z</time>
      </trkpt>
      <trkpt lat="44.78283" lon="0.45">
        <ele>150.6</ele>
        <time>2023-07-14T09:36:50Z</time>
      </trkpt>
      <trkpt lat="44.78283" lon="0.44998">
        <ele>150.6</ele>
        <time>2023-07-14T09:36:51Z</time>
      </trkpt>
      <trkpt lat="44.78285" lon="0.44993">
        <ele>150.7</ele>
        <time>2023-07-14T09:36:53Z</time>
      </trkpt>
      <trkpt lat="44.78286" lon="0.44988">
        <ele>151</ele>
        <time>2023-07-14T09:36:55Z</time>
      </trkpt>
      <trkpt lat="44.78288" lon="0.44982">
        <ele>151.2</ele>
        <time>2023-07-14T09:36:57Z</time>
      </trkpt>
      <trkpt lat="44.7829" lon="0.44977">
        <ele>151.3</ele>
        <time>2023-07-14T09:36:59Z</time>
      </trkpt>
      <trkpt lat="44.78291" lon="0.44972">
        <ele>151.5</ele>
        <time>2023-07-14T09:37:01Z</time>
      </trkpt>
      <trkpt lat="44.78293" lon="0.44966">
        <ele>151.8</ele>
        <time>2023-07-14T09:37:03Z</time>
      </trkpt>
      <trkpt lat="44.78294" lon="0.44963">
        <ele>151.9</ele>
        <time>2023-07-14T09:37:04Z</time>
      </trkpt>
      <trkpt lat="44.78295" lon="0.44961">
        <ele>152</ele>
        <time>2023-07-14T09:37:05Z</time>
      </trkpt>
      <trkpt lat="44.78297" lon="0.44955">
        <ele>152.2</ele>
        <time>2023-07-14T09:37:07Z</time>
      </trkpt>
      <trkpt lat="44.78299" lon="0.4495">
        <ele>152.4</ele>
        <time>2023-07-14T09:37:09Z</time>
      </trkpt>
      <trkpt lat="44.78301" lon="0.44944">
        <ele>152.7</ele>
        <time>2023-07-14T09:37:11Z</time>
      </trkpt>
      <trkpt lat="44.78301" lon="0.44941">
        <ele>152.7</ele>
        <time>2023-07-14T09:37:12Z</time>
      </trkpt>
      <trkpt lat="44.78302" lon="0.44938">
        <ele>152.8</ele>
        <time>2023-07-14T09:37:13Z</time>
      </trkpt>
      <trkpt lat="44.78304" lon="0.44933">
        <ele>153</ele>
        <time>2023-07-14T09:37:15Z</time>
      </trkpt>
      <trkpt lat="44.78306" lon="0.44927">
        <ele>153.3</ele>
        <time>2023-07-14T09:37:17Z</time>
      </trkpt>
      <trkpt lat="44.78308" lon="0.44921">
        <ele>153.3</ele>
        <time>2023-07-14T09:37:19Z</time>
      </trkpt>
      <trkpt lat="44.7831" lon="0.44914">
        <ele>153.5</ele>
        <time>2023-07-14T09:37:21Z</time>
      </trkpt>
      <trkpt lat="44.78312" lon="0.44907">
        <ele>153.6</ele>
        <time>2023-07-14T09:37:23Z</time>
      </trkpt>
      <trkpt lat="44.78315" lon="0.449">
        <ele>153.6</ele>
        <time>2023-07-14T09:37:25Z</time>
      </trkpt>
      <trkpt lat="44.78316" lon="0.44892">
        <ele>153.7</ele>
        <time>2023-07-14T09:37:27Z</time>
      </trkpt>
      <trkpt lat="44.78319" lon="0.44885">
        <ele>153.7</ele>
        <time>2023-07-14T09:37:29Z</time>
      </trkpt>
      <trkpt lat="44.78321" lon="0.44878">
        <ele>153.8</ele>
        <time>2023-07-14T09:37:31Z</time>
      </trkpt>
      <trkpt lat="44.78323" lon="0.44871">
        <ele>153.8</ele>
        <time>2023-07-14T09:37:33Z</time>
      </trkpt>
      <trkpt lat="44.78325" lon="0.44864">
        <ele>153.8</ele>
        <time>2023-07-14T09:37:35Z</time>
      </trkpt>
      <trkpt lat="44.78328" lon="0.44856">
        <ele>153.9</ele>
        <time>2023-07-14T09:37:37Z</time>
      </trkpt>
      <trkpt lat="44.7833" lon="0.44849">
        <ele>153.9</ele>
        <time>2023-07-14T09:37:39Z</time>
      </trkpt>
      <trkpt lat="44.78332" lon="0.44841">
        <ele>154</ele>
        <time>2023-07-14T09:37:41Z</time>
      </trkpt>
      <trkpt lat="44.78334" lon="0.44834">
        <ele>154</ele>
        <time>2023-07-14T09:37:43Z</time>
      </trkpt>
      <trkpt lat="44.78336" lon="0.44828">
        <ele>154</ele>
        <time>2023-07-14T09:37:45Z</time>
      </trkpt>
      <trkpt lat="44.78336" lon="0.44823">
        <ele>154.1</ele>
        <time>2023-07-14T09:37:47Z</time>
      </trkpt>
      <trkpt lat="44.78336" lon="0.44821">
        <ele>154.1</ele>
        <time>2023-07-14T09:37:48Z</time>
      </trkpt>
      <trkpt lat="44.78336" lon="0.44819">
        <ele>154.1</ele>
        <time>2023-07-14T09:37:49Z</time>
      </trkpt>
      <trkpt lat="44.78337" lon="0.44815">
        <ele>154.1</ele>
        <time>2023-07-14T09:37:51Z</time>
      </trkpt>
      <trkpt lat="44.78338" lon="0.4481">
        <ele>154.1</ele>
        <time>2023-07-14T09:37:53Z</time>
      </trkpt>
      <trkpt lat="44.7834" lon="0.44807">
        <ele>154.1</ele>
        <time>2023-07-14T09:37:55Z</time>
      </trkpt>
      <trkpt lat="44.78342" lon="0.44806">
        <ele>154.1</ele>
        <time>2023-07-14T09:37:57Z</time>
      </trkpt>
      <trkpt lat="44.78342" lon="0.44806">
        <ele>154.1</ele>
        <time>2023-07-14T09:37:58Z</time>
      </trkpt>
      <trkpt lat="44.78342" lon="0.44805">
        <ele>154.1</ele>
        <time>2023-07-14T09:37:59Z</time>
      </trkpt>
      <trkpt lat="44.78342" lon="0.44805">
        <ele>154.1</ele>
        <time>2023-07-14T09:38:00Z</time>
      </trkpt>
    </trkseg>
  </trk>
</gpx>